<?xml version="1.0" encoding="UTF-8"?><gpx version="1.1" creator="Exported from Strava via extension e-ivanov.ru"  xsi:schemaLocation="http://www.topografix.com/GPX/1/1 http://www.topografix.com/GPX/1/1/gpx.xsd http://www.garmin.com/xmlschemas/GpxExtensions/v3 http://www.garmin.com/xmlschemas/GpxExtensionsv3.xsd http://www.garmin.com/xmlschemas/TrackPointExtension/v1 http://www.garmin.com/xmlschemas/TrackPointExtensionv1.xsd"  xmlns="http://www.topografix.com/GPX/1/1"  xmlns:gpxtpx="http://www.garmin.com/xmlschemas/TrackPointExtension/v1"  xmlns:gpxx="http://www.garmin.com/xmlschemas/GpxExtensions/v3" xmlns:xsi="http://www.w3.org/2001/XMLSchema-instance"><metadata><link href="http://e-ivanov.ru/projects/strava-export-gpx/"><text>Strava gpx export</text></link><time>2022-05-29T11:50:02.342Z</time></metadata><trk><name>RR 22/15 - Ulestraten ( de 3 musketiers 🚴 🚴‍♂️ 🚴‍♀️) | Fietsrit | Strava</name><trkseg><trkpt lon="5.742308" lat="51.144844"><ele>25.8</ele><time>2022-05-29T06:04:00.000Z</time></trkpt><trkpt lon="5.742335" lat="51.144854"><ele>25.6</ele><time>2022-05-29T06:04:01.000Z</time></trkpt><trkpt lon="5.742363" lat="51.144866"><ele>25.6</ele><time>2022-05-29T06:04:02.000Z</time></trkpt><trkpt lon="5.742395" lat="51.144881"><ele>25.6</ele><time>2022-05-29T06:04:03.000Z</time></trkpt><trkpt lon="5.742421" lat="51.144894"><ele>25.6</ele><time>2022-05-29T06:04:04.000Z</time></trkpt><trkpt lon="5.742467" lat="51.144916"><ele>25.6</ele><time>2022-05-29T06:04:05.000Z</time></trkpt><trkpt lon="5.74251" lat="51.144929"><ele>25.8</ele><time>2022-05-29T06:04:06.000Z</time></trkpt><trkpt lon="5.742549" lat="51.14493"><ele>25.8</ele><time>2022-05-29T06:04:07.000Z</time></trkpt><trkpt lon="5.742579" lat="51.144921"><ele>25.8</ele><time>2022-05-29T06:04:08.000Z</time></trkpt><trkpt lon="5.742623" lat="51.144901"><ele>25.8</ele><time>2022-05-29T06:04:09.000Z</time></trkpt><trkpt lon="5.742656" lat="51.144882"><ele>25.8</ele><time>2022-05-29T06:04:10.000Z</time></trkpt><trkpt lon="5.742683" lat="51.144864"><ele>26</ele><time>2022-05-29T06:04:11.000Z</time></trkpt><trkpt lon="5.742702" lat="51.14485"><ele>26</ele><time>2022-05-29T06:04:12.000Z</time></trkpt><trkpt lon="5.742736" lat="51.144825"><ele>25.8</ele><time>2022-05-29T06:04:13.000Z</time></trkpt><trkpt lon="5.742765" lat="51.144805"><ele>25.8</ele><time>2022-05-29T06:04:14.000Z</time></trkpt><trkpt lon="5.742796" lat="51.144783"><ele>25.8</ele><time>2022-05-29T06:04:15.000Z</time></trkpt><trkpt lon="5.742825" lat="51.144763"><ele>25.8</ele><time>2022-05-29T06:04:16.000Z</time></trkpt><trkpt lon="5.742878" lat="51.144732"><ele>25.8</ele><time>2022-05-29T06:04:17.000Z</time></trkpt><trkpt lon="5.742917" lat="51.144704"><ele>25.8</ele><time>2022-05-29T06:04:18.000Z</time></trkpt><trkpt lon="5.74294" lat="51.14469"><ele>25.8</ele><time>2022-05-29T06:04:19.000Z</time></trkpt><trkpt lon="5.743006" lat="51.144651"><ele>25.8</ele><time>2022-05-29T06:04:20.000Z</time></trkpt><trkpt lon="5.743053" lat="51.144624"><ele>25.6</ele><time>2022-05-29T06:04:21.000Z</time></trkpt><trkpt lon="5.743083" lat="51.144605"><ele>25.6</ele><time>2022-05-29T06:04:22.000Z</time></trkpt><trkpt lon="5.743159" lat="51.144557"><ele>25.6</ele><time>2022-05-29T06:04:23.000Z</time></trkpt><trkpt lon="5.743205" lat="51.144529"><ele>25.6</ele><time>2022-05-29T06:04:24.000Z</time></trkpt><trkpt lon="5.743226" lat="51.144516"><ele>25.6</ele><time>2022-05-29T06:04:25.000Z</time></trkpt><trkpt lon="5.743248" lat="51.144502"><ele>25.6</ele><time>2022-05-29T06:04:26.000Z</time></trkpt><trkpt lon="5.743377" lat="51.144424"><ele>25.6</ele><time>2022-05-29T06:04:27.000Z</time></trkpt><trkpt lon="5.743411" lat="51.144402"><ele>25.6</ele><time>2022-05-29T06:04:28.000Z</time></trkpt><trkpt lon="5.743495" lat="51.144349"><ele>25.6</ele><time>2022-05-29T06:04:29.000Z</time></trkpt><trkpt lon="5.743517" lat="51.144333"><ele>25.6</ele><time>2022-05-29T06:04:30.000Z</time></trkpt><trkpt lon="5.74354" lat="51.144317"><ele>25.6</ele><time>2022-05-29T06:04:31.000Z</time></trkpt><trkpt lon="5.743659" lat="51.144242"><ele>25.4</ele><time>2022-05-29T06:04:32.000Z</time></trkpt><trkpt lon="5.74368" lat="51.144226"><ele>25.4</ele><time>2022-05-29T06:04:33.000Z</time></trkpt><trkpt lon="5.743701" lat="51.144211"><ele>25.4</ele><time>2022-05-29T06:04:34.000Z</time></trkpt><trkpt lon="5.743769" lat="51.144133"><ele>25.6</ele><time>2022-05-29T06:04:35.000Z</time></trkpt><trkpt lon="5.743779" lat="51.144103"><ele>25.6</ele><time>2022-05-29T06:04:36.000Z</time></trkpt><trkpt lon="5.743786" lat="51.144059"><ele>25.4</ele><time>2022-05-29T06:04:37.000Z</time></trkpt><trkpt lon="5.743792" lat="51.144026"><ele>25.4</ele><time>2022-05-29T06:04:38.000Z</time></trkpt><trkpt lon="5.743808" lat="51.143995"><ele>25.4</ele><time>2022-05-29T06:04:39.000Z</time></trkpt><trkpt lon="5.74384" lat="51.143961"><ele>25.4</ele><time>2022-05-29T06:04:40.000Z</time></trkpt><trkpt lon="5.743877" lat="51.143937"><ele>25.4</ele><time>2022-05-29T06:04:41.000Z</time></trkpt><trkpt lon="5.743901" lat="51.143923"><ele>25.4</ele><time>2022-05-29T06:04:42.000Z</time></trkpt><trkpt lon="5.743982" lat="51.143896"><ele>25.2</ele><time>2022-05-29T06:04:43.000Z</time></trkpt><trkpt lon="5.744039" lat="51.143886"><ele>25.2</ele><time>2022-05-29T06:04:44.000Z</time></trkpt><trkpt lon="5.74408" lat="51.143881"><ele>25.2</ele><time>2022-05-29T06:04:45.000Z</time></trkpt><trkpt lon="5.744182" lat="51.14387"><ele>25.2</ele><time>2022-05-29T06:04:46.000Z</time></trkpt><trkpt lon="5.744218" lat="51.143861"><ele>25.2</ele><time>2022-05-29T06:04:47.000Z</time></trkpt><trkpt lon="5.744265" lat="51.143846"><ele>25.4</ele><time>2022-05-29T06:04:48.000Z</time></trkpt><trkpt lon="5.744391" lat="51.143782"><ele>25.4</ele><time>2022-05-29T06:04:49.000Z</time></trkpt><trkpt lon="5.744432" lat="51.143756"><ele>25.4</ele><time>2022-05-29T06:04:50.000Z</time></trkpt><trkpt lon="5.74451" lat="51.143704"><ele>25.4</ele><time>2022-05-29T06:04:51.000Z</time></trkpt><trkpt lon="5.744542" lat="51.143686"><ele>25.2</ele><time>2022-05-29T06:04:52.000Z</time></trkpt><trkpt lon="5.744587" lat="51.14366"><ele>25.2</ele><time>2022-05-29T06:04:53.000Z</time></trkpt><trkpt lon="5.744717" lat="51.143577"><ele>25.4</ele><time>2022-05-29T06:04:54.000Z</time></trkpt><trkpt lon="5.744777" lat="51.143535"><ele>25.4</ele><time>2022-05-29T06:04:55.000Z</time></trkpt><trkpt lon="5.744843" lat="51.143492"><ele>25.2</ele><time>2022-05-29T06:04:56.000Z</time></trkpt><trkpt lon="5.744882" lat="51.143465"><ele>25</ele><time>2022-05-29T06:04:57.000Z</time></trkpt><trkpt lon="5.744983" lat="51.143401"><ele>25</ele><time>2022-05-29T06:04:58.000Z</time></trkpt><trkpt lon="5.745052" lat="51.143356"><ele>24.8</ele><time>2022-05-29T06:04:59.000Z</time></trkpt><trkpt lon="5.745121" lat="51.143313"><ele>24.8</ele><time>2022-05-29T06:05:00.000Z</time></trkpt><trkpt lon="5.745188" lat="51.143268"><ele>24.8</ele><time>2022-05-29T06:05:01.000Z</time></trkpt><trkpt lon="5.745259" lat="51.143222"><ele>24.8</ele><time>2022-05-29T06:05:02.000Z</time></trkpt><trkpt lon="5.745328" lat="51.143181"><ele>24.8</ele><time>2022-05-29T06:05:03.000Z</time></trkpt><trkpt lon="5.745399" lat="51.143138"><ele>25</ele><time>2022-05-29T06:05:04.000Z</time></trkpt><trkpt lon="5.745469" lat="51.143092"><ele>25</ele><time>2022-05-29T06:05:05.000Z</time></trkpt><trkpt lon="5.745538" lat="51.143047"><ele>24.8</ele><time>2022-05-29T06:05:06.000Z</time></trkpt><trkpt lon="5.745607" lat="51.143004"><ele>24.8</ele><time>2022-05-29T06:05:07.000Z</time></trkpt><trkpt lon="5.745674" lat="51.142956"><ele>25</ele><time>2022-05-29T06:05:08.000Z</time></trkpt><trkpt lon="5.745746" lat="51.142913"><ele>25</ele><time>2022-05-29T06:05:09.000Z</time></trkpt><trkpt lon="5.745815" lat="51.142868"><ele>25</ele><time>2022-05-29T06:05:10.000Z</time></trkpt><trkpt lon="5.745879" lat="51.142826"><ele>25</ele><time>2022-05-29T06:05:11.000Z</time></trkpt><trkpt lon="5.745951" lat="51.142779"><ele>24.8</ele><time>2022-05-29T06:05:12.000Z</time></trkpt><trkpt lon="5.746026" lat="51.14273"><ele>24.8</ele><time>2022-05-29T06:05:13.000Z</time></trkpt><trkpt lon="5.746092" lat="51.142685"><ele>24.8</ele><time>2022-05-29T06:05:14.000Z</time></trkpt><trkpt lon="5.74616" lat="51.142639"><ele>24.8</ele><time>2022-05-29T06:05:15.000Z</time></trkpt><trkpt lon="5.74623" lat="51.142596"><ele>24.8</ele><time>2022-05-29T06:05:16.000Z</time></trkpt><trkpt lon="5.746296" lat="51.142552"><ele>24.8</ele><time>2022-05-29T06:05:17.000Z</time></trkpt><trkpt lon="5.746363" lat="51.142507"><ele>24.8</ele><time>2022-05-29T06:05:18.000Z</time></trkpt><trkpt lon="5.746432" lat="51.142463"><ele>25</ele><time>2022-05-29T06:05:19.000Z</time></trkpt><trkpt lon="5.746497" lat="51.142417"><ele>24.8</ele><time>2022-05-29T06:05:20.000Z</time></trkpt><trkpt lon="5.746563" lat="51.142372"><ele>24.8</ele><time>2022-05-29T06:05:21.000Z</time></trkpt><trkpt lon="5.74663" lat="51.142325"><ele>24.8</ele><time>2022-05-29T06:05:22.000Z</time></trkpt><trkpt lon="5.746695" lat="51.142276"><ele>24.8</ele><time>2022-05-29T06:05:23.000Z</time></trkpt><trkpt lon="5.746759" lat="51.14223"><ele>24.8</ele><time>2022-05-29T06:05:24.000Z</time></trkpt><trkpt lon="5.746825" lat="51.14218"><ele>24.8</ele><time>2022-05-29T06:05:25.000Z</time></trkpt><trkpt lon="5.746891" lat="51.142134"><ele>24.8</ele><time>2022-05-29T06:05:26.000Z</time></trkpt><trkpt lon="5.746959" lat="51.142085"><ele>24.8</ele><time>2022-05-29T06:05:27.000Z</time></trkpt><trkpt lon="5.747027" lat="51.142039"><ele>24.8</ele><time>2022-05-29T06:05:28.000Z</time></trkpt><trkpt lon="5.747098" lat="51.14199"><ele>24.8</ele><time>2022-05-29T06:05:29.000Z</time></trkpt><trkpt lon="5.747167" lat="51.141945"><ele>25</ele><time>2022-05-29T06:05:30.000Z</time></trkpt><trkpt lon="5.747236" lat="51.141898"><ele>25</ele><time>2022-05-29T06:05:31.000Z</time></trkpt><trkpt lon="5.747306" lat="51.141849"><ele>25</ele><time>2022-05-29T06:05:32.000Z</time></trkpt><trkpt lon="5.747375" lat="51.141806"><ele>25</ele><time>2022-05-29T06:05:33.000Z</time></trkpt><trkpt lon="5.747446" lat="51.141757"><ele>25</ele><time>2022-05-29T06:05:34.000Z</time></trkpt><trkpt lon="5.747516" lat="51.141712"><ele>25</ele><time>2022-05-29T06:05:35.000Z</time></trkpt><trkpt lon="5.747583" lat="51.141668"><ele>25</ele><time>2022-05-29T06:05:36.000Z</time></trkpt><trkpt lon="5.747651" lat="51.14162"><ele>24.8</ele><time>2022-05-29T06:05:37.000Z</time></trkpt><trkpt lon="5.747722" lat="51.141573"><ele>24.8</ele><time>2022-05-29T06:05:38.000Z</time></trkpt><trkpt lon="5.747793" lat="51.141524"><ele>24.8</ele><time>2022-05-29T06:05:39.000Z</time></trkpt><trkpt lon="5.747864" lat="51.141478"><ele>24.6</ele><time>2022-05-29T06:05:40.000Z</time></trkpt><trkpt lon="5.747935" lat="51.141433"><ele>24.6</ele><time>2022-05-29T06:05:41.000Z</time></trkpt><trkpt lon="5.748006" lat="51.141388"><ele>24.6</ele><time>2022-05-29T06:05:42.000Z</time></trkpt><trkpt lon="5.748079" lat="51.141341"><ele>24.6</ele><time>2022-05-29T06:05:43.000Z</time></trkpt><trkpt lon="5.748148" lat="51.141295"><ele>24.6</ele><time>2022-05-29T06:05:44.000Z</time></trkpt><trkpt lon="5.748216" lat="51.14125"><ele>24.6</ele><time>2022-05-29T06:05:45.000Z</time></trkpt><trkpt lon="5.748283" lat="51.141204"><ele>24.6</ele><time>2022-05-29T06:05:46.000Z</time></trkpt><trkpt lon="5.748352" lat="51.141157"><ele>24.6</ele><time>2022-05-29T06:05:47.000Z</time></trkpt><trkpt lon="5.748423" lat="51.141108"><ele>24.6</ele><time>2022-05-29T06:05:48.000Z</time></trkpt><trkpt lon="5.748491" lat="51.141063"><ele>24.6</ele><time>2022-05-29T06:05:49.000Z</time></trkpt><trkpt lon="5.748564" lat="51.141017"><ele>24.6</ele><time>2022-05-29T06:05:50.000Z</time></trkpt><trkpt lon="5.748635" lat="51.140971"><ele>24.6</ele><time>2022-05-29T06:05:51.000Z</time></trkpt><trkpt lon="5.748711" lat="51.140926"><ele>24.8</ele><time>2022-05-29T06:05:52.000Z</time></trkpt><trkpt lon="5.748784" lat="51.140884"><ele>24.8</ele><time>2022-05-29T06:05:53.000Z</time></trkpt><trkpt lon="5.748856" lat="51.140844"><ele>24.8</ele><time>2022-05-29T06:05:54.000Z</time></trkpt><trkpt lon="5.748932" lat="51.1408"><ele>24.8</ele><time>2022-05-29T06:05:55.000Z</time></trkpt><trkpt lon="5.749002" lat="51.140754"><ele>24.8</ele><time>2022-05-29T06:05:56.000Z</time></trkpt><trkpt lon="5.749072" lat="51.140708"><ele>24.8</ele><time>2022-05-29T06:05:57.000Z</time></trkpt><trkpt lon="5.749141" lat="51.140659"><ele>24.8</ele><time>2022-05-29T06:05:58.000Z</time></trkpt><trkpt lon="5.749211" lat="51.140612"><ele>24.8</ele><time>2022-05-29T06:05:59.000Z</time></trkpt><trkpt lon="5.749275" lat="51.140562"><ele>24.8</ele><time>2022-05-29T06:06:00.000Z</time></trkpt><trkpt lon="5.749334" lat="51.140509"><ele>24.8</ele><time>2022-05-29T06:06:01.000Z</time></trkpt><trkpt lon="5.749391" lat="51.140462"><ele>24.8</ele><time>2022-05-29T06:06:02.000Z</time></trkpt><trkpt lon="5.749446" lat="51.140422"><ele>24.8</ele><time>2022-05-29T06:06:03.000Z</time></trkpt><trkpt lon="5.749519" lat="51.140368"><ele>24.8</ele><time>2022-05-29T06:06:04.000Z</time></trkpt><trkpt lon="5.749593" lat="51.140315"><ele>24.8</ele><time>2022-05-29T06:06:05.000Z</time></trkpt><trkpt lon="5.749664" lat="51.140269"><ele>24.8</ele><time>2022-05-29T06:06:06.000Z</time></trkpt><trkpt lon="5.749737" lat="51.140219"><ele>24.8</ele><time>2022-05-29T06:06:07.000Z</time></trkpt><trkpt lon="5.749809" lat="51.14017"><ele>24.8</ele><time>2022-05-29T06:06:08.000Z</time></trkpt><trkpt lon="5.749882" lat="51.140124"><ele>24.6</ele><time>2022-05-29T06:06:09.000Z</time></trkpt><trkpt lon="5.749955" lat="51.140075"><ele>24.6</ele><time>2022-05-29T06:06:10.000Z</time></trkpt><trkpt lon="5.750027" lat="51.140028"><ele>24.6</ele><time>2022-05-29T06:06:11.000Z</time></trkpt><trkpt lon="5.750099" lat="51.139982"><ele>24.6</ele><time>2022-05-29T06:06:12.000Z</time></trkpt><trkpt lon="5.750172" lat="51.139932"><ele>24.6</ele><time>2022-05-29T06:06:13.000Z</time></trkpt><trkpt lon="5.750246" lat="51.139883"><ele>24.6</ele><time>2022-05-29T06:06:14.000Z</time></trkpt><trkpt lon="5.75032" lat="51.139834"><ele>24.6</ele><time>2022-05-29T06:06:15.000Z</time></trkpt><trkpt lon="5.750394" lat="51.139785"><ele>24.6</ele><time>2022-05-29T06:06:16.000Z</time></trkpt><trkpt lon="5.750468" lat="51.139738"><ele>24.6</ele><time>2022-05-29T06:06:17.000Z</time></trkpt><trkpt lon="5.750541" lat="51.139689"><ele>24.4</ele><time>2022-05-29T06:06:18.000Z</time></trkpt><trkpt lon="5.750614" lat="51.139643"><ele>24.4</ele><time>2022-05-29T06:06:19.000Z</time></trkpt><trkpt lon="5.750686" lat="51.139594"><ele>24.4</ele><time>2022-05-29T06:06:20.000Z</time></trkpt><trkpt lon="5.750758" lat="51.139545"><ele>24.6</ele><time>2022-05-29T06:06:21.000Z</time></trkpt><trkpt lon="5.750834" lat="51.139494"><ele>24.6</ele><time>2022-05-29T06:06:22.000Z</time></trkpt><trkpt lon="5.750903" lat="51.139446"><ele>24.4</ele><time>2022-05-29T06:06:23.000Z</time></trkpt><trkpt lon="5.750977" lat="51.139397"><ele>24.6</ele><time>2022-05-29T06:06:24.000Z</time></trkpt><trkpt lon="5.751053" lat="51.139349"><ele>24.6</ele><time>2022-05-29T06:06:25.000Z</time></trkpt><trkpt lon="5.751126" lat="51.139297"><ele>24.6</ele><time>2022-05-29T06:06:26.000Z</time></trkpt><trkpt lon="5.751197" lat="51.139253"><ele>24.6</ele><time>2022-05-29T06:06:27.000Z</time></trkpt><trkpt lon="5.751261" lat="51.13921"><ele>24.8</ele><time>2022-05-29T06:06:28.000Z</time></trkpt><trkpt lon="5.751344" lat="51.139154"><ele>24.8</ele><time>2022-05-29T06:06:29.000Z</time></trkpt><trkpt lon="5.751414" lat="51.13911"><ele>24.6</ele><time>2022-05-29T06:06:30.000Z</time></trkpt><trkpt lon="5.751495" lat="51.139056"><ele>24.6</ele><time>2022-05-29T06:06:31.000Z</time></trkpt><trkpt lon="5.751568" lat="51.139006"><ele>24.6</ele><time>2022-05-29T06:06:32.000Z</time></trkpt><trkpt lon="5.75164" lat="51.138956"><ele>24.6</ele><time>2022-05-29T06:06:33.000Z</time></trkpt><trkpt lon="5.751714" lat="51.138907"><ele>24.6</ele><time>2022-05-29T06:06:34.000Z</time></trkpt><trkpt lon="5.751787" lat="51.13886"><ele>24.6</ele><time>2022-05-29T06:06:35.000Z</time></trkpt><trkpt lon="5.751861" lat="51.138807"><ele>24.8</ele><time>2022-05-29T06:06:36.000Z</time></trkpt><trkpt lon="5.751936" lat="51.138759"><ele>24.8</ele><time>2022-05-29T06:06:37.000Z</time></trkpt><trkpt lon="5.752009" lat="51.138712"><ele>24.8</ele><time>2022-05-29T06:06:38.000Z</time></trkpt><trkpt lon="5.752084" lat="51.138662"><ele>24.8</ele><time>2022-05-29T06:06:39.000Z</time></trkpt><trkpt lon="5.752156" lat="51.138613"><ele>25</ele><time>2022-05-29T06:06:40.000Z</time></trkpt><trkpt lon="5.752228" lat="51.138563"><ele>25</ele><time>2022-05-29T06:06:41.000Z</time></trkpt><trkpt lon="5.7523" lat="51.138514"><ele>25</ele><time>2022-05-29T06:06:42.000Z</time></trkpt><trkpt lon="5.752373" lat="51.138465"><ele>25</ele><time>2022-05-29T06:06:43.000Z</time></trkpt><trkpt lon="5.752446" lat="51.138419"><ele>25</ele><time>2022-05-29T06:06:44.000Z</time></trkpt><trkpt lon="5.752521" lat="51.138369"><ele>25</ele><time>2022-05-29T06:06:45.000Z</time></trkpt><trkpt lon="5.752593" lat="51.138319"><ele>25</ele><time>2022-05-29T06:06:46.000Z</time></trkpt><trkpt lon="5.752665" lat="51.138271"><ele>25.2</ele><time>2022-05-29T06:06:47.000Z</time></trkpt><trkpt lon="5.752741" lat="51.138224"><ele>25.2</ele><time>2022-05-29T06:06:48.000Z</time></trkpt><trkpt lon="5.752816" lat="51.138174"><ele>25</ele><time>2022-05-29T06:06:49.000Z</time></trkpt><trkpt lon="5.752893" lat="51.138125"><ele>25</ele><time>2022-05-29T06:06:50.000Z</time></trkpt><trkpt lon="5.752967" lat="51.138075"><ele>25</ele><time>2022-05-29T06:06:51.000Z</time></trkpt><trkpt lon="5.753037" lat="51.138027"><ele>25</ele><time>2022-05-29T06:06:52.000Z</time></trkpt><trkpt lon="5.753097" lat="51.137986"><ele>25</ele><time>2022-05-29T06:06:53.000Z</time></trkpt><trkpt lon="5.753184" lat="51.137928"><ele>25</ele><time>2022-05-29T06:06:54.000Z</time></trkpt><trkpt lon="5.753248" lat="51.137885"><ele>25</ele><time>2022-05-29T06:06:55.000Z</time></trkpt><trkpt lon="5.753334" lat="51.137827"><ele>25</ele><time>2022-05-29T06:06:56.000Z</time></trkpt><trkpt lon="5.753404" lat="51.137779"><ele>25</ele><time>2022-05-29T06:06:57.000Z</time></trkpt><trkpt lon="5.753478" lat="51.137732"><ele>25</ele><time>2022-05-29T06:06:58.000Z</time></trkpt><trkpt lon="5.753555" lat="51.137687"><ele>25</ele><time>2022-05-29T06:06:59.000Z</time></trkpt><trkpt lon="5.753633" lat="51.137646"><ele>25</ele><time>2022-05-29T06:07:00.000Z</time></trkpt><trkpt lon="5.753713" lat="51.137602"><ele>25</ele><time>2022-05-29T06:07:01.000Z</time></trkpt><trkpt lon="5.753787" lat="51.137557"><ele>25</ele><time>2022-05-29T06:07:02.000Z</time></trkpt><trkpt lon="5.75386" lat="51.13751"><ele>25</ele><time>2022-05-29T06:07:03.000Z</time></trkpt><trkpt lon="5.753931" lat="51.137461"><ele>25</ele><time>2022-05-29T06:07:04.000Z</time></trkpt><trkpt lon="5.754005" lat="51.137412"><ele>25</ele><time>2022-05-29T06:07:05.000Z</time></trkpt><trkpt lon="5.754076" lat="51.137365"><ele>25</ele><time>2022-05-29T06:07:06.000Z</time></trkpt><trkpt lon="5.754152" lat="51.137313"><ele>25</ele><time>2022-05-29T06:07:07.000Z</time></trkpt><trkpt lon="5.754224" lat="51.137267"><ele>25</ele><time>2022-05-29T06:07:08.000Z</time></trkpt><trkpt lon="5.754299" lat="51.137216"><ele>25</ele><time>2022-05-29T06:07:09.000Z</time></trkpt><trkpt lon="5.754373" lat="51.137167"><ele>25</ele><time>2022-05-29T06:07:10.000Z</time></trkpt><trkpt lon="5.754446" lat="51.137121"><ele>25.2</ele><time>2022-05-29T06:07:11.000Z</time></trkpt><trkpt lon="5.754517" lat="51.137073"><ele>25.2</ele><time>2022-05-29T06:07:12.000Z</time></trkpt><trkpt lon="5.754589" lat="51.137024"><ele>25.2</ele><time>2022-05-29T06:07:13.000Z</time></trkpt><trkpt lon="5.754664" lat="51.136974"><ele>25.2</ele><time>2022-05-29T06:07:14.000Z</time></trkpt><trkpt lon="5.754738" lat="51.136927"><ele>25.2</ele><time>2022-05-29T06:07:15.000Z</time></trkpt><trkpt lon="5.75481" lat="51.136881"><ele>25.2</ele><time>2022-05-29T06:07:16.000Z</time></trkpt><trkpt lon="5.754883" lat="51.136832"><ele>25.2</ele><time>2022-05-29T06:07:17.000Z</time></trkpt><trkpt lon="5.754954" lat="51.136786"><ele>25.2</ele><time>2022-05-29T06:07:18.000Z</time></trkpt><trkpt lon="5.755025" lat="51.136741"><ele>25.2</ele><time>2022-05-29T06:07:19.000Z</time></trkpt><trkpt lon="5.755097" lat="51.136694"><ele>25.2</ele><time>2022-05-29T06:07:20.000Z</time></trkpt><trkpt lon="5.755168" lat="51.136646"><ele>25.2</ele><time>2022-05-29T06:07:21.000Z</time></trkpt><trkpt lon="5.755242" lat="51.136599"><ele>25.2</ele><time>2022-05-29T06:07:22.000Z</time></trkpt><trkpt lon="5.755314" lat="51.13655"><ele>25.2</ele><time>2022-05-29T06:07:23.000Z</time></trkpt><trkpt lon="5.755387" lat="51.136504"><ele>25.2</ele><time>2022-05-29T06:07:24.000Z</time></trkpt><trkpt lon="5.755461" lat="51.136454"><ele>25.2</ele><time>2022-05-29T06:07:25.000Z</time></trkpt><trkpt lon="5.755532" lat="51.136409"><ele>25.2</ele><time>2022-05-29T06:07:26.000Z</time></trkpt><trkpt lon="5.755603" lat="51.136363"><ele>25</ele><time>2022-05-29T06:07:27.000Z</time></trkpt><trkpt lon="5.755672" lat="51.136318"><ele>25</ele><time>2022-05-29T06:07:28.000Z</time></trkpt><trkpt lon="5.755744" lat="51.136271"><ele>25</ele><time>2022-05-29T06:07:29.000Z</time></trkpt><trkpt lon="5.755813" lat="51.136222"><ele>25</ele><time>2022-05-29T06:07:30.000Z</time></trkpt><trkpt lon="5.755882" lat="51.136177"><ele>25</ele><time>2022-05-29T06:07:31.000Z</time></trkpt><trkpt lon="5.755956" lat="51.13613"><ele>25</ele><time>2022-05-29T06:07:32.000Z</time></trkpt><trkpt lon="5.756029" lat="51.136084"><ele>25.2</ele><time>2022-05-29T06:07:33.000Z</time></trkpt><trkpt lon="5.756103" lat="51.136034"><ele>25.2</ele><time>2022-05-29T06:07:34.000Z</time></trkpt><trkpt lon="5.756173" lat="51.135988"><ele>25.2</ele><time>2022-05-29T06:07:35.000Z</time></trkpt><trkpt lon="5.756243" lat="51.13594"><ele>25.2</ele><time>2022-05-29T06:07:36.000Z</time></trkpt><trkpt lon="5.756316" lat="51.13589"><ele>25.2</ele><time>2022-05-29T06:07:37.000Z</time></trkpt><trkpt lon="5.756387" lat="51.135843"><ele>25.2</ele><time>2022-05-29T06:07:38.000Z</time></trkpt><trkpt lon="5.756459" lat="51.135794"><ele>25.2</ele><time>2022-05-29T06:07:39.000Z</time></trkpt><trkpt lon="5.75653" lat="51.135748"><ele>25.2</ele><time>2022-05-29T06:07:40.000Z</time></trkpt><trkpt lon="5.7566" lat="51.135699"><ele>25.2</ele><time>2022-05-29T06:07:41.000Z</time></trkpt><trkpt lon="5.756672" lat="51.13565"><ele>25.2</ele><time>2022-05-29T06:07:42.000Z</time></trkpt><trkpt lon="5.756744" lat="51.135605"><ele>25.2</ele><time>2022-05-29T06:07:43.000Z</time></trkpt><trkpt lon="5.756821" lat="51.135559"><ele>25.2</ele><time>2022-05-29T06:07:44.000Z</time></trkpt><trkpt lon="5.756893" lat="51.135515"><ele>25.4</ele><time>2022-05-29T06:07:45.000Z</time></trkpt><trkpt lon="5.756964" lat="51.135467"><ele>25.4</ele><time>2022-05-29T06:07:46.000Z</time></trkpt><trkpt lon="5.757036" lat="51.135419"><ele>25.2</ele><time>2022-05-29T06:07:47.000Z</time></trkpt><trkpt lon="5.757112" lat="51.13537"><ele>25.2</ele><time>2022-05-29T06:07:48.000Z</time></trkpt><trkpt lon="5.757185" lat="51.135321"><ele>25.2</ele><time>2022-05-29T06:07:49.000Z</time></trkpt><trkpt lon="5.757256" lat="51.135275"><ele>25.2</ele><time>2022-05-29T06:07:50.000Z</time></trkpt><trkpt lon="5.757326" lat="51.135226"><ele>25.2</ele><time>2022-05-29T06:07:51.000Z</time></trkpt><trkpt lon="5.757394" lat="51.135181"><ele>25.2</ele><time>2022-05-29T06:07:52.000Z</time></trkpt><trkpt lon="5.757462" lat="51.135135"><ele>25.2</ele><time>2022-05-29T06:07:53.000Z</time></trkpt><trkpt lon="5.757531" lat="51.135084"><ele>25.2</ele><time>2022-05-29T06:07:54.000Z</time></trkpt><trkpt lon="5.757595" lat="51.135035"><ele>25.2</ele><time>2022-05-29T06:07:55.000Z</time></trkpt><trkpt lon="5.757657" lat="51.134985"><ele>25.2</ele><time>2022-05-29T06:07:56.000Z</time></trkpt><trkpt lon="5.757717" lat="51.134931"><ele>25.2</ele><time>2022-05-29T06:07:57.000Z</time></trkpt><trkpt lon="5.757775" lat="51.134878"><ele>25.2</ele><time>2022-05-29T06:07:58.000Z</time></trkpt><trkpt lon="5.757829" lat="51.134825"><ele>25.2</ele><time>2022-05-29T06:07:59.000Z</time></trkpt><trkpt lon="5.757881" lat="51.13477"><ele>25</ele><time>2022-05-29T06:08:00.000Z</time></trkpt><trkpt lon="5.757931" lat="51.134713"><ele>25</ele><time>2022-05-29T06:08:01.000Z</time></trkpt><trkpt lon="5.757978" lat="51.134656"><ele>25</ele><time>2022-05-29T06:08:02.000Z</time></trkpt><trkpt lon="5.758023" lat="51.134602"><ele>25</ele><time>2022-05-29T06:08:03.000Z</time></trkpt><trkpt lon="5.758067" lat="51.134542"><ele>24.8</ele><time>2022-05-29T06:08:04.000Z</time></trkpt><trkpt lon="5.758108" lat="51.134483"><ele>24.8</ele><time>2022-05-29T06:08:05.000Z</time></trkpt><trkpt lon="5.758148" lat="51.134423"><ele>24.8</ele><time>2022-05-29T06:08:06.000Z</time></trkpt><trkpt lon="5.758188" lat="51.134365"><ele>24.8</ele><time>2022-05-29T06:08:07.000Z</time></trkpt><trkpt lon="5.758227" lat="51.134305"><ele>24.8</ele><time>2022-05-29T06:08:08.000Z</time></trkpt><trkpt lon="5.758264" lat="51.134252"><ele>24.8</ele><time>2022-05-29T06:08:09.000Z</time></trkpt><trkpt lon="5.758305" lat="51.134187"><ele>25</ele><time>2022-05-29T06:08:10.000Z</time></trkpt><trkpt lon="5.758344" lat="51.13413"><ele>25</ele><time>2022-05-29T06:08:11.000Z</time></trkpt><trkpt lon="5.758382" lat="51.134073"><ele>25</ele><time>2022-05-29T06:08:12.000Z</time></trkpt><trkpt lon="5.758419" lat="51.134021"><ele>25</ele><time>2022-05-29T06:08:13.000Z</time></trkpt><trkpt lon="5.758449" lat="51.133973"><ele>25</ele><time>2022-05-29T06:08:14.000Z</time></trkpt><trkpt lon="5.758467" lat="51.133935"><ele>25.2</ele><time>2022-05-29T06:08:15.000Z</time></trkpt><trkpt lon="5.758461" lat="51.133892"><ele>25.2</ele><time>2022-05-29T06:08:16.000Z</time></trkpt><trkpt lon="5.758427" lat="51.133855"><ele>25</ele><time>2022-05-29T06:08:17.000Z</time></trkpt><trkpt lon="5.758372" lat="51.133816"><ele>25</ele><time>2022-05-29T06:08:18.000Z</time></trkpt><trkpt lon="5.75831" lat="51.133776"><ele>24.6</ele><time>2022-05-29T06:08:19.000Z</time></trkpt><trkpt lon="5.758246" lat="51.13373"><ele>24.4</ele><time>2022-05-29T06:08:20.000Z</time></trkpt><trkpt lon="5.758183" lat="51.13368"><ele>24.4</ele><time>2022-05-29T06:08:21.000Z</time></trkpt><trkpt lon="5.758122" lat="51.133627"><ele>24.2</ele><time>2022-05-29T06:08:22.000Z</time></trkpt><trkpt lon="5.758061" lat="51.133578"><ele>24.2</ele><time>2022-05-29T06:08:23.000Z</time></trkpt><trkpt lon="5.758001" lat="51.133529"><ele>24.2</ele><time>2022-05-29T06:08:24.000Z</time></trkpt><trkpt lon="5.757938" lat="51.133477"><ele>24.2</ele><time>2022-05-29T06:08:25.000Z</time></trkpt><trkpt lon="5.757878" lat="51.133425"><ele>24.2</ele><time>2022-05-29T06:08:26.000Z</time></trkpt><trkpt lon="5.757816" lat="51.133375"><ele>24</ele><time>2022-05-29T06:08:27.000Z</time></trkpt><trkpt lon="5.757754" lat="51.133325"><ele>24</ele><time>2022-05-29T06:08:28.000Z</time></trkpt><trkpt lon="5.757691" lat="51.133273"><ele>24</ele><time>2022-05-29T06:08:29.000Z</time></trkpt><trkpt lon="5.757626" lat="51.133222"><ele>24</ele><time>2022-05-29T06:08:30.000Z</time></trkpt><trkpt lon="5.757564" lat="51.133173"><ele>24</ele><time>2022-05-29T06:08:31.000Z</time></trkpt><trkpt lon="5.757501" lat="51.133123"><ele>24</ele><time>2022-05-29T06:08:32.000Z</time></trkpt><trkpt lon="5.757439" lat="51.133073"><ele>24</ele><time>2022-05-29T06:08:33.000Z</time></trkpt><trkpt lon="5.757376" lat="51.133019"><ele>24</ele><time>2022-05-29T06:08:34.000Z</time></trkpt><trkpt lon="5.757316" lat="51.132967"><ele>24</ele><time>2022-05-29T06:08:35.000Z</time></trkpt><trkpt lon="5.757258" lat="51.132917"><ele>24</ele><time>2022-05-29T06:08:36.000Z</time></trkpt><trkpt lon="5.757189" lat="51.132864"><ele>24.2</ele><time>2022-05-29T06:08:37.000Z</time></trkpt><trkpt lon="5.757127" lat="51.132812"><ele>24.2</ele><time>2022-05-29T06:08:38.000Z</time></trkpt><trkpt lon="5.75706" lat="51.132757"><ele>24.2</ele><time>2022-05-29T06:08:39.000Z</time></trkpt><trkpt lon="5.756999" lat="51.132705"><ele>24.2</ele><time>2022-05-29T06:08:40.000Z</time></trkpt><trkpt lon="5.756933" lat="51.132645"><ele>24.2</ele><time>2022-05-29T06:08:41.000Z</time></trkpt><trkpt lon="5.756872" lat="51.132588"><ele>24.2</ele><time>2022-05-29T06:08:42.000Z</time></trkpt><trkpt lon="5.756813" lat="51.132531"><ele>24.4</ele><time>2022-05-29T06:08:43.000Z</time></trkpt><trkpt lon="5.756759" lat="51.13247"><ele>24.6</ele><time>2022-05-29T06:08:44.000Z</time></trkpt><trkpt lon="5.756708" lat="51.132411"><ele>24.6</ele><time>2022-05-29T06:08:45.000Z</time></trkpt><trkpt lon="5.75666" lat="51.132346"><ele>24.6</ele><time>2022-05-29T06:08:46.000Z</time></trkpt><trkpt lon="5.756617" lat="51.132285"><ele>24.6</ele><time>2022-05-29T06:08:47.000Z</time></trkpt><trkpt lon="5.756577" lat="51.132221"><ele>24.6</ele><time>2022-05-29T06:08:48.000Z</time></trkpt><trkpt lon="5.756542" lat="51.132155"><ele>24.6</ele><time>2022-05-29T06:08:49.000Z</time></trkpt><trkpt lon="5.756512" lat="51.132088"><ele>24.6</ele><time>2022-05-29T06:08:50.000Z</time></trkpt><trkpt lon="5.756484" lat="51.132018"><ele>24.6</ele><time>2022-05-29T06:08:51.000Z</time></trkpt><trkpt lon="5.756459" lat="51.131953"><ele>24.6</ele><time>2022-05-29T06:08:52.000Z</time></trkpt><trkpt lon="5.756438" lat="51.131885"><ele>24.6</ele><time>2022-05-29T06:08:53.000Z</time></trkpt><trkpt lon="5.75642" lat="51.131817"><ele>24.6</ele><time>2022-05-29T06:08:54.000Z</time></trkpt><trkpt lon="5.756401" lat="51.131751"><ele>24.6</ele><time>2022-05-29T06:08:55.000Z</time></trkpt><trkpt lon="5.756381" lat="51.131686"><ele>24.6</ele><time>2022-05-29T06:08:56.000Z</time></trkpt><trkpt lon="5.756363" lat="51.131619"><ele>24.6</ele><time>2022-05-29T06:08:57.000Z</time></trkpt><trkpt lon="5.756343" lat="51.131552"><ele>24.4</ele><time>2022-05-29T06:08:58.000Z</time></trkpt><trkpt lon="5.756325" lat="51.131484"><ele>24.4</ele><time>2022-05-29T06:08:59.000Z</time></trkpt><trkpt lon="5.756307" lat="51.13142"><ele>24.2</ele><time>2022-05-29T06:09:00.000Z</time></trkpt><trkpt lon="5.756289" lat="51.131355"><ele>24.2</ele><time>2022-05-29T06:09:01.000Z</time></trkpt><trkpt lon="5.75627" lat="51.131286"><ele>24</ele><time>2022-05-29T06:09:02.000Z</time></trkpt><trkpt lon="5.756252" lat="51.131217"><ele>24</ele><time>2022-05-29T06:09:03.000Z</time></trkpt><trkpt lon="5.756232" lat="51.131147"><ele>23.8</ele><time>2022-05-29T06:09:04.000Z</time></trkpt><trkpt lon="5.756213" lat="51.131079"><ele>23.8</ele><time>2022-05-29T06:09:05.000Z</time></trkpt><trkpt lon="5.756195" lat="51.131011"><ele>23.8</ele><time>2022-05-29T06:09:06.000Z</time></trkpt><trkpt lon="5.756177" lat="51.130947"><ele>23.8</ele><time>2022-05-29T06:09:07.000Z</time></trkpt><trkpt lon="5.756158" lat="51.130877"><ele>23.8</ele><time>2022-05-29T06:09:08.000Z</time></trkpt><trkpt lon="5.75614" lat="51.130804"><ele>23.8</ele><time>2022-05-29T06:09:09.000Z</time></trkpt><trkpt lon="5.756123" lat="51.130735"><ele>23.8</ele><time>2022-05-29T06:09:10.000Z</time></trkpt><trkpt lon="5.756104" lat="51.130666"><ele>23.8</ele><time>2022-05-29T06:09:11.000Z</time></trkpt><trkpt lon="5.756087" lat="51.130594"><ele>24</ele><time>2022-05-29T06:09:12.000Z</time></trkpt><trkpt lon="5.756068" lat="51.130525"><ele>24</ele><time>2022-05-29T06:09:13.000Z</time></trkpt><trkpt lon="5.75605" lat="51.130453"><ele>24.2</ele><time>2022-05-29T06:09:14.000Z</time></trkpt><trkpt lon="5.75603" lat="51.130384"><ele>24.2</ele><time>2022-05-29T06:09:15.000Z</time></trkpt><trkpt lon="5.756009" lat="51.130312"><ele>24.4</ele><time>2022-05-29T06:09:16.000Z</time></trkpt><trkpt lon="5.755989" lat="51.130243"><ele>24.4</ele><time>2022-05-29T06:09:17.000Z</time></trkpt><trkpt lon="5.755967" lat="51.130171"><ele>24.4</ele><time>2022-05-29T06:09:18.000Z</time></trkpt><trkpt lon="5.755946" lat="51.130102"><ele>24.4</ele><time>2022-05-29T06:09:19.000Z</time></trkpt><trkpt lon="5.755923" lat="51.130034"><ele>24.4</ele><time>2022-05-29T06:09:20.000Z</time></trkpt><trkpt lon="5.755901" lat="51.129961"><ele>24.4</ele><time>2022-05-29T06:09:21.000Z</time></trkpt><trkpt lon="5.755877" lat="51.129893"><ele>24.6</ele><time>2022-05-29T06:09:22.000Z</time></trkpt><trkpt lon="5.755852" lat="51.129824"><ele>24.6</ele><time>2022-05-29T06:09:23.000Z</time></trkpt><trkpt lon="5.755827" lat="51.129757"><ele>24.6</ele><time>2022-05-29T06:09:24.000Z</time></trkpt><trkpt lon="5.755801" lat="51.129692"><ele>24.6</ele><time>2022-05-29T06:09:25.000Z</time></trkpt><trkpt lon="5.755773" lat="51.129623"><ele>24.8</ele><time>2022-05-29T06:09:26.000Z</time></trkpt><trkpt lon="5.755746" lat="51.129556"><ele>24.8</ele><time>2022-05-29T06:09:27.000Z</time></trkpt><trkpt lon="5.755721" lat="51.129502"><ele>24.8</ele><time>2022-05-29T06:09:28.000Z</time></trkpt><trkpt lon="5.755685" lat="51.129422"><ele>24.8</ele><time>2022-05-29T06:09:29.000Z</time></trkpt><trkpt lon="5.755653" lat="51.129355"><ele>24.8</ele><time>2022-05-29T06:09:30.000Z</time></trkpt><trkpt lon="5.755623" lat="51.129288"><ele>24.8</ele><time>2022-05-29T06:09:31.000Z</time></trkpt><trkpt lon="5.755593" lat="51.129218"><ele>24.8</ele><time>2022-05-29T06:09:32.000Z</time></trkpt><trkpt lon="5.755563" lat="51.129149"><ele>24.8</ele><time>2022-05-29T06:09:33.000Z</time></trkpt><trkpt lon="5.755532" lat="51.12908"><ele>24.6</ele><time>2022-05-29T06:09:34.000Z</time></trkpt><trkpt lon="5.755501" lat="51.129013"><ele>24.6</ele><time>2022-05-29T06:09:35.000Z</time></trkpt><trkpt lon="5.755468" lat="51.128944"><ele>24.4</ele><time>2022-05-29T06:09:36.000Z</time></trkpt><trkpt lon="5.755436" lat="51.128875"><ele>24.4</ele><time>2022-05-29T06:09:37.000Z</time></trkpt><trkpt lon="5.755405" lat="51.128805"><ele>24.2</ele><time>2022-05-29T06:09:38.000Z</time></trkpt><trkpt lon="5.755375" lat="51.128734"><ele>24</ele><time>2022-05-29T06:09:39.000Z</time></trkpt><trkpt lon="5.755346" lat="51.128664"><ele>24</ele><time>2022-05-29T06:09:40.000Z</time></trkpt><trkpt lon="5.755318" lat="51.128596"><ele>24</ele><time>2022-05-29T06:09:41.000Z</time></trkpt><trkpt lon="5.75529" lat="51.12853"><ele>24</ele><time>2022-05-29T06:09:42.000Z</time></trkpt><trkpt lon="5.755263" lat="51.128463"><ele>24</ele><time>2022-05-29T06:09:43.000Z</time></trkpt><trkpt lon="5.755237" lat="51.128398"><ele>24</ele><time>2022-05-29T06:09:44.000Z</time></trkpt><trkpt lon="5.755208" lat="51.128334"><ele>24</ele><time>2022-05-29T06:09:45.000Z</time></trkpt><trkpt lon="5.755178" lat="51.128269"><ele>23.8</ele><time>2022-05-29T06:09:46.000Z</time></trkpt><trkpt lon="5.755149" lat="51.128201"><ele>23.8</ele><time>2022-05-29T06:09:47.000Z</time></trkpt><trkpt lon="5.755124" lat="51.128134"><ele>23.6</ele><time>2022-05-29T06:09:48.000Z</time></trkpt><trkpt lon="5.755095" lat="51.128068"><ele>23.6</ele><time>2022-05-29T06:09:49.000Z</time></trkpt><trkpt lon="5.755067" lat="51.128003"><ele>23.6</ele><time>2022-05-29T06:09:50.000Z</time></trkpt><trkpt lon="5.755034" lat="51.127936"><ele>23.6</ele><time>2022-05-29T06:09:51.000Z</time></trkpt><trkpt lon="5.755003" lat="51.127869"><ele>23.6</ele><time>2022-05-29T06:09:52.000Z</time></trkpt><trkpt lon="5.754974" lat="51.127803"><ele>23.6</ele><time>2022-05-29T06:09:53.000Z</time></trkpt><trkpt lon="5.754939" lat="51.127736"><ele>23.6</ele><time>2022-05-29T06:09:54.000Z</time></trkpt><trkpt lon="5.754903" lat="51.127669"><ele>23.6</ele><time>2022-05-29T06:09:55.000Z</time></trkpt><trkpt lon="5.754867" lat="51.127602"><ele>23.8</ele><time>2022-05-29T06:09:56.000Z</time></trkpt><trkpt lon="5.754831" lat="51.127536"><ele>23.8</ele><time>2022-05-29T06:09:57.000Z</time></trkpt><trkpt lon="5.754793" lat="51.127471"><ele>23.8</ele><time>2022-05-29T06:09:58.000Z</time></trkpt><trkpt lon="5.754757" lat="51.127406"><ele>23.8</ele><time>2022-05-29T06:09:59.000Z</time></trkpt><trkpt lon="5.754722" lat="51.127338"><ele>23.8</ele><time>2022-05-29T06:10:00.000Z</time></trkpt><trkpt lon="5.754685" lat="51.127274"><ele>23.8</ele><time>2022-05-29T06:10:01.000Z</time></trkpt><trkpt lon="5.75465" lat="51.127211"><ele>23.8</ele><time>2022-05-29T06:10:02.000Z</time></trkpt><trkpt lon="5.754617" lat="51.127147"><ele>23.8</ele><time>2022-05-29T06:10:03.000Z</time></trkpt><trkpt lon="5.754582" lat="51.127082"><ele>23.8</ele><time>2022-05-29T06:10:04.000Z</time></trkpt><trkpt lon="5.754549" lat="51.127018"><ele>23.8</ele><time>2022-05-29T06:10:05.000Z</time></trkpt><trkpt lon="5.754517" lat="51.126953"><ele>23.8</ele><time>2022-05-29T06:10:06.000Z</time></trkpt><trkpt lon="5.754481" lat="51.126889"><ele>23.8</ele><time>2022-05-29T06:10:07.000Z</time></trkpt><trkpt lon="5.754445" lat="51.126823"><ele>23.8</ele><time>2022-05-29T06:10:08.000Z</time></trkpt><trkpt lon="5.754409" lat="51.126761"><ele>23.8</ele><time>2022-05-29T06:10:09.000Z</time></trkpt><trkpt lon="5.754371" lat="51.126698"><ele>23.8</ele><time>2022-05-29T06:10:10.000Z</time></trkpt><trkpt lon="5.754333" lat="51.126632"><ele>24</ele><time>2022-05-29T06:10:11.000Z</time></trkpt><trkpt lon="5.754298" lat="51.12657"><ele>24</ele><time>2022-05-29T06:10:12.000Z</time></trkpt><trkpt lon="5.754262" lat="51.126509"><ele>24</ele><time>2022-05-29T06:10:13.000Z</time></trkpt><trkpt lon="5.754225" lat="51.126441"><ele>24</ele><time>2022-05-29T06:10:14.000Z</time></trkpt><trkpt lon="5.754191" lat="51.126378"><ele>23.8</ele><time>2022-05-29T06:10:15.000Z</time></trkpt><trkpt lon="5.754157" lat="51.126316"><ele>23.8</ele><time>2022-05-29T06:10:16.000Z</time></trkpt><trkpt lon="5.754121" lat="51.126257"><ele>23.8</ele><time>2022-05-29T06:10:17.000Z</time></trkpt><trkpt lon="5.75408" lat="51.126191"><ele>24</ele><time>2022-05-29T06:10:18.000Z</time></trkpt><trkpt lon="5.754037" lat="51.126125"><ele>23.8</ele><time>2022-05-29T06:10:19.000Z</time></trkpt><trkpt lon="5.753997" lat="51.126065"><ele>24</ele><time>2022-05-29T06:10:20.000Z</time></trkpt><trkpt lon="5.753955" lat="51.126007"><ele>24</ele><time>2022-05-29T06:10:21.000Z</time></trkpt><trkpt lon="5.753912" lat="51.125947"><ele>24</ele><time>2022-05-29T06:10:22.000Z</time></trkpt><trkpt lon="5.753867" lat="51.125887"><ele>24</ele><time>2022-05-29T06:10:23.000Z</time></trkpt><trkpt lon="5.753822" lat="51.125832"><ele>24</ele><time>2022-05-29T06:10:24.000Z</time></trkpt><trkpt lon="5.753777" lat="51.125775"><ele>24</ele><time>2022-05-29T06:10:25.000Z</time></trkpt><trkpt lon="5.753735" lat="51.125717"><ele>24</ele><time>2022-05-29T06:10:26.000Z</time></trkpt><trkpt lon="5.753696" lat="51.125661"><ele>23.8</ele><time>2022-05-29T06:10:27.000Z</time></trkpt><trkpt lon="5.753661" lat="51.125608"><ele>23.8</ele><time>2022-05-29T06:10:28.000Z</time></trkpt><trkpt lon="5.753636" lat="51.125555"><ele>23.8</ele><time>2022-05-29T06:10:29.000Z</time></trkpt><trkpt lon="5.753628" lat="51.125501"><ele>23.8</ele><time>2022-05-29T06:10:30.000Z</time></trkpt><trkpt lon="5.75364" lat="51.125443"><ele>23.8</ele><time>2022-05-29T06:10:31.000Z</time></trkpt><trkpt lon="5.753666" lat="51.125385"><ele>23.8</ele><time>2022-05-29T06:10:32.000Z</time></trkpt><trkpt lon="5.753695" lat="51.125324"><ele>23.8</ele><time>2022-05-29T06:10:33.000Z</time></trkpt><trkpt lon="5.753725" lat="51.125262"><ele>24</ele><time>2022-05-29T06:10:34.000Z</time></trkpt><trkpt lon="5.75376" lat="51.125198"><ele>24</ele><time>2022-05-29T06:10:35.000Z</time></trkpt><trkpt lon="5.753795" lat="51.125137"><ele>24</ele><time>2022-05-29T06:10:36.000Z</time></trkpt><trkpt lon="5.75383" lat="51.125072"><ele>24</ele><time>2022-05-29T06:10:37.000Z</time></trkpt><trkpt lon="5.753865" lat="51.125011"><ele>24.2</ele><time>2022-05-29T06:10:38.000Z</time></trkpt><trkpt lon="5.753902" lat="51.124951"><ele>24.2</ele><time>2022-05-29T06:10:39.000Z</time></trkpt><trkpt lon="5.753937" lat="51.124894"><ele>24.2</ele><time>2022-05-29T06:10:40.000Z</time></trkpt><trkpt lon="5.753971" lat="51.124838"><ele>24.2</ele><time>2022-05-29T06:10:41.000Z</time></trkpt><trkpt lon="5.754" lat="51.124788"><ele>24.2</ele><time>2022-05-29T06:10:42.000Z</time></trkpt><trkpt lon="5.754013" lat="51.124735"><ele>24.4</ele><time>2022-05-29T06:10:43.000Z</time></trkpt><trkpt lon="5.753997" lat="51.124686"><ele>24.4</ele><time>2022-05-29T06:10:44.000Z</time></trkpt><trkpt lon="5.753958" lat="51.12464"><ele>24.6</ele><time>2022-05-29T06:10:45.000Z</time></trkpt><trkpt lon="5.753911" lat="51.124594"><ele>24.6</ele><time>2022-05-29T06:10:46.000Z</time></trkpt><trkpt lon="5.753859" lat="51.124548"><ele>24.4</ele><time>2022-05-29T06:10:47.000Z</time></trkpt><trkpt lon="5.753805" lat="51.124499"><ele>24.4</ele><time>2022-05-29T06:10:48.000Z</time></trkpt><trkpt lon="5.753752" lat="51.124449"><ele>24.4</ele><time>2022-05-29T06:10:49.000Z</time></trkpt><trkpt lon="5.753699" lat="51.124395"><ele>24.4</ele><time>2022-05-29T06:10:50.000Z</time></trkpt><trkpt lon="5.753652" lat="51.124344"><ele>24.4</ele><time>2022-05-29T06:10:51.000Z</time></trkpt><trkpt lon="5.753601" lat="51.124283"><ele>24.4</ele><time>2022-05-29T06:10:52.000Z</time></trkpt><trkpt lon="5.753557" lat="51.124222"><ele>24.4</ele><time>2022-05-29T06:10:53.000Z</time></trkpt><trkpt lon="5.753513" lat="51.124165"><ele>24.4</ele><time>2022-05-29T06:10:54.000Z</time></trkpt><trkpt lon="5.75347" lat="51.124108"><ele>24.4</ele><time>2022-05-29T06:10:55.000Z</time></trkpt><trkpt lon="5.753426" lat="51.124051"><ele>24.4</ele><time>2022-05-29T06:10:56.000Z</time></trkpt><trkpt lon="5.753379" lat="51.123998"><ele>24.4</ele><time>2022-05-29T06:10:57.000Z</time></trkpt><trkpt lon="5.753329" lat="51.123946"><ele>24.4</ele><time>2022-05-29T06:10:58.000Z</time></trkpt><trkpt lon="5.753277" lat="51.1239"><ele>24.4</ele><time>2022-05-29T06:10:59.000Z</time></trkpt><trkpt lon="5.753224" lat="51.123856"><ele>24.6</ele><time>2022-05-29T06:11:00.000Z</time></trkpt><trkpt lon="5.753179" lat="51.123817"><ele>24.6</ele><time>2022-05-29T06:11:01.000Z</time></trkpt><trkpt lon="5.753153" lat="51.123776"><ele>24.8</ele><time>2022-05-29T06:11:02.000Z</time></trkpt><trkpt lon="5.753157" lat="51.123739"><ele>24.8</ele><time>2022-05-29T06:11:03.000Z</time></trkpt><trkpt lon="5.753193" lat="51.123709"><ele>24.8</ele><time>2022-05-29T06:11:04.000Z</time></trkpt><trkpt lon="5.753261" lat="51.123684"><ele>24.8</ele><time>2022-05-29T06:11:05.000Z</time></trkpt><trkpt lon="5.753339" lat="51.123666"><ele>24.8</ele><time>2022-05-29T06:11:06.000Z</time></trkpt><trkpt lon="5.753423" lat="51.123651"><ele>25</ele><time>2022-05-29T06:11:07.000Z</time></trkpt><trkpt lon="5.753515" lat="51.123634"><ele>25</ele><time>2022-05-29T06:11:08.000Z</time></trkpt><trkpt lon="5.753609" lat="51.123612"><ele>25</ele><time>2022-05-29T06:11:09.000Z</time></trkpt><trkpt lon="5.753699" lat="51.123592"><ele>25</ele><time>2022-05-29T06:11:10.000Z</time></trkpt><trkpt lon="5.753774" lat="51.123574"><ele>25</ele><time>2022-05-29T06:11:11.000Z</time></trkpt><trkpt lon="5.753891" lat="51.12355"><ele>25</ele><time>2022-05-29T06:11:12.000Z</time></trkpt><trkpt lon="5.75399" lat="51.123526"><ele>25</ele><time>2022-05-29T06:11:13.000Z</time></trkpt><trkpt lon="5.75409" lat="51.1235"><ele>25</ele><time>2022-05-29T06:11:14.000Z</time></trkpt><trkpt lon="5.754188" lat="51.123478"><ele>25</ele><time>2022-05-29T06:11:15.000Z</time></trkpt><trkpt lon="5.75429" lat="51.123455"><ele>25</ele><time>2022-05-29T06:11:16.000Z</time></trkpt><trkpt lon="5.754389" lat="51.123432"><ele>25</ele><time>2022-05-29T06:11:17.000Z</time></trkpt><trkpt lon="5.754486" lat="51.123409"><ele>25</ele><time>2022-05-29T06:11:18.000Z</time></trkpt><trkpt lon="5.754585" lat="51.123387"><ele>25.2</ele><time>2022-05-29T06:11:19.000Z</time></trkpt><trkpt lon="5.754684" lat="51.123367"><ele>25.2</ele><time>2022-05-29T06:11:20.000Z</time></trkpt><trkpt lon="5.75478" lat="51.123345"><ele>25.2</ele><time>2022-05-29T06:11:21.000Z</time></trkpt><trkpt lon="5.754874" lat="51.123326"><ele>25</ele><time>2022-05-29T06:11:22.000Z</time></trkpt><trkpt lon="5.754966" lat="51.123306"><ele>25</ele><time>2022-05-29T06:11:23.000Z</time></trkpt><trkpt lon="5.755056" lat="51.123284"><ele>25</ele><time>2022-05-29T06:11:24.000Z</time></trkpt><trkpt lon="5.755155" lat="51.123259"><ele>25</ele><time>2022-05-29T06:11:25.000Z</time></trkpt><trkpt lon="5.755247" lat="51.123232"><ele>25</ele><time>2022-05-29T06:11:26.000Z</time></trkpt><trkpt lon="5.755335" lat="51.123202"><ele>25</ele><time>2022-05-29T06:11:27.000Z</time></trkpt><trkpt lon="5.755419" lat="51.12317"><ele>25.2</ele><time>2022-05-29T06:11:28.000Z</time></trkpt><trkpt lon="5.755496" lat="51.123131"><ele>25.2</ele><time>2022-05-29T06:11:29.000Z</time></trkpt><trkpt lon="5.755565" lat="51.123089"><ele>25.2</ele><time>2022-05-29T06:11:30.000Z</time></trkpt><trkpt lon="5.755623" lat="51.12305"><ele>25.4</ele><time>2022-05-29T06:11:31.000Z</time></trkpt><trkpt lon="5.755672" lat="51.123002"><ele>25.4</ele><time>2022-05-29T06:11:32.000Z</time></trkpt><trkpt lon="5.755709" lat="51.122949"><ele>25.4</ele><time>2022-05-29T06:11:33.000Z</time></trkpt><trkpt lon="5.755738" lat="51.12289"><ele>25.4</ele><time>2022-05-29T06:11:34.000Z</time></trkpt><trkpt lon="5.755761" lat="51.122824"><ele>25.6</ele><time>2022-05-29T06:11:35.000Z</time></trkpt><trkpt lon="5.755776" lat="51.122761"><ele>25.6</ele><time>2022-05-29T06:11:36.000Z</time></trkpt><trkpt lon="5.755789" lat="51.122692"><ele>25.8</ele><time>2022-05-29T06:11:37.000Z</time></trkpt><trkpt lon="5.755804" lat="51.122626"><ele>25.8</ele><time>2022-05-29T06:11:38.000Z</time></trkpt><trkpt lon="5.755825" lat="51.122561"><ele>25.8</ele><time>2022-05-29T06:11:39.000Z</time></trkpt><trkpt lon="5.755855" lat="51.122498"><ele>25.8</ele><time>2022-05-29T06:11:40.000Z</time></trkpt><trkpt lon="5.755892" lat="51.122436"><ele>25.8</ele><time>2022-05-29T06:11:41.000Z</time></trkpt><trkpt lon="5.755936" lat="51.122378"><ele>25.8</ele><time>2022-05-29T06:11:42.000Z</time></trkpt><trkpt lon="5.755991" lat="51.122324"><ele>25.6</ele><time>2022-05-29T06:11:43.000Z</time></trkpt><trkpt lon="5.756054" lat="51.122271"><ele>25.6</ele><time>2022-05-29T06:11:44.000Z</time></trkpt><trkpt lon="5.756121" lat="51.122221"><ele>25.6</ele><time>2022-05-29T06:11:45.000Z</time></trkpt><trkpt lon="5.756191" lat="51.122172"><ele>25.4</ele><time>2022-05-29T06:11:46.000Z</time></trkpt><trkpt lon="5.756262" lat="51.122122"><ele>25.4</ele><time>2022-05-29T06:11:47.000Z</time></trkpt><trkpt lon="5.756338" lat="51.122073"><ele>25.6</ele><time>2022-05-29T06:11:48.000Z</time></trkpt><trkpt lon="5.756413" lat="51.122026"><ele>25.6</ele><time>2022-05-29T06:11:49.000Z</time></trkpt><trkpt lon="5.756487" lat="51.121973"><ele>25.6</ele><time>2022-05-29T06:11:50.000Z</time></trkpt><trkpt lon="5.75656" lat="51.121923"><ele>25.6</ele><time>2022-05-29T06:11:51.000Z</time></trkpt><trkpt lon="5.756632" lat="51.121873"><ele>25.8</ele><time>2022-05-29T06:11:52.000Z</time></trkpt><trkpt lon="5.756704" lat="51.12182"><ele>25.8</ele><time>2022-05-29T06:11:53.000Z</time></trkpt><trkpt lon="5.756774" lat="51.121767"><ele>25.8</ele><time>2022-05-29T06:11:54.000Z</time></trkpt><trkpt lon="5.756842" lat="51.121713"><ele>25.8</ele><time>2022-05-29T06:11:55.000Z</time></trkpt><trkpt lon="5.756907" lat="51.121657"><ele>25.8</ele><time>2022-05-29T06:11:56.000Z</time></trkpt><trkpt lon="5.756974" lat="51.121603"><ele>25.8</ele><time>2022-05-29T06:11:57.000Z</time></trkpt><trkpt lon="5.757039" lat="51.121546"><ele>25.8</ele><time>2022-05-29T06:11:58.000Z</time></trkpt><trkpt lon="5.757105" lat="51.121488"><ele>25.8</ele><time>2022-05-29T06:11:59.000Z</time></trkpt><trkpt lon="5.757166" lat="51.121434"><ele>25.6</ele><time>2022-05-29T06:12:00.000Z</time></trkpt><trkpt lon="5.757235" lat="51.121374"><ele>25.6</ele><time>2022-05-29T06:12:01.000Z</time></trkpt><trkpt lon="5.757303" lat="51.121316"><ele>25.6</ele><time>2022-05-29T06:12:02.000Z</time></trkpt><trkpt lon="5.757369" lat="51.121262"><ele>25.6</ele><time>2022-05-29T06:12:03.000Z</time></trkpt><trkpt lon="5.757434" lat="51.121205"><ele>25.6</ele><time>2022-05-29T06:12:04.000Z</time></trkpt><trkpt lon="5.757501" lat="51.121148"><ele>25.6</ele><time>2022-05-29T06:12:05.000Z</time></trkpt><trkpt lon="5.757566" lat="51.121094"><ele>25.6</ele><time>2022-05-29T06:12:06.000Z</time></trkpt><trkpt lon="5.757632" lat="51.121037"><ele>25.6</ele><time>2022-05-29T06:12:07.000Z</time></trkpt><trkpt lon="5.757696" lat="51.120982"><ele>25.6</ele><time>2022-05-29T06:12:08.000Z</time></trkpt><trkpt lon="5.757762" lat="51.120928"><ele>25.6</ele><time>2022-05-29T06:12:09.000Z</time></trkpt><trkpt lon="5.757828" lat="51.120874"><ele>25.6</ele><time>2022-05-29T06:12:10.000Z</time></trkpt><trkpt lon="5.757899" lat="51.120821"><ele>25.6</ele><time>2022-05-29T06:12:11.000Z</time></trkpt><trkpt lon="5.757973" lat="51.120772"><ele>25.6</ele><time>2022-05-29T06:12:12.000Z</time></trkpt><trkpt lon="5.758053" lat="51.120723"><ele>25.4</ele><time>2022-05-29T06:12:13.000Z</time></trkpt><trkpt lon="5.758137" lat="51.120677"><ele>25.2</ele><time>2022-05-29T06:12:14.000Z</time></trkpt><trkpt lon="5.758224" lat="51.12063"><ele>25</ele><time>2022-05-29T06:12:15.000Z</time></trkpt><trkpt lon="5.758303" lat="51.12058"><ele>25</ele><time>2022-05-29T06:12:16.000Z</time></trkpt><trkpt lon="5.758375" lat="51.120525"><ele>24.8</ele><time>2022-05-29T06:12:17.000Z</time></trkpt><trkpt lon="5.758444" lat="51.120466"><ele>24.8</ele><time>2022-05-29T06:12:18.000Z</time></trkpt><trkpt lon="5.758514" lat="51.120408"><ele>24.8</ele><time>2022-05-29T06:12:19.000Z</time></trkpt><trkpt lon="5.758586" lat="51.120346"><ele>24.6</ele><time>2022-05-29T06:12:20.000Z</time></trkpt><trkpt lon="5.758657" lat="51.120286"><ele>24.6</ele><time>2022-05-29T06:12:21.000Z</time></trkpt><trkpt lon="5.758729" lat="51.120228"><ele>24.6</ele><time>2022-05-29T06:12:22.000Z</time></trkpt><trkpt lon="5.758802" lat="51.120171"><ele>24.6</ele><time>2022-05-29T06:12:23.000Z</time></trkpt><trkpt lon="5.758875" lat="51.120117"><ele>24.4</ele><time>2022-05-29T06:12:24.000Z</time></trkpt><trkpt lon="5.758946" lat="51.120069"><ele>24.4</ele><time>2022-05-29T06:12:25.000Z</time></trkpt><trkpt lon="5.759022" lat="51.120011"><ele>24.2</ele><time>2022-05-29T06:12:26.000Z</time></trkpt><trkpt lon="5.759079" lat="51.119954"><ele>24</ele><time>2022-05-29T06:12:27.000Z</time></trkpt><trkpt lon="5.75912" lat="51.119896"><ele>24</ele><time>2022-05-29T06:12:28.000Z</time></trkpt><trkpt lon="5.759144" lat="51.119828"><ele>23.8</ele><time>2022-05-29T06:12:29.000Z</time></trkpt><trkpt lon="5.759148" lat="51.119757"><ele>23.6</ele><time>2022-05-29T06:12:30.000Z</time></trkpt><trkpt lon="5.759132" lat="51.119681"><ele>23.6</ele><time>2022-05-29T06:12:31.000Z</time></trkpt><trkpt lon="5.759103" lat="51.119608"><ele>23.4</ele><time>2022-05-29T06:12:32.000Z</time></trkpt><trkpt lon="5.759069" lat="51.119536"><ele>23.4</ele><time>2022-05-29T06:12:33.000Z</time></trkpt><trkpt lon="5.759031" lat="51.119463"><ele>23.4</ele><time>2022-05-29T06:12:34.000Z</time></trkpt><trkpt lon="5.758991" lat="51.119392"><ele>23.2</ele><time>2022-05-29T06:12:35.000Z</time></trkpt><trkpt lon="5.758949" lat="51.119322"><ele>23.2</ele><time>2022-05-29T06:12:36.000Z</time></trkpt><trkpt lon="5.758903" lat="51.11925"><ele>23.2</ele><time>2022-05-29T06:12:37.000Z</time></trkpt><trkpt lon="5.758855" lat="51.119181"><ele>23</ele><time>2022-05-29T06:12:38.000Z</time></trkpt><trkpt lon="5.758803" lat="51.119113"><ele>23</ele><time>2022-05-29T06:12:39.000Z</time></trkpt><trkpt lon="5.758748" lat="51.119048"><ele>23</ele><time>2022-05-29T06:12:40.000Z</time></trkpt><trkpt lon="5.758692" lat="51.118984"><ele>23</ele><time>2022-05-29T06:12:41.000Z</time></trkpt><trkpt lon="5.758635" lat="51.11892"><ele>23</ele><time>2022-05-29T06:12:42.000Z</time></trkpt><trkpt lon="5.758579" lat="51.118859"><ele>23.2</ele><time>2022-05-29T06:12:43.000Z</time></trkpt><trkpt lon="5.758523" lat="51.118793"><ele>23.2</ele><time>2022-05-29T06:12:44.000Z</time></trkpt><trkpt lon="5.758467" lat="51.118733"><ele>23.4</ele><time>2022-05-29T06:12:45.000Z</time></trkpt><trkpt lon="5.75841" lat="51.118676"><ele>23.4</ele><time>2022-05-29T06:12:46.000Z</time></trkpt><trkpt lon="5.758352" lat="51.118611"><ele>23.6</ele><time>2022-05-29T06:12:47.000Z</time></trkpt><trkpt lon="5.758297" lat="51.118548"><ele>23.6</ele><time>2022-05-29T06:12:48.000Z</time></trkpt><trkpt lon="5.758246" lat="51.118483"><ele>23.6</ele><time>2022-05-29T06:12:49.000Z</time></trkpt><trkpt lon="5.758201" lat="51.118414"><ele>23.4</ele><time>2022-05-29T06:12:50.000Z</time></trkpt><trkpt lon="5.758157" lat="51.118341"><ele>23.4</ele><time>2022-05-29T06:12:51.000Z</time></trkpt><trkpt lon="5.75812" lat="51.118273"><ele>23.4</ele><time>2022-05-29T06:12:52.000Z</time></trkpt><trkpt lon="5.758083" lat="51.118203"><ele>23.4</ele><time>2022-05-29T06:12:53.000Z</time></trkpt><trkpt lon="5.758047" lat="51.118131"><ele>23.4</ele><time>2022-05-29T06:12:54.000Z</time></trkpt><trkpt lon="5.758012" lat="51.118059"><ele>23.4</ele><time>2022-05-29T06:12:55.000Z</time></trkpt><trkpt lon="5.757975" lat="51.117987"><ele>23.4</ele><time>2022-05-29T06:12:56.000Z</time></trkpt><trkpt lon="5.757939" lat="51.117918"><ele>23.4</ele><time>2022-05-29T06:12:57.000Z</time></trkpt><trkpt lon="5.757902" lat="51.11785"><ele>23.4</ele><time>2022-05-29T06:12:58.000Z</time></trkpt><trkpt lon="5.757859" lat="51.117781"><ele>23.6</ele><time>2022-05-29T06:12:59.000Z</time></trkpt><trkpt lon="5.757811" lat="51.117713"><ele>23.6</ele><time>2022-05-29T06:13:00.000Z</time></trkpt><trkpt lon="5.757753" lat="51.117651"><ele>23.6</ele><time>2022-05-29T06:13:01.000Z</time></trkpt><trkpt lon="5.757681" lat="51.117594"><ele>23.6</ele><time>2022-05-29T06:13:02.000Z</time></trkpt><trkpt lon="5.757602" lat="51.117542"><ele>23.4</ele><time>2022-05-29T06:13:03.000Z</time></trkpt><trkpt lon="5.757516" lat="51.117496"><ele>23.4</ele><time>2022-05-29T06:13:04.000Z</time></trkpt><trkpt lon="5.757429" lat="51.11745"><ele>23.4</ele><time>2022-05-29T06:13:05.000Z</time></trkpt><trkpt lon="5.757338" lat="51.117401"><ele>23.4</ele><time>2022-05-29T06:13:06.000Z</time></trkpt><trkpt lon="5.75725" lat="51.117354"><ele>23.6</ele><time>2022-05-29T06:13:07.000Z</time></trkpt><trkpt lon="5.757164" lat="51.117308"><ele>23.6</ele><time>2022-05-29T06:13:08.000Z</time></trkpt><trkpt lon="5.757079" lat="51.117259"><ele>23.6</ele><time>2022-05-29T06:13:09.000Z</time></trkpt><trkpt lon="5.756997" lat="51.117212"><ele>23.8</ele><time>2022-05-29T06:13:10.000Z</time></trkpt><trkpt lon="5.756917" lat="51.117164"><ele>23.8</ele><time>2022-05-29T06:13:11.000Z</time></trkpt><trkpt lon="5.75684" lat="51.117118"><ele>23.8</ele><time>2022-05-29T06:13:12.000Z</time></trkpt><trkpt lon="5.756765" lat="51.117069"><ele>23.8</ele><time>2022-05-29T06:13:13.000Z</time></trkpt><trkpt lon="5.756692" lat="51.117027"><ele>23.8</ele><time>2022-05-29T06:13:14.000Z</time></trkpt><trkpt lon="5.756617" lat="51.11698"><ele>23.8</ele><time>2022-05-29T06:13:15.000Z</time></trkpt><trkpt lon="5.756545" lat="51.116934"><ele>24</ele><time>2022-05-29T06:13:16.000Z</time></trkpt><trkpt lon="5.756474" lat="51.116884"><ele>23.8</ele><time>2022-05-29T06:13:17.000Z</time></trkpt><trkpt lon="5.756406" lat="51.116833"><ele>24</ele><time>2022-05-29T06:13:18.000Z</time></trkpt><trkpt lon="5.756345" lat="51.116776"><ele>23.8</ele><time>2022-05-29T06:13:19.000Z</time></trkpt><trkpt lon="5.756288" lat="51.116713"><ele>23.8</ele><time>2022-05-29T06:13:20.000Z</time></trkpt><trkpt lon="5.756236" lat="51.116649"><ele>23.6</ele><time>2022-05-29T06:13:21.000Z</time></trkpt><trkpt lon="5.756192" lat="51.116588"><ele>23.8</ele><time>2022-05-29T06:13:22.000Z</time></trkpt><trkpt lon="5.756156" lat="51.116522"><ele>23.6</ele><time>2022-05-29T06:13:23.000Z</time></trkpt><trkpt lon="5.756127" lat="51.116454"><ele>23.6</ele><time>2022-05-29T06:13:24.000Z</time></trkpt><trkpt lon="5.756106" lat="51.116391"><ele>23.6</ele><time>2022-05-29T06:13:25.000Z</time></trkpt><trkpt lon="5.756092" lat="51.11633"><ele>23.6</ele><time>2022-05-29T06:13:26.000Z</time></trkpt><trkpt lon="5.756086" lat="51.116274"><ele>23.6</ele><time>2022-05-29T06:13:27.000Z</time></trkpt><trkpt lon="5.7561" lat="51.116221"><ele>23.8</ele><time>2022-05-29T06:13:28.000Z</time></trkpt><trkpt lon="5.756138" lat="51.116173"><ele>23.8</ele><time>2022-05-29T06:13:29.000Z</time></trkpt><trkpt lon="5.756202" lat="51.116132"><ele>24</ele><time>2022-05-29T06:13:30.000Z</time></trkpt><trkpt lon="5.756288" lat="51.1161"><ele>24</ele><time>2022-05-29T06:13:31.000Z</time></trkpt><trkpt lon="5.756387" lat="51.116079"><ele>24</ele><time>2022-05-29T06:13:32.000Z</time></trkpt><trkpt lon="5.756497" lat="51.116068"><ele>24</ele><time>2022-05-29T06:13:33.000Z</time></trkpt><trkpt lon="5.756611" lat="51.116056"><ele>24</ele><time>2022-05-29T06:13:34.000Z</time></trkpt><trkpt lon="5.756728" lat="51.116044"><ele>24</ele><time>2022-05-29T06:13:35.000Z</time></trkpt><trkpt lon="5.756839" lat="51.116028"><ele>24</ele><time>2022-05-29T06:13:36.000Z</time></trkpt><trkpt lon="5.756949" lat="51.116009"><ele>24</ele><time>2022-05-29T06:13:37.000Z</time></trkpt><trkpt lon="5.757062" lat="51.115991"><ele>24.2</ele><time>2022-05-29T06:13:38.000Z</time></trkpt><trkpt lon="5.757175" lat="51.115977"><ele>24.2</ele><time>2022-05-29T06:13:39.000Z</time></trkpt><trkpt lon="5.757288" lat="51.11597"><ele>24.2</ele><time>2022-05-29T06:13:40.000Z</time></trkpt><trkpt lon="5.7574" lat="51.115965"><ele>24.2</ele><time>2022-05-29T06:13:41.000Z</time></trkpt><trkpt lon="5.757513" lat="51.115959"><ele>24.2</ele><time>2022-05-29T06:13:42.000Z</time></trkpt><trkpt lon="5.757627" lat="51.115958"><ele>24.4</ele><time>2022-05-29T06:13:43.000Z</time></trkpt><trkpt lon="5.757739" lat="51.115955"><ele>24.4</ele><time>2022-05-29T06:13:44.000Z</time></trkpt><trkpt lon="5.757849" lat="51.115955"><ele>24.4</ele><time>2022-05-29T06:13:45.000Z</time></trkpt><trkpt lon="5.757957" lat="51.115952"><ele>24.4</ele><time>2022-05-29T06:13:46.000Z</time></trkpt><trkpt lon="5.758064" lat="51.115951"><ele>24.6</ele><time>2022-05-29T06:13:47.000Z</time></trkpt><trkpt lon="5.758169" lat="51.115948"><ele>24.6</ele><time>2022-05-29T06:13:48.000Z</time></trkpt><trkpt lon="5.758274" lat="51.115947"><ele>24.6</ele><time>2022-05-29T06:13:49.000Z</time></trkpt><trkpt lon="5.758379" lat="51.115943"><ele>24.6</ele><time>2022-05-29T06:13:50.000Z</time></trkpt><trkpt lon="5.758483" lat="51.11594"><ele>24.8</ele><time>2022-05-29T06:13:51.000Z</time></trkpt><trkpt lon="5.758593" lat="51.115936"><ele>24.8</ele><time>2022-05-29T06:13:52.000Z</time></trkpt><trkpt lon="5.758701" lat="51.115936"><ele>24.8</ele><time>2022-05-29T06:13:53.000Z</time></trkpt><trkpt lon="5.75881" lat="51.115936"><ele>24.8</ele><time>2022-05-29T06:13:54.000Z</time></trkpt><trkpt lon="5.758919" lat="51.115936"><ele>24.8</ele><time>2022-05-29T06:13:55.000Z</time></trkpt><trkpt lon="5.759027" lat="51.115936"><ele>24.8</ele><time>2022-05-29T06:13:56.000Z</time></trkpt><trkpt lon="5.759135" lat="51.115936"><ele>24.8</ele><time>2022-05-29T06:13:57.000Z</time></trkpt><trkpt lon="5.75924" lat="51.115932"><ele>24.8</ele><time>2022-05-29T06:13:58.000Z</time></trkpt><trkpt lon="5.759343" lat="51.115928"><ele>24.8</ele><time>2022-05-29T06:13:59.000Z</time></trkpt><trkpt lon="5.759446" lat="51.115925"><ele>24.8</ele><time>2022-05-29T06:14:00.000Z</time></trkpt><trkpt lon="5.759553" lat="51.115925"><ele>24.8</ele><time>2022-05-29T06:14:01.000Z</time></trkpt><trkpt lon="5.75966" lat="51.115924"><ele>24.8</ele><time>2022-05-29T06:14:02.000Z</time></trkpt><trkpt lon="5.759767" lat="51.11592"><ele>24.8</ele><time>2022-05-29T06:14:03.000Z</time></trkpt><trkpt lon="5.759872" lat="51.115917"><ele>24.8</ele><time>2022-05-29T06:14:04.000Z</time></trkpt><trkpt lon="5.759976" lat="51.115917"><ele>24.8</ele><time>2022-05-29T06:14:05.000Z</time></trkpt><trkpt lon="5.760079" lat="51.115913"><ele>24.6</ele><time>2022-05-29T06:14:06.000Z</time></trkpt><trkpt lon="5.760186" lat="51.115912"><ele>24.6</ele><time>2022-05-29T06:14:07.000Z</time></trkpt><trkpt lon="5.760296" lat="51.115904"><ele>24.6</ele><time>2022-05-29T06:14:08.000Z</time></trkpt><trkpt lon="5.760408" lat="51.115897"><ele>24.6</ele><time>2022-05-29T06:14:09.000Z</time></trkpt><trkpt lon="5.760523" lat="51.115889"><ele>24.6</ele><time>2022-05-29T06:14:10.000Z</time></trkpt><trkpt lon="5.760637" lat="51.115881"><ele>24.6</ele><time>2022-05-29T06:14:11.000Z</time></trkpt><trkpt lon="5.760747" lat="51.115874"><ele>24.6</ele><time>2022-05-29T06:14:12.000Z</time></trkpt><trkpt lon="5.76086" lat="51.115865"><ele>24.6</ele><time>2022-05-29T06:14:13.000Z</time></trkpt><trkpt lon="5.76097" lat="51.115855"><ele>24.6</ele><time>2022-05-29T06:14:14.000Z</time></trkpt><trkpt lon="5.761079" lat="51.115846"><ele>24.6</ele><time>2022-05-29T06:14:15.000Z</time></trkpt><trkpt lon="5.761186" lat="51.115835"><ele>24.6</ele><time>2022-05-29T06:14:16.000Z</time></trkpt><trkpt lon="5.761293" lat="51.115823"><ele>24.6</ele><time>2022-05-29T06:14:17.000Z</time></trkpt><trkpt lon="5.761397" lat="51.115808"><ele>24.6</ele><time>2022-05-29T06:14:18.000Z</time></trkpt><trkpt lon="5.761505" lat="51.115796"><ele>24.6</ele><time>2022-05-29T06:14:19.000Z</time></trkpt><trkpt lon="5.761612" lat="51.115782"><ele>24.6</ele><time>2022-05-29T06:14:20.000Z</time></trkpt><trkpt lon="5.761718" lat="51.115771"><ele>24.6</ele><time>2022-05-29T06:14:21.000Z</time></trkpt><trkpt lon="5.761826" lat="51.115762"><ele>24.6</ele><time>2022-05-29T06:14:22.000Z</time></trkpt><trkpt lon="5.761932" lat="51.115751"><ele>24.6</ele><time>2022-05-29T06:14:23.000Z</time></trkpt><trkpt lon="5.762032" lat="51.11574"><ele>24.8</ele><time>2022-05-29T06:14:24.000Z</time></trkpt><trkpt lon="5.762131" lat="51.115733"><ele>24.8</ele><time>2022-05-29T06:14:25.000Z</time></trkpt><trkpt lon="5.762232" lat="51.115724"><ele>24.8</ele><time>2022-05-29T06:14:26.000Z</time></trkpt><trkpt lon="5.762336" lat="51.115712"><ele>24.8</ele><time>2022-05-29T06:14:27.000Z</time></trkpt><trkpt lon="5.762446" lat="51.115698"><ele>25</ele><time>2022-05-29T06:14:28.000Z</time></trkpt><trkpt lon="5.762548" lat="51.115687"><ele>25</ele><time>2022-05-29T06:14:29.000Z</time></trkpt><trkpt lon="5.762668" lat="51.115674"><ele>25</ele><time>2022-05-29T06:14:30.000Z</time></trkpt><trkpt lon="5.762782" lat="51.115659"><ele>25.2</ele><time>2022-05-29T06:14:31.000Z</time></trkpt><trkpt lon="5.76289" lat="51.115648"><ele>25.2</ele><time>2022-05-29T06:14:32.000Z</time></trkpt><trkpt lon="5.762997" lat="51.115637"><ele>25.2</ele><time>2022-05-29T06:14:33.000Z</time></trkpt><trkpt lon="5.763099" lat="51.115629"><ele>25.2</ele><time>2022-05-29T06:14:34.000Z</time></trkpt><trkpt lon="5.7632" lat="51.115617"><ele>25.2</ele><time>2022-05-29T06:14:35.000Z</time></trkpt><trkpt lon="5.763307" lat="51.115602"><ele>25.2</ele><time>2022-05-29T06:14:36.000Z</time></trkpt><trkpt lon="5.763415" lat="51.115587"><ele>25.2</ele><time>2022-05-29T06:14:37.000Z</time></trkpt><trkpt lon="5.763525" lat="51.115575"><ele>25.2</ele><time>2022-05-29T06:14:38.000Z</time></trkpt><trkpt lon="5.76364" lat="51.11556"><ele>25.2</ele><time>2022-05-29T06:14:39.000Z</time></trkpt><trkpt lon="5.763761" lat="51.115544"><ele>25</ele><time>2022-05-29T06:14:40.000Z</time></trkpt><trkpt lon="5.763882" lat="51.115529"><ele>25</ele><time>2022-05-29T06:14:41.000Z</time></trkpt><trkpt lon="5.764004" lat="51.115514"><ele>25.2</ele><time>2022-05-29T06:14:42.000Z</time></trkpt><trkpt lon="5.764123" lat="51.115498"><ele>25.2</ele><time>2022-05-29T06:14:43.000Z</time></trkpt><trkpt lon="5.764237" lat="51.115483"><ele>25.2</ele><time>2022-05-29T06:14:44.000Z</time></trkpt><trkpt lon="5.764353" lat="51.115464"><ele>25.2</ele><time>2022-05-29T06:14:45.000Z</time></trkpt><trkpt lon="5.76447" lat="51.115445"><ele>25.2</ele><time>2022-05-29T06:14:46.000Z</time></trkpt><trkpt lon="5.764584" lat="51.11543"><ele>25.2</ele><time>2022-05-29T06:14:47.000Z</time></trkpt><trkpt lon="5.764701" lat="51.115415"><ele>25.2</ele><time>2022-05-29T06:14:48.000Z</time></trkpt><trkpt lon="5.764818" lat="51.115403"><ele>25.2</ele><time>2022-05-29T06:14:49.000Z</time></trkpt><trkpt lon="5.764936" lat="51.115388"><ele>25.2</ele><time>2022-05-29T06:14:50.000Z</time></trkpt><trkpt lon="5.765048" lat="51.115373"><ele>25.4</ele><time>2022-05-29T06:14:51.000Z</time></trkpt><trkpt lon="5.765157" lat="51.115358"><ele>25.4</ele><time>2022-05-29T06:14:52.000Z</time></trkpt><trkpt lon="5.765269" lat="51.115347"><ele>25.4</ele><time>2022-05-29T06:14:53.000Z</time></trkpt><trkpt lon="5.765381" lat="51.115335"><ele>25.4</ele><time>2022-05-29T06:14:54.000Z</time></trkpt><trkpt lon="5.76549" lat="51.11532"><ele>25.4</ele><time>2022-05-29T06:14:55.000Z</time></trkpt><trkpt lon="5.765602" lat="51.115305"><ele>25.4</ele><time>2022-05-29T06:14:56.000Z</time></trkpt><trkpt lon="5.76572" lat="51.115289"><ele>25.4</ele><time>2022-05-29T06:14:57.000Z</time></trkpt><trkpt lon="5.765831" lat="51.115277"><ele>25.4</ele><time>2022-05-29T06:14:58.000Z</time></trkpt><trkpt lon="5.765939" lat="51.115261"><ele>25.4</ele><time>2022-05-29T06:14:59.000Z</time></trkpt><trkpt lon="5.766046" lat="51.115244"><ele>25.4</ele><time>2022-05-29T06:15:00.000Z</time></trkpt><trkpt lon="5.766152" lat="51.115232"><ele>25.4</ele><time>2022-05-29T06:15:01.000Z</time></trkpt><trkpt lon="5.766254" lat="51.115221"><ele>25.4</ele><time>2022-05-29T06:15:02.000Z</time></trkpt><trkpt lon="5.766359" lat="51.115211"><ele>25.4</ele><time>2022-05-29T06:15:03.000Z</time></trkpt><trkpt lon="5.766467" lat="51.115207"><ele>25.4</ele><time>2022-05-29T06:15:04.000Z</time></trkpt><trkpt lon="5.766566" lat="51.115205"><ele>25.6</ele><time>2022-05-29T06:15:05.000Z</time></trkpt><trkpt lon="5.766658" lat="51.115207"><ele>25.6</ele><time>2022-05-29T06:15:06.000Z</time></trkpt><trkpt lon="5.766754" lat="51.115204"><ele>25.6</ele><time>2022-05-29T06:15:07.000Z</time></trkpt><trkpt lon="5.766848" lat="51.115204"><ele>25.6</ele><time>2022-05-29T06:15:08.000Z</time></trkpt><trkpt lon="5.766942" lat="51.115203"><ele>25.6</ele><time>2022-05-29T06:15:09.000Z</time></trkpt><trkpt lon="5.767043" lat="51.115199"><ele>25.6</ele><time>2022-05-29T06:15:10.000Z</time></trkpt><trkpt lon="5.767153" lat="51.115194"><ele>25.6</ele><time>2022-05-29T06:15:11.000Z</time></trkpt><trkpt lon="5.767266" lat="51.115182"><ele>25.6</ele><time>2022-05-29T06:15:12.000Z</time></trkpt><trkpt lon="5.767372" lat="51.115164"><ele>25.6</ele><time>2022-05-29T06:15:13.000Z</time></trkpt><trkpt lon="5.767478" lat="51.115133"><ele>25.6</ele><time>2022-05-29T06:15:14.000Z</time></trkpt><trkpt lon="5.76757" lat="51.115101"><ele>25.6</ele><time>2022-05-29T06:15:15.000Z</time></trkpt><trkpt lon="5.767646" lat="51.11506"><ele>25.6</ele><time>2022-05-29T06:15:16.000Z</time></trkpt><trkpt lon="5.767716" lat="51.115014"><ele>25.6</ele><time>2022-05-29T06:15:17.000Z</time></trkpt><trkpt lon="5.767785" lat="51.114963"><ele>25.6</ele><time>2022-05-29T06:15:18.000Z</time></trkpt><trkpt lon="5.767838" lat="51.11492"><ele>25.6</ele><time>2022-05-29T06:15:19.000Z</time></trkpt><trkpt lon="5.767902" lat="51.114872"><ele>25.6</ele><time>2022-05-29T06:15:20.000Z</time></trkpt><trkpt lon="5.767962" lat="51.11483"><ele>25.6</ele><time>2022-05-29T06:15:21.000Z</time></trkpt><trkpt lon="5.768024" lat="51.114789"><ele>25.6</ele><time>2022-05-29T06:15:22.000Z</time></trkpt><trkpt lon="5.768092" lat="51.114749"><ele>25.6</ele><time>2022-05-29T06:15:23.000Z</time></trkpt><trkpt lon="5.76816" lat="51.114704"><ele>25.6</ele><time>2022-05-29T06:15:24.000Z</time></trkpt><trkpt lon="5.768217" lat="51.114662"><ele>25.6</ele><time>2022-05-29T06:15:25.000Z</time></trkpt><trkpt lon="5.768269" lat="51.114625"><ele>25.6</ele><time>2022-05-29T06:15:26.000Z</time></trkpt><trkpt lon="5.768324" lat="51.114586"><ele>25.6</ele><time>2022-05-29T06:15:27.000Z</time></trkpt><trkpt lon="5.768379" lat="51.114544"><ele>25.6</ele><time>2022-05-29T06:15:28.000Z</time></trkpt><trkpt lon="5.768431" lat="51.114502"><ele>25.6</ele><time>2022-05-29T06:15:29.000Z</time></trkpt><trkpt lon="5.768483" lat="51.114464"><ele>25.4</ele><time>2022-05-29T06:15:30.000Z</time></trkpt><trkpt lon="5.76853" lat="51.114427"><ele>25.6</ele><time>2022-05-29T06:15:31.000Z</time></trkpt><trkpt lon="5.768569" lat="51.114397"><ele>25.6</ele><time>2022-05-29T06:15:32.000Z</time></trkpt><trkpt lon="5.768602" lat="51.114367"><ele>25.6</ele><time>2022-05-29T06:15:33.000Z</time></trkpt><trkpt lon="5.768638" lat="51.11434"><ele>25.6</ele><time>2022-05-29T06:15:34.000Z</time></trkpt><trkpt lon="5.768674" lat="51.114313"><ele>25.4</ele><time>2022-05-29T06:15:35.000Z</time></trkpt><trkpt lon="5.768715" lat="51.114283"><ele>25.4</ele><time>2022-05-29T06:15:36.000Z</time></trkpt><trkpt lon="5.768754" lat="51.114252"><ele>25.4</ele><time>2022-05-29T06:15:37.000Z</time></trkpt><trkpt lon="5.768803" lat="51.114215"><ele>25.4</ele><time>2022-05-29T06:15:38.000Z</time></trkpt><trkpt lon="5.768861" lat="51.114167"><ele>25.2</ele><time>2022-05-29T06:15:39.000Z</time></trkpt><trkpt lon="5.768929" lat="51.114111"><ele>25.2</ele><time>2022-05-29T06:15:40.000Z</time></trkpt><trkpt lon="5.76901" lat="51.114056"><ele>25.2</ele><time>2022-05-29T06:15:41.000Z</time></trkpt><trkpt lon="5.769097" lat="51.114006"><ele>25</ele><time>2022-05-29T06:15:42.000Z</time></trkpt><trkpt lon="5.769174" lat="51.113962"><ele>25</ele><time>2022-05-29T06:15:43.000Z</time></trkpt><trkpt lon="5.769252" lat="51.113911"><ele>24.8</ele><time>2022-05-29T06:15:44.000Z</time></trkpt><trkpt lon="5.769334" lat="51.113852"><ele>24.8</ele><time>2022-05-29T06:15:45.000Z</time></trkpt><trkpt lon="5.769408" lat="51.11379"><ele>24.8</ele><time>2022-05-29T06:15:46.000Z</time></trkpt><trkpt lon="5.769491" lat="51.113729"><ele>24.8</ele><time>2022-05-29T06:15:47.000Z</time></trkpt><trkpt lon="5.769567" lat="51.11367"><ele>24.8</ele><time>2022-05-29T06:15:48.000Z</time></trkpt><trkpt lon="5.76964" lat="51.113611"><ele>25</ele><time>2022-05-29T06:15:49.000Z</time></trkpt><trkpt lon="5.769717" lat="51.113552"><ele>25</ele><time>2022-05-29T06:15:50.000Z</time></trkpt><trkpt lon="5.769789" lat="51.113492"><ele>25</ele><time>2022-05-29T06:15:51.000Z</time></trkpt><trkpt lon="5.769858" lat="51.11344"><ele>25</ele><time>2022-05-29T06:15:52.000Z</time></trkpt><trkpt lon="5.769924" lat="51.113388"><ele>25</ele><time>2022-05-29T06:15:53.000Z</time></trkpt><trkpt lon="5.770002" lat="51.113328"><ele>25</ele><time>2022-05-29T06:15:54.000Z</time></trkpt><trkpt lon="5.770079" lat="51.113275"><ele>25</ele><time>2022-05-29T06:15:55.000Z</time></trkpt><trkpt lon="5.770153" lat="51.113221"><ele>25</ele><time>2022-05-29T06:15:56.000Z</time></trkpt><trkpt lon="5.770234" lat="51.113163"><ele>25</ele><time>2022-05-29T06:15:57.000Z</time></trkpt><trkpt lon="5.77031" lat="51.113107"><ele>25</ele><time>2022-05-29T06:15:58.000Z</time></trkpt><trkpt lon="5.770383" lat="51.113049"><ele>25</ele><time>2022-05-29T06:15:59.000Z</time></trkpt><trkpt lon="5.770461" lat="51.112995"><ele>25</ele><time>2022-05-29T06:16:00.000Z</time></trkpt><trkpt lon="5.770542" lat="51.112938"><ele>24.8</ele><time>2022-05-29T06:16:01.000Z</time></trkpt><trkpt lon="5.770617" lat="51.112882"><ele>24.8</ele><time>2022-05-29T06:16:02.000Z</time></trkpt><trkpt lon="5.770689" lat="51.112829"><ele>24.8</ele><time>2022-05-29T06:16:03.000Z</time></trkpt><trkpt lon="5.770761" lat="51.112775"><ele>24.8</ele><time>2022-05-29T06:16:04.000Z</time></trkpt><trkpt lon="5.770827" lat="51.112722"><ele>24.8</ele><time>2022-05-29T06:16:05.000Z</time></trkpt><trkpt lon="5.770894" lat="51.112671"><ele>24.8</ele><time>2022-05-29T06:16:06.000Z</time></trkpt><trkpt lon="5.770964" lat="51.112613"><ele>24.8</ele><time>2022-05-29T06:16:07.000Z</time></trkpt><trkpt lon="5.771035" lat="51.112553"><ele>24.8</ele><time>2022-05-29T06:16:08.000Z</time></trkpt><trkpt lon="5.771109" lat="51.112496"><ele>24.8</ele><time>2022-05-29T06:16:09.000Z</time></trkpt><trkpt lon="5.771183" lat="51.112439"><ele>24.8</ele><time>2022-05-29T06:16:10.000Z</time></trkpt><trkpt lon="5.771256" lat="51.112387"><ele>24.8</ele><time>2022-05-29T06:16:11.000Z</time></trkpt><trkpt lon="5.771325" lat="51.112336"><ele>24.8</ele><time>2022-05-29T06:16:12.000Z</time></trkpt><trkpt lon="5.771393" lat="51.112284"><ele>24.8</ele><time>2022-05-29T06:16:13.000Z</time></trkpt><trkpt lon="5.771467" lat="51.112234"><ele>24.8</ele><time>2022-05-29T06:16:14.000Z</time></trkpt><trkpt lon="5.771539" lat="51.112185"><ele>24.8</ele><time>2022-05-29T06:16:15.000Z</time></trkpt><trkpt lon="5.771615" lat="51.112133"><ele>24.8</ele><time>2022-05-29T06:16:16.000Z</time></trkpt><trkpt lon="5.771691" lat="51.112078"><ele>24.8</ele><time>2022-05-29T06:16:17.000Z</time></trkpt><trkpt lon="5.771763" lat="51.112028"><ele>24.6</ele><time>2022-05-29T06:16:18.000Z</time></trkpt><trkpt lon="5.771837" lat="51.111977"><ele>24.6</ele><time>2022-05-29T06:16:19.000Z</time></trkpt><trkpt lon="5.771915" lat="51.11192"><ele>24.4</ele><time>2022-05-29T06:16:20.000Z</time></trkpt><trkpt lon="5.771988" lat="51.111862"><ele>24.4</ele><time>2022-05-29T06:16:21.000Z</time></trkpt><trkpt lon="5.772064" lat="51.111801"><ele>24.6</ele><time>2022-05-29T06:16:22.000Z</time></trkpt><trkpt lon="5.772139" lat="51.111743"><ele>24.6</ele><time>2022-05-29T06:16:23.000Z</time></trkpt><trkpt lon="5.772209" lat="51.111678"><ele>24.6</ele><time>2022-05-29T06:16:24.000Z</time></trkpt><trkpt lon="5.772269" lat="51.111611"><ele>24.8</ele><time>2022-05-29T06:16:25.000Z</time></trkpt><trkpt lon="5.772319" lat="51.111539"><ele>24.8</ele><time>2022-05-29T06:16:26.000Z</time></trkpt><trkpt lon="5.772355" lat="51.111464"><ele>25</ele><time>2022-05-29T06:16:27.000Z</time></trkpt><trkpt lon="5.772384" lat="51.111392"><ele>25.2</ele><time>2022-05-29T06:16:28.000Z</time></trkpt><trkpt lon="5.772411" lat="51.111319"><ele>25.2</ele><time>2022-05-29T06:16:29.000Z</time></trkpt><trkpt lon="5.772436" lat="51.111246"><ele>25.2</ele><time>2022-05-29T06:16:30.000Z</time></trkpt><trkpt lon="5.77246" lat="51.111169"><ele>25.2</ele><time>2022-05-29T06:16:31.000Z</time></trkpt><trkpt lon="5.772481" lat="51.111097"><ele>25.2</ele><time>2022-05-29T06:16:32.000Z</time></trkpt><trkpt lon="5.772502" lat="51.111024"><ele>25.4</ele><time>2022-05-29T06:16:33.000Z</time></trkpt><trkpt lon="5.772523" lat="51.110951"><ele>25.4</ele><time>2022-05-29T06:16:34.000Z</time></trkpt><trkpt lon="5.772545" lat="51.110882"><ele>25.4</ele><time>2022-05-29T06:16:35.000Z</time></trkpt><trkpt lon="5.772569" lat="51.110805"><ele>25.4</ele><time>2022-05-29T06:16:36.000Z</time></trkpt><trkpt lon="5.772592" lat="51.110731"><ele>25.4</ele><time>2022-05-29T06:16:37.000Z</time></trkpt><trkpt lon="5.772614" lat="51.110663"><ele>25.6</ele><time>2022-05-29T06:16:38.000Z</time></trkpt><trkpt lon="5.772638" lat="51.110595"><ele>25.6</ele><time>2022-05-29T06:16:39.000Z</time></trkpt><trkpt lon="5.772661" lat="51.110533"><ele>25.6</ele><time>2022-05-29T06:16:40.000Z</time></trkpt><trkpt lon="5.772683" lat="51.110465"><ele>25.8</ele><time>2022-05-29T06:16:41.000Z</time></trkpt><trkpt lon="5.772698" lat="51.110399"><ele>25.8</ele><time>2022-05-29T06:16:42.000Z</time></trkpt><trkpt lon="5.77271" lat="51.11033"><ele>25.8</ele><time>2022-05-29T06:16:43.000Z</time></trkpt><trkpt lon="5.772719" lat="51.110258"><ele>25.8</ele><time>2022-05-29T06:16:44.000Z</time></trkpt><trkpt lon="5.772723" lat="51.110184"><ele>25.6</ele><time>2022-05-29T06:16:45.000Z</time></trkpt><trkpt lon="5.772722" lat="51.110111"><ele>25.6</ele><time>2022-05-29T06:16:46.000Z</time></trkpt><trkpt lon="5.772717" lat="51.110036"><ele>25.4</ele><time>2022-05-29T06:16:47.000Z</time></trkpt><trkpt lon="5.772708" lat="51.109963"><ele>25.4</ele><time>2022-05-29T06:16:48.000Z</time></trkpt><trkpt lon="5.772697" lat="51.10989"><ele>25.4</ele><time>2022-05-29T06:16:49.000Z</time></trkpt><trkpt lon="5.772684" lat="51.109815"><ele>25.6</ele><time>2022-05-29T06:16:50.000Z</time></trkpt><trkpt lon="5.772671" lat="51.109742"><ele>25.6</ele><time>2022-05-29T06:16:51.000Z</time></trkpt><trkpt lon="5.772657" lat="51.109671"><ele>25.6</ele><time>2022-05-29T06:16:52.000Z</time></trkpt><trkpt lon="5.772644" lat="51.109602"><ele>25.6</ele><time>2022-05-29T06:16:53.000Z</time></trkpt><trkpt lon="5.772631" lat="51.109533"><ele>25.6</ele><time>2022-05-29T06:16:54.000Z</time></trkpt><trkpt lon="5.772618" lat="51.109461"><ele>25.6</ele><time>2022-05-29T06:16:55.000Z</time></trkpt><trkpt lon="5.772606" lat="51.109391"><ele>25.6</ele><time>2022-05-29T06:16:56.000Z</time></trkpt><trkpt lon="5.772597" lat="51.10932"><ele>25.6</ele><time>2022-05-29T06:16:57.000Z</time></trkpt><trkpt lon="5.772588" lat="51.10925"><ele>25.6</ele><time>2022-05-29T06:16:58.000Z</time></trkpt><trkpt lon="5.77258" lat="51.109179"><ele>25.6</ele><time>2022-05-29T06:16:59.000Z</time></trkpt><trkpt lon="5.772572" lat="51.109111"><ele>25.6</ele><time>2022-05-29T06:17:00.000Z</time></trkpt><trkpt lon="5.772563" lat="51.109047"><ele>25.6</ele><time>2022-05-29T06:17:01.000Z</time></trkpt><trkpt lon="5.772564" lat="51.108985"><ele>25.6</ele><time>2022-05-29T06:17:02.000Z</time></trkpt><trkpt lon="5.772565" lat="51.108916"><ele>25.6</ele><time>2022-05-29T06:17:03.000Z</time></trkpt><trkpt lon="5.772568" lat="51.10885"><ele>25.6</ele><time>2022-05-29T06:17:04.000Z</time></trkpt><trkpt lon="5.772574" lat="51.108782"><ele>25.6</ele><time>2022-05-29T06:17:05.000Z</time></trkpt><trkpt lon="5.772589" lat="51.108714"><ele>25.6</ele><time>2022-05-29T06:17:06.000Z</time></trkpt><trkpt lon="5.77261" lat="51.10865"><ele>25.6</ele><time>2022-05-29T06:17:07.000Z</time></trkpt><trkpt lon="5.77264" lat="51.108584"><ele>25.6</ele><time>2022-05-29T06:17:08.000Z</time></trkpt><trkpt lon="5.772675" lat="51.108516"><ele>25.6</ele><time>2022-05-29T06:17:09.000Z</time></trkpt><trkpt lon="5.772712" lat="51.108451"><ele>25.6</ele><time>2022-05-29T06:17:10.000Z</time></trkpt><trkpt lon="5.772748" lat="51.108386"><ele>25.6</ele><time>2022-05-29T06:17:11.000Z</time></trkpt><trkpt lon="5.772784" lat="51.108321"><ele>25.6</ele><time>2022-05-29T06:17:12.000Z</time></trkpt><trkpt lon="5.77282" lat="51.108256"><ele>25.8</ele><time>2022-05-29T06:17:13.000Z</time></trkpt><trkpt lon="5.772856" lat="51.108192"><ele>25.8</ele><time>2022-05-29T06:17:14.000Z</time></trkpt><trkpt lon="5.772889" lat="51.108127"><ele>25.8</ele><time>2022-05-29T06:17:15.000Z</time></trkpt><trkpt lon="5.772921" lat="51.108062"><ele>25.6</ele><time>2022-05-29T06:17:16.000Z</time></trkpt><trkpt lon="5.772952" lat="51.107997"><ele>25.6</ele><time>2022-05-29T06:17:17.000Z</time></trkpt><trkpt lon="5.772977" lat="51.107931"><ele>25.6</ele><time>2022-05-29T06:17:18.000Z</time></trkpt><trkpt lon="5.772996" lat="51.107864"><ele>25.6</ele><time>2022-05-29T06:17:19.000Z</time></trkpt><trkpt lon="5.773007" lat="51.107799"><ele>25.6</ele><time>2022-05-29T06:17:20.000Z</time></trkpt><trkpt lon="5.773017" lat="51.107725"><ele>25.4</ele><time>2022-05-29T06:17:21.000Z</time></trkpt><trkpt lon="5.773025" lat="51.107656"><ele>25.4</ele><time>2022-05-29T06:17:22.000Z</time></trkpt><trkpt lon="5.773034" lat="51.107583"><ele>25.4</ele><time>2022-05-29T06:17:23.000Z</time></trkpt><trkpt lon="5.773039" lat="51.107511"><ele>25.4</ele><time>2022-05-29T06:17:24.000Z</time></trkpt><trkpt lon="5.773044" lat="51.107438"><ele>25.4</ele><time>2022-05-29T06:17:25.000Z</time></trkpt><trkpt lon="5.77305" lat="51.107367"><ele>25.4</ele><time>2022-05-29T06:17:26.000Z</time></trkpt><trkpt lon="5.773056" lat="51.107301"><ele>25.4</ele><time>2022-05-29T06:17:27.000Z</time></trkpt><trkpt lon="5.77306" lat="51.107229"><ele>25.4</ele><time>2022-05-29T06:17:28.000Z</time></trkpt><trkpt lon="5.773064" lat="51.107157"><ele>25.4</ele><time>2022-05-29T06:17:29.000Z</time></trkpt><trkpt lon="5.773067" lat="51.107089"><ele>25.4</ele><time>2022-05-29T06:17:30.000Z</time></trkpt><trkpt lon="5.773071" lat="51.10702"><ele>25.2</ele><time>2022-05-29T06:17:31.000Z</time></trkpt><trkpt lon="5.773074" lat="51.106951"><ele>25.2</ele><time>2022-05-29T06:17:32.000Z</time></trkpt><trkpt lon="5.773079" lat="51.106883"><ele>25.2</ele><time>2022-05-29T06:17:33.000Z</time></trkpt><trkpt lon="5.773084" lat="51.106814"><ele>25.2</ele><time>2022-05-29T06:17:34.000Z</time></trkpt><trkpt lon="5.773087" lat="51.106742"><ele>25</ele><time>2022-05-29T06:17:35.000Z</time></trkpt><trkpt lon="5.773091" lat="51.106675"><ele>25</ele><time>2022-05-29T06:17:36.000Z</time></trkpt><trkpt lon="5.773096" lat="51.106605"><ele>25</ele><time>2022-05-29T06:17:37.000Z</time></trkpt><trkpt lon="5.773101" lat="51.106535"><ele>25</ele><time>2022-05-29T06:17:38.000Z</time></trkpt><trkpt lon="5.773106" lat="51.106468"><ele>24.8</ele><time>2022-05-29T06:17:39.000Z</time></trkpt><trkpt lon="5.773111" lat="51.106398"><ele>24.8</ele><time>2022-05-29T06:17:40.000Z</time></trkpt><trkpt lon="5.773117" lat="51.106329"><ele>25</ele><time>2022-05-29T06:17:41.000Z</time></trkpt><trkpt lon="5.773125" lat="51.106258"><ele>25</ele><time>2022-05-29T06:17:42.000Z</time></trkpt><trkpt lon="5.773135" lat="51.106194"><ele>25.2</ele><time>2022-05-29T06:17:43.000Z</time></trkpt><trkpt lon="5.773147" lat="51.106133"><ele>25.2</ele><time>2022-05-29T06:17:44.000Z</time></trkpt><trkpt lon="5.773161" lat="51.106055"><ele>25.2</ele><time>2022-05-29T06:17:45.000Z</time></trkpt><trkpt lon="5.773176" lat="51.105986"><ele>25.2</ele><time>2022-05-29T06:17:46.000Z</time></trkpt><trkpt lon="5.773189" lat="51.105918"><ele>25</ele><time>2022-05-29T06:17:47.000Z</time></trkpt><trkpt lon="5.773203" lat="51.105853"><ele>25</ele><time>2022-05-29T06:17:48.000Z</time></trkpt><trkpt lon="5.773216" lat="51.105789"><ele>25</ele><time>2022-05-29T06:17:49.000Z</time></trkpt><trkpt lon="5.773231" lat="51.105724"><ele>25</ele><time>2022-05-29T06:17:50.000Z</time></trkpt><trkpt lon="5.773244" lat="51.105659"><ele>25</ele><time>2022-05-29T06:17:51.000Z</time></trkpt><trkpt lon="5.773258" lat="51.105595"><ele>25</ele><time>2022-05-29T06:17:52.000Z</time></trkpt><trkpt lon="5.773276" lat="51.105534"><ele>25</ele><time>2022-05-29T06:17:53.000Z</time></trkpt><trkpt lon="5.7733" lat="51.105479"><ele>24.8</ele><time>2022-05-29T06:17:54.000Z</time></trkpt><trkpt lon="5.773328" lat="51.105432"><ele>24.8</ele><time>2022-05-29T06:17:55.000Z</time></trkpt><trkpt lon="5.773375" lat="51.105372"><ele>24.8</ele><time>2022-05-29T06:17:56.000Z</time></trkpt><trkpt lon="5.773416" lat="51.105328"><ele>24.8</ele><time>2022-05-29T06:17:57.000Z</time></trkpt><trkpt lon="5.773452" lat="51.10529"><ele>24.8</ele><time>2022-05-29T06:17:58.000Z</time></trkpt><trkpt lon="5.773477" lat="51.105253"><ele>24.8</ele><time>2022-05-29T06:17:59.000Z</time></trkpt><trkpt lon="5.773482" lat="51.105223"><ele>24.8</ele><time>2022-05-29T06:18:00.000Z</time></trkpt><trkpt lon="5.773458" lat="51.105194"><ele>24.8</ele><time>2022-05-29T06:18:01.000Z</time></trkpt><trkpt lon="5.773405" lat="51.105172"><ele>24.6</ele><time>2022-05-29T06:18:02.000Z</time></trkpt><trkpt lon="5.773333" lat="51.105158"><ele>24.6</ele><time>2022-05-29T06:18:03.000Z</time></trkpt><trkpt lon="5.773253" lat="51.105146"><ele>24.6</ele><time>2022-05-29T06:18:04.000Z</time></trkpt><trkpt lon="5.773174" lat="51.105133"><ele>24.6</ele><time>2022-05-29T06:18:05.000Z</time></trkpt><trkpt lon="5.773102" lat="51.105108"><ele>24.6</ele><time>2022-05-29T06:18:06.000Z</time></trkpt><trkpt lon="5.773047" lat="51.105074"><ele>24.6</ele><time>2022-05-29T06:18:07.000Z</time></trkpt><trkpt lon="5.773021" lat="51.105023"><ele>24.4</ele><time>2022-05-29T06:18:08.000Z</time></trkpt><trkpt lon="5.773022" lat="51.104964"><ele>24.4</ele><time>2022-05-29T06:18:09.000Z</time></trkpt><trkpt lon="5.773035" lat="51.104898"><ele>24.4</ele><time>2022-05-29T06:18:10.000Z</time></trkpt><trkpt lon="5.773053" lat="51.10483"><ele>24.4</ele><time>2022-05-29T06:18:11.000Z</time></trkpt><trkpt lon="5.77307" lat="51.104761"><ele>24.4</ele><time>2022-05-29T06:18:12.000Z</time></trkpt><trkpt lon="5.773092" lat="51.104693"><ele>24.4</ele><time>2022-05-29T06:18:13.000Z</time></trkpt><trkpt lon="5.77312" lat="51.104629"><ele>24.6</ele><time>2022-05-29T06:18:14.000Z</time></trkpt><trkpt lon="5.773164" lat="51.104565"><ele>24.4</ele><time>2022-05-29T06:18:15.000Z</time></trkpt><trkpt lon="5.773221" lat="51.104505"><ele>24.4</ele><time>2022-05-29T06:18:16.000Z</time></trkpt><trkpt lon="5.773288" lat="51.104454"><ele>24.4</ele><time>2022-05-29T06:18:17.000Z</time></trkpt><trkpt lon="5.773366" lat="51.104402"><ele>24.4</ele><time>2022-05-29T06:18:18.000Z</time></trkpt><trkpt lon="5.773451" lat="51.10436"><ele>24.4</ele><time>2022-05-29T06:18:19.000Z</time></trkpt><trkpt lon="5.773546" lat="51.104324"><ele>24.4</ele><time>2022-05-29T06:18:20.000Z</time></trkpt><trkpt lon="5.773647" lat="51.104303"><ele>24.4</ele><time>2022-05-29T06:18:21.000Z</time></trkpt><trkpt lon="5.773756" lat="51.104292"><ele>24.4</ele><time>2022-05-29T06:18:22.000Z</time></trkpt><trkpt lon="5.773866" lat="51.104286"><ele>24.4</ele><time>2022-05-29T06:18:23.000Z</time></trkpt><trkpt lon="5.77398" lat="51.104286"><ele>24.4</ele><time>2022-05-29T06:18:24.000Z</time></trkpt><trkpt lon="5.774091" lat="51.104282"><ele>24.2</ele><time>2022-05-29T06:18:25.000Z</time></trkpt><trkpt lon="5.774203" lat="51.104282"><ele>24</ele><time>2022-05-29T06:18:26.000Z</time></trkpt><trkpt lon="5.774314" lat="51.104282"><ele>24</ele><time>2022-05-29T06:18:27.000Z</time></trkpt><trkpt lon="5.774423" lat="51.104282"><ele>23.8</ele><time>2022-05-29T06:18:28.000Z</time></trkpt><trkpt lon="5.774529" lat="51.104282"><ele>23.8</ele><time>2022-05-29T06:18:29.000Z</time></trkpt><trkpt lon="5.774636" lat="51.104277"><ele>23.8</ele><time>2022-05-29T06:18:30.000Z</time></trkpt><trkpt lon="5.774744" lat="51.104268"><ele>24</ele><time>2022-05-29T06:18:31.000Z</time></trkpt><trkpt lon="5.774848" lat="51.10425"><ele>24</ele><time>2022-05-29T06:18:32.000Z</time></trkpt><trkpt lon="5.774944" lat="51.104219"><ele>24</ele><time>2022-05-29T06:18:33.000Z</time></trkpt><trkpt lon="5.775033" lat="51.104184"><ele>24</ele><time>2022-05-29T06:18:34.000Z</time></trkpt><trkpt lon="5.775124" lat="51.104141"><ele>24.2</ele><time>2022-05-29T06:18:35.000Z</time></trkpt><trkpt lon="5.775214" lat="51.104101"><ele>24.2</ele><time>2022-05-29T06:18:36.000Z</time></trkpt><trkpt lon="5.77531" lat="51.104072"><ele>24</ele><time>2022-05-29T06:18:37.000Z</time></trkpt><trkpt lon="5.775415" lat="51.10405"><ele>24.2</ele><time>2022-05-29T06:18:38.000Z</time></trkpt><trkpt lon="5.775521" lat="51.104038"><ele>24.2</ele><time>2022-05-29T06:18:39.000Z</time></trkpt><trkpt lon="5.775629" lat="51.10404"><ele>24.2</ele><time>2022-05-29T06:18:40.000Z</time></trkpt><trkpt lon="5.775734" lat="51.104052"><ele>24.2</ele><time>2022-05-29T06:18:41.000Z</time></trkpt><trkpt lon="5.775838" lat="51.104069"><ele>24.2</ele><time>2022-05-29T06:18:42.000Z</time></trkpt><trkpt lon="5.775941" lat="51.104092"><ele>24.2</ele><time>2022-05-29T06:18:43.000Z</time></trkpt><trkpt lon="5.776041" lat="51.104114"><ele>24.2</ele><time>2022-05-29T06:18:44.000Z</time></trkpt><trkpt lon="5.77614" lat="51.104133"><ele>24</ele><time>2022-05-29T06:18:45.000Z</time></trkpt><trkpt lon="5.776232" lat="51.104144"><ele>24</ele><time>2022-05-29T06:18:46.000Z</time></trkpt><trkpt lon="5.776323" lat="51.104136"><ele>24</ele><time>2022-05-29T06:18:47.000Z</time></trkpt><trkpt lon="5.776404" lat="51.104103"><ele>23.8</ele><time>2022-05-29T06:18:48.000Z</time></trkpt><trkpt lon="5.776462" lat="51.104059"><ele>23.8</ele><time>2022-05-29T06:18:49.000Z</time></trkpt><trkpt lon="5.776501" lat="51.104"><ele>23.6</ele><time>2022-05-29T06:18:50.000Z</time></trkpt><trkpt lon="5.776534" lat="51.103934"><ele>23.8</ele><time>2022-05-29T06:18:51.000Z</time></trkpt><trkpt lon="5.776562" lat="51.103869"><ele>23.6</ele><time>2022-05-29T06:18:52.000Z</time></trkpt><trkpt lon="5.776593" lat="51.103804"><ele>23.6</ele><time>2022-05-29T06:18:53.000Z</time></trkpt><trkpt lon="5.776626" lat="51.103741"><ele>23.8</ele><time>2022-05-29T06:18:54.000Z</time></trkpt><trkpt lon="5.776663" lat="51.103684"><ele>23.6</ele><time>2022-05-29T06:18:55.000Z</time></trkpt><trkpt lon="5.776706" lat="51.103627"><ele>23.6</ele><time>2022-05-29T06:18:56.000Z</time></trkpt><trkpt lon="5.776771" lat="51.103572"><ele>23.8</ele><time>2022-05-29T06:18:57.000Z</time></trkpt><trkpt lon="5.776847" lat="51.103528"><ele>23.8</ele><time>2022-05-29T06:18:58.000Z</time></trkpt><trkpt lon="5.776935" lat="51.10349"><ele>23.8</ele><time>2022-05-29T06:18:59.000Z</time></trkpt><trkpt lon="5.777029" lat="51.103457"><ele>23.8</ele><time>2022-05-29T06:19:00.000Z</time></trkpt><trkpt lon="5.777125" lat="51.10343"><ele>23.8</ele><time>2022-05-29T06:19:01.000Z</time></trkpt><trkpt lon="5.777219" lat="51.103401"><ele>23.8</ele><time>2022-05-29T06:19:02.000Z</time></trkpt><trkpt lon="5.777318" lat="51.103373"><ele>24</ele><time>2022-05-29T06:19:03.000Z</time></trkpt><trkpt lon="5.777412" lat="51.103346"><ele>24</ele><time>2022-05-29T06:19:04.000Z</time></trkpt><trkpt lon="5.777505" lat="51.103316"><ele>24</ele><time>2022-05-29T06:19:05.000Z</time></trkpt><trkpt lon="5.777598" lat="51.103289"><ele>24</ele><time>2022-05-29T06:19:06.000Z</time></trkpt><trkpt lon="5.777691" lat="51.103263"><ele>24</ele><time>2022-05-29T06:19:07.000Z</time></trkpt><trkpt lon="5.777781" lat="51.103235"><ele>24.2</ele><time>2022-05-29T06:19:08.000Z</time></trkpt><trkpt lon="5.777866" lat="51.103202"><ele>24.2</ele><time>2022-05-29T06:19:09.000Z</time></trkpt><trkpt lon="5.777939" lat="51.103159"><ele>24.2</ele><time>2022-05-29T06:19:10.000Z</time></trkpt><trkpt lon="5.777997" lat="51.103108"><ele>24.4</ele><time>2022-05-29T06:19:11.000Z</time></trkpt><trkpt lon="5.778038" lat="51.103049"><ele>24.2</ele><time>2022-05-29T06:19:12.000Z</time></trkpt><trkpt lon="5.778071" lat="51.102984"><ele>24.2</ele><time>2022-05-29T06:19:13.000Z</time></trkpt><trkpt lon="5.778103" lat="51.102919"><ele>24.2</ele><time>2022-05-29T06:19:14.000Z</time></trkpt><trkpt lon="5.778136" lat="51.102854"><ele>24.2</ele><time>2022-05-29T06:19:15.000Z</time></trkpt><trkpt lon="5.778168" lat="51.10279"><ele>24.4</ele><time>2022-05-29T06:19:16.000Z</time></trkpt><trkpt lon="5.778202" lat="51.102725"><ele>24.6</ele><time>2022-05-29T06:19:17.000Z</time></trkpt><trkpt lon="5.778238" lat="51.102661"><ele>24.6</ele><time>2022-05-29T06:19:18.000Z</time></trkpt><trkpt lon="5.778279" lat="51.102599"><ele>24.6</ele><time>2022-05-29T06:19:19.000Z</time></trkpt><trkpt lon="5.778321" lat="51.102537"><ele>24.8</ele><time>2022-05-29T06:19:20.000Z</time></trkpt><trkpt lon="5.778372" lat="51.10248"><ele>25</ele><time>2022-05-29T06:19:21.000Z</time></trkpt><trkpt lon="5.77843" lat="51.102424"><ele>25.2</ele><time>2022-05-29T06:19:22.000Z</time></trkpt><trkpt lon="5.778491" lat="51.102368"><ele>25.2</ele><time>2022-05-29T06:19:23.000Z</time></trkpt><trkpt lon="5.778543" lat="51.102311"><ele>25.2</ele><time>2022-05-29T06:19:24.000Z</time></trkpt><trkpt lon="5.77858" lat="51.102253"><ele>25.2</ele><time>2022-05-29T06:19:25.000Z</time></trkpt><trkpt lon="5.778588" lat="51.102193"><ele>25.2</ele><time>2022-05-29T06:19:26.000Z</time></trkpt><trkpt lon="5.77856" lat="51.102137"><ele>25.2</ele><time>2022-05-29T06:19:27.000Z</time></trkpt><trkpt lon="5.778497" lat="51.102081"><ele>25.2</ele><time>2022-05-29T06:19:28.000Z</time></trkpt><trkpt lon="5.778413" lat="51.102037"><ele>25.4</ele><time>2022-05-29T06:19:29.000Z</time></trkpt><trkpt lon="5.778309" lat="51.102004"><ele>25.6</ele><time>2022-05-29T06:19:30.000Z</time></trkpt><trkpt lon="5.778202" lat="51.101977"><ele>25.6</ele><time>2022-05-29T06:19:31.000Z</time></trkpt><trkpt lon="5.778093" lat="51.10195"><ele>25.6</ele><time>2022-05-29T06:19:32.000Z</time></trkpt><trkpt lon="5.777982" lat="51.101924"><ele>25.6</ele><time>2022-05-29T06:19:33.000Z</time></trkpt><trkpt lon="5.777873" lat="51.101897"><ele>25.6</ele><time>2022-05-29T06:19:34.000Z</time></trkpt><trkpt lon="5.777766" lat="51.101871"><ele>25.8</ele><time>2022-05-29T06:19:35.000Z</time></trkpt><trkpt lon="5.777659" lat="51.101845"><ele>25.6</ele><time>2022-05-29T06:19:36.000Z</time></trkpt><trkpt lon="5.777549" lat="51.101822"><ele>25.6</ele><time>2022-05-29T06:19:37.000Z</time></trkpt><trkpt lon="5.777437" lat="51.101804"><ele>25.6</ele><time>2022-05-29T06:19:38.000Z</time></trkpt><trkpt lon="5.77733" lat="51.101789"><ele>25.2</ele><time>2022-05-29T06:19:39.000Z</time></trkpt><trkpt lon="5.777222" lat="51.101773"><ele>25.4</ele><time>2022-05-29T06:19:40.000Z</time></trkpt><trkpt lon="5.777114" lat="51.101754"><ele>25.4</ele><time>2022-05-29T06:19:41.000Z</time></trkpt><trkpt lon="5.777004" lat="51.101739"><ele>25.4</ele><time>2022-05-29T06:19:42.000Z</time></trkpt><trkpt lon="5.776895" lat="51.101723"><ele>25.4</ele><time>2022-05-29T06:19:43.000Z</time></trkpt><trkpt lon="5.776786" lat="51.101704"><ele>25.4</ele><time>2022-05-29T06:19:44.000Z</time></trkpt><trkpt lon="5.776678" lat="51.101689"><ele>25.4</ele><time>2022-05-29T06:19:45.000Z</time></trkpt><trkpt lon="5.776569" lat="51.101674"><ele>25.4</ele><time>2022-05-29T06:19:46.000Z</time></trkpt><trkpt lon="5.776462" lat="51.101658"><ele>25.2</ele><time>2022-05-29T06:19:47.000Z</time></trkpt><trkpt lon="5.776352" lat="51.10164"><ele>25.2</ele><time>2022-05-29T06:19:48.000Z</time></trkpt><trkpt lon="5.776244" lat="51.101624"><ele>25.2</ele><time>2022-05-29T06:19:49.000Z</time></trkpt><trkpt lon="5.776136" lat="51.101605"><ele>25</ele><time>2022-05-29T06:19:50.000Z</time></trkpt><trkpt lon="5.776029" lat="51.10159"><ele>24.8</ele><time>2022-05-29T06:19:51.000Z</time></trkpt><trkpt lon="5.775922" lat="51.101574"><ele>24.6</ele><time>2022-05-29T06:19:52.000Z</time></trkpt><trkpt lon="5.775814" lat="51.101556"><ele>24.6</ele><time>2022-05-29T06:19:53.000Z</time></trkpt><trkpt lon="5.775708" lat="51.101541"><ele>24.6</ele><time>2022-05-29T06:19:54.000Z</time></trkpt><trkpt lon="5.775602" lat="51.101525"><ele>24.6</ele><time>2022-05-29T06:19:55.000Z</time></trkpt><trkpt lon="5.775495" lat="51.101506"><ele>24.6</ele><time>2022-05-29T06:19:56.000Z</time></trkpt><trkpt lon="5.77539" lat="51.101491"><ele>24.6</ele><time>2022-05-29T06:19:57.000Z</time></trkpt><trkpt lon="5.775288" lat="51.101475"><ele>24.6</ele><time>2022-05-29T06:19:58.000Z</time></trkpt><trkpt lon="5.775186" lat="51.101455"><ele>24.6</ele><time>2022-05-29T06:19:59.000Z</time></trkpt><trkpt lon="5.775092" lat="51.101431"><ele>24.6</ele><time>2022-05-29T06:20:00.000Z</time></trkpt><trkpt lon="5.775013" lat="51.101398"><ele>24.6</ele><time>2022-05-29T06:20:01.000Z</time></trkpt><trkpt lon="5.774948" lat="51.101347"><ele>24.8</ele><time>2022-05-29T06:20:02.000Z</time></trkpt><trkpt lon="5.774902" lat="51.101288"><ele>24.8</ele><time>2022-05-29T06:20:03.000Z</time></trkpt><trkpt lon="5.774883" lat="51.101221"><ele>24.8</ele><time>2022-05-29T06:20:04.000Z</time></trkpt><trkpt lon="5.774883" lat="51.101154"><ele>24.8</ele><time>2022-05-29T06:20:05.000Z</time></trkpt><trkpt lon="5.7749" lat="51.101084"><ele>25</ele><time>2022-05-29T06:20:06.000Z</time></trkpt><trkpt lon="5.774925" lat="51.101016"><ele>25</ele><time>2022-05-29T06:20:07.000Z</time></trkpt><trkpt lon="5.774954" lat="51.100947"><ele>25.2</ele><time>2022-05-29T06:20:08.000Z</time></trkpt><trkpt lon="5.774986" lat="51.100878"><ele>25.2</ele><time>2022-05-29T06:20:09.000Z</time></trkpt><trkpt lon="5.775016" lat="51.100809"><ele>25.2</ele><time>2022-05-29T06:20:10.000Z</time></trkpt><trkpt lon="5.775043" lat="51.100742"><ele>25.2</ele><time>2022-05-29T06:20:11.000Z</time></trkpt><trkpt lon="5.775069" lat="51.100677"><ele>25</ele><time>2022-05-29T06:20:12.000Z</time></trkpt><trkpt lon="5.77509" lat="51.100614"><ele>25</ele><time>2022-05-29T06:20:13.000Z</time></trkpt><trkpt lon="5.77511" lat="51.100556"><ele>25</ele><time>2022-05-29T06:20:14.000Z</time></trkpt><trkpt lon="5.775128" lat="51.100502"><ele>25</ele><time>2022-05-29T06:20:15.000Z</time></trkpt><trkpt lon="5.775149" lat="51.100457"><ele>25</ele><time>2022-05-29T06:20:16.000Z</time></trkpt><trkpt lon="5.775169" lat="51.100421"><ele>25</ele><time>2022-05-29T06:20:17.000Z</time></trkpt><trkpt lon="5.775194" lat="51.1004"><ele>25</ele><time>2022-05-29T06:20:18.000Z</time></trkpt><trkpt lon="5.775233" lat="51.100385"><ele>25</ele><time>2022-05-29T06:20:19.000Z</time></trkpt><trkpt lon="5.775288" lat="51.100375"><ele>25</ele><time>2022-05-29T06:20:20.000Z</time></trkpt><trkpt lon="5.775357" lat="51.100373"><ele>25</ele><time>2022-05-29T06:20:21.000Z</time></trkpt><trkpt lon="5.775441" lat="51.100378"><ele>25</ele><time>2022-05-29T06:20:22.000Z</time></trkpt><trkpt lon="5.77553" lat="51.100386"><ele>25</ele><time>2022-05-29T06:20:23.000Z</time></trkpt><trkpt lon="5.775619" lat="51.100397"><ele>25</ele><time>2022-05-29T06:20:24.000Z</time></trkpt><trkpt lon="5.775708" lat="51.100409"><ele>25</ele><time>2022-05-29T06:20:25.000Z</time></trkpt><trkpt lon="5.775799" lat="51.10042"><ele>25</ele><time>2022-05-29T06:20:26.000Z</time></trkpt><trkpt lon="5.775892" lat="51.100432"><ele>25</ele><time>2022-05-29T06:20:27.000Z</time></trkpt><trkpt lon="5.775987" lat="51.100442"><ele>25</ele><time>2022-05-29T06:20:28.000Z</time></trkpt><trkpt lon="5.776084" lat="51.100451"><ele>25</ele><time>2022-05-29T06:20:29.000Z</time></trkpt><trkpt lon="5.776185" lat="51.100461"><ele>25</ele><time>2022-05-29T06:20:30.000Z</time></trkpt><trkpt lon="5.776288" lat="51.100468"><ele>25</ele><time>2022-05-29T06:20:31.000Z</time></trkpt><trkpt lon="5.776392" lat="51.100472"><ele>25</ele><time>2022-05-29T06:20:32.000Z</time></trkpt><trkpt lon="5.776492" lat="51.100477"><ele>25</ele><time>2022-05-29T06:20:33.000Z</time></trkpt><trkpt lon="5.776588" lat="51.100484"><ele>25</ele><time>2022-05-29T06:20:34.000Z</time></trkpt><trkpt lon="5.776682" lat="51.100492"><ele>25</ele><time>2022-05-29T06:20:35.000Z</time></trkpt><trkpt lon="5.776772" lat="51.100498"><ele>25.2</ele><time>2022-05-29T06:20:36.000Z</time></trkpt><trkpt lon="5.776854" lat="51.100496"><ele>25.2</ele><time>2022-05-29T06:20:37.000Z</time></trkpt><trkpt lon="5.776926" lat="51.100483"><ele>25.2</ele><time>2022-05-29T06:20:38.000Z</time></trkpt><trkpt lon="5.776987" lat="51.100456"><ele>25.2</ele><time>2022-05-29T06:20:39.000Z</time></trkpt><trkpt lon="5.777028" lat="51.100412"><ele>25.2</ele><time>2022-05-29T06:20:40.000Z</time></trkpt><trkpt lon="5.777052" lat="51.100361"><ele>25.2</ele><time>2022-05-29T06:20:41.000Z</time></trkpt><trkpt lon="5.777072" lat="51.100303"><ele>25.2</ele><time>2022-05-29T06:20:42.000Z</time></trkpt><trkpt lon="5.777092" lat="51.100242"><ele>25.2</ele><time>2022-05-29T06:20:43.000Z</time></trkpt><trkpt lon="5.777115" lat="51.10018"><ele>25.2</ele><time>2022-05-29T06:20:44.000Z</time></trkpt><trkpt lon="5.777138" lat="51.100116"><ele>25.2</ele><time>2022-05-29T06:20:45.000Z</time></trkpt><trkpt lon="5.777161" lat="51.100053"><ele>25.2</ele><time>2022-05-29T06:20:46.000Z</time></trkpt><trkpt lon="5.777187" lat="51.099987"><ele>25</ele><time>2022-05-29T06:20:47.000Z</time></trkpt><trkpt lon="5.777214" lat="51.099925"><ele>25</ele><time>2022-05-29T06:20:48.000Z</time></trkpt><trkpt lon="5.777242" lat="51.09986"><ele>25</ele><time>2022-05-29T06:20:49.000Z</time></trkpt><trkpt lon="5.777273" lat="51.099796"><ele>25.2</ele><time>2022-05-29T06:20:50.000Z</time></trkpt><trkpt lon="5.777306" lat="51.099734"><ele>25.2</ele><time>2022-05-29T06:20:51.000Z</time></trkpt><trkpt lon="5.77734" lat="51.09967"><ele>25.2</ele><time>2022-05-29T06:20:52.000Z</time></trkpt><trkpt lon="5.777373" lat="51.099604"><ele>25.2</ele><time>2022-05-29T06:20:53.000Z</time></trkpt><trkpt lon="5.777404" lat="51.09954"><ele>25.2</ele><time>2022-05-29T06:20:54.000Z</time></trkpt><trkpt lon="5.777437" lat="51.099476"><ele>25.2</ele><time>2022-05-29T06:20:55.000Z</time></trkpt><trkpt lon="5.777474" lat="51.099407"><ele>25</ele><time>2022-05-29T06:20:56.000Z</time></trkpt><trkpt lon="5.777508" lat="51.099337"><ele>25</ele><time>2022-05-29T06:20:57.000Z</time></trkpt><trkpt lon="5.777542" lat="51.099272"><ele>25</ele><time>2022-05-29T06:20:58.000Z</time></trkpt><trkpt lon="5.777577" lat="51.099203"><ele>24.8</ele><time>2022-05-29T06:20:59.000Z</time></trkpt><trkpt lon="5.777612" lat="51.099135"><ele>24.8</ele><time>2022-05-29T06:21:00.000Z</time></trkpt><trkpt lon="5.777645" lat="51.09907"><ele>25</ele><time>2022-05-29T06:21:01.000Z</time></trkpt><trkpt lon="5.777678" lat="51.099006"><ele>24.8</ele><time>2022-05-29T06:21:02.000Z</time></trkpt><trkpt lon="5.777712" lat="51.098946"><ele>24.8</ele><time>2022-05-29T06:21:03.000Z</time></trkpt><trkpt lon="5.777751" lat="51.09889"><ele>24.8</ele><time>2022-05-29T06:21:04.000Z</time></trkpt><trkpt lon="5.777807" lat="51.098839"><ele>24.6</ele><time>2022-05-29T06:21:05.000Z</time></trkpt><trkpt lon="5.777881" lat="51.098803"><ele>24.6</ele><time>2022-05-29T06:21:06.000Z</time></trkpt><trkpt lon="5.777972" lat="51.098779"><ele>24.6</ele><time>2022-05-29T06:21:07.000Z</time></trkpt><trkpt lon="5.778072" lat="51.098769"><ele>24.4</ele><time>2022-05-29T06:21:08.000Z</time></trkpt><trkpt lon="5.778176" lat="51.098766"><ele>24.4</ele><time>2022-05-29T06:21:09.000Z</time></trkpt><trkpt lon="5.778284" lat="51.098762"><ele>24.2</ele><time>2022-05-29T06:21:10.000Z</time></trkpt><trkpt lon="5.778392" lat="51.098759"><ele>24.2</ele><time>2022-05-29T06:21:11.000Z</time></trkpt><trkpt lon="5.778501" lat="51.098758"><ele>24.2</ele><time>2022-05-29T06:21:12.000Z</time></trkpt><trkpt lon="5.778609" lat="51.098755"><ele>24.2</ele><time>2022-05-29T06:21:13.000Z</time></trkpt><trkpt lon="5.77872" lat="51.098755"><ele>24</ele><time>2022-05-29T06:21:14.000Z</time></trkpt><trkpt lon="5.778833" lat="51.098755"><ele>24</ele><time>2022-05-29T06:21:15.000Z</time></trkpt><trkpt lon="5.778947" lat="51.098755"><ele>24</ele><time>2022-05-29T06:21:16.000Z</time></trkpt><trkpt lon="5.779058" lat="51.098755"><ele>23.8</ele><time>2022-05-29T06:21:17.000Z</time></trkpt><trkpt lon="5.77917" lat="51.098755"><ele>23.8</ele><time>2022-05-29T06:21:18.000Z</time></trkpt><trkpt lon="5.779283" lat="51.098755"><ele>24</ele><time>2022-05-29T06:21:19.000Z</time></trkpt><trkpt lon="5.779391" lat="51.098755"><ele>24</ele><time>2022-05-29T06:21:20.000Z</time></trkpt><trkpt lon="5.779496" lat="51.098755"><ele>24</ele><time>2022-05-29T06:21:21.000Z</time></trkpt><trkpt lon="5.77961" lat="51.098754"><ele>24</ele><time>2022-05-29T06:21:22.000Z</time></trkpt><trkpt lon="5.779717" lat="51.09875"><ele>24</ele><time>2022-05-29T06:21:23.000Z</time></trkpt><trkpt lon="5.779828" lat="51.098747"><ele>24</ele><time>2022-05-29T06:21:24.000Z</time></trkpt><trkpt lon="5.779939" lat="51.098743"><ele>24.2</ele><time>2022-05-29T06:21:25.000Z</time></trkpt><trkpt lon="5.780049" lat="51.098742"><ele>24.2</ele><time>2022-05-29T06:21:26.000Z</time></trkpt><trkpt lon="5.78016" lat="51.098735"><ele>24</ele><time>2022-05-29T06:21:27.000Z</time></trkpt><trkpt lon="5.780271" lat="51.098731"><ele>24</ele><time>2022-05-29T06:21:28.000Z</time></trkpt><trkpt lon="5.78038" lat="51.098727"><ele>23.8</ele><time>2022-05-29T06:21:29.000Z</time></trkpt><trkpt lon="5.780492" lat="51.098719"><ele>23.8</ele><time>2022-05-29T06:21:30.000Z</time></trkpt><trkpt lon="5.780604" lat="51.098711"><ele>23.8</ele><time>2022-05-29T06:21:31.000Z</time></trkpt><trkpt lon="5.78072" lat="51.0987"><ele>23.8</ele><time>2022-05-29T06:21:32.000Z</time></trkpt><trkpt lon="5.780831" lat="51.098693"><ele>23.8</ele><time>2022-05-29T06:21:33.000Z</time></trkpt><trkpt lon="5.780944" lat="51.098684"><ele>23.6</ele><time>2022-05-29T06:21:34.000Z</time></trkpt><trkpt lon="5.781056" lat="51.098673"><ele>23.4</ele><time>2022-05-29T06:21:35.000Z</time></trkpt><trkpt lon="5.781165" lat="51.098665"><ele>23.4</ele><time>2022-05-29T06:21:36.000Z</time></trkpt><trkpt lon="5.781275" lat="51.098654"><ele>23.6</ele><time>2022-05-29T06:21:37.000Z</time></trkpt><trkpt lon="5.781381" lat="51.098642"><ele>23.6</ele><time>2022-05-29T06:21:38.000Z</time></trkpt><trkpt lon="5.781489" lat="51.09863"><ele>23.6</ele><time>2022-05-29T06:21:39.000Z</time></trkpt><trkpt lon="5.781595" lat="51.098614"><ele>23.8</ele><time>2022-05-29T06:21:40.000Z</time></trkpt><trkpt lon="5.781702" lat="51.098596"><ele>24</ele><time>2022-05-29T06:21:41.000Z</time></trkpt><trkpt lon="5.78181" lat="51.098581"><ele>24</ele><time>2022-05-29T06:21:42.000Z</time></trkpt><trkpt lon="5.781913" lat="51.098569"><ele>23.8</ele><time>2022-05-29T06:21:43.000Z</time></trkpt><trkpt lon="5.782016" lat="51.098554"><ele>23.6</ele><time>2022-05-29T06:21:44.000Z</time></trkpt><trkpt lon="5.78212" lat="51.098543"><ele>23.6</ele><time>2022-05-29T06:21:45.000Z</time></trkpt><trkpt lon="5.782223" lat="51.098531"><ele>23.6</ele><time>2022-05-29T06:21:46.000Z</time></trkpt><trkpt lon="5.782323" lat="51.098521"><ele>23.8</ele><time>2022-05-29T06:21:47.000Z</time></trkpt><trkpt lon="5.782423" lat="51.098518"><ele>23.8</ele><time>2022-05-29T06:21:48.000Z</time></trkpt><trkpt lon="5.78252" lat="51.098515"><ele>24</ele><time>2022-05-29T06:21:49.000Z</time></trkpt><trkpt lon="5.782611" lat="51.098519"><ele>24</ele><time>2022-05-29T06:21:50.000Z</time></trkpt><trkpt lon="5.782699" lat="51.098523"><ele>24</ele><time>2022-05-29T06:21:51.000Z</time></trkpt><trkpt lon="5.782779" lat="51.098526"><ele>24</ele><time>2022-05-29T06:21:52.000Z</time></trkpt><trkpt lon="5.782852" lat="51.098523"><ele>24</ele><time>2022-05-29T06:21:53.000Z</time></trkpt><trkpt lon="5.782919" lat="51.098504"><ele>24.2</ele><time>2022-05-29T06:21:54.000Z</time></trkpt><trkpt lon="5.782974" lat="51.098469"><ele>24.2</ele><time>2022-05-29T06:21:55.000Z</time></trkpt><trkpt lon="5.783018" lat="51.09843"><ele>24.2</ele><time>2022-05-29T06:21:56.000Z</time></trkpt><trkpt lon="5.783082" lat="51.098375"><ele>24</ele><time>2022-05-29T06:21:57.000Z</time></trkpt><trkpt lon="5.783139" lat="51.098326"><ele>24</ele><time>2022-05-29T06:21:58.000Z</time></trkpt><trkpt lon="5.7832" lat="51.098277"><ele>24</ele><time>2022-05-29T06:21:59.000Z</time></trkpt><trkpt lon="5.783264" lat="51.098231"><ele>23.8</ele><time>2022-05-29T06:22:00.000Z</time></trkpt><trkpt lon="5.783329" lat="51.098181"><ele>23.8</ele><time>2022-05-29T06:22:01.000Z</time></trkpt><trkpt lon="5.783396" lat="51.098132"><ele>23.8</ele><time>2022-05-29T06:22:02.000Z</time></trkpt><trkpt lon="5.783468" lat="51.098087"><ele>23.8</ele><time>2022-05-29T06:22:03.000Z</time></trkpt><trkpt lon="5.783541" lat="51.098041"><ele>23.8</ele><time>2022-05-29T06:22:04.000Z</time></trkpt><trkpt lon="5.783615" lat="51.097994"><ele>23.6</ele><time>2022-05-29T06:22:05.000Z</time></trkpt><trkpt lon="5.783688" lat="51.097942"><ele>23.6</ele><time>2022-05-29T06:22:06.000Z</time></trkpt><trkpt lon="5.783763" lat="51.097892"><ele>23.6</ele><time>2022-05-29T06:22:07.000Z</time></trkpt><trkpt lon="5.783837" lat="51.097845"><ele>23.6</ele><time>2022-05-29T06:22:08.000Z</time></trkpt><trkpt lon="5.783912" lat="51.097792"><ele>23.8</ele><time>2022-05-29T06:22:09.000Z</time></trkpt><trkpt lon="5.78399" lat="51.097742"><ele>24</ele><time>2022-05-29T06:22:10.000Z</time></trkpt><trkpt lon="5.784066" lat="51.097689"><ele>24</ele><time>2022-05-29T06:22:11.000Z</time></trkpt><trkpt lon="5.784141" lat="51.097639"><ele>24.2</ele><time>2022-05-29T06:22:12.000Z</time></trkpt><trkpt lon="5.784216" lat="51.097587"><ele>24.2</ele><time>2022-05-29T06:22:13.000Z</time></trkpt><trkpt lon="5.78429" lat="51.097536"><ele>24.2</ele><time>2022-05-29T06:22:14.000Z</time></trkpt><trkpt lon="5.784363" lat="51.097484"><ele>24</ele><time>2022-05-29T06:22:15.000Z</time></trkpt><trkpt lon="5.784441" lat="51.097434"><ele>24</ele><time>2022-05-29T06:22:16.000Z</time></trkpt><trkpt lon="5.784519" lat="51.097384"><ele>24</ele><time>2022-05-29T06:22:17.000Z</time></trkpt><trkpt lon="5.784599" lat="51.097334"><ele>24</ele><time>2022-05-29T06:22:18.000Z</time></trkpt><trkpt lon="5.784678" lat="51.09728"><ele>24</ele><time>2022-05-29T06:22:19.000Z</time></trkpt><trkpt lon="5.784757" lat="51.097227"><ele>24</ele><time>2022-05-29T06:22:20.000Z</time></trkpt><trkpt lon="5.784836" lat="51.097177"><ele>24</ele><time>2022-05-29T06:22:21.000Z</time></trkpt><trkpt lon="5.784917" lat="51.097124"><ele>24</ele><time>2022-05-29T06:22:22.000Z</time></trkpt><trkpt lon="5.784996" lat="51.097074"><ele>23.8</ele><time>2022-05-29T06:22:23.000Z</time></trkpt><trkpt lon="5.785074" lat="51.097021"><ele>23.8</ele><time>2022-05-29T06:22:24.000Z</time></trkpt><trkpt lon="5.785151" lat="51.096969"><ele>23.8</ele><time>2022-05-29T06:22:25.000Z</time></trkpt><trkpt lon="5.785231" lat="51.09692"><ele>23.8</ele><time>2022-05-29T06:22:26.000Z</time></trkpt><trkpt lon="5.785321" lat="51.096869"><ele>23.8</ele><time>2022-05-29T06:22:27.000Z</time></trkpt><trkpt lon="5.785406" lat="51.09682"><ele>23.8</ele><time>2022-05-29T06:22:28.000Z</time></trkpt><trkpt lon="5.785486" lat="51.09677"><ele>23.8</ele><time>2022-05-29T06:22:29.000Z</time></trkpt><trkpt lon="5.785561" lat="51.096721"><ele>23.8</ele><time>2022-05-29T06:22:30.000Z</time></trkpt><trkpt lon="5.785633" lat="51.096675"><ele>23.8</ele><time>2022-05-29T06:22:31.000Z</time></trkpt><trkpt lon="5.785703" lat="51.096625"><ele>23.8</ele><time>2022-05-29T06:22:32.000Z</time></trkpt><trkpt lon="5.785763" lat="51.096576"><ele>23.8</ele><time>2022-05-29T06:22:33.000Z</time></trkpt><trkpt lon="5.785798" lat="51.096529"><ele>23.8</ele><time>2022-05-29T06:22:34.000Z</time></trkpt><trkpt lon="5.785797" lat="51.09648"><ele>23.8</ele><time>2022-05-29T06:22:35.000Z</time></trkpt><trkpt lon="5.78577" lat="51.096433"><ele>23.6</ele><time>2022-05-29T06:22:36.000Z</time></trkpt><trkpt lon="5.785743" lat="51.09638"><ele>23.6</ele><time>2022-05-29T06:22:37.000Z</time></trkpt><trkpt lon="5.78574" lat="51.096329"><ele>23.6</ele><time>2022-05-29T06:22:38.000Z</time></trkpt><trkpt lon="5.785774" lat="51.096284"><ele>23.6</ele><time>2022-05-29T06:22:39.000Z</time></trkpt><trkpt lon="5.785836" lat="51.096253"><ele>23.6</ele><time>2022-05-29T06:22:40.000Z</time></trkpt><trkpt lon="5.785918" lat="51.096236"><ele>23.6</ele><time>2022-05-29T06:22:41.000Z</time></trkpt><trkpt lon="5.786005" lat="51.096229"><ele>23.6</ele><time>2022-05-29T06:22:42.000Z</time></trkpt><trkpt lon="5.786102" lat="51.096224"><ele>23.6</ele><time>2022-05-29T06:22:43.000Z</time></trkpt><trkpt lon="5.786195" lat="51.096216"><ele>23.6</ele><time>2022-05-29T06:22:44.000Z</time></trkpt><trkpt lon="5.786292" lat="51.096202"><ele>23.8</ele><time>2022-05-29T06:22:45.000Z</time></trkpt><trkpt lon="5.786381" lat="51.096201"><ele>23.8</ele><time>2022-05-29T06:22:46.000Z</time></trkpt><trkpt lon="5.786462" lat="51.096216"><ele>24</ele><time>2022-05-29T06:22:47.000Z</time></trkpt><trkpt lon="5.786532" lat="51.096246"><ele>23.8</ele><time>2022-05-29T06:22:48.000Z</time></trkpt><trkpt lon="5.786596" lat="51.096278"><ele>24</ele><time>2022-05-29T06:22:49.000Z</time></trkpt><trkpt lon="5.786658" lat="51.096316"><ele>24</ele><time>2022-05-29T06:22:50.000Z</time></trkpt><trkpt lon="5.786715" lat="51.096356"><ele>23.8</ele><time>2022-05-29T06:22:51.000Z</time></trkpt><trkpt lon="5.786763" lat="51.096403"><ele>23.8</ele><time>2022-05-29T06:22:52.000Z</time></trkpt><trkpt lon="5.7868" lat="51.096457"><ele>23.6</ele><time>2022-05-29T06:22:53.000Z</time></trkpt><trkpt lon="5.786834" lat="51.096514"><ele>23.8</ele><time>2022-05-29T06:22:54.000Z</time></trkpt><trkpt lon="5.786868" lat="51.096572"><ele>23.8</ele><time>2022-05-29T06:22:55.000Z</time></trkpt><trkpt lon="5.786901" lat="51.096634"><ele>23.6</ele><time>2022-05-29T06:22:56.000Z</time></trkpt><trkpt lon="5.786933" lat="51.096693"><ele>23.4</ele><time>2022-05-29T06:22:57.000Z</time></trkpt><trkpt lon="5.786963" lat="51.096751"><ele>23.4</ele><time>2022-05-29T06:22:58.000Z</time></trkpt><trkpt lon="5.786995" lat="51.096812"><ele>23.2</ele><time>2022-05-29T06:22:59.000Z</time></trkpt><trkpt lon="5.787033" lat="51.096869"><ele>23.2</ele><time>2022-05-29T06:23:00.000Z</time></trkpt><trkpt lon="5.787078" lat="51.096922"><ele>23.2</ele><time>2022-05-29T06:23:01.000Z</time></trkpt><trkpt lon="5.787137" lat="51.096973"><ele>23.4</ele><time>2022-05-29T06:23:02.000Z</time></trkpt><trkpt lon="5.787204" lat="51.097019"><ele>23.4</ele><time>2022-05-29T06:23:03.000Z</time></trkpt><trkpt lon="5.787283" lat="51.097065"><ele>23.4</ele><time>2022-05-29T06:23:04.000Z</time></trkpt><trkpt lon="5.78737" lat="51.097105"><ele>23.4</ele><time>2022-05-29T06:23:05.000Z</time></trkpt><trkpt lon="5.78746" lat="51.097138"><ele>23.4</ele><time>2022-05-29T06:23:06.000Z</time></trkpt><trkpt lon="5.787558" lat="51.097164"><ele>23.2</ele><time>2022-05-29T06:23:07.000Z</time></trkpt><trkpt lon="5.787658" lat="51.097186"><ele>23</ele><time>2022-05-29T06:23:08.000Z</time></trkpt><trkpt lon="5.787764" lat="51.0972"><ele>22.8</ele><time>2022-05-29T06:23:09.000Z</time></trkpt><trkpt lon="5.787873" lat="51.09721"><ele>22.8</ele><time>2022-05-29T06:23:10.000Z</time></trkpt><trkpt lon="5.787981" lat="51.097209"><ele>22.6</ele><time>2022-05-29T06:23:11.000Z</time></trkpt><trkpt lon="5.788088" lat="51.097205"><ele>22.8</ele><time>2022-05-29T06:23:12.000Z</time></trkpt><trkpt lon="5.788198" lat="51.097197"><ele>22.8</ele><time>2022-05-29T06:23:13.000Z</time></trkpt><trkpt lon="5.788307" lat="51.097186"><ele>22.8</ele><time>2022-05-29T06:23:14.000Z</time></trkpt><trkpt lon="5.78842" lat="51.097183"><ele>22.8</ele><time>2022-05-29T06:23:15.000Z</time></trkpt><trkpt lon="5.788532" lat="51.097178"><ele>22.8</ele><time>2022-05-29T06:23:16.000Z</time></trkpt><trkpt lon="5.788646" lat="51.097171"><ele>23</ele><time>2022-05-29T06:23:17.000Z</time></trkpt><trkpt lon="5.788757" lat="51.097167"><ele>23</ele><time>2022-05-29T06:23:18.000Z</time></trkpt><trkpt lon="5.788871" lat="51.097164"><ele>23</ele><time>2022-05-29T06:23:19.000Z</time></trkpt><trkpt lon="5.788986" lat="51.09716"><ele>23</ele><time>2022-05-29T06:23:20.000Z</time></trkpt><trkpt lon="5.789099" lat="51.09716"><ele>22.8</ele><time>2022-05-29T06:23:21.000Z</time></trkpt><trkpt lon="5.789215" lat="51.097162"><ele>23</ele><time>2022-05-29T06:23:22.000Z</time></trkpt><trkpt lon="5.789332" lat="51.097168"><ele>22.8</ele><time>2022-05-29T06:23:23.000Z</time></trkpt><trkpt lon="5.789447" lat="51.097168"><ele>22.8</ele><time>2022-05-29T06:23:24.000Z</time></trkpt><trkpt lon="5.789562" lat="51.097168"><ele>22.8</ele><time>2022-05-29T06:23:25.000Z</time></trkpt><trkpt lon="5.789678" lat="51.097169"><ele>22.8</ele><time>2022-05-29T06:23:26.000Z</time></trkpt><trkpt lon="5.7898" lat="51.097172"><ele>22.8</ele><time>2022-05-29T06:23:27.000Z</time></trkpt><trkpt lon="5.789916" lat="51.097172"><ele>22.6</ele><time>2022-05-29T06:23:28.000Z</time></trkpt><trkpt lon="5.790033" lat="51.097171"><ele>22.6</ele><time>2022-05-29T06:23:29.000Z</time></trkpt><trkpt lon="5.790147" lat="51.097167"><ele>22.6</ele><time>2022-05-29T06:23:30.000Z</time></trkpt><trkpt lon="5.790259" lat="51.097164"><ele>22.6</ele><time>2022-05-29T06:23:31.000Z</time></trkpt><trkpt lon="5.790372" lat="51.09716"><ele>22.4</ele><time>2022-05-29T06:23:32.000Z</time></trkpt><trkpt lon="5.790483" lat="51.097157"><ele>22.4</ele><time>2022-05-29T06:23:33.000Z</time></trkpt><trkpt lon="5.790593" lat="51.097156"><ele>22.6</ele><time>2022-05-29T06:23:34.000Z</time></trkpt><trkpt lon="5.790707" lat="51.097151"><ele>22.6</ele><time>2022-05-29T06:23:35.000Z</time></trkpt><trkpt lon="5.790819" lat="51.097144"><ele>22.6</ele><time>2022-05-29T06:23:36.000Z</time></trkpt><trkpt lon="5.790932" lat="51.097141"><ele>22.6</ele><time>2022-05-29T06:23:37.000Z</time></trkpt><trkpt lon="5.791049" lat="51.097137"><ele>22.6</ele><time>2022-05-29T06:23:38.000Z</time></trkpt><trkpt lon="5.791163" lat="51.097133"><ele>22.4</ele><time>2022-05-29T06:23:39.000Z</time></trkpt><trkpt lon="5.791275" lat="51.097129"><ele>22.4</ele><time>2022-05-29T06:23:40.000Z</time></trkpt><trkpt lon="5.791387" lat="51.097122"><ele>22.2</ele><time>2022-05-29T06:23:41.000Z</time></trkpt><trkpt lon="5.7915" lat="51.097118"><ele>22.2</ele><time>2022-05-29T06:23:42.000Z</time></trkpt><trkpt lon="5.79161" lat="51.097115"><ele>22.2</ele><time>2022-05-29T06:23:43.000Z</time></trkpt><trkpt lon="5.79172" lat="51.097115"><ele>22.2</ele><time>2022-05-29T06:23:44.000Z</time></trkpt><trkpt lon="5.79183" lat="51.097114"><ele>22</ele><time>2022-05-29T06:23:45.000Z</time></trkpt><trkpt lon="5.791939" lat="51.09711"><ele>22</ele><time>2022-05-29T06:23:46.000Z</time></trkpt><trkpt lon="5.79205" lat="51.097106"><ele>22</ele><time>2022-05-29T06:23:47.000Z</time></trkpt><trkpt lon="5.79216" lat="51.097103"><ele>22</ele><time>2022-05-29T06:23:48.000Z</time></trkpt><trkpt lon="5.792271" lat="51.097103"><ele>22</ele><time>2022-05-29T06:23:49.000Z</time></trkpt><trkpt lon="5.79238" lat="51.097103"><ele>22</ele><time>2022-05-29T06:23:50.000Z</time></trkpt><trkpt lon="5.79249" lat="51.097102"><ele>22.2</ele><time>2022-05-29T06:23:51.000Z</time></trkpt><trkpt lon="5.792595" lat="51.097094"><ele>22.4</ele><time>2022-05-29T06:23:52.000Z</time></trkpt><trkpt lon="5.792698" lat="51.097087"><ele>22.4</ele><time>2022-05-29T06:23:53.000Z</time></trkpt><trkpt lon="5.7928" lat="51.097083"><ele>22.4</ele><time>2022-05-29T06:23:54.000Z</time></trkpt><trkpt lon="5.792903" lat="51.09708"><ele>22.4</ele><time>2022-05-29T06:23:55.000Z</time></trkpt><trkpt lon="5.793015" lat="51.09708"><ele>22.4</ele><time>2022-05-29T06:23:56.000Z</time></trkpt><trkpt lon="5.793121" lat="51.097076"><ele>22.4</ele><time>2022-05-29T06:23:57.000Z</time></trkpt><trkpt lon="5.79323" lat="51.097072"><ele>22.6</ele><time>2022-05-29T06:23:58.000Z</time></trkpt><trkpt lon="5.793334" lat="51.097068"><ele>22.6</ele><time>2022-05-29T06:23:59.000Z</time></trkpt><trkpt lon="5.793442" lat="51.097064"><ele>22.4</ele><time>2022-05-29T06:24:00.000Z</time></trkpt><trkpt lon="5.793546" lat="51.09706"><ele>22.6</ele><time>2022-05-29T06:24:01.000Z</time></trkpt><trkpt lon="5.793645" lat="51.097052"><ele>22.4</ele><time>2022-05-29T06:24:02.000Z</time></trkpt><trkpt lon="5.793745" lat="51.097044"><ele>22.4</ele><time>2022-05-29T06:24:03.000Z</time></trkpt><trkpt lon="5.793841" lat="51.097031"><ele>22.6</ele><time>2022-05-29T06:24:04.000Z</time></trkpt><trkpt lon="5.793929" lat="51.097012"><ele>22.6</ele><time>2022-05-29T06:24:05.000Z</time></trkpt><trkpt lon="5.793992" lat="51.096995"><ele>22.6</ele><time>2022-05-29T06:24:06.000Z</time></trkpt><trkpt lon="5.794086" lat="51.096952"><ele>22.6</ele><time>2022-05-29T06:24:07.000Z</time></trkpt><trkpt lon="5.794156" lat="51.096914"><ele>22.6</ele><time>2022-05-29T06:24:08.000Z</time></trkpt><trkpt lon="5.794224" lat="51.096879"><ele>22.8</ele><time>2022-05-29T06:24:09.000Z</time></trkpt><trkpt lon="5.794288" lat="51.096843"><ele>22.8</ele><time>2022-05-29T06:24:10.000Z</time></trkpt><trkpt lon="5.794357" lat="51.096808"><ele>22.8</ele><time>2022-05-29T06:24:11.000Z</time></trkpt><trkpt lon="5.794426" lat="51.096778"><ele>22.8</ele><time>2022-05-29T06:24:12.000Z</time></trkpt><trkpt lon="5.794496" lat="51.096742"><ele>23</ele><time>2022-05-29T06:24:13.000Z</time></trkpt><trkpt lon="5.794559" lat="51.096703"><ele>23</ele><time>2022-05-29T06:24:14.000Z</time></trkpt><trkpt lon="5.794627" lat="51.096661"><ele>23</ele><time>2022-05-29T06:24:15.000Z</time></trkpt><trkpt lon="5.794695" lat="51.096618"><ele>23</ele><time>2022-05-29T06:24:16.000Z</time></trkpt><trkpt lon="5.794768" lat="51.096569"><ele>22.8</ele><time>2022-05-29T06:24:17.000Z</time></trkpt><trkpt lon="5.794841" lat="51.096523"><ele>22.8</ele><time>2022-05-29T06:24:18.000Z</time></trkpt><trkpt lon="5.794912" lat="51.096478"><ele>22.6</ele><time>2022-05-29T06:24:19.000Z</time></trkpt><trkpt lon="5.794974" lat="51.096433"><ele>22.8</ele><time>2022-05-29T06:24:20.000Z</time></trkpt><trkpt lon="5.79503" lat="51.096392"><ele>22.8</ele><time>2022-05-29T06:24:21.000Z</time></trkpt><trkpt lon="5.795083" lat="51.096353"><ele>22.8</ele><time>2022-05-29T06:24:22.000Z</time></trkpt><trkpt lon="5.795134" lat="51.096317"><ele>22.8</ele><time>2022-05-29T06:24:23.000Z</time></trkpt><trkpt lon="5.795182" lat="51.096288"><ele>22.8</ele><time>2022-05-29T06:24:24.000Z</time></trkpt><trkpt lon="5.795201" lat="51.096244"><ele>22.8</ele><time>2022-05-29T06:24:25.000Z</time></trkpt><trkpt lon="5.795192" lat="51.096197"><ele>22.8</ele><time>2022-05-29T06:24:26.000Z</time></trkpt><trkpt lon="5.795176" lat="51.096143"><ele>22.8</ele><time>2022-05-29T06:24:27.000Z</time></trkpt><trkpt lon="5.795155" lat="51.09609"><ele>22.8</ele><time>2022-05-29T06:24:28.000Z</time></trkpt><trkpt lon="5.795132" lat="51.096031"><ele>22.8</ele><time>2022-05-29T06:24:29.000Z</time></trkpt><trkpt lon="5.795108" lat="51.09597"><ele>22.8</ele><time>2022-05-29T06:24:30.000Z</time></trkpt><trkpt lon="5.795083" lat="51.095913"><ele>22.8</ele><time>2022-05-29T06:24:31.000Z</time></trkpt><trkpt lon="5.79506" lat="51.095852"><ele>22.8</ele><time>2022-05-29T06:24:32.000Z</time></trkpt><trkpt lon="5.795039" lat="51.095786"><ele>22.8</ele><time>2022-05-29T06:24:33.000Z</time></trkpt><trkpt lon="5.795017" lat="51.095725"><ele>22.6</ele><time>2022-05-29T06:24:34.000Z</time></trkpt><trkpt lon="5.794992" lat="51.095661"><ele>22.6</ele><time>2022-05-29T06:24:35.000Z</time></trkpt><trkpt lon="5.794969" lat="51.095599"><ele>22.8</ele><time>2022-05-29T06:24:36.000Z</time></trkpt><trkpt lon="5.794949" lat="51.095534"><ele>22.8</ele><time>2022-05-29T06:24:37.000Z</time></trkpt><trkpt lon="5.794935" lat="51.09547"><ele>22.8</ele><time>2022-05-29T06:24:38.000Z</time></trkpt><trkpt lon="5.794918" lat="51.095405"><ele>22.8</ele><time>2022-05-29T06:24:39.000Z</time></trkpt><trkpt lon="5.794896" lat="51.095344"><ele>22.8</ele><time>2022-05-29T06:24:40.000Z</time></trkpt><trkpt lon="5.794876" lat="51.095283"><ele>22.8</ele><time>2022-05-29T06:24:41.000Z</time></trkpt><trkpt lon="5.79486" lat="51.095219"><ele>22.8</ele><time>2022-05-29T06:24:42.000Z</time></trkpt><trkpt lon="5.79484" lat="51.095157"><ele>22.8</ele><time>2022-05-29T06:24:43.000Z</time></trkpt><trkpt lon="5.794824" lat="51.095097"><ele>22.8</ele><time>2022-05-29T06:24:44.000Z</time></trkpt><trkpt lon="5.79481" lat="51.09504"><ele>23</ele><time>2022-05-29T06:24:45.000Z</time></trkpt><trkpt lon="5.794795" lat="51.094983"><ele>23.2</ele><time>2022-05-29T06:24:46.000Z</time></trkpt><trkpt lon="5.79478" lat="51.09493"><ele>23.2</ele><time>2022-05-29T06:24:47.000Z</time></trkpt><trkpt lon="5.794771" lat="51.094877"><ele>23.4</ele><time>2022-05-29T06:24:48.000Z</time></trkpt><trkpt lon="5.794773" lat="51.094825"><ele>23.4</ele><time>2022-05-29T06:24:49.000Z</time></trkpt><trkpt lon="5.794793" lat="51.09478"><ele>23.6</ele><time>2022-05-29T06:24:50.000Z</time></trkpt><trkpt lon="5.794832" lat="51.094744"><ele>23.6</ele><time>2022-05-29T06:24:51.000Z</time></trkpt><trkpt lon="5.79489" lat="51.094715"><ele>23.6</ele><time>2022-05-29T06:24:52.000Z</time></trkpt><trkpt lon="5.794961" lat="51.094698"><ele>23.4</ele><time>2022-05-29T06:24:53.000Z</time></trkpt><trkpt lon="5.795039" lat="51.094686"><ele>23.4</ele><time>2022-05-29T06:24:54.000Z</time></trkpt><trkpt lon="5.79512" lat="51.094675"><ele>23.2</ele><time>2022-05-29T06:24:55.000Z</time></trkpt><trkpt lon="5.795201" lat="51.094663"><ele>23.2</ele><time>2022-05-29T06:24:56.000Z</time></trkpt><trkpt lon="5.795281" lat="51.094652"><ele>23.2</ele><time>2022-05-29T06:24:57.000Z</time></trkpt><trkpt lon="5.795362" lat="51.094641"><ele>23.2</ele><time>2022-05-29T06:24:58.000Z</time></trkpt><trkpt lon="5.795456" lat="51.094628"><ele>23.2</ele><time>2022-05-29T06:24:59.000Z</time></trkpt><trkpt lon="5.795553" lat="51.094614"><ele>23.2</ele><time>2022-05-29T06:25:00.000Z</time></trkpt><trkpt lon="5.795653" lat="51.094602"><ele>23.2</ele><time>2022-05-29T06:25:01.000Z</time></trkpt><trkpt lon="5.795755" lat="51.094587"><ele>23</ele><time>2022-05-29T06:25:02.000Z</time></trkpt><trkpt lon="5.79586" lat="51.094575"><ele>23</ele><time>2022-05-29T06:25:03.000Z</time></trkpt><trkpt lon="5.795964" lat="51.094559"><ele>23</ele><time>2022-05-29T06:25:04.000Z</time></trkpt><trkpt lon="5.796066" lat="51.094544"><ele>23</ele><time>2022-05-29T06:25:05.000Z</time></trkpt><trkpt lon="5.796166" lat="51.094525"><ele>23</ele><time>2022-05-29T06:25:06.000Z</time></trkpt><trkpt lon="5.796262" lat="51.094509"><ele>22.8</ele><time>2022-05-29T06:25:07.000Z</time></trkpt><trkpt lon="5.796354" lat="51.094491"><ele>22.8</ele><time>2022-05-29T06:25:08.000Z</time></trkpt><trkpt lon="5.796442" lat="51.094476"><ele>22.8</ele><time>2022-05-29T06:25:09.000Z</time></trkpt><trkpt lon="5.796523" lat="51.094466"><ele>22.8</ele><time>2022-05-29T06:25:10.000Z</time></trkpt><trkpt lon="5.796599" lat="51.094459"><ele>22.8</ele><time>2022-05-29T06:25:11.000Z</time></trkpt><trkpt lon="5.796662" lat="51.094454"><ele>22.8</ele><time>2022-05-29T06:25:12.000Z</time></trkpt><trkpt lon="5.796713" lat="51.094446"><ele>23</ele><time>2022-05-29T06:25:13.000Z</time></trkpt><trkpt lon="5.796754" lat="51.094432"><ele>23</ele><time>2022-05-29T06:25:14.000Z</time></trkpt><trkpt lon="5.796779" lat="51.094405"><ele>23</ele><time>2022-05-29T06:25:15.000Z</time></trkpt><trkpt lon="5.796779" lat="51.094367"><ele>23</ele><time>2022-05-29T06:25:16.000Z</time></trkpt><trkpt lon="5.796763" lat="51.094321"><ele>23</ele><time>2022-05-29T06:25:17.000Z</time></trkpt><trkpt lon="5.796743" lat="51.094274"><ele>23</ele><time>2022-05-29T06:25:18.000Z</time></trkpt><trkpt lon="5.79672" lat="51.09422"><ele>23</ele><time>2022-05-29T06:25:19.000Z</time></trkpt><trkpt lon="5.796695" lat="51.094163"><ele>23</ele><time>2022-05-29T06:25:20.000Z</time></trkpt><trkpt lon="5.796664" lat="51.094109"><ele>23</ele><time>2022-05-29T06:25:21.000Z</time></trkpt><trkpt lon="5.796631" lat="51.094052"><ele>23.2</ele><time>2022-05-29T06:25:22.000Z</time></trkpt><trkpt lon="5.796595" lat="51.093995"><ele>23.2</ele><time>2022-05-29T06:25:23.000Z</time></trkpt><trkpt lon="5.796558" lat="51.093942"><ele>23.2</ele><time>2022-05-29T06:25:24.000Z</time></trkpt><trkpt lon="5.796522" lat="51.093889"><ele>23.2</ele><time>2022-05-29T06:25:25.000Z</time></trkpt><trkpt lon="5.796487" lat="51.093839"><ele>23.2</ele><time>2022-05-29T06:25:26.000Z</time></trkpt><trkpt lon="5.796452" lat="51.09379"><ele>23.2</ele><time>2022-05-29T06:25:27.000Z</time></trkpt><trkpt lon="5.796423" lat="51.093741"><ele>23.2</ele><time>2022-05-29T06:25:28.000Z</time></trkpt><trkpt lon="5.796395" lat="51.093696"><ele>23.2</ele><time>2022-05-29T06:25:29.000Z</time></trkpt><trkpt lon="5.79637" lat="51.093655"><ele>23.2</ele><time>2022-05-29T06:25:30.000Z</time></trkpt><trkpt lon="5.796345" lat="51.093618"><ele>23.2</ele><time>2022-05-29T06:25:31.000Z</time></trkpt><trkpt lon="5.796321" lat="51.093585"><ele>23.2</ele><time>2022-05-29T06:25:32.000Z</time></trkpt><trkpt lon="5.796296" lat="51.093558"><ele>23.2</ele><time>2022-05-29T06:25:33.000Z</time></trkpt><trkpt lon="5.796272" lat="51.093532"><ele>23.4</ele><time>2022-05-29T06:25:34.000Z</time></trkpt><trkpt lon="5.79626" lat="51.093505"><ele>23.4</ele><time>2022-05-29T06:25:35.000Z</time></trkpt><trkpt lon="5.796275" lat="51.093483"><ele>23.4</ele><time>2022-05-29T06:25:36.000Z</time></trkpt><trkpt lon="5.796311" lat="51.09346"><ele>23.4</ele><time>2022-05-29T06:25:37.000Z</time></trkpt><trkpt lon="5.79636" lat="51.093436"><ele>23.4</ele><time>2022-05-29T06:25:38.000Z</time></trkpt><trkpt lon="5.796419" lat="51.093409"><ele>23.6</ele><time>2022-05-29T06:25:39.000Z</time></trkpt><trkpt lon="5.796488" lat="51.093385"><ele>23.6</ele><time>2022-05-29T06:25:40.000Z</time></trkpt><trkpt lon="5.796564" lat="51.093373"><ele>23.6</ele><time>2022-05-29T06:25:41.000Z</time></trkpt><trkpt lon="5.796649" lat="51.093378"><ele>23.8</ele><time>2022-05-29T06:25:42.000Z</time></trkpt><trkpt lon="5.79674" lat="51.093387"><ele>23.8</ele><time>2022-05-29T06:25:43.000Z</time></trkpt><trkpt lon="5.796835" lat="51.093402"><ele>23.8</ele><time>2022-05-29T06:25:44.000Z</time></trkpt><trkpt lon="5.79693" lat="51.093416"><ele>24</ele><time>2022-05-29T06:25:45.000Z</time></trkpt><trkpt lon="5.797027" lat="51.093421"><ele>24</ele><time>2022-05-29T06:25:46.000Z</time></trkpt><trkpt lon="5.797122" lat="51.093414"><ele>24.2</ele><time>2022-05-29T06:25:47.000Z</time></trkpt><trkpt lon="5.797216" lat="51.093395"><ele>24.6</ele><time>2022-05-29T06:25:48.000Z</time></trkpt><trkpt lon="5.797309" lat="51.093375"><ele>24.8</ele><time>2022-05-29T06:25:49.000Z</time></trkpt><trkpt lon="5.7974" lat="51.093347"><ele>25.2</ele><time>2022-05-29T06:25:50.000Z</time></trkpt><trkpt lon="5.797484" lat="51.093316"><ele>25.4</ele><time>2022-05-29T06:25:51.000Z</time></trkpt><trkpt lon="5.797568" lat="51.09328"><ele>25.8</ele><time>2022-05-29T06:25:52.000Z</time></trkpt><trkpt lon="5.797646" lat="51.093239"><ele>26</ele><time>2022-05-29T06:25:53.000Z</time></trkpt><trkpt lon="5.797721" lat="51.0932"><ele>26.4</ele><time>2022-05-29T06:25:54.000Z</time></trkpt><trkpt lon="5.797795" lat="51.093158"><ele>26.8</ele><time>2022-05-29T06:25:55.000Z</time></trkpt><trkpt lon="5.797868" lat="51.093112"><ele>27</ele><time>2022-05-29T06:25:56.000Z</time></trkpt><trkpt lon="5.797941" lat="51.093067"><ele>27.2</ele><time>2022-05-29T06:25:57.000Z</time></trkpt><trkpt lon="5.798014" lat="51.093024"><ele>27.4</ele><time>2022-05-29T06:25:58.000Z</time></trkpt><trkpt lon="5.798088" lat="51.092979"><ele>27.8</ele><time>2022-05-29T06:25:59.000Z</time></trkpt><trkpt lon="5.798162" lat="51.092936"><ele>28</ele><time>2022-05-29T06:26:00.000Z</time></trkpt><trkpt lon="5.798235" lat="51.092891"><ele>28.2</ele><time>2022-05-29T06:26:01.000Z</time></trkpt><trkpt lon="5.798309" lat="51.092846"><ele>28.4</ele><time>2022-05-29T06:26:02.000Z</time></trkpt><trkpt lon="5.798384" lat="51.092802"><ele>28.6</ele><time>2022-05-29T06:26:03.000Z</time></trkpt><trkpt lon="5.798459" lat="51.092754"><ele>28.8</ele><time>2022-05-29T06:26:04.000Z</time></trkpt><trkpt lon="5.798533" lat="51.092711"><ele>28.8</ele><time>2022-05-29T06:26:05.000Z</time></trkpt><trkpt lon="5.798608" lat="51.092665"><ele>29</ele><time>2022-05-29T06:26:06.000Z</time></trkpt><trkpt lon="5.798682" lat="51.09262"><ele>29</ele><time>2022-05-29T06:26:07.000Z</time></trkpt><trkpt lon="5.798753" lat="51.092578"><ele>29</ele><time>2022-05-29T06:26:08.000Z</time></trkpt><trkpt lon="5.798826" lat="51.092532"><ele>29.2</ele><time>2022-05-29T06:26:09.000Z</time></trkpt><trkpt lon="5.798901" lat="51.092487"><ele>29.2</ele><time>2022-05-29T06:26:10.000Z</time></trkpt><trkpt lon="5.798974" lat="51.092444"><ele>29</ele><time>2022-05-29T06:26:11.000Z</time></trkpt><trkpt lon="5.79905" lat="51.092395"><ele>29</ele><time>2022-05-29T06:26:12.000Z</time></trkpt><trkpt lon="5.799129" lat="51.092352"><ele>28.8</ele><time>2022-05-29T06:26:13.000Z</time></trkpt><trkpt lon="5.799208" lat="51.092303"><ele>28.6</ele><time>2022-05-29T06:26:14.000Z</time></trkpt><trkpt lon="5.799289" lat="51.092257"><ele>28.4</ele><time>2022-05-29T06:26:15.000Z</time></trkpt><trkpt lon="5.799369" lat="51.092208"><ele>28.2</ele><time>2022-05-29T06:26:16.000Z</time></trkpt><trkpt lon="5.799451" lat="51.092161"><ele>28</ele><time>2022-05-29T06:26:17.000Z</time></trkpt><trkpt lon="5.799532" lat="51.092112"><ele>27.8</ele><time>2022-05-29T06:26:18.000Z</time></trkpt><trkpt lon="5.799616" lat="51.092062"><ele>27.4</ele><time>2022-05-29T06:26:19.000Z</time></trkpt><trkpt lon="5.799703" lat="51.092012"><ele>27</ele><time>2022-05-29T06:26:20.000Z</time></trkpt><trkpt lon="5.799794" lat="51.091958"><ele>26.6</ele><time>2022-05-29T06:26:21.000Z</time></trkpt><trkpt lon="5.799881" lat="51.0919"><ele>26.2</ele><time>2022-05-29T06:26:22.000Z</time></trkpt><trkpt lon="5.799966" lat="51.091838"><ele>25.8</ele><time>2022-05-29T06:26:23.000Z</time></trkpt><trkpt lon="5.800048" lat="51.091769"><ele>25.4</ele><time>2022-05-29T06:26:24.000Z</time></trkpt><trkpt lon="5.800124" lat="51.091698"><ele>25.2</ele><time>2022-05-29T06:26:25.000Z</time></trkpt><trkpt lon="5.800199" lat="51.091622"><ele>24.8</ele><time>2022-05-29T06:26:26.000Z</time></trkpt><trkpt lon="5.800269" lat="51.091544"><ele>24.4</ele><time>2022-05-29T06:26:27.000Z</time></trkpt><trkpt lon="5.800331" lat="51.091461"><ele>24</ele><time>2022-05-29T06:26:28.000Z</time></trkpt><trkpt lon="5.800377" lat="51.091375"><ele>24</ele><time>2022-05-29T06:26:29.000Z</time></trkpt><trkpt lon="5.80041" lat="51.091287"><ele>23.6</ele><time>2022-05-29T06:26:30.000Z</time></trkpt><trkpt lon="5.800431" lat="51.091195"><ele>23.4</ele><time>2022-05-29T06:26:31.000Z</time></trkpt><trkpt lon="5.80044" lat="51.091104"><ele>23.4</ele><time>2022-05-29T06:26:32.000Z</time></trkpt><trkpt lon="5.800442" lat="51.091013"><ele>23.2</ele><time>2022-05-29T06:26:33.000Z</time></trkpt><trkpt lon="5.800441" lat="51.090921"><ele>23</ele><time>2022-05-29T06:26:34.000Z</time></trkpt><trkpt lon="5.800437" lat="51.090834"><ele>23.2</ele><time>2022-05-29T06:26:35.000Z</time></trkpt><trkpt lon="5.800432" lat="51.090751"><ele>23</ele><time>2022-05-29T06:26:36.000Z</time></trkpt><trkpt lon="5.800424" lat="51.090663"><ele>23</ele><time>2022-05-29T06:26:37.000Z</time></trkpt><trkpt lon="5.800418" lat="51.09058"><ele>23</ele><time>2022-05-29T06:26:38.000Z</time></trkpt><trkpt lon="5.800415" lat="51.0905"><ele>23</ele><time>2022-05-29T06:26:39.000Z</time></trkpt><trkpt lon="5.800416" lat="51.09042"><ele>23</ele><time>2022-05-29T06:26:40.000Z</time></trkpt><trkpt lon="5.800419" lat="51.090339"><ele>23</ele><time>2022-05-29T06:26:41.000Z</time></trkpt><trkpt lon="5.800425" lat="51.09026"><ele>23.2</ele><time>2022-05-29T06:26:42.000Z</time></trkpt><trkpt lon="5.800437" lat="51.090184"><ele>23.2</ele><time>2022-05-29T06:26:43.000Z</time></trkpt><trkpt lon="5.800456" lat="51.090108"><ele>23.2</ele><time>2022-05-29T06:26:44.000Z</time></trkpt><trkpt lon="5.800483" lat="51.090031"><ele>23.2</ele><time>2022-05-29T06:26:45.000Z</time></trkpt><trkpt lon="5.800517" lat="51.089955"><ele>23.2</ele><time>2022-05-29T06:26:46.000Z</time></trkpt><trkpt lon="5.800559" lat="51.089879"><ele>23.2</ele><time>2022-05-29T06:26:47.000Z</time></trkpt><trkpt lon="5.800608" lat="51.089803"><ele>23.2</ele><time>2022-05-29T06:26:48.000Z</time></trkpt><trkpt lon="5.800666" lat="51.089726"><ele>23</ele><time>2022-05-29T06:26:49.000Z</time></trkpt><trkpt lon="5.800726" lat="51.089655"><ele>23</ele><time>2022-05-29T06:26:50.000Z</time></trkpt><trkpt lon="5.800788" lat="51.089587"><ele>23</ele><time>2022-05-29T06:26:51.000Z</time></trkpt><trkpt lon="5.800851" lat="51.089517"><ele>22.8</ele><time>2022-05-29T06:26:52.000Z</time></trkpt><trkpt lon="5.800914" lat="51.089449"><ele>22.6</ele><time>2022-05-29T06:26:53.000Z</time></trkpt><trkpt lon="5.800977" lat="51.089381"><ele>22.6</ele><time>2022-05-29T06:26:54.000Z</time></trkpt><trkpt lon="5.801044" lat="51.089316"><ele>22.8</ele><time>2022-05-29T06:26:55.000Z</time></trkpt><trkpt lon="5.801111" lat="51.089251"><ele>22.8</ele><time>2022-05-29T06:26:56.000Z</time></trkpt><trkpt lon="5.801178" lat="51.089187"><ele>23</ele><time>2022-05-29T06:26:57.000Z</time></trkpt><trkpt lon="5.801244" lat="51.089122"><ele>23.2</ele><time>2022-05-29T06:26:58.000Z</time></trkpt><trkpt lon="5.801309" lat="51.089055"><ele>23.2</ele><time>2022-05-29T06:26:59.000Z</time></trkpt><trkpt lon="5.801377" lat="51.088989"><ele>23.2</ele><time>2022-05-29T06:27:00.000Z</time></trkpt><trkpt lon="5.801444" lat="51.088924"><ele>23.2</ele><time>2022-05-29T06:27:01.000Z</time></trkpt><trkpt lon="5.801509" lat="51.088859"><ele>23</ele><time>2022-05-29T06:27:02.000Z</time></trkpt><trkpt lon="5.801576" lat="51.088793"><ele>23</ele><time>2022-05-29T06:27:03.000Z</time></trkpt><trkpt lon="5.801641" lat="51.088725"><ele>23</ele><time>2022-05-29T06:27:04.000Z</time></trkpt><trkpt lon="5.801707" lat="51.08866"><ele>23</ele><time>2022-05-29T06:27:05.000Z</time></trkpt><trkpt lon="5.801772" lat="51.088596"><ele>23</ele><time>2022-05-29T06:27:06.000Z</time></trkpt><trkpt lon="5.80184" lat="51.088531"><ele>23</ele><time>2022-05-29T06:27:07.000Z</time></trkpt><trkpt lon="5.801908" lat="51.08847"><ele>23.2</ele><time>2022-05-29T06:27:08.000Z</time></trkpt><trkpt lon="5.801974" lat="51.088405"><ele>23.2</ele><time>2022-05-29T06:27:09.000Z</time></trkpt><trkpt lon="5.802041" lat="51.08834"><ele>23.4</ele><time>2022-05-29T06:27:10.000Z</time></trkpt><trkpt lon="5.802107" lat="51.088279"><ele>23.4</ele><time>2022-05-29T06:27:11.000Z</time></trkpt><trkpt lon="5.802171" lat="51.088215"><ele>23.4</ele><time>2022-05-29T06:27:12.000Z</time></trkpt><trkpt lon="5.802237" lat="51.08815"><ele>23.6</ele><time>2022-05-29T06:27:13.000Z</time></trkpt><trkpt lon="5.802304" lat="51.088085"><ele>23.8</ele><time>2022-05-29T06:27:14.000Z</time></trkpt><trkpt lon="5.80237" lat="51.088023"><ele>23.8</ele><time>2022-05-29T06:27:15.000Z</time></trkpt><trkpt lon="5.802436" lat="51.08796"><ele>23.8</ele><time>2022-05-29T06:27:16.000Z</time></trkpt><trkpt lon="5.802504" lat="51.087898"><ele>23.8</ele><time>2022-05-29T06:27:17.000Z</time></trkpt><trkpt lon="5.802569" lat="51.087833"><ele>24</ele><time>2022-05-29T06:27:18.000Z</time></trkpt><trkpt lon="5.802634" lat="51.087769"><ele>24</ele><time>2022-05-29T06:27:19.000Z</time></trkpt><trkpt lon="5.8027" lat="51.087708"><ele>23.8</ele><time>2022-05-29T06:27:20.000Z</time></trkpt><trkpt lon="5.802767" lat="51.087647"><ele>23.8</ele><time>2022-05-29T06:27:21.000Z</time></trkpt><trkpt lon="5.802833" lat="51.087584"><ele>23.8</ele><time>2022-05-29T06:27:22.000Z</time></trkpt><trkpt lon="5.802897" lat="51.087521"><ele>23.8</ele><time>2022-05-29T06:27:23.000Z</time></trkpt><trkpt lon="5.802963" lat="51.087456"><ele>23.8</ele><time>2022-05-29T06:27:24.000Z</time></trkpt><trkpt lon="5.803028" lat="51.087394"><ele>23.8</ele><time>2022-05-29T06:27:25.000Z</time></trkpt><trkpt lon="5.803094" lat="51.087329"><ele>23.8</ele><time>2022-05-29T06:27:26.000Z</time></trkpt><trkpt lon="5.803159" lat="51.087266"><ele>23.8</ele><time>2022-05-29T06:27:27.000Z</time></trkpt><trkpt lon="5.803228" lat="51.087199"><ele>23.6</ele><time>2022-05-29T06:27:28.000Z</time></trkpt><trkpt lon="5.803294" lat="51.087135"><ele>23.6</ele><time>2022-05-29T06:27:29.000Z</time></trkpt><trkpt lon="5.803363" lat="51.08707"><ele>23.4</ele><time>2022-05-29T06:27:30.000Z</time></trkpt><trkpt lon="5.803433" lat="51.087005"><ele>23.4</ele><time>2022-05-29T06:27:31.000Z</time></trkpt><trkpt lon="5.803503" lat="51.086936"><ele>23.4</ele><time>2022-05-29T06:27:32.000Z</time></trkpt><trkpt lon="5.803572" lat="51.086872"><ele>23.4</ele><time>2022-05-29T06:27:33.000Z</time></trkpt><trkpt lon="5.803643" lat="51.086806"><ele>23.4</ele><time>2022-05-29T06:27:34.000Z</time></trkpt><trkpt lon="5.803712" lat="51.086742"><ele>23.4</ele><time>2022-05-29T06:27:35.000Z</time></trkpt><trkpt lon="5.803783" lat="51.086677"><ele>23.2</ele><time>2022-05-29T06:27:36.000Z</time></trkpt><trkpt lon="5.803851" lat="51.086612"><ele>23.2</ele><time>2022-05-29T06:27:37.000Z</time></trkpt><trkpt lon="5.803917" lat="51.086544"><ele>23.2</ele><time>2022-05-29T06:27:38.000Z</time></trkpt><trkpt lon="5.803985" lat="51.08648"><ele>23.2</ele><time>2022-05-29T06:27:39.000Z</time></trkpt><trkpt lon="5.804053" lat="51.086415"><ele>23.2</ele><time>2022-05-29T06:27:40.000Z</time></trkpt><trkpt lon="5.804122" lat="51.08635"><ele>23.2</ele><time>2022-05-29T06:27:41.000Z</time></trkpt><trkpt lon="5.80419" lat="51.086285"><ele>23.2</ele><time>2022-05-29T06:27:42.000Z</time></trkpt><trkpt lon="5.804259" lat="51.08622"><ele>23.2</ele><time>2022-05-29T06:27:43.000Z</time></trkpt><trkpt lon="5.804326" lat="51.086156"><ele>23.2</ele><time>2022-05-29T06:27:44.000Z</time></trkpt><trkpt lon="5.804395" lat="51.08609"><ele>23</ele><time>2022-05-29T06:27:45.000Z</time></trkpt><trkpt lon="5.804461" lat="51.086022"><ele>23</ele><time>2022-05-29T06:27:46.000Z</time></trkpt><trkpt lon="5.804529" lat="51.085957"><ele>23</ele><time>2022-05-29T06:27:47.000Z</time></trkpt><trkpt lon="5.804598" lat="51.085893"><ele>23</ele><time>2022-05-29T06:27:48.000Z</time></trkpt><trkpt lon="5.804665" lat="51.085828"><ele>23</ele><time>2022-05-29T06:27:49.000Z</time></trkpt><trkpt lon="5.804732" lat="51.085767"><ele>22.8</ele><time>2022-05-29T06:27:50.000Z</time></trkpt><trkpt lon="5.804798" lat="51.085703"><ele>22.8</ele><time>2022-05-29T06:27:51.000Z</time></trkpt><trkpt lon="5.804866" lat="51.08564"><ele>22.8</ele><time>2022-05-29T06:27:52.000Z</time></trkpt><trkpt lon="5.804934" lat="51.085576"><ele>22.8</ele><time>2022-05-29T06:27:53.000Z</time></trkpt><trkpt lon="5.805004" lat="51.085516"><ele>22.8</ele><time>2022-05-29T06:27:54.000Z</time></trkpt><trkpt lon="5.805074" lat="51.085457"><ele>22.8</ele><time>2022-05-29T06:27:55.000Z</time></trkpt><trkpt lon="5.805144" lat="51.085401"><ele>22.8</ele><time>2022-05-29T06:27:56.000Z</time></trkpt><trkpt lon="5.805218" lat="51.085341"><ele>22.8</ele><time>2022-05-29T06:27:57.000Z</time></trkpt><trkpt lon="5.805294" lat="51.085288"><ele>22.6</ele><time>2022-05-29T06:27:58.000Z</time></trkpt><trkpt lon="5.80538" lat="51.085234"><ele>22.6</ele><time>2022-05-29T06:27:59.000Z</time></trkpt><trkpt lon="5.805465" lat="51.08518"><ele>22.6</ele><time>2022-05-29T06:28:00.000Z</time></trkpt><trkpt lon="5.805553" lat="51.085131"><ele>22.8</ele><time>2022-05-29T06:28:01.000Z</time></trkpt><trkpt lon="5.805645" lat="51.085081"><ele>22.8</ele><time>2022-05-29T06:28:02.000Z</time></trkpt><trkpt lon="5.805736" lat="51.085032"><ele>22.8</ele><time>2022-05-29T06:28:03.000Z</time></trkpt><trkpt lon="5.80583" lat="51.084983"><ele>22.8</ele><time>2022-05-29T06:28:04.000Z</time></trkpt><trkpt lon="5.805921" lat="51.084936"><ele>22.8</ele><time>2022-05-29T06:28:05.000Z</time></trkpt><trkpt lon="5.806013" lat="51.084887"><ele>22.8</ele><time>2022-05-29T06:28:06.000Z</time></trkpt><trkpt lon="5.806102" lat="51.084841"><ele>22.8</ele><time>2022-05-29T06:28:07.000Z</time></trkpt><trkpt lon="5.806188" lat="51.084797"><ele>22.8</ele><time>2022-05-29T06:28:08.000Z</time></trkpt><trkpt lon="5.806274" lat="51.084754"><ele>22.8</ele><time>2022-05-29T06:28:09.000Z</time></trkpt><trkpt lon="5.806358" lat="51.084708"><ele>22.8</ele><time>2022-05-29T06:28:10.000Z</time></trkpt><trkpt lon="5.806443" lat="51.084663"><ele>22.8</ele><time>2022-05-29T06:28:11.000Z</time></trkpt><trkpt lon="5.806528" lat="51.08462"><ele>22.8</ele><time>2022-05-29T06:28:12.000Z</time></trkpt><trkpt lon="5.806613" lat="51.084575"><ele>22.8</ele><time>2022-05-29T06:28:13.000Z</time></trkpt><trkpt lon="5.806696" lat="51.084533"><ele>22.6</ele><time>2022-05-29T06:28:14.000Z</time></trkpt><trkpt lon="5.806775" lat="51.08449"><ele>22.6</ele><time>2022-05-29T06:28:15.000Z</time></trkpt><trkpt lon="5.806852" lat="51.084445"><ele>22.6</ele><time>2022-05-29T06:28:16.000Z</time></trkpt><trkpt lon="5.806928" lat="51.084403"><ele>22.6</ele><time>2022-05-29T06:28:17.000Z</time></trkpt><trkpt lon="5.807001" lat="51.084361"><ele>22.6</ele><time>2022-05-29T06:28:18.000Z</time></trkpt><trkpt lon="5.807072" lat="51.084319"><ele>22.6</ele><time>2022-05-29T06:28:19.000Z</time></trkpt><trkpt lon="5.80714" lat="51.084279"><ele>22.6</ele><time>2022-05-29T06:28:20.000Z</time></trkpt><trkpt lon="5.807204" lat="51.08424"><ele>22.6</ele><time>2022-05-29T06:28:21.000Z</time></trkpt><trkpt lon="5.807264" lat="51.084202"><ele>22.6</ele><time>2022-05-29T06:28:22.000Z</time></trkpt><trkpt lon="5.807317" lat="51.084164"><ele>22.6</ele><time>2022-05-29T06:28:23.000Z</time></trkpt><trkpt lon="5.807359" lat="51.084126"><ele>22.6</ele><time>2022-05-29T06:28:24.000Z</time></trkpt><trkpt lon="5.807382" lat="51.084088"><ele>22.6</ele><time>2022-05-29T06:28:25.000Z</time></trkpt><trkpt lon="5.807375" lat="51.08405"><ele>22.6</ele><time>2022-05-29T06:28:26.000Z</time></trkpt><trkpt lon="5.807337" lat="51.084016"><ele>22.4</ele><time>2022-05-29T06:28:27.000Z</time></trkpt><trkpt lon="5.807284" lat="51.083983"><ele>22.4</ele><time>2022-05-29T06:28:28.000Z</time></trkpt><trkpt lon="5.807215" lat="51.083956"><ele>22.2</ele><time>2022-05-29T06:28:29.000Z</time></trkpt><trkpt lon="5.807132" lat="51.083924"><ele>22</ele><time>2022-05-29T06:28:30.000Z</time></trkpt><trkpt lon="5.807047" lat="51.083885"><ele>22</ele><time>2022-05-29T06:28:31.000Z</time></trkpt><trkpt lon="5.806963" lat="51.083842"><ele>21.8</ele><time>2022-05-29T06:28:32.000Z</time></trkpt><trkpt lon="5.806876" lat="51.083796"><ele>21.8</ele><time>2022-05-29T06:28:33.000Z</time></trkpt><trkpt lon="5.80679" lat="51.083751"><ele>21.8</ele><time>2022-05-29T06:28:34.000Z</time></trkpt><trkpt lon="5.8067" lat="51.083705"><ele>22</ele><time>2022-05-29T06:28:35.000Z</time></trkpt><trkpt lon="5.80661" lat="51.083663"><ele>22</ele><time>2022-05-29T06:28:36.000Z</time></trkpt><trkpt lon="5.806519" lat="51.083622"><ele>22</ele><time>2022-05-29T06:28:37.000Z</time></trkpt><trkpt lon="5.806429" lat="51.083585"><ele>22</ele><time>2022-05-29T06:28:38.000Z</time></trkpt><trkpt lon="5.806336" lat="51.083551"><ele>22</ele><time>2022-05-29T06:28:39.000Z</time></trkpt><trkpt lon="5.80624" lat="51.083522"><ele>22</ele><time>2022-05-29T06:28:40.000Z</time></trkpt><trkpt lon="5.806144" lat="51.083495"><ele>22</ele><time>2022-05-29T06:28:41.000Z</time></trkpt><trkpt lon="5.806045" lat="51.083467"><ele>22</ele><time>2022-05-29T06:28:42.000Z</time></trkpt><trkpt lon="5.805949" lat="51.083437"><ele>22</ele><time>2022-05-29T06:28:43.000Z</time></trkpt><trkpt lon="5.805852" lat="51.083407"><ele>22</ele><time>2022-05-29T06:28:44.000Z</time></trkpt><trkpt lon="5.805754" lat="51.083379"><ele>21.8</ele><time>2022-05-29T06:28:45.000Z</time></trkpt><trkpt lon="5.805656" lat="51.08335"><ele>21.8</ele><time>2022-05-29T06:28:46.000Z</time></trkpt><trkpt lon="5.80556" lat="51.083324"><ele>21.8</ele><time>2022-05-29T06:28:47.000Z</time></trkpt><trkpt lon="5.805468" lat="51.083302"><ele>21.8</ele><time>2022-05-29T06:28:48.000Z</time></trkpt><trkpt lon="5.805376" lat="51.083283"><ele>21.8</ele><time>2022-05-29T06:28:49.000Z</time></trkpt><trkpt lon="5.805289" lat="51.083264"><ele>21.8</ele><time>2022-05-29T06:28:50.000Z</time></trkpt><trkpt lon="5.805203" lat="51.083246"><ele>21.6</ele><time>2022-05-29T06:28:51.000Z</time></trkpt><trkpt lon="5.805112" lat="51.083234"><ele>21.6</ele><time>2022-05-29T06:28:52.000Z</time></trkpt><trkpt lon="5.805011" lat="51.083224"><ele>21.4</ele><time>2022-05-29T06:28:53.000Z</time></trkpt><trkpt lon="5.804901" lat="51.083221"><ele>21.4</ele><time>2022-05-29T06:28:54.000Z</time></trkpt><trkpt lon="5.804798" lat="51.083222"><ele>21.4</ele><time>2022-05-29T06:28:55.000Z</time></trkpt><trkpt lon="5.804688" lat="51.083225"><ele>21.6</ele><time>2022-05-29T06:28:56.000Z</time></trkpt><trkpt lon="5.804573" lat="51.083226"><ele>21.8</ele><time>2022-05-29T06:28:57.000Z</time></trkpt><trkpt lon="5.804456" lat="51.083229"><ele>21.8</ele><time>2022-05-29T06:28:58.000Z</time></trkpt><trkpt lon="5.804342" lat="51.083231"><ele>22</ele><time>2022-05-29T06:28:59.000Z</time></trkpt><trkpt lon="5.804232" lat="51.083238"><ele>22</ele><time>2022-05-29T06:29:00.000Z</time></trkpt><trkpt lon="5.804127" lat="51.083245"><ele>22.2</ele><time>2022-05-29T06:29:01.000Z</time></trkpt><trkpt lon="5.80402" lat="51.08325"><ele>22.2</ele><time>2022-05-29T06:29:02.000Z</time></trkpt><trkpt lon="5.803924" lat="51.083257"><ele>22.2</ele><time>2022-05-29T06:29:03.000Z</time></trkpt><trkpt lon="5.803842" lat="51.083262"><ele>22.4</ele><time>2022-05-29T06:29:04.000Z</time></trkpt><trkpt lon="5.803774" lat="51.083253"><ele>22.4</ele><time>2022-05-29T06:29:05.000Z</time></trkpt><trkpt lon="5.803721" lat="51.083236"><ele>22.4</ele><time>2022-05-29T06:29:06.000Z</time></trkpt><trkpt lon="5.803685" lat="51.083211"><ele>22.4</ele><time>2022-05-29T06:29:07.000Z</time></trkpt><trkpt lon="5.803661" lat="51.083176"><ele>22.6</ele><time>2022-05-29T06:29:08.000Z</time></trkpt><trkpt lon="5.803652" lat="51.083137"><ele>22.8</ele><time>2022-05-29T06:29:09.000Z</time></trkpt><trkpt lon="5.803654" lat="51.083095"><ele>23.2</ele><time>2022-05-29T06:29:10.000Z</time></trkpt><trkpt lon="5.803667" lat="51.083052"><ele>23.4</ele><time>2022-05-29T06:29:11.000Z</time></trkpt><trkpt lon="5.803687" lat="51.083001"><ele>23.6</ele><time>2022-05-29T06:29:12.000Z</time></trkpt><trkpt lon="5.803714" lat="51.082944"><ele>23.8</ele><time>2022-05-29T06:29:13.000Z</time></trkpt><trkpt lon="5.803748" lat="51.082885"><ele>24</ele><time>2022-05-29T06:29:14.000Z</time></trkpt><trkpt lon="5.80379" lat="51.082824"><ele>24</ele><time>2022-05-29T06:29:15.000Z</time></trkpt><trkpt lon="5.803833" lat="51.082758"><ele>24</ele><time>2022-05-29T06:29:16.000Z</time></trkpt><trkpt lon="5.803879" lat="51.08269"><ele>24.2</ele><time>2022-05-29T06:29:17.000Z</time></trkpt><trkpt lon="5.803928" lat="51.082624"><ele>24</ele><time>2022-05-29T06:29:18.000Z</time></trkpt><trkpt lon="5.80398" lat="51.082557"><ele>24</ele><time>2022-05-29T06:29:19.000Z</time></trkpt><trkpt lon="5.804033" lat="51.082491"><ele>24.2</ele><time>2022-05-29T06:29:20.000Z</time></trkpt><trkpt lon="5.804082" lat="51.082427"><ele>24.2</ele><time>2022-05-29T06:29:21.000Z</time></trkpt><trkpt lon="5.804126" lat="51.082361"><ele>24.2</ele><time>2022-05-29T06:29:22.000Z</time></trkpt><trkpt lon="5.804167" lat="51.082294"><ele>24.2</ele><time>2022-05-29T06:29:23.000Z</time></trkpt><trkpt lon="5.8042" lat="51.082233"><ele>24.4</ele><time>2022-05-29T06:29:24.000Z</time></trkpt><trkpt lon="5.804231" lat="51.082168"><ele>24.6</ele><time>2022-05-29T06:29:25.000Z</time></trkpt><trkpt lon="5.804262" lat="51.082108"><ele>24.6</ele><time>2022-05-29T06:29:26.000Z</time></trkpt><trkpt lon="5.804297" lat="51.082046"><ele>24.8</ele><time>2022-05-29T06:29:27.000Z</time></trkpt><trkpt lon="5.804336" lat="51.081987"><ele>25</ele><time>2022-05-29T06:29:28.000Z</time></trkpt><trkpt lon="5.804375" lat="51.081932"><ele>25.2</ele><time>2022-05-29T06:29:29.000Z</time></trkpt><trkpt lon="5.804414" lat="51.081872"><ele>25.2</ele><time>2022-05-29T06:29:30.000Z</time></trkpt><trkpt lon="5.804454" lat="51.081815"><ele>25.4</ele><time>2022-05-29T06:29:31.000Z</time></trkpt><trkpt lon="5.804495" lat="51.081756"><ele>25.4</ele><time>2022-05-29T06:29:32.000Z</time></trkpt><trkpt lon="5.804537" lat="51.081692"><ele>25.4</ele><time>2022-05-29T06:29:33.000Z</time></trkpt><trkpt lon="5.80458" lat="51.081634"><ele>25.2</ele><time>2022-05-29T06:29:34.000Z</time></trkpt><trkpt lon="5.804622" lat="51.081574"><ele>25.2</ele><time>2022-05-29T06:29:35.000Z</time></trkpt><trkpt lon="5.80466" lat="51.081513"><ele>25.2</ele><time>2022-05-29T06:29:36.000Z</time></trkpt><trkpt lon="5.804697" lat="51.081452"><ele>25.2</ele><time>2022-05-29T06:29:37.000Z</time></trkpt><trkpt lon="5.804733" lat="51.081394"><ele>25.2</ele><time>2022-05-29T06:29:38.000Z</time></trkpt><trkpt lon="5.80477" lat="51.081333"><ele>25.2</ele><time>2022-05-29T06:29:39.000Z</time></trkpt><trkpt lon="5.804805" lat="51.081273"><ele>25</ele><time>2022-05-29T06:29:40.000Z</time></trkpt><trkpt lon="5.80484" lat="51.081214"><ele>25</ele><time>2022-05-29T06:29:41.000Z</time></trkpt><trkpt lon="5.804875" lat="51.081151"><ele>25</ele><time>2022-05-29T06:29:42.000Z</time></trkpt><trkpt lon="5.80491" lat="51.081093"><ele>25</ele><time>2022-05-29T06:29:43.000Z</time></trkpt><trkpt lon="5.804945" lat="51.081032"><ele>25.2</ele><time>2022-05-29T06:29:44.000Z</time></trkpt><trkpt lon="5.804977" lat="51.080975"><ele>25.2</ele><time>2022-05-29T06:29:45.000Z</time></trkpt><trkpt lon="5.805007" lat="51.080917"><ele>25.2</ele><time>2022-05-29T06:29:46.000Z</time></trkpt><trkpt lon="5.805038" lat="51.080856"><ele>25.2</ele><time>2022-05-29T06:29:47.000Z</time></trkpt><trkpt lon="5.80507" lat="51.080794"><ele>25.2</ele><time>2022-05-29T06:29:48.000Z</time></trkpt><trkpt lon="5.805104" lat="51.08073"><ele>25.2</ele><time>2022-05-29T06:29:49.000Z</time></trkpt><trkpt lon="5.80514" lat="51.08067"><ele>25.2</ele><time>2022-05-29T06:29:50.000Z</time></trkpt><trkpt lon="5.805178" lat="51.080607"><ele>25</ele><time>2022-05-29T06:29:51.000Z</time></trkpt><trkpt lon="5.805218" lat="51.080542"><ele>25</ele><time>2022-05-29T06:29:52.000Z</time></trkpt><trkpt lon="5.80526" lat="51.080477"><ele>25</ele><time>2022-05-29T06:29:53.000Z</time></trkpt><trkpt lon="5.805303" lat="51.08041"><ele>25</ele><time>2022-05-29T06:29:54.000Z</time></trkpt><trkpt lon="5.805345" lat="51.080343"><ele>25</ele><time>2022-05-29T06:29:55.000Z</time></trkpt><trkpt lon="5.805385" lat="51.080272"><ele>25</ele><time>2022-05-29T06:29:56.000Z</time></trkpt><trkpt lon="5.805422" lat="51.080204"><ele>25</ele><time>2022-05-29T06:29:57.000Z</time></trkpt><trkpt lon="5.805462" lat="51.08013"><ele>25</ele><time>2022-05-29T06:29:58.000Z</time></trkpt><trkpt lon="5.805501" lat="51.080061"><ele>24.8</ele><time>2022-05-29T06:29:59.000Z</time></trkpt><trkpt lon="5.805539" lat="51.079993"><ele>24.8</ele><time>2022-05-29T06:30:00.000Z</time></trkpt><trkpt lon="5.805579" lat="51.079924"><ele>24.8</ele><time>2022-05-29T06:30:01.000Z</time></trkpt><trkpt lon="5.805615" lat="51.079856"><ele>25</ele><time>2022-05-29T06:30:02.000Z</time></trkpt><trkpt lon="5.80565" lat="51.079789"><ele>25</ele><time>2022-05-29T06:30:03.000Z</time></trkpt><trkpt lon="5.80568" lat="51.079717"><ele>25</ele><time>2022-05-29T06:30:04.000Z</time></trkpt><trkpt lon="5.805707" lat="51.07965"><ele>25</ele><time>2022-05-29T06:30:05.000Z</time></trkpt><trkpt lon="5.805734" lat="51.079584"><ele>24.8</ele><time>2022-05-29T06:30:06.000Z</time></trkpt><trkpt lon="5.805761" lat="51.079516"><ele>24.8</ele><time>2022-05-29T06:30:07.000Z</time></trkpt><trkpt lon="5.805791" lat="51.079447"><ele>24.8</ele><time>2022-05-29T06:30:08.000Z</time></trkpt><trkpt lon="5.805821" lat="51.079378"><ele>24.6</ele><time>2022-05-29T06:30:09.000Z</time></trkpt><trkpt lon="5.805853" lat="51.079306"><ele>24.8</ele><time>2022-05-29T06:30:10.000Z</time></trkpt><trkpt lon="5.805887" lat="51.079238"><ele>24.8</ele><time>2022-05-29T06:30:11.000Z</time></trkpt><trkpt lon="5.805923" lat="51.079173"><ele>24.6</ele><time>2022-05-29T06:30:12.000Z</time></trkpt><trkpt lon="5.805961" lat="51.079103"><ele>24.6</ele><time>2022-05-29T06:30:13.000Z</time></trkpt><trkpt lon="5.805997" lat="51.079036"><ele>24.6</ele><time>2022-05-29T06:30:14.000Z</time></trkpt><trkpt lon="5.806033" lat="51.078971"><ele>24.6</ele><time>2022-05-29T06:30:15.000Z</time></trkpt><trkpt lon="5.80607" lat="51.078905"><ele>24.6</ele><time>2022-05-29T06:30:16.000Z</time></trkpt><trkpt lon="5.806106" lat="51.078836"><ele>24.6</ele><time>2022-05-29T06:30:17.000Z</time></trkpt><trkpt lon="5.806137" lat="51.078768"><ele>24.4</ele><time>2022-05-29T06:30:18.000Z</time></trkpt><trkpt lon="5.806164" lat="51.078699"><ele>24.4</ele><time>2022-05-29T06:30:19.000Z</time></trkpt><trkpt lon="5.806187" lat="51.078627"><ele>24.4</ele><time>2022-05-29T06:30:20.000Z</time></trkpt><trkpt lon="5.806204" lat="51.078558"><ele>24.4</ele><time>2022-05-29T06:30:21.000Z</time></trkpt><trkpt lon="5.806217" lat="51.078489"><ele>24.4</ele><time>2022-05-29T06:30:22.000Z</time></trkpt><trkpt lon="5.806225" lat="51.078416"><ele>24.4</ele><time>2022-05-29T06:30:23.000Z</time></trkpt><trkpt lon="5.806228" lat="51.078344"><ele>24.6</ele><time>2022-05-29T06:30:24.000Z</time></trkpt><trkpt lon="5.806228" lat="51.078275"><ele>24.6</ele><time>2022-05-29T06:30:25.000Z</time></trkpt><trkpt lon="5.806225" lat="51.078202"><ele>24.4</ele><time>2022-05-29T06:30:26.000Z</time></trkpt><trkpt lon="5.806214" lat="51.07813"><ele>24.4</ele><time>2022-05-29T06:30:27.000Z</time></trkpt><trkpt lon="5.806193" lat="51.078058"><ele>24.4</ele><time>2022-05-29T06:30:28.000Z</time></trkpt><trkpt lon="5.806164" lat="51.077991"><ele>24.6</ele><time>2022-05-29T06:30:29.000Z</time></trkpt><trkpt lon="5.80613" lat="51.077922"><ele>24.4</ele><time>2022-05-29T06:30:30.000Z</time></trkpt><trkpt lon="5.806096" lat="51.077856"><ele>24.4</ele><time>2022-05-29T06:30:31.000Z</time></trkpt><trkpt lon="5.806069" lat="51.077786"><ele>24.4</ele><time>2022-05-29T06:30:32.000Z</time></trkpt><trkpt lon="5.806055" lat="51.077714"><ele>24.6</ele><time>2022-05-29T06:30:33.000Z</time></trkpt><trkpt lon="5.806061" lat="51.077641"><ele>24.6</ele><time>2022-05-29T06:30:34.000Z</time></trkpt><trkpt lon="5.806083" lat="51.07757"><ele>24.8</ele><time>2022-05-29T06:30:35.000Z</time></trkpt><trkpt lon="5.806119" lat="51.077501"><ele>24.8</ele><time>2022-05-29T06:30:36.000Z</time></trkpt><trkpt lon="5.806165" lat="51.077433"><ele>25</ele><time>2022-05-29T06:30:37.000Z</time></trkpt><trkpt lon="5.806218" lat="51.077365"><ele>25</ele><time>2022-05-29T06:30:38.000Z</time></trkpt><trkpt lon="5.806277" lat="51.077304"><ele>25</ele><time>2022-05-29T06:30:39.000Z</time></trkpt><trkpt lon="5.806341" lat="51.07724"><ele>25</ele><time>2022-05-29T06:30:40.000Z</time></trkpt><trkpt lon="5.806408" lat="51.077178"><ele>25</ele><time>2022-05-29T06:30:41.000Z</time></trkpt><trkpt lon="5.806474" lat="51.077118"><ele>25</ele><time>2022-05-29T06:30:42.000Z</time></trkpt><trkpt lon="5.806541" lat="51.077058"><ele>25</ele><time>2022-05-29T06:30:43.000Z</time></trkpt><trkpt lon="5.806606" lat="51.077"><ele>25</ele><time>2022-05-29T06:30:44.000Z</time></trkpt><trkpt lon="5.806671" lat="51.076939"><ele>25</ele><time>2022-05-29T06:30:45.000Z</time></trkpt><trkpt lon="5.806732" lat="51.076879"><ele>24.8</ele><time>2022-05-29T06:30:46.000Z</time></trkpt><trkpt lon="5.806795" lat="51.076815"><ele>24.8</ele><time>2022-05-29T06:30:47.000Z</time></trkpt><trkpt lon="5.806858" lat="51.07675"><ele>24.8</ele><time>2022-05-29T06:30:48.000Z</time></trkpt><trkpt lon="5.806922" lat="51.076686"><ele>24.8</ele><time>2022-05-29T06:30:49.000Z</time></trkpt><trkpt lon="5.806988" lat="51.076621"><ele>24.8</ele><time>2022-05-29T06:30:50.000Z</time></trkpt><trkpt lon="5.807054" lat="51.076558"><ele>24.8</ele><time>2022-05-29T06:30:51.000Z</time></trkpt><trkpt lon="5.807121" lat="51.076495"><ele>24.8</ele><time>2022-05-29T06:30:52.000Z</time></trkpt><trkpt lon="5.80719" lat="51.076431"><ele>25</ele><time>2022-05-29T06:30:53.000Z</time></trkpt><trkpt lon="5.807258" lat="51.07637"><ele>25</ele><time>2022-05-29T06:30:54.000Z</time></trkpt><trkpt lon="5.807323" lat="51.076313"><ele>25</ele><time>2022-05-29T06:30:55.000Z</time></trkpt><trkpt lon="5.807388" lat="51.076252"><ele>25</ele><time>2022-05-29T06:30:56.000Z</time></trkpt><trkpt lon="5.807447" lat="51.076191"><ele>24.8</ele><time>2022-05-29T06:30:57.000Z</time></trkpt><trkpt lon="5.807501" lat="51.076129"><ele>24.8</ele><time>2022-05-29T06:30:58.000Z</time></trkpt><trkpt lon="5.807549" lat="51.076063"><ele>24.8</ele><time>2022-05-29T06:30:59.000Z</time></trkpt><trkpt lon="5.807591" lat="51.075994"><ele>24.8</ele><time>2022-05-29T06:31:00.000Z</time></trkpt><trkpt lon="5.807628" lat="51.075927"><ele>24.8</ele><time>2022-05-29T06:31:01.000Z</time></trkpt><trkpt lon="5.80766" lat="51.07586"><ele>24.6</ele><time>2022-05-29T06:31:02.000Z</time></trkpt><trkpt lon="5.807689" lat="51.075789"><ele>24.6</ele><time>2022-05-29T06:31:03.000Z</time></trkpt><trkpt lon="5.807714" lat="51.07572"><ele>24.6</ele><time>2022-05-29T06:31:04.000Z</time></trkpt><trkpt lon="5.807735" lat="51.075648"><ele>24.6</ele><time>2022-05-29T06:31:05.000Z</time></trkpt><trkpt lon="5.807751" lat="51.075575"><ele>24.6</ele><time>2022-05-29T06:31:06.000Z</time></trkpt><trkpt lon="5.807768" lat="51.075501"><ele>24.4</ele><time>2022-05-29T06:31:07.000Z</time></trkpt><trkpt lon="5.807781" lat="51.07543"><ele>24.4</ele><time>2022-05-29T06:31:08.000Z</time></trkpt><trkpt lon="5.807795" lat="51.075362"><ele>24.4</ele><time>2022-05-29T06:31:09.000Z</time></trkpt><trkpt lon="5.807811" lat="51.075292"><ele>24.4</ele><time>2022-05-29T06:31:10.000Z</time></trkpt><trkpt lon="5.807824" lat="51.07522"><ele>24.4</ele><time>2022-05-29T06:31:11.000Z</time></trkpt><trkpt lon="5.807836" lat="51.075151"><ele>24.4</ele><time>2022-05-29T06:31:12.000Z</time></trkpt><trkpt lon="5.807847" lat="51.075078"><ele>24.4</ele><time>2022-05-29T06:31:13.000Z</time></trkpt><trkpt lon="5.807857" lat="51.075007"><ele>24.4</ele><time>2022-05-29T06:31:14.000Z</time></trkpt><trkpt lon="5.807867" lat="51.074937"><ele>24.4</ele><time>2022-05-29T06:31:15.000Z</time></trkpt><trkpt lon="5.807879" lat="51.074865"><ele>24.4</ele><time>2022-05-29T06:31:16.000Z</time></trkpt><trkpt lon="5.807888" lat="51.074797"><ele>24.4</ele><time>2022-05-29T06:31:17.000Z</time></trkpt><trkpt lon="5.807894" lat="51.074725"><ele>24.4</ele><time>2022-05-29T06:31:18.000Z</time></trkpt><trkpt lon="5.807895" lat="51.074655"><ele>24.4</ele><time>2022-05-29T06:31:19.000Z</time></trkpt><trkpt lon="5.807891" lat="51.074583"><ele>24.4</ele><time>2022-05-29T06:31:20.000Z</time></trkpt><trkpt lon="5.807883" lat="51.074514"><ele>24.4</ele><time>2022-05-29T06:31:21.000Z</time></trkpt><trkpt lon="5.807874" lat="51.074441"><ele>24.4</ele><time>2022-05-29T06:31:22.000Z</time></trkpt><trkpt lon="5.807862" lat="51.07437"><ele>24.4</ele><time>2022-05-29T06:31:23.000Z</time></trkpt><trkpt lon="5.807846" lat="51.0743"><ele>24.4</ele><time>2022-05-29T06:31:24.000Z</time></trkpt><trkpt lon="5.807827" lat="51.074228"><ele>24.4</ele><time>2022-05-29T06:31:25.000Z</time></trkpt><trkpt lon="5.807803" lat="51.07416"><ele>24.4</ele><time>2022-05-29T06:31:26.000Z</time></trkpt><trkpt lon="5.807776" lat="51.074091"><ele>24.4</ele><time>2022-05-29T06:31:27.000Z</time></trkpt><trkpt lon="5.807749" lat="51.074024"><ele>24.4</ele><time>2022-05-29T06:31:28.000Z</time></trkpt><trkpt lon="5.807722" lat="51.073954"><ele>24.4</ele><time>2022-05-29T06:31:29.000Z</time></trkpt><trkpt lon="5.807698" lat="51.073885"><ele>24.4</ele><time>2022-05-29T06:31:30.000Z</time></trkpt><trkpt lon="5.807678" lat="51.073816"><ele>24.4</ele><time>2022-05-29T06:31:31.000Z</time></trkpt><trkpt lon="5.807662" lat="51.073745"><ele>24.4</ele><time>2022-05-29T06:31:32.000Z</time></trkpt><trkpt lon="5.807648" lat="51.073675"><ele>24.4</ele><time>2022-05-29T06:31:33.000Z</time></trkpt><trkpt lon="5.807634" lat="51.073603"><ele>24.4</ele><time>2022-05-29T06:31:34.000Z</time></trkpt><trkpt lon="5.807621" lat="51.073531"><ele>24.4</ele><time>2022-05-29T06:31:35.000Z</time></trkpt><trkpt lon="5.807609" lat="51.073462"><ele>24.6</ele><time>2022-05-29T06:31:36.000Z</time></trkpt><trkpt lon="5.807598" lat="51.073392"><ele>24.6</ele><time>2022-05-29T06:31:37.000Z</time></trkpt><trkpt lon="5.807589" lat="51.073321"><ele>24.6</ele><time>2022-05-29T06:31:38.000Z</time></trkpt><trkpt lon="5.807581" lat="51.073252"><ele>24.6</ele><time>2022-05-29T06:31:39.000Z</time></trkpt><trkpt lon="5.807576" lat="51.073179"><ele>24.6</ele><time>2022-05-29T06:31:40.000Z</time></trkpt><trkpt lon="5.807577" lat="51.073106"><ele>24.6</ele><time>2022-05-29T06:31:41.000Z</time></trkpt><trkpt lon="5.807583" lat="51.073034"><ele>24.6</ele><time>2022-05-29T06:31:42.000Z</time></trkpt><trkpt lon="5.807591" lat="51.072965"><ele>24.6</ele><time>2022-05-29T06:31:43.000Z</time></trkpt><trkpt lon="5.807591" lat="51.072894"><ele>24.6</ele><time>2022-05-29T06:31:44.000Z</time></trkpt><trkpt lon="5.807577" lat="51.072825"><ele>24.6</ele><time>2022-05-29T06:31:45.000Z</time></trkpt><trkpt lon="5.80755" lat="51.072761"><ele>24.6</ele><time>2022-05-29T06:31:46.000Z</time></trkpt><trkpt lon="5.807517" lat="51.072691"><ele>24.6</ele><time>2022-05-29T06:31:47.000Z</time></trkpt><trkpt lon="5.807486" lat="51.072622"><ele>24.6</ele><time>2022-05-29T06:31:48.000Z</time></trkpt><trkpt lon="5.807457" lat="51.072554"><ele>24.6</ele><time>2022-05-29T06:31:49.000Z</time></trkpt><trkpt lon="5.807427" lat="51.072486"><ele>24.6</ele><time>2022-05-29T06:31:50.000Z</time></trkpt><trkpt lon="5.807398" lat="51.072421"><ele>24.6</ele><time>2022-05-29T06:31:51.000Z</time></trkpt><trkpt lon="5.807368" lat="51.072353"><ele>24.6</ele><time>2022-05-29T06:31:52.000Z</time></trkpt><trkpt lon="5.807337" lat="51.072286"><ele>24.4</ele><time>2022-05-29T06:31:53.000Z</time></trkpt><trkpt lon="5.807305" lat="51.072214"><ele>24.4</ele><time>2022-05-29T06:31:54.000Z</time></trkpt><trkpt lon="5.807275" lat="51.072146"><ele>24.4</ele><time>2022-05-29T06:31:55.000Z</time></trkpt><trkpt lon="5.807246" lat="51.072076"><ele>24.4</ele><time>2022-05-29T06:31:56.000Z</time></trkpt><trkpt lon="5.807222" lat="51.072004"><ele>24.4</ele><time>2022-05-29T06:31:57.000Z</time></trkpt><trkpt lon="5.807204" lat="51.071932"><ele>24.4</ele><time>2022-05-29T06:31:58.000Z</time></trkpt><trkpt lon="5.807191" lat="51.071862"><ele>24.4</ele><time>2022-05-29T06:31:59.000Z</time></trkpt><trkpt lon="5.807183" lat="51.071786"><ele>24.4</ele><time>2022-05-29T06:32:00.000Z</time></trkpt><trkpt lon="5.807183" lat="51.071714"><ele>24.4</ele><time>2022-05-29T06:32:01.000Z</time></trkpt><trkpt lon="5.807188" lat="51.071643"><ele>24.4</ele><time>2022-05-29T06:32:02.000Z</time></trkpt><trkpt lon="5.807194" lat="51.071572"><ele>24.4</ele><time>2022-05-29T06:32:03.000Z</time></trkpt><trkpt lon="5.807201" lat="51.071498"><ele>24.4</ele><time>2022-05-29T06:32:04.000Z</time></trkpt><trkpt lon="5.807211" lat="51.071428"><ele>24.4</ele><time>2022-05-29T06:32:05.000Z</time></trkpt><trkpt lon="5.807222" lat="51.071356"><ele>24.4</ele><time>2022-05-29T06:32:06.000Z</time></trkpt><trkpt lon="5.807231" lat="51.071284"><ele>24.4</ele><time>2022-05-29T06:32:07.000Z</time></trkpt><trkpt lon="5.807239" lat="51.071215"><ele>24.4</ele><time>2022-05-29T06:32:08.000Z</time></trkpt><trkpt lon="5.807243" lat="51.071138"><ele>24.4</ele><time>2022-05-29T06:32:09.000Z</time></trkpt><trkpt lon="5.807241" lat="51.071069"><ele>24.4</ele><time>2022-05-29T06:32:10.000Z</time></trkpt><trkpt lon="5.807227" lat="51.070998"><ele>24.4</ele><time>2022-05-29T06:32:11.000Z</time></trkpt><trkpt lon="5.807197" lat="51.07093"><ele>24.4</ele><time>2022-05-29T06:32:12.000Z</time></trkpt><trkpt lon="5.807148" lat="51.070867"><ele>24.4</ele><time>2022-05-29T06:32:13.000Z</time></trkpt><trkpt lon="5.807079" lat="51.070811"><ele>24.4</ele><time>2022-05-29T06:32:14.000Z</time></trkpt><trkpt lon="5.806994" lat="51.070766"><ele>24.4</ele><time>2022-05-29T06:32:15.000Z</time></trkpt><trkpt lon="5.806899" lat="51.070725"><ele>24.6</ele><time>2022-05-29T06:32:16.000Z</time></trkpt><trkpt lon="5.806806" lat="51.070685"><ele>24.4</ele><time>2022-05-29T06:32:17.000Z</time></trkpt><trkpt lon="5.806728" lat="51.070638"><ele>24.4</ele><time>2022-05-29T06:32:18.000Z</time></trkpt><trkpt lon="5.806666" lat="51.070578"><ele>24.4</ele><time>2022-05-29T06:32:19.000Z</time></trkpt><trkpt lon="5.806622" lat="51.070508"><ele>24.4</ele><time>2022-05-29T06:32:20.000Z</time></trkpt><trkpt lon="5.806589" lat="51.070437"><ele>24.4</ele><time>2022-05-29T06:32:21.000Z</time></trkpt><trkpt lon="5.80656" lat="51.070368"><ele>24.4</ele><time>2022-05-29T06:32:22.000Z</time></trkpt><trkpt lon="5.806533" lat="51.070296"><ele>24.4</ele><time>2022-05-29T06:32:23.000Z</time></trkpt><trkpt lon="5.806507" lat="51.070226"><ele>24.2</ele><time>2022-05-29T06:32:24.000Z</time></trkpt><trkpt lon="5.806484" lat="51.070154"><ele>24.4</ele><time>2022-05-29T06:32:25.000Z</time></trkpt><trkpt lon="5.806461" lat="51.070082"><ele>24.4</ele><time>2022-05-29T06:32:26.000Z</time></trkpt><trkpt lon="5.80644" lat="51.070009"><ele>24.4</ele><time>2022-05-29T06:32:27.000Z</time></trkpt><trkpt lon="5.80642" lat="51.069937"><ele>24.4</ele><time>2022-05-29T06:32:28.000Z</time></trkpt><trkpt lon="5.806404" lat="51.069866"><ele>24.4</ele><time>2022-05-29T06:32:29.000Z</time></trkpt><trkpt lon="5.806391" lat="51.069791"><ele>24.4</ele><time>2022-05-29T06:32:30.000Z</time></trkpt><trkpt lon="5.806377" lat="51.069719"><ele>24.4</ele><time>2022-05-29T06:32:31.000Z</time></trkpt><trkpt lon="5.806364" lat="51.069647"><ele>24.2</ele><time>2022-05-29T06:32:32.000Z</time></trkpt><trkpt lon="5.806351" lat="51.069575"><ele>24.2</ele><time>2022-05-29T06:32:33.000Z</time></trkpt><trkpt lon="5.806336" lat="51.069501"><ele>24.2</ele><time>2022-05-29T06:32:34.000Z</time></trkpt><trkpt lon="5.806325" lat="51.069425"><ele>24.2</ele><time>2022-05-29T06:32:35.000Z</time></trkpt><trkpt lon="5.806316" lat="51.069353"><ele>24.2</ele><time>2022-05-29T06:32:36.000Z</time></trkpt><trkpt lon="5.80631" lat="51.06928"><ele>24.2</ele><time>2022-05-29T06:32:37.000Z</time></trkpt><trkpt lon="5.806306" lat="51.069208"><ele>24.2</ele><time>2022-05-29T06:32:38.000Z</time></trkpt><trkpt lon="5.8063" lat="51.069135"><ele>24.2</ele><time>2022-05-29T06:32:39.000Z</time></trkpt><trkpt lon="5.806289" lat="51.069063"><ele>24.2</ele><time>2022-05-29T06:32:40.000Z</time></trkpt><trkpt lon="5.806275" lat="51.06899"><ele>24.2</ele><time>2022-05-29T06:32:41.000Z</time></trkpt><trkpt lon="5.806257" lat="51.068918"><ele>24.2</ele><time>2022-05-29T06:32:42.000Z</time></trkpt><trkpt lon="5.806242" lat="51.068845"><ele>24.4</ele><time>2022-05-29T06:32:43.000Z</time></trkpt><trkpt lon="5.80623" lat="51.068773"><ele>24.4</ele><time>2022-05-29T06:32:44.000Z</time></trkpt><trkpt lon="5.80622" lat="51.0687"><ele>24.4</ele><time>2022-05-29T06:32:45.000Z</time></trkpt><trkpt lon="5.80621" lat="51.068627"><ele>24.4</ele><time>2022-05-29T06:32:46.000Z</time></trkpt><trkpt lon="5.806201" lat="51.068552"><ele>24.4</ele><time>2022-05-29T06:32:47.000Z</time></trkpt><trkpt lon="5.806189" lat="51.068479"><ele>24.4</ele><time>2022-05-29T06:32:48.000Z</time></trkpt><trkpt lon="5.806175" lat="51.068403"><ele>24.2</ele><time>2022-05-29T06:32:49.000Z</time></trkpt><trkpt lon="5.806155" lat="51.068331"><ele>24.2</ele><time>2022-05-29T06:32:50.000Z</time></trkpt><trkpt lon="5.806129" lat="51.068258"><ele>24.2</ele><time>2022-05-29T06:32:51.000Z</time></trkpt><trkpt lon="5.806097" lat="51.06819"><ele>24.2</ele><time>2022-05-29T06:32:52.000Z</time></trkpt><trkpt lon="5.806063" lat="51.068122"><ele>24.2</ele><time>2022-05-29T06:32:53.000Z</time></trkpt><trkpt lon="5.806024" lat="51.068053"><ele>24.2</ele><time>2022-05-29T06:32:54.000Z</time></trkpt><trkpt lon="5.805979" lat="51.067985"><ele>24.2</ele><time>2022-05-29T06:32:55.000Z</time></trkpt><trkpt lon="5.805928" lat="51.067923"><ele>24.2</ele><time>2022-05-29T06:32:56.000Z</time></trkpt><trkpt lon="5.805874" lat="51.06786"><ele>24.4</ele><time>2022-05-29T06:32:57.000Z</time></trkpt><trkpt lon="5.805816" lat="51.067799"><ele>24.4</ele><time>2022-05-29T06:32:58.000Z</time></trkpt><trkpt lon="5.805762" lat="51.06774"><ele>24.4</ele><time>2022-05-29T06:32:59.000Z</time></trkpt><trkpt lon="5.805703" lat="51.067677"><ele>24.4</ele><time>2022-05-29T06:33:00.000Z</time></trkpt><trkpt lon="5.805646" lat="51.067615"><ele>24.6</ele><time>2022-05-29T06:33:01.000Z</time></trkpt><trkpt lon="5.805591" lat="51.067554"><ele>24.6</ele><time>2022-05-29T06:33:02.000Z</time></trkpt><trkpt lon="5.805538" lat="51.067492"><ele>24.6</ele><time>2022-05-29T06:33:03.000Z</time></trkpt><trkpt lon="5.805487" lat="51.067428"><ele>24.6</ele><time>2022-05-29T06:33:04.000Z</time></trkpt><trkpt lon="5.805432" lat="51.067363"><ele>24.6</ele><time>2022-05-29T06:33:05.000Z</time></trkpt><trkpt lon="5.805378" lat="51.067302"><ele>24.6</ele><time>2022-05-29T06:33:06.000Z</time></trkpt><trkpt lon="5.805322" lat="51.067239"><ele>24.6</ele><time>2022-05-29T06:33:07.000Z</time></trkpt><trkpt lon="5.805264" lat="51.067176"><ele>24.6</ele><time>2022-05-29T06:33:08.000Z</time></trkpt><trkpt lon="5.805208" lat="51.067116"><ele>24.6</ele><time>2022-05-29T06:33:09.000Z</time></trkpt><trkpt lon="5.805153" lat="51.067054"><ele>24.8</ele><time>2022-05-29T06:33:10.000Z</time></trkpt><trkpt lon="5.805099" lat="51.066993"><ele>24.8</ele><time>2022-05-29T06:33:11.000Z</time></trkpt><trkpt lon="5.805045" lat="51.066928"><ele>24.8</ele><time>2022-05-29T06:33:12.000Z</time></trkpt><trkpt lon="5.804992" lat="51.066864"><ele>24.8</ele><time>2022-05-29T06:33:13.000Z</time></trkpt><trkpt lon="5.804941" lat="51.066802"><ele>24.8</ele><time>2022-05-29T06:33:14.000Z</time></trkpt><trkpt lon="5.804891" lat="51.066737"><ele>24.8</ele><time>2022-05-29T06:33:15.000Z</time></trkpt><trkpt lon="5.804843" lat="51.066669"><ele>24.8</ele><time>2022-05-29T06:33:16.000Z</time></trkpt><trkpt lon="5.804796" lat="51.066605"><ele>24.6</ele><time>2022-05-29T06:33:17.000Z</time></trkpt><trkpt lon="5.80475" lat="51.066544"><ele>24.8</ele><time>2022-05-29T06:33:18.000Z</time></trkpt><trkpt lon="5.804701" lat="51.066479"><ele>25</ele><time>2022-05-29T06:33:19.000Z</time></trkpt><trkpt lon="5.804655" lat="51.066413"><ele>25</ele><time>2022-05-29T06:33:20.000Z</time></trkpt><trkpt lon="5.804614" lat="51.066349"><ele>25</ele><time>2022-05-29T06:33:21.000Z</time></trkpt><trkpt lon="5.804578" lat="51.066281"><ele>25</ele><time>2022-05-29T06:33:22.000Z</time></trkpt><trkpt lon="5.804543" lat="51.066215"><ele>25</ele><time>2022-05-29T06:33:23.000Z</time></trkpt><trkpt lon="5.804511" lat="51.066146"><ele>25</ele><time>2022-05-29T06:33:24.000Z</time></trkpt><trkpt lon="5.804477" lat="51.066081"><ele>25</ele><time>2022-05-29T06:33:25.000Z</time></trkpt><trkpt lon="5.804445" lat="51.066014"><ele>25</ele><time>2022-05-29T06:33:26.000Z</time></trkpt><trkpt lon="5.80441" lat="51.065943"><ele>25.2</ele><time>2022-05-29T06:33:27.000Z</time></trkpt><trkpt lon="5.804373" lat="51.065874"><ele>25.2</ele><time>2022-05-29T06:33:28.000Z</time></trkpt><trkpt lon="5.804338" lat="51.065806"><ele>25.4</ele><time>2022-05-29T06:33:29.000Z</time></trkpt><trkpt lon="5.804301" lat="51.065737"><ele>25.4</ele><time>2022-05-29T06:33:30.000Z</time></trkpt><trkpt lon="5.804266" lat="51.06567"><ele>25.4</ele><time>2022-05-29T06:33:31.000Z</time></trkpt><trkpt lon="5.80423" lat="51.065603"><ele>25.4</ele><time>2022-05-29T06:33:32.000Z</time></trkpt><trkpt lon="5.804195" lat="51.065535"><ele>25.2</ele><time>2022-05-29T06:33:33.000Z</time></trkpt><trkpt lon="5.804161" lat="51.065466"><ele>25.2</ele><time>2022-05-29T06:33:34.000Z</time></trkpt><trkpt lon="5.80413" lat="51.065397"><ele>25.2</ele><time>2022-05-29T06:33:35.000Z</time></trkpt><trkpt lon="5.804102" lat="51.065325"><ele>25.2</ele><time>2022-05-29T06:33:36.000Z</time></trkpt><trkpt lon="5.804079" lat="51.065255"><ele>25.2</ele><time>2022-05-29T06:33:37.000Z</time></trkpt><trkpt lon="5.804058" lat="51.065184"><ele>25.4</ele><time>2022-05-29T06:33:38.000Z</time></trkpt><trkpt lon="5.804036" lat="51.065115"><ele>25.4</ele><time>2022-05-29T06:33:39.000Z</time></trkpt><trkpt lon="5.804015" lat="51.065043"><ele>25.2</ele><time>2022-05-29T06:33:40.000Z</time></trkpt><trkpt lon="5.803995" lat="51.064974"><ele>25.2</ele><time>2022-05-29T06:33:41.000Z</time></trkpt><trkpt lon="5.803977" lat="51.064905"><ele>25</ele><time>2022-05-29T06:33:42.000Z</time></trkpt><trkpt lon="5.803963" lat="51.064836"><ele>25</ele><time>2022-05-29T06:33:43.000Z</time></trkpt><trkpt lon="5.803951" lat="51.064765"><ele>24.8</ele><time>2022-05-29T06:33:44.000Z</time></trkpt><trkpt lon="5.80394" lat="51.064693"><ele>24.8</ele><time>2022-05-29T06:33:45.000Z</time></trkpt><trkpt lon="5.803928" lat="51.064626"><ele>25</ele><time>2022-05-29T06:33:46.000Z</time></trkpt><trkpt lon="5.803916" lat="51.064557"><ele>25</ele><time>2022-05-29T06:33:47.000Z</time></trkpt><trkpt lon="5.8039" lat="51.064486"><ele>25</ele><time>2022-05-29T06:33:48.000Z</time></trkpt><trkpt lon="5.803882" lat="51.064413"><ele>25</ele><time>2022-05-29T06:33:49.000Z</time></trkpt><trkpt lon="5.803866" lat="51.064345"><ele>25</ele><time>2022-05-29T06:33:50.000Z</time></trkpt><trkpt lon="5.803851" lat="51.064273"><ele>25</ele><time>2022-05-29T06:33:51.000Z</time></trkpt><trkpt lon="5.803839" lat="51.064203"><ele>25</ele><time>2022-05-29T06:33:52.000Z</time></trkpt><trkpt lon="5.803839" lat="51.064135"><ele>25</ele><time>2022-05-29T06:33:53.000Z</time></trkpt><trkpt lon="5.803856" lat="51.064068"><ele>25.2</ele><time>2022-05-29T06:33:54.000Z</time></trkpt><trkpt lon="5.803888" lat="51.064008"><ele>25.4</ele><time>2022-05-29T06:33:55.000Z</time></trkpt><trkpt lon="5.803917" lat="51.063955"><ele>25.6</ele><time>2022-05-29T06:33:56.000Z</time></trkpt><trkpt lon="5.803934" lat="51.063901"><ele>25.6</ele><time>2022-05-29T06:33:57.000Z</time></trkpt><trkpt lon="5.803946" lat="51.063848"><ele>25.6</ele><time>2022-05-29T06:33:58.000Z</time></trkpt><trkpt lon="5.803968" lat="51.063794"><ele>25.6</ele><time>2022-05-29T06:33:59.000Z</time></trkpt><trkpt lon="5.804009" lat="51.063738"><ele>25.4</ele><time>2022-05-29T06:34:00.000Z</time></trkpt><trkpt lon="5.804076" lat="51.063681"><ele>25.2</ele><time>2022-05-29T06:34:01.000Z</time></trkpt><trkpt lon="5.804157" lat="51.063628"><ele>25.2</ele><time>2022-05-29T06:34:02.000Z</time></trkpt><trkpt lon="5.80425" lat="51.063579"><ele>25</ele><time>2022-05-29T06:34:03.000Z</time></trkpt><trkpt lon="5.80435" lat="51.063533"><ele>24.6</ele><time>2022-05-29T06:34:04.000Z</time></trkpt><trkpt lon="5.804455" lat="51.063488"><ele>24.4</ele><time>2022-05-29T06:34:05.000Z</time></trkpt><trkpt lon="5.80456" lat="51.063447"><ele>24.2</ele><time>2022-05-29T06:34:06.000Z</time></trkpt><trkpt lon="5.804653" lat="51.063415"><ele>24</ele><time>2022-05-29T06:34:07.000Z</time></trkpt><trkpt lon="5.804734" lat="51.063387"><ele>23.8</ele><time>2022-05-29T06:34:08.000Z</time></trkpt><trkpt lon="5.804793" lat="51.063351"><ele>23.6</ele><time>2022-05-29T06:34:09.000Z</time></trkpt><trkpt lon="5.804825" lat="51.063309"><ele>23.4</ele><time>2022-05-29T06:34:10.000Z</time></trkpt><trkpt lon="5.804828" lat="51.063267"><ele>23.4</ele><time>2022-05-29T06:34:11.000Z</time></trkpt><trkpt lon="5.804805" lat="51.063224"><ele>23.2</ele><time>2022-05-29T06:34:12.000Z</time></trkpt><trkpt lon="5.80476" lat="51.063183"><ele>23</ele><time>2022-05-29T06:34:13.000Z</time></trkpt><trkpt lon="5.804706" lat="51.063141"><ele>23</ele><time>2022-05-29T06:34:14.000Z</time></trkpt><trkpt lon="5.804648" lat="51.063098"><ele>22.8</ele><time>2022-05-29T06:34:15.000Z</time></trkpt><trkpt lon="5.804588" lat="51.063052"><ele>22.8</ele><time>2022-05-29T06:34:16.000Z</time></trkpt><trkpt lon="5.804528" lat="51.063007"><ele>23</ele><time>2022-05-29T06:34:17.000Z</time></trkpt><trkpt lon="5.804468" lat="51.062961"><ele>22.8</ele><time>2022-05-29T06:34:18.000Z</time></trkpt><trkpt lon="5.80441" lat="51.062914"><ele>22.8</ele><time>2022-05-29T06:34:19.000Z</time></trkpt><trkpt lon="5.804358" lat="51.062858"><ele>22.8</ele><time>2022-05-29T06:34:20.000Z</time></trkpt><trkpt lon="5.804326" lat="51.062798"><ele>23</ele><time>2022-05-29T06:34:21.000Z</time></trkpt><trkpt lon="5.804317" lat="51.062735"><ele>23</ele><time>2022-05-29T06:34:22.000Z</time></trkpt><trkpt lon="5.804323" lat="51.06267"><ele>23.2</ele><time>2022-05-29T06:34:23.000Z</time></trkpt><trkpt lon="5.804342" lat="51.062602"><ele>23.2</ele><time>2022-05-29T06:34:24.000Z</time></trkpt><trkpt lon="5.80437" lat="51.062536"><ele>23.2</ele><time>2022-05-29T06:34:25.000Z</time></trkpt><trkpt lon="5.804403" lat="51.062464"><ele>23.2</ele><time>2022-05-29T06:34:26.000Z</time></trkpt><trkpt lon="5.804439" lat="51.062395"><ele>23.2</ele><time>2022-05-29T06:34:27.000Z</time></trkpt><trkpt lon="5.804478" lat="51.062326"><ele>23.2</ele><time>2022-05-29T06:34:28.000Z</time></trkpt><trkpt lon="5.804515" lat="51.062255"><ele>23.2</ele><time>2022-05-29T06:34:29.000Z</time></trkpt><trkpt lon="5.804551" lat="51.062186"><ele>23.2</ele><time>2022-05-29T06:34:30.000Z</time></trkpt><trkpt lon="5.804586" lat="51.062119"><ele>23.2</ele><time>2022-05-29T06:34:31.000Z</time></trkpt><trkpt lon="5.804621" lat="51.062053"><ele>23.4</ele><time>2022-05-29T06:34:32.000Z</time></trkpt><trkpt lon="5.804655" lat="51.061985"><ele>23.6</ele><time>2022-05-29T06:34:33.000Z</time></trkpt><trkpt lon="5.804688" lat="51.061925"><ele>23.8</ele><time>2022-05-29T06:34:34.000Z</time></trkpt><trkpt lon="5.804718" lat="51.061869"><ele>23.8</ele><time>2022-05-29T06:34:35.000Z</time></trkpt><trkpt lon="5.804745" lat="51.061817"><ele>24</ele><time>2022-05-29T06:34:36.000Z</time></trkpt><trkpt lon="5.804762" lat="51.061768"><ele>24</ele><time>2022-05-29T06:34:37.000Z</time></trkpt><trkpt lon="5.804766" lat="51.06173"><ele>24</ele><time>2022-05-29T06:34:38.000Z</time></trkpt><trkpt lon="5.804735" lat="51.061706"><ele>24</ele><time>2022-05-29T06:34:39.000Z</time></trkpt><trkpt lon="5.804677" lat="51.061685"><ele>24</ele><time>2022-05-29T06:34:40.000Z</time></trkpt><trkpt lon="5.804602" lat="51.061669"><ele>24</ele><time>2022-05-29T06:34:41.000Z</time></trkpt><trkpt lon="5.80452" lat="51.061654"><ele>24</ele><time>2022-05-29T06:34:42.000Z</time></trkpt><trkpt lon="5.804431" lat="51.061638"><ele>24</ele><time>2022-05-29T06:34:43.000Z</time></trkpt><trkpt lon="5.80434" lat="51.061619"><ele>24</ele><time>2022-05-29T06:34:44.000Z</time></trkpt><trkpt lon="5.804247" lat="51.0616"><ele>24</ele><time>2022-05-29T06:34:45.000Z</time></trkpt><trkpt lon="5.804152" lat="51.06158"><ele>24</ele><time>2022-05-29T06:34:46.000Z</time></trkpt><trkpt lon="5.804058" lat="51.061558"><ele>23.8</ele><time>2022-05-29T06:34:47.000Z</time></trkpt><trkpt lon="5.803965" lat="51.061539"><ele>23.8</ele><time>2022-05-29T06:34:48.000Z</time></trkpt><trkpt lon="5.803876" lat="51.061519"><ele>24</ele><time>2022-05-29T06:34:49.000Z</time></trkpt><trkpt lon="5.803798" lat="51.061496"><ele>24.2</ele><time>2022-05-29T06:34:50.000Z</time></trkpt><trkpt lon="5.803735" lat="51.061466"><ele>24.2</ele><time>2022-05-29T06:34:51.000Z</time></trkpt><trkpt lon="5.803692" lat="51.061422"><ele>24.4</ele><time>2022-05-29T06:34:52.000Z</time></trkpt><trkpt lon="5.803671" lat="51.061364"><ele>24.4</ele><time>2022-05-29T06:34:53.000Z</time></trkpt><trkpt lon="5.80367" lat="51.061305"><ele>24.4</ele><time>2022-05-29T06:34:54.000Z</time></trkpt><trkpt lon="5.80367" lat="51.061241"><ele>24.4</ele><time>2022-05-29T06:34:55.000Z</time></trkpt><trkpt lon="5.803672" lat="51.061176"><ele>24.4</ele><time>2022-05-29T06:34:56.000Z</time></trkpt><trkpt lon="5.803672" lat="51.06111"><ele>24.4</ele><time>2022-05-29T06:34:57.000Z</time></trkpt><trkpt lon="5.803668" lat="51.061042"><ele>24.4</ele><time>2022-05-29T06:34:58.000Z</time></trkpt><trkpt lon="5.803663" lat="51.060976"><ele>24.4</ele><time>2022-05-29T06:34:59.000Z</time></trkpt><trkpt lon="5.803659" lat="51.060909"><ele>24.4</ele><time>2022-05-29T06:35:00.000Z</time></trkpt><trkpt lon="5.803652" lat="51.060843"><ele>24.4</ele><time>2022-05-29T06:35:01.000Z</time></trkpt><trkpt lon="5.803645" lat="51.06077"><ele>24.4</ele><time>2022-05-29T06:35:02.000Z</time></trkpt><trkpt lon="5.803638" lat="51.060699"><ele>24.2</ele><time>2022-05-29T06:35:03.000Z</time></trkpt><trkpt lon="5.803632" lat="51.06063"><ele>24.2</ele><time>2022-05-29T06:35:04.000Z</time></trkpt><trkpt lon="5.803625" lat="51.060558"><ele>24.2</ele><time>2022-05-29T06:35:05.000Z</time></trkpt><trkpt lon="5.803619" lat="51.060486"><ele>24.2</ele><time>2022-05-29T06:35:06.000Z</time></trkpt><trkpt lon="5.803613" lat="51.06041"><ele>24.2</ele><time>2022-05-29T06:35:07.000Z</time></trkpt><trkpt lon="5.803611" lat="51.060335"><ele>24.2</ele><time>2022-05-29T06:35:08.000Z</time></trkpt><trkpt lon="5.80361" lat="51.060262"><ele>24.2</ele><time>2022-05-29T06:35:09.000Z</time></trkpt><trkpt lon="5.803608" lat="51.060189"><ele>24.4</ele><time>2022-05-29T06:35:10.000Z</time></trkpt><trkpt lon="5.803604" lat="51.060116"><ele>24.6</ele><time>2022-05-29T06:35:11.000Z</time></trkpt><trkpt lon="5.803599" lat="51.060041"><ele>24.6</ele><time>2022-05-29T06:35:12.000Z</time></trkpt><trkpt lon="5.803596" lat="51.059972"><ele>24.6</ele><time>2022-05-29T06:35:13.000Z</time></trkpt><trkpt lon="5.803595" lat="51.059897"><ele>24.8</ele><time>2022-05-29T06:35:14.000Z</time></trkpt><trkpt lon="5.803592" lat="51.059825"><ele>24.6</ele><time>2022-05-29T06:35:15.000Z</time></trkpt><trkpt lon="5.803588" lat="51.05975"><ele>24.6</ele><time>2022-05-29T06:35:16.000Z</time></trkpt><trkpt lon="5.803584" lat="51.059675"><ele>24.6</ele><time>2022-05-29T06:35:17.000Z</time></trkpt><trkpt lon="5.803577" lat="51.059603"><ele>24.6</ele><time>2022-05-29T06:35:18.000Z</time></trkpt><trkpt lon="5.803569" lat="51.05953"><ele>24.6</ele><time>2022-05-29T06:35:19.000Z</time></trkpt><trkpt lon="5.803555" lat="51.059457"><ele>24.6</ele><time>2022-05-29T06:35:20.000Z</time></trkpt><trkpt lon="5.803534" lat="51.059383"><ele>24.6</ele><time>2022-05-29T06:35:21.000Z</time></trkpt><trkpt lon="5.803508" lat="51.059309"><ele>24.8</ele><time>2022-05-29T06:35:22.000Z</time></trkpt><trkpt lon="5.803477" lat="51.059237"><ele>24.6</ele><time>2022-05-29T06:35:23.000Z</time></trkpt><trkpt lon="5.803443" lat="51.059168"><ele>24.6</ele><time>2022-05-29T06:35:24.000Z</time></trkpt><trkpt lon="5.803407" lat="51.059098"><ele>24.6</ele><time>2022-05-29T06:35:25.000Z</time></trkpt><trkpt lon="5.803362" lat="51.059029"><ele>24.6</ele><time>2022-05-29T06:35:26.000Z</time></trkpt><trkpt lon="5.803311" lat="51.058963"><ele>24.8</ele><time>2022-05-29T06:35:27.000Z</time></trkpt><trkpt lon="5.803262" lat="51.058894"><ele>24.8</ele><time>2022-05-29T06:35:28.000Z</time></trkpt><trkpt lon="5.803213" lat="51.058827"><ele>24.8</ele><time>2022-05-29T06:35:29.000Z</time></trkpt><trkpt lon="5.80316" lat="51.058756"><ele>24.8</ele><time>2022-05-29T06:35:30.000Z</time></trkpt><trkpt lon="5.803108" lat="51.058692"><ele>25</ele><time>2022-05-29T06:35:31.000Z</time></trkpt><trkpt lon="5.803058" lat="51.058626"><ele>25</ele><time>2022-05-29T06:35:32.000Z</time></trkpt><trkpt lon="5.80301" lat="51.058559"><ele>25</ele><time>2022-05-29T06:35:33.000Z</time></trkpt><trkpt lon="5.802959" lat="51.058494"><ele>25</ele><time>2022-05-29T06:35:34.000Z</time></trkpt><trkpt lon="5.802907" lat="51.05843"><ele>25</ele><time>2022-05-29T06:35:35.000Z</time></trkpt><trkpt lon="5.802853" lat="51.05837"><ele>24.8</ele><time>2022-05-29T06:35:36.000Z</time></trkpt><trkpt lon="5.802792" lat="51.058309"><ele>24.8</ele><time>2022-05-29T06:35:37.000Z</time></trkpt><trkpt lon="5.802728" lat="51.058253"><ele>25</ele><time>2022-05-29T06:35:38.000Z</time></trkpt><trkpt lon="5.802661" lat="51.0582"><ele>24.8</ele><time>2022-05-29T06:35:39.000Z</time></trkpt><trkpt lon="5.802585" lat="51.058149"><ele>24.8</ele><time>2022-05-29T06:35:40.000Z</time></trkpt><trkpt lon="5.802509" lat="51.058099"><ele>24.6</ele><time>2022-05-29T06:35:41.000Z</time></trkpt><trkpt lon="5.80243" lat="51.058047"><ele>24.4</ele><time>2022-05-29T06:35:42.000Z</time></trkpt><trkpt lon="5.802348" lat="51.057996"><ele>24.2</ele><time>2022-05-29T06:35:43.000Z</time></trkpt><trkpt lon="5.802266" lat="51.057943"><ele>24</ele><time>2022-05-29T06:35:44.000Z</time></trkpt><trkpt lon="5.802184" lat="51.057893"><ele>24</ele><time>2022-05-29T06:35:45.000Z</time></trkpt><trkpt lon="5.802102" lat="51.057841"><ele>23.8</ele><time>2022-05-29T06:35:46.000Z</time></trkpt><trkpt lon="5.802019" lat="51.057791"><ele>23.6</ele><time>2022-05-29T06:35:47.000Z</time></trkpt><trkpt lon="5.801937" lat="51.057741"><ele>23.6</ele><time>2022-05-29T06:35:48.000Z</time></trkpt><trkpt lon="5.801855" lat="51.057691"><ele>23.6</ele><time>2022-05-29T06:35:49.000Z</time></trkpt><trkpt lon="5.801776" lat="51.057638"><ele>23.6</ele><time>2022-05-29T06:35:50.000Z</time></trkpt><trkpt lon="5.801699" lat="51.057591"><ele>23.4</ele><time>2022-05-29T06:35:51.000Z</time></trkpt><trkpt lon="5.801614" lat="51.05754"><ele>23.4</ele><time>2022-05-29T06:35:52.000Z</time></trkpt><trkpt lon="5.801534" lat="51.057492"><ele>23.6</ele><time>2022-05-29T06:35:53.000Z</time></trkpt><trkpt lon="5.801448" lat="51.057445"><ele>23.6</ele><time>2022-05-29T06:35:54.000Z</time></trkpt><trkpt lon="5.801362" lat="51.057394"><ele>23.6</ele><time>2022-05-29T06:35:55.000Z</time></trkpt><trkpt lon="5.801278" lat="51.057345"><ele>23.4</ele><time>2022-05-29T06:35:56.000Z</time></trkpt><trkpt lon="5.801195" lat="51.057295"><ele>23.4</ele><time>2022-05-29T06:35:57.000Z</time></trkpt><trkpt lon="5.801116" lat="51.057246"><ele>23.2</ele><time>2022-05-29T06:35:58.000Z</time></trkpt><trkpt lon="5.801036" lat="51.057196"><ele>23.2</ele><time>2022-05-29T06:35:59.000Z</time></trkpt><trkpt lon="5.800958" lat="51.057148"><ele>23.2</ele><time>2022-05-29T06:36:00.000Z</time></trkpt><trkpt lon="5.800878" lat="51.0571"><ele>23.4</ele><time>2022-05-29T06:36:01.000Z</time></trkpt><trkpt lon="5.800798" lat="51.057052"><ele>23.4</ele><time>2022-05-29T06:36:02.000Z</time></trkpt><trkpt lon="5.80072" lat="51.057006"><ele>23.6</ele><time>2022-05-29T06:36:03.000Z</time></trkpt><trkpt lon="5.800634" lat="51.056956"><ele>23.6</ele><time>2022-05-29T06:36:04.000Z</time></trkpt><trkpt lon="5.800548" lat="51.056911"><ele>23.4</ele><time>2022-05-29T06:36:05.000Z</time></trkpt><trkpt lon="5.800461" lat="51.056869"><ele>23.4</ele><time>2022-05-29T06:36:06.000Z</time></trkpt><trkpt lon="5.800371" lat="51.056827"><ele>23.2</ele><time>2022-05-29T06:36:07.000Z</time></trkpt><trkpt lon="5.80028" lat="51.056785"><ele>23.2</ele><time>2022-05-29T06:36:08.000Z</time></trkpt><trkpt lon="5.80019" lat="51.056743"><ele>23.4</ele><time>2022-05-29T06:36:09.000Z</time></trkpt><trkpt lon="5.800095" lat="51.056697"><ele>23.4</ele><time>2022-05-29T06:36:10.000Z</time></trkpt><trkpt lon="5.8" lat="51.056652"><ele>23.4</ele><time>2022-05-29T06:36:11.000Z</time></trkpt><trkpt lon="5.799903" lat="51.056609"><ele>23.2</ele><time>2022-05-29T06:36:12.000Z</time></trkpt><trkpt lon="5.799808" lat="51.056565"><ele>23.4</ele><time>2022-05-29T06:36:13.000Z</time></trkpt><trkpt lon="5.799707" lat="51.056527"><ele>23.4</ele><time>2022-05-29T06:36:14.000Z</time></trkpt><trkpt lon="5.799604" lat="51.05649"><ele>23.4</ele><time>2022-05-29T06:36:15.000Z</time></trkpt><trkpt lon="5.799503" lat="51.056459"><ele>23.4</ele><time>2022-05-29T06:36:16.000Z</time></trkpt><trkpt lon="5.799403" lat="51.056429"><ele>23.4</ele><time>2022-05-29T06:36:17.000Z</time></trkpt><trkpt lon="5.799305" lat="51.056399"><ele>23.4</ele><time>2022-05-29T06:36:18.000Z</time></trkpt><trkpt lon="5.799203" lat="51.05637"><ele>23.4</ele><time>2022-05-29T06:36:19.000Z</time></trkpt><trkpt lon="5.799093" lat="51.056343"><ele>23.4</ele><time>2022-05-29T06:36:20.000Z</time></trkpt><trkpt lon="5.798984" lat="51.056316"><ele>23.4</ele><time>2022-05-29T06:36:21.000Z</time></trkpt><trkpt lon="5.798873" lat="51.056285"><ele>23.4</ele><time>2022-05-29T06:36:22.000Z</time></trkpt><trkpt lon="5.798766" lat="51.056257"><ele>23.4</ele><time>2022-05-29T06:36:23.000Z</time></trkpt><trkpt lon="5.798659" lat="51.056227"><ele>23.4</ele><time>2022-05-29T06:36:24.000Z</time></trkpt><trkpt lon="5.798554" lat="51.0562"><ele>23.4</ele><time>2022-05-29T06:36:25.000Z</time></trkpt><trkpt lon="5.798448" lat="51.05617"><ele>23.4</ele><time>2022-05-29T06:36:26.000Z</time></trkpt><trkpt lon="5.79834" lat="51.056139"><ele>23.4</ele><time>2022-05-29T06:36:27.000Z</time></trkpt><trkpt lon="5.798233" lat="51.056108"><ele>23.6</ele><time>2022-05-29T06:36:28.000Z</time></trkpt><trkpt lon="5.798128" lat="51.056078"><ele>23.6</ele><time>2022-05-29T06:36:29.000Z</time></trkpt><trkpt lon="5.798021" lat="51.056048"><ele>23.6</ele><time>2022-05-29T06:36:30.000Z</time></trkpt><trkpt lon="5.79791" lat="51.056021"><ele>23.6</ele><time>2022-05-29T06:36:31.000Z</time></trkpt><trkpt lon="5.797803" lat="51.055991"><ele>23.6</ele><time>2022-05-29T06:36:32.000Z</time></trkpt><trkpt lon="5.797696" lat="51.055965"><ele>23.6</ele><time>2022-05-29T06:36:33.000Z</time></trkpt><trkpt lon="5.797588" lat="51.055938"><ele>23.6</ele><time>2022-05-29T06:36:34.000Z</time></trkpt><trkpt lon="5.797484" lat="51.055911"><ele>23.6</ele><time>2022-05-29T06:36:35.000Z</time></trkpt><trkpt lon="5.797377" lat="51.055884"><ele>23.6</ele><time>2022-05-29T06:36:36.000Z</time></trkpt><trkpt lon="5.797275" lat="51.055857"><ele>23.6</ele><time>2022-05-29T06:36:37.000Z</time></trkpt><trkpt lon="5.797166" lat="51.055831"><ele>23.6</ele><time>2022-05-29T06:36:38.000Z</time></trkpt><trkpt lon="5.797062" lat="51.055807"><ele>23.6</ele><time>2022-05-29T06:36:39.000Z</time></trkpt><trkpt lon="5.796963" lat="51.055777"><ele>23.6</ele><time>2022-05-29T06:36:40.000Z</time></trkpt><trkpt lon="5.796865" lat="51.055747"><ele>23.6</ele><time>2022-05-29T06:36:41.000Z</time></trkpt><trkpt lon="5.796769" lat="51.055719"><ele>23.6</ele><time>2022-05-29T06:36:42.000Z</time></trkpt><trkpt lon="5.796673" lat="51.05569"><ele>23.6</ele><time>2022-05-29T06:36:43.000Z</time></trkpt><trkpt lon="5.796576" lat="51.055667"><ele>23.6</ele><time>2022-05-29T06:36:44.000Z</time></trkpt><trkpt lon="5.796481" lat="51.055641"><ele>23.6</ele><time>2022-05-29T06:36:45.000Z</time></trkpt><trkpt lon="5.79639" lat="51.055613"><ele>23.6</ele><time>2022-05-29T06:36:46.000Z</time></trkpt><trkpt lon="5.796277" lat="51.055583"><ele>23.6</ele><time>2022-05-29T06:36:47.000Z</time></trkpt><trkpt lon="5.796174" lat="51.055556"><ele>23.6</ele><time>2022-05-29T06:36:48.000Z</time></trkpt><trkpt lon="5.796066" lat="51.055525"><ele>23.6</ele><time>2022-05-29T06:36:49.000Z</time></trkpt><trkpt lon="5.795963" lat="51.055494"><ele>23.6</ele><time>2022-05-29T06:36:50.000Z</time></trkpt><trkpt lon="5.795859" lat="51.055464"><ele>23.6</ele><time>2022-05-29T06:36:51.000Z</time></trkpt><trkpt lon="5.795756" lat="51.055429"><ele>23.8</ele><time>2022-05-29T06:36:52.000Z</time></trkpt><trkpt lon="5.795651" lat="51.055389"><ele>23.8</ele><time>2022-05-29T06:36:53.000Z</time></trkpt><trkpt lon="5.795546" lat="51.055348"><ele>24</ele><time>2022-05-29T06:36:54.000Z</time></trkpt><trkpt lon="5.795446" lat="51.055306"><ele>24.2</ele><time>2022-05-29T06:36:55.000Z</time></trkpt><trkpt lon="5.795346" lat="51.055262"><ele>24.2</ele><time>2022-05-29T06:36:56.000Z</time></trkpt><trkpt lon="5.795251" lat="51.055212"><ele>24.2</ele><time>2022-05-29T06:36:57.000Z</time></trkpt><trkpt lon="5.79516" lat="51.055162"><ele>24.4</ele><time>2022-05-29T06:36:58.000Z</time></trkpt><trkpt lon="5.795073" lat="51.055109"><ele>24.4</ele><time>2022-05-29T06:36:59.000Z</time></trkpt><trkpt lon="5.794983" lat="51.055056"><ele>24.4</ele><time>2022-05-29T06:37:00.000Z</time></trkpt><trkpt lon="5.794892" lat="51.055002"><ele>24.4</ele><time>2022-05-29T06:37:01.000Z</time></trkpt><trkpt lon="5.794804" lat="51.05495"><ele>24.4</ele><time>2022-05-29T06:37:02.000Z</time></trkpt><trkpt lon="5.794711" lat="51.054895"><ele>24.2</ele><time>2022-05-29T06:37:03.000Z</time></trkpt><trkpt lon="5.794621" lat="51.054841"><ele>24.2</ele><time>2022-05-29T06:37:04.000Z</time></trkpt><trkpt lon="5.794533" lat="51.054789"><ele>24.4</ele><time>2022-05-29T06:37:05.000Z</time></trkpt><trkpt lon="5.794447" lat="51.054739"><ele>24.4</ele><time>2022-05-29T06:37:06.000Z</time></trkpt><trkpt lon="5.794359" lat="51.054682"><ele>24.4</ele><time>2022-05-29T06:37:07.000Z</time></trkpt><trkpt lon="5.794273" lat="51.054633"><ele>24.4</ele><time>2022-05-29T06:37:08.000Z</time></trkpt><trkpt lon="5.79419" lat="51.05458"><ele>24.6</ele><time>2022-05-29T06:37:09.000Z</time></trkpt><trkpt lon="5.794102" lat="51.054525"><ele>24.6</ele><time>2022-05-29T06:37:10.000Z</time></trkpt><trkpt lon="5.794018" lat="51.054472"><ele>24.6</ele><time>2022-05-29T06:37:11.000Z</time></trkpt><trkpt lon="5.793933" lat="51.05442"><ele>24.6</ele><time>2022-05-29T06:37:12.000Z</time></trkpt><trkpt lon="5.793846" lat="51.054369"><ele>24.6</ele><time>2022-05-29T06:37:13.000Z</time></trkpt><trkpt lon="5.793762" lat="51.054317"><ele>24.6</ele><time>2022-05-29T06:37:14.000Z</time></trkpt><trkpt lon="5.793677" lat="51.054266"><ele>24.4</ele><time>2022-05-29T06:37:15.000Z</time></trkpt><trkpt lon="5.793592" lat="51.054212"><ele>24.4</ele><time>2022-05-29T06:37:16.000Z</time></trkpt><trkpt lon="5.793507" lat="51.05416"><ele>24.4</ele><time>2022-05-29T06:37:17.000Z</time></trkpt><trkpt lon="5.793424" lat="51.054111"><ele>24.4</ele><time>2022-05-29T06:37:18.000Z</time></trkpt><trkpt lon="5.793339" lat="51.054058"><ele>24.4</ele><time>2022-05-29T06:37:19.000Z</time></trkpt><trkpt lon="5.793251" lat="51.054007"><ele>24.4</ele><time>2022-05-29T06:37:20.000Z</time></trkpt><trkpt lon="5.793164" lat="51.053953"><ele>24.4</ele><time>2022-05-29T06:37:21.000Z</time></trkpt><trkpt lon="5.793081" lat="51.053903"><ele>24.6</ele><time>2022-05-29T06:37:22.000Z</time></trkpt><trkpt lon="5.792999" lat="51.05385"><ele>24.8</ele><time>2022-05-29T06:37:23.000Z</time></trkpt><trkpt lon="5.792916" lat="51.053797"><ele>24.8</ele><time>2022-05-29T06:37:24.000Z</time></trkpt><trkpt lon="5.792836" lat="51.053742"><ele>24.8</ele><time>2022-05-29T06:37:25.000Z</time></trkpt><trkpt lon="5.79276" lat="51.053685"><ele>25</ele><time>2022-05-29T06:37:26.000Z</time></trkpt><trkpt lon="5.792687" lat="51.053627"><ele>25</ele><time>2022-05-29T06:37:27.000Z</time></trkpt><trkpt lon="5.792623" lat="51.053567"><ele>25</ele><time>2022-05-29T06:37:28.000Z</time></trkpt><trkpt lon="5.79256" lat="51.053505"><ele>24.8</ele><time>2022-05-29T06:37:29.000Z</time></trkpt><trkpt lon="5.792499" lat="51.05344"><ele>24.6</ele><time>2022-05-29T06:37:30.000Z</time></trkpt><trkpt lon="5.792438" lat="51.053376"><ele>24.6</ele><time>2022-05-29T06:37:31.000Z</time></trkpt><trkpt lon="5.792376" lat="51.053314"><ele>24.4</ele><time>2022-05-29T06:37:32.000Z</time></trkpt><trkpt lon="5.792315" lat="51.053249"><ele>24.2</ele><time>2022-05-29T06:37:33.000Z</time></trkpt><trkpt lon="5.792256" lat="51.053188"><ele>24.2</ele><time>2022-05-29T06:37:34.000Z</time></trkpt><trkpt lon="5.792199" lat="51.053127"><ele>24.2</ele><time>2022-05-29T06:37:35.000Z</time></trkpt><trkpt lon="5.792137" lat="51.053064"><ele>24</ele><time>2022-05-29T06:37:36.000Z</time></trkpt><trkpt lon="5.792075" lat="51.053"><ele>24</ele><time>2022-05-29T06:37:37.000Z</time></trkpt><trkpt lon="5.792011" lat="51.052932"><ele>23.8</ele><time>2022-05-29T06:37:38.000Z</time></trkpt><trkpt lon="5.79195" lat="51.052867"><ele>23.8</ele><time>2022-05-29T06:37:39.000Z</time></trkpt><trkpt lon="5.79189" lat="51.052803"><ele>23.6</ele><time>2022-05-29T06:37:40.000Z</time></trkpt><trkpt lon="5.791828" lat="51.052737"><ele>23.6</ele><time>2022-05-29T06:37:41.000Z</time></trkpt><trkpt lon="5.791767" lat="51.052672"><ele>23.6</ele><time>2022-05-29T06:37:42.000Z</time></trkpt><trkpt lon="5.791707" lat="51.052608"><ele>23.6</ele><time>2022-05-29T06:37:43.000Z</time></trkpt><trkpt lon="5.791648" lat="51.052547"><ele>23.6</ele><time>2022-05-29T06:37:44.000Z</time></trkpt><trkpt lon="5.79159" lat="51.052487"><ele>23.8</ele><time>2022-05-29T06:37:45.000Z</time></trkpt><trkpt lon="5.791535" lat="51.052428"><ele>23.8</ele><time>2022-05-29T06:37:46.000Z</time></trkpt><trkpt lon="5.791476" lat="51.052368"><ele>23.8</ele><time>2022-05-29T06:37:47.000Z</time></trkpt><trkpt lon="5.79142" lat="51.052309"><ele>23.8</ele><time>2022-05-29T06:37:48.000Z</time></trkpt><trkpt lon="5.791363" lat="51.05225"><ele>23.8</ele><time>2022-05-29T06:37:49.000Z</time></trkpt><trkpt lon="5.791307" lat="51.052189"><ele>23.8</ele><time>2022-05-29T06:37:50.000Z</time></trkpt><trkpt lon="5.79125" lat="51.052129"><ele>23.8</ele><time>2022-05-29T06:37:51.000Z</time></trkpt><trkpt lon="5.79119" lat="51.052067"><ele>23.8</ele><time>2022-05-29T06:37:52.000Z</time></trkpt><trkpt lon="5.791127" lat="51.052001"><ele>23.6</ele><time>2022-05-29T06:37:53.000Z</time></trkpt><trkpt lon="5.791066" lat="51.051938"><ele>23.6</ele><time>2022-05-29T06:37:54.000Z</time></trkpt><trkpt lon="5.791009" lat="51.051875"><ele>23.6</ele><time>2022-05-29T06:37:55.000Z</time></trkpt><trkpt lon="5.790964" lat="51.051809"><ele>23.8</ele><time>2022-05-29T06:37:56.000Z</time></trkpt><trkpt lon="5.79094" lat="51.051739"><ele>23.6</ele><time>2022-05-29T06:37:57.000Z</time></trkpt><trkpt lon="5.790932" lat="51.051665"><ele>23.6</ele><time>2022-05-29T06:37:58.000Z</time></trkpt><trkpt lon="5.790926" lat="51.051596"><ele>23.6</ele><time>2022-05-29T06:37:59.000Z</time></trkpt><trkpt lon="5.790901" lat="51.051516"><ele>23.4</ele><time>2022-05-29T06:38:00.000Z</time></trkpt><trkpt lon="5.790857" lat="51.05144"><ele>23</ele><time>2022-05-29T06:38:01.000Z</time></trkpt><trkpt lon="5.790798" lat="51.051366"><ele>22.8</ele><time>2022-05-29T06:38:02.000Z</time></trkpt><trkpt lon="5.790735" lat="51.05129"><ele>22.6</ele><time>2022-05-29T06:38:03.000Z</time></trkpt><trkpt lon="5.790671" lat="51.051216"><ele>22.4</ele><time>2022-05-29T06:38:04.000Z</time></trkpt><trkpt lon="5.790602" lat="51.051138"><ele>22.4</ele><time>2022-05-29T06:38:05.000Z</time></trkpt><trkpt lon="5.790534" lat="51.051065"><ele>22.2</ele><time>2022-05-29T06:38:06.000Z</time></trkpt><trkpt lon="5.790468" lat="51.050993"><ele>22</ele><time>2022-05-29T06:38:07.000Z</time></trkpt><trkpt lon="5.790402" lat="51.05092"><ele>22</ele><time>2022-05-29T06:38:08.000Z</time></trkpt><trkpt lon="5.790344" lat="51.05085"><ele>22</ele><time>2022-05-29T06:38:09.000Z</time></trkpt><trkpt lon="5.79029" lat="51.050785"><ele>22.2</ele><time>2022-05-29T06:38:10.000Z</time></trkpt><trkpt lon="5.790237" lat="51.050724"><ele>22.2</ele><time>2022-05-29T06:38:11.000Z</time></trkpt><trkpt lon="5.790184" lat="51.050663"><ele>22.4</ele><time>2022-05-29T06:38:12.000Z</time></trkpt><trkpt lon="5.790136" lat="51.050607"><ele>22.4</ele><time>2022-05-29T06:38:13.000Z</time></trkpt><trkpt lon="5.790082" lat="51.050551"><ele>22.6</ele><time>2022-05-29T06:38:14.000Z</time></trkpt><trkpt lon="5.790021" lat="51.050501"><ele>22.8</ele><time>2022-05-29T06:38:15.000Z</time></trkpt><trkpt lon="5.789957" lat="51.050447"><ele>23</ele><time>2022-05-29T06:38:16.000Z</time></trkpt><trkpt lon="5.789901" lat="51.050392"><ele>23.2</ele><time>2022-05-29T06:38:17.000Z</time></trkpt><trkpt lon="5.789861" lat="51.050334"><ele>23.4</ele><time>2022-05-29T06:38:18.000Z</time></trkpt><trkpt lon="5.789835" lat="51.050272"><ele>23.6</ele><time>2022-05-29T06:38:19.000Z</time></trkpt><trkpt lon="5.789816" lat="51.050213"><ele>23.8</ele><time>2022-05-29T06:38:20.000Z</time></trkpt><trkpt lon="5.789791" lat="51.050132"><ele>24</ele><time>2022-05-29T06:38:21.000Z</time></trkpt><trkpt lon="5.78977" lat="51.050059"><ele>24</ele><time>2022-05-29T06:38:22.000Z</time></trkpt><trkpt lon="5.789749" lat="51.049996"><ele>24</ele><time>2022-05-29T06:38:23.000Z</time></trkpt><trkpt lon="5.789727" lat="51.049922"><ele>24</ele><time>2022-05-29T06:38:24.000Z</time></trkpt><trkpt lon="5.789702" lat="51.04985"><ele>24.2</ele><time>2022-05-29T06:38:25.000Z</time></trkpt><trkpt lon="5.789674" lat="51.049781"><ele>24.2</ele><time>2022-05-29T06:38:26.000Z</time></trkpt><trkpt lon="5.789642" lat="51.049712"><ele>24.2</ele><time>2022-05-29T06:38:27.000Z</time></trkpt><trkpt lon="5.789606" lat="51.049643"><ele>24.2</ele><time>2022-05-29T06:38:28.000Z</time></trkpt><trkpt lon="5.789567" lat="51.049577"><ele>24.2</ele><time>2022-05-29T06:38:29.000Z</time></trkpt><trkpt lon="5.789524" lat="51.04951"><ele>24.2</ele><time>2022-05-29T06:38:30.000Z</time></trkpt><trkpt lon="5.789479" lat="51.049442"><ele>24.2</ele><time>2022-05-29T06:38:31.000Z</time></trkpt><trkpt lon="5.789432" lat="51.04938"><ele>24</ele><time>2022-05-29T06:38:32.000Z</time></trkpt><trkpt lon="5.789384" lat="51.049316"><ele>24.2</ele><time>2022-05-29T06:38:33.000Z</time></trkpt><trkpt lon="5.789332" lat="51.049255"><ele>24.2</ele><time>2022-05-29T06:38:34.000Z</time></trkpt><trkpt lon="5.789281" lat="51.049192"><ele>24.2</ele><time>2022-05-29T06:38:35.000Z</time></trkpt><trkpt lon="5.789226" lat="51.04913"><ele>24.2</ele><time>2022-05-29T06:38:36.000Z</time></trkpt><trkpt lon="5.789173" lat="51.049068"><ele>24.2</ele><time>2022-05-29T06:38:37.000Z</time></trkpt><trkpt lon="5.789122" lat="51.049004"><ele>24.4</ele><time>2022-05-29T06:38:38.000Z</time></trkpt><trkpt lon="5.789072" lat="51.048943"><ele>24.2</ele><time>2022-05-29T06:38:39.000Z</time></trkpt><trkpt lon="5.789022" lat="51.048882"><ele>24.2</ele><time>2022-05-29T06:38:40.000Z</time></trkpt><trkpt lon="5.788973" lat="51.048824"><ele>24.2</ele><time>2022-05-29T06:38:41.000Z</time></trkpt><trkpt lon="5.788919" lat="51.04876"><ele>24.2</ele><time>2022-05-29T06:38:42.000Z</time></trkpt><trkpt lon="5.78887" lat="51.048699"><ele>24.2</ele><time>2022-05-29T06:38:43.000Z</time></trkpt><trkpt lon="5.788823" lat="51.04864"><ele>24</ele><time>2022-05-29T06:38:44.000Z</time></trkpt><trkpt lon="5.788776" lat="51.048581"><ele>24</ele><time>2022-05-29T06:38:45.000Z</time></trkpt><trkpt lon="5.788722" lat="51.048514"><ele>24</ele><time>2022-05-29T06:38:46.000Z</time></trkpt><trkpt lon="5.78867" lat="51.04845"><ele>24</ele><time>2022-05-29T06:38:47.000Z</time></trkpt><trkpt lon="5.788618" lat="51.048389"><ele>24</ele><time>2022-05-29T06:38:48.000Z</time></trkpt><trkpt lon="5.788567" lat="51.048328"><ele>24</ele><time>2022-05-29T06:38:49.000Z</time></trkpt><trkpt lon="5.788518" lat="51.048268"><ele>24</ele><time>2022-05-29T06:38:50.000Z</time></trkpt><trkpt lon="5.788466" lat="51.048207"><ele>24</ele><time>2022-05-29T06:38:51.000Z</time></trkpt><trkpt lon="5.788418" lat="51.048149"><ele>24</ele><time>2022-05-29T06:38:52.000Z</time></trkpt><trkpt lon="5.788368" lat="51.048089"><ele>24.2</ele><time>2022-05-29T06:38:53.000Z</time></trkpt><trkpt lon="5.788319" lat="51.048032"><ele>24.2</ele><time>2022-05-29T06:38:54.000Z</time></trkpt><trkpt lon="5.788272" lat="51.047975"><ele>24.4</ele><time>2022-05-29T06:38:55.000Z</time></trkpt><trkpt lon="5.788224" lat="51.047921"><ele>24.4</ele><time>2022-05-29T06:38:56.000Z</time></trkpt><trkpt lon="5.788178" lat="51.047864"><ele>24.4</ele><time>2022-05-29T06:38:57.000Z</time></trkpt><trkpt lon="5.788131" lat="51.047806"><ele>24.4</ele><time>2022-05-29T06:38:58.000Z</time></trkpt><trkpt lon="5.788085" lat="51.047745"><ele>24.2</ele><time>2022-05-29T06:38:59.000Z</time></trkpt><trkpt lon="5.788043" lat="51.047684"><ele>24.2</ele><time>2022-05-29T06:39:00.000Z</time></trkpt><trkpt lon="5.788004" lat="51.047621"><ele>24.2</ele><time>2022-05-29T06:39:01.000Z</time></trkpt><trkpt lon="5.787968" lat="51.047553"><ele>24.2</ele><time>2022-05-29T06:39:02.000Z</time></trkpt><trkpt lon="5.787932" lat="51.047483"><ele>24</ele><time>2022-05-29T06:39:03.000Z</time></trkpt><trkpt lon="5.787897" lat="51.047411"><ele>24</ele><time>2022-05-29T06:39:04.000Z</time></trkpt><trkpt lon="5.787862" lat="51.047338"><ele>24</ele><time>2022-05-29T06:39:05.000Z</time></trkpt><trkpt lon="5.787829" lat="51.047265"><ele>23.8</ele><time>2022-05-29T06:39:06.000Z</time></trkpt><trkpt lon="5.787796" lat="51.047194"><ele>23.8</ele><time>2022-05-29T06:39:07.000Z</time></trkpt><trkpt lon="5.787764" lat="51.047125"><ele>23.8</ele><time>2022-05-29T06:39:08.000Z</time></trkpt><trkpt lon="5.787734" lat="51.047056"><ele>23.8</ele><time>2022-05-29T06:39:09.000Z</time></trkpt><trkpt lon="5.787701" lat="51.046984"><ele>24</ele><time>2022-05-29T06:39:10.000Z</time></trkpt><trkpt lon="5.787669" lat="51.046916"><ele>24</ele><time>2022-05-29T06:39:11.000Z</time></trkpt><trkpt lon="5.787637" lat="51.046851"><ele>24.2</ele><time>2022-05-29T06:39:12.000Z</time></trkpt><trkpt lon="5.787606" lat="51.046782"><ele>24.4</ele><time>2022-05-29T06:39:13.000Z</time></trkpt><trkpt lon="5.787576" lat="51.046718"><ele>24.6</ele><time>2022-05-29T06:39:14.000Z</time></trkpt><trkpt lon="5.787547" lat="51.046653"><ele>24.6</ele><time>2022-05-29T06:39:15.000Z</time></trkpt><trkpt lon="5.787519" lat="51.046586"><ele>24.8</ele><time>2022-05-29T06:39:16.000Z</time></trkpt><trkpt lon="5.787493" lat="51.046519"><ele>25</ele><time>2022-05-29T06:39:17.000Z</time></trkpt><trkpt lon="5.787472" lat="51.046455"><ele>25</ele><time>2022-05-29T06:39:18.000Z</time></trkpt><trkpt lon="5.787459" lat="51.046375"><ele>25</ele><time>2022-05-29T06:39:19.000Z</time></trkpt><trkpt lon="5.787453" lat="51.046303"><ele>25</ele><time>2022-05-29T06:39:20.000Z</time></trkpt><trkpt lon="5.78745" lat="51.046229"><ele>25</ele><time>2022-05-29T06:39:21.000Z</time></trkpt><trkpt lon="5.787452" lat="51.046155"><ele>25</ele><time>2022-05-29T06:39:22.000Z</time></trkpt><trkpt lon="5.787453" lat="51.046079"><ele>24.8</ele><time>2022-05-29T06:39:23.000Z</time></trkpt><trkpt lon="5.787454" lat="51.046002"><ele>24.6</ele><time>2022-05-29T06:39:24.000Z</time></trkpt><trkpt lon="5.787457" lat="51.045926"><ele>24.4</ele><time>2022-05-29T06:39:25.000Z</time></trkpt><trkpt lon="5.787461" lat="51.045854"><ele>24.2</ele><time>2022-05-29T06:39:26.000Z</time></trkpt><trkpt lon="5.787465" lat="51.045779"><ele>24.2</ele><time>2022-05-29T06:39:27.000Z</time></trkpt><trkpt lon="5.787466" lat="51.045704"><ele>24</ele><time>2022-05-29T06:39:28.000Z</time></trkpt><trkpt lon="5.787462" lat="51.045626"><ele>23.8</ele><time>2022-05-29T06:39:29.000Z</time></trkpt><trkpt lon="5.787454" lat="51.045552"><ele>23.8</ele><time>2022-05-29T06:39:30.000Z</time></trkpt><trkpt lon="5.787442" lat="51.045478"><ele>23.6</ele><time>2022-05-29T06:39:31.000Z</time></trkpt><trkpt lon="5.787422" lat="51.045404"><ele>23.6</ele><time>2022-05-29T06:39:32.000Z</time></trkpt><trkpt lon="5.7874" lat="51.045332"><ele>23.8</ele><time>2022-05-29T06:39:33.000Z</time></trkpt><trkpt lon="5.787374" lat="51.045264"><ele>23.6</ele><time>2022-05-29T06:39:34.000Z</time></trkpt><trkpt lon="5.78734" lat="51.045191"><ele>23.6</ele><time>2022-05-29T06:39:35.000Z</time></trkpt><trkpt lon="5.787303" lat="51.045123"><ele>23.6</ele><time>2022-05-29T06:39:36.000Z</time></trkpt><trkpt lon="5.787262" lat="51.045055"><ele>23.6</ele><time>2022-05-29T06:39:37.000Z</time></trkpt><trkpt lon="5.787217" lat="51.04499"><ele>23.6</ele><time>2022-05-29T06:39:38.000Z</time></trkpt><trkpt lon="5.787167" lat="51.044924"><ele>23.6</ele><time>2022-05-29T06:39:39.000Z</time></trkpt><trkpt lon="5.787117" lat="51.044857"><ele>23.6</ele><time>2022-05-29T06:39:40.000Z</time></trkpt><trkpt lon="5.787063" lat="51.044791"><ele>23.6</ele><time>2022-05-29T06:39:41.000Z</time></trkpt><trkpt lon="5.787008" lat="51.044723"><ele>23.6</ele><time>2022-05-29T06:39:42.000Z</time></trkpt><trkpt lon="5.786955" lat="51.044659"><ele>23.6</ele><time>2022-05-29T06:39:43.000Z</time></trkpt><trkpt lon="5.786902" lat="51.044593"><ele>23.8</ele><time>2022-05-29T06:39:44.000Z</time></trkpt><trkpt lon="5.786848" lat="51.044525"><ele>23.8</ele><time>2022-05-29T06:39:45.000Z</time></trkpt><trkpt lon="5.786788" lat="51.044464"><ele>23.8</ele><time>2022-05-29T06:39:46.000Z</time></trkpt><trkpt lon="5.786723" lat="51.0444"><ele>24</ele><time>2022-05-29T06:39:47.000Z</time></trkpt><trkpt lon="5.786649" lat="51.044344"><ele>24</ele><time>2022-05-29T06:39:48.000Z</time></trkpt><trkpt lon="5.786569" lat="51.044291"><ele>24</ele><time>2022-05-29T06:39:49.000Z</time></trkpt><trkpt lon="5.786485" lat="51.044242"><ele>24</ele><time>2022-05-29T06:39:50.000Z</time></trkpt><trkpt lon="5.786395" lat="51.044196"><ele>24</ele><time>2022-05-29T06:39:51.000Z</time></trkpt><trkpt lon="5.786303" lat="51.044152"><ele>24.2</ele><time>2022-05-29T06:39:52.000Z</time></trkpt><trkpt lon="5.78621" lat="51.044109"><ele>24.2</ele><time>2022-05-29T06:39:53.000Z</time></trkpt><trkpt lon="5.786118" lat="51.044069"><ele>24</ele><time>2022-05-29T06:39:54.000Z</time></trkpt><trkpt lon="5.786024" lat="51.044027"><ele>24</ele><time>2022-05-29T06:39:55.000Z</time></trkpt><trkpt lon="5.785924" lat="51.043983"><ele>24</ele><time>2022-05-29T06:39:56.000Z</time></trkpt><trkpt lon="5.785831" lat="51.043942"><ele>23.8</ele><time>2022-05-29T06:39:57.000Z</time></trkpt><trkpt lon="5.785735" lat="51.0439"><ele>23.8</ele><time>2022-05-29T06:39:58.000Z</time></trkpt><trkpt lon="5.78564" lat="51.043857"><ele>23.6</ele><time>2022-05-29T06:39:59.000Z</time></trkpt><trkpt lon="5.785545" lat="51.043815"><ele>23.6</ele><time>2022-05-29T06:40:00.000Z</time></trkpt><trkpt lon="5.785451" lat="51.043773"><ele>23.4</ele><time>2022-05-29T06:40:01.000Z</time></trkpt><trkpt lon="5.785358" lat="51.043728"><ele>23.4</ele><time>2022-05-29T06:40:02.000Z</time></trkpt><trkpt lon="5.785267" lat="51.043686"><ele>23.4</ele><time>2022-05-29T06:40:03.000Z</time></trkpt><trkpt lon="5.785177" lat="51.043643"><ele>23.2</ele><time>2022-05-29T06:40:04.000Z</time></trkpt><trkpt lon="5.785098" lat="51.043596"><ele>23</ele><time>2022-05-29T06:40:05.000Z</time></trkpt><trkpt lon="5.785033" lat="51.043543"><ele>23</ele><time>2022-05-29T06:40:06.000Z</time></trkpt><trkpt lon="5.784982" lat="51.043491"><ele>23</ele><time>2022-05-29T06:40:07.000Z</time></trkpt><trkpt lon="5.784937" lat="51.043425"><ele>23</ele><time>2022-05-29T06:40:08.000Z</time></trkpt><trkpt lon="5.784901" lat="51.043354"><ele>23.2</ele><time>2022-05-29T06:40:09.000Z</time></trkpt><trkpt lon="5.784879" lat="51.043279"><ele>23.2</ele><time>2022-05-29T06:40:10.000Z</time></trkpt><trkpt lon="5.784869" lat="51.043206"><ele>23.2</ele><time>2022-05-29T06:40:11.000Z</time></trkpt><trkpt lon="5.784864" lat="51.043131"><ele>23.2</ele><time>2022-05-29T06:40:12.000Z</time></trkpt><trkpt lon="5.78486" lat="51.043058"><ele>23.4</ele><time>2022-05-29T06:40:13.000Z</time></trkpt><trkpt lon="5.784859" lat="51.042986"><ele>23.4</ele><time>2022-05-29T06:40:14.000Z</time></trkpt><trkpt lon="5.78486" lat="51.042913"><ele>23.4</ele><time>2022-05-29T06:40:15.000Z</time></trkpt><trkpt lon="5.78486" lat="51.042838"><ele>23.4</ele><time>2022-05-29T06:40:16.000Z</time></trkpt><trkpt lon="5.78486" lat="51.042764"><ele>23.6</ele><time>2022-05-29T06:40:17.000Z</time></trkpt><trkpt lon="5.78486" lat="51.042694"><ele>23.6</ele><time>2022-05-29T06:40:18.000Z</time></trkpt><trkpt lon="5.78486" lat="51.042624"><ele>23.8</ele><time>2022-05-29T06:40:19.000Z</time></trkpt><trkpt lon="5.784858" lat="51.042556"><ele>23.8</ele><time>2022-05-29T06:40:20.000Z</time></trkpt><trkpt lon="5.784857" lat="51.042487"><ele>24</ele><time>2022-05-29T06:40:21.000Z</time></trkpt><trkpt lon="5.784857" lat="51.042419"><ele>24</ele><time>2022-05-29T06:40:22.000Z</time></trkpt><trkpt lon="5.784857" lat="51.042353"><ele>24.2</ele><time>2022-05-29T06:40:23.000Z</time></trkpt><trkpt lon="5.784858" lat="51.042285"><ele>24.2</ele><time>2022-05-29T06:40:24.000Z</time></trkpt><trkpt lon="5.784859" lat="51.042221"><ele>24.4</ele><time>2022-05-29T06:40:25.000Z</time></trkpt><trkpt lon="5.78486" lat="51.042159"><ele>24.6</ele><time>2022-05-29T06:40:26.000Z</time></trkpt><trkpt lon="5.78486" lat="51.042094"><ele>24.8</ele><time>2022-05-29T06:40:27.000Z</time></trkpt><trkpt lon="5.784858" lat="51.042029"><ele>25</ele><time>2022-05-29T06:40:28.000Z</time></trkpt><trkpt lon="5.784856" lat="51.041962"><ele>25.2</ele><time>2022-05-29T06:40:29.000Z</time></trkpt><trkpt lon="5.784853" lat="51.041897"><ele>25.2</ele><time>2022-05-29T06:40:30.000Z</time></trkpt><trkpt lon="5.784853" lat="51.041836"><ele>25.4</ele><time>2022-05-29T06:40:31.000Z</time></trkpt><trkpt lon="5.784853" lat="51.041773"><ele>25.4</ele><time>2022-05-29T06:40:32.000Z</time></trkpt><trkpt lon="5.784848" lat="51.041708"><ele>25.4</ele><time>2022-05-29T06:40:33.000Z</time></trkpt><trkpt lon="5.784841" lat="51.041644"><ele>25.6</ele><time>2022-05-29T06:40:34.000Z</time></trkpt><trkpt lon="5.78483" lat="51.041577"><ele>25.6</ele><time>2022-05-29T06:40:35.000Z</time></trkpt><trkpt lon="5.78482" lat="51.041518"><ele>25.8</ele><time>2022-05-29T06:40:36.000Z</time></trkpt><trkpt lon="5.78481" lat="51.041462"><ele>25.8</ele><time>2022-05-29T06:40:37.000Z</time></trkpt><trkpt lon="5.7848" lat="51.041407"><ele>25.8</ele><time>2022-05-29T06:40:38.000Z</time></trkpt><trkpt lon="5.784791" lat="51.041359"><ele>26</ele><time>2022-05-29T06:40:39.000Z</time></trkpt><trkpt lon="5.784778" lat="51.041322"><ele>26</ele><time>2022-05-29T06:40:40.000Z</time></trkpt><trkpt lon="5.784752" lat="51.041286"><ele>26</ele><time>2022-05-29T06:40:41.000Z</time></trkpt><trkpt lon="5.784716" lat="51.041265"><ele>26</ele><time>2022-05-29T06:40:42.000Z</time></trkpt><trkpt lon="5.784663" lat="51.041256"><ele>26</ele><time>2022-05-29T06:40:43.000Z</time></trkpt><trkpt lon="5.784595" lat="51.041257"><ele>26</ele><time>2022-05-29T06:40:44.000Z</time></trkpt><trkpt lon="5.784516" lat="51.041266"><ele>26</ele><time>2022-05-29T06:40:45.000Z</time></trkpt><trkpt lon="5.784425" lat="51.041277"><ele>26</ele><time>2022-05-29T06:40:46.000Z</time></trkpt><trkpt lon="5.784322" lat="51.04129"><ele>26</ele><time>2022-05-29T06:40:47.000Z</time></trkpt><trkpt lon="5.784212" lat="51.041308"><ele>26</ele><time>2022-05-29T06:40:48.000Z</time></trkpt><trkpt lon="5.784098" lat="51.041319"><ele>25.8</ele><time>2022-05-29T06:40:49.000Z</time></trkpt><trkpt lon="5.78398" lat="51.04133"><ele>25.8</ele><time>2022-05-29T06:40:50.000Z</time></trkpt><trkpt lon="5.783865" lat="51.041338"><ele>25.6</ele><time>2022-05-29T06:40:51.000Z</time></trkpt><trkpt lon="5.783751" lat="51.041344"><ele>25.6</ele><time>2022-05-29T06:40:52.000Z</time></trkpt><trkpt lon="5.783639" lat="51.041348"><ele>25.6</ele><time>2022-05-29T06:40:53.000Z</time></trkpt><trkpt lon="5.783526" lat="51.041352"><ele>25.4</ele><time>2022-05-29T06:40:54.000Z</time></trkpt><trkpt lon="5.783423" lat="51.041355"><ele>25.4</ele><time>2022-05-29T06:40:55.000Z</time></trkpt><trkpt lon="5.783324" lat="51.041355"><ele>25.4</ele><time>2022-05-29T06:40:56.000Z</time></trkpt><trkpt lon="5.783201" lat="51.041351"><ele>25.4</ele><time>2022-05-29T06:40:57.000Z</time></trkpt><trkpt lon="5.783093" lat="51.041351"><ele>25.4</ele><time>2022-05-29T06:40:58.000Z</time></trkpt><trkpt lon="5.782989" lat="51.041351"><ele>25.4</ele><time>2022-05-29T06:40:59.000Z</time></trkpt><trkpt lon="5.782888" lat="51.041351"><ele>25.4</ele><time>2022-05-29T06:41:00.000Z</time></trkpt><trkpt lon="5.782784" lat="51.041347"><ele>25.4</ele><time>2022-05-29T06:41:01.000Z</time></trkpt><trkpt lon="5.78268" lat="51.041346"><ele>25.2</ele><time>2022-05-29T06:41:02.000Z</time></trkpt><trkpt lon="5.782575" lat="51.041338"><ele>25.2</ele><time>2022-05-29T06:41:03.000Z</time></trkpt><trkpt lon="5.782473" lat="51.04133"><ele>25.2</ele><time>2022-05-29T06:41:04.000Z</time></trkpt><trkpt lon="5.782371" lat="51.041319"><ele>25.2</ele><time>2022-05-29T06:41:05.000Z</time></trkpt><trkpt lon="5.782271" lat="51.041311"><ele>25</ele><time>2022-05-29T06:41:06.000Z</time></trkpt><trkpt lon="5.782169" lat="51.041299"><ele>25</ele><time>2022-05-29T06:41:07.000Z</time></trkpt><trkpt lon="5.782062" lat="51.04128"><ele>25</ele><time>2022-05-29T06:41:08.000Z</time></trkpt><trkpt lon="5.781958" lat="51.041265"><ele>25</ele><time>2022-05-29T06:41:09.000Z</time></trkpt><trkpt lon="5.781856" lat="51.041254"><ele>24.8</ele><time>2022-05-29T06:41:10.000Z</time></trkpt><trkpt lon="5.781753" lat="51.041243"><ele>24.8</ele><time>2022-05-29T06:41:11.000Z</time></trkpt><trkpt lon="5.781648" lat="51.041236"><ele>25</ele><time>2022-05-29T06:41:12.000Z</time></trkpt><trkpt lon="5.781539" lat="51.041228"><ele>25</ele><time>2022-05-29T06:41:13.000Z</time></trkpt><trkpt lon="5.781432" lat="51.041222"><ele>25</ele><time>2022-05-29T06:41:14.000Z</time></trkpt><trkpt lon="5.781331" lat="51.041227"><ele>25</ele><time>2022-05-29T06:41:15.000Z</time></trkpt><trkpt lon="5.781237" lat="51.041235"><ele>25</ele><time>2022-05-29T06:41:16.000Z</time></trkpt><trkpt lon="5.781148" lat="51.041246"><ele>24.8</ele><time>2022-05-29T06:41:17.000Z</time></trkpt><trkpt lon="5.781064" lat="51.041254"><ele>24.8</ele><time>2022-05-29T06:41:18.000Z</time></trkpt><trkpt lon="5.780983" lat="51.041259"><ele>25</ele><time>2022-05-29T06:41:19.000Z</time></trkpt><trkpt lon="5.780905" lat="51.041255"><ele>25</ele><time>2022-05-29T06:41:20.000Z</time></trkpt><trkpt lon="5.780828" lat="51.041245"><ele>25.2</ele><time>2022-05-29T06:41:21.000Z</time></trkpt><trkpt lon="5.780759" lat="51.041224"><ele>25.2</ele><time>2022-05-29T06:41:22.000Z</time></trkpt><trkpt lon="5.780703" lat="51.041191"><ele>25.4</ele><time>2022-05-29T06:41:23.000Z</time></trkpt><trkpt lon="5.780656" lat="51.041148"><ele>25.4</ele><time>2022-05-29T06:41:24.000Z</time></trkpt><trkpt lon="5.780614" lat="51.041093"><ele>25.4</ele><time>2022-05-29T06:41:25.000Z</time></trkpt><trkpt lon="5.780578" lat="51.041036"><ele>25.4</ele><time>2022-05-29T06:41:26.000Z</time></trkpt><trkpt lon="5.780528" lat="51.040962"><ele>25.6</ele><time>2022-05-29T06:41:27.000Z</time></trkpt><trkpt lon="5.780483" lat="51.040902"><ele>25.6</ele><time>2022-05-29T06:41:28.000Z</time></trkpt><trkpt lon="5.780434" lat="51.04084"><ele>25.6</ele><time>2022-05-29T06:41:29.000Z</time></trkpt><trkpt lon="5.780375" lat="51.040779"><ele>25.6</ele><time>2022-05-29T06:41:30.000Z</time></trkpt><trkpt lon="5.780314" lat="51.040719"><ele>25.8</ele><time>2022-05-29T06:41:31.000Z</time></trkpt><trkpt lon="5.780246" lat="51.040667"><ele>25.8</ele><time>2022-05-29T06:41:32.000Z</time></trkpt><trkpt lon="5.780174" lat="51.040623"><ele>25.8</ele><time>2022-05-29T06:41:33.000Z</time></trkpt><trkpt lon="5.780093" lat="51.04058"><ele>26</ele><time>2022-05-29T06:41:34.000Z</time></trkpt><trkpt lon="5.780006" lat="51.040535"><ele>26</ele><time>2022-05-29T06:41:35.000Z</time></trkpt><trkpt lon="5.779916" lat="51.04049"><ele>26</ele><time>2022-05-29T06:41:36.000Z</time></trkpt><trkpt lon="5.779823" lat="51.040451"><ele>26</ele><time>2022-05-29T06:41:37.000Z</time></trkpt><trkpt lon="5.779733" lat="51.04041"><ele>26.2</ele><time>2022-05-29T06:41:38.000Z</time></trkpt><trkpt lon="5.779644" lat="51.040372"><ele>26.2</ele><time>2022-05-29T06:41:39.000Z</time></trkpt><trkpt lon="5.779557" lat="51.040334"><ele>26.2</ele><time>2022-05-29T06:41:40.000Z</time></trkpt><trkpt lon="5.779467" lat="51.040291"><ele>26.2</ele><time>2022-05-29T06:41:41.000Z</time></trkpt><trkpt lon="5.779381" lat="51.040254"><ele>26</ele><time>2022-05-29T06:41:42.000Z</time></trkpt><trkpt lon="5.779292" lat="51.040214"><ele>26</ele><time>2022-05-29T06:41:43.000Z</time></trkpt><trkpt lon="5.779206" lat="51.040173"><ele>26</ele><time>2022-05-29T06:41:44.000Z</time></trkpt><trkpt lon="5.779119" lat="51.040134"><ele>25.8</ele><time>2022-05-29T06:41:45.000Z</time></trkpt><trkpt lon="5.779032" lat="51.040093"><ele>26</ele><time>2022-05-29T06:41:46.000Z</time></trkpt><trkpt lon="5.778944" lat="51.040054"><ele>26</ele><time>2022-05-29T06:41:47.000Z</time></trkpt><trkpt lon="5.778858" lat="51.040014"><ele>26</ele><time>2022-05-29T06:41:48.000Z</time></trkpt><trkpt lon="5.778773" lat="51.039977"><ele>26</ele><time>2022-05-29T06:41:49.000Z</time></trkpt><trkpt lon="5.778681" lat="51.039932"><ele>26.2</ele><time>2022-05-29T06:41:50.000Z</time></trkpt><trkpt lon="5.778595" lat="51.039891"><ele>26.2</ele><time>2022-05-29T06:41:51.000Z</time></trkpt><trkpt lon="5.778512" lat="51.039853"><ele>26.2</ele><time>2022-05-29T06:41:52.000Z</time></trkpt><trkpt lon="5.778428" lat="51.039814"><ele>26.4</ele><time>2022-05-29T06:41:53.000Z</time></trkpt><trkpt lon="5.778345" lat="51.039777"><ele>26.4</ele><time>2022-05-29T06:41:54.000Z</time></trkpt><trkpt lon="5.778259" lat="51.039739"><ele>26.4</ele><time>2022-05-29T06:41:55.000Z</time></trkpt><trkpt lon="5.778176" lat="51.039704"><ele>26.4</ele><time>2022-05-29T06:41:56.000Z</time></trkpt><trkpt lon="5.778095" lat="51.039666"><ele>26.2</ele><time>2022-05-29T06:41:57.000Z</time></trkpt><trkpt lon="5.778015" lat="51.039627"><ele>26.2</ele><time>2022-05-29T06:41:58.000Z</time></trkpt><trkpt lon="5.777935" lat="51.039589"><ele>26.2</ele><time>2022-05-29T06:41:59.000Z</time></trkpt><trkpt lon="5.777856" lat="51.039552"><ele>26.4</ele><time>2022-05-29T06:42:00.000Z</time></trkpt><trkpt lon="5.777775" lat="51.039513"><ele>26.4</ele><time>2022-05-29T06:42:01.000Z</time></trkpt><trkpt lon="5.777695" lat="51.039474"><ele>26.4</ele><time>2022-05-29T06:42:02.000Z</time></trkpt><trkpt lon="5.777614" lat="51.039431"><ele>26.4</ele><time>2022-05-29T06:42:03.000Z</time></trkpt><trkpt lon="5.777532" lat="51.039386"><ele>26.4</ele><time>2022-05-29T06:42:04.000Z</time></trkpt><trkpt lon="5.777446" lat="51.039341"><ele>26.4</ele><time>2022-05-29T06:42:05.000Z</time></trkpt><trkpt lon="5.777356" lat="51.039298"><ele>26.4</ele><time>2022-05-29T06:42:06.000Z</time></trkpt><trkpt lon="5.777262" lat="51.039253"><ele>26.4</ele><time>2022-05-29T06:42:07.000Z</time></trkpt><trkpt lon="5.777173" lat="51.039212"><ele>26.2</ele><time>2022-05-29T06:42:08.000Z</time></trkpt><trkpt lon="5.77708" lat="51.039165"><ele>26.2</ele><time>2022-05-29T06:42:09.000Z</time></trkpt><trkpt lon="5.776991" lat="51.039123"><ele>26.2</ele><time>2022-05-29T06:42:10.000Z</time></trkpt><trkpt lon="5.776904" lat="51.039077"><ele>26.2</ele><time>2022-05-29T06:42:11.000Z</time></trkpt><trkpt lon="5.776821" lat="51.039037"><ele>26.2</ele><time>2022-05-29T06:42:12.000Z</time></trkpt><trkpt lon="5.776737" lat="51.038994"><ele>26.2</ele><time>2022-05-29T06:42:13.000Z</time></trkpt><trkpt lon="5.776655" lat="51.038953"><ele>26.4</ele><time>2022-05-29T06:42:14.000Z</time></trkpt><trkpt lon="5.776573" lat="51.038916"><ele>26.4</ele><time>2022-05-29T06:42:15.000Z</time></trkpt><trkpt lon="5.776489" lat="51.038878"><ele>26.6</ele><time>2022-05-29T06:42:16.000Z</time></trkpt><trkpt lon="5.776398" lat="51.038845"><ele>26.4</ele><time>2022-05-29T06:42:17.000Z</time></trkpt><trkpt lon="5.776305" lat="51.038817"><ele>26.4</ele><time>2022-05-29T06:42:18.000Z</time></trkpt><trkpt lon="5.776216" lat="51.038791"><ele>26.4</ele><time>2022-05-29T06:42:19.000Z</time></trkpt><trkpt lon="5.776129" lat="51.038769"><ele>26.6</ele><time>2022-05-29T06:42:20.000Z</time></trkpt><trkpt lon="5.776052" lat="51.03875"><ele>26.6</ele><time>2022-05-29T06:42:21.000Z</time></trkpt><trkpt lon="5.775981" lat="51.038732"><ele>26.6</ele><time>2022-05-29T06:42:22.000Z</time></trkpt><trkpt lon="5.775909" lat="51.038712"><ele>26.8</ele><time>2022-05-29T06:42:23.000Z</time></trkpt><trkpt lon="5.775854" lat="51.038696"><ele>26.8</ele><time>2022-05-29T06:42:24.000Z</time></trkpt><trkpt lon="5.77581" lat="51.038671"><ele>26.8</ele><time>2022-05-29T06:42:25.000Z</time></trkpt><trkpt lon="5.775778" lat="51.038639"><ele>26.8</ele><time>2022-05-29T06:42:26.000Z</time></trkpt><trkpt lon="5.77576" lat="51.038597"><ele>26.8</ele><time>2022-05-29T06:42:27.000Z</time></trkpt><trkpt lon="5.775764" lat="51.038552"><ele>26.8</ele><time>2022-05-29T06:42:28.000Z</time></trkpt><trkpt lon="5.775796" lat="51.038504"><ele>27</ele><time>2022-05-29T06:42:29.000Z</time></trkpt><trkpt lon="5.77584" lat="51.038454"><ele>27</ele><time>2022-05-29T06:42:30.000Z</time></trkpt><trkpt lon="5.775894" lat="51.038404"><ele>27</ele><time>2022-05-29T06:42:31.000Z</time></trkpt><trkpt lon="5.775951" lat="51.038351"><ele>27</ele><time>2022-05-29T06:42:32.000Z</time></trkpt><trkpt lon="5.776011" lat="51.038301"><ele>27.2</ele><time>2022-05-29T06:42:33.000Z</time></trkpt><trkpt lon="5.776078" lat="51.038251"><ele>27.2</ele><time>2022-05-29T06:42:34.000Z</time></trkpt><trkpt lon="5.776146" lat="51.038198"><ele>27</ele><time>2022-05-29T06:42:35.000Z</time></trkpt><trkpt lon="5.776215" lat="51.038144"><ele>27</ele><time>2022-05-29T06:42:36.000Z</time></trkpt><trkpt lon="5.776286" lat="51.038092"><ele>27</ele><time>2022-05-29T06:42:37.000Z</time></trkpt><trkpt lon="5.776355" lat="51.038043"><ele>26.8</ele><time>2022-05-29T06:42:38.000Z</time></trkpt><trkpt lon="5.776422" lat="51.037987"><ele>26.8</ele><time>2022-05-29T06:42:39.000Z</time></trkpt><trkpt lon="5.776485" lat="51.037929"><ele>26.8</ele><time>2022-05-29T06:42:40.000Z</time></trkpt><trkpt lon="5.776547" lat="51.037869"><ele>26.8</ele><time>2022-05-29T06:42:41.000Z</time></trkpt><trkpt lon="5.776608" lat="51.037809"><ele>26.8</ele><time>2022-05-29T06:42:42.000Z</time></trkpt><trkpt lon="5.776673" lat="51.037746"><ele>26.8</ele><time>2022-05-29T06:42:43.000Z</time></trkpt><trkpt lon="5.776732" lat="51.037686"><ele>26.8</ele><time>2022-05-29T06:42:44.000Z</time></trkpt><trkpt lon="5.776791" lat="51.037629"><ele>26.8</ele><time>2022-05-29T06:42:45.000Z</time></trkpt><trkpt lon="5.77685" lat="51.037573"><ele>26.8</ele><time>2022-05-29T06:42:46.000Z</time></trkpt><trkpt lon="5.776906" lat="51.037515"><ele>26.8</ele><time>2022-05-29T06:42:47.000Z</time></trkpt><trkpt lon="5.77696" lat="51.037457"><ele>26.8</ele><time>2022-05-29T06:42:48.000Z</time></trkpt><trkpt lon="5.777013" lat="51.0374"><ele>26.8</ele><time>2022-05-29T06:42:49.000Z</time></trkpt><trkpt lon="5.777065" lat="51.037344"><ele>26.8</ele><time>2022-05-29T06:42:50.000Z</time></trkpt><trkpt lon="5.777116" lat="51.037285"><ele>26.8</ele><time>2022-05-29T06:42:51.000Z</time></trkpt><trkpt lon="5.777166" lat="51.037224"><ele>26.8</ele><time>2022-05-29T06:42:52.000Z</time></trkpt><trkpt lon="5.777216" lat="51.037163"><ele>26.8</ele><time>2022-05-29T06:42:53.000Z</time></trkpt><trkpt lon="5.777266" lat="51.037102"><ele>26.8</ele><time>2022-05-29T06:42:54.000Z</time></trkpt><trkpt lon="5.777314" lat="51.037041"><ele>26.6</ele><time>2022-05-29T06:42:55.000Z</time></trkpt><trkpt lon="5.777359" lat="51.036981"><ele>26.6</ele><time>2022-05-29T06:42:56.000Z</time></trkpt><trkpt lon="5.777403" lat="51.036918"><ele>26.6</ele><time>2022-05-29T06:42:57.000Z</time></trkpt><trkpt lon="5.777444" lat="51.036853"><ele>26.6</ele><time>2022-05-29T06:42:58.000Z</time></trkpt><trkpt lon="5.777485" lat="51.036788"><ele>26.6</ele><time>2022-05-29T06:42:59.000Z</time></trkpt><trkpt lon="5.777525" lat="51.036726"><ele>26.6</ele><time>2022-05-29T06:43:00.000Z</time></trkpt><trkpt lon="5.777566" lat="51.036658"><ele>26.6</ele><time>2022-05-29T06:43:01.000Z</time></trkpt><trkpt lon="5.777607" lat="51.036593"><ele>26.6</ele><time>2022-05-29T06:43:02.000Z</time></trkpt><trkpt lon="5.777647" lat="51.036525"><ele>26.6</ele><time>2022-05-29T06:43:03.000Z</time></trkpt><trkpt lon="5.777686" lat="51.036455"><ele>26.2</ele><time>2022-05-29T06:43:04.000Z</time></trkpt><trkpt lon="5.777721" lat="51.036387"><ele>26.4</ele><time>2022-05-29T06:43:05.000Z</time></trkpt><trkpt lon="5.77775" lat="51.036316"><ele>26.2</ele><time>2022-05-29T06:43:06.000Z</time></trkpt><trkpt lon="5.777774" lat="51.036242"><ele>26.2</ele><time>2022-05-29T06:43:07.000Z</time></trkpt><trkpt lon="5.777798" lat="51.036173"><ele>26.2</ele><time>2022-05-29T06:43:08.000Z</time></trkpt><trkpt lon="5.777821" lat="51.036104"><ele>26.2</ele><time>2022-05-29T06:43:09.000Z</time></trkpt><trkpt lon="5.777842" lat="51.036036"><ele>26.2</ele><time>2022-05-29T06:43:10.000Z</time></trkpt><trkpt lon="5.777862" lat="51.035968"><ele>26.2</ele><time>2022-05-29T06:43:11.000Z</time></trkpt><trkpt lon="5.777882" lat="51.0359"><ele>26.2</ele><time>2022-05-29T06:43:12.000Z</time></trkpt><trkpt lon="5.777902" lat="51.035831"><ele>26</ele><time>2022-05-29T06:43:13.000Z</time></trkpt><trkpt lon="5.777923" lat="51.035766"><ele>26</ele><time>2022-05-29T06:43:14.000Z</time></trkpt><trkpt lon="5.777944" lat="51.035696"><ele>26</ele><time>2022-05-29T06:43:15.000Z</time></trkpt><trkpt lon="5.777966" lat="51.035628"><ele>26</ele><time>2022-05-29T06:43:16.000Z</time></trkpt><trkpt lon="5.777985" lat="51.03556"><ele>26</ele><time>2022-05-29T06:43:17.000Z</time></trkpt><trkpt lon="5.778004" lat="51.035493"><ele>26.2</ele><time>2022-05-29T06:43:18.000Z</time></trkpt><trkpt lon="5.778025" lat="51.035428"><ele>26</ele><time>2022-05-29T06:43:19.000Z</time></trkpt><trkpt lon="5.778046" lat="51.035357"><ele>26.2</ele><time>2022-05-29T06:43:20.000Z</time></trkpt><trkpt lon="5.778065" lat="51.035292"><ele>26.2</ele><time>2022-05-29T06:43:21.000Z</time></trkpt><trkpt lon="5.778084" lat="51.035224"><ele>26.4</ele><time>2022-05-29T06:43:22.000Z</time></trkpt><trkpt lon="5.778103" lat="51.035156"><ele>26.4</ele><time>2022-05-29T06:43:23.000Z</time></trkpt><trkpt lon="5.778122" lat="51.035088"><ele>26.4</ele><time>2022-05-29T06:43:24.000Z</time></trkpt><trkpt lon="5.778145" lat="51.035021"><ele>26.4</ele><time>2022-05-29T06:43:25.000Z</time></trkpt><trkpt lon="5.778168" lat="51.034952"><ele>26.4</ele><time>2022-05-29T06:43:26.000Z</time></trkpt><trkpt lon="5.778193" lat="51.034883"><ele>26.4</ele><time>2022-05-29T06:43:27.000Z</time></trkpt><trkpt lon="5.778223" lat="51.034811"><ele>26.4</ele><time>2022-05-29T06:43:28.000Z</time></trkpt><trkpt lon="5.778256" lat="51.034738"><ele>26.4</ele><time>2022-05-29T06:43:29.000Z</time></trkpt><trkpt lon="5.778291" lat="51.034664"><ele>26.4</ele><time>2022-05-29T06:43:30.000Z</time></trkpt><trkpt lon="5.778321" lat="51.034598"><ele>26.4</ele><time>2022-05-29T06:43:31.000Z</time></trkpt><trkpt lon="5.778363" lat="51.03451"><ele>26.4</ele><time>2022-05-29T06:43:32.000Z</time></trkpt><trkpt lon="5.778398" lat="51.034432"><ele>26.2</ele><time>2022-05-29T06:43:33.000Z</time></trkpt><trkpt lon="5.778429" lat="51.034358"><ele>26</ele><time>2022-05-29T06:43:34.000Z</time></trkpt><trkpt lon="5.778458" lat="51.03429"><ele>26</ele><time>2022-05-29T06:43:35.000Z</time></trkpt><trkpt lon="5.778489" lat="51.034216"><ele>26</ele><time>2022-05-29T06:43:36.000Z</time></trkpt><trkpt lon="5.778517" lat="51.034147"><ele>26</ele><time>2022-05-29T06:43:37.000Z</time></trkpt><trkpt lon="5.778545" lat="51.03408"><ele>26.2</ele><time>2022-05-29T06:43:38.000Z</time></trkpt><trkpt lon="5.778573" lat="51.034011"><ele>26.2</ele><time>2022-05-29T06:43:39.000Z</time></trkpt><trkpt lon="5.778599" lat="51.033944"><ele>26.2</ele><time>2022-05-29T06:43:40.000Z</time></trkpt><trkpt lon="5.778629" lat="51.033873"><ele>26.2</ele><time>2022-05-29T06:43:41.000Z</time></trkpt><trkpt lon="5.778659" lat="51.033804"><ele>26.4</ele><time>2022-05-29T06:43:42.000Z</time></trkpt><trkpt lon="5.778689" lat="51.033736"><ele>26.4</ele><time>2022-05-29T06:43:43.000Z</time></trkpt><trkpt lon="5.778718" lat="51.033668"><ele>26.4</ele><time>2022-05-29T06:43:44.000Z</time></trkpt><trkpt lon="5.778748" lat="51.033598"><ele>26.4</ele><time>2022-05-29T06:43:45.000Z</time></trkpt><trkpt lon="5.778777" lat="51.033531"><ele>26.4</ele><time>2022-05-29T06:43:46.000Z</time></trkpt><trkpt lon="5.778806" lat="51.033467"><ele>26.4</ele><time>2022-05-29T06:43:47.000Z</time></trkpt><trkpt lon="5.778838" lat="51.033398"><ele>26.4</ele><time>2022-05-29T06:43:48.000Z</time></trkpt><trkpt lon="5.778867" lat="51.033328"><ele>26.4</ele><time>2022-05-29T06:43:49.000Z</time></trkpt><trkpt lon="5.778894" lat="51.03326"><ele>26.4</ele><time>2022-05-29T06:43:50.000Z</time></trkpt><trkpt lon="5.778921" lat="51.033187"><ele>26.6</ele><time>2022-05-29T06:43:51.000Z</time></trkpt><trkpt lon="5.778948" lat="51.033117"><ele>26.4</ele><time>2022-05-29T06:43:52.000Z</time></trkpt><trkpt lon="5.778974" lat="51.033049"><ele>26.4</ele><time>2022-05-29T06:43:53.000Z</time></trkpt><trkpt lon="5.779002" lat="51.032979"><ele>26.4</ele><time>2022-05-29T06:43:54.000Z</time></trkpt><trkpt lon="5.779031" lat="51.032908"><ele>26.4</ele><time>2022-05-29T06:43:55.000Z</time></trkpt><trkpt lon="5.779061" lat="51.03284"><ele>26.4</ele><time>2022-05-29T06:43:56.000Z</time></trkpt><trkpt lon="5.779091" lat="51.032773"><ele>26.6</ele><time>2022-05-29T06:43:57.000Z</time></trkpt><trkpt lon="5.779121" lat="51.032697"><ele>26.6</ele><time>2022-05-29T06:43:58.000Z</time></trkpt><trkpt lon="5.77915" lat="51.032625"><ele>26.6</ele><time>2022-05-29T06:43:59.000Z</time></trkpt><trkpt lon="5.77918" lat="51.032553"><ele>26.8</ele><time>2022-05-29T06:44:00.000Z</time></trkpt><trkpt lon="5.779208" lat="51.032482"><ele>26.8</ele><time>2022-05-29T06:44:01.000Z</time></trkpt><trkpt lon="5.779232" lat="51.032412"><ele>26.8</ele><time>2022-05-29T06:44:02.000Z</time></trkpt><trkpt lon="5.779254" lat="51.032343"><ele>26.8</ele><time>2022-05-29T06:44:03.000Z</time></trkpt><trkpt lon="5.779273" lat="51.032272"><ele>27</ele><time>2022-05-29T06:44:04.000Z</time></trkpt><trkpt lon="5.77929" lat="51.032204"><ele>27</ele><time>2022-05-29T06:44:05.000Z</time></trkpt><trkpt lon="5.779306" lat="51.032134"><ele>27.2</ele><time>2022-05-29T06:44:06.000Z</time></trkpt><trkpt lon="5.779321" lat="51.032067"><ele>27.4</ele><time>2022-05-29T06:44:07.000Z</time></trkpt><trkpt lon="5.779337" lat="51.031995"><ele>27.4</ele><time>2022-05-29T06:44:08.000Z</time></trkpt><trkpt lon="5.779355" lat="51.031924"><ele>27.6</ele><time>2022-05-29T06:44:09.000Z</time></trkpt><trkpt lon="5.779375" lat="51.031856"><ele>27.8</ele><time>2022-05-29T06:44:10.000Z</time></trkpt><trkpt lon="5.779397" lat="51.031783"><ele>27.8</ele><time>2022-05-29T06:44:11.000Z</time></trkpt><trkpt lon="5.779419" lat="51.031714"><ele>28</ele><time>2022-05-29T06:44:12.000Z</time></trkpt><trkpt lon="5.779439" lat="51.031641"><ele>28</ele><time>2022-05-29T06:44:13.000Z</time></trkpt><trkpt lon="5.779461" lat="51.031569"><ele>28</ele><time>2022-05-29T06:44:14.000Z</time></trkpt><trkpt lon="5.779485" lat="51.031491"><ele>28</ele><time>2022-05-29T06:44:15.000Z</time></trkpt><trkpt lon="5.779508" lat="51.031419"><ele>28</ele><time>2022-05-29T06:44:16.000Z</time></trkpt><trkpt lon="5.77953" lat="51.031345"><ele>28</ele><time>2022-05-29T06:44:17.000Z</time></trkpt><trkpt lon="5.779552" lat="51.031271"><ele>28</ele><time>2022-05-29T06:44:18.000Z</time></trkpt><trkpt lon="5.779577" lat="51.031197"><ele>28</ele><time>2022-05-29T06:44:19.000Z</time></trkpt><trkpt lon="5.779603" lat="51.031123"><ele>28.2</ele><time>2022-05-29T06:44:20.000Z</time></trkpt><trkpt lon="5.77963" lat="51.031049"><ele>28.2</ele><time>2022-05-29T06:44:21.000Z</time></trkpt><trkpt lon="5.779656" lat="51.030977"><ele>28.2</ele><time>2022-05-29T06:44:22.000Z</time></trkpt><trkpt lon="5.77968" lat="51.030905"><ele>28.2</ele><time>2022-05-29T06:44:23.000Z</time></trkpt><trkpt lon="5.779704" lat="51.030834"><ele>28.4</ele><time>2022-05-29T06:44:24.000Z</time></trkpt><trkpt lon="5.779728" lat="51.030759"><ele>28.4</ele><time>2022-05-29T06:44:25.000Z</time></trkpt><trkpt lon="5.77975" lat="51.030688"><ele>28.4</ele><time>2022-05-29T06:44:26.000Z</time></trkpt><trkpt lon="5.779772" lat="51.030616"><ele>28.4</ele><time>2022-05-29T06:44:27.000Z</time></trkpt><trkpt lon="5.779793" lat="51.030548"><ele>28.4</ele><time>2022-05-29T06:44:28.000Z</time></trkpt><trkpt lon="5.779818" lat="51.030477"><ele>28.4</ele><time>2022-05-29T06:44:29.000Z</time></trkpt><trkpt lon="5.779844" lat="51.030409"><ele>28.4</ele><time>2022-05-29T06:44:30.000Z</time></trkpt><trkpt lon="5.779865" lat="51.03034"><ele>28.4</ele><time>2022-05-29T06:44:31.000Z</time></trkpt><trkpt lon="5.779886" lat="51.030272"><ele>28.4</ele><time>2022-05-29T06:44:32.000Z</time></trkpt><trkpt lon="5.779907" lat="51.030203"><ele>28.4</ele><time>2022-05-29T06:44:33.000Z</time></trkpt><trkpt lon="5.779928" lat="51.030134"><ele>28.4</ele><time>2022-05-29T06:44:34.000Z</time></trkpt><trkpt lon="5.779949" lat="51.030066"><ele>28.4</ele><time>2022-05-29T06:44:35.000Z</time></trkpt><trkpt lon="5.779972" lat="51.029999"><ele>28.6</ele><time>2022-05-29T06:44:36.000Z</time></trkpt><trkpt lon="5.779996" lat="51.029929"><ele>28.6</ele><time>2022-05-29T06:44:37.000Z</time></trkpt><trkpt lon="5.780017" lat="51.029865"><ele>28.6</ele><time>2022-05-29T06:44:38.000Z</time></trkpt><trkpt lon="5.780037" lat="51.029795"><ele>28.8</ele><time>2022-05-29T06:44:39.000Z</time></trkpt><trkpt lon="5.780055" lat="51.02973"><ele>28.6</ele><time>2022-05-29T06:44:40.000Z</time></trkpt><trkpt lon="5.780074" lat="51.029661"><ele>28.6</ele><time>2022-05-29T06:44:41.000Z</time></trkpt><trkpt lon="5.780096" lat="51.029592"><ele>28.6</ele><time>2022-05-29T06:44:42.000Z</time></trkpt><trkpt lon="5.780121" lat="51.029523"><ele>28.4</ele><time>2022-05-29T06:44:43.000Z</time></trkpt><trkpt lon="5.780152" lat="51.029455"><ele>28.4</ele><time>2022-05-29T06:44:44.000Z</time></trkpt><trkpt lon="5.780187" lat="51.029383"><ele>28.4</ele><time>2022-05-29T06:44:45.000Z</time></trkpt><trkpt lon="5.780223" lat="51.029313"><ele>28.6</ele><time>2022-05-29T06:44:46.000Z</time></trkpt><trkpt lon="5.780262" lat="51.029242"><ele>28.6</ele><time>2022-05-29T06:44:47.000Z</time></trkpt><trkpt lon="5.7803" lat="51.029171"><ele>28.8</ele><time>2022-05-29T06:44:48.000Z</time></trkpt><trkpt lon="5.780338" lat="51.029101"><ele>28.8</ele><time>2022-05-29T06:44:49.000Z</time></trkpt><trkpt lon="5.780373" lat="51.029034"><ele>28.8</ele><time>2022-05-29T06:44:50.000Z</time></trkpt><trkpt lon="5.780412" lat="51.028965"><ele>28.8</ele><time>2022-05-29T06:44:51.000Z</time></trkpt><trkpt lon="5.780454" lat="51.028895"><ele>28.8</ele><time>2022-05-29T06:44:52.000Z</time></trkpt><trkpt lon="5.780498" lat="51.028831"><ele>28.8</ele><time>2022-05-29T06:44:53.000Z</time></trkpt><trkpt lon="5.780543" lat="51.028768"><ele>28.8</ele><time>2022-05-29T06:44:54.000Z</time></trkpt><trkpt lon="5.780591" lat="51.028697"><ele>28.8</ele><time>2022-05-29T06:44:55.000Z</time></trkpt><trkpt lon="5.78064" lat="51.028633"><ele>28.8</ele><time>2022-05-29T06:44:56.000Z</time></trkpt><trkpt lon="5.780691" lat="51.028569"><ele>28.8</ele><time>2022-05-29T06:44:57.000Z</time></trkpt><trkpt lon="5.780745" lat="51.028508"><ele>28.8</ele><time>2022-05-29T06:44:58.000Z</time></trkpt><trkpt lon="5.7808" lat="51.028446"><ele>28.8</ele><time>2022-05-29T06:44:59.000Z</time></trkpt><trkpt lon="5.780855" lat="51.028384"><ele>28.8</ele><time>2022-05-29T06:45:00.000Z</time></trkpt><trkpt lon="5.780932" lat="51.028324"><ele>28.8</ele><time>2022-05-29T06:45:01.000Z</time></trkpt><trkpt lon="5.78101" lat="51.028263"><ele>28.8</ele><time>2022-05-29T06:45:02.000Z</time></trkpt><trkpt lon="5.781084" lat="51.028204"><ele>28.8</ele><time>2022-05-29T06:45:03.000Z</time></trkpt><trkpt lon="5.781136" lat="51.028154"><ele>28.8</ele><time>2022-05-29T06:45:04.000Z</time></trkpt><trkpt lon="5.781167" lat="51.028102"><ele>28.8</ele><time>2022-05-29T06:45:05.000Z</time></trkpt><trkpt lon="5.781203" lat="51.028044"><ele>28.8</ele><time>2022-05-29T06:45:06.000Z</time></trkpt><trkpt lon="5.781262" lat="51.027959"><ele>28.6</ele><time>2022-05-29T06:45:07.000Z</time></trkpt><trkpt lon="5.78131" lat="51.027894"><ele>28.4</ele><time>2022-05-29T06:45:08.000Z</time></trkpt><trkpt lon="5.78132" lat="51.027853"><ele>28.4</ele><time>2022-05-29T06:45:09.000Z</time></trkpt><trkpt lon="5.781365" lat="51.027789"><ele>28.2</ele><time>2022-05-29T06:45:10.000Z</time></trkpt><trkpt lon="5.781414" lat="51.027723"><ele>28.2</ele><time>2022-05-29T06:45:11.000Z</time></trkpt><trkpt lon="5.781451" lat="51.027655"><ele>28</ele><time>2022-05-29T06:45:12.000Z</time></trkpt><trkpt lon="5.78149" lat="51.027591"><ele>28.2</ele><time>2022-05-29T06:45:13.000Z</time></trkpt><trkpt lon="5.781526" lat="51.027533"><ele>28.2</ele><time>2022-05-29T06:45:14.000Z</time></trkpt><trkpt lon="5.781567" lat="51.02747"><ele>28.2</ele><time>2022-05-29T06:45:15.000Z</time></trkpt><trkpt lon="5.781601" lat="51.027414"><ele>28.2</ele><time>2022-05-29T06:45:16.000Z</time></trkpt><trkpt lon="5.781632" lat="51.027363"><ele>28.2</ele><time>2022-05-29T06:45:17.000Z</time></trkpt><trkpt lon="5.781666" lat="51.027306"><ele>28.2</ele><time>2022-05-29T06:45:18.000Z</time></trkpt><trkpt lon="5.781692" lat="51.027249"><ele>28.2</ele><time>2022-05-29T06:45:19.000Z</time></trkpt><trkpt lon="5.781703" lat="51.027196"><ele>28.2</ele><time>2022-05-29T06:45:20.000Z</time></trkpt><trkpt lon="5.781686" lat="51.027149"><ele>28.4</ele><time>2022-05-29T06:45:21.000Z</time></trkpt><trkpt lon="5.781642" lat="51.027113"><ele>28.4</ele><time>2022-05-29T06:45:22.000Z</time></trkpt><trkpt lon="5.781573" lat="51.027083"><ele>28.4</ele><time>2022-05-29T06:45:23.000Z</time></trkpt><trkpt lon="5.781485" lat="51.027056"><ele>28.6</ele><time>2022-05-29T06:45:24.000Z</time></trkpt><trkpt lon="5.781387" lat="51.027028"><ele>28.4</ele><time>2022-05-29T06:45:25.000Z</time></trkpt><trkpt lon="5.781283" lat="51.026995"><ele>28.4</ele><time>2022-05-29T06:45:26.000Z</time></trkpt><trkpt lon="5.781182" lat="51.026968"><ele>28.4</ele><time>2022-05-29T06:45:27.000Z</time></trkpt><trkpt lon="5.78108" lat="51.026941"><ele>28.4</ele><time>2022-05-29T06:45:28.000Z</time></trkpt><trkpt lon="5.780977" lat="51.026911"><ele>28.4</ele><time>2022-05-29T06:45:29.000Z</time></trkpt><trkpt lon="5.780875" lat="51.026884"><ele>28.4</ele><time>2022-05-29T06:45:30.000Z</time></trkpt><trkpt lon="5.780772" lat="51.026853"><ele>28.4</ele><time>2022-05-29T06:45:31.000Z</time></trkpt><trkpt lon="5.780666" lat="51.026823"><ele>28.4</ele><time>2022-05-29T06:45:32.000Z</time></trkpt><trkpt lon="5.780563" lat="51.026793"><ele>28.4</ele><time>2022-05-29T06:45:33.000Z</time></trkpt><trkpt lon="5.78046" lat="51.026765"><ele>28.4</ele><time>2022-05-29T06:45:34.000Z</time></trkpt><trkpt lon="5.780356" lat="51.026736"><ele>28.4</ele><time>2022-05-29T06:45:35.000Z</time></trkpt><trkpt lon="5.780253" lat="51.026708"><ele>28.4</ele><time>2022-05-29T06:45:36.000Z</time></trkpt><trkpt lon="5.780152" lat="51.026678"><ele>28.4</ele><time>2022-05-29T06:45:37.000Z</time></trkpt><trkpt lon="5.78005" lat="51.026648"><ele>28.4</ele><time>2022-05-29T06:45:38.000Z</time></trkpt><trkpt lon="5.77995" lat="51.026621"><ele>28.4</ele><time>2022-05-29T06:45:39.000Z</time></trkpt><trkpt lon="5.779849" lat="51.026595"><ele>28.2</ele><time>2022-05-29T06:45:40.000Z</time></trkpt><trkpt lon="5.779748" lat="51.026568"><ele>28.2</ele><time>2022-05-29T06:45:41.000Z</time></trkpt><trkpt lon="5.77965" lat="51.02654"><ele>28</ele><time>2022-05-29T06:45:42.000Z</time></trkpt><trkpt lon="5.779554" lat="51.026509"><ele>27.8</ele><time>2022-05-29T06:45:43.000Z</time></trkpt><trkpt lon="5.779465" lat="51.026475"><ele>27.6</ele><time>2022-05-29T06:45:44.000Z</time></trkpt><trkpt lon="5.779373" lat="51.026436"><ele>27.6</ele><time>2022-05-29T06:45:45.000Z</time></trkpt><trkpt lon="5.779284" lat="51.026392"><ele>27.6</ele><time>2022-05-29T06:45:46.000Z</time></trkpt><trkpt lon="5.779202" lat="51.026347"><ele>27.6</ele><time>2022-05-29T06:45:47.000Z</time></trkpt><trkpt lon="5.779124" lat="51.026301"><ele>27.6</ele><time>2022-05-29T06:45:48.000Z</time></trkpt><trkpt lon="5.779048" lat="51.026246"><ele>27.6</ele><time>2022-05-29T06:45:49.000Z</time></trkpt><trkpt lon="5.778978" lat="51.026193"><ele>27.6</ele><time>2022-05-29T06:45:50.000Z</time></trkpt><trkpt lon="5.77891" lat="51.026138"><ele>27.6</ele><time>2022-05-29T06:45:51.000Z</time></trkpt><trkpt lon="5.778841" lat="51.026081"><ele>27.6</ele><time>2022-05-29T06:45:52.000Z</time></trkpt><trkpt lon="5.778773" lat="51.026023"><ele>27.6</ele><time>2022-05-29T06:45:53.000Z</time></trkpt><trkpt lon="5.778702" lat="51.025963"><ele>27.6</ele><time>2022-05-29T06:45:54.000Z</time></trkpt><trkpt lon="5.778635" lat="51.025906"><ele>27.4</ele><time>2022-05-29T06:45:55.000Z</time></trkpt><trkpt lon="5.778567" lat="51.025848"><ele>27.4</ele><time>2022-05-29T06:45:56.000Z</time></trkpt><trkpt lon="5.778505" lat="51.025787"><ele>27.4</ele><time>2022-05-29T06:45:57.000Z</time></trkpt><trkpt lon="5.778445" lat="51.025726"><ele>27.4</ele><time>2022-05-29T06:45:58.000Z</time></trkpt><trkpt lon="5.778385" lat="51.025666"><ele>27.4</ele><time>2022-05-29T06:45:59.000Z</time></trkpt><trkpt lon="5.778325" lat="51.025604"><ele>27.6</ele><time>2022-05-29T06:46:00.000Z</time></trkpt><trkpt lon="5.778265" lat="51.025542"><ele>27.6</ele><time>2022-05-29T06:46:01.000Z</time></trkpt><trkpt lon="5.778206" lat="51.025478"><ele>27.6</ele><time>2022-05-29T06:46:02.000Z</time></trkpt><trkpt lon="5.778151" lat="51.025417"><ele>27.6</ele><time>2022-05-29T06:46:03.000Z</time></trkpt><trkpt lon="5.778102" lat="51.025353"><ele>27.6</ele><time>2022-05-29T06:46:04.000Z</time></trkpt><trkpt lon="5.778059" lat="51.025292"><ele>27.6</ele><time>2022-05-29T06:46:05.000Z</time></trkpt><trkpt lon="5.778022" lat="51.025236"><ele>27.6</ele><time>2022-05-29T06:46:06.000Z</time></trkpt><trkpt lon="5.777981" lat="51.025169"><ele>27.6</ele><time>2022-05-29T06:46:07.000Z</time></trkpt><trkpt lon="5.777942" lat="51.025107"><ele>27.8</ele><time>2022-05-29T06:46:08.000Z</time></trkpt><trkpt lon="5.777909" lat="51.025043"><ele>27.8</ele><time>2022-05-29T06:46:09.000Z</time></trkpt><trkpt lon="5.777877" lat="51.024982"><ele>27.8</ele><time>2022-05-29T06:46:10.000Z</time></trkpt><trkpt lon="5.777845" lat="51.024917"><ele>27.8</ele><time>2022-05-29T06:46:11.000Z</time></trkpt><trkpt lon="5.777813" lat="51.024848"><ele>27.8</ele><time>2022-05-29T06:46:12.000Z</time></trkpt><trkpt lon="5.777786" lat="51.024783"><ele>27.6</ele><time>2022-05-29T06:46:13.000Z</time></trkpt><trkpt lon="5.777766" lat="51.024718"><ele>27.6</ele><time>2022-05-29T06:46:14.000Z</time></trkpt><trkpt lon="5.777746" lat="51.024653"><ele>27.6</ele><time>2022-05-29T06:46:15.000Z</time></trkpt><trkpt lon="5.777724" lat="51.024588"><ele>27.4</ele><time>2022-05-29T06:46:16.000Z</time></trkpt><trkpt lon="5.777704" lat="51.024522"><ele>27.4</ele><time>2022-05-29T06:46:17.000Z</time></trkpt><trkpt lon="5.777685" lat="51.024455"><ele>27.4</ele><time>2022-05-29T06:46:18.000Z</time></trkpt><trkpt lon="5.777669" lat="51.024388"><ele>27.2</ele><time>2022-05-29T06:46:19.000Z</time></trkpt><trkpt lon="5.777653" lat="51.024317"><ele>27.2</ele><time>2022-05-29T06:46:20.000Z</time></trkpt><trkpt lon="5.777636" lat="51.024248"><ele>27.4</ele><time>2022-05-29T06:46:21.000Z</time></trkpt><trkpt lon="5.777618" lat="51.024179"><ele>27.6</ele><time>2022-05-29T06:46:22.000Z</time></trkpt><trkpt lon="5.7776" lat="51.02411"><ele>27.6</ele><time>2022-05-29T06:46:23.000Z</time></trkpt><trkpt lon="5.777581" lat="51.024037"><ele>27.8</ele><time>2022-05-29T06:46:24.000Z</time></trkpt><trkpt lon="5.777564" lat="51.023961"><ele>28</ele><time>2022-05-29T06:46:25.000Z</time></trkpt><trkpt lon="5.777551" lat="51.023885"><ele>28</ele><time>2022-05-29T06:46:26.000Z</time></trkpt><trkpt lon="5.777537" lat="51.023812"><ele>28.2</ele><time>2022-05-29T06:46:27.000Z</time></trkpt><trkpt lon="5.77753" lat="51.023741"><ele>28.2</ele><time>2022-05-29T06:46:28.000Z</time></trkpt><trkpt lon="5.777525" lat="51.023664"><ele>28.2</ele><time>2022-05-29T06:46:29.000Z</time></trkpt><trkpt lon="5.777524" lat="51.023589"><ele>28.2</ele><time>2022-05-29T06:46:30.000Z</time></trkpt><trkpt lon="5.777529" lat="51.023515"><ele>28.2</ele><time>2022-05-29T06:46:31.000Z</time></trkpt><trkpt lon="5.777532" lat="51.023443"><ele>28.4</ele><time>2022-05-29T06:46:32.000Z</time></trkpt><trkpt lon="5.777535" lat="51.023375"><ele>28.4</ele><time>2022-05-29T06:46:33.000Z</time></trkpt><trkpt lon="5.777542" lat="51.023306"><ele>28.4</ele><time>2022-05-29T06:46:34.000Z</time></trkpt><trkpt lon="5.777553" lat="51.023242"><ele>28.4</ele><time>2022-05-29T06:46:35.000Z</time></trkpt><trkpt lon="5.777566" lat="51.023177"><ele>28.6</ele><time>2022-05-29T06:46:36.000Z</time></trkpt><trkpt lon="5.777582" lat="51.023112"><ele>28.6</ele><time>2022-05-29T06:46:37.000Z</time></trkpt><trkpt lon="5.777599" lat="51.023046"><ele>28.6</ele><time>2022-05-29T06:46:38.000Z</time></trkpt><trkpt lon="5.777619" lat="51.022978"><ele>28.4</ele><time>2022-05-29T06:46:39.000Z</time></trkpt><trkpt lon="5.777643" lat="51.022906"><ele>28.4</ele><time>2022-05-29T06:46:40.000Z</time></trkpt><trkpt lon="5.777666" lat="51.022837"><ele>28.2</ele><time>2022-05-29T06:46:41.000Z</time></trkpt><trkpt lon="5.777688" lat="51.022765"><ele>28.2</ele><time>2022-05-29T06:46:42.000Z</time></trkpt><trkpt lon="5.777713" lat="51.022696"><ele>28.4</ele><time>2022-05-29T06:46:43.000Z</time></trkpt><trkpt lon="5.777734" lat="51.022627"><ele>28.4</ele><time>2022-05-29T06:46:44.000Z</time></trkpt><trkpt lon="5.777754" lat="51.022554"><ele>28.4</ele><time>2022-05-29T06:46:45.000Z</time></trkpt><trkpt lon="5.77778" lat="51.022478"><ele>28.4</ele><time>2022-05-29T06:46:46.000Z</time></trkpt><trkpt lon="5.777806" lat="51.022409"><ele>28.4</ele><time>2022-05-29T06:46:47.000Z</time></trkpt><trkpt lon="5.777832" lat="51.022336"><ele>28.6</ele><time>2022-05-29T06:46:48.000Z</time></trkpt><trkpt lon="5.777856" lat="51.022263"><ele>28.6</ele><time>2022-05-29T06:46:49.000Z</time></trkpt><trkpt lon="5.777882" lat="51.022189"><ele>28.6</ele><time>2022-05-29T06:46:50.000Z</time></trkpt><trkpt lon="5.777908" lat="51.022119"><ele>28.8</ele><time>2022-05-29T06:46:51.000Z</time></trkpt><trkpt lon="5.777934" lat="51.022049"><ele>28.8</ele><time>2022-05-29T06:46:52.000Z</time></trkpt><trkpt lon="5.777961" lat="51.02198"><ele>29</ele><time>2022-05-29T06:46:53.000Z</time></trkpt><trkpt lon="5.777983" lat="51.021919"><ele>29</ele><time>2022-05-29T06:46:54.000Z</time></trkpt><trkpt lon="5.778015" lat="51.021834"><ele>29</ele><time>2022-05-29T06:46:55.000Z</time></trkpt><trkpt lon="5.778044" lat="51.021765"><ele>29</ele><time>2022-05-29T06:46:56.000Z</time></trkpt><trkpt lon="5.778072" lat="51.021697"><ele>29</ele><time>2022-05-29T06:46:57.000Z</time></trkpt><trkpt lon="5.778098" lat="51.021628"><ele>28.8</ele><time>2022-05-29T06:46:58.000Z</time></trkpt><trkpt lon="5.778123" lat="51.02156"><ele>28.8</ele><time>2022-05-29T06:46:59.000Z</time></trkpt><trkpt lon="5.778149" lat="51.021492"><ele>28.8</ele><time>2022-05-29T06:47:00.000Z</time></trkpt><trkpt lon="5.778176" lat="51.021421"><ele>28.8</ele><time>2022-05-29T06:47:01.000Z</time></trkpt><trkpt lon="5.778202" lat="51.021348"><ele>28.6</ele><time>2022-05-29T06:47:02.000Z</time></trkpt><trkpt lon="5.778226" lat="51.021279"><ele>28.6</ele><time>2022-05-29T06:47:03.000Z</time></trkpt><trkpt lon="5.778251" lat="51.021209"><ele>28.6</ele><time>2022-05-29T06:47:04.000Z</time></trkpt><trkpt lon="5.778279" lat="51.021135"><ele>28.6</ele><time>2022-05-29T06:47:05.000Z</time></trkpt><trkpt lon="5.778309" lat="51.021067"><ele>28.6</ele><time>2022-05-29T06:47:06.000Z</time></trkpt><trkpt lon="5.778336" lat="51.020998"><ele>28.4</ele><time>2022-05-29T06:47:07.000Z</time></trkpt><trkpt lon="5.778361" lat="51.020925"><ele>28.4</ele><time>2022-05-29T06:47:08.000Z</time></trkpt><trkpt lon="5.778383" lat="51.020852"><ele>28.6</ele><time>2022-05-29T06:47:09.000Z</time></trkpt><trkpt lon="5.778404" lat="51.02078"><ele>28.6</ele><time>2022-05-29T06:47:10.000Z</time></trkpt><trkpt lon="5.778425" lat="51.020706"><ele>28.6</ele><time>2022-05-29T06:47:11.000Z</time></trkpt><trkpt lon="5.778439" lat="51.020632"><ele>28.6</ele><time>2022-05-29T06:47:12.000Z</time></trkpt><trkpt lon="5.778453" lat="51.02056"><ele>28.4</ele><time>2022-05-29T06:47:13.000Z</time></trkpt><trkpt lon="5.778463" lat="51.020486"><ele>28.4</ele><time>2022-05-29T06:47:14.000Z</time></trkpt><trkpt lon="5.778472" lat="51.020415"><ele>28.2</ele><time>2022-05-29T06:47:15.000Z</time></trkpt><trkpt lon="5.778477" lat="51.02034"><ele>28.2</ele><time>2022-05-29T06:47:16.000Z</time></trkpt><trkpt lon="5.77848" lat="51.020265"><ele>28.2</ele><time>2022-05-29T06:47:17.000Z</time></trkpt><trkpt lon="5.77848" lat="51.020192"><ele>28</ele><time>2022-05-29T06:47:18.000Z</time></trkpt><trkpt lon="5.778477" lat="51.020117"><ele>28.2</ele><time>2022-05-29T06:47:19.000Z</time></trkpt><trkpt lon="5.778472" lat="51.020043"><ele>28.2</ele><time>2022-05-29T06:47:20.000Z</time></trkpt><trkpt lon="5.778464" lat="51.019967"><ele>28.2</ele><time>2022-05-29T06:47:21.000Z</time></trkpt><trkpt lon="5.778452" lat="51.019895"><ele>28.2</ele><time>2022-05-29T06:47:22.000Z</time></trkpt><trkpt lon="5.778439" lat="51.019822"><ele>28.2</ele><time>2022-05-29T06:47:23.000Z</time></trkpt><trkpt lon="5.778424" lat="51.019748"><ele>28.2</ele><time>2022-05-29T06:47:24.000Z</time></trkpt><trkpt lon="5.778405" lat="51.019674"><ele>28.4</ele><time>2022-05-29T06:47:25.000Z</time></trkpt><trkpt lon="5.778385" lat="51.019601"><ele>28.4</ele><time>2022-05-29T06:47:26.000Z</time></trkpt><trkpt lon="5.778363" lat="51.019527"><ele>28.4</ele><time>2022-05-29T06:47:27.000Z</time></trkpt><trkpt lon="5.778341" lat="51.019453"><ele>28.2</ele><time>2022-05-29T06:47:28.000Z</time></trkpt><trkpt lon="5.778317" lat="51.01938"><ele>28.2</ele><time>2022-05-29T06:47:29.000Z</time></trkpt><trkpt lon="5.778294" lat="51.019307"><ele>28.2</ele><time>2022-05-29T06:47:30.000Z</time></trkpt><trkpt lon="5.778273" lat="51.019235"><ele>28.2</ele><time>2022-05-29T06:47:31.000Z</time></trkpt><trkpt lon="5.778252" lat="51.019162"><ele>28.4</ele><time>2022-05-29T06:47:32.000Z</time></trkpt><trkpt lon="5.778229" lat="51.019086"><ele>28.8</ele><time>2022-05-29T06:47:33.000Z</time></trkpt><trkpt lon="5.778208" lat="51.019014"><ele>29</ele><time>2022-05-29T06:47:34.000Z</time></trkpt><trkpt lon="5.778188" lat="51.018943"><ele>29.2</ele><time>2022-05-29T06:47:35.000Z</time></trkpt><trkpt lon="5.778166" lat="51.018874"><ele>29.2</ele><time>2022-05-29T06:47:36.000Z</time></trkpt><trkpt lon="5.778146" lat="51.018803"><ele>29.2</ele><time>2022-05-29T06:47:37.000Z</time></trkpt><trkpt lon="5.778127" lat="51.018728"><ele>29</ele><time>2022-05-29T06:47:38.000Z</time></trkpt><trkpt lon="5.778109" lat="51.018654"><ele>29</ele><time>2022-05-29T06:47:39.000Z</time></trkpt><trkpt lon="5.778092" lat="51.018578"><ele>28.8</ele><time>2022-05-29T06:47:40.000Z</time></trkpt><trkpt lon="5.778078" lat="51.018503"><ele>28.8</ele><time>2022-05-29T06:47:41.000Z</time></trkpt><trkpt lon="5.778064" lat="51.018429"><ele>28.8</ele><time>2022-05-29T06:47:42.000Z</time></trkpt><trkpt lon="5.778049" lat="51.018353"><ele>28.8</ele><time>2022-05-29T06:47:43.000Z</time></trkpt><trkpt lon="5.778036" lat="51.018278"><ele>28.8</ele><time>2022-05-29T06:47:44.000Z</time></trkpt><trkpt lon="5.778024" lat="51.018205"><ele>28.8</ele><time>2022-05-29T06:47:45.000Z</time></trkpt><trkpt lon="5.778011" lat="51.018133"><ele>28.8</ele><time>2022-05-29T06:47:46.000Z</time></trkpt><trkpt lon="5.778" lat="51.018059"><ele>28.8</ele><time>2022-05-29T06:47:47.000Z</time></trkpt><trkpt lon="5.777988" lat="51.017985"><ele>28.8</ele><time>2022-05-29T06:47:48.000Z</time></trkpt><trkpt lon="5.777978" lat="51.017912"><ele>28.8</ele><time>2022-05-29T06:47:49.000Z</time></trkpt><trkpt lon="5.777966" lat="51.017843"><ele>28.8</ele><time>2022-05-29T06:47:50.000Z</time></trkpt><trkpt lon="5.777954" lat="51.01777"><ele>28.8</ele><time>2022-05-29T06:47:51.000Z</time></trkpt><trkpt lon="5.777943" lat="51.017698"><ele>28.8</ele><time>2022-05-29T06:47:52.000Z</time></trkpt><trkpt lon="5.777931" lat="51.017629"><ele>28.6</ele><time>2022-05-29T06:47:53.000Z</time></trkpt><trkpt lon="5.77792" lat="51.017557"><ele>28.8</ele><time>2022-05-29T06:47:54.000Z</time></trkpt><trkpt lon="5.777909" lat="51.017488"><ele>28.8</ele><time>2022-05-29T06:47:55.000Z</time></trkpt><trkpt lon="5.777896" lat="51.017416"><ele>28.8</ele><time>2022-05-29T06:47:56.000Z</time></trkpt><trkpt lon="5.777887" lat="51.017346"><ele>28.8</ele><time>2022-05-29T06:47:57.000Z</time></trkpt><trkpt lon="5.777875" lat="51.017275"><ele>28.8</ele><time>2022-05-29T06:47:58.000Z</time></trkpt><trkpt lon="5.777863" lat="51.017206"><ele>28.8</ele><time>2022-05-29T06:47:59.000Z</time></trkpt><trkpt lon="5.777849" lat="51.017134"><ele>28.8</ele><time>2022-05-29T06:48:00.000Z</time></trkpt><trkpt lon="5.777837" lat="51.017064"><ele>28.8</ele><time>2022-05-29T06:48:01.000Z</time></trkpt><trkpt lon="5.777822" lat="51.016992"><ele>28.8</ele><time>2022-05-29T06:48:02.000Z</time></trkpt><trkpt lon="5.777807" lat="51.01692"><ele>28.8</ele><time>2022-05-29T06:48:03.000Z</time></trkpt><trkpt lon="5.77779" lat="51.016851"><ele>28.8</ele><time>2022-05-29T06:48:04.000Z</time></trkpt><trkpt lon="5.777772" lat="51.016781"><ele>28.8</ele><time>2022-05-29T06:48:05.000Z</time></trkpt><trkpt lon="5.777754" lat="51.016719"><ele>28.8</ele><time>2022-05-29T06:48:06.000Z</time></trkpt><trkpt lon="5.777725" lat="51.016637"><ele>28.8</ele><time>2022-05-29T06:48:07.000Z</time></trkpt><trkpt lon="5.777699" lat="51.016565"><ele>28.8</ele><time>2022-05-29T06:48:08.000Z</time></trkpt><trkpt lon="5.777669" lat="51.016497"><ele>28.8</ele><time>2022-05-29T06:48:09.000Z</time></trkpt><trkpt lon="5.777636" lat="51.016429"><ele>28.8</ele><time>2022-05-29T06:48:10.000Z</time></trkpt><trkpt lon="5.777602" lat="51.01636"><ele>28.8</ele><time>2022-05-29T06:48:11.000Z</time></trkpt><trkpt lon="5.777564" lat="51.016287"><ele>28.6</ele><time>2022-05-29T06:48:12.000Z</time></trkpt><trkpt lon="5.777524" lat="51.01622"><ele>28.8</ele><time>2022-05-29T06:48:13.000Z</time></trkpt><trkpt lon="5.777478" lat="51.016149"><ele>28.8</ele><time>2022-05-29T06:48:14.000Z</time></trkpt><trkpt lon="5.777431" lat="51.016082"><ele>28.6</ele><time>2022-05-29T06:48:15.000Z</time></trkpt><trkpt lon="5.777382" lat="51.016016"><ele>28.6</ele><time>2022-05-29T06:48:16.000Z</time></trkpt><trkpt lon="5.777331" lat="51.015948"><ele>28.6</ele><time>2022-05-29T06:48:17.000Z</time></trkpt><trkpt lon="5.777278" lat="51.015883"><ele>28.6</ele><time>2022-05-29T06:48:18.000Z</time></trkpt><trkpt lon="5.777225" lat="51.015818"><ele>28.6</ele><time>2022-05-29T06:48:19.000Z</time></trkpt><trkpt lon="5.777174" lat="51.015753"><ele>28.4</ele><time>2022-05-29T06:48:20.000Z</time></trkpt><trkpt lon="5.777126" lat="51.015684"><ele>28.6</ele><time>2022-05-29T06:48:21.000Z</time></trkpt><trkpt lon="5.777078" lat="51.015615"><ele>28.6</ele><time>2022-05-29T06:48:22.000Z</time></trkpt><trkpt lon="5.777033" lat="51.015543"><ele>28.4</ele><time>2022-05-29T06:48:23.000Z</time></trkpt><trkpt lon="5.77699" lat="51.015472"><ele>28.2</ele><time>2022-05-29T06:48:24.000Z</time></trkpt><trkpt lon="5.776948" lat="51.015394"><ele>28.2</ele><time>2022-05-29T06:48:25.000Z</time></trkpt><trkpt lon="5.776908" lat="51.015322"><ele>28.2</ele><time>2022-05-29T06:48:26.000Z</time></trkpt><trkpt lon="5.77687" lat="51.015249"><ele>28</ele><time>2022-05-29T06:48:27.000Z</time></trkpt><trkpt lon="5.776836" lat="51.015176"><ele>28</ele><time>2022-05-29T06:48:28.000Z</time></trkpt><trkpt lon="5.776808" lat="51.015105"><ele>28</ele><time>2022-05-29T06:48:29.000Z</time></trkpt><trkpt lon="5.77678" lat="51.015035"><ele>28</ele><time>2022-05-29T06:48:30.000Z</time></trkpt><trkpt lon="5.776753" lat="51.014963"><ele>28.2</ele><time>2022-05-29T06:48:31.000Z</time></trkpt><trkpt lon="5.776727" lat="51.014895"><ele>28.2</ele><time>2022-05-29T06:48:32.000Z</time></trkpt><trkpt lon="5.776703" lat="51.014826"><ele>28.2</ele><time>2022-05-29T06:48:33.000Z</time></trkpt><trkpt lon="5.776678" lat="51.014757"><ele>28</ele><time>2022-05-29T06:48:34.000Z</time></trkpt><trkpt lon="5.77665" lat="51.01469"><ele>28</ele><time>2022-05-29T06:48:35.000Z</time></trkpt><trkpt lon="5.776621" lat="51.014622"><ele>28</ele><time>2022-05-29T06:48:36.000Z</time></trkpt><trkpt lon="5.776589" lat="51.014555"><ele>28</ele><time>2022-05-29T06:48:37.000Z</time></trkpt><trkpt lon="5.776556" lat="51.014483"><ele>28</ele><time>2022-05-29T06:48:38.000Z</time></trkpt><trkpt lon="5.776522" lat="51.014415"><ele>28</ele><time>2022-05-29T06:48:39.000Z</time></trkpt><trkpt lon="5.776485" lat="51.014346"><ele>28</ele><time>2022-05-29T06:48:40.000Z</time></trkpt><trkpt lon="5.776446" lat="51.014277"><ele>27.8</ele><time>2022-05-29T06:48:41.000Z</time></trkpt><trkpt lon="5.776404" lat="51.014209"><ele>27.8</ele><time>2022-05-29T06:48:42.000Z</time></trkpt><trkpt lon="5.776358" lat="51.014139"><ele>27.8</ele><time>2022-05-29T06:48:43.000Z</time></trkpt><trkpt lon="5.776313" lat="51.014071"><ele>27.8</ele><time>2022-05-29T06:48:44.000Z</time></trkpt><trkpt lon="5.776267" lat="51.014002"><ele>27.8</ele><time>2022-05-29T06:48:45.000Z</time></trkpt><trkpt lon="5.776221" lat="51.013934"><ele>27.6</ele><time>2022-05-29T06:48:46.000Z</time></trkpt><trkpt lon="5.776176" lat="51.013869"><ele>27.6</ele><time>2022-05-29T06:48:47.000Z</time></trkpt><trkpt lon="5.776129" lat="51.013802"><ele>27.8</ele><time>2022-05-29T06:48:48.000Z</time></trkpt><trkpt lon="5.776083" lat="51.013736"><ele>27.8</ele><time>2022-05-29T06:48:49.000Z</time></trkpt><trkpt lon="5.776038" lat="51.013671"><ele>27.8</ele><time>2022-05-29T06:48:50.000Z</time></trkpt><trkpt lon="5.775991" lat="51.013602"><ele>27.8</ele><time>2022-05-29T06:48:51.000Z</time></trkpt><trkpt lon="5.775946" lat="51.013537"><ele>27.8</ele><time>2022-05-29T06:48:52.000Z</time></trkpt><trkpt lon="5.775899" lat="51.013472"><ele>27.8</ele><time>2022-05-29T06:48:53.000Z</time></trkpt><trkpt lon="5.77585" lat="51.013404"><ele>27.8</ele><time>2022-05-29T06:48:54.000Z</time></trkpt><trkpt lon="5.775801" lat="51.013339"><ele>27.8</ele><time>2022-05-29T06:48:55.000Z</time></trkpt><trkpt lon="5.775752" lat="51.013271"><ele>27.8</ele><time>2022-05-29T06:48:56.000Z</time></trkpt><trkpt lon="5.775703" lat="51.013206"><ele>27.8</ele><time>2022-05-29T06:48:57.000Z</time></trkpt><trkpt lon="5.775656" lat="51.013142"><ele>27.8</ele><time>2022-05-29T06:48:58.000Z</time></trkpt><trkpt lon="5.775614" lat="51.013083"><ele>28</ele><time>2022-05-29T06:48:59.000Z</time></trkpt><trkpt lon="5.775553" lat="51.013006"><ele>27.8</ele><time>2022-05-29T06:49:00.000Z</time></trkpt><trkpt lon="5.775503" lat="51.012939"><ele>27.8</ele><time>2022-05-29T06:49:01.000Z</time></trkpt><trkpt lon="5.775453" lat="51.012873"><ele>28</ele><time>2022-05-29T06:49:02.000Z</time></trkpt><trkpt lon="5.775404" lat="51.012805"><ele>28</ele><time>2022-05-29T06:49:03.000Z</time></trkpt><trkpt lon="5.775353" lat="51.01274"><ele>28.2</ele><time>2022-05-29T06:49:04.000Z</time></trkpt><trkpt lon="5.775302" lat="51.012675"><ele>28.2</ele><time>2022-05-29T06:49:05.000Z</time></trkpt><trkpt lon="5.775249" lat="51.012612"><ele>28.2</ele><time>2022-05-29T06:49:06.000Z</time></trkpt><trkpt lon="5.775192" lat="51.01255"><ele>28.2</ele><time>2022-05-29T06:49:07.000Z</time></trkpt><trkpt lon="5.775132" lat="51.012486"><ele>28.2</ele><time>2022-05-29T06:49:08.000Z</time></trkpt><trkpt lon="5.77507" lat="51.012425"><ele>28.2</ele><time>2022-05-29T06:49:09.000Z</time></trkpt><trkpt lon="5.775006" lat="51.012364"><ele>28</ele><time>2022-05-29T06:49:10.000Z</time></trkpt><trkpt lon="5.774943" lat="51.012306"><ele>28.2</ele><time>2022-05-29T06:49:11.000Z</time></trkpt><trkpt lon="5.774882" lat="51.012248"><ele>28.2</ele><time>2022-05-29T06:49:12.000Z</time></trkpt><trkpt lon="5.774828" lat="51.012202"><ele>28.2</ele><time>2022-05-29T06:49:13.000Z</time></trkpt><trkpt lon="5.774743" lat="51.012128"><ele>28.2</ele><time>2022-05-29T06:49:14.000Z</time></trkpt><trkpt lon="5.77467" lat="51.01207"><ele>28.4</ele><time>2022-05-29T06:49:15.000Z</time></trkpt><trkpt lon="5.774596" lat="51.012013"><ele>28.4</ele><time>2022-05-29T06:49:16.000Z</time></trkpt><trkpt lon="5.774521" lat="51.011957"><ele>28.6</ele><time>2022-05-29T06:49:17.000Z</time></trkpt><trkpt lon="5.774446" lat="51.011903"><ele>28.6</ele><time>2022-05-29T06:49:18.000Z</time></trkpt><trkpt lon="5.77437" lat="51.011847"><ele>28.4</ele><time>2022-05-29T06:49:19.000Z</time></trkpt><trkpt lon="5.774287" lat="51.011793"><ele>28.4</ele><time>2022-05-29T06:49:20.000Z</time></trkpt><trkpt lon="5.774202" lat="51.011744"><ele>28.4</ele><time>2022-05-29T06:49:21.000Z</time></trkpt><trkpt lon="5.774115" lat="51.011694"><ele>28.4</ele><time>2022-05-29T06:49:22.000Z</time></trkpt><trkpt lon="5.774028" lat="51.011644"><ele>28.2</ele><time>2022-05-29T06:49:23.000Z</time></trkpt><trkpt lon="5.773943" lat="51.011591"><ele>28.4</ele><time>2022-05-29T06:49:24.000Z</time></trkpt><trkpt lon="5.773863" lat="51.011536"><ele>28.2</ele><time>2022-05-29T06:49:25.000Z</time></trkpt><trkpt lon="5.773791" lat="51.011478"><ele>28</ele><time>2022-05-29T06:49:26.000Z</time></trkpt><trkpt lon="5.773729" lat="51.011415"><ele>28</ele><time>2022-05-29T06:49:27.000Z</time></trkpt><trkpt lon="5.773681" lat="51.011361"><ele>27.8</ele><time>2022-05-29T06:49:28.000Z</time></trkpt><trkpt lon="5.773621" lat="51.01128"><ele>27.6</ele><time>2022-05-29T06:49:29.000Z</time></trkpt><trkpt lon="5.773567" lat="51.011214"><ele>27.6</ele><time>2022-05-29T06:49:30.000Z</time></trkpt><trkpt lon="5.773514" lat="51.011146"><ele>27.6</ele><time>2022-05-29T06:49:31.000Z</time></trkpt><trkpt lon="5.773462" lat="51.011078"><ele>27.6</ele><time>2022-05-29T06:49:32.000Z</time></trkpt><trkpt lon="5.773414" lat="51.011007"><ele>27.4</ele><time>2022-05-29T06:49:33.000Z</time></trkpt><trkpt lon="5.773366" lat="51.010939"><ele>27.2</ele><time>2022-05-29T06:49:34.000Z</time></trkpt><trkpt lon="5.773315" lat="51.010871"><ele>27.2</ele><time>2022-05-29T06:49:35.000Z</time></trkpt><trkpt lon="5.773262" lat="51.010806"><ele>27.2</ele><time>2022-05-29T06:49:36.000Z</time></trkpt><trkpt lon="5.773212" lat="51.010737"><ele>27.2</ele><time>2022-05-29T06:49:37.000Z</time></trkpt><trkpt lon="5.773161" lat="51.010668"><ele>27.2</ele><time>2022-05-29T06:49:38.000Z</time></trkpt><trkpt lon="5.773108" lat="51.010603"><ele>27.2</ele><time>2022-05-29T06:49:39.000Z</time></trkpt><trkpt lon="5.773051" lat="51.010534"><ele>27.2</ele><time>2022-05-29T06:49:40.000Z</time></trkpt><trkpt lon="5.772996" lat="51.010466"><ele>27.4</ele><time>2022-05-29T06:49:41.000Z</time></trkpt><trkpt lon="5.772944" lat="51.010397"><ele>27.6</ele><time>2022-05-29T06:49:42.000Z</time></trkpt><trkpt lon="5.772891" lat="51.01033"><ele>27.6</ele><time>2022-05-29T06:49:43.000Z</time></trkpt><trkpt lon="5.772838" lat="51.010264"><ele>27.6</ele><time>2022-05-29T06:49:44.000Z</time></trkpt><trkpt lon="5.772783" lat="51.010195"><ele>27.6</ele><time>2022-05-29T06:49:45.000Z</time></trkpt><trkpt lon="5.772728" lat="51.010126"><ele>27.6</ele><time>2022-05-29T06:49:46.000Z</time></trkpt><trkpt lon="5.772673" lat="51.010058"><ele>27.6</ele><time>2022-05-29T06:49:47.000Z</time></trkpt><trkpt lon="5.77262" lat="51.009993"><ele>27.6</ele><time>2022-05-29T06:49:48.000Z</time></trkpt><trkpt lon="5.772568" lat="51.009925"><ele>27.8</ele><time>2022-05-29T06:49:49.000Z</time></trkpt><trkpt lon="5.772517" lat="51.009861"><ele>27.8</ele><time>2022-05-29T06:49:50.000Z</time></trkpt><trkpt lon="5.772464" lat="51.009795"><ele>27.8</ele><time>2022-05-29T06:49:51.000Z</time></trkpt><trkpt lon="5.772415" lat="51.009727"><ele>27.8</ele><time>2022-05-29T06:49:52.000Z</time></trkpt><trkpt lon="5.77237" lat="51.009664"><ele>27.6</ele><time>2022-05-29T06:49:53.000Z</time></trkpt><trkpt lon="5.772334" lat="51.009601"><ele>27.6</ele><time>2022-05-29T06:49:54.000Z</time></trkpt><trkpt lon="5.772304" lat="51.009535"><ele>27.6</ele><time>2022-05-29T06:49:55.000Z</time></trkpt><trkpt lon="5.772286" lat="51.009463"><ele>27.6</ele><time>2022-05-29T06:49:56.000Z</time></trkpt><trkpt lon="5.77228" lat="51.00939"><ele>27.8</ele><time>2022-05-29T06:49:57.000Z</time></trkpt><trkpt lon="5.772282" lat="51.009316"><ele>27.8</ele><time>2022-05-29T06:49:58.000Z</time></trkpt><trkpt lon="5.772296" lat="51.009245"><ele>27.8</ele><time>2022-05-29T06:49:59.000Z</time></trkpt><trkpt lon="5.77232" lat="51.009174"><ele>28</ele><time>2022-05-29T06:50:00.000Z</time></trkpt><trkpt lon="5.772351" lat="51.009101"><ele>28.2</ele><time>2022-05-29T06:50:01.000Z</time></trkpt><trkpt lon="5.772385" lat="51.009036"><ele>28.4</ele><time>2022-05-29T06:50:02.000Z</time></trkpt><trkpt lon="5.772418" lat="51.008967"><ele>28.6</ele><time>2022-05-29T06:50:03.000Z</time></trkpt><trkpt lon="5.772453" lat="51.008902"><ele>29</ele><time>2022-05-29T06:50:04.000Z</time></trkpt><trkpt lon="5.77249" lat="51.008838"><ele>29.4</ele><time>2022-05-29T06:50:05.000Z</time></trkpt><trkpt lon="5.772527" lat="51.008774"><ele>30</ele><time>2022-05-29T06:50:06.000Z</time></trkpt><trkpt lon="5.772561" lat="51.008712"><ele>30.4</ele><time>2022-05-29T06:50:07.000Z</time></trkpt><trkpt lon="5.772594" lat="51.008653"><ele>30.8</ele><time>2022-05-29T06:50:08.000Z</time></trkpt><trkpt lon="5.772623" lat="51.008598"><ele>31.2</ele><time>2022-05-29T06:50:09.000Z</time></trkpt><trkpt lon="5.772647" lat="51.008538"><ele>31.8</ele><time>2022-05-29T06:50:10.000Z</time></trkpt><trkpt lon="5.772666" lat="51.008484"><ele>32.4</ele><time>2022-05-29T06:50:11.000Z</time></trkpt><trkpt lon="5.77268" lat="51.008427"><ele>32.8</ele><time>2022-05-29T06:50:12.000Z</time></trkpt><trkpt lon="5.772686" lat="51.008369"><ele>33.4</ele><time>2022-05-29T06:50:13.000Z</time></trkpt><trkpt lon="5.772686" lat="51.00831"><ele>33.8</ele><time>2022-05-29T06:50:14.000Z</time></trkpt><trkpt lon="5.772685" lat="51.008255"><ele>34.2</ele><time>2022-05-29T06:50:15.000Z</time></trkpt><trkpt lon="5.772682" lat="51.008194"><ele>34.8</ele><time>2022-05-29T06:50:16.000Z</time></trkpt><trkpt lon="5.772674" lat="51.008138"><ele>35.2</ele><time>2022-05-29T06:50:17.000Z</time></trkpt><trkpt lon="5.772662" lat="51.008084"><ele>35.6</ele><time>2022-05-29T06:50:18.000Z</time></trkpt><trkpt lon="5.772647" lat="51.008026"><ele>36.2</ele><time>2022-05-29T06:50:19.000Z</time></trkpt><trkpt lon="5.772634" lat="51.007966"><ele>36.6</ele><time>2022-05-29T06:50:20.000Z</time></trkpt><trkpt lon="5.772618" lat="51.007909"><ele>37</ele><time>2022-05-29T06:50:21.000Z</time></trkpt><trkpt lon="5.772601" lat="51.007847"><ele>37.4</ele><time>2022-05-29T06:50:22.000Z</time></trkpt><trkpt lon="5.772583" lat="51.007789"><ele>37.8</ele><time>2022-05-29T06:50:23.000Z</time></trkpt><trkpt lon="5.772565" lat="51.007728"><ele>38.2</ele><time>2022-05-29T06:50:24.000Z</time></trkpt><trkpt lon="5.772547" lat="51.007664"><ele>38.4</ele><time>2022-05-29T06:50:25.000Z</time></trkpt><trkpt lon="5.77253" lat="51.007603"><ele>38.6</ele><time>2022-05-29T06:50:26.000Z</time></trkpt><trkpt lon="5.77251" lat="51.007542"><ele>38.8</ele><time>2022-05-29T06:50:27.000Z</time></trkpt><trkpt lon="5.772493" lat="51.00748"><ele>39</ele><time>2022-05-29T06:50:28.000Z</time></trkpt><trkpt lon="5.772475" lat="51.007419"><ele>39.2</ele><time>2022-05-29T06:50:29.000Z</time></trkpt><trkpt lon="5.772459" lat="51.007358"><ele>39.4</ele><time>2022-05-29T06:50:30.000Z</time></trkpt><trkpt lon="5.772442" lat="51.007293"><ele>39.6</ele><time>2022-05-29T06:50:31.000Z</time></trkpt><trkpt lon="5.772427" lat="51.007228"><ele>39.8</ele><time>2022-05-29T06:50:32.000Z</time></trkpt><trkpt lon="5.772409" lat="51.007167"><ele>40</ele><time>2022-05-29T06:50:33.000Z</time></trkpt><trkpt lon="5.77239" lat="51.007106"><ele>40</ele><time>2022-05-29T06:50:34.000Z</time></trkpt><trkpt lon="5.772371" lat="51.007045"><ele>40.2</ele><time>2022-05-29T06:50:35.000Z</time></trkpt><trkpt lon="5.772351" lat="51.00698"><ele>40.2</ele><time>2022-05-29T06:50:36.000Z</time></trkpt><trkpt lon="5.772333" lat="51.006919"><ele>40.4</ele><time>2022-05-29T06:50:37.000Z</time></trkpt><trkpt lon="5.772317" lat="51.006853"><ele>40.6</ele><time>2022-05-29T06:50:38.000Z</time></trkpt><trkpt lon="5.7723" lat="51.006785"><ele>40.6</ele><time>2022-05-29T06:50:39.000Z</time></trkpt><trkpt lon="5.772285" lat="51.00672"><ele>40.6</ele><time>2022-05-29T06:50:40.000Z</time></trkpt><trkpt lon="5.772266" lat="51.006651"><ele>40.6</ele><time>2022-05-29T06:50:41.000Z</time></trkpt><trkpt lon="5.772247" lat="51.006583"><ele>40.6</ele><time>2022-05-29T06:50:42.000Z</time></trkpt><trkpt lon="5.772234" lat="51.006516"><ele>40.4</ele><time>2022-05-29T06:50:43.000Z</time></trkpt><trkpt lon="5.772226" lat="51.006449"><ele>40.4</ele><time>2022-05-29T06:50:44.000Z</time></trkpt><trkpt lon="5.772223" lat="51.006381"><ele>40.2</ele><time>2022-05-29T06:50:45.000Z</time></trkpt><trkpt lon="5.772222" lat="51.006312"><ele>40.4</ele><time>2022-05-29T06:50:46.000Z</time></trkpt><trkpt lon="5.772225" lat="51.006244"><ele>40.4</ele><time>2022-05-29T06:50:47.000Z</time></trkpt><trkpt lon="5.772233" lat="51.006174"><ele>40.2</ele><time>2022-05-29T06:50:48.000Z</time></trkpt><trkpt lon="5.772244" lat="51.006106"><ele>40.2</ele><time>2022-05-29T06:50:49.000Z</time></trkpt><trkpt lon="5.772257" lat="51.006039"><ele>40.2</ele><time>2022-05-29T06:50:50.000Z</time></trkpt><trkpt lon="5.772269" lat="51.005969"><ele>40.2</ele><time>2022-05-29T06:50:51.000Z</time></trkpt><trkpt lon="5.772282" lat="51.005903"><ele>40.2</ele><time>2022-05-29T06:50:52.000Z</time></trkpt><trkpt lon="5.772294" lat="51.005835"><ele>40.2</ele><time>2022-05-29T06:50:53.000Z</time></trkpt><trkpt lon="5.772301" lat="51.005767"><ele>40</ele><time>2022-05-29T06:50:54.000Z</time></trkpt><trkpt lon="5.772296" lat="51.005702"><ele>40</ele><time>2022-05-29T06:50:55.000Z</time></trkpt><trkpt lon="5.772276" lat="51.005637"><ele>40</ele><time>2022-05-29T06:50:56.000Z</time></trkpt><trkpt lon="5.772244" lat="51.005572"><ele>39.8</ele><time>2022-05-29T06:50:57.000Z</time></trkpt><trkpt lon="5.772207" lat="51.005508"><ele>39.4</ele><time>2022-05-29T06:50:58.000Z</time></trkpt><trkpt lon="5.772174" lat="51.005447"><ele>39.2</ele><time>2022-05-29T06:50:59.000Z</time></trkpt><trkpt lon="5.77214" lat="51.005381"><ele>39.2</ele><time>2022-05-29T06:51:00.000Z</time></trkpt><trkpt lon="5.772107" lat="51.005312"><ele>39.2</ele><time>2022-05-29T06:51:01.000Z</time></trkpt><trkpt lon="5.772073" lat="51.005244"><ele>39.4</ele><time>2022-05-29T06:51:02.000Z</time></trkpt><trkpt lon="5.772039" lat="51.005184"><ele>39.4</ele><time>2022-05-29T06:51:03.000Z</time></trkpt><trkpt lon="5.772008" lat="51.005124"><ele>39.4</ele><time>2022-05-29T06:51:04.000Z</time></trkpt><trkpt lon="5.771981" lat="51.005067"><ele>39.4</ele><time>2022-05-29T06:51:05.000Z</time></trkpt><trkpt lon="5.771954" lat="51.00501"><ele>39.4</ele><time>2022-05-29T06:51:06.000Z</time></trkpt><trkpt lon="5.771926" lat="51.004957"><ele>39.6</ele><time>2022-05-29T06:51:07.000Z</time></trkpt><trkpt lon="5.771884" lat="51.004912"><ele>39.6</ele><time>2022-05-29T06:51:08.000Z</time></trkpt><trkpt lon="5.771823" lat="51.004884"><ele>39.8</ele><time>2022-05-29T06:51:09.000Z</time></trkpt><trkpt lon="5.77175" lat="51.004873"><ele>40</ele><time>2022-05-29T06:51:10.000Z</time></trkpt><trkpt lon="5.771666" lat="51.004862"><ele>40</ele><time>2022-05-29T06:51:11.000Z</time></trkpt><trkpt lon="5.771576" lat="51.004855"><ele>40</ele><time>2022-05-29T06:51:12.000Z</time></trkpt><trkpt lon="5.771478" lat="51.004846"><ele>40</ele><time>2022-05-29T06:51:13.000Z</time></trkpt><trkpt lon="5.771379" lat="51.004836"><ele>39.8</ele><time>2022-05-29T06:51:14.000Z</time></trkpt><trkpt lon="5.771277" lat="51.004827"><ele>39.8</ele><time>2022-05-29T06:51:15.000Z</time></trkpt><trkpt lon="5.771174" lat="51.004816"><ele>39.8</ele><time>2022-05-29T06:51:16.000Z</time></trkpt><trkpt lon="5.771073" lat="51.00481"><ele>39.6</ele><time>2022-05-29T06:51:17.000Z</time></trkpt><trkpt lon="5.770973" lat="51.004805"><ele>39.6</ele><time>2022-05-29T06:51:18.000Z</time></trkpt><trkpt lon="5.770873" lat="51.004799"><ele>39.6</ele><time>2022-05-29T06:51:19.000Z</time></trkpt><trkpt lon="5.770775" lat="51.0048"><ele>39.4</ele><time>2022-05-29T06:51:20.000Z</time></trkpt><trkpt lon="5.770676" lat="51.004808"><ele>39.4</ele><time>2022-05-29T06:51:21.000Z</time></trkpt><trkpt lon="5.770581" lat="51.004816"><ele>39.2</ele><time>2022-05-29T06:51:22.000Z</time></trkpt><trkpt lon="5.770489" lat="51.004825"><ele>39</ele><time>2022-05-29T06:51:23.000Z</time></trkpt><trkpt lon="5.770401" lat="51.004839"><ele>38.8</ele><time>2022-05-29T06:51:24.000Z</time></trkpt><trkpt lon="5.77032" lat="51.00485"><ele>38.6</ele><time>2022-05-29T06:51:25.000Z</time></trkpt><trkpt lon="5.770241" lat="51.004855"><ele>38.2</ele><time>2022-05-29T06:51:26.000Z</time></trkpt><trkpt lon="5.770161" lat="51.004844"><ele>38</ele><time>2022-05-29T06:51:27.000Z</time></trkpt><trkpt lon="5.770092" lat="51.004819"><ele>37.8</ele><time>2022-05-29T06:51:28.000Z</time></trkpt><trkpt lon="5.770037" lat="51.004782"><ele>37.8</ele><time>2022-05-29T06:51:29.000Z</time></trkpt><trkpt lon="5.77" lat="51.004731"><ele>38</ele><time>2022-05-29T06:51:30.000Z</time></trkpt><trkpt lon="5.769967" lat="51.004677"><ele>38</ele><time>2022-05-29T06:51:31.000Z</time></trkpt><trkpt lon="5.769933" lat="51.00462"><ele>38.2</ele><time>2022-05-29T06:51:32.000Z</time></trkpt><trkpt lon="5.769896" lat="51.004559"><ele>38.2</ele><time>2022-05-29T06:51:33.000Z</time></trkpt><trkpt lon="5.769857" lat="51.004497"><ele>38.2</ele><time>2022-05-29T06:51:34.000Z</time></trkpt><trkpt lon="5.769818" lat="51.004436"><ele>38.4</ele><time>2022-05-29T06:51:35.000Z</time></trkpt><trkpt lon="5.769779" lat="51.004376"><ele>38.4</ele><time>2022-05-29T06:51:36.000Z</time></trkpt><trkpt lon="5.76974" lat="51.004318"><ele>38.6</ele><time>2022-05-29T06:51:37.000Z</time></trkpt><trkpt lon="5.7697" lat="51.004258"><ele>38.8</ele><time>2022-05-29T06:51:38.000Z</time></trkpt><trkpt lon="5.769659" lat="51.004199"><ele>39</ele><time>2022-05-29T06:51:39.000Z</time></trkpt><trkpt lon="5.76962" lat="51.004134"><ele>39</ele><time>2022-05-29T06:51:40.000Z</time></trkpt><trkpt lon="5.769594" lat="51.004069"><ele>39</ele><time>2022-05-29T06:51:41.000Z</time></trkpt><trkpt lon="5.769569" lat="51.004004"><ele>39</ele><time>2022-05-29T06:51:42.000Z</time></trkpt><trkpt lon="5.769551" lat="51.003937"><ele>39.2</ele><time>2022-05-29T06:51:43.000Z</time></trkpt><trkpt lon="5.769536" lat="51.003874"><ele>39.2</ele><time>2022-05-29T06:51:44.000Z</time></trkpt><trkpt lon="5.769522" lat="51.003807"><ele>39.4</ele><time>2022-05-29T06:51:45.000Z</time></trkpt><trkpt lon="5.769517" lat="51.003734"><ele>39.4</ele><time>2022-05-29T06:51:46.000Z</time></trkpt><trkpt lon="5.769521" lat="51.003673"><ele>39.4</ele><time>2022-05-29T06:51:47.000Z</time></trkpt><trkpt lon="5.769536" lat="51.003606"><ele>39.6</ele><time>2022-05-29T06:51:48.000Z</time></trkpt><trkpt lon="5.76956" lat="51.003535"><ele>39.6</ele><time>2022-05-29T06:51:49.000Z</time></trkpt><trkpt lon="5.769596" lat="51.003467"><ele>39.6</ele><time>2022-05-29T06:51:50.000Z</time></trkpt><trkpt lon="5.769637" lat="51.003403"><ele>39.6</ele><time>2022-05-29T06:51:51.000Z</time></trkpt><trkpt lon="5.769683" lat="51.003341"><ele>39.6</ele><time>2022-05-29T06:51:52.000Z</time></trkpt><trkpt lon="5.769732" lat="51.003277"><ele>39.8</ele><time>2022-05-29T06:51:53.000Z</time></trkpt><trkpt lon="5.769785" lat="51.003216"><ele>39.8</ele><time>2022-05-29T06:51:54.000Z</time></trkpt><trkpt lon="5.769839" lat="51.003157"><ele>39.6</ele><time>2022-05-29T06:51:55.000Z</time></trkpt><trkpt lon="5.769893" lat="51.003093"><ele>39.6</ele><time>2022-05-29T06:51:56.000Z</time></trkpt><trkpt lon="5.769943" lat="51.003029"><ele>39.6</ele><time>2022-05-29T06:51:57.000Z</time></trkpt><trkpt lon="5.769984" lat="51.002967"><ele>39.6</ele><time>2022-05-29T06:51:58.000Z</time></trkpt><trkpt lon="5.770012" lat="51.002901"><ele>39.6</ele><time>2022-05-29T06:51:59.000Z</time></trkpt><trkpt lon="5.770026" lat="51.002829"><ele>39.6</ele><time>2022-05-29T06:52:00.000Z</time></trkpt><trkpt lon="5.770033" lat="51.002756"><ele>39.6</ele><time>2022-05-29T06:52:01.000Z</time></trkpt><trkpt lon="5.770033" lat="51.002684"><ele>39.4</ele><time>2022-05-29T06:52:02.000Z</time></trkpt><trkpt lon="5.770031" lat="51.002615"><ele>39.4</ele><time>2022-05-29T06:52:03.000Z</time></trkpt><trkpt lon="5.770028" lat="51.002543"><ele>39.4</ele><time>2022-05-29T06:52:04.000Z</time></trkpt><trkpt lon="5.770027" lat="51.002471"><ele>39.4</ele><time>2022-05-29T06:52:05.000Z</time></trkpt><trkpt lon="5.770025" lat="51.0024"><ele>39.4</ele><time>2022-05-29T06:52:06.000Z</time></trkpt><trkpt lon="5.770025" lat="51.002326"><ele>39.4</ele><time>2022-05-29T06:52:07.000Z</time></trkpt><trkpt lon="5.770027" lat="51.002254"><ele>39.4</ele><time>2022-05-29T06:52:08.000Z</time></trkpt><trkpt lon="5.770027" lat="51.00218"><ele>39.4</ele><time>2022-05-29T06:52:09.000Z</time></trkpt><trkpt lon="5.770027" lat="51.002111"><ele>39.4</ele><time>2022-05-29T06:52:10.000Z</time></trkpt><trkpt lon="5.770027" lat="51.002039"><ele>39.4</ele><time>2022-05-29T06:52:11.000Z</time></trkpt><trkpt lon="5.770026" lat="51.001971"><ele>39.4</ele><time>2022-05-29T06:52:12.000Z</time></trkpt><trkpt lon="5.770025" lat="51.001902"><ele>39.4</ele><time>2022-05-29T06:52:13.000Z</time></trkpt><trkpt lon="5.770024" lat="51.001832"><ele>39.4</ele><time>2022-05-29T06:52:14.000Z</time></trkpt><trkpt lon="5.770025" lat="51.001761"><ele>39.4</ele><time>2022-05-29T06:52:15.000Z</time></trkpt><trkpt lon="5.770028" lat="51.001692"><ele>39.4</ele><time>2022-05-29T06:52:16.000Z</time></trkpt><trkpt lon="5.770027" lat="51.001624"><ele>39.4</ele><time>2022-05-29T06:52:17.000Z</time></trkpt><trkpt lon="5.770022" lat="51.001554"><ele>39.4</ele><time>2022-05-29T06:52:18.000Z</time></trkpt><trkpt lon="5.770014" lat="51.001483"><ele>39.4</ele><time>2022-05-29T06:52:19.000Z</time></trkpt><trkpt lon="5.770007" lat="51.001413"><ele>39.4</ele><time>2022-05-29T06:52:20.000Z</time></trkpt><trkpt lon="5.769996" lat="51.001341"><ele>39.4</ele><time>2022-05-29T06:52:21.000Z</time></trkpt><trkpt lon="5.769985" lat="51.001269"><ele>39.6</ele><time>2022-05-29T06:52:22.000Z</time></trkpt><trkpt lon="5.769978" lat="51.0012"><ele>39.4</ele><time>2022-05-29T06:52:23.000Z</time></trkpt><trkpt lon="5.769969" lat="51.001131"><ele>39.4</ele><time>2022-05-29T06:52:24.000Z</time></trkpt><trkpt lon="5.769964" lat="51.001059"><ele>39.4</ele><time>2022-05-29T06:52:25.000Z</time></trkpt><trkpt lon="5.769958" lat="51.00099"><ele>39.6</ele><time>2022-05-29T06:52:26.000Z</time></trkpt><trkpt lon="5.769948" lat="51.000922"><ele>39.6</ele><time>2022-05-29T06:52:27.000Z</time></trkpt><trkpt lon="5.769936" lat="51.000853"><ele>39.8</ele><time>2022-05-29T06:52:28.000Z</time></trkpt><trkpt lon="5.769925" lat="51.000785"><ele>39.8</ele><time>2022-05-29T06:52:29.000Z</time></trkpt><trkpt lon="5.769915" lat="51.000716"><ele>39.8</ele><time>2022-05-29T06:52:30.000Z</time></trkpt><trkpt lon="5.769908" lat="51.000648"><ele>40</ele><time>2022-05-29T06:52:31.000Z</time></trkpt><trkpt lon="5.769902" lat="51.000582"><ele>40</ele><time>2022-05-29T06:52:32.000Z</time></trkpt><trkpt lon="5.769897" lat="51.000514"><ele>40.2</ele><time>2022-05-29T06:52:33.000Z</time></trkpt><trkpt lon="5.769892" lat="51.000451"><ele>40.2</ele><time>2022-05-29T06:52:34.000Z</time></trkpt><trkpt lon="5.769891" lat="51.000385"><ele>40.4</ele><time>2022-05-29T06:52:35.000Z</time></trkpt><trkpt lon="5.769889" lat="51.000321"><ele>40.4</ele><time>2022-05-29T06:52:36.000Z</time></trkpt><trkpt lon="5.769886" lat="51.000259"><ele>40.6</ele><time>2022-05-29T06:52:37.000Z</time></trkpt><trkpt lon="5.769885" lat="51.000198"><ele>40.6</ele><time>2022-05-29T06:52:38.000Z</time></trkpt><trkpt lon="5.769886" lat="51.000134"><ele>40.6</ele><time>2022-05-29T06:52:39.000Z</time></trkpt><trkpt lon="5.769886" lat="51.000073"><ele>40.6</ele><time>2022-05-29T06:52:40.000Z</time></trkpt><trkpt lon="5.769888" lat="51.000015"><ele>40.6</ele><time>2022-05-29T06:52:41.000Z</time></trkpt><trkpt lon="5.769887" lat="50.99995"><ele>40.6</ele><time>2022-05-29T06:52:42.000Z</time></trkpt><trkpt lon="5.769889" lat="50.999886"><ele>40.8</ele><time>2022-05-29T06:52:43.000Z</time></trkpt><trkpt lon="5.769893" lat="50.99982"><ele>40.8</ele><time>2022-05-29T06:52:44.000Z</time></trkpt><trkpt lon="5.7699" lat="50.999755"><ele>40.8</ele><time>2022-05-29T06:52:45.000Z</time></trkpt><trkpt lon="5.769908" lat="50.999686"><ele>40.8</ele><time>2022-05-29T06:52:46.000Z</time></trkpt><trkpt lon="5.769919" lat="50.999617"><ele>40.8</ele><time>2022-05-29T06:52:47.000Z</time></trkpt><trkpt lon="5.769934" lat="50.999549"><ele>40.8</ele><time>2022-05-29T06:52:48.000Z</time></trkpt><trkpt lon="5.769943" lat="50.999481"><ele>40.8</ele><time>2022-05-29T06:52:49.000Z</time></trkpt><trkpt lon="5.769947" lat="50.99942"><ele>40.8</ele><time>2022-05-29T06:52:50.000Z</time></trkpt><trkpt lon="5.769953" lat="50.999354"><ele>40.8</ele><time>2022-05-29T06:52:51.000Z</time></trkpt><trkpt lon="5.769958" lat="50.999287"><ele>40.8</ele><time>2022-05-29T06:52:52.000Z</time></trkpt><trkpt lon="5.769963" lat="50.999221"><ele>40.8</ele><time>2022-05-29T06:52:53.000Z</time></trkpt><trkpt lon="5.769971" lat="50.999152"><ele>40.8</ele><time>2022-05-29T06:52:54.000Z</time></trkpt><trkpt lon="5.769982" lat="50.999083"><ele>40.8</ele><time>2022-05-29T06:52:55.000Z</time></trkpt><trkpt lon="5.769994" lat="50.999011"><ele>40.8</ele><time>2022-05-29T06:52:56.000Z</time></trkpt><trkpt lon="5.770004" lat="50.998943"><ele>40.6</ele><time>2022-05-29T06:52:57.000Z</time></trkpt><trkpt lon="5.770016" lat="50.998878"><ele>40.6</ele><time>2022-05-29T06:52:58.000Z</time></trkpt><trkpt lon="5.770031" lat="50.998812"><ele>40.4</ele><time>2022-05-29T06:52:59.000Z</time></trkpt><trkpt lon="5.770044" lat="50.998744"><ele>40.4</ele><time>2022-05-29T06:53:00.000Z</time></trkpt><trkpt lon="5.770056" lat="50.998679"><ele>40.4</ele><time>2022-05-29T06:53:01.000Z</time></trkpt><trkpt lon="5.770066" lat="50.998616"><ele>40.4</ele><time>2022-05-29T06:53:02.000Z</time></trkpt><trkpt lon="5.770075" lat="50.998554"><ele>40.4</ele><time>2022-05-29T06:53:03.000Z</time></trkpt><trkpt lon="5.770085" lat="50.998493"><ele>40.4</ele><time>2022-05-29T06:53:04.000Z</time></trkpt><trkpt lon="5.770095" lat="50.998434"><ele>40.6</ele><time>2022-05-29T06:53:05.000Z</time></trkpt><trkpt lon="5.770105" lat="50.998376"><ele>40.6</ele><time>2022-05-29T06:53:06.000Z</time></trkpt><trkpt lon="5.770117" lat="50.998315"><ele>40.6</ele><time>2022-05-29T06:53:07.000Z</time></trkpt><trkpt lon="5.77013" lat="50.998257"><ele>40.4</ele><time>2022-05-29T06:53:08.000Z</time></trkpt><trkpt lon="5.770142" lat="50.998193"><ele>40.4</ele><time>2022-05-29T06:53:09.000Z</time></trkpt><trkpt lon="5.770156" lat="50.998127"><ele>40.4</ele><time>2022-05-29T06:53:10.000Z</time></trkpt><trkpt lon="5.770169" lat="50.998066"><ele>40.2</ele><time>2022-05-29T06:53:11.000Z</time></trkpt><trkpt lon="5.770181" lat="50.998006"><ele>40.2</ele><time>2022-05-29T06:53:12.000Z</time></trkpt><trkpt lon="5.770194" lat="50.997943"><ele>40.2</ele><time>2022-05-29T06:53:13.000Z</time></trkpt><trkpt lon="5.770206" lat="50.997874"><ele>40.2</ele><time>2022-05-29T06:53:14.000Z</time></trkpt><trkpt lon="5.770219" lat="50.997804"><ele>40.2</ele><time>2022-05-29T06:53:15.000Z</time></trkpt><trkpt lon="5.770234" lat="50.997724"><ele>40.4</ele><time>2022-05-29T06:53:16.000Z</time></trkpt><trkpt lon="5.770247" lat="50.997647"><ele>40.4</ele><time>2022-05-29T06:53:17.000Z</time></trkpt><trkpt lon="5.770258" lat="50.997563"><ele>40.4</ele><time>2022-05-29T06:53:18.000Z</time></trkpt><trkpt lon="5.770271" lat="50.997483"><ele>40.4</ele><time>2022-05-29T06:53:19.000Z</time></trkpt><trkpt lon="5.770281" lat="50.997403"><ele>40.2</ele><time>2022-05-29T06:53:20.000Z</time></trkpt><trkpt lon="5.770287" lat="50.997323"><ele>40.2</ele><time>2022-05-29T06:53:21.000Z</time></trkpt><trkpt lon="5.770287" lat="50.997244"><ele>40.2</ele><time>2022-05-29T06:53:22.000Z</time></trkpt><trkpt lon="5.77028" lat="50.99717"><ele>40</ele><time>2022-05-29T06:53:23.000Z</time></trkpt><trkpt lon="5.770265" lat="50.997095"><ele>40</ele><time>2022-05-29T06:53:24.000Z</time></trkpt><trkpt lon="5.770243" lat="50.997022"><ele>39.8</ele><time>2022-05-29T06:53:25.000Z</time></trkpt><trkpt lon="5.770214" lat="50.99695"><ele>39.8</ele><time>2022-05-29T06:53:26.000Z</time></trkpt><trkpt lon="5.770183" lat="50.99688"><ele>39.8</ele><time>2022-05-29T06:53:27.000Z</time></trkpt><trkpt lon="5.770152" lat="50.996812"><ele>39.8</ele><time>2022-05-29T06:53:28.000Z</time></trkpt><trkpt lon="5.770116" lat="50.996738"><ele>39.8</ele><time>2022-05-29T06:53:29.000Z</time></trkpt><trkpt lon="5.770083" lat="50.996674"><ele>40</ele><time>2022-05-29T06:53:30.000Z</time></trkpt><trkpt lon="5.770052" lat="50.996604"><ele>40</ele><time>2022-05-29T06:53:31.000Z</time></trkpt><trkpt lon="5.770021" lat="50.996535"><ele>40</ele><time>2022-05-29T06:53:32.000Z</time></trkpt><trkpt lon="5.769987" lat="50.996469"><ele>40</ele><time>2022-05-29T06:53:33.000Z</time></trkpt><trkpt lon="5.76995" lat="50.996402"><ele>40.2</ele><time>2022-05-29T06:53:34.000Z</time></trkpt><trkpt lon="5.769913" lat="50.996333"><ele>40.2</ele><time>2022-05-29T06:53:35.000Z</time></trkpt><trkpt lon="5.769876" lat="50.996265"><ele>40.2</ele><time>2022-05-29T06:53:36.000Z</time></trkpt><trkpt lon="5.76984" lat="50.9962"><ele>40.2</ele><time>2022-05-29T06:53:37.000Z</time></trkpt><trkpt lon="5.769803" lat="50.996135"><ele>40.2</ele><time>2022-05-29T06:53:38.000Z</time></trkpt><trkpt lon="5.769765" lat="50.99607"><ele>40.2</ele><time>2022-05-29T06:53:39.000Z</time></trkpt><trkpt lon="5.769731" lat="50.996002"><ele>40.2</ele><time>2022-05-29T06:53:40.000Z</time></trkpt><trkpt lon="5.769695" lat="50.995933"><ele>40.2</ele><time>2022-05-29T06:53:41.000Z</time></trkpt><trkpt lon="5.76966" lat="50.995869"><ele>40.2</ele><time>2022-05-29T06:53:42.000Z</time></trkpt><trkpt lon="5.769621" lat="50.995803"><ele>40.2</ele><time>2022-05-29T06:53:43.000Z</time></trkpt><trkpt lon="5.769583" lat="50.995734"><ele>40.2</ele><time>2022-05-29T06:53:44.000Z</time></trkpt><trkpt lon="5.769545" lat="50.995669"><ele>40.2</ele><time>2022-05-29T06:53:45.000Z</time></trkpt><trkpt lon="5.769507" lat="50.995602"><ele>40.2</ele><time>2022-05-29T06:53:46.000Z</time></trkpt><trkpt lon="5.769469" lat="50.995532"><ele>40.2</ele><time>2022-05-29T06:53:47.000Z</time></trkpt><trkpt lon="5.769432" lat="50.995463"><ele>40.2</ele><time>2022-05-29T06:53:48.000Z</time></trkpt><trkpt lon="5.769396" lat="50.995395"><ele>40.2</ele><time>2022-05-29T06:53:49.000Z</time></trkpt><trkpt lon="5.769366" lat="50.995328"><ele>40.2</ele><time>2022-05-29T06:53:50.000Z</time></trkpt><trkpt lon="5.769337" lat="50.995259"><ele>40</ele><time>2022-05-29T06:53:51.000Z</time></trkpt><trkpt lon="5.769306" lat="50.995193"><ele>39.8</ele><time>2022-05-29T06:53:52.000Z</time></trkpt><trkpt lon="5.769274" lat="50.995125"><ele>39.8</ele><time>2022-05-29T06:53:53.000Z</time></trkpt><trkpt lon="5.769241" lat="50.995057"><ele>39.8</ele><time>2022-05-29T06:53:54.000Z</time></trkpt><trkpt lon="5.769206" lat="50.994987"><ele>39.8</ele><time>2022-05-29T06:53:55.000Z</time></trkpt><trkpt lon="5.769168" lat="50.994917"><ele>39.6</ele><time>2022-05-29T06:53:56.000Z</time></trkpt><trkpt lon="5.769133" lat="50.994849"><ele>39.6</ele><time>2022-05-29T06:53:57.000Z</time></trkpt><trkpt lon="5.769099" lat="50.994785"><ele>39.6</ele><time>2022-05-29T06:53:58.000Z</time></trkpt><trkpt lon="5.769062" lat="50.994716"><ele>39.6</ele><time>2022-05-29T06:53:59.000Z</time></trkpt><trkpt lon="5.769028" lat="50.994652"><ele>39.8</ele><time>2022-05-29T06:54:00.000Z</time></trkpt><trkpt lon="5.768994" lat="50.994587"><ele>39.8</ele><time>2022-05-29T06:54:01.000Z</time></trkpt><trkpt lon="5.768961" lat="50.994523"><ele>39.8</ele><time>2022-05-29T06:54:02.000Z</time></trkpt><trkpt lon="5.768927" lat="50.994461"><ele>39.8</ele><time>2022-05-29T06:54:03.000Z</time></trkpt><trkpt lon="5.768896" lat="50.994401"><ele>39.6</ele><time>2022-05-29T06:54:04.000Z</time></trkpt><trkpt lon="5.768868" lat="50.994344"><ele>39.6</ele><time>2022-05-29T06:54:05.000Z</time></trkpt><trkpt lon="5.768847" lat="50.994282"><ele>39.4</ele><time>2022-05-29T06:54:06.000Z</time></trkpt><trkpt lon="5.768841" lat="50.994223"><ele>39.4</ele><time>2022-05-29T06:54:07.000Z</time></trkpt><trkpt lon="5.76885" lat="50.994166"><ele>39.4</ele><time>2022-05-29T06:54:08.000Z</time></trkpt><trkpt lon="5.768868" lat="50.994113"><ele>39.2</ele><time>2022-05-29T06:54:09.000Z</time></trkpt><trkpt lon="5.76888" lat="50.99406"><ele>39</ele><time>2022-05-29T06:54:10.000Z</time></trkpt><trkpt lon="5.768864" lat="50.994014"><ele>39</ele><time>2022-05-29T06:54:11.000Z</time></trkpt><trkpt lon="5.76882" lat="50.993971"><ele>38.8</ele><time>2022-05-29T06:54:12.000Z</time></trkpt><trkpt lon="5.768753" lat="50.993927"><ele>38.8</ele><time>2022-05-29T06:54:13.000Z</time></trkpt><trkpt lon="5.768682" lat="50.993881"><ele>38.6</ele><time>2022-05-29T06:54:14.000Z</time></trkpt><trkpt lon="5.768612" lat="50.993834"><ele>38.6</ele><time>2022-05-29T06:54:15.000Z</time></trkpt><trkpt lon="5.768549" lat="50.99378"><ele>38.6</ele><time>2022-05-29T06:54:16.000Z</time></trkpt><trkpt lon="5.768498" lat="50.993723"><ele>38.6</ele><time>2022-05-29T06:54:17.000Z</time></trkpt><trkpt lon="5.768454" lat="50.993659"><ele>38.4</ele><time>2022-05-29T06:54:18.000Z</time></trkpt><trkpt lon="5.768415" lat="50.993595"><ele>38.4</ele><time>2022-05-29T06:54:19.000Z</time></trkpt><trkpt lon="5.768377" lat="50.993531"><ele>38.4</ele><time>2022-05-29T06:54:20.000Z</time></trkpt><trkpt lon="5.76834" lat="50.993466"><ele>38.2</ele><time>2022-05-29T06:54:21.000Z</time></trkpt><trkpt lon="5.768306" lat="50.993398"><ele>38.2</ele><time>2022-05-29T06:54:22.000Z</time></trkpt><trkpt lon="5.768275" lat="50.993337"><ele>38</ele><time>2022-05-29T06:54:23.000Z</time></trkpt><trkpt lon="5.768245" lat="50.993271"><ele>38</ele><time>2022-05-29T06:54:24.000Z</time></trkpt><trkpt lon="5.768218" lat="50.993208"><ele>37.8</ele><time>2022-05-29T06:54:25.000Z</time></trkpt><trkpt lon="5.768187" lat="50.993151"><ele>37.8</ele><time>2022-05-29T06:54:26.000Z</time></trkpt><trkpt lon="5.768151" lat="50.993098"><ele>37.6</ele><time>2022-05-29T06:54:27.000Z</time></trkpt><trkpt lon="5.768115" lat="50.993046"><ele>37.6</ele><time>2022-05-29T06:54:28.000Z</time></trkpt><trkpt lon="5.768082" lat="50.993005"><ele>37.6</ele><time>2022-05-29T06:54:29.000Z</time></trkpt><trkpt lon="5.768052" lat="50.992968"><ele>37.4</ele><time>2022-05-29T06:54:30.000Z</time></trkpt><trkpt lon="5.768021" lat="50.992937"><ele>37.2</ele><time>2022-05-29T06:54:31.000Z</time></trkpt><trkpt lon="5.767986" lat="50.992902"><ele>37.2</ele><time>2022-05-29T06:54:32.000Z</time></trkpt><trkpt lon="5.767943" lat="50.992866"><ele>37</ele><time>2022-05-29T06:54:33.000Z</time></trkpt><trkpt lon="5.767896" lat="50.992824"><ele>36.8</ele><time>2022-05-29T06:54:34.000Z</time></trkpt><trkpt lon="5.767844" lat="50.992779"><ele>36.6</ele><time>2022-05-29T06:54:35.000Z</time></trkpt><trkpt lon="5.767789" lat="50.992733"><ele>36.6</ele><time>2022-05-29T06:54:36.000Z</time></trkpt><trkpt lon="5.767734" lat="50.992687"><ele>36.4</ele><time>2022-05-29T06:54:37.000Z</time></trkpt><trkpt lon="5.767682" lat="50.992641"><ele>36.2</ele><time>2022-05-29T06:54:38.000Z</time></trkpt><trkpt lon="5.767633" lat="50.992592"><ele>36</ele><time>2022-05-29T06:54:39.000Z</time></trkpt><trkpt lon="5.767584" lat="50.992543"><ele>35.8</ele><time>2022-05-29T06:54:40.000Z</time></trkpt><trkpt lon="5.767535" lat="50.992496"><ele>35.6</ele><time>2022-05-29T06:54:41.000Z</time></trkpt><trkpt lon="5.767488" lat="50.992452"><ele>35.4</ele><time>2022-05-29T06:54:42.000Z</time></trkpt><trkpt lon="5.767441" lat="50.992414"><ele>35.4</ele><time>2022-05-29T06:54:43.000Z</time></trkpt><trkpt lon="5.767396" lat="50.992377"><ele>35.2</ele><time>2022-05-29T06:54:44.000Z</time></trkpt><trkpt lon="5.767348" lat="50.992344"><ele>35</ele><time>2022-05-29T06:54:45.000Z</time></trkpt><trkpt lon="5.767297" lat="50.992322"><ele>34.8</ele><time>2022-05-29T06:54:46.000Z</time></trkpt><trkpt lon="5.767234" lat="50.992311"><ele>34.6</ele><time>2022-05-29T06:54:47.000Z</time></trkpt><trkpt lon="5.767158" lat="50.99232"><ele>34.4</ele><time>2022-05-29T06:54:48.000Z</time></trkpt><trkpt lon="5.767075" lat="50.99234"><ele>34.2</ele><time>2022-05-29T06:54:49.000Z</time></trkpt><trkpt lon="5.766993" lat="50.992363"><ele>34.2</ele><time>2022-05-29T06:54:50.000Z</time></trkpt><trkpt lon="5.766897" lat="50.992389"><ele>34</ele><time>2022-05-29T06:54:51.000Z</time></trkpt><trkpt lon="5.766798" lat="50.99241"><ele>34</ele><time>2022-05-29T06:54:52.000Z</time></trkpt><trkpt lon="5.766691" lat="50.992434"><ele>33.8</ele><time>2022-05-29T06:54:53.000Z</time></trkpt><trkpt lon="5.766581" lat="50.992443"><ele>33.8</ele><time>2022-05-29T06:54:54.000Z</time></trkpt><trkpt lon="5.766472" lat="50.992442"><ele>33.8</ele><time>2022-05-29T06:54:55.000Z</time></trkpt><trkpt lon="5.76636" lat="50.992433"><ele>33.8</ele><time>2022-05-29T06:54:56.000Z</time></trkpt><trkpt lon="5.766248" lat="50.992418"><ele>33.6</ele><time>2022-05-29T06:54:57.000Z</time></trkpt><trkpt lon="5.766135" lat="50.992407"><ele>33.4</ele><time>2022-05-29T06:54:58.000Z</time></trkpt><trkpt lon="5.766026" lat="50.992395"><ele>33.4</ele><time>2022-05-29T06:54:59.000Z</time></trkpt><trkpt lon="5.765917" lat="50.992384"><ele>33.2</ele><time>2022-05-29T06:55:00.000Z</time></trkpt><trkpt lon="5.76581" lat="50.992373"><ele>33.2</ele><time>2022-05-29T06:55:01.000Z</time></trkpt><trkpt lon="5.765703" lat="50.992365"><ele>33</ele><time>2022-05-29T06:55:02.000Z</time></trkpt><trkpt lon="5.765598" lat="50.992357"><ele>33</ele><time>2022-05-29T06:55:03.000Z</time></trkpt><trkpt lon="5.765496" lat="50.992345"><ele>33</ele><time>2022-05-29T06:55:04.000Z</time></trkpt><trkpt lon="5.765397" lat="50.992328"><ele>32.8</ele><time>2022-05-29T06:55:05.000Z</time></trkpt><trkpt lon="5.765303" lat="50.992305"><ele>32.4</ele><time>2022-05-29T06:55:06.000Z</time></trkpt><trkpt lon="5.765215" lat="50.992276"><ele>32.2</ele><time>2022-05-29T06:55:07.000Z</time></trkpt><trkpt lon="5.765127" lat="50.992241"><ele>32</ele><time>2022-05-29T06:55:08.000Z</time></trkpt><trkpt lon="5.765041" lat="50.992203"><ele>32</ele><time>2022-05-29T06:55:09.000Z</time></trkpt><trkpt lon="5.764958" lat="50.992159"><ele>31.8</ele><time>2022-05-29T06:55:10.000Z</time></trkpt><trkpt lon="5.764876" lat="50.992109"><ele>31.6</ele><time>2022-05-29T06:55:11.000Z</time></trkpt><trkpt lon="5.764794" lat="50.99206"><ele>31.2</ele><time>2022-05-29T06:55:12.000Z</time></trkpt><trkpt lon="5.764711" lat="50.992014"><ele>31</ele><time>2022-05-29T06:55:13.000Z</time></trkpt><trkpt lon="5.764629" lat="50.991964"><ele>30.8</ele><time>2022-05-29T06:55:14.000Z</time></trkpt><trkpt lon="5.764546" lat="50.991914"><ele>30.4</ele><time>2022-05-29T06:55:15.000Z</time></trkpt><trkpt lon="5.764466" lat="50.991861"><ele>30</ele><time>2022-05-29T06:55:16.000Z</time></trkpt><trkpt lon="5.764389" lat="50.991808"><ele>30</ele><time>2022-05-29T06:55:17.000Z</time></trkpt><trkpt lon="5.764316" lat="50.991754"><ele>30</ele><time>2022-05-29T06:55:18.000Z</time></trkpt><trkpt lon="5.764243" lat="50.991696"><ele>30</ele><time>2022-05-29T06:55:19.000Z</time></trkpt><trkpt lon="5.764174" lat="50.991638"><ele>29.8</ele><time>2022-05-29T06:55:20.000Z</time></trkpt><trkpt lon="5.764107" lat="50.991578"><ele>29.6</ele><time>2022-05-29T06:55:21.000Z</time></trkpt><trkpt lon="5.764039" lat="50.99152"><ele>29.6</ele><time>2022-05-29T06:55:22.000Z</time></trkpt><trkpt lon="5.763974" lat="50.991459"><ele>29.6</ele><time>2022-05-29T06:55:23.000Z</time></trkpt><trkpt lon="5.763907" lat="50.991397"><ele>29.6</ele><time>2022-05-29T06:55:24.000Z</time></trkpt><trkpt lon="5.763843" lat="50.991336"><ele>29.6</ele><time>2022-05-29T06:55:25.000Z</time></trkpt><trkpt lon="5.763783" lat="50.991272"><ele>29.4</ele><time>2022-05-29T06:55:26.000Z</time></trkpt><trkpt lon="5.763726" lat="50.991214"><ele>29.4</ele><time>2022-05-29T06:55:27.000Z</time></trkpt><trkpt lon="5.763667" lat="50.99115"><ele>29.2</ele><time>2022-05-29T06:55:28.000Z</time></trkpt><trkpt lon="5.763608" lat="50.991091"><ele>29</ele><time>2022-05-29T06:55:29.000Z</time></trkpt><trkpt lon="5.763548" lat="50.991027"><ele>29</ele><time>2022-05-29T06:55:30.000Z</time></trkpt><trkpt lon="5.763484" lat="50.990963"><ele>28.8</ele><time>2022-05-29T06:55:31.000Z</time></trkpt><trkpt lon="5.763419" lat="50.990901"><ele>28.6</ele><time>2022-05-29T06:55:32.000Z</time></trkpt><trkpt lon="5.763354" lat="50.990835"><ele>28.2</ele><time>2022-05-29T06:55:33.000Z</time></trkpt><trkpt lon="5.763291" lat="50.990768"><ele>28</ele><time>2022-05-29T06:55:34.000Z</time></trkpt><trkpt lon="5.763228" lat="50.990703"><ele>27.8</ele><time>2022-05-29T06:55:35.000Z</time></trkpt><trkpt lon="5.763163" lat="50.990638"><ele>27.6</ele><time>2022-05-29T06:55:36.000Z</time></trkpt><trkpt lon="5.763101" lat="50.990574"><ele>27.4</ele><time>2022-05-29T06:55:37.000Z</time></trkpt><trkpt lon="5.763035" lat="50.990517"><ele>27.2</ele><time>2022-05-29T06:55:38.000Z</time></trkpt><trkpt lon="5.762968" lat="50.990456"><ele>27</ele><time>2022-05-29T06:55:39.000Z</time></trkpt><trkpt lon="5.762906" lat="50.990399"><ele>27.2</ele><time>2022-05-29T06:55:40.000Z</time></trkpt><trkpt lon="5.762843" lat="50.990347"><ele>27.2</ele><time>2022-05-29T06:55:41.000Z</time></trkpt><trkpt lon="5.76278" lat="50.990297"><ele>27.2</ele><time>2022-05-29T06:55:42.000Z</time></trkpt><trkpt lon="5.76272" lat="50.990245"><ele>27.4</ele><time>2022-05-29T06:55:43.000Z</time></trkpt><trkpt lon="5.762663" lat="50.990197"><ele>28</ele><time>2022-05-29T06:55:44.000Z</time></trkpt><trkpt lon="5.762624" lat="50.990144"><ele>28.4</ele><time>2022-05-29T06:55:45.000Z</time></trkpt><trkpt lon="5.762605" lat="50.990091"><ele>28.8</ele><time>2022-05-29T06:55:46.000Z</time></trkpt><trkpt lon="5.762605" lat="50.990036"><ele>29.2</ele><time>2022-05-29T06:55:47.000Z</time></trkpt><trkpt lon="5.762624" lat="50.989974"><ele>29.4</ele><time>2022-05-29T06:55:48.000Z</time></trkpt><trkpt lon="5.76265" lat="50.989909"><ele>29.4</ele><time>2022-05-29T06:55:49.000Z</time></trkpt><trkpt lon="5.762678" lat="50.98984"><ele>29.4</ele><time>2022-05-29T06:55:50.000Z</time></trkpt><trkpt lon="5.762703" lat="50.989762"><ele>29.2</ele><time>2022-05-29T06:55:51.000Z</time></trkpt><trkpt lon="5.762732" lat="50.989685"><ele>29</ele><time>2022-05-29T06:55:52.000Z</time></trkpt><trkpt lon="5.762771" lat="50.989605"><ele>28.6</ele><time>2022-05-29T06:55:53.000Z</time></trkpt><trkpt lon="5.762823" lat="50.98953"><ele>28.2</ele><time>2022-05-29T06:55:54.000Z</time></trkpt><trkpt lon="5.762884" lat="50.989459"><ele>28</ele><time>2022-05-29T06:55:55.000Z</time></trkpt><trkpt lon="5.762954" lat="50.989395"><ele>27.6</ele><time>2022-05-29T06:55:56.000Z</time></trkpt><trkpt lon="5.76303" lat="50.98933"><ele>27.6</ele><time>2022-05-29T06:55:57.000Z</time></trkpt><trkpt lon="5.763104" lat="50.989264"><ele>27.4</ele><time>2022-05-29T06:55:58.000Z</time></trkpt><trkpt lon="5.763175" lat="50.9892"><ele>27.4</ele><time>2022-05-29T06:55:59.000Z</time></trkpt><trkpt lon="5.763244" lat="50.989135"><ele>27.4</ele><time>2022-05-29T06:56:00.000Z</time></trkpt><trkpt lon="5.763314" lat="50.989066"><ele>27.4</ele><time>2022-05-29T06:56:01.000Z</time></trkpt><trkpt lon="5.763379" lat="50.988998"><ele>27.2</ele><time>2022-05-29T06:56:02.000Z</time></trkpt><trkpt lon="5.763443" lat="50.988932"><ele>27.2</ele><time>2022-05-29T06:56:03.000Z</time></trkpt><trkpt lon="5.763503" lat="50.988867"><ele>27.2</ele><time>2022-05-29T06:56:04.000Z</time></trkpt><trkpt lon="5.76356" lat="50.988798"><ele>27.2</ele><time>2022-05-29T06:56:05.000Z</time></trkpt><trkpt lon="5.763615" lat="50.98873"><ele>27.4</ele><time>2022-05-29T06:56:06.000Z</time></trkpt><trkpt lon="5.76367" lat="50.98866"><ele>27.4</ele><time>2022-05-29T06:56:07.000Z</time></trkpt><trkpt lon="5.763721" lat="50.98859"><ele>27.4</ele><time>2022-05-29T06:56:08.000Z</time></trkpt><trkpt lon="5.763774" lat="50.988521"><ele>27.4</ele><time>2022-05-29T06:56:09.000Z</time></trkpt><trkpt lon="5.763826" lat="50.988452"><ele>27.2</ele><time>2022-05-29T06:56:10.000Z</time></trkpt><trkpt lon="5.763879" lat="50.988383"><ele>27.2</ele><time>2022-05-29T06:56:11.000Z</time></trkpt><trkpt lon="5.763926" lat="50.988315"><ele>27.2</ele><time>2022-05-29T06:56:12.000Z</time></trkpt><trkpt lon="5.763965" lat="50.988246"><ele>27</ele><time>2022-05-29T06:56:13.000Z</time></trkpt><trkpt lon="5.763999" lat="50.988177"><ele>27</ele><time>2022-05-29T06:56:14.000Z</time></trkpt><trkpt lon="5.764032" lat="50.988105"><ele>27.2</ele><time>2022-05-29T06:56:15.000Z</time></trkpt><trkpt lon="5.764062" lat="50.988035"><ele>27</ele><time>2022-05-29T06:56:16.000Z</time></trkpt><trkpt lon="5.764094" lat="50.987959"><ele>27</ele><time>2022-05-29T06:56:17.000Z</time></trkpt><trkpt lon="5.764128" lat="50.987887"><ele>27</ele><time>2022-05-29T06:56:18.000Z</time></trkpt><trkpt lon="5.764158" lat="50.987817"><ele>27</ele><time>2022-05-29T06:56:19.000Z</time></trkpt><trkpt lon="5.764181" lat="50.987747"><ele>27</ele><time>2022-05-29T06:56:20.000Z</time></trkpt><trkpt lon="5.764191" lat="50.987676"><ele>26.8</ele><time>2022-05-29T06:56:21.000Z</time></trkpt><trkpt lon="5.764186" lat="50.987605"><ele>26.6</ele><time>2022-05-29T06:56:22.000Z</time></trkpt><trkpt lon="5.764154" lat="50.987532"><ele>26.4</ele><time>2022-05-29T06:56:23.000Z</time></trkpt><trkpt lon="5.764103" lat="50.98746"><ele>26.2</ele><time>2022-05-29T06:56:24.000Z</time></trkpt><trkpt lon="5.764045" lat="50.987386"><ele>26</ele><time>2022-05-29T06:56:25.000Z</time></trkpt><trkpt lon="5.763981" lat="50.987316"><ele>26</ele><time>2022-05-29T06:56:26.000Z</time></trkpt><trkpt lon="5.763912" lat="50.987242"><ele>26</ele><time>2022-05-29T06:56:27.000Z</time></trkpt><trkpt lon="5.76385" lat="50.987172"><ele>26.2</ele><time>2022-05-29T06:56:28.000Z</time></trkpt><trkpt lon="5.763789" lat="50.987101"><ele>26.2</ele><time>2022-05-29T06:56:29.000Z</time></trkpt><trkpt lon="5.763732" lat="50.987034"><ele>26</ele><time>2022-05-29T06:56:30.000Z</time></trkpt><trkpt lon="5.763675" lat="50.986966"><ele>26</ele><time>2022-05-29T06:56:31.000Z</time></trkpt><trkpt lon="5.763618" lat="50.9869"><ele>26.2</ele><time>2022-05-29T06:56:32.000Z</time></trkpt><trkpt lon="5.76356" lat="50.986831"><ele>26.4</ele><time>2022-05-29T06:56:33.000Z</time></trkpt><trkpt lon="5.763505" lat="50.986768"><ele>26.4</ele><time>2022-05-29T06:56:34.000Z</time></trkpt><trkpt lon="5.763446" lat="50.986697"><ele>26.6</ele><time>2022-05-29T06:56:35.000Z</time></trkpt><trkpt lon="5.763391" lat="50.98663"><ele>26.6</ele><time>2022-05-29T06:56:36.000Z</time></trkpt><trkpt lon="5.763333" lat="50.986562"><ele>26.8</ele><time>2022-05-29T06:56:37.000Z</time></trkpt><trkpt lon="5.763277" lat="50.986497"><ele>26.8</ele><time>2022-05-29T06:56:38.000Z</time></trkpt><trkpt lon="5.763219" lat="50.986426"><ele>26.8</ele><time>2022-05-29T06:56:39.000Z</time></trkpt><trkpt lon="5.763164" lat="50.986359"><ele>27</ele><time>2022-05-29T06:56:40.000Z</time></trkpt><trkpt lon="5.763106" lat="50.986293"><ele>27</ele><time>2022-05-29T06:56:41.000Z</time></trkpt><trkpt lon="5.763048" lat="50.986225"><ele>27</ele><time>2022-05-29T06:56:42.000Z</time></trkpt><trkpt lon="5.76299" lat="50.98616"><ele>27</ele><time>2022-05-29T06:56:43.000Z</time></trkpt><trkpt lon="5.762933" lat="50.986095"><ele>27</ele><time>2022-05-29T06:56:44.000Z</time></trkpt><trkpt lon="5.762879" lat="50.98603"><ele>27</ele><time>2022-05-29T06:56:45.000Z</time></trkpt><trkpt lon="5.762824" lat="50.985967"><ele>27.2</ele><time>2022-05-29T06:56:46.000Z</time></trkpt><trkpt lon="5.762771" lat="50.985902"><ele>27.2</ele><time>2022-05-29T06:56:47.000Z</time></trkpt><trkpt lon="5.762716" lat="50.985841"><ele>27.4</ele><time>2022-05-29T06:56:48.000Z</time></trkpt><trkpt lon="5.762662" lat="50.985775"><ele>27.4</ele><time>2022-05-29T06:56:49.000Z</time></trkpt><trkpt lon="5.762608" lat="50.985711"><ele>27.4</ele><time>2022-05-29T06:56:50.000Z</time></trkpt><trkpt lon="5.762556" lat="50.985645"><ele>27.4</ele><time>2022-05-29T06:56:51.000Z</time></trkpt><trkpt lon="5.762503" lat="50.985581"><ele>27.4</ele><time>2022-05-29T06:56:52.000Z</time></trkpt><trkpt lon="5.762449" lat="50.985515"><ele>27.4</ele><time>2022-05-29T06:56:53.000Z</time></trkpt><trkpt lon="5.762396" lat="50.985451"><ele>27.4</ele><time>2022-05-29T06:56:54.000Z</time></trkpt><trkpt lon="5.762343" lat="50.985385"><ele>27.4</ele><time>2022-05-29T06:56:55.000Z</time></trkpt><trkpt lon="5.762289" lat="50.985318"><ele>27.6</ele><time>2022-05-29T06:56:56.000Z</time></trkpt><trkpt lon="5.762235" lat="50.985252"><ele>27.6</ele><time>2022-05-29T06:56:57.000Z</time></trkpt><trkpt lon="5.762181" lat="50.985188"><ele>27.6</ele><time>2022-05-29T06:56:58.000Z</time></trkpt><trkpt lon="5.762127" lat="50.985122"><ele>27.6</ele><time>2022-05-29T06:56:59.000Z</time></trkpt><trkpt lon="5.762074" lat="50.985059"><ele>27.8</ele><time>2022-05-29T06:57:00.000Z</time></trkpt><trkpt lon="5.762019" lat="50.984992"><ele>27.8</ele><time>2022-05-29T06:57:01.000Z</time></trkpt><trkpt lon="5.761966" lat="50.984925"><ele>27.8</ele><time>2022-05-29T06:57:02.000Z</time></trkpt><trkpt lon="5.76191" lat="50.984859"><ele>27.6</ele><time>2022-05-29T06:57:03.000Z</time></trkpt><trkpt lon="5.761854" lat="50.984794"><ele>27.8</ele><time>2022-05-29T06:57:04.000Z</time></trkpt><trkpt lon="5.761801" lat="50.984727"><ele>27.6</ele><time>2022-05-29T06:57:05.000Z</time></trkpt><trkpt lon="5.761748" lat="50.984662"><ele>27.8</ele><time>2022-05-29T06:57:06.000Z</time></trkpt><trkpt lon="5.761698" lat="50.984596"><ele>27.8</ele><time>2022-05-29T06:57:07.000Z</time></trkpt><trkpt lon="5.761647" lat="50.984528"><ele>28</ele><time>2022-05-29T06:57:08.000Z</time></trkpt><trkpt lon="5.761595" lat="50.98446"><ele>28</ele><time>2022-05-29T06:57:09.000Z</time></trkpt><trkpt lon="5.761543" lat="50.984395"><ele>27.8</ele><time>2022-05-29T06:57:10.000Z</time></trkpt><trkpt lon="5.761489" lat="50.984325"><ele>27.8</ele><time>2022-05-29T06:57:11.000Z</time></trkpt><trkpt lon="5.761436" lat="50.984257"><ele>27.6</ele><time>2022-05-29T06:57:12.000Z</time></trkpt><trkpt lon="5.761383" lat="50.984193"><ele>27.6</ele><time>2022-05-29T06:57:13.000Z</time></trkpt><trkpt lon="5.761327" lat="50.984127"><ele>27.8</ele><time>2022-05-29T06:57:14.000Z</time></trkpt><trkpt lon="5.761273" lat="50.984061"><ele>28</ele><time>2022-05-29T06:57:15.000Z</time></trkpt><trkpt lon="5.761219" lat="50.983996"><ele>28.2</ele><time>2022-05-29T06:57:16.000Z</time></trkpt><trkpt lon="5.761166" lat="50.983931"><ele>28.2</ele><time>2022-05-29T06:57:17.000Z</time></trkpt><trkpt lon="5.761112" lat="50.983866"><ele>28.4</ele><time>2022-05-29T06:57:18.000Z</time></trkpt><trkpt lon="5.761058" lat="50.983801"><ele>28.4</ele><time>2022-05-29T06:57:19.000Z</time></trkpt><trkpt lon="5.761004" lat="50.983737"><ele>28.4</ele><time>2022-05-29T06:57:20.000Z</time></trkpt><trkpt lon="5.760951" lat="50.983676"><ele>28.4</ele><time>2022-05-29T06:57:21.000Z</time></trkpt><trkpt lon="5.760899" lat="50.983611"><ele>28.4</ele><time>2022-05-29T06:57:22.000Z</time></trkpt><trkpt lon="5.760846" lat="50.98355"><ele>28.6</ele><time>2022-05-29T06:57:23.000Z</time></trkpt><trkpt lon="5.760791" lat="50.983486"><ele>28.6</ele><time>2022-05-29T06:57:24.000Z</time></trkpt><trkpt lon="5.760738" lat="50.983424"><ele>28.6</ele><time>2022-05-29T06:57:25.000Z</time></trkpt><trkpt lon="5.760687" lat="50.983359"><ele>28.6</ele><time>2022-05-29T06:57:26.000Z</time></trkpt><trkpt lon="5.760635" lat="50.983295"><ele>28.4</ele><time>2022-05-29T06:57:27.000Z</time></trkpt><trkpt lon="5.760584" lat="50.983231"><ele>28.4</ele><time>2022-05-29T06:57:28.000Z</time></trkpt><trkpt lon="5.76053" lat="50.983167"><ele>28.4</ele><time>2022-05-29T06:57:29.000Z</time></trkpt><trkpt lon="5.760476" lat="50.983104"><ele>28.2</ele><time>2022-05-29T06:57:30.000Z</time></trkpt><trkpt lon="5.760422" lat="50.983039"><ele>28</ele><time>2022-05-29T06:57:31.000Z</time></trkpt><trkpt lon="5.760369" lat="50.982975"><ele>28</ele><time>2022-05-29T06:57:32.000Z</time></trkpt><trkpt lon="5.760315" lat="50.982908"><ele>27.8</ele><time>2022-05-29T06:57:33.000Z</time></trkpt><trkpt lon="5.760261" lat="50.982841"><ele>27.8</ele><time>2022-05-29T06:57:34.000Z</time></trkpt><trkpt lon="5.760209" lat="50.982778"><ele>27.8</ele><time>2022-05-29T06:57:35.000Z</time></trkpt><trkpt lon="5.760155" lat="50.982711"><ele>27.8</ele><time>2022-05-29T06:57:36.000Z</time></trkpt><trkpt lon="5.760099" lat="50.98265"><ele>27.8</ele><time>2022-05-29T06:57:37.000Z</time></trkpt><trkpt lon="5.760044" lat="50.982585"><ele>27.6</ele><time>2022-05-29T06:57:38.000Z</time></trkpt><trkpt lon="5.759987" lat="50.982521"><ele>27.6</ele><time>2022-05-29T06:57:39.000Z</time></trkpt><trkpt lon="5.759927" lat="50.982459"><ele>27.6</ele><time>2022-05-29T06:57:40.000Z</time></trkpt><trkpt lon="5.759868" lat="50.982395"><ele>27.8</ele><time>2022-05-29T06:57:41.000Z</time></trkpt><trkpt lon="5.759813" lat="50.982335"><ele>28.2</ele><time>2022-05-29T06:57:42.000Z</time></trkpt><trkpt lon="5.759759" lat="50.982277"><ele>28.6</ele><time>2022-05-29T06:57:43.000Z</time></trkpt><trkpt lon="5.759709" lat="50.982216"><ele>29</ele><time>2022-05-29T06:57:44.000Z</time></trkpt><trkpt lon="5.759661" lat="50.982155"><ele>29.2</ele><time>2022-05-29T06:57:45.000Z</time></trkpt><trkpt lon="5.759612" lat="50.982092"><ele>29.4</ele><time>2022-05-29T06:57:46.000Z</time></trkpt><trkpt lon="5.759563" lat="50.982026"><ele>29.6</ele><time>2022-05-29T06:57:47.000Z</time></trkpt><trkpt lon="5.759511" lat="50.981953"><ele>29.4</ele><time>2022-05-29T06:57:48.000Z</time></trkpt><trkpt lon="5.759457" lat="50.981876"><ele>29.4</ele><time>2022-05-29T06:57:49.000Z</time></trkpt><trkpt lon="5.759402" lat="50.981796"><ele>29</ele><time>2022-05-29T06:57:50.000Z</time></trkpt><trkpt lon="5.759347" lat="50.98172"><ele>28.6</ele><time>2022-05-29T06:57:51.000Z</time></trkpt><trkpt lon="5.75929" lat="50.981644"><ele>28.4</ele><time>2022-05-29T06:57:52.000Z</time></trkpt><trkpt lon="5.759233" lat="50.981571"><ele>28.2</ele><time>2022-05-29T06:57:53.000Z</time></trkpt><trkpt lon="5.759177" lat="50.981497"><ele>28</ele><time>2022-05-29T06:57:54.000Z</time></trkpt><trkpt lon="5.759123" lat="50.981429"><ele>28</ele><time>2022-05-29T06:57:55.000Z</time></trkpt><trkpt lon="5.759067" lat="50.981363"><ele>28</ele><time>2022-05-29T06:57:56.000Z</time></trkpt><trkpt lon="5.759012" lat="50.981295"><ele>28.2</ele><time>2022-05-29T06:57:57.000Z</time></trkpt><trkpt lon="5.758959" lat="50.981231"><ele>28.2</ele><time>2022-05-29T06:57:58.000Z</time></trkpt><trkpt lon="5.758906" lat="50.981165"><ele>28.2</ele><time>2022-05-29T06:57:59.000Z</time></trkpt><trkpt lon="5.758853" lat="50.981097"><ele>28.4</ele><time>2022-05-29T06:58:00.000Z</time></trkpt><trkpt lon="5.7588" lat="50.981032"><ele>28.4</ele><time>2022-05-29T06:58:01.000Z</time></trkpt><trkpt lon="5.758749" lat="50.980967"><ele>28.4</ele><time>2022-05-29T06:58:02.000Z</time></trkpt><trkpt lon="5.758696" lat="50.980902"><ele>28.4</ele><time>2022-05-29T06:58:03.000Z</time></trkpt><trkpt lon="5.758645" lat="50.980837"><ele>28.2</ele><time>2022-05-29T06:58:04.000Z</time></trkpt><trkpt lon="5.758593" lat="50.980769"><ele>28.2</ele><time>2022-05-29T06:58:05.000Z</time></trkpt><trkpt lon="5.75854" lat="50.980704"><ele>28.2</ele><time>2022-05-29T06:58:06.000Z</time></trkpt><trkpt lon="5.758486" lat="50.980638"><ele>28</ele><time>2022-05-29T06:58:07.000Z</time></trkpt><trkpt lon="5.758431" lat="50.98057"><ele>27.8</ele><time>2022-05-29T06:58:08.000Z</time></trkpt><trkpt lon="5.758379" lat="50.980501"><ele>27.8</ele><time>2022-05-29T06:58:09.000Z</time></trkpt><trkpt lon="5.758326" lat="50.980433"><ele>27.8</ele><time>2022-05-29T06:58:10.000Z</time></trkpt><trkpt lon="5.758274" lat="50.980368"><ele>27.8</ele><time>2022-05-29T06:58:11.000Z</time></trkpt><trkpt lon="5.758221" lat="50.980304"><ele>27.8</ele><time>2022-05-29T06:58:12.000Z</time></trkpt><trkpt lon="5.758167" lat="50.980242"><ele>27.6</ele><time>2022-05-29T06:58:13.000Z</time></trkpt><trkpt lon="5.758115" lat="50.980175"><ele>27.6</ele><time>2022-05-29T06:58:14.000Z</time></trkpt><trkpt lon="5.758061" lat="50.980113"><ele>27.6</ele><time>2022-05-29T06:58:15.000Z</time></trkpt><trkpt lon="5.758008" lat="50.980048"><ele>27.6</ele><time>2022-05-29T06:58:16.000Z</time></trkpt><trkpt lon="5.757955" lat="50.979983"><ele>27.8</ele><time>2022-05-29T06:58:17.000Z</time></trkpt><trkpt lon="5.757902" lat="50.979918"><ele>27.8</ele><time>2022-05-29T06:58:18.000Z</time></trkpt><trkpt lon="5.757848" lat="50.979853"><ele>27.8</ele><time>2022-05-29T06:58:19.000Z</time></trkpt><trkpt lon="5.757797" lat="50.979789"><ele>28</ele><time>2022-05-29T06:58:20.000Z</time></trkpt><trkpt lon="5.757744" lat="50.979727"><ele>28</ele><time>2022-05-29T06:58:21.000Z</time></trkpt><trkpt lon="5.757691" lat="50.979659"><ele>27.8</ele><time>2022-05-29T06:58:22.000Z</time></trkpt><trkpt lon="5.757638" lat="50.979598"><ele>27.8</ele><time>2022-05-29T06:58:23.000Z</time></trkpt><trkpt lon="5.757582" lat="50.979533"><ele>27.8</ele><time>2022-05-29T06:58:24.000Z</time></trkpt><trkpt lon="5.757528" lat="50.979472"><ele>27.8</ele><time>2022-05-29T06:58:25.000Z</time></trkpt><trkpt lon="5.757474" lat="50.979407"><ele>27.8</ele><time>2022-05-29T06:58:26.000Z</time></trkpt><trkpt lon="5.757421" lat="50.979343"><ele>27.6</ele><time>2022-05-29T06:58:27.000Z</time></trkpt><trkpt lon="5.757367" lat="50.97928"><ele>27.6</ele><time>2022-05-29T06:58:28.000Z</time></trkpt><trkpt lon="5.757313" lat="50.979217"><ele>27.6</ele><time>2022-05-29T06:58:29.000Z</time></trkpt><trkpt lon="5.75726" lat="50.979152"><ele>27.6</ele><time>2022-05-29T06:58:30.000Z</time></trkpt><trkpt lon="5.757208" lat="50.979087"><ele>27.6</ele><time>2022-05-29T06:58:31.000Z</time></trkpt><trkpt lon="5.757154" lat="50.979025"><ele>27.6</ele><time>2022-05-29T06:58:32.000Z</time></trkpt><trkpt lon="5.757101" lat="50.97896"><ele>27.6</ele><time>2022-05-29T06:58:33.000Z</time></trkpt><trkpt lon="5.757046" lat="50.978892"><ele>27.4</ele><time>2022-05-29T06:58:34.000Z</time></trkpt><trkpt lon="5.756991" lat="50.978827"><ele>27.4</ele><time>2022-05-29T06:58:35.000Z</time></trkpt><trkpt lon="5.756936" lat="50.978762"><ele>27.2</ele><time>2022-05-29T06:58:36.000Z</time></trkpt><trkpt lon="5.756882" lat="50.978697"><ele>27.2</ele><time>2022-05-29T06:58:37.000Z</time></trkpt><trkpt lon="5.756827" lat="50.978633"><ele>27.2</ele><time>2022-05-29T06:58:38.000Z</time></trkpt><trkpt lon="5.756773" lat="50.978572"><ele>27.4</ele><time>2022-05-29T06:58:39.000Z</time></trkpt><trkpt lon="5.756722" lat="50.978506"><ele>27.2</ele><time>2022-05-29T06:58:40.000Z</time></trkpt><trkpt lon="5.756671" lat="50.978438"><ele>27.4</ele><time>2022-05-29T06:58:41.000Z</time></trkpt><trkpt lon="5.75662" lat="50.978373"><ele>27.4</ele><time>2022-05-29T06:58:42.000Z</time></trkpt><trkpt lon="5.756568" lat="50.978308"><ele>27.4</ele><time>2022-05-29T06:58:43.000Z</time></trkpt><trkpt lon="5.756516" lat="50.97824"><ele>27.2</ele><time>2022-05-29T06:58:44.000Z</time></trkpt><trkpt lon="5.756463" lat="50.978176"><ele>27.2</ele><time>2022-05-29T06:58:45.000Z</time></trkpt><trkpt lon="5.756409" lat="50.978114"><ele>27.2</ele><time>2022-05-29T06:58:46.000Z</time></trkpt><trkpt lon="5.756353" lat="50.978049"><ele>27.2</ele><time>2022-05-29T06:58:47.000Z</time></trkpt><trkpt lon="5.756302" lat="50.977984"><ele>27</ele><time>2022-05-29T06:58:48.000Z</time></trkpt><trkpt lon="5.756249" lat="50.977919"><ele>27.2</ele><time>2022-05-29T06:58:49.000Z</time></trkpt><trkpt lon="5.756195" lat="50.977855"><ele>27.2</ele><time>2022-05-29T06:58:50.000Z</time></trkpt><trkpt lon="5.756139" lat="50.97779"><ele>27.2</ele><time>2022-05-29T06:58:51.000Z</time></trkpt><trkpt lon="5.756082" lat="50.977725"><ele>27.2</ele><time>2022-05-29T06:58:52.000Z</time></trkpt><trkpt lon="5.756028" lat="50.977664"><ele>27.4</ele><time>2022-05-29T06:58:53.000Z</time></trkpt><trkpt lon="5.755975" lat="50.977599"><ele>27.2</ele><time>2022-05-29T06:58:54.000Z</time></trkpt><trkpt lon="5.755925" lat="50.977535"><ele>27.2</ele><time>2022-05-29T06:58:55.000Z</time></trkpt><trkpt lon="5.755873" lat="50.977474"><ele>27</ele><time>2022-05-29T06:58:56.000Z</time></trkpt><trkpt lon="5.755822" lat="50.977412"><ele>27</ele><time>2022-05-29T06:58:57.000Z</time></trkpt><trkpt lon="5.755772" lat="50.977347"><ele>27.2</ele><time>2022-05-29T06:58:58.000Z</time></trkpt><trkpt lon="5.75572" lat="50.977282"><ele>27.2</ele><time>2022-05-29T06:58:59.000Z</time></trkpt><trkpt lon="5.75567" lat="50.977218"><ele>27.4</ele><time>2022-05-29T06:59:00.000Z</time></trkpt><trkpt lon="5.755617" lat="50.977156"><ele>27.4</ele><time>2022-05-29T06:59:01.000Z</time></trkpt><trkpt lon="5.755569" lat="50.977092"><ele>27.6</ele><time>2022-05-29T06:59:02.000Z</time></trkpt><trkpt lon="5.75552" lat="50.977031"><ele>27.6</ele><time>2022-05-29T06:59:03.000Z</time></trkpt><trkpt lon="5.755468" lat="50.976966"><ele>27.8</ele><time>2022-05-29T06:59:04.000Z</time></trkpt><trkpt lon="5.755417" lat="50.976901"><ele>27.8</ele><time>2022-05-29T06:59:05.000Z</time></trkpt><trkpt lon="5.755366" lat="50.976837"><ele>27.8</ele><time>2022-05-29T06:59:06.000Z</time></trkpt><trkpt lon="5.755315" lat="50.976775"><ele>28</ele><time>2022-05-29T06:59:07.000Z</time></trkpt><trkpt lon="5.755265" lat="50.976711"><ele>28</ele><time>2022-05-29T06:59:08.000Z</time></trkpt><trkpt lon="5.755214" lat="50.97665"><ele>28</ele><time>2022-05-29T06:59:09.000Z</time></trkpt><trkpt lon="5.755162" lat="50.976585"><ele>28.2</ele><time>2022-05-29T06:59:10.000Z</time></trkpt><trkpt lon="5.75511" lat="50.976524"><ele>28.2</ele><time>2022-05-29T06:59:11.000Z</time></trkpt><trkpt lon="5.755058" lat="50.976462"><ele>28.2</ele><time>2022-05-29T06:59:12.000Z</time></trkpt><trkpt lon="5.755007" lat="50.976397"><ele>28.2</ele><time>2022-05-29T06:59:13.000Z</time></trkpt><trkpt lon="5.754956" lat="50.976333"><ele>28.4</ele><time>2022-05-29T06:59:14.000Z</time></trkpt><trkpt lon="5.754906" lat="50.976268"><ele>28.4</ele><time>2022-05-29T06:59:15.000Z</time></trkpt><trkpt lon="5.754857" lat="50.976204"><ele>28.2</ele><time>2022-05-29T06:59:16.000Z</time></trkpt><trkpt lon="5.754808" lat="50.976143"><ele>28.2</ele><time>2022-05-29T06:59:17.000Z</time></trkpt><trkpt lon="5.754757" lat="50.976078"><ele>28.2</ele><time>2022-05-29T06:59:18.000Z</time></trkpt><trkpt lon="5.754708" lat="50.976017"><ele>28.2</ele><time>2022-05-29T06:59:19.000Z</time></trkpt><trkpt lon="5.754659" lat="50.975956"><ele>28.4</ele><time>2022-05-29T06:59:20.000Z</time></trkpt><trkpt lon="5.75461" lat="50.975893"><ele>28.4</ele><time>2022-05-29T06:59:21.000Z</time></trkpt><trkpt lon="5.754561" lat="50.97583"><ele>28.4</ele><time>2022-05-29T06:59:22.000Z</time></trkpt><trkpt lon="5.754513" lat="50.975768"><ele>28.4</ele><time>2022-05-29T06:59:23.000Z</time></trkpt><trkpt lon="5.754467" lat="50.975704"><ele>28.4</ele><time>2022-05-29T06:59:24.000Z</time></trkpt><trkpt lon="5.754418" lat="50.975643"><ele>28.4</ele><time>2022-05-29T06:59:25.000Z</time></trkpt><trkpt lon="5.754367" lat="50.975581"><ele>28.4</ele><time>2022-05-29T06:59:26.000Z</time></trkpt><trkpt lon="5.754313" lat="50.975517"><ele>28.2</ele><time>2022-05-29T06:59:27.000Z</time></trkpt><trkpt lon="5.75426" lat="50.975455"><ele>28.2</ele><time>2022-05-29T06:59:28.000Z</time></trkpt><trkpt lon="5.75421" lat="50.97539"><ele>28.2</ele><time>2022-05-29T06:59:29.000Z</time></trkpt><trkpt lon="5.75416" lat="50.975326"><ele>28</ele><time>2022-05-29T06:59:30.000Z</time></trkpt><trkpt lon="5.754109" lat="50.975261"><ele>28</ele><time>2022-05-29T06:59:31.000Z</time></trkpt><trkpt lon="5.754059" lat="50.975196"><ele>28</ele><time>2022-05-29T06:59:32.000Z</time></trkpt><trkpt lon="5.754008" lat="50.975132"><ele>27.8</ele><time>2022-05-29T06:59:33.000Z</time></trkpt><trkpt lon="5.753958" lat="50.975066"><ele>27.8</ele><time>2022-05-29T06:59:34.000Z</time></trkpt><trkpt lon="5.753908" lat="50.975005"><ele>28</ele><time>2022-05-29T06:59:35.000Z</time></trkpt><trkpt lon="5.753857" lat="50.97494"><ele>28.2</ele><time>2022-05-29T06:59:36.000Z</time></trkpt><trkpt lon="5.753809" lat="50.974876"><ele>28.2</ele><time>2022-05-29T06:59:37.000Z</time></trkpt><trkpt lon="5.753759" lat="50.974814"><ele>28.2</ele><time>2022-05-29T06:59:38.000Z</time></trkpt><trkpt lon="5.75371" lat="50.974749"><ele>28.2</ele><time>2022-05-29T06:59:39.000Z</time></trkpt><trkpt lon="5.75366" lat="50.974685"><ele>28.4</ele><time>2022-05-29T06:59:40.000Z</time></trkpt><trkpt lon="5.753613" lat="50.974623"><ele>28.4</ele><time>2022-05-29T06:59:41.000Z</time></trkpt><trkpt lon="5.753568" lat="50.974559"><ele>28.4</ele><time>2022-05-29T06:59:42.000Z</time></trkpt><trkpt lon="5.75352" lat="50.974494"><ele>28.4</ele><time>2022-05-29T06:59:43.000Z</time></trkpt><trkpt lon="5.753469" lat="50.974429"><ele>28.2</ele><time>2022-05-29T06:59:44.000Z</time></trkpt><trkpt lon="5.753419" lat="50.974368"><ele>28.2</ele><time>2022-05-29T06:59:45.000Z</time></trkpt><trkpt lon="5.753366" lat="50.974304"><ele>28</ele><time>2022-05-29T06:59:46.000Z</time></trkpt><trkpt lon="5.753315" lat="50.974242"><ele>28</ele><time>2022-05-29T06:59:47.000Z</time></trkpt><trkpt lon="5.753264" lat="50.974177"><ele>27.8</ele><time>2022-05-29T06:59:48.000Z</time></trkpt><trkpt lon="5.753216" lat="50.974113"><ele>27.8</ele><time>2022-05-29T06:59:49.000Z</time></trkpt><trkpt lon="5.753171" lat="50.974052"><ele>27.6</ele><time>2022-05-29T06:59:50.000Z</time></trkpt><trkpt lon="5.753127" lat="50.973991"><ele>27.6</ele><time>2022-05-29T06:59:51.000Z</time></trkpt><trkpt lon="5.753081" lat="50.973931"><ele>27.6</ele><time>2022-05-29T06:59:52.000Z</time></trkpt><trkpt lon="5.753034" lat="50.973873"><ele>27.6</ele><time>2022-05-29T06:59:53.000Z</time></trkpt><trkpt lon="5.752986" lat="50.973812"><ele>27.6</ele><time>2022-05-29T06:59:54.000Z</time></trkpt><trkpt lon="5.75294" lat="50.973752"><ele>27.6</ele><time>2022-05-29T06:59:55.000Z</time></trkpt><trkpt lon="5.752892" lat="50.973691"><ele>27.6</ele><time>2022-05-29T06:59:56.000Z</time></trkpt><trkpt lon="5.752851" lat="50.973633"><ele>27.6</ele><time>2022-05-29T06:59:57.000Z</time></trkpt><trkpt lon="5.752812" lat="50.973576"><ele>27.6</ele><time>2022-05-29T06:59:58.000Z</time></trkpt><trkpt lon="5.752772" lat="50.97352"><ele>27.8</ele><time>2022-05-29T06:59:59.000Z</time></trkpt><trkpt lon="5.752731" lat="50.973471"><ele>27.8</ele><time>2022-05-29T07:00:00.000Z</time></trkpt><trkpt lon="5.752689" lat="50.973422"><ele>27.8</ele><time>2022-05-29T07:00:01.000Z</time></trkpt><trkpt lon="5.752653" lat="50.973377"><ele>27.8</ele><time>2022-05-29T07:00:02.000Z</time></trkpt><trkpt lon="5.752617" lat="50.973336"><ele>28</ele><time>2022-05-29T07:00:03.000Z</time></trkpt><trkpt lon="5.752576" lat="50.973292"><ele>28</ele><time>2022-05-29T07:00:04.000Z</time></trkpt><trkpt lon="5.752535" lat="50.973245"><ele>28</ele><time>2022-05-29T07:00:05.000Z</time></trkpt><trkpt lon="5.752498" lat="50.973187"><ele>27.8</ele><time>2022-05-29T07:00:06.000Z</time></trkpt><trkpt lon="5.752459" lat="50.973126"><ele>27.8</ele><time>2022-05-29T07:00:07.000Z</time></trkpt><trkpt lon="5.752415" lat="50.973068"><ele>27.6</ele><time>2022-05-29T07:00:08.000Z</time></trkpt><trkpt lon="5.752368" lat="50.973003"><ele>27.4</ele><time>2022-05-29T07:00:09.000Z</time></trkpt><trkpt lon="5.752319" lat="50.972942"><ele>27.4</ele><time>2022-05-29T07:00:10.000Z</time></trkpt><trkpt lon="5.752272" lat="50.972881"><ele>27.6</ele><time>2022-05-29T07:00:11.000Z</time></trkpt><trkpt lon="5.752224" lat="50.97282"><ele>27.6</ele><time>2022-05-29T07:00:12.000Z</time></trkpt><trkpt lon="5.752174" lat="50.972759"><ele>27.6</ele><time>2022-05-29T07:00:13.000Z</time></trkpt><trkpt lon="5.752124" lat="50.972697"><ele>27.8</ele><time>2022-05-29T07:00:14.000Z</time></trkpt><trkpt lon="5.752076" lat="50.972633"><ele>27.8</ele><time>2022-05-29T07:00:15.000Z</time></trkpt><trkpt lon="5.752027" lat="50.972573"><ele>27.8</ele><time>2022-05-29T07:00:16.000Z</time></trkpt><trkpt lon="5.75198" lat="50.972514"><ele>27.8</ele><time>2022-05-29T07:00:17.000Z</time></trkpt><trkpt lon="5.751934" lat="50.97245"><ele>27.6</ele><time>2022-05-29T07:00:18.000Z</time></trkpt><trkpt lon="5.75189" lat="50.972384"><ele>27.6</ele><time>2022-05-29T07:00:19.000Z</time></trkpt><trkpt lon="5.751857" lat="50.97232"><ele>27.6</ele><time>2022-05-29T07:00:20.000Z</time></trkpt><trkpt lon="5.751832" lat="50.97225"><ele>27.6</ele><time>2022-05-29T07:00:21.000Z</time></trkpt><trkpt lon="5.751818" lat="50.972182"><ele>27.8</ele><time>2022-05-29T07:00:22.000Z</time></trkpt><trkpt lon="5.751805" lat="50.972114"><ele>27.8</ele><time>2022-05-29T07:00:23.000Z</time></trkpt><trkpt lon="5.751785" lat="50.97205"><ele>27.8</ele><time>2022-05-29T07:00:24.000Z</time></trkpt><trkpt lon="5.751748" lat="50.971994"><ele>27.8</ele><time>2022-05-29T07:00:25.000Z</time></trkpt><trkpt lon="5.751694" lat="50.971945"><ele>28</ele><time>2022-05-29T07:00:26.000Z</time></trkpt><trkpt lon="5.751625" lat="50.9719"><ele>28</ele><time>2022-05-29T07:00:27.000Z</time></trkpt><trkpt lon="5.751546" lat="50.97186"><ele>28</ele><time>2022-05-29T07:00:28.000Z</time></trkpt><trkpt lon="5.751459" lat="50.971826"><ele>27.8</ele><time>2022-05-29T07:00:29.000Z</time></trkpt><trkpt lon="5.751359" lat="50.971792"><ele>27.8</ele><time>2022-05-29T07:00:30.000Z</time></trkpt><trkpt lon="5.751257" lat="50.971761"><ele>27.6</ele><time>2022-05-29T07:00:31.000Z</time></trkpt><trkpt lon="5.751156" lat="50.971728"><ele>27.6</ele><time>2022-05-29T07:00:32.000Z</time></trkpt><trkpt lon="5.751052" lat="50.971697"><ele>27.6</ele><time>2022-05-29T07:00:33.000Z</time></trkpt><trkpt lon="5.750955" lat="50.971666"><ele>27.4</ele><time>2022-05-29T07:00:34.000Z</time></trkpt><trkpt lon="5.75086" lat="50.971636"><ele>27.6</ele><time>2022-05-29T07:00:35.000Z</time></trkpt><trkpt lon="5.750766" lat="50.971606"><ele>27.6</ele><time>2022-05-29T07:00:36.000Z</time></trkpt><trkpt lon="5.750671" lat="50.971575"><ele>27.6</ele><time>2022-05-29T07:00:37.000Z</time></trkpt><trkpt lon="5.750581" lat="50.971544"><ele>27.6</ele><time>2022-05-29T07:00:38.000Z</time></trkpt><trkpt lon="5.750492" lat="50.971514"><ele>27.6</ele><time>2022-05-29T07:00:39.000Z</time></trkpt><trkpt lon="5.75041" lat="50.971488"><ele>27.8</ele><time>2022-05-29T07:00:40.000Z</time></trkpt><trkpt lon="5.750331" lat="50.97146"><ele>27.8</ele><time>2022-05-29T07:00:41.000Z</time></trkpt><trkpt lon="5.75026" lat="50.97143"><ele>28</ele><time>2022-05-29T07:00:42.000Z</time></trkpt><trkpt lon="5.750203" lat="50.971397"><ele>28</ele><time>2022-05-29T07:00:43.000Z</time></trkpt><trkpt lon="5.750165" lat="50.971353"><ele>28</ele><time>2022-05-29T07:00:44.000Z</time></trkpt><trkpt lon="5.750141" lat="50.971303"><ele>28.2</ele><time>2022-05-29T07:00:45.000Z</time></trkpt><trkpt lon="5.750128" lat="50.971248"><ele>28.2</ele><time>2022-05-29T07:00:46.000Z</time></trkpt><trkpt lon="5.750124" lat="50.971191"><ele>28.2</ele><time>2022-05-29T07:00:47.000Z</time></trkpt><trkpt lon="5.750117" lat="50.97113"><ele>28.2</ele><time>2022-05-29T07:00:48.000Z</time></trkpt><trkpt lon="5.7501" lat="50.971069"><ele>28.4</ele><time>2022-05-29T07:00:49.000Z</time></trkpt><trkpt lon="5.750073" lat="50.971008"><ele>28.4</ele><time>2022-05-29T07:00:50.000Z</time></trkpt><trkpt lon="5.750044" lat="50.970947"><ele>28.4</ele><time>2022-05-29T07:00:51.000Z</time></trkpt><trkpt lon="5.750014" lat="50.970885"><ele>28.6</ele><time>2022-05-29T07:00:52.000Z</time></trkpt><trkpt lon="5.749983" lat="50.970822"><ele>28.6</ele><time>2022-05-29T07:00:53.000Z</time></trkpt><trkpt lon="5.749953" lat="50.970765"><ele>28.8</ele><time>2022-05-29T07:00:54.000Z</time></trkpt><trkpt lon="5.749924" lat="50.970708"><ele>29</ele><time>2022-05-29T07:00:55.000Z</time></trkpt><trkpt lon="5.749893" lat="50.970654"><ele>29.2</ele><time>2022-05-29T07:00:56.000Z</time></trkpt><trkpt lon="5.749861" lat="50.970598"><ele>29.4</ele><time>2022-05-29T07:00:57.000Z</time></trkpt><trkpt lon="5.74983" lat="50.970539"><ele>29.4</ele><time>2022-05-29T07:00:58.000Z</time></trkpt><trkpt lon="5.749805" lat="50.970486"><ele>29.6</ele><time>2022-05-29T07:00:59.000Z</time></trkpt><trkpt lon="5.749786" lat="50.970446"><ele>29.8</ele><time>2022-05-29T07:01:00.000Z</time></trkpt><trkpt lon="5.749761" lat="50.97038"><ele>30</ele><time>2022-05-29T07:01:01.000Z</time></trkpt><trkpt lon="5.749741" lat="50.970326"><ele>30.4</ele><time>2022-05-29T07:01:02.000Z</time></trkpt><trkpt lon="5.749721" lat="50.970272"><ele>30.6</ele><time>2022-05-29T07:01:03.000Z</time></trkpt><trkpt lon="5.749706" lat="50.97023"><ele>30.8</ele><time>2022-05-29T07:01:04.000Z</time></trkpt><trkpt lon="5.749678" lat="50.970165"><ele>31</ele><time>2022-05-29T07:01:05.000Z</time></trkpt><trkpt lon="5.749657" lat="50.970121"><ele>31.2</ele><time>2022-05-29T07:01:06.000Z</time></trkpt><trkpt lon="5.749637" lat="50.970067"><ele>31.4</ele><time>2022-05-29T07:01:07.000Z</time></trkpt><trkpt lon="5.749624" lat="50.970035"><ele>31.6</ele><time>2022-05-29T07:01:08.000Z</time></trkpt><trkpt lon="5.7496" lat="50.969979"><ele>32</ele><time>2022-05-29T07:01:09.000Z</time></trkpt><trkpt lon="5.749589" lat="50.969943"><ele>32.2</ele><time>2022-05-29T07:01:10.000Z</time></trkpt><trkpt lon="5.749574" lat="50.969906"><ele>32.4</ele><time>2022-05-29T07:01:11.000Z</time></trkpt><trkpt lon="5.749562" lat="50.969872"><ele>32.6</ele><time>2022-05-29T07:01:12.000Z</time></trkpt><trkpt lon="5.749558" lat="50.969853"><ele>32.6</ele><time>2022-05-29T07:01:13.000Z</time></trkpt><trkpt lon="5.749543" lat="50.969802"><ele>33</ele><time>2022-05-29T07:01:14.000Z</time></trkpt><trkpt lon="5.749524" lat="50.969764"><ele>33.2</ele><time>2022-05-29T07:01:15.000Z</time></trkpt><trkpt lon="5.749513" lat="50.969737"><ele>33.2</ele><time>2022-05-29T07:01:16.000Z</time></trkpt><trkpt lon="5.749487" lat="50.969673"><ele>33.4</ele><time>2022-05-29T07:01:17.000Z</time></trkpt><trkpt lon="5.749469" lat="50.969632"><ele>33.6</ele><time>2022-05-29T07:01:18.000Z</time></trkpt><trkpt lon="5.749448" lat="50.969593"><ele>33.8</ele><time>2022-05-29T07:01:19.000Z</time></trkpt><trkpt lon="5.74943" lat="50.969542"><ele>34</ele><time>2022-05-29T07:01:20.000Z</time></trkpt><trkpt lon="5.749419" lat="50.969514"><ele>34</ele><time>2022-05-29T07:01:21.000Z</time></trkpt><trkpt lon="5.7494" lat="50.969451"><ele>34.2</ele><time>2022-05-29T07:01:22.000Z</time></trkpt><trkpt lon="5.749394" lat="50.969427"><ele>34.2</ele><time>2022-05-29T07:01:23.000Z</time></trkpt><trkpt lon="5.749375" lat="50.96936"><ele>34.6</ele><time>2022-05-29T07:01:24.000Z</time></trkpt><trkpt lon="5.749359" lat="50.969335"><ele>34.8</ele><time>2022-05-29T07:01:25.000Z</time></trkpt><trkpt lon="5.749339" lat="50.969301"><ele>35</ele><time>2022-05-29T07:01:26.000Z</time></trkpt><trkpt lon="5.749304" lat="50.969234"><ele>35.2</ele><time>2022-05-29T07:01:27.000Z</time></trkpt><trkpt lon="5.749266" lat="50.969188"><ele>35.4</ele><time>2022-05-29T07:01:28.000Z</time></trkpt><trkpt lon="5.749213" lat="50.969123"><ele>35.6</ele><time>2022-05-29T07:01:29.000Z</time></trkpt><trkpt lon="5.749182" lat="50.969078"><ele>35.8</ele><time>2022-05-29T07:01:30.000Z</time></trkpt><trkpt lon="5.749153" lat="50.969021"><ele>36</ele><time>2022-05-29T07:01:31.000Z</time></trkpt><trkpt lon="5.749134" lat="50.968977"><ele>36.2</ele><time>2022-05-29T07:01:32.000Z</time></trkpt><trkpt lon="5.749113" lat="50.968924"><ele>36.6</ele><time>2022-05-29T07:01:33.000Z</time></trkpt><trkpt lon="5.7491" lat="50.968896"><ele>36.8</ele><time>2022-05-29T07:01:34.000Z</time></trkpt><trkpt lon="5.749089" lat="50.96882"><ele>37.2</ele><time>2022-05-29T07:01:35.000Z</time></trkpt><trkpt lon="5.749095" lat="50.968788"><ele>37.2</ele><time>2022-05-29T07:01:36.000Z</time></trkpt><trkpt lon="5.749111" lat="50.968711"><ele>37.6</ele><time>2022-05-29T07:01:37.000Z</time></trkpt><trkpt lon="5.749117" lat="50.968685"><ele>37.6</ele><time>2022-05-29T07:01:38.000Z</time></trkpt><trkpt lon="5.749127" lat="50.968638"><ele>37.8</ele><time>2022-05-29T07:01:39.000Z</time></trkpt><trkpt lon="5.749142" lat="50.968566"><ele>37.8</ele><time>2022-05-29T07:01:40.000Z</time></trkpt><trkpt lon="5.749143" lat="50.968519"><ele>37.8</ele><time>2022-05-29T07:01:41.000Z</time></trkpt><trkpt lon="5.74914" lat="50.968464"><ele>37.8</ele><time>2022-05-29T07:01:42.000Z</time></trkpt><trkpt lon="5.749146" lat="50.968424"><ele>38</ele><time>2022-05-29T07:01:43.000Z</time></trkpt><trkpt lon="5.749174" lat="50.968386"><ele>37.8</ele><time>2022-05-29T07:01:44.000Z</time></trkpt><trkpt lon="5.749211" lat="50.96836"><ele>37.8</ele><time>2022-05-29T07:01:45.000Z</time></trkpt><trkpt lon="5.749239" lat="50.968335"><ele>37.8</ele><time>2022-05-29T07:01:46.000Z</time></trkpt><trkpt lon="5.749236" lat="50.968301"><ele>37.8</ele><time>2022-05-29T07:01:47.000Z</time></trkpt><trkpt lon="5.749206" lat="50.968268"><ele>37.8</ele><time>2022-05-29T07:01:48.000Z</time></trkpt><trkpt lon="5.749173" lat="50.968239"><ele>37.6</ele><time>2022-05-29T07:01:49.000Z</time></trkpt><trkpt lon="5.749112" lat="50.968186"><ele>37.6</ele><time>2022-05-29T07:01:50.000Z</time></trkpt><trkpt lon="5.749075" lat="50.968147"><ele>37.4</ele><time>2022-05-29T07:01:51.000Z</time></trkpt><trkpt lon="5.74902" lat="50.968072"><ele>37.2</ele><time>2022-05-29T07:01:52.000Z</time></trkpt><trkpt lon="5.748995" lat="50.968034"><ele>37.2</ele><time>2022-05-29T07:01:53.000Z</time></trkpt><trkpt lon="5.748937" lat="50.967943"><ele>37</ele><time>2022-05-29T07:01:54.000Z</time></trkpt><trkpt lon="5.748904" lat="50.967895"><ele>36.8</ele><time>2022-05-29T07:01:55.000Z</time></trkpt><trkpt lon="5.748843" lat="50.967808"><ele>36.6</ele><time>2022-05-29T07:01:56.000Z</time></trkpt><trkpt lon="5.748817" lat="50.967769"><ele>36.4</ele><time>2022-05-29T07:01:57.000Z</time></trkpt><trkpt lon="5.748753" lat="50.967672"><ele>36.4</ele><time>2022-05-29T07:01:58.000Z</time></trkpt><trkpt lon="5.748731" lat="50.967635"><ele>36.2</ele><time>2022-05-29T07:01:59.000Z</time></trkpt><trkpt lon="5.748699" lat="50.967576"><ele>36</ele><time>2022-05-29T07:02:00.000Z</time></trkpt><trkpt lon="5.748634" lat="50.967443"><ele>35.6</ele><time>2022-05-29T07:02:01.000Z</time></trkpt><trkpt lon="5.748601" lat="50.967369"><ele>35.4</ele><time>2022-05-29T07:02:02.000Z</time></trkpt><trkpt lon="5.74857" lat="50.967299"><ele>35.2</ele><time>2022-05-29T07:02:03.000Z</time></trkpt><trkpt lon="5.748539" lat="50.967229"><ele>35</ele><time>2022-05-29T07:02:04.000Z</time></trkpt><trkpt lon="5.748508" lat="50.967157"><ele>34.6</ele><time>2022-05-29T07:02:05.000Z</time></trkpt><trkpt lon="5.748479" lat="50.967088"><ele>34.4</ele><time>2022-05-29T07:02:06.000Z</time></trkpt><trkpt lon="5.74845" lat="50.967018"><ele>34.2</ele><time>2022-05-29T07:02:07.000Z</time></trkpt><trkpt lon="5.748424" lat="50.966959"><ele>34</ele><time>2022-05-29T07:02:08.000Z</time></trkpt><trkpt lon="5.748393" lat="50.966871"><ele>33.6</ele><time>2022-05-29T07:02:09.000Z</time></trkpt><trkpt lon="5.748372" lat="50.966803"><ele>33.4</ele><time>2022-05-29T07:02:10.000Z</time></trkpt><trkpt lon="5.748347" lat="50.966729"><ele>33</ele><time>2022-05-29T07:02:11.000Z</time></trkpt><trkpt lon="5.74833" lat="50.966672"><ele>32.8</ele><time>2022-05-29T07:02:12.000Z</time></trkpt><trkpt lon="5.748302" lat="50.966574"><ele>32.4</ele><time>2022-05-29T07:02:13.000Z</time></trkpt><trkpt lon="5.748291" lat="50.966508"><ele>32.2</ele><time>2022-05-29T07:02:14.000Z</time></trkpt><trkpt lon="5.748276" lat="50.966412"><ele>32</ele><time>2022-05-29T07:02:15.000Z</time></trkpt><trkpt lon="5.748267" lat="50.966355"><ele>31.8</ele><time>2022-05-29T07:02:16.000Z</time></trkpt><trkpt lon="5.748253" lat="50.966249"><ele>31.4</ele><time>2022-05-29T07:02:17.000Z</time></trkpt><trkpt lon="5.748244" lat="50.966198"><ele>31.2</ele><time>2022-05-29T07:02:18.000Z</time></trkpt><trkpt lon="5.748232" lat="50.966103"><ele>30.8</ele><time>2022-05-29T07:02:19.000Z</time></trkpt><trkpt lon="5.748227" lat="50.966064"><ele>30.6</ele><time>2022-05-29T07:02:20.000Z</time></trkpt><trkpt lon="5.748215" lat="50.965971"><ele>30.4</ele><time>2022-05-29T07:02:21.000Z</time></trkpt><trkpt lon="5.748209" lat="50.965942"><ele>30.4</ele><time>2022-05-29T07:02:22.000Z</time></trkpt><trkpt lon="5.748195" lat="50.965898"><ele>30.4</ele><time>2022-05-29T07:02:23.000Z</time></trkpt><trkpt lon="5.748166" lat="50.965835"><ele>30.2</ele><time>2022-05-29T07:02:24.000Z</time></trkpt><trkpt lon="5.748135" lat="50.96581"><ele>30</ele><time>2022-05-29T07:02:25.000Z</time></trkpt><trkpt lon="5.748081" lat="50.965785"><ele>29.8</ele><time>2022-05-29T07:02:26.000Z</time></trkpt><trkpt lon="5.748022" lat="50.965757"><ele>29.6</ele><time>2022-05-29T07:02:27.000Z</time></trkpt><trkpt lon="5.747963" lat="50.965723"><ele>29.4</ele><time>2022-05-29T07:02:28.000Z</time></trkpt><trkpt lon="5.747902" lat="50.965685"><ele>29.2</ele><time>2022-05-29T07:02:29.000Z</time></trkpt><trkpt lon="5.747857" lat="50.965656"><ele>29</ele><time>2022-05-29T07:02:30.000Z</time></trkpt><trkpt lon="5.74777" lat="50.965597"><ele>28.8</ele><time>2022-05-29T07:02:31.000Z</time></trkpt><trkpt lon="5.747717" lat="50.965565"><ele>28.8</ele><time>2022-05-29T07:02:32.000Z</time></trkpt><trkpt lon="5.747627" lat="50.965511"><ele>28.8</ele><time>2022-05-29T07:02:33.000Z</time></trkpt><trkpt lon="5.747579" lat="50.965487"><ele>28.8</ele><time>2022-05-29T07:02:34.000Z</time></trkpt><trkpt lon="5.747464" lat="50.965436"><ele>28.8</ele><time>2022-05-29T07:02:35.000Z</time></trkpt><trkpt lon="5.747416" lat="50.965419"><ele>28.8</ele><time>2022-05-29T07:02:36.000Z</time></trkpt><trkpt lon="5.747329" lat="50.965392"><ele>28.8</ele><time>2022-05-29T07:02:37.000Z</time></trkpt><trkpt lon="5.747184" lat="50.96535"><ele>28.8</ele><time>2022-05-29T07:02:38.000Z</time></trkpt><trkpt lon="5.747112" lat="50.965327"><ele>28.6</ele><time>2022-05-29T07:02:39.000Z</time></trkpt><trkpt lon="5.746998" lat="50.965285"><ele>28.6</ele><time>2022-05-29T07:02:40.000Z</time></trkpt><trkpt lon="5.746937" lat="50.965257"><ele>28.6</ele><time>2022-05-29T07:02:41.000Z</time></trkpt><trkpt lon="5.746833" lat="50.965204"><ele>28.8</ele><time>2022-05-29T07:02:42.000Z</time></trkpt><trkpt lon="5.746777" lat="50.965171"><ele>28.8</ele><time>2022-05-29T07:02:43.000Z</time></trkpt><trkpt lon="5.746692" lat="50.965113"><ele>29</ele><time>2022-05-29T07:02:44.000Z</time></trkpt><trkpt lon="5.746655" lat="50.965081"><ele>29</ele><time>2022-05-29T07:02:45.000Z</time></trkpt><trkpt lon="5.746578" lat="50.965005"><ele>29</ele><time>2022-05-29T07:02:46.000Z</time></trkpt><trkpt lon="5.746547" lat="50.964969"><ele>28.8</ele><time>2022-05-29T07:02:47.000Z</time></trkpt><trkpt lon="5.746473" lat="50.96489"><ele>29</ele><time>2022-05-29T07:02:48.000Z</time></trkpt><trkpt lon="5.746438" lat="50.964852"><ele>28.8</ele><time>2022-05-29T07:02:49.000Z</time></trkpt><trkpt lon="5.746368" lat="50.964781"><ele>28.6</ele><time>2022-05-29T07:02:50.000Z</time></trkpt><trkpt lon="5.746339" lat="50.964751"><ele>28.8</ele><time>2022-05-29T07:02:51.000Z</time></trkpt><trkpt lon="5.74629" lat="50.964703"><ele>28.8</ele><time>2022-05-29T07:02:52.000Z</time></trkpt><trkpt lon="5.746195" lat="50.964615"><ele>28.8</ele><time>2022-05-29T07:02:53.000Z</time></trkpt><trkpt lon="5.74615" lat="50.964574"><ele>28.8</ele><time>2022-05-29T07:02:54.000Z</time></trkpt><trkpt lon="5.746076" lat="50.964512"><ele>29</ele><time>2022-05-29T07:02:55.000Z</time></trkpt><trkpt lon="5.746026" lat="50.964473"><ele>29</ele><time>2022-05-29T07:02:56.000Z</time></trkpt><trkpt lon="5.745947" lat="50.964421"><ele>29</ele><time>2022-05-29T07:02:57.000Z</time></trkpt><trkpt lon="5.745894" lat="50.964386"><ele>29</ele><time>2022-05-29T07:02:58.000Z</time></trkpt><trkpt lon="5.745827" lat="50.964344"><ele>29.2</ele><time>2022-05-29T07:02:59.000Z</time></trkpt><trkpt lon="5.745793" lat="50.96432"><ele>29.2</ele><time>2022-05-29T07:03:00.000Z</time></trkpt><trkpt lon="5.745717" lat="50.964272"><ele>29.2</ele><time>2022-05-29T07:03:01.000Z</time></trkpt><trkpt lon="5.745685" lat="50.964252"><ele>29.4</ele><time>2022-05-29T07:03:02.000Z</time></trkpt><trkpt lon="5.745603" lat="50.964205"><ele>29.4</ele><time>2022-05-29T07:03:03.000Z</time></trkpt><trkpt lon="5.745551" lat="50.964175"><ele>29.4</ele><time>2022-05-29T07:03:04.000Z</time></trkpt><trkpt lon="5.745506" lat="50.964149"><ele>29.6</ele><time>2022-05-29T07:03:05.000Z</time></trkpt><trkpt lon="5.745476" lat="50.964125"><ele>29.6</ele><time>2022-05-29T07:03:06.000Z</time></trkpt><trkpt lon="5.745472" lat="50.964093"><ele>29.6</ele><time>2022-05-29T07:03:07.000Z</time></trkpt><trkpt lon="5.745495" lat="50.964061"><ele>29.6</ele><time>2022-05-29T07:03:08.000Z</time></trkpt><trkpt lon="5.745542" lat="50.964034"><ele>29.6</ele><time>2022-05-29T07:03:09.000Z</time></trkpt><trkpt lon="5.745594" lat="50.964009"><ele>29.4</ele><time>2022-05-29T07:03:10.000Z</time></trkpt><trkpt lon="5.745654" lat="50.96397"><ele>29.4</ele><time>2022-05-29T07:03:11.000Z</time></trkpt><trkpt lon="5.745718" lat="50.963919"><ele>29.4</ele><time>2022-05-29T07:03:12.000Z</time></trkpt><trkpt lon="5.745785" lat="50.963865"><ele>29.4</ele><time>2022-05-29T07:03:13.000Z</time></trkpt><trkpt lon="5.745854" lat="50.963813"><ele>29.6</ele><time>2022-05-29T07:03:14.000Z</time></trkpt><trkpt lon="5.745933" lat="50.963758"><ele>29.6</ele><time>2022-05-29T07:03:15.000Z</time></trkpt><trkpt lon="5.746008" lat="50.963705"><ele>29.6</ele><time>2022-05-29T07:03:16.000Z</time></trkpt><trkpt lon="5.746082" lat="50.963651"><ele>29.4</ele><time>2022-05-29T07:03:17.000Z</time></trkpt><trkpt lon="5.746151" lat="50.963595"><ele>29.2</ele><time>2022-05-29T07:03:18.000Z</time></trkpt><trkpt lon="5.746223" lat="50.963537"><ele>29.2</ele><time>2022-05-29T07:03:19.000Z</time></trkpt><trkpt lon="5.746293" lat="50.963483"><ele>29.2</ele><time>2022-05-29T07:03:20.000Z</time></trkpt><trkpt lon="5.746361" lat="50.963425"><ele>29</ele><time>2022-05-29T07:03:21.000Z</time></trkpt><trkpt lon="5.746424" lat="50.963368"><ele>29</ele><time>2022-05-29T07:03:22.000Z</time></trkpt><trkpt lon="5.746484" lat="50.963312"><ele>29.2</ele><time>2022-05-29T07:03:23.000Z</time></trkpt><trkpt lon="5.746542" lat="50.963259"><ele>29.2</ele><time>2022-05-29T07:03:24.000Z</time></trkpt><trkpt lon="5.746597" lat="50.96321"><ele>29.2</ele><time>2022-05-29T07:03:25.000Z</time></trkpt><trkpt lon="5.746646" lat="50.963167"><ele>29.2</ele><time>2022-05-29T07:03:26.000Z</time></trkpt><trkpt lon="5.746699" lat="50.963135"><ele>29.2</ele><time>2022-05-29T07:03:27.000Z</time></trkpt><trkpt lon="5.746758" lat="50.963119"><ele>29.4</ele><time>2022-05-29T07:03:28.000Z</time></trkpt><trkpt lon="5.746822" lat="50.963119"><ele>29.4</ele><time>2022-05-29T07:03:29.000Z</time></trkpt><trkpt lon="5.746884" lat="50.96314"><ele>29.6</ele><time>2022-05-29T07:03:30.000Z</time></trkpt><trkpt lon="5.746951" lat="50.963167"><ele>29.6</ele><time>2022-05-29T07:03:31.000Z</time></trkpt><trkpt lon="5.747016" lat="50.963194"><ele>29.8</ele><time>2022-05-29T07:03:32.000Z</time></trkpt><trkpt lon="5.74708" lat="50.963225"><ele>29.8</ele><time>2022-05-29T07:03:33.000Z</time></trkpt><trkpt lon="5.747144" lat="50.96325"><ele>30</ele><time>2022-05-29T07:03:34.000Z</time></trkpt><trkpt lon="5.747201" lat="50.963257"><ele>30.2</ele><time>2022-05-29T07:03:35.000Z</time></trkpt><trkpt lon="5.747289" lat="50.963254"><ele>30.2</ele><time>2022-05-29T07:03:36.000Z</time></trkpt><trkpt lon="5.747357" lat="50.963233"><ele>30.4</ele><time>2022-05-29T07:03:37.000Z</time></trkpt><trkpt lon="5.747422" lat="50.9632"><ele>30.6</ele><time>2022-05-29T07:03:38.000Z</time></trkpt><trkpt lon="5.747487" lat="50.963163"><ele>30.8</ele><time>2022-05-29T07:03:39.000Z</time></trkpt><trkpt lon="5.747556" lat="50.963128"><ele>31</ele><time>2022-05-29T07:03:40.000Z</time></trkpt><trkpt lon="5.74763" lat="50.963089"><ele>31.2</ele><time>2022-05-29T07:03:41.000Z</time></trkpt><trkpt lon="5.747708" lat="50.963051"><ele>31.4</ele><time>2022-05-29T07:03:42.000Z</time></trkpt><trkpt lon="5.74779" lat="50.963014"><ele>31.8</ele><time>2022-05-29T07:03:43.000Z</time></trkpt><trkpt lon="5.74787" lat="50.96298"><ele>32</ele><time>2022-05-29T07:03:44.000Z</time></trkpt><trkpt lon="5.747954" lat="50.962942"><ele>32</ele><time>2022-05-29T07:03:45.000Z</time></trkpt><trkpt lon="5.748042" lat="50.962906"><ele>32</ele><time>2022-05-29T07:03:46.000Z</time></trkpt><trkpt lon="5.74813" lat="50.962864"><ele>32</ele><time>2022-05-29T07:03:47.000Z</time></trkpt><trkpt lon="5.748221" lat="50.962825"><ele>32</ele><time>2022-05-29T07:03:48.000Z</time></trkpt><trkpt lon="5.748314" lat="50.962784"><ele>32</ele><time>2022-05-29T07:03:49.000Z</time></trkpt><trkpt lon="5.748405" lat="50.962746"><ele>32</ele><time>2022-05-29T07:03:50.000Z</time></trkpt><trkpt lon="5.7485" lat="50.962705"><ele>32.2</ele><time>2022-05-29T07:03:51.000Z</time></trkpt><trkpt lon="5.748599" lat="50.962671"><ele>32.2</ele><time>2022-05-29T07:03:52.000Z</time></trkpt><trkpt lon="5.748698" lat="50.962637"><ele>32.2</ele><time>2022-05-29T07:03:53.000Z</time></trkpt><trkpt lon="5.748802" lat="50.962603"><ele>32.4</ele><time>2022-05-29T07:03:54.000Z</time></trkpt><trkpt lon="5.748903" lat="50.962577"><ele>32.4</ele><time>2022-05-29T07:03:55.000Z</time></trkpt><trkpt lon="5.749011" lat="50.962545"><ele>32.4</ele><time>2022-05-29T07:03:56.000Z</time></trkpt><trkpt lon="5.749115" lat="50.962516"><ele>32.4</ele><time>2022-05-29T07:03:57.000Z</time></trkpt><trkpt lon="5.749222" lat="50.962489"><ele>32.4</ele><time>2022-05-29T07:03:58.000Z</time></trkpt><trkpt lon="5.749326" lat="50.962466"><ele>32.4</ele><time>2022-05-29T07:03:59.000Z</time></trkpt><trkpt lon="5.749433" lat="50.96244"><ele>32.2</ele><time>2022-05-29T07:04:00.000Z</time></trkpt><trkpt lon="5.74954" lat="50.962414"><ele>32.2</ele><time>2022-05-29T07:04:01.000Z</time></trkpt><trkpt lon="5.74965" lat="50.962387"><ele>32</ele><time>2022-05-29T07:04:02.000Z</time></trkpt><trkpt lon="5.749753" lat="50.962362"><ele>32</ele><time>2022-05-29T07:04:03.000Z</time></trkpt><trkpt lon="5.749875" lat="50.962328"><ele>32</ele><time>2022-05-29T07:04:04.000Z</time></trkpt><trkpt lon="5.749978" lat="50.962297"><ele>32</ele><time>2022-05-29T07:04:05.000Z</time></trkpt><trkpt lon="5.750078" lat="50.962259"><ele>32.2</ele><time>2022-05-29T07:04:06.000Z</time></trkpt><trkpt lon="5.750175" lat="50.962219"><ele>32.2</ele><time>2022-05-29T07:04:07.000Z</time></trkpt><trkpt lon="5.750269" lat="50.962172"><ele>32.4</ele><time>2022-05-29T07:04:08.000Z</time></trkpt><trkpt lon="5.750355" lat="50.962124"><ele>32.4</ele><time>2022-05-29T07:04:09.000Z</time></trkpt><trkpt lon="5.750439" lat="50.962072"><ele>32.4</ele><time>2022-05-29T07:04:10.000Z</time></trkpt><trkpt lon="5.750514" lat="50.96202"><ele>32.6</ele><time>2022-05-29T07:04:11.000Z</time></trkpt><trkpt lon="5.750591" lat="50.961964"><ele>32.6</ele><time>2022-05-29T07:04:12.000Z</time></trkpt><trkpt lon="5.750667" lat="50.961907"><ele>32.6</ele><time>2022-05-29T07:04:13.000Z</time></trkpt><trkpt lon="5.750743" lat="50.961847"><ele>32.6</ele><time>2022-05-29T07:04:14.000Z</time></trkpt><trkpt lon="5.750819" lat="50.961793"><ele>32.4</ele><time>2022-05-29T07:04:15.000Z</time></trkpt><trkpt lon="5.750896" lat="50.961732"><ele>32.4</ele><time>2022-05-29T07:04:16.000Z</time></trkpt><trkpt lon="5.75097" lat="50.961675"><ele>32.4</ele><time>2022-05-29T07:04:17.000Z</time></trkpt><trkpt lon="5.751046" lat="50.961614"><ele>32.4</ele><time>2022-05-29T07:04:18.000Z</time></trkpt><trkpt lon="5.751121" lat="50.961558"><ele>32.4</ele><time>2022-05-29T07:04:19.000Z</time></trkpt><trkpt lon="5.751197" lat="50.961503"><ele>32.2</ele><time>2022-05-29T07:04:20.000Z</time></trkpt><trkpt lon="5.751268" lat="50.961447"><ele>32.2</ele><time>2022-05-29T07:04:21.000Z</time></trkpt><trkpt lon="5.751346" lat="50.961389"><ele>32.4</ele><time>2022-05-29T07:04:22.000Z</time></trkpt><trkpt lon="5.751421" lat="50.961332"><ele>32.4</ele><time>2022-05-29T07:04:23.000Z</time></trkpt><trkpt lon="5.7515" lat="50.961274"><ele>32.4</ele><time>2022-05-29T07:04:24.000Z</time></trkpt><trkpt lon="5.751574" lat="50.961219"><ele>32.4</ele><time>2022-05-29T07:04:25.000Z</time></trkpt><trkpt lon="5.751651" lat="50.96116"><ele>32.2</ele><time>2022-05-29T07:04:26.000Z</time></trkpt><trkpt lon="5.751723" lat="50.961104"><ele>32.2</ele><time>2022-05-29T07:04:27.000Z</time></trkpt><trkpt lon="5.751794" lat="50.961048"><ele>32.2</ele><time>2022-05-29T07:04:28.000Z</time></trkpt><trkpt lon="5.751876" lat="50.960989"><ele>32.2</ele><time>2022-05-29T07:04:29.000Z</time></trkpt><trkpt lon="5.751953" lat="50.960928"><ele>32.2</ele><time>2022-05-29T07:04:30.000Z</time></trkpt><trkpt lon="5.75203" lat="50.960871"><ele>32.2</ele><time>2022-05-29T07:04:31.000Z</time></trkpt><trkpt lon="5.752107" lat="50.960812"><ele>32.4</ele><time>2022-05-29T07:04:32.000Z</time></trkpt><trkpt lon="5.752182" lat="50.960753"><ele>32.4</ele><time>2022-05-29T07:04:33.000Z</time></trkpt><trkpt lon="5.752256" lat="50.960696"><ele>32.4</ele><time>2022-05-29T07:04:34.000Z</time></trkpt><trkpt lon="5.752333" lat="50.960638"><ele>32.4</ele><time>2022-05-29T07:04:35.000Z</time></trkpt><trkpt lon="5.75241" lat="50.960581"><ele>32.4</ele><time>2022-05-29T07:04:36.000Z</time></trkpt><trkpt lon="5.752484" lat="50.960525"><ele>32.4</ele><time>2022-05-29T07:04:37.000Z</time></trkpt><trkpt lon="5.752564" lat="50.960466"><ele>32.4</ele><time>2022-05-29T07:04:38.000Z</time></trkpt><trkpt lon="5.75264" lat="50.96041"><ele>32.4</ele><time>2022-05-29T07:04:39.000Z</time></trkpt><trkpt lon="5.75272" lat="50.960352"><ele>32.4</ele><time>2022-05-29T07:04:40.000Z</time></trkpt><trkpt lon="5.752796" lat="50.960299"><ele>32.4</ele><time>2022-05-29T07:04:41.000Z</time></trkpt><trkpt lon="5.752874" lat="50.960241"><ele>32.6</ele><time>2022-05-29T07:04:42.000Z</time></trkpt><trkpt lon="5.75295" lat="50.960185"><ele>32.6</ele><time>2022-05-29T07:04:43.000Z</time></trkpt><trkpt lon="5.753028" lat="50.96013"><ele>32.6</ele><time>2022-05-29T07:04:44.000Z</time></trkpt><trkpt lon="5.753103" lat="50.960075"><ele>32.6</ele><time>2022-05-29T07:04:45.000Z</time></trkpt><trkpt lon="5.753182" lat="50.960016"><ele>32.6</ele><time>2022-05-29T07:04:46.000Z</time></trkpt><trkpt lon="5.753257" lat="50.959959"><ele>32.6</ele><time>2022-05-29T07:04:47.000Z</time></trkpt><trkpt lon="5.753333" lat="50.959901"><ele>32.8</ele><time>2022-05-29T07:04:48.000Z</time></trkpt><trkpt lon="5.753412" lat="50.959842"><ele>32.8</ele><time>2022-05-29T07:04:49.000Z</time></trkpt><trkpt lon="5.753488" lat="50.959784"><ele>32.8</ele><time>2022-05-29T07:04:50.000Z</time></trkpt><trkpt lon="5.753557" lat="50.959731"><ele>32.8</ele><time>2022-05-29T07:04:51.000Z</time></trkpt><trkpt lon="5.75364" lat="50.959669"><ele>32.8</ele><time>2022-05-29T07:04:52.000Z</time></trkpt><trkpt lon="5.753716" lat="50.959613"><ele>32.8</ele><time>2022-05-29T07:04:53.000Z</time></trkpt><trkpt lon="5.753791" lat="50.959556"><ele>32.8</ele><time>2022-05-29T07:04:54.000Z</time></trkpt><trkpt lon="5.753868" lat="50.959497"><ele>32.8</ele><time>2022-05-29T07:04:55.000Z</time></trkpt><trkpt lon="5.753948" lat="50.95944"><ele>32.6</ele><time>2022-05-29T07:04:56.000Z</time></trkpt><trkpt lon="5.754029" lat="50.959387"><ele>32.8</ele><time>2022-05-29T07:04:57.000Z</time></trkpt><trkpt lon="5.75411" lat="50.959334"><ele>32.8</ele><time>2022-05-29T07:04:58.000Z</time></trkpt><trkpt lon="5.754193" lat="50.959281"><ele>32.8</ele><time>2022-05-29T07:04:59.000Z</time></trkpt><trkpt lon="5.754279" lat="50.959228"><ele>32.8</ele><time>2022-05-29T07:05:00.000Z</time></trkpt><trkpt lon="5.754364" lat="50.959179"><ele>32.8</ele><time>2022-05-29T07:05:01.000Z</time></trkpt><trkpt lon="5.754452" lat="50.959125"><ele>32.6</ele><time>2022-05-29T07:05:02.000Z</time></trkpt><trkpt lon="5.754538" lat="50.959076"><ele>32.6</ele><time>2022-05-29T07:05:03.000Z</time></trkpt><trkpt lon="5.754627" lat="50.959022"><ele>32.6</ele><time>2022-05-29T07:05:04.000Z</time></trkpt><trkpt lon="5.754713" lat="50.958973"><ele>32.6</ele><time>2022-05-29T07:05:05.000Z</time></trkpt><trkpt lon="5.754802" lat="50.958922"><ele>32.6</ele><time>2022-05-29T07:05:06.000Z</time></trkpt><trkpt lon="5.754888" lat="50.958872"><ele>32.6</ele><time>2022-05-29T07:05:07.000Z</time></trkpt><trkpt lon="5.754973" lat="50.958823"><ele>32.6</ele><time>2022-05-29T07:05:08.000Z</time></trkpt><trkpt lon="5.755059" lat="50.958775"><ele>32.6</ele><time>2022-05-29T07:05:09.000Z</time></trkpt><trkpt lon="5.755148" lat="50.95873"><ele>32.8</ele><time>2022-05-29T07:05:10.000Z</time></trkpt><trkpt lon="5.755233" lat="50.958691"><ele>32.8</ele><time>2022-05-29T07:05:11.000Z</time></trkpt><trkpt lon="5.755333" lat="50.958652"><ele>33</ele><time>2022-05-29T07:05:12.000Z</time></trkpt><trkpt lon="5.755436" lat="50.958627"><ele>33.2</ele><time>2022-05-29T07:05:13.000Z</time></trkpt><trkpt lon="5.755544" lat="50.958612"><ele>33.2</ele><time>2022-05-29T07:05:14.000Z</time></trkpt><trkpt lon="5.755652" lat="50.958598"><ele>33.4</ele><time>2022-05-29T07:05:15.000Z</time></trkpt><trkpt lon="5.755757" lat="50.958589"><ele>33.6</ele><time>2022-05-29T07:05:16.000Z</time></trkpt><trkpt lon="5.755861" lat="50.958579"><ele>33.6</ele><time>2022-05-29T07:05:17.000Z</time></trkpt><trkpt lon="5.755971" lat="50.958573"><ele>33.6</ele><time>2022-05-29T07:05:18.000Z</time></trkpt><trkpt lon="5.756079" lat="50.958567"><ele>33.8</ele><time>2022-05-29T07:05:19.000Z</time></trkpt><trkpt lon="5.756176" lat="50.958559"><ele>34.2</ele><time>2022-05-29T07:05:20.000Z</time></trkpt><trkpt lon="5.75627" lat="50.958547"><ele>34.4</ele><time>2022-05-29T07:05:21.000Z</time></trkpt><trkpt lon="5.756355" lat="50.95853"><ele>34.8</ele><time>2022-05-29T07:05:22.000Z</time></trkpt><trkpt lon="5.756431" lat="50.958506"><ele>35</ele><time>2022-05-29T07:05:23.000Z</time></trkpt><trkpt lon="5.756496" lat="50.958478"><ele>35.2</ele><time>2022-05-29T07:05:24.000Z</time></trkpt><trkpt lon="5.75656" lat="50.958443"><ele>35.4</ele><time>2022-05-29T07:05:25.000Z</time></trkpt><trkpt lon="5.75663" lat="50.958405"><ele>35.6</ele><time>2022-05-29T07:05:26.000Z</time></trkpt><trkpt lon="5.756704" lat="50.958371"><ele>35.8</ele><time>2022-05-29T07:05:27.000Z</time></trkpt><trkpt lon="5.756779" lat="50.958337"><ele>36</ele><time>2022-05-29T07:05:28.000Z</time></trkpt><trkpt lon="5.756848" lat="50.958301"><ele>36.2</ele><time>2022-05-29T07:05:29.000Z</time></trkpt><trkpt lon="5.756916" lat="50.958259"><ele>36.4</ele><time>2022-05-29T07:05:30.000Z</time></trkpt><trkpt lon="5.756981" lat="50.958217"><ele>36.6</ele><time>2022-05-29T07:05:31.000Z</time></trkpt><trkpt lon="5.757042" lat="50.958174"><ele>36.8</ele><time>2022-05-29T07:05:32.000Z</time></trkpt><trkpt lon="5.757101" lat="50.958125"><ele>37</ele><time>2022-05-29T07:05:33.000Z</time></trkpt><trkpt lon="5.757164" lat="50.958082"><ele>37.2</ele><time>2022-05-29T07:05:34.000Z</time></trkpt><trkpt lon="5.757227" lat="50.958033"><ele>37.6</ele><time>2022-05-29T07:05:35.000Z</time></trkpt><trkpt lon="5.757288" lat="50.957987"><ele>37.8</ele><time>2022-05-29T07:05:36.000Z</time></trkpt><trkpt lon="5.757351" lat="50.957938"><ele>38</ele><time>2022-05-29T07:05:37.000Z</time></trkpt><trkpt lon="5.757418" lat="50.957888"><ele>38.2</ele><time>2022-05-29T07:05:38.000Z</time></trkpt><trkpt lon="5.757479" lat="50.957838"><ele>38.4</ele><time>2022-05-29T07:05:39.000Z</time></trkpt><trkpt lon="5.757538" lat="50.957789"><ele>38.6</ele><time>2022-05-29T07:05:40.000Z</time></trkpt><trkpt lon="5.757598" lat="50.957739"><ele>38.8</ele><time>2022-05-29T07:05:41.000Z</time></trkpt><trkpt lon="5.757659" lat="50.957691"><ele>38.8</ele><time>2022-05-29T07:05:42.000Z</time></trkpt><trkpt lon="5.757716" lat="50.957648"><ele>39</ele><time>2022-05-29T07:05:43.000Z</time></trkpt><trkpt lon="5.757781" lat="50.957595"><ele>39.2</ele><time>2022-05-29T07:05:44.000Z</time></trkpt><trkpt lon="5.75784" lat="50.957546"><ele>39.2</ele><time>2022-05-29T07:05:45.000Z</time></trkpt><trkpt lon="5.757897" lat="50.957496"><ele>39.4</ele><time>2022-05-29T07:05:46.000Z</time></trkpt><trkpt lon="5.757953" lat="50.95745"><ele>39.6</ele><time>2022-05-29T07:05:47.000Z</time></trkpt><trkpt lon="5.758014" lat="50.9574"><ele>40</ele><time>2022-05-29T07:05:48.000Z</time></trkpt><trkpt lon="5.758075" lat="50.95735"><ele>40</ele><time>2022-05-29T07:05:49.000Z</time></trkpt><trkpt lon="5.758137" lat="50.9573"><ele>40.2</ele><time>2022-05-29T07:05:50.000Z</time></trkpt><trkpt lon="5.758198" lat="50.957251"><ele>40.4</ele><time>2022-05-29T07:05:51.000Z</time></trkpt><trkpt lon="5.758257" lat="50.957201"><ele>40.6</ele><time>2022-05-29T07:05:52.000Z</time></trkpt><trkpt lon="5.758319" lat="50.957148"><ele>40.8</ele><time>2022-05-29T07:05:53.000Z</time></trkpt><trkpt lon="5.758382" lat="50.957098"><ele>41</ele><time>2022-05-29T07:05:54.000Z</time></trkpt><trkpt lon="5.758448" lat="50.957044"><ele>41</ele><time>2022-05-29T07:05:55.000Z</time></trkpt><trkpt lon="5.758516" lat="50.956992"><ele>41</ele><time>2022-05-29T07:05:56.000Z</time></trkpt><trkpt lon="5.758586" lat="50.956942"><ele>41</ele><time>2022-05-29T07:05:57.000Z</time></trkpt><trkpt lon="5.758656" lat="50.956888"><ele>40.8</ele><time>2022-05-29T07:05:58.000Z</time></trkpt><trkpt lon="5.758726" lat="50.956836"><ele>40.8</ele><time>2022-05-29T07:05:59.000Z</time></trkpt><trkpt lon="5.758798" lat="50.956781"><ele>40.8</ele><time>2022-05-29T07:06:00.000Z</time></trkpt><trkpt lon="5.758869" lat="50.956727"><ele>40.8</ele><time>2022-05-29T07:06:01.000Z</time></trkpt><trkpt lon="5.758943" lat="50.956674"><ele>40.8</ele><time>2022-05-29T07:06:02.000Z</time></trkpt><trkpt lon="5.759018" lat="50.956621"><ele>41</ele><time>2022-05-29T07:06:03.000Z</time></trkpt><trkpt lon="5.759094" lat="50.956566"><ele>41</ele><time>2022-05-29T07:06:04.000Z</time></trkpt><trkpt lon="5.759169" lat="50.95651"><ele>41</ele><time>2022-05-29T07:06:05.000Z</time></trkpt><trkpt lon="5.759241" lat="50.956456"><ele>41</ele><time>2022-05-29T07:06:06.000Z</time></trkpt><trkpt lon="5.759313" lat="50.9564"><ele>40.8</ele><time>2022-05-29T07:06:07.000Z</time></trkpt><trkpt lon="5.759384" lat="50.956345"><ele>40.8</ele><time>2022-05-29T07:06:08.000Z</time></trkpt><trkpt lon="5.759456" lat="50.956285"><ele>40.8</ele><time>2022-05-29T07:06:09.000Z</time></trkpt><trkpt lon="5.759525" lat="50.95623"><ele>40.8</ele><time>2022-05-29T07:06:10.000Z</time></trkpt><trkpt lon="5.759592" lat="50.956174"><ele>40.8</ele><time>2022-05-29T07:06:11.000Z</time></trkpt><trkpt lon="5.759653" lat="50.956116"><ele>40.8</ele><time>2022-05-29T07:06:12.000Z</time></trkpt><trkpt lon="5.759715" lat="50.956058"><ele>40.8</ele><time>2022-05-29T07:06:13.000Z</time></trkpt><trkpt lon="5.759775" lat="50.955997"><ele>40.8</ele><time>2022-05-29T07:06:14.000Z</time></trkpt><trkpt lon="5.759839" lat="50.955936"><ele>41</ele><time>2022-05-29T07:06:15.000Z</time></trkpt><trkpt lon="5.759899" lat="50.955876"><ele>41</ele><time>2022-05-29T07:06:16.000Z</time></trkpt><trkpt lon="5.759956" lat="50.955819"><ele>41</ele><time>2022-05-29T07:06:17.000Z</time></trkpt><trkpt lon="5.760011" lat="50.955762"><ele>41</ele><time>2022-05-29T07:06:18.000Z</time></trkpt><trkpt lon="5.760061" lat="50.955704"><ele>41</ele><time>2022-05-29T07:06:19.000Z</time></trkpt><trkpt lon="5.76011" lat="50.955646"><ele>41</ele><time>2022-05-29T07:06:20.000Z</time></trkpt><trkpt lon="5.760163" lat="50.955582"><ele>41</ele><time>2022-05-29T07:06:21.000Z</time></trkpt><trkpt lon="5.760214" lat="50.955519"><ele>41</ele><time>2022-05-29T07:06:22.000Z</time></trkpt><trkpt lon="5.760258" lat="50.955455"><ele>41.2</ele><time>2022-05-29T07:06:23.000Z</time></trkpt><trkpt lon="5.760299" lat="50.95539"><ele>41.2</ele><time>2022-05-29T07:06:24.000Z</time></trkpt><trkpt lon="5.760339" lat="50.955327"><ele>41.2</ele><time>2022-05-29T07:06:25.000Z</time></trkpt><trkpt lon="5.760378" lat="50.955265"><ele>41.4</ele><time>2022-05-29T07:06:26.000Z</time></trkpt><trkpt lon="5.760415" lat="50.955203"><ele>41.4</ele><time>2022-05-29T07:06:27.000Z</time></trkpt><trkpt lon="5.76045" lat="50.955139"><ele>41.4</ele><time>2022-05-29T07:06:28.000Z</time></trkpt><trkpt lon="5.760484" lat="50.955078"><ele>41.4</ele><time>2022-05-29T07:06:29.000Z</time></trkpt><trkpt lon="5.760525" lat="50.955007"><ele>41.4</ele><time>2022-05-29T07:06:30.000Z</time></trkpt><trkpt lon="5.760567" lat="50.954941"><ele>41.4</ele><time>2022-05-29T07:06:31.000Z</time></trkpt><trkpt lon="5.760602" lat="50.954884"><ele>41.4</ele><time>2022-05-29T07:06:32.000Z</time></trkpt><trkpt lon="5.760645" lat="50.954802"><ele>41.4</ele><time>2022-05-29T07:06:33.000Z</time></trkpt><trkpt lon="5.76068" lat="50.954733"><ele>41.4</ele><time>2022-05-29T07:06:34.000Z</time></trkpt><trkpt lon="5.760716" lat="50.95466"><ele>41.4</ele><time>2022-05-29T07:06:35.000Z</time></trkpt><trkpt lon="5.760748" lat="50.954591"><ele>41.4</ele><time>2022-05-29T07:06:36.000Z</time></trkpt><trkpt lon="5.76078" lat="50.954519"><ele>41.4</ele><time>2022-05-29T07:06:37.000Z</time></trkpt><trkpt lon="5.760807" lat="50.954446"><ele>41.4</ele><time>2022-05-29T07:06:38.000Z</time></trkpt><trkpt lon="5.760834" lat="50.954375"><ele>41.2</ele><time>2022-05-29T07:06:39.000Z</time></trkpt><trkpt lon="5.760854" lat="50.954302"><ele>41.2</ele><time>2022-05-29T07:06:40.000Z</time></trkpt><trkpt lon="5.760874" lat="50.954226"><ele>41.2</ele><time>2022-05-29T07:06:41.000Z</time></trkpt><trkpt lon="5.760894" lat="50.954153"><ele>41.2</ele><time>2022-05-29T07:06:42.000Z</time></trkpt><trkpt lon="5.760915" lat="50.954076"><ele>41.2</ele><time>2022-05-29T07:06:43.000Z</time></trkpt><trkpt lon="5.760934" lat="50.954003"><ele>41.2</ele><time>2022-05-29T07:06:44.000Z</time></trkpt><trkpt lon="5.760946" lat="50.953931"><ele>41.2</ele><time>2022-05-29T07:06:45.000Z</time></trkpt><trkpt lon="5.760951" lat="50.953859"><ele>41.4</ele><time>2022-05-29T07:06:46.000Z</time></trkpt><trkpt lon="5.760955" lat="50.953788"><ele>41.4</ele><time>2022-05-29T07:06:47.000Z</time></trkpt><trkpt lon="5.760959" lat="50.95372"><ele>41.4</ele><time>2022-05-29T07:06:48.000Z</time></trkpt><trkpt lon="5.760966" lat="50.953649"><ele>41.6</ele><time>2022-05-29T07:06:49.000Z</time></trkpt><trkpt lon="5.760968" lat="50.953578"><ele>41.8</ele><time>2022-05-29T07:06:50.000Z</time></trkpt><trkpt lon="5.760966" lat="50.953513"><ele>41.8</ele><time>2022-05-29T07:06:51.000Z</time></trkpt><trkpt lon="5.760962" lat="50.953443"><ele>42</ele><time>2022-05-29T07:06:52.000Z</time></trkpt><trkpt lon="5.760954" lat="50.953376"><ele>42.2</ele><time>2022-05-29T07:06:53.000Z</time></trkpt><trkpt lon="5.760949" lat="50.953311"><ele>42.4</ele><time>2022-05-29T07:06:54.000Z</time></trkpt><trkpt lon="5.760946" lat="50.953247"><ele>42.6</ele><time>2022-05-29T07:06:55.000Z</time></trkpt><trkpt lon="5.760943" lat="50.953185"><ele>42.6</ele><time>2022-05-29T07:06:56.000Z</time></trkpt><trkpt lon="5.760939" lat="50.953121"><ele>42.8</ele><time>2022-05-29T07:06:57.000Z</time></trkpt><trkpt lon="5.760934" lat="50.953062"><ele>43</ele><time>2022-05-29T07:06:58.000Z</time></trkpt><trkpt lon="5.760926" lat="50.953011"><ele>43.2</ele><time>2022-05-29T07:06:59.000Z</time></trkpt><trkpt lon="5.760917" lat="50.952942"><ele>43.2</ele><time>2022-05-29T07:07:00.000Z</time></trkpt><trkpt lon="5.76091" lat="50.952884"><ele>43.4</ele><time>2022-05-29T07:07:01.000Z</time></trkpt><trkpt lon="5.7609" lat="50.952824"><ele>43.4</ele><time>2022-05-29T07:07:02.000Z</time></trkpt><trkpt lon="5.760886" lat="50.952765"><ele>43.4</ele><time>2022-05-29T07:07:03.000Z</time></trkpt><trkpt lon="5.76087" lat="50.952705"><ele>43.4</ele><time>2022-05-29T07:07:04.000Z</time></trkpt><trkpt lon="5.760851" lat="50.952641"><ele>43.6</ele><time>2022-05-29T07:07:05.000Z</time></trkpt><trkpt lon="5.760828" lat="50.952583"><ele>43.8</ele><time>2022-05-29T07:07:06.000Z</time></trkpt><trkpt lon="5.760804" lat="50.952523"><ele>43.8</ele><time>2022-05-29T07:07:07.000Z</time></trkpt><trkpt lon="5.760779" lat="50.952461"><ele>44</ele><time>2022-05-29T07:07:08.000Z</time></trkpt><trkpt lon="5.760757" lat="50.9524"><ele>44.2</ele><time>2022-05-29T07:07:09.000Z</time></trkpt><trkpt lon="5.760736" lat="50.952339"><ele>44.2</ele><time>2022-05-29T07:07:10.000Z</time></trkpt><trkpt lon="5.760714" lat="50.952278"><ele>44.4</ele><time>2022-05-29T07:07:11.000Z</time></trkpt><trkpt lon="5.760689" lat="50.952218"><ele>44.6</ele><time>2022-05-29T07:07:12.000Z</time></trkpt><trkpt lon="5.760666" lat="50.95216"><ele>44.8</ele><time>2022-05-29T07:07:13.000Z</time></trkpt><trkpt lon="5.760642" lat="50.952104"><ele>44.8</ele><time>2022-05-29T07:07:14.000Z</time></trkpt><trkpt lon="5.760613" lat="50.952047"><ele>45</ele><time>2022-05-29T07:07:15.000Z</time></trkpt><trkpt lon="5.76058" lat="50.951994"><ele>45.2</ele><time>2022-05-29T07:07:16.000Z</time></trkpt><trkpt lon="5.760543" lat="50.95194"><ele>45.4</ele><time>2022-05-29T07:07:17.000Z</time></trkpt><trkpt lon="5.760506" lat="50.951886"><ele>45.6</ele><time>2022-05-29T07:07:18.000Z</time></trkpt><trkpt lon="5.760469" lat="50.951833"><ele>45.6</ele><time>2022-05-29T07:07:19.000Z</time></trkpt><trkpt lon="5.760437" lat="50.951781"><ele>45.8</ele><time>2022-05-29T07:07:20.000Z</time></trkpt><trkpt lon="5.7604" lat="50.951728"><ele>46</ele><time>2022-05-29T07:07:21.000Z</time></trkpt><trkpt lon="5.760366" lat="50.951679"><ele>46.2</ele><time>2022-05-29T07:07:22.000Z</time></trkpt><trkpt lon="5.760333" lat="50.951632"><ele>46.4</ele><time>2022-05-29T07:07:23.000Z</time></trkpt><trkpt lon="5.760294" lat="50.951585"><ele>46.6</ele><time>2022-05-29T07:07:24.000Z</time></trkpt><trkpt lon="5.760261" lat="50.951537"><ele>46.8</ele><time>2022-05-29T07:07:25.000Z</time></trkpt><trkpt lon="5.760233" lat="50.951496"><ele>46.8</ele><time>2022-05-29T07:07:26.000Z</time></trkpt><trkpt lon="5.760209" lat="50.951459"><ele>47</ele><time>2022-05-29T07:07:27.000Z</time></trkpt><trkpt lon="5.760188" lat="50.951424"><ele>47.2</ele><time>2022-05-29T07:07:28.000Z</time></trkpt><trkpt lon="5.760176" lat="50.951388"><ele>47.2</ele><time>2022-05-29T07:07:29.000Z</time></trkpt><trkpt lon="5.760181" lat="50.951361"><ele>47.4</ele><time>2022-05-29T07:07:30.000Z</time></trkpt><trkpt lon="5.760206" lat="50.951331"><ele>47.4</ele><time>2022-05-29T07:07:31.000Z</time></trkpt><trkpt lon="5.760256" lat="50.951304"><ele>47.4</ele><time>2022-05-29T07:07:32.000Z</time></trkpt><trkpt lon="5.760324" lat="50.951279"><ele>47.4</ele><time>2022-05-29T07:07:33.000Z</time></trkpt><trkpt lon="5.760412" lat="50.951255"><ele>47.4</ele><time>2022-05-29T07:07:34.000Z</time></trkpt><trkpt lon="5.760497" lat="50.951231"><ele>47.4</ele><time>2022-05-29T07:07:35.000Z</time></trkpt><trkpt lon="5.760586" lat="50.951204"><ele>47.2</ele><time>2022-05-29T07:07:36.000Z</time></trkpt><trkpt lon="5.76068" lat="50.951174"><ele>47.2</ele><time>2022-05-29T07:07:37.000Z</time></trkpt><trkpt lon="5.760778" lat="50.951143"><ele>47.2</ele><time>2022-05-29T07:07:38.000Z</time></trkpt><trkpt lon="5.760873" lat="50.951113"><ele>47.2</ele><time>2022-05-29T07:07:39.000Z</time></trkpt><trkpt lon="5.760966" lat="50.951086"><ele>47.2</ele><time>2022-05-29T07:07:40.000Z</time></trkpt><trkpt lon="5.76106" lat="50.951055"><ele>47.4</ele><time>2022-05-29T07:07:41.000Z</time></trkpt><trkpt lon="5.761153" lat="50.951025"><ele>47.4</ele><time>2022-05-29T07:07:42.000Z</time></trkpt><trkpt lon="5.761245" lat="50.950995"><ele>47.4</ele><time>2022-05-29T07:07:43.000Z</time></trkpt><trkpt lon="5.761338" lat="50.950968"><ele>47.4</ele><time>2022-05-29T07:07:44.000Z</time></trkpt><trkpt lon="5.761429" lat="50.950942"><ele>47.4</ele><time>2022-05-29T07:07:45.000Z</time></trkpt><trkpt lon="5.761521" lat="50.950915"><ele>47.4</ele><time>2022-05-29T07:07:46.000Z</time></trkpt><trkpt lon="5.761609" lat="50.950889"><ele>47.2</ele><time>2022-05-29T07:07:47.000Z</time></trkpt><trkpt lon="5.761695" lat="50.950863"><ele>47.2</ele><time>2022-05-29T07:07:48.000Z</time></trkpt><trkpt lon="5.76178" lat="50.950835"><ele>47.2</ele><time>2022-05-29T07:07:49.000Z</time></trkpt><trkpt lon="5.761848" lat="50.950809"><ele>47.2</ele><time>2022-05-29T07:07:50.000Z</time></trkpt><trkpt lon="5.761894" lat="50.950769"><ele>47.2</ele><time>2022-05-29T07:07:51.000Z</time></trkpt><trkpt lon="5.76191" lat="50.950732"><ele>47.2</ele><time>2022-05-29T07:07:52.000Z</time></trkpt><trkpt lon="5.761898" lat="50.950688"><ele>47.4</ele><time>2022-05-29T07:07:53.000Z</time></trkpt><trkpt lon="5.761871" lat="50.950644"><ele>47.4</ele><time>2022-05-29T07:07:54.000Z</time></trkpt><trkpt lon="5.761839" lat="50.950593"><ele>47.6</ele><time>2022-05-29T07:07:55.000Z</time></trkpt><trkpt lon="5.761809" lat="50.950541"><ele>47.8</ele><time>2022-05-29T07:07:56.000Z</time></trkpt><trkpt lon="5.761776" lat="50.950493"><ele>48</ele><time>2022-05-29T07:07:57.000Z</time></trkpt><trkpt lon="5.761736" lat="50.95045"><ele>48.2</ele><time>2022-05-29T07:07:58.000Z</time></trkpt><trkpt lon="5.761696" lat="50.9504"><ele>48.4</ele><time>2022-05-29T07:07:59.000Z</time></trkpt><trkpt lon="5.761655" lat="50.95035"><ele>48.6</ele><time>2022-05-29T07:08:00.000Z</time></trkpt><trkpt lon="5.761605" lat="50.950296"><ele>49</ele><time>2022-05-29T07:08:01.000Z</time></trkpt><trkpt lon="5.761553" lat="50.950246"><ele>49.2</ele><time>2022-05-29T07:08:02.000Z</time></trkpt><trkpt lon="5.761501" lat="50.950193"><ele>49.4</ele><time>2022-05-29T07:08:03.000Z</time></trkpt><trkpt lon="5.761449" lat="50.950139"><ele>49.4</ele><time>2022-05-29T07:08:04.000Z</time></trkpt><trkpt lon="5.761399" lat="50.950085"><ele>49.6</ele><time>2022-05-29T07:08:05.000Z</time></trkpt><trkpt lon="5.761349" lat="50.950029"><ele>49.8</ele><time>2022-05-29T07:08:06.000Z</time></trkpt><trkpt lon="5.761297" lat="50.949976"><ele>50</ele><time>2022-05-29T07:08:07.000Z</time></trkpt><trkpt lon="5.761245" lat="50.949922"><ele>50.2</ele><time>2022-05-29T07:08:08.000Z</time></trkpt><trkpt lon="5.761194" lat="50.949869"><ele>50.6</ele><time>2022-05-29T07:08:09.000Z</time></trkpt><trkpt lon="5.761142" lat="50.949815"><ele>50.8</ele><time>2022-05-29T07:08:10.000Z</time></trkpt><trkpt lon="5.76109" lat="50.949761"><ele>51</ele><time>2022-05-29T07:08:11.000Z</time></trkpt><trkpt lon="5.761039" lat="50.949708"><ele>51.2</ele><time>2022-05-29T07:08:12.000Z</time></trkpt><trkpt lon="5.76099" lat="50.949657"><ele>51.4</ele><time>2022-05-29T07:08:13.000Z</time></trkpt><trkpt lon="5.760941" lat="50.949606"><ele>51.6</ele><time>2022-05-29T07:08:14.000Z</time></trkpt><trkpt lon="5.760892" lat="50.949559"><ele>51.8</ele><time>2022-05-29T07:08:15.000Z</time></trkpt><trkpt lon="5.760842" lat="50.949519"><ele>52.2</ele><time>2022-05-29T07:08:16.000Z</time></trkpt><trkpt lon="5.760777" lat="50.949467"><ele>52.4</ele><time>2022-05-29T07:08:17.000Z</time></trkpt><trkpt lon="5.760715" lat="50.949419"><ele>52.6</ele><time>2022-05-29T07:08:18.000Z</time></trkpt><trkpt lon="5.760656" lat="50.94937"><ele>52.8</ele><time>2022-05-29T07:08:19.000Z</time></trkpt><trkpt lon="5.760601" lat="50.949325"><ele>53.2</ele><time>2022-05-29T07:08:20.000Z</time></trkpt><trkpt lon="5.760548" lat="50.949278"><ele>53.4</ele><time>2022-05-29T07:08:21.000Z</time></trkpt><trkpt lon="5.760499" lat="50.949234"><ele>53.6</ele><time>2022-05-29T07:08:22.000Z</time></trkpt><trkpt lon="5.760448" lat="50.949196"><ele>53.8</ele><time>2022-05-29T07:08:23.000Z</time></trkpt><trkpt lon="5.760397" lat="50.949159"><ele>54</ele><time>2022-05-29T07:08:24.000Z</time></trkpt><trkpt lon="5.760347" lat="50.949117"><ele>54.2</ele><time>2022-05-29T07:08:25.000Z</time></trkpt><trkpt lon="5.760309" lat="50.949076"><ele>54.4</ele><time>2022-05-29T07:08:26.000Z</time></trkpt><trkpt lon="5.76029" lat="50.949031"><ele>54.6</ele><time>2022-05-29T07:08:27.000Z</time></trkpt><trkpt lon="5.760295" lat="50.948989"><ele>54.8</ele><time>2022-05-29T07:08:28.000Z</time></trkpt><trkpt lon="5.760314" lat="50.948944"><ele>54.8</ele><time>2022-05-29T07:08:29.000Z</time></trkpt><trkpt lon="5.760343" lat="50.948906"><ele>55</ele><time>2022-05-29T07:08:30.000Z</time></trkpt><trkpt lon="5.760372" lat="50.948868"><ele>55</ele><time>2022-05-29T07:08:31.000Z</time></trkpt><trkpt lon="5.76039" lat="50.94883"><ele>55</ele><time>2022-05-29T07:08:32.000Z</time></trkpt><trkpt lon="5.760388" lat="50.948786"><ele>55.2</ele><time>2022-05-29T07:08:33.000Z</time></trkpt><trkpt lon="5.76038" lat="50.948737"><ele>55.2</ele><time>2022-05-29T07:08:34.000Z</time></trkpt><trkpt lon="5.760383" lat="50.948686"><ele>55.2</ele><time>2022-05-29T07:08:35.000Z</time></trkpt><trkpt lon="5.760405" lat="50.948635"><ele>55.4</ele><time>2022-05-29T07:08:36.000Z</time></trkpt><trkpt lon="5.760449" lat="50.94859"><ele>55.4</ele><time>2022-05-29T07:08:37.000Z</time></trkpt><trkpt lon="5.760507" lat="50.948554"><ele>55.4</ele><time>2022-05-29T07:08:38.000Z</time></trkpt><trkpt lon="5.760583" lat="50.948519"><ele>55.4</ele><time>2022-05-29T07:08:39.000Z</time></trkpt><trkpt lon="5.760664" lat="50.948488"><ele>55.4</ele><time>2022-05-29T07:08:40.000Z</time></trkpt><trkpt lon="5.76075" lat="50.948458"><ele>55.4</ele><time>2022-05-29T07:08:41.000Z</time></trkpt><trkpt lon="5.760841" lat="50.948432"><ele>55.4</ele><time>2022-05-29T07:08:42.000Z</time></trkpt><trkpt lon="5.760935" lat="50.948406"><ele>55.4</ele><time>2022-05-29T07:08:43.000Z</time></trkpt><trkpt lon="5.761034" lat="50.948383"><ele>55.2</ele><time>2022-05-29T07:08:44.000Z</time></trkpt><trkpt lon="5.761132" lat="50.948364"><ele>55.4</ele><time>2022-05-29T07:08:45.000Z</time></trkpt><trkpt lon="5.761232" lat="50.948342"><ele>55.4</ele><time>2022-05-29T07:08:46.000Z</time></trkpt><trkpt lon="5.761334" lat="50.948326"><ele>55.4</ele><time>2022-05-29T07:08:47.000Z</time></trkpt><trkpt lon="5.761436" lat="50.948309"><ele>55.4</ele><time>2022-05-29T07:08:48.000Z</time></trkpt><trkpt lon="5.761537" lat="50.948297"><ele>55.4</ele><time>2022-05-29T07:08:49.000Z</time></trkpt><trkpt lon="5.761642" lat="50.948286"><ele>55.4</ele><time>2022-05-29T07:08:50.000Z</time></trkpt><trkpt lon="5.761745" lat="50.948274"><ele>55.4</ele><time>2022-05-29T07:08:51.000Z</time></trkpt><trkpt lon="5.761847" lat="50.948263"><ele>55.4</ele><time>2022-05-29T07:08:52.000Z</time></trkpt><trkpt lon="5.761948" lat="50.948252"><ele>55.4</ele><time>2022-05-29T07:08:53.000Z</time></trkpt><trkpt lon="5.762048" lat="50.948244"><ele>55.6</ele><time>2022-05-29T07:08:54.000Z</time></trkpt><trkpt lon="5.762149" lat="50.948232"><ele>55.6</ele><time>2022-05-29T07:08:55.000Z</time></trkpt><trkpt lon="5.762253" lat="50.94822"><ele>55.6</ele><time>2022-05-29T07:08:56.000Z</time></trkpt><trkpt lon="5.762357" lat="50.948205"><ele>55.6</ele><time>2022-05-29T07:08:57.000Z</time></trkpt><trkpt lon="5.762458" lat="50.948191"><ele>55.6</ele><time>2022-05-29T07:08:58.000Z</time></trkpt><trkpt lon="5.762559" lat="50.948179"><ele>55.6</ele><time>2022-05-29T07:08:59.000Z</time></trkpt><trkpt lon="5.762661" lat="50.948168"><ele>55.6</ele><time>2022-05-29T07:09:00.000Z</time></trkpt><trkpt lon="5.762765" lat="50.948155"><ele>55.6</ele><time>2022-05-29T07:09:01.000Z</time></trkpt><trkpt lon="5.762871" lat="50.948141"><ele>55.6</ele><time>2022-05-29T07:09:02.000Z</time></trkpt><trkpt lon="5.762975" lat="50.94813"><ele>55.8</ele><time>2022-05-29T07:09:03.000Z</time></trkpt><trkpt lon="5.763082" lat="50.948118"><ele>55.8</ele><time>2022-05-29T07:09:04.000Z</time></trkpt><trkpt lon="5.763184" lat="50.948107"><ele>55.8</ele><time>2022-05-29T07:09:05.000Z</time></trkpt><trkpt lon="5.763287" lat="50.948096"><ele>55.8</ele><time>2022-05-29T07:09:06.000Z</time></trkpt><trkpt lon="5.763395" lat="50.948087"><ele>56</ele><time>2022-05-29T07:09:07.000Z</time></trkpt><trkpt lon="5.763499" lat="50.948076"><ele>56</ele><time>2022-05-29T07:09:08.000Z</time></trkpt><trkpt lon="5.763602" lat="50.948065"><ele>56</ele><time>2022-05-29T07:09:09.000Z</time></trkpt><trkpt lon="5.763705" lat="50.948053"><ele>56.2</ele><time>2022-05-29T07:09:10.000Z</time></trkpt><trkpt lon="5.76381" lat="50.948042"><ele>56.2</ele><time>2022-05-29T07:09:11.000Z</time></trkpt><trkpt lon="5.763912" lat="50.948035"><ele>56.4</ele><time>2022-05-29T07:09:12.000Z</time></trkpt><trkpt lon="5.764012" lat="50.948026"><ele>56.4</ele><time>2022-05-29T07:09:13.000Z</time></trkpt><trkpt lon="5.764113" lat="50.948016"><ele>56.6</ele><time>2022-05-29T07:09:14.000Z</time></trkpt><trkpt lon="5.764213" lat="50.948012"><ele>56.6</ele><time>2022-05-29T07:09:15.000Z</time></trkpt><trkpt lon="5.764314" lat="50.948004"><ele>56.8</ele><time>2022-05-29T07:09:16.000Z</time></trkpt><trkpt lon="5.76441" lat="50.947996"><ele>57</ele><time>2022-05-29T07:09:17.000Z</time></trkpt><trkpt lon="5.764505" lat="50.947985"><ele>57.2</ele><time>2022-05-29T07:09:18.000Z</time></trkpt><trkpt lon="5.764607" lat="50.947978"><ele>57.4</ele><time>2022-05-29T07:09:19.000Z</time></trkpt><trkpt lon="5.764701" lat="50.947969"><ele>57.6</ele><time>2022-05-29T07:09:20.000Z</time></trkpt><trkpt lon="5.764799" lat="50.947958"><ele>57.8</ele><time>2022-05-29T07:09:21.000Z</time></trkpt><trkpt lon="5.764895" lat="50.947947"><ele>58</ele><time>2022-05-29T07:09:22.000Z</time></trkpt><trkpt lon="5.764989" lat="50.947939"><ele>58.2</ele><time>2022-05-29T07:09:23.000Z</time></trkpt><trkpt lon="5.765083" lat="50.947931"><ele>58.2</ele><time>2022-05-29T07:09:24.000Z</time></trkpt><trkpt lon="5.765171" lat="50.94792"><ele>58.4</ele><time>2022-05-29T07:09:25.000Z</time></trkpt><trkpt lon="5.765261" lat="50.947908"><ele>58.6</ele><time>2022-05-29T07:09:26.000Z</time></trkpt><trkpt lon="5.765341" lat="50.947897"><ele>58.8</ele><time>2022-05-29T07:09:27.000Z</time></trkpt><trkpt lon="5.765414" lat="50.947889"><ele>59</ele><time>2022-05-29T07:09:28.000Z</time></trkpt><trkpt lon="5.765482" lat="50.947878"><ele>59</ele><time>2022-05-29T07:09:29.000Z</time></trkpt><trkpt lon="5.765549" lat="50.947864"><ele>59.2</ele><time>2022-05-29T07:09:30.000Z</time></trkpt><trkpt lon="5.765606" lat="50.947843"><ele>59.4</ele><time>2022-05-29T07:09:31.000Z</time></trkpt><trkpt lon="5.765652" lat="50.947809"><ele>59.4</ele><time>2022-05-29T07:09:32.000Z</time></trkpt><trkpt lon="5.765674" lat="50.947768"><ele>59.4</ele><time>2022-05-29T07:09:33.000Z</time></trkpt><trkpt lon="5.765681" lat="50.947722"><ele>59.4</ele><time>2022-05-29T07:09:34.000Z</time></trkpt><trkpt lon="5.765685" lat="50.947672"><ele>59.4</ele><time>2022-05-29T07:09:35.000Z</time></trkpt><trkpt lon="5.765684" lat="50.947626"><ele>59.2</ele><time>2022-05-29T07:09:36.000Z</time></trkpt><trkpt lon="5.765681" lat="50.947573"><ele>59.2</ele><time>2022-05-29T07:09:37.000Z</time></trkpt><trkpt lon="5.76568" lat="50.947518"><ele>59.2</ele><time>2022-05-29T07:09:38.000Z</time></trkpt><trkpt lon="5.765677" lat="50.94746"><ele>59</ele><time>2022-05-29T07:09:39.000Z</time></trkpt><trkpt lon="5.765672" lat="50.947402"><ele>59</ele><time>2022-05-29T07:09:40.000Z</time></trkpt><trkpt lon="5.765667" lat="50.947342"><ele>58.8</ele><time>2022-05-29T07:09:41.000Z</time></trkpt><trkpt lon="5.765664" lat="50.947282"><ele>58.8</ele><time>2022-05-29T07:09:42.000Z</time></trkpt><trkpt lon="5.765667" lat="50.94722"><ele>58.6</ele><time>2022-05-29T07:09:43.000Z</time></trkpt><trkpt lon="5.765667" lat="50.94716"><ele>58.4</ele><time>2022-05-29T07:09:44.000Z</time></trkpt><trkpt lon="5.765668" lat="50.947105"><ele>58.4</ele><time>2022-05-29T07:09:45.000Z</time></trkpt><trkpt lon="5.765666" lat="50.947047"><ele>58.2</ele><time>2022-05-29T07:09:46.000Z</time></trkpt><trkpt lon="5.765665" lat="50.947001"><ele>58.2</ele><time>2022-05-29T07:09:47.000Z</time></trkpt><trkpt lon="5.765665" lat="50.946956"><ele>58.2</ele><time>2022-05-29T07:09:48.000Z</time></trkpt><trkpt lon="5.765679" lat="50.946911"><ele>58.2</ele><time>2022-05-29T07:09:49.000Z</time></trkpt><trkpt lon="5.765714" lat="50.946875"><ele>58</ele><time>2022-05-29T07:09:50.000Z</time></trkpt><trkpt lon="5.765767" lat="50.946846"><ele>58</ele><time>2022-05-29T07:09:51.000Z</time></trkpt><trkpt lon="5.765832" lat="50.946829"><ele>58</ele><time>2022-05-29T07:09:52.000Z</time></trkpt><trkpt lon="5.765906" lat="50.946817"><ele>58</ele><time>2022-05-29T07:09:53.000Z</time></trkpt><trkpt lon="5.765989" lat="50.946802"><ele>58</ele><time>2022-05-29T07:09:54.000Z</time></trkpt><trkpt lon="5.766073" lat="50.94679"><ele>58</ele><time>2022-05-29T07:09:55.000Z</time></trkpt><trkpt lon="5.766159" lat="50.94678"><ele>58</ele><time>2022-05-29T07:09:56.000Z</time></trkpt><trkpt lon="5.766246" lat="50.946771"><ele>58</ele><time>2022-05-29T07:09:57.000Z</time></trkpt><trkpt lon="5.766322" lat="50.946754"><ele>58</ele><time>2022-05-29T07:09:58.000Z</time></trkpt><trkpt lon="5.766377" lat="50.946729"><ele>58.2</ele><time>2022-05-29T07:09:59.000Z</time></trkpt><trkpt lon="5.766399" lat="50.946678"><ele>58.2</ele><time>2022-05-29T07:10:00.000Z</time></trkpt><trkpt lon="5.766401" lat="50.946617"><ele>58.4</ele><time>2022-05-29T07:10:01.000Z</time></trkpt><trkpt lon="5.766397" lat="50.946556"><ele>58.6</ele><time>2022-05-29T07:10:02.000Z</time></trkpt><trkpt lon="5.766393" lat="50.946493"><ele>58.8</ele><time>2022-05-29T07:10:03.000Z</time></trkpt><trkpt lon="5.766403" lat="50.946424"><ele>59</ele><time>2022-05-29T07:10:04.000Z</time></trkpt><trkpt lon="5.766426" lat="50.946356"><ele>59.2</ele><time>2022-05-29T07:10:05.000Z</time></trkpt><trkpt lon="5.766464" lat="50.946285"><ele>59.4</ele><time>2022-05-29T07:10:06.000Z</time></trkpt><trkpt lon="5.766518" lat="50.946221"><ele>59.6</ele><time>2022-05-29T07:10:07.000Z</time></trkpt><trkpt lon="5.766579" lat="50.946165"><ele>60</ele><time>2022-05-29T07:10:08.000Z</time></trkpt><trkpt lon="5.766643" lat="50.946112"><ele>60.2</ele><time>2022-05-29T07:10:09.000Z</time></trkpt><trkpt lon="5.76671" lat="50.946063"><ele>60.4</ele><time>2022-05-29T07:10:10.000Z</time></trkpt><trkpt lon="5.766776" lat="50.946017"><ele>60.8</ele><time>2022-05-29T07:10:11.000Z</time></trkpt><trkpt lon="5.766843" lat="50.945972"><ele>61</ele><time>2022-05-29T07:10:12.000Z</time></trkpt><trkpt lon="5.766909" lat="50.94593"><ele>61.2</ele><time>2022-05-29T07:10:13.000Z</time></trkpt><trkpt lon="5.766973" lat="50.945887"><ele>61.4</ele><time>2022-05-29T07:10:14.000Z</time></trkpt><trkpt lon="5.767036" lat="50.945841"><ele>61.6</ele><time>2022-05-29T07:10:15.000Z</time></trkpt><trkpt lon="5.76709" lat="50.945794"><ele>62</ele><time>2022-05-29T07:10:16.000Z</time></trkpt><trkpt lon="5.767132" lat="50.945742"><ele>62.2</ele><time>2022-05-29T07:10:17.000Z</time></trkpt><trkpt lon="5.767162" lat="50.945687"><ele>62.4</ele><time>2022-05-29T07:10:18.000Z</time></trkpt><trkpt lon="5.767181" lat="50.945628"><ele>62.8</ele><time>2022-05-29T07:10:19.000Z</time></trkpt><trkpt lon="5.767196" lat="50.945567"><ele>63</ele><time>2022-05-29T07:10:20.000Z</time></trkpt><trkpt lon="5.767208" lat="50.945507"><ele>63.2</ele><time>2022-05-29T07:10:21.000Z</time></trkpt><trkpt lon="5.767216" lat="50.94545"><ele>63.4</ele><time>2022-05-29T07:10:22.000Z</time></trkpt><trkpt lon="5.767229" lat="50.945385"><ele>63.8</ele><time>2022-05-29T07:10:23.000Z</time></trkpt><trkpt lon="5.767238" lat="50.945325"><ele>63.8</ele><time>2022-05-29T07:10:24.000Z</time></trkpt><trkpt lon="5.767247" lat="50.945264"><ele>64</ele><time>2022-05-29T07:10:25.000Z</time></trkpt><trkpt lon="5.767259" lat="50.945201"><ele>64</ele><time>2022-05-29T07:10:26.000Z</time></trkpt><trkpt lon="5.76727" lat="50.945136"><ele>64.4</ele><time>2022-05-29T07:10:27.000Z</time></trkpt><trkpt lon="5.767282" lat="50.945075"><ele>64.6</ele><time>2022-05-29T07:10:28.000Z</time></trkpt><trkpt lon="5.767293" lat="50.945011"><ele>64.8</ele><time>2022-05-29T07:10:29.000Z</time></trkpt><trkpt lon="5.767302" lat="50.944949"><ele>65</ele><time>2022-05-29T07:10:30.000Z</time></trkpt><trkpt lon="5.767309" lat="50.944885"><ele>65.2</ele><time>2022-05-29T07:10:31.000Z</time></trkpt><trkpt lon="5.767316" lat="50.94482"><ele>65.4</ele><time>2022-05-29T07:10:32.000Z</time></trkpt><trkpt lon="5.76732" lat="50.944759"><ele>65.6</ele><time>2022-05-29T07:10:33.000Z</time></trkpt><trkpt lon="5.767322" lat="50.944697"><ele>65.6</ele><time>2022-05-29T07:10:34.000Z</time></trkpt><trkpt lon="5.767324" lat="50.944633"><ele>65.6</ele><time>2022-05-29T07:10:35.000Z</time></trkpt><trkpt lon="5.767326" lat="50.944573"><ele>65.8</ele><time>2022-05-29T07:10:36.000Z</time></trkpt><trkpt lon="5.767331" lat="50.944515"><ele>66.2</ele><time>2022-05-29T07:10:37.000Z</time></trkpt><trkpt lon="5.767334" lat="50.94446"><ele>66.6</ele><time>2022-05-29T07:10:38.000Z</time></trkpt><trkpt lon="5.767339" lat="50.944407"><ele>66.8</ele><time>2022-05-29T07:10:39.000Z</time></trkpt><trkpt lon="5.767347" lat="50.944352"><ele>67</ele><time>2022-05-29T07:10:40.000Z</time></trkpt><trkpt lon="5.767356" lat="50.944298"><ele>67.2</ele><time>2022-05-29T07:10:41.000Z</time></trkpt><trkpt lon="5.767368" lat="50.944241"><ele>67.4</ele><time>2022-05-29T07:10:42.000Z</time></trkpt><trkpt lon="5.76738" lat="50.944184"><ele>67.4</ele><time>2022-05-29T07:10:43.000Z</time></trkpt><trkpt lon="5.767391" lat="50.944122"><ele>67.4</ele><time>2022-05-29T07:10:44.000Z</time></trkpt><trkpt lon="5.767399" lat="50.944061"><ele>67.4</ele><time>2022-05-29T07:10:45.000Z</time></trkpt><trkpt lon="5.767399" lat="50.943997"><ele>67.4</ele><time>2022-05-29T07:10:46.000Z</time></trkpt><trkpt lon="5.767394" lat="50.94393"><ele>67.4</ele><time>2022-05-29T07:10:47.000Z</time></trkpt><trkpt lon="5.767381" lat="50.943862"><ele>67.2</ele><time>2022-05-29T07:10:48.000Z</time></trkpt><trkpt lon="5.767359" lat="50.943796"><ele>67.2</ele><time>2022-05-29T07:10:49.000Z</time></trkpt><trkpt lon="5.767333" lat="50.94373"><ele>67.2</ele><time>2022-05-29T07:10:50.000Z</time></trkpt><trkpt lon="5.767301" lat="50.943667"><ele>67.2</ele><time>2022-05-29T07:10:51.000Z</time></trkpt><trkpt lon="5.767263" lat="50.943602"><ele>67.2</ele><time>2022-05-29T07:10:52.000Z</time></trkpt><trkpt lon="5.767224" lat="50.943538"><ele>67.2</ele><time>2022-05-29T07:10:53.000Z</time></trkpt><trkpt lon="5.767186" lat="50.943473"><ele>67.2</ele><time>2022-05-29T07:10:54.000Z</time></trkpt><trkpt lon="5.767146" lat="50.943408"><ele>67.2</ele><time>2022-05-29T07:10:55.000Z</time></trkpt><trkpt lon="5.767109" lat="50.943344"><ele>67.2</ele><time>2022-05-29T07:10:56.000Z</time></trkpt><trkpt lon="5.767073" lat="50.943283"><ele>67.2</ele><time>2022-05-29T07:10:57.000Z</time></trkpt><trkpt lon="5.767036" lat="50.943219"><ele>67.2</ele><time>2022-05-29T07:10:58.000Z</time></trkpt><trkpt lon="5.767001" lat="50.943154"><ele>67.4</ele><time>2022-05-29T07:10:59.000Z</time></trkpt><trkpt lon="5.766965" lat="50.943091"><ele>67.4</ele><time>2022-05-29T07:11:00.000Z</time></trkpt><trkpt lon="5.76693" lat="50.943027"><ele>67.4</ele><time>2022-05-29T07:11:01.000Z</time></trkpt><trkpt lon="5.766893" lat="50.942966"><ele>67.6</ele><time>2022-05-29T07:11:02.000Z</time></trkpt><trkpt lon="5.766857" lat="50.942901"><ele>67.6</ele><time>2022-05-29T07:11:03.000Z</time></trkpt><trkpt lon="5.766822" lat="50.942837"><ele>67.6</ele><time>2022-05-29T07:11:04.000Z</time></trkpt><trkpt lon="5.766787" lat="50.942775"><ele>67.8</ele><time>2022-05-29T07:11:05.000Z</time></trkpt><trkpt lon="5.766752" lat="50.942711"><ele>67.8</ele><time>2022-05-29T07:11:06.000Z</time></trkpt><trkpt lon="5.766716" lat="50.942649"><ele>67.8</ele><time>2022-05-29T07:11:07.000Z</time></trkpt><trkpt lon="5.76668" lat="50.942589"><ele>67.8</ele><time>2022-05-29T07:11:08.000Z</time></trkpt><trkpt lon="5.766645" lat="50.942532"><ele>67.8</ele><time>2022-05-29T07:11:09.000Z</time></trkpt><trkpt lon="5.766611" lat="50.942474"><ele>67.6</ele><time>2022-05-29T07:11:10.000Z</time></trkpt><trkpt lon="5.766579" lat="50.942414"><ele>67.8</ele><time>2022-05-29T07:11:11.000Z</time></trkpt><trkpt lon="5.766547" lat="50.942356"><ele>67.8</ele><time>2022-05-29T07:11:12.000Z</time></trkpt><trkpt lon="5.766514" lat="50.942297"><ele>67.8</ele><time>2022-05-29T07:11:13.000Z</time></trkpt><trkpt lon="5.766484" lat="50.942245"><ele>67.8</ele><time>2022-05-29T07:11:14.000Z</time></trkpt><trkpt lon="5.76646" lat="50.942204"><ele>67.8</ele><time>2022-05-29T07:11:15.000Z</time></trkpt><trkpt lon="5.766448" lat="50.94214"><ele>68</ele><time>2022-05-29T07:11:16.000Z</time></trkpt><trkpt lon="5.766467" lat="50.942089"><ele>68</ele><time>2022-05-29T07:11:17.000Z</time></trkpt><trkpt lon="5.766515" lat="50.942047"><ele>68.2</ele><time>2022-05-29T07:11:18.000Z</time></trkpt><trkpt lon="5.766588" lat="50.942009"><ele>68.2</ele><time>2022-05-29T07:11:19.000Z</time></trkpt><trkpt lon="5.766674" lat="50.941971"><ele>68.2</ele><time>2022-05-29T07:11:20.000Z</time></trkpt><trkpt lon="5.76677" lat="50.941934"><ele>68.2</ele><time>2022-05-29T07:11:21.000Z</time></trkpt><trkpt lon="5.76687" lat="50.941899"><ele>68.2</ele><time>2022-05-29T07:11:22.000Z</time></trkpt><trkpt lon="5.766971" lat="50.941861"><ele>68</ele><time>2022-05-29T07:11:23.000Z</time></trkpt><trkpt lon="5.767074" lat="50.941822"><ele>68.2</ele><time>2022-05-29T07:11:24.000Z</time></trkpt><trkpt lon="5.767178" lat="50.941781"><ele>68</ele><time>2022-05-29T07:11:25.000Z</time></trkpt><trkpt lon="5.767287" lat="50.941741"><ele>68</ele><time>2022-05-29T07:11:26.000Z</time></trkpt><trkpt lon="5.767392" lat="50.941699"><ele>68</ele><time>2022-05-29T07:11:27.000Z</time></trkpt><trkpt lon="5.767499" lat="50.941658"><ele>68</ele><time>2022-05-29T07:11:28.000Z</time></trkpt><trkpt lon="5.767604" lat="50.941617"><ele>68</ele><time>2022-05-29T07:11:29.000Z</time></trkpt><trkpt lon="5.76771" lat="50.941578"><ele>68</ele><time>2022-05-29T07:11:30.000Z</time></trkpt><trkpt lon="5.767812" lat="50.941539"><ele>68</ele><time>2022-05-29T07:11:31.000Z</time></trkpt><trkpt lon="5.767913" lat="50.941498"><ele>68</ele><time>2022-05-29T07:11:32.000Z</time></trkpt><trkpt lon="5.768013" lat="50.94146"><ele>68</ele><time>2022-05-29T07:11:33.000Z</time></trkpt><trkpt lon="5.768111" lat="50.941422"><ele>68</ele><time>2022-05-29T07:11:34.000Z</time></trkpt><trkpt lon="5.768207" lat="50.941384"><ele>67.8</ele><time>2022-05-29T07:11:35.000Z</time></trkpt><trkpt lon="5.768301" lat="50.941346"><ele>67.8</ele><time>2022-05-29T07:11:36.000Z</time></trkpt><trkpt lon="5.768394" lat="50.941311"><ele>67.6</ele><time>2022-05-29T07:11:37.000Z</time></trkpt><trkpt lon="5.768482" lat="50.941274"><ele>67.6</ele><time>2022-05-29T07:11:38.000Z</time></trkpt><trkpt lon="5.768573" lat="50.94124"><ele>67.6</ele><time>2022-05-29T07:11:39.000Z</time></trkpt><trkpt lon="5.768666" lat="50.941205"><ele>67.8</ele><time>2022-05-29T07:11:40.000Z</time></trkpt><trkpt lon="5.768758" lat="50.941168"><ele>67.8</ele><time>2022-05-29T07:11:41.000Z</time></trkpt><trkpt lon="5.768853" lat="50.941133"><ele>67.8</ele><time>2022-05-29T07:11:42.000Z</time></trkpt><trkpt lon="5.768944" lat="50.941098"><ele>67.6</ele><time>2022-05-29T07:11:43.000Z</time></trkpt><trkpt lon="5.769034" lat="50.941065"><ele>67.6</ele><time>2022-05-29T07:11:44.000Z</time></trkpt><trkpt lon="5.769121" lat="50.941033"><ele>67.6</ele><time>2022-05-29T07:11:45.000Z</time></trkpt><trkpt lon="5.769204" lat="50.941"><ele>67.6</ele><time>2022-05-29T07:11:46.000Z</time></trkpt><trkpt lon="5.769283" lat="50.940969"><ele>67.6</ele><time>2022-05-29T07:11:47.000Z</time></trkpt><trkpt lon="5.769357" lat="50.940939"><ele>67.6</ele><time>2022-05-29T07:11:48.000Z</time></trkpt><trkpt lon="5.769426" lat="50.94091"><ele>67.6</ele><time>2022-05-29T07:11:49.000Z</time></trkpt><trkpt lon="5.769488" lat="50.940892"><ele>67.6</ele><time>2022-05-29T07:11:50.000Z</time></trkpt><trkpt lon="5.769549" lat="50.94088"><ele>67.4</ele><time>2022-05-29T07:11:51.000Z</time></trkpt><trkpt lon="5.769615" lat="50.940883"><ele>67.4</ele><time>2022-05-29T07:11:52.000Z</time></trkpt><trkpt lon="5.769684" lat="50.940902"><ele>67.2</ele><time>2022-05-29T07:11:53.000Z</time></trkpt><trkpt lon="5.769747" lat="50.940937"><ele>67.2</ele><time>2022-05-29T07:11:54.000Z</time></trkpt><trkpt lon="5.7698" lat="50.940978"><ele>67</ele><time>2022-05-29T07:11:55.000Z</time></trkpt><trkpt lon="5.76986" lat="50.941026"><ele>66.8</ele><time>2022-05-29T07:11:56.000Z</time></trkpt><trkpt lon="5.769921" lat="50.941074"><ele>66.8</ele><time>2022-05-29T07:11:57.000Z</time></trkpt><trkpt lon="5.769991" lat="50.941109"><ele>66.8</ele><time>2022-05-29T07:11:58.000Z</time></trkpt><trkpt lon="5.770075" lat="50.941134"><ele>66.8</ele><time>2022-05-29T07:11:59.000Z</time></trkpt><trkpt lon="5.770162" lat="50.941142"><ele>66.8</ele><time>2022-05-29T07:12:00.000Z</time></trkpt><trkpt lon="5.77025" lat="50.941133"><ele>66.8</ele><time>2022-05-29T07:12:01.000Z</time></trkpt><trkpt lon="5.770334" lat="50.941115"><ele>66.8</ele><time>2022-05-29T07:12:02.000Z</time></trkpt><trkpt lon="5.770413" lat="50.941085"><ele>66.8</ele><time>2022-05-29T07:12:03.000Z</time></trkpt><trkpt lon="5.770489" lat="50.941043"><ele>66.8</ele><time>2022-05-29T07:12:04.000Z</time></trkpt><trkpt lon="5.770562" lat="50.940996"><ele>66.8</ele><time>2022-05-29T07:12:05.000Z</time></trkpt><trkpt lon="5.770631" lat="50.940947"><ele>66.8</ele><time>2022-05-29T07:12:06.000Z</time></trkpt><trkpt lon="5.770699" lat="50.940899"><ele>67</ele><time>2022-05-29T07:12:07.000Z</time></trkpt><trkpt lon="5.770773" lat="50.940847"><ele>67</ele><time>2022-05-29T07:12:08.000Z</time></trkpt><trkpt lon="5.770839" lat="50.940794"><ele>67</ele><time>2022-05-29T07:12:09.000Z</time></trkpt><trkpt lon="5.770906" lat="50.940739"><ele>67</ele><time>2022-05-29T07:12:10.000Z</time></trkpt><trkpt lon="5.77097" lat="50.940682"><ele>67</ele><time>2022-05-29T07:12:11.000Z</time></trkpt><trkpt lon="5.771026" lat="50.94062"><ele>67</ele><time>2022-05-29T07:12:12.000Z</time></trkpt><trkpt lon="5.771077" lat="50.940559"><ele>67</ele><time>2022-05-29T07:12:13.000Z</time></trkpt><trkpt lon="5.771126" lat="50.940498"><ele>67</ele><time>2022-05-29T07:12:14.000Z</time></trkpt><trkpt lon="5.771176" lat="50.940438"><ele>67.2</ele><time>2022-05-29T07:12:15.000Z</time></trkpt><trkpt lon="5.771233" lat="50.940382"><ele>67.2</ele><time>2022-05-29T07:12:16.000Z</time></trkpt><trkpt lon="5.771302" lat="50.940333"><ele>67.4</ele><time>2022-05-29T07:12:17.000Z</time></trkpt><trkpt lon="5.771381" lat="50.940289"><ele>67.4</ele><time>2022-05-29T07:12:18.000Z</time></trkpt><trkpt lon="5.771467" lat="50.940251"><ele>67.4</ele><time>2022-05-29T07:12:19.000Z</time></trkpt><trkpt lon="5.771555" lat="50.940214"><ele>67.6</ele><time>2022-05-29T07:12:20.000Z</time></trkpt><trkpt lon="5.771644" lat="50.940179"><ele>67.6</ele><time>2022-05-29T07:12:21.000Z</time></trkpt><trkpt lon="5.771729" lat="50.940143"><ele>67.8</ele><time>2022-05-29T07:12:22.000Z</time></trkpt><trkpt lon="5.771812" lat="50.940102"><ele>67.8</ele><time>2022-05-29T07:12:23.000Z</time></trkpt><trkpt lon="5.771892" lat="50.940063"><ele>67.8</ele><time>2022-05-29T07:12:24.000Z</time></trkpt><trkpt lon="5.771974" lat="50.940021"><ele>67.8</ele><time>2022-05-29T07:12:25.000Z</time></trkpt><trkpt lon="5.772057" lat="50.93998"><ele>67.8</ele><time>2022-05-29T07:12:26.000Z</time></trkpt><trkpt lon="5.772139" lat="50.939941"><ele>67.8</ele><time>2022-05-29T07:12:27.000Z</time></trkpt><trkpt lon="5.772218" lat="50.939899"><ele>67.8</ele><time>2022-05-29T07:12:28.000Z</time></trkpt><trkpt lon="5.772296" lat="50.939857"><ele>67.8</ele><time>2022-05-29T07:12:29.000Z</time></trkpt><trkpt lon="5.772377" lat="50.939811"><ele>67.8</ele><time>2022-05-29T07:12:30.000Z</time></trkpt><trkpt lon="5.772458" lat="50.939764"><ele>68</ele><time>2022-05-29T07:12:31.000Z</time></trkpt><trkpt lon="5.77254" lat="50.939714"><ele>68</ele><time>2022-05-29T07:12:32.000Z</time></trkpt><trkpt lon="5.772623" lat="50.939665"><ele>68.2</ele><time>2022-05-29T07:12:33.000Z</time></trkpt><trkpt lon="5.772703" lat="50.939616"><ele>68.2</ele><time>2022-05-29T07:12:34.000Z</time></trkpt><trkpt lon="5.772784" lat="50.939569"><ele>68.2</ele><time>2022-05-29T07:12:35.000Z</time></trkpt><trkpt lon="5.772863" lat="50.93952"><ele>68.4</ele><time>2022-05-29T07:12:36.000Z</time></trkpt><trkpt lon="5.772939" lat="50.939472"><ele>68.4</ele><time>2022-05-29T07:12:37.000Z</time></trkpt><trkpt lon="5.773018" lat="50.939425"><ele>68.6</ele><time>2022-05-29T07:12:38.000Z</time></trkpt><trkpt lon="5.773093" lat="50.939378"><ele>68.6</ele><time>2022-05-29T07:12:39.000Z</time></trkpt><trkpt lon="5.773166" lat="50.939326"><ele>68.8</ele><time>2022-05-29T07:12:40.000Z</time></trkpt><trkpt lon="5.773238" lat="50.93928"><ele>68.8</ele><time>2022-05-29T07:12:41.000Z</time></trkpt><trkpt lon="5.773312" lat="50.939231"><ele>69</ele><time>2022-05-29T07:12:42.000Z</time></trkpt><trkpt lon="5.773386" lat="50.939185"><ele>69.2</ele><time>2022-05-29T07:12:43.000Z</time></trkpt><trkpt lon="5.77346" lat="50.939136"><ele>69.2</ele><time>2022-05-29T07:12:44.000Z</time></trkpt><trkpt lon="5.773534" lat="50.93909"><ele>69.4</ele><time>2022-05-29T07:12:45.000Z</time></trkpt><trkpt lon="5.773611" lat="50.939039"><ele>69.4</ele><time>2022-05-29T07:12:46.000Z</time></trkpt><trkpt lon="5.773686" lat="50.93899"><ele>69.4</ele><time>2022-05-29T07:12:47.000Z</time></trkpt><trkpt lon="5.773761" lat="50.938944"><ele>69.4</ele><time>2022-05-29T07:12:48.000Z</time></trkpt><trkpt lon="5.773837" lat="50.938895"><ele>69.4</ele><time>2022-05-29T07:12:49.000Z</time></trkpt><trkpt lon="5.773912" lat="50.938849"><ele>69.6</ele><time>2022-05-29T07:12:50.000Z</time></trkpt><trkpt lon="5.77399" lat="50.9388"><ele>69.6</ele><time>2022-05-29T07:12:51.000Z</time></trkpt><trkpt lon="5.77407" lat="50.938754"><ele>69.6</ele><time>2022-05-29T07:12:52.000Z</time></trkpt><trkpt lon="5.774148" lat="50.938708"><ele>69.8</ele><time>2022-05-29T07:12:53.000Z</time></trkpt><trkpt lon="5.774227" lat="50.938658"><ele>69.8</ele><time>2022-05-29T07:12:54.000Z</time></trkpt><trkpt lon="5.774307" lat="50.938612"><ele>70</ele><time>2022-05-29T07:12:55.000Z</time></trkpt><trkpt lon="5.774389" lat="50.938563"><ele>70</ele><time>2022-05-29T07:12:56.000Z</time></trkpt><trkpt lon="5.77447" lat="50.938519"><ele>70</ele><time>2022-05-29T07:12:57.000Z</time></trkpt><trkpt lon="5.774546" lat="50.938478"><ele>70</ele><time>2022-05-29T07:12:58.000Z</time></trkpt><trkpt lon="5.774613" lat="50.938439"><ele>70.2</ele><time>2022-05-29T07:12:59.000Z</time></trkpt><trkpt lon="5.774703" lat="50.938388"><ele>70.2</ele><time>2022-05-29T07:13:00.000Z</time></trkpt><trkpt lon="5.774776" lat="50.938342"><ele>70.4</ele><time>2022-05-29T07:13:01.000Z</time></trkpt><trkpt lon="5.774853" lat="50.938298"><ele>70.4</ele><time>2022-05-29T07:13:02.000Z</time></trkpt><trkpt lon="5.774925" lat="50.938258"><ele>70.4</ele><time>2022-05-29T07:13:03.000Z</time></trkpt><trkpt lon="5.774997" lat="50.938212"><ele>70.6</ele><time>2022-05-29T07:13:04.000Z</time></trkpt><trkpt lon="5.775071" lat="50.938167"><ele>70.6</ele><time>2022-05-29T07:13:05.000Z</time></trkpt><trkpt lon="5.775149" lat="50.938121"><ele>70.8</ele><time>2022-05-29T07:13:06.000Z</time></trkpt><trkpt lon="5.775228" lat="50.938075"><ele>70.8</ele><time>2022-05-29T07:13:07.000Z</time></trkpt><trkpt lon="5.775306" lat="50.938029"><ele>71</ele><time>2022-05-29T07:13:08.000Z</time></trkpt><trkpt lon="5.775383" lat="50.93798"><ele>71.2</ele><time>2022-05-29T07:13:09.000Z</time></trkpt><trkpt lon="5.775463" lat="50.937934"><ele>71.4</ele><time>2022-05-29T07:13:10.000Z</time></trkpt><trkpt lon="5.775544" lat="50.937888"><ele>71.4</ele><time>2022-05-29T07:13:11.000Z</time></trkpt><trkpt lon="5.775624" lat="50.937841"><ele>71.4</ele><time>2022-05-29T07:13:12.000Z</time></trkpt><trkpt lon="5.775701" lat="50.937793"><ele>71.6</ele><time>2022-05-29T07:13:13.000Z</time></trkpt><trkpt lon="5.775782" lat="50.937747"><ele>71.8</ele><time>2022-05-29T07:13:14.000Z</time></trkpt><trkpt lon="5.775864" lat="50.937702"><ele>71.8</ele><time>2022-05-29T07:13:15.000Z</time></trkpt><trkpt lon="5.775949" lat="50.937659"><ele>71.8</ele><time>2022-05-29T07:13:16.000Z</time></trkpt><trkpt lon="5.776036" lat="50.937618"><ele>72</ele><time>2022-05-29T07:13:17.000Z</time></trkpt><trkpt lon="5.776124" lat="50.937577"><ele>72.2</ele><time>2022-05-29T07:13:18.000Z</time></trkpt><trkpt lon="5.776213" lat="50.937543"><ele>72.4</ele><time>2022-05-29T07:13:19.000Z</time></trkpt><trkpt lon="5.776305" lat="50.93751"><ele>72.6</ele><time>2022-05-29T07:13:20.000Z</time></trkpt><trkpt lon="5.776403" lat="50.937483"><ele>72.6</ele><time>2022-05-29T07:13:21.000Z</time></trkpt><trkpt lon="5.776507" lat="50.937454"><ele>72.6</ele><time>2022-05-29T07:13:22.000Z</time></trkpt><trkpt lon="5.776611" lat="50.937429"><ele>72.6</ele><time>2022-05-29T07:13:23.000Z</time></trkpt><trkpt lon="5.776712" lat="50.937396"><ele>72.6</ele><time>2022-05-29T07:13:24.000Z</time></trkpt><trkpt lon="5.776811" lat="50.937367"><ele>72.8</ele><time>2022-05-29T07:13:25.000Z</time></trkpt><trkpt lon="5.776907" lat="50.937329"><ele>73</ele><time>2022-05-29T07:13:26.000Z</time></trkpt><trkpt lon="5.776999" lat="50.937289"><ele>73</ele><time>2022-05-29T07:13:27.000Z</time></trkpt><trkpt lon="5.777088" lat="50.937244"><ele>73.2</ele><time>2022-05-29T07:13:28.000Z</time></trkpt><trkpt lon="5.777179" lat="50.937203"><ele>73.4</ele><time>2022-05-29T07:13:29.000Z</time></trkpt><trkpt lon="5.777273" lat="50.937166"><ele>73.6</ele><time>2022-05-29T07:13:30.000Z</time></trkpt><trkpt lon="5.777372" lat="50.937136"><ele>73.8</ele><time>2022-05-29T07:13:31.000Z</time></trkpt><trkpt lon="5.777473" lat="50.937107"><ele>73.8</ele><time>2022-05-29T07:13:32.000Z</time></trkpt><trkpt lon="5.777578" lat="50.937084"><ele>74</ele><time>2022-05-29T07:13:33.000Z</time></trkpt><trkpt lon="5.777688" lat="50.937062"><ele>74.2</ele><time>2022-05-29T07:13:34.000Z</time></trkpt><trkpt lon="5.777796" lat="50.937048"><ele>74.4</ele><time>2022-05-29T07:13:35.000Z</time></trkpt><trkpt lon="5.777904" lat="50.93704"><ele>74.6</ele><time>2022-05-29T07:13:36.000Z</time></trkpt><trkpt lon="5.77801" lat="50.937029"><ele>74.8</ele><time>2022-05-29T07:13:37.000Z</time></trkpt><trkpt lon="5.778116" lat="50.937022"><ele>75</ele><time>2022-05-29T07:13:38.000Z</time></trkpt><trkpt lon="5.778223" lat="50.937014"><ele>75.2</ele><time>2022-05-29T07:13:39.000Z</time></trkpt><trkpt lon="5.77833" lat="50.937007"><ele>75.4</ele><time>2022-05-29T07:13:40.000Z</time></trkpt><trkpt lon="5.778434" lat="50.937003"><ele>75.6</ele><time>2022-05-29T07:13:41.000Z</time></trkpt><trkpt lon="5.778537" lat="50.936996"><ele>75.8</ele><time>2022-05-29T07:13:42.000Z</time></trkpt><trkpt lon="5.77864" lat="50.936992"><ele>75.8</ele><time>2022-05-29T07:13:43.000Z</time></trkpt><trkpt lon="5.778741" lat="50.936988"><ele>76</ele><time>2022-05-29T07:13:44.000Z</time></trkpt><trkpt lon="5.778841" lat="50.936984"><ele>76.4</ele><time>2022-05-29T07:13:45.000Z</time></trkpt><trkpt lon="5.778942" lat="50.93698"><ele>76.6</ele><time>2022-05-29T07:13:46.000Z</time></trkpt><trkpt lon="5.77904" lat="50.936977"><ele>76.8</ele><time>2022-05-29T07:13:47.000Z</time></trkpt><trkpt lon="5.779143" lat="50.936974"><ele>77</ele><time>2022-05-29T07:13:48.000Z</time></trkpt><trkpt lon="5.779244" lat="50.936973"><ele>77.2</ele><time>2022-05-29T07:13:49.000Z</time></trkpt><trkpt lon="5.779345" lat="50.93697"><ele>77.4</ele><time>2022-05-29T07:13:50.000Z</time></trkpt><trkpt lon="5.779447" lat="50.93697"><ele>77.6</ele><time>2022-05-29T07:13:51.000Z</time></trkpt><trkpt lon="5.77955" lat="50.93697"><ele>77.8</ele><time>2022-05-29T07:13:52.000Z</time></trkpt><trkpt lon="5.779653" lat="50.936969"><ele>77.8</ele><time>2022-05-29T07:13:53.000Z</time></trkpt><trkpt lon="5.779755" lat="50.936964"><ele>78</ele><time>2022-05-29T07:13:54.000Z</time></trkpt><trkpt lon="5.779856" lat="50.936958"><ele>78.2</ele><time>2022-05-29T07:13:55.000Z</time></trkpt><trkpt lon="5.779958" lat="50.936958"><ele>78.2</ele><time>2022-05-29T07:13:56.000Z</time></trkpt><trkpt lon="5.780063" lat="50.936954"><ele>78.4</ele><time>2022-05-29T07:13:57.000Z</time></trkpt><trkpt lon="5.780168" lat="50.936954"><ele>78.6</ele><time>2022-05-29T07:13:58.000Z</time></trkpt><trkpt lon="5.780274" lat="50.93695"><ele>78.8</ele><time>2022-05-29T07:13:59.000Z</time></trkpt><trkpt lon="5.780379" lat="50.936947"><ele>78.8</ele><time>2022-05-29T07:14:00.000Z</time></trkpt><trkpt lon="5.780484" lat="50.936946"><ele>78.8</ele><time>2022-05-29T07:14:01.000Z</time></trkpt><trkpt lon="5.780591" lat="50.936943"><ele>78.8</ele><time>2022-05-29T07:14:02.000Z</time></trkpt><trkpt lon="5.780694" lat="50.936944"><ele>79</ele><time>2022-05-29T07:14:03.000Z</time></trkpt><trkpt lon="5.780798" lat="50.936948"><ele>79</ele><time>2022-05-29T07:14:04.000Z</time></trkpt><trkpt lon="5.780903" lat="50.936952"><ele>79.2</ele><time>2022-05-29T07:14:05.000Z</time></trkpt><trkpt lon="5.781003" lat="50.93696"><ele>79.4</ele><time>2022-05-29T07:14:06.000Z</time></trkpt><trkpt lon="5.781102" lat="50.936968"><ele>79.6</ele><time>2022-05-29T07:14:07.000Z</time></trkpt><trkpt lon="5.781204" lat="50.93698"><ele>79.6</ele><time>2022-05-29T07:14:08.000Z</time></trkpt><trkpt lon="5.781306" lat="50.936996"><ele>79.6</ele><time>2022-05-29T07:14:09.000Z</time></trkpt><trkpt lon="5.781407" lat="50.937011"><ele>79.8</ele><time>2022-05-29T07:14:10.000Z</time></trkpt><trkpt lon="5.781508" lat="50.937026"><ele>79.8</ele><time>2022-05-29T07:14:11.000Z</time></trkpt><trkpt lon="5.781608" lat="50.937041"><ele>80</ele><time>2022-05-29T07:14:12.000Z</time></trkpt><trkpt lon="5.781709" lat="50.937057"><ele>80.2</ele><time>2022-05-29T07:14:13.000Z</time></trkpt><trkpt lon="5.781805" lat="50.937071"><ele>80.2</ele><time>2022-05-29T07:14:14.000Z</time></trkpt><trkpt lon="5.781902" lat="50.937086"><ele>80.4</ele><time>2022-05-29T07:14:15.000Z</time></trkpt><trkpt lon="5.782009" lat="50.937102"><ele>80.6</ele><time>2022-05-29T07:14:16.000Z</time></trkpt><trkpt lon="5.782109" lat="50.937114"><ele>80.8</ele><time>2022-05-29T07:14:17.000Z</time></trkpt><trkpt lon="5.782211" lat="50.937129"><ele>81</ele><time>2022-05-29T07:14:18.000Z</time></trkpt><trkpt lon="5.782313" lat="50.937144"><ele>81.2</ele><time>2022-05-29T07:14:19.000Z</time></trkpt><trkpt lon="5.782414" lat="50.93716"><ele>81.4</ele><time>2022-05-29T07:14:20.000Z</time></trkpt><trkpt lon="5.782515" lat="50.937179"><ele>81.6</ele><time>2022-05-29T07:14:21.000Z</time></trkpt><trkpt lon="5.782616" lat="50.937194"><ele>81.8</ele><time>2022-05-29T07:14:22.000Z</time></trkpt><trkpt lon="5.782715" lat="50.937208"><ele>82.2</ele><time>2022-05-29T07:14:23.000Z</time></trkpt><trkpt lon="5.782811" lat="50.93722"><ele>82.4</ele><time>2022-05-29T07:14:24.000Z</time></trkpt><trkpt lon="5.782912" lat="50.937235"><ele>82.6</ele><time>2022-05-29T07:14:25.000Z</time></trkpt><trkpt lon="5.783007" lat="50.937247"><ele>82.8</ele><time>2022-05-29T07:14:26.000Z</time></trkpt><trkpt lon="5.783097" lat="50.937262"><ele>83</ele><time>2022-05-29T07:14:27.000Z</time></trkpt><trkpt lon="5.783196" lat="50.937278"><ele>83.2</ele><time>2022-05-29T07:14:28.000Z</time></trkpt><trkpt lon="5.78329" lat="50.937293"><ele>83.6</ele><time>2022-05-29T07:14:29.000Z</time></trkpt><trkpt lon="5.783383" lat="50.937309"><ele>83.8</ele><time>2022-05-29T07:14:30.000Z</time></trkpt><trkpt lon="5.783476" lat="50.937327"><ele>84</ele><time>2022-05-29T07:14:31.000Z</time></trkpt><trkpt lon="5.783568" lat="50.937343"><ele>84.2</ele><time>2022-05-29T07:14:32.000Z</time></trkpt><trkpt lon="5.783656" lat="50.93736"><ele>84.4</ele><time>2022-05-29T07:14:33.000Z</time></trkpt><trkpt lon="5.783759" lat="50.937377"><ele>84.6</ele><time>2022-05-29T07:14:34.000Z</time></trkpt><trkpt lon="5.783852" lat="50.937392"><ele>85</ele><time>2022-05-29T07:14:35.000Z</time></trkpt><trkpt lon="5.783944" lat="50.937407"><ele>85.2</ele><time>2022-05-29T07:14:36.000Z</time></trkpt><trkpt lon="5.784036" lat="50.937424"><ele>85.2</ele><time>2022-05-29T07:14:37.000Z</time></trkpt><trkpt lon="5.784126" lat="50.937442"><ele>85.4</ele><time>2022-05-29T07:14:38.000Z</time></trkpt><trkpt lon="5.784215" lat="50.937461"><ele>85.6</ele><time>2022-05-29T07:14:39.000Z</time></trkpt><trkpt lon="5.784305" lat="50.937478"><ele>85.6</ele><time>2022-05-29T07:14:40.000Z</time></trkpt><trkpt lon="5.784389" lat="50.937501"><ele>85.6</ele><time>2022-05-29T07:14:41.000Z</time></trkpt><trkpt lon="5.78447" lat="50.937524"><ele>85.6</ele><time>2022-05-29T07:14:42.000Z</time></trkpt><trkpt lon="5.784555" lat="50.93755"><ele>85.6</ele><time>2022-05-29T07:14:43.000Z</time></trkpt><trkpt lon="5.784638" lat="50.937574"><ele>85.6</ele><time>2022-05-29T07:14:44.000Z</time></trkpt><trkpt lon="5.784724" lat="50.9376"><ele>85.4</ele><time>2022-05-29T07:14:45.000Z</time></trkpt><trkpt lon="5.784815" lat="50.937622"><ele>85.4</ele><time>2022-05-29T07:14:46.000Z</time></trkpt><trkpt lon="5.784909" lat="50.93764"><ele>85.2</ele><time>2022-05-29T07:14:47.000Z</time></trkpt><trkpt lon="5.785007" lat="50.937653"><ele>85</ele><time>2022-05-29T07:14:48.000Z</time></trkpt><trkpt lon="5.78511" lat="50.937656"><ele>84.8</ele><time>2022-05-29T07:14:49.000Z</time></trkpt><trkpt lon="5.78521" lat="50.937657"><ele>84.8</ele><time>2022-05-29T07:14:50.000Z</time></trkpt><trkpt lon="5.785309" lat="50.93766"><ele>84.8</ele><time>2022-05-29T07:14:51.000Z</time></trkpt><trkpt lon="5.785408" lat="50.93766"><ele>84.8</ele><time>2022-05-29T07:14:52.000Z</time></trkpt><trkpt lon="5.785509" lat="50.93766"><ele>84.8</ele><time>2022-05-29T07:14:53.000Z</time></trkpt><trkpt lon="5.785614" lat="50.93766"><ele>84.8</ele><time>2022-05-29T07:14:54.000Z</time></trkpt><trkpt lon="5.78572" lat="50.93766"><ele>84.8</ele><time>2022-05-29T07:14:55.000Z</time></trkpt><trkpt lon="5.785818" lat="50.937656"><ele>84.6</ele><time>2022-05-29T07:14:56.000Z</time></trkpt><trkpt lon="5.785931" lat="50.93765"><ele>84.6</ele><time>2022-05-29T07:14:57.000Z</time></trkpt><trkpt lon="5.786038" lat="50.937634"><ele>84.6</ele><time>2022-05-29T07:14:58.000Z</time></trkpt><trkpt lon="5.786146" lat="50.93762"><ele>84.4</ele><time>2022-05-29T07:14:59.000Z</time></trkpt><trkpt lon="5.786256" lat="50.937608"><ele>84.4</ele><time>2022-05-29T07:15:00.000Z</time></trkpt><trkpt lon="5.786365" lat="50.937593"><ele>84.4</ele><time>2022-05-29T07:15:01.000Z</time></trkpt><trkpt lon="5.786474" lat="50.937578"><ele>84.4</ele><time>2022-05-29T07:15:02.000Z</time></trkpt><trkpt lon="5.78658" lat="50.937566"><ele>84.4</ele><time>2022-05-29T07:15:03.000Z</time></trkpt><trkpt lon="5.786685" lat="50.937551"><ele>84.4</ele><time>2022-05-29T07:15:04.000Z</time></trkpt><trkpt lon="5.786788" lat="50.93754"><ele>84.2</ele><time>2022-05-29T07:15:05.000Z</time></trkpt><trkpt lon="5.78689" lat="50.937529"><ele>84.2</ele><time>2022-05-29T07:15:06.000Z</time></trkpt><trkpt lon="5.78699" lat="50.937521"><ele>84.2</ele><time>2022-05-29T07:15:07.000Z</time></trkpt><trkpt lon="5.787094" lat="50.93751"><ele>84</ele><time>2022-05-29T07:15:08.000Z</time></trkpt><trkpt lon="5.787198" lat="50.937501"><ele>84</ele><time>2022-05-29T07:15:09.000Z</time></trkpt><trkpt lon="5.7873" lat="50.937486"><ele>84</ele><time>2022-05-29T07:15:10.000Z</time></trkpt><trkpt lon="5.787409" lat="50.93747"><ele>83.8</ele><time>2022-05-29T07:15:11.000Z</time></trkpt><trkpt lon="5.787512" lat="50.937451"><ele>83.6</ele><time>2022-05-29T07:15:12.000Z</time></trkpt><trkpt lon="5.78761" lat="50.937436"><ele>83.4</ele><time>2022-05-29T07:15:13.000Z</time></trkpt><trkpt lon="5.787713" lat="50.937416"><ele>83.4</ele><time>2022-05-29T07:15:14.000Z</time></trkpt><trkpt lon="5.787812" lat="50.937397"><ele>83.2</ele><time>2022-05-29T07:15:15.000Z</time></trkpt><trkpt lon="5.787912" lat="50.937378"><ele>83</ele><time>2022-05-29T07:15:16.000Z</time></trkpt><trkpt lon="5.788009" lat="50.937359"><ele>83</ele><time>2022-05-29T07:15:17.000Z</time></trkpt><trkpt lon="5.788105" lat="50.937341"><ele>82.8</ele><time>2022-05-29T07:15:18.000Z</time></trkpt><trkpt lon="5.788198" lat="50.937325"><ele>82.8</ele><time>2022-05-29T07:15:19.000Z</time></trkpt><trkpt lon="5.788295" lat="50.937312"><ele>82.6</ele><time>2022-05-29T07:15:20.000Z</time></trkpt><trkpt lon="5.788392" lat="50.937305"><ele>82.6</ele><time>2022-05-29T07:15:21.000Z</time></trkpt><trkpt lon="5.788492" lat="50.937302"><ele>82.4</ele><time>2022-05-29T07:15:22.000Z</time></trkpt><trkpt lon="5.788594" lat="50.937303"><ele>82.2</ele><time>2022-05-29T07:15:23.000Z</time></trkpt><trkpt lon="5.788693" lat="50.937311"><ele>82.2</ele><time>2022-05-29T07:15:24.000Z</time></trkpt><trkpt lon="5.78879" lat="50.937318"><ele>82</ele><time>2022-05-29T07:15:25.000Z</time></trkpt><trkpt lon="5.788883" lat="50.937326"><ele>81.8</ele><time>2022-05-29T07:15:26.000Z</time></trkpt><trkpt lon="5.788975" lat="50.937333"><ele>81.8</ele><time>2022-05-29T07:15:27.000Z</time></trkpt><trkpt lon="5.789066" lat="50.937336"><ele>81.8</ele><time>2022-05-29T07:15:28.000Z</time></trkpt><trkpt lon="5.789153" lat="50.937335"><ele>81.8</ele><time>2022-05-29T07:15:29.000Z</time></trkpt><trkpt lon="5.789235" lat="50.937331"><ele>81.6</ele><time>2022-05-29T07:15:30.000Z</time></trkpt><trkpt lon="5.789314" lat="50.937322"><ele>81.6</ele><time>2022-05-29T07:15:31.000Z</time></trkpt><trkpt lon="5.789379" lat="50.937306"><ele>81.4</ele><time>2022-05-29T07:15:32.000Z</time></trkpt><trkpt lon="5.789449" lat="50.937271"><ele>81.4</ele><time>2022-05-29T07:15:33.000Z</time></trkpt><trkpt lon="5.789505" lat="50.937242"><ele>81.4</ele><time>2022-05-29T07:15:34.000Z</time></trkpt><trkpt lon="5.789545" lat="50.937213"><ele>81.4</ele><time>2022-05-29T07:15:35.000Z</time></trkpt><trkpt lon="5.789576" lat="50.937186"><ele>81.2</ele><time>2022-05-29T07:15:36.000Z</time></trkpt><trkpt lon="5.7896" lat="50.93716"><ele>81.2</ele><time>2022-05-29T07:15:37.000Z</time></trkpt><trkpt lon="5.789619" lat="50.937137"><ele>81.2</ele><time>2022-05-29T07:15:38.000Z</time></trkpt><trkpt lon="5.789642" lat="50.937113"><ele>81.2</ele><time>2022-05-29T07:15:39.000Z</time></trkpt><trkpt lon="5.789673" lat="50.937087"><ele>81.2</ele><time>2022-05-29T07:15:40.000Z</time></trkpt><trkpt lon="5.789712" lat="50.937064"><ele>81</ele><time>2022-05-29T07:15:41.000Z</time></trkpt><trkpt lon="5.789762" lat="50.937037"><ele>81</ele><time>2022-05-29T07:15:42.000Z</time></trkpt><trkpt lon="5.789816" lat="50.93701"><ele>80.8</ele><time>2022-05-29T07:15:43.000Z</time></trkpt><trkpt lon="5.789866" lat="50.936983"><ele>80.6</ele><time>2022-05-29T07:15:44.000Z</time></trkpt><trkpt lon="5.789917" lat="50.936952"><ele>80.4</ele><time>2022-05-29T07:15:45.000Z</time></trkpt><trkpt lon="5.789972" lat="50.936921"><ele>80.2</ele><time>2022-05-29T07:15:46.000Z</time></trkpt><trkpt lon="5.790032" lat="50.936888"><ele>79.8</ele><time>2022-05-29T07:15:47.000Z</time></trkpt><trkpt lon="5.790095" lat="50.93686"><ele>79.6</ele><time>2022-05-29T07:15:48.000Z</time></trkpt><trkpt lon="5.79016" lat="50.936823"><ele>79.2</ele><time>2022-05-29T07:15:49.000Z</time></trkpt><trkpt lon="5.790221" lat="50.936795"><ele>78.8</ele><time>2022-05-29T07:15:50.000Z</time></trkpt><trkpt lon="5.79028" lat="50.936759"><ele>78.6</ele><time>2022-05-29T07:15:51.000Z</time></trkpt><trkpt lon="5.790331" lat="50.936711"><ele>78.2</ele><time>2022-05-29T07:15:52.000Z</time></trkpt><trkpt lon="5.790367" lat="50.936656"><ele>77.8</ele><time>2022-05-29T07:15:53.000Z</time></trkpt><trkpt lon="5.790378" lat="50.936597"><ele>77.6</ele><time>2022-05-29T07:15:54.000Z</time></trkpt><trkpt lon="5.790363" lat="50.936543"><ele>77.4</ele><time>2022-05-29T07:15:55.000Z</time></trkpt><trkpt lon="5.790329" lat="50.936487"><ele>77.2</ele><time>2022-05-29T07:15:56.000Z</time></trkpt><trkpt lon="5.79028" lat="50.936434"><ele>77.2</ele><time>2022-05-29T07:15:57.000Z</time></trkpt><trkpt lon="5.790246" lat="50.936387"><ele>77.2</ele><time>2022-05-29T07:15:58.000Z</time></trkpt><trkpt lon="5.790185" lat="50.936332"><ele>77.2</ele><time>2022-05-29T07:15:59.000Z</time></trkpt><trkpt lon="5.790135" lat="50.936288"><ele>77.2</ele><time>2022-05-29T07:16:00.000Z</time></trkpt><trkpt lon="5.790089" lat="50.936242"><ele>77.2</ele><time>2022-05-29T07:16:01.000Z</time></trkpt><trkpt lon="5.790051" lat="50.936206"><ele>77.4</ele><time>2022-05-29T07:16:02.000Z</time></trkpt><trkpt lon="5.790024" lat="50.936179"><ele>77.4</ele><time>2022-05-29T07:16:03.000Z</time></trkpt><trkpt lon="5.790012" lat="50.936157"><ele>77.6</ele><time>2022-05-29T07:16:04.000Z</time></trkpt><trkpt lon="5.790011" lat="50.936141"><ele>77.6</ele><time>2022-05-29T07:16:05.000Z</time></trkpt><trkpt lon="5.790022" lat="50.936135"><ele>77.8</ele><time>2022-05-29T07:16:06.000Z</time></trkpt><trkpt lon="5.790039" lat="50.93614"><ele>77.8</ele><time>2022-05-29T07:16:07.000Z</time></trkpt><trkpt lon="5.790049" lat="50.936152"><ele>77.8</ele><time>2022-05-29T07:16:08.000Z</time></trkpt><trkpt lon="5.790063" lat="50.936168"><ele>77.8</ele><time>2022-05-29T07:16:09.000Z</time></trkpt><trkpt lon="5.790077" lat="50.936191"><ele>77.8</ele><time>2022-05-29T07:16:10.000Z</time></trkpt><trkpt lon="5.790089" lat="50.93621"><ele>77.8</ele><time>2022-05-29T07:16:11.000Z</time></trkpt><trkpt lon="5.790105" lat="50.936226"><ele>77.8</ele><time>2022-05-29T07:16:12.000Z</time></trkpt><trkpt lon="5.790124" lat="50.936246"><ele>77.6</ele><time>2022-05-29T07:16:13.000Z</time></trkpt><trkpt lon="5.790145" lat="50.936268"><ele>77.6</ele><time>2022-05-29T07:16:14.000Z</time></trkpt><trkpt lon="5.790176" lat="50.936286"><ele>77.6</ele><time>2022-05-29T07:16:15.000Z</time></trkpt><trkpt lon="5.790216" lat="50.936299"><ele>77.6</ele><time>2022-05-29T07:16:16.000Z</time></trkpt><trkpt lon="5.790262" lat="50.9363"><ele>77.4</ele><time>2022-05-29T07:16:17.000Z</time></trkpt><trkpt lon="5.790306" lat="50.936287"><ele>77.4</ele><time>2022-05-29T07:16:18.000Z</time></trkpt><trkpt lon="5.790348" lat="50.936269"><ele>77.2</ele><time>2022-05-29T07:16:19.000Z</time></trkpt><trkpt lon="5.790388" lat="50.936252"><ele>77.2</ele><time>2022-05-29T07:16:20.000Z</time></trkpt><trkpt lon="5.790432" lat="50.93623"><ele>77</ele><time>2022-05-29T07:16:21.000Z</time></trkpt><trkpt lon="5.790477" lat="50.93621"><ele>77</ele><time>2022-05-29T07:16:22.000Z</time></trkpt><trkpt lon="5.790525" lat="50.936188"><ele>76.8</ele><time>2022-05-29T07:16:23.000Z</time></trkpt><trkpt lon="5.790567" lat="50.936168"><ele>76.8</ele><time>2022-05-29T07:16:24.000Z</time></trkpt><trkpt lon="5.790623" lat="50.936146"><ele>76.6</ele><time>2022-05-29T07:16:25.000Z</time></trkpt><trkpt lon="5.790664" lat="50.936127"><ele>76.6</ele><time>2022-05-29T07:16:26.000Z</time></trkpt><trkpt lon="5.790721" lat="50.936101"><ele>76.6</ele><time>2022-05-29T07:16:27.000Z</time></trkpt><trkpt lon="5.790769" lat="50.936081"><ele>76.4</ele><time>2022-05-29T07:16:28.000Z</time></trkpt><trkpt lon="5.790839" lat="50.936058"><ele>76.2</ele><time>2022-05-29T07:16:29.000Z</time></trkpt><trkpt lon="5.790905" lat="50.93604"><ele>76.2</ele><time>2022-05-29T07:16:30.000Z</time></trkpt><trkpt lon="5.790986" lat="50.936025"><ele>76</ele><time>2022-05-29T07:16:31.000Z</time></trkpt><trkpt lon="5.791072" lat="50.936015"><ele>76</ele><time>2022-05-29T07:16:32.000Z</time></trkpt><trkpt lon="5.791163" lat="50.936012"><ele>75.8</ele><time>2022-05-29T07:16:33.000Z</time></trkpt><trkpt lon="5.791256" lat="50.936014"><ele>75.8</ele><time>2022-05-29T07:16:34.000Z</time></trkpt><trkpt lon="5.791348" lat="50.936022"><ele>75.6</ele><time>2022-05-29T07:16:35.000Z</time></trkpt><trkpt lon="5.791439" lat="50.936034"><ele>75.6</ele><time>2022-05-29T07:16:36.000Z</time></trkpt><trkpt lon="5.791531" lat="50.93605"><ele>75.4</ele><time>2022-05-29T07:16:37.000Z</time></trkpt><trkpt lon="5.79163" lat="50.936064"><ele>75.4</ele><time>2022-05-29T07:16:38.000Z</time></trkpt><trkpt lon="5.791729" lat="50.936077"><ele>75.4</ele><time>2022-05-29T07:16:39.000Z</time></trkpt><trkpt lon="5.791825" lat="50.936096"><ele>75.4</ele><time>2022-05-29T07:16:40.000Z</time></trkpt><trkpt lon="5.791918" lat="50.936114"><ele>75.4</ele><time>2022-05-29T07:16:41.000Z</time></trkpt><trkpt lon="5.792009" lat="50.936129"><ele>75.6</ele><time>2022-05-29T07:16:42.000Z</time></trkpt><trkpt lon="5.792099" lat="50.936139"><ele>75.8</ele><time>2022-05-29T07:16:43.000Z</time></trkpt><trkpt lon="5.79219" lat="50.936143"><ele>76</ele><time>2022-05-29T07:16:44.000Z</time></trkpt><trkpt lon="5.792277" lat="50.936146"><ele>76.2</ele><time>2022-05-29T07:16:45.000Z</time></trkpt><trkpt lon="5.792364" lat="50.93615"><ele>76.2</ele><time>2022-05-29T07:16:46.000Z</time></trkpt><trkpt lon="5.792458" lat="50.936153"><ele>76.4</ele><time>2022-05-29T07:16:47.000Z</time></trkpt><trkpt lon="5.792551" lat="50.936149"><ele>76.6</ele><time>2022-05-29T07:16:48.000Z</time></trkpt><trkpt lon="5.792637" lat="50.936146"><ele>77</ele><time>2022-05-29T07:16:49.000Z</time></trkpt><trkpt lon="5.792718" lat="50.936146"><ele>77.2</ele><time>2022-05-29T07:16:50.000Z</time></trkpt><trkpt lon="5.792802" lat="50.93615"><ele>77.4</ele><time>2022-05-29T07:16:51.000Z</time></trkpt><trkpt lon="5.792891" lat="50.936155"><ele>77.6</ele><time>2022-05-29T07:16:52.000Z</time></trkpt><trkpt lon="5.792985" lat="50.936162"><ele>78</ele><time>2022-05-29T07:16:53.000Z</time></trkpt><trkpt lon="5.793077" lat="50.936166"><ele>78.2</ele><time>2022-05-29T07:16:54.000Z</time></trkpt><trkpt lon="5.79317" lat="50.936169"><ele>78.4</ele><time>2022-05-29T07:16:55.000Z</time></trkpt><trkpt lon="5.793267" lat="50.936173"><ele>78.6</ele><time>2022-05-29T07:16:56.000Z</time></trkpt><trkpt lon="5.79337" lat="50.936176"><ele>78.8</ele><time>2022-05-29T07:16:57.000Z</time></trkpt><trkpt lon="5.793467" lat="50.936176"><ele>79</ele><time>2022-05-29T07:16:58.000Z</time></trkpt><trkpt lon="5.793566" lat="50.936175"><ele>79</ele><time>2022-05-29T07:16:59.000Z</time></trkpt><trkpt lon="5.793665" lat="50.936166"><ele>79.2</ele><time>2022-05-29T07:17:00.000Z</time></trkpt><trkpt lon="5.793765" lat="50.936154"><ele>79.2</ele><time>2022-05-29T07:17:01.000Z</time></trkpt><trkpt lon="5.79386" lat="50.936135"><ele>79.4</ele><time>2022-05-29T07:17:02.000Z</time></trkpt><trkpt lon="5.793954" lat="50.936115"><ele>79.6</ele><time>2022-05-29T07:17:03.000Z</time></trkpt><trkpt lon="5.794037" lat="50.936094"><ele>79.8</ele><time>2022-05-29T07:17:04.000Z</time></trkpt><trkpt lon="5.794135" lat="50.936065"><ele>80</ele><time>2022-05-29T07:17:05.000Z</time></trkpt><trkpt lon="5.794219" lat="50.936038"><ele>80.4</ele><time>2022-05-29T07:17:06.000Z</time></trkpt><trkpt lon="5.7943" lat="50.936011"><ele>80.6</ele><time>2022-05-29T07:17:07.000Z</time></trkpt><trkpt lon="5.794382" lat="50.935985"><ele>81</ele><time>2022-05-29T07:17:08.000Z</time></trkpt><trkpt lon="5.794463" lat="50.935959"><ele>81.2</ele><time>2022-05-29T07:17:09.000Z</time></trkpt><trkpt lon="5.794552" lat="50.935935"><ele>81.4</ele><time>2022-05-29T07:17:10.000Z</time></trkpt><trkpt lon="5.794638" lat="50.935913"><ele>81.6</ele><time>2022-05-29T07:17:11.000Z</time></trkpt><trkpt lon="5.794726" lat="50.935895"><ele>81.8</ele><time>2022-05-29T07:17:12.000Z</time></trkpt><trkpt lon="5.79482" lat="50.93588"><ele>82.2</ele><time>2022-05-29T07:17:13.000Z</time></trkpt><trkpt lon="5.794913" lat="50.935866"><ele>82.2</ele><time>2022-05-29T07:17:14.000Z</time></trkpt><trkpt lon="5.795005" lat="50.935858"><ele>82.4</ele><time>2022-05-29T07:17:15.000Z</time></trkpt><trkpt lon="5.795097" lat="50.935848"><ele>82.6</ele><time>2022-05-29T07:17:16.000Z</time></trkpt><trkpt lon="5.795188" lat="50.935844"><ele>82.6</ele><time>2022-05-29T07:17:17.000Z</time></trkpt><trkpt lon="5.795285" lat="50.935841"><ele>82.8</ele><time>2022-05-29T07:17:18.000Z</time></trkpt><trkpt lon="5.795379" lat="50.935841"><ele>83</ele><time>2022-05-29T07:17:19.000Z</time></trkpt><trkpt lon="5.795473" lat="50.935841"><ele>83</ele><time>2022-05-29T07:17:20.000Z</time></trkpt><trkpt lon="5.795566" lat="50.935845"><ele>83.2</ele><time>2022-05-29T07:17:21.000Z</time></trkpt><trkpt lon="5.795659" lat="50.935849"><ele>83.2</ele><time>2022-05-29T07:17:22.000Z</time></trkpt><trkpt lon="5.79575" lat="50.935853"><ele>83.2</ele><time>2022-05-29T07:17:23.000Z</time></trkpt><trkpt lon="5.795842" lat="50.935861"><ele>83.2</ele><time>2022-05-29T07:17:24.000Z</time></trkpt><trkpt lon="5.795931" lat="50.935869"><ele>83.2</ele><time>2022-05-29T07:17:25.000Z</time></trkpt><trkpt lon="5.796026" lat="50.935877"><ele>83.2</ele><time>2022-05-29T07:17:26.000Z</time></trkpt><trkpt lon="5.796121" lat="50.935888"><ele>83.2</ele><time>2022-05-29T07:17:27.000Z</time></trkpt><trkpt lon="5.79622" lat="50.935901"><ele>83</ele><time>2022-05-29T07:17:28.000Z</time></trkpt><trkpt lon="5.796318" lat="50.935916"><ele>82.8</ele><time>2022-05-29T07:17:29.000Z</time></trkpt><trkpt lon="5.796413" lat="50.935932"><ele>82.6</ele><time>2022-05-29T07:17:30.000Z</time></trkpt><trkpt lon="5.796505" lat="50.935951"><ele>82.2</ele><time>2022-05-29T07:17:31.000Z</time></trkpt><trkpt lon="5.796589" lat="50.935969"><ele>81.8</ele><time>2022-05-29T07:17:32.000Z</time></trkpt><trkpt lon="5.796674" lat="50.935984"><ele>81.4</ele><time>2022-05-29T07:17:33.000Z</time></trkpt><trkpt lon="5.79675" lat="50.935995"><ele>81</ele><time>2022-05-29T07:17:34.000Z</time></trkpt><trkpt lon="5.796817" lat="50.936006"><ele>80.6</ele><time>2022-05-29T07:17:35.000Z</time></trkpt><trkpt lon="5.796881" lat="50.936014"><ele>80</ele><time>2022-05-29T07:17:36.000Z</time></trkpt><trkpt lon="5.796939" lat="50.936025"><ele>79.6</ele><time>2022-05-29T07:17:37.000Z</time></trkpt><trkpt lon="5.796998" lat="50.936033"><ele>79.4</ele><time>2022-05-29T07:17:38.000Z</time></trkpt><trkpt lon="5.797047" lat="50.93604"><ele>79</ele><time>2022-05-29T07:17:39.000Z</time></trkpt><trkpt lon="5.797094" lat="50.936043"><ele>78.8</ele><time>2022-05-29T07:17:40.000Z</time></trkpt><trkpt lon="5.79713" lat="50.936047"><ele>78.6</ele><time>2022-05-29T07:17:41.000Z</time></trkpt><trkpt lon="5.79718" lat="50.936047"><ele>78.4</ele><time>2022-05-29T07:17:42.000Z</time></trkpt><trkpt lon="5.797232" lat="50.936053"><ele>78.2</ele><time>2022-05-29T07:17:43.000Z</time></trkpt><trkpt lon="5.797295" lat="50.936066"><ele>78.2</ele><time>2022-05-29T07:17:44.000Z</time></trkpt><trkpt lon="5.797368" lat="50.936084"><ele>78</ele><time>2022-05-29T07:17:45.000Z</time></trkpt><trkpt lon="5.797452" lat="50.936106"><ele>78</ele><time>2022-05-29T07:17:46.000Z</time></trkpt><trkpt lon="5.797546" lat="50.936135"><ele>78</ele><time>2022-05-29T07:17:47.000Z</time></trkpt><trkpt lon="5.797641" lat="50.936157"><ele>78</ele><time>2022-05-29T07:17:48.000Z</time></trkpt><trkpt lon="5.797739" lat="50.936176"><ele>78.2</ele><time>2022-05-29T07:17:49.000Z</time></trkpt><trkpt lon="5.797837" lat="50.936194"><ele>78.4</ele><time>2022-05-29T07:17:50.000Z</time></trkpt><trkpt lon="5.797937" lat="50.936204"><ele>78.6</ele><time>2022-05-29T07:17:51.000Z</time></trkpt><trkpt lon="5.798034" lat="50.936213"><ele>79</ele><time>2022-05-29T07:17:52.000Z</time></trkpt><trkpt lon="5.79813" lat="50.936224"><ele>79.2</ele><time>2022-05-29T07:17:53.000Z</time></trkpt><trkpt lon="5.798227" lat="50.936231"><ele>79.4</ele><time>2022-05-29T07:17:54.000Z</time></trkpt><trkpt lon="5.798325" lat="50.936239"><ele>79.4</ele><time>2022-05-29T07:17:55.000Z</time></trkpt><trkpt lon="5.798418" lat="50.936246"><ele>79.6</ele><time>2022-05-29T07:17:56.000Z</time></trkpt><trkpt lon="5.798519" lat="50.936249"><ele>79.6</ele><time>2022-05-29T07:17:57.000Z</time></trkpt><trkpt lon="5.798625" lat="50.936252"><ele>79.4</ele><time>2022-05-29T07:17:58.000Z</time></trkpt><trkpt lon="5.798729" lat="50.936248"><ele>79.4</ele><time>2022-05-29T07:17:59.000Z</time></trkpt><trkpt lon="5.798837" lat="50.936244"><ele>79.2</ele><time>2022-05-29T07:18:00.000Z</time></trkpt><trkpt lon="5.798948" lat="50.936237"><ele>78.8</ele><time>2022-05-29T07:18:01.000Z</time></trkpt><trkpt lon="5.799053" lat="50.936232"><ele>78.6</ele><time>2022-05-29T07:18:02.000Z</time></trkpt><trkpt lon="5.799157" lat="50.936225"><ele>78.4</ele><time>2022-05-29T07:18:03.000Z</time></trkpt><trkpt lon="5.799263" lat="50.936217"><ele>78.2</ele><time>2022-05-29T07:18:04.000Z</time></trkpt><trkpt lon="5.79936" lat="50.936209"><ele>78.2</ele><time>2022-05-29T07:18:05.000Z</time></trkpt><trkpt lon="5.799451" lat="50.936201"><ele>78</ele><time>2022-05-29T07:18:06.000Z</time></trkpt><trkpt lon="5.799537" lat="50.936189"><ele>78</ele><time>2022-05-29T07:18:07.000Z</time></trkpt><trkpt lon="5.799615" lat="50.936177"><ele>77.8</ele><time>2022-05-29T07:18:08.000Z</time></trkpt><trkpt lon="5.79969" lat="50.936157"><ele>77.8</ele><time>2022-05-29T07:18:09.000Z</time></trkpt><trkpt lon="5.799764" lat="50.93613"><ele>77.8</ele><time>2022-05-29T07:18:10.000Z</time></trkpt><trkpt lon="5.799841" lat="50.93611"><ele>77.6</ele><time>2022-05-29T07:18:11.000Z</time></trkpt><trkpt lon="5.799905" lat="50.936101"><ele>77.4</ele><time>2022-05-29T07:18:12.000Z</time></trkpt><trkpt lon="5.800027" lat="50.936086"><ele>77.4</ele><time>2022-05-29T07:18:13.000Z</time></trkpt><trkpt lon="5.800123" lat="50.936073"><ele>77.4</ele><time>2022-05-29T07:18:14.000Z</time></trkpt><trkpt lon="5.800217" lat="50.936054"><ele>77.6</ele><time>2022-05-29T07:18:15.000Z</time></trkpt><trkpt lon="5.800309" lat="50.93603"><ele>77.6</ele><time>2022-05-29T07:18:16.000Z</time></trkpt><trkpt lon="5.800397" lat="50.936003"><ele>77.8</ele><time>2022-05-29T07:18:17.000Z</time></trkpt><trkpt lon="5.800481" lat="50.935973"><ele>78</ele><time>2022-05-29T07:18:18.000Z</time></trkpt><trkpt lon="5.800563" lat="50.935946"><ele>78.2</ele><time>2022-05-29T07:18:19.000Z</time></trkpt><trkpt lon="5.800639" lat="50.935919"><ele>78.4</ele><time>2022-05-29T07:18:20.000Z</time></trkpt><trkpt lon="5.800712" lat="50.935893"><ele>78.6</ele><time>2022-05-29T07:18:21.000Z</time></trkpt><trkpt lon="5.800785" lat="50.93587"><ele>78.6</ele><time>2022-05-29T07:18:22.000Z</time></trkpt><trkpt lon="5.800852" lat="50.935845"><ele>78.8</ele><time>2022-05-29T07:18:23.000Z</time></trkpt><trkpt lon="5.800915" lat="50.935826"><ele>78.8</ele><time>2022-05-29T07:18:24.000Z</time></trkpt><trkpt lon="5.800979" lat="50.935805"><ele>79</ele><time>2022-05-29T07:18:25.000Z</time></trkpt><trkpt lon="5.801042" lat="50.93578"><ele>79</ele><time>2022-05-29T07:18:26.000Z</time></trkpt><trkpt lon="5.801111" lat="50.93576"><ele>79.2</ele><time>2022-05-29T07:18:27.000Z</time></trkpt><trkpt lon="5.801183" lat="50.935736"><ele>79.2</ele><time>2022-05-29T07:18:28.000Z</time></trkpt><trkpt lon="5.801255" lat="50.935709"><ele>79.4</ele><time>2022-05-29T07:18:29.000Z</time></trkpt><trkpt lon="5.801331" lat="50.935683"><ele>79.4</ele><time>2022-05-29T07:18:30.000Z</time></trkpt><trkpt lon="5.801413" lat="50.93566"><ele>79.6</ele><time>2022-05-29T07:18:31.000Z</time></trkpt><trkpt lon="5.801498" lat="50.935633"><ele>79.6</ele><time>2022-05-29T07:18:32.000Z</time></trkpt><trkpt lon="5.801584" lat="50.935606"><ele>79.6</ele><time>2022-05-29T07:18:33.000Z</time></trkpt><trkpt lon="5.801673" lat="50.935575"><ele>79.8</ele><time>2022-05-29T07:18:34.000Z</time></trkpt><trkpt lon="5.801761" lat="50.935545"><ele>79.8</ele><time>2022-05-29T07:18:35.000Z</time></trkpt><trkpt lon="5.801846" lat="50.935516"><ele>79.8</ele><time>2022-05-29T07:18:36.000Z</time></trkpt><trkpt lon="5.801942" lat="50.935484"><ele>80</ele><time>2022-05-29T07:18:37.000Z</time></trkpt><trkpt lon="5.802033" lat="50.935455"><ele>80</ele><time>2022-05-29T07:18:38.000Z</time></trkpt><trkpt lon="5.802126" lat="50.935426"><ele>80</ele><time>2022-05-29T07:18:39.000Z</time></trkpt><trkpt lon="5.802214" lat="50.935393"><ele>80</ele><time>2022-05-29T07:18:40.000Z</time></trkpt><trkpt lon="5.802301" lat="50.935366"><ele>80.2</ele><time>2022-05-29T07:18:41.000Z</time></trkpt><trkpt lon="5.802384" lat="50.935338"><ele>80.4</ele><time>2022-05-29T07:18:42.000Z</time></trkpt><trkpt lon="5.802468" lat="50.935305"><ele>80.6</ele><time>2022-05-29T07:18:43.000Z</time></trkpt><trkpt lon="5.802557" lat="50.935275"><ele>80.6</ele><time>2022-05-29T07:18:44.000Z</time></trkpt><trkpt lon="5.802645" lat="50.935248"><ele>80.8</ele><time>2022-05-29T07:18:45.000Z</time></trkpt><trkpt lon="5.802731" lat="50.935217"><ele>81</ele><time>2022-05-29T07:18:46.000Z</time></trkpt><trkpt lon="5.802815" lat="50.935187"><ele>81.2</ele><time>2022-05-29T07:18:47.000Z</time></trkpt><trkpt lon="5.802904" lat="50.935161"><ele>81.2</ele><time>2022-05-29T07:18:48.000Z</time></trkpt><trkpt lon="5.802989" lat="50.935134"><ele>81.2</ele><time>2022-05-29T07:18:49.000Z</time></trkpt><trkpt lon="5.803074" lat="50.935108"><ele>81.2</ele><time>2022-05-29T07:18:50.000Z</time></trkpt><trkpt lon="5.803158" lat="50.935085"><ele>81.4</ele><time>2022-05-29T07:18:51.000Z</time></trkpt><trkpt lon="5.803235" lat="50.935062"><ele>81.4</ele><time>2022-05-29T07:18:52.000Z</time></trkpt><trkpt lon="5.80331" lat="50.935039"><ele>81.6</ele><time>2022-05-29T07:18:53.000Z</time></trkpt><trkpt lon="5.803387" lat="50.935016"><ele>81.6</ele><time>2022-05-29T07:18:54.000Z</time></trkpt><trkpt lon="5.80347" lat="50.934993"><ele>81.8</ele><time>2022-05-29T07:18:55.000Z</time></trkpt><trkpt lon="5.803557" lat="50.93497"><ele>81.8</ele><time>2022-05-29T07:18:56.000Z</time></trkpt><trkpt lon="5.803648" lat="50.934949"><ele>82</ele><time>2022-05-29T07:18:57.000Z</time></trkpt><trkpt lon="5.803739" lat="50.934933"><ele>82</ele><time>2022-05-29T07:18:58.000Z</time></trkpt><trkpt lon="5.803836" lat="50.934913"><ele>82</ele><time>2022-05-29T07:18:59.000Z</time></trkpt><trkpt lon="5.803934" lat="50.93489"><ele>82</ele><time>2022-05-29T07:19:00.000Z</time></trkpt><trkpt lon="5.804033" lat="50.934866"><ele>82</ele><time>2022-05-29T07:19:01.000Z</time></trkpt><trkpt lon="5.804123" lat="50.934839"><ele>82</ele><time>2022-05-29T07:19:02.000Z</time></trkpt><trkpt lon="5.804207" lat="50.93481"><ele>82.2</ele><time>2022-05-29T07:19:03.000Z</time></trkpt><trkpt lon="5.804282" lat="50.934788"><ele>82.2</ele><time>2022-05-29T07:19:04.000Z</time></trkpt><trkpt lon="5.804394" lat="50.934761"><ele>82.4</ele><time>2022-05-29T07:19:05.000Z</time></trkpt><trkpt lon="5.804489" lat="50.934739"><ele>82.4</ele><time>2022-05-29T07:19:06.000Z</time></trkpt><trkpt lon="5.804584" lat="50.93472"><ele>82.6</ele><time>2022-05-29T07:19:07.000Z</time></trkpt><trkpt lon="5.804684" lat="50.9347"><ele>82.8</ele><time>2022-05-29T07:19:08.000Z</time></trkpt><trkpt lon="5.804784" lat="50.934681"><ele>82.8</ele><time>2022-05-29T07:19:09.000Z</time></trkpt><trkpt lon="5.80488" lat="50.934657"><ele>82.8</ele><time>2022-05-29T07:19:10.000Z</time></trkpt><trkpt lon="5.804977" lat="50.93463"><ele>83</ele><time>2022-05-29T07:19:11.000Z</time></trkpt><trkpt lon="5.805074" lat="50.934603"><ele>83</ele><time>2022-05-29T07:19:12.000Z</time></trkpt><trkpt lon="5.805168" lat="50.934576"><ele>83.2</ele><time>2022-05-29T07:19:13.000Z</time></trkpt><trkpt lon="5.80526" lat="50.934545"><ele>83.4</ele><time>2022-05-29T07:19:14.000Z</time></trkpt><trkpt lon="5.80535" lat="50.934515"><ele>83.4</ele><time>2022-05-29T07:19:15.000Z</time></trkpt><trkpt lon="5.805442" lat="50.934485"><ele>83.6</ele><time>2022-05-29T07:19:16.000Z</time></trkpt><trkpt lon="5.805531" lat="50.934458"><ele>83.8</ele><time>2022-05-29T07:19:17.000Z</time></trkpt><trkpt lon="5.805618" lat="50.934427"><ele>83.8</ele><time>2022-05-29T07:19:18.000Z</time></trkpt><trkpt lon="5.8057" lat="50.934395"><ele>84</ele><time>2022-05-29T07:19:19.000Z</time></trkpt><trkpt lon="5.805775" lat="50.934357"><ele>84.2</ele><time>2022-05-29T07:19:20.000Z</time></trkpt><trkpt lon="5.805845" lat="50.934318"><ele>84.6</ele><time>2022-05-29T07:19:21.000Z</time></trkpt><trkpt lon="5.80591" lat="50.934275"><ele>84.8</ele><time>2022-05-29T07:19:22.000Z</time></trkpt><trkpt lon="5.805969" lat="50.93423"><ele>85</ele><time>2022-05-29T07:19:23.000Z</time></trkpt><trkpt lon="5.806024" lat="50.934185"><ele>85.2</ele><time>2022-05-29T07:19:24.000Z</time></trkpt><trkpt lon="5.806079" lat="50.934142"><ele>85.4</ele><time>2022-05-29T07:19:25.000Z</time></trkpt><trkpt lon="5.806135" lat="50.934096"><ele>85.8</ele><time>2022-05-29T07:19:26.000Z</time></trkpt><trkpt lon="5.806191" lat="50.934047"><ele>86.2</ele><time>2022-05-29T07:19:27.000Z</time></trkpt><trkpt lon="5.806249" lat="50.933997"><ele>86.4</ele><time>2022-05-29T07:19:28.000Z</time></trkpt><trkpt lon="5.806307" lat="50.933952"><ele>86.8</ele><time>2022-05-29T07:19:29.000Z</time></trkpt><trkpt lon="5.806363" lat="50.933906"><ele>87</ele><time>2022-05-29T07:19:30.000Z</time></trkpt><trkpt lon="5.806418" lat="50.933856"><ele>87.4</ele><time>2022-05-29T07:19:31.000Z</time></trkpt><trkpt lon="5.806476" lat="50.933811"><ele>87.6</ele><time>2022-05-29T07:19:32.000Z</time></trkpt><trkpt lon="5.806532" lat="50.933768"><ele>88</ele><time>2022-05-29T07:19:33.000Z</time></trkpt><trkpt lon="5.806588" lat="50.933722"><ele>88.2</ele><time>2022-05-29T07:19:34.000Z</time></trkpt><trkpt lon="5.806646" lat="50.933677"><ele>88.6</ele><time>2022-05-29T07:19:35.000Z</time></trkpt><trkpt lon="5.806702" lat="50.933635"><ele>88.8</ele><time>2022-05-29T07:19:36.000Z</time></trkpt><trkpt lon="5.806762" lat="50.933589"><ele>89.2</ele><time>2022-05-29T07:19:37.000Z</time></trkpt><trkpt lon="5.806819" lat="50.933543"><ele>89.6</ele><time>2022-05-29T07:19:38.000Z</time></trkpt><trkpt lon="5.806872" lat="50.933498"><ele>89.8</ele><time>2022-05-29T07:19:39.000Z</time></trkpt><trkpt lon="5.806914" lat="50.933457"><ele>90.2</ele><time>2022-05-29T07:19:40.000Z</time></trkpt><trkpt lon="5.806952" lat="50.933409"><ele>90.4</ele><time>2022-05-29T07:19:41.000Z</time></trkpt><trkpt lon="5.806976" lat="50.93336"><ele>90.8</ele><time>2022-05-29T07:19:42.000Z</time></trkpt><trkpt lon="5.806991" lat="50.93331"><ele>91</ele><time>2022-05-29T07:19:43.000Z</time></trkpt><trkpt lon="5.806999" lat="50.93326"><ele>91.4</ele><time>2022-05-29T07:19:44.000Z</time></trkpt><trkpt lon="5.807013" lat="50.93321"><ele>91.6</ele><time>2022-05-29T07:19:45.000Z</time></trkpt><trkpt lon="5.807026" lat="50.933157"><ele>92</ele><time>2022-05-29T07:19:46.000Z</time></trkpt><trkpt lon="5.807032" lat="50.933108"><ele>92.2</ele><time>2022-05-29T07:19:47.000Z</time></trkpt><trkpt lon="5.807042" lat="50.933062"><ele>92.6</ele><time>2022-05-29T07:19:48.000Z</time></trkpt><trkpt lon="5.807053" lat="50.933014"><ele>93</ele><time>2022-05-29T07:19:49.000Z</time></trkpt><trkpt lon="5.807059" lat="50.932969"><ele>93.4</ele><time>2022-05-29T07:19:50.000Z</time></trkpt><trkpt lon="5.807061" lat="50.932924"><ele>93.8</ele><time>2022-05-29T07:19:51.000Z</time></trkpt><trkpt lon="5.807066" lat="50.932875"><ele>94.2</ele><time>2022-05-29T07:19:52.000Z</time></trkpt><trkpt lon="5.807071" lat="50.932826"><ele>94.6</ele><time>2022-05-29T07:19:53.000Z</time></trkpt><trkpt lon="5.807078" lat="50.932776"><ele>95</ele><time>2022-05-29T07:19:54.000Z</time></trkpt><trkpt lon="5.807093" lat="50.932727"><ele>95.4</ele><time>2022-05-29T07:19:55.000Z</time></trkpt><trkpt lon="5.807113" lat="50.93268"><ele>95.8</ele><time>2022-05-29T07:19:56.000Z</time></trkpt><trkpt lon="5.807132" lat="50.932626"><ele>96.2</ele><time>2022-05-29T07:19:57.000Z</time></trkpt><trkpt lon="5.807151" lat="50.932573"><ele>96.6</ele><time>2022-05-29T07:19:58.000Z</time></trkpt><trkpt lon="5.807174" lat="50.932524"><ele>97</ele><time>2022-05-29T07:19:59.000Z</time></trkpt><trkpt lon="5.807197" lat="50.932474"><ele>97.4</ele><time>2022-05-29T07:20:00.000Z</time></trkpt><trkpt lon="5.807225" lat="50.932422"><ele>97.8</ele><time>2022-05-29T07:20:01.000Z</time></trkpt><trkpt lon="5.807256" lat="50.932376"><ele>98.2</ele><time>2022-05-29T07:20:02.000Z</time></trkpt><trkpt lon="5.807288" lat="50.932331"><ele>98.4</ele><time>2022-05-29T07:20:03.000Z</time></trkpt><trkpt lon="5.807321" lat="50.932289"><ele>98.8</ele><time>2022-05-29T07:20:04.000Z</time></trkpt><trkpt lon="5.807361" lat="50.932247"><ele>99</ele><time>2022-05-29T07:20:05.000Z</time></trkpt><trkpt lon="5.807399" lat="50.93221"><ele>99.4</ele><time>2022-05-29T07:20:06.000Z</time></trkpt><trkpt lon="5.807438" lat="50.932173"><ele>99.6</ele><time>2022-05-29T07:20:07.000Z</time></trkpt><trkpt lon="5.807481" lat="50.932135"><ele>99.8</ele><time>2022-05-29T07:20:08.000Z</time></trkpt><trkpt lon="5.807524" lat="50.932096"><ele>100</ele><time>2022-05-29T07:20:09.000Z</time></trkpt><trkpt lon="5.807567" lat="50.932061"><ele>100.2</ele><time>2022-05-29T07:20:10.000Z</time></trkpt><trkpt lon="5.80761" lat="50.932026"><ele>100.4</ele><time>2022-05-29T07:20:11.000Z</time></trkpt><trkpt lon="5.807653" lat="50.931988"><ele>100.4</ele><time>2022-05-29T07:20:12.000Z</time></trkpt><trkpt lon="5.807694" lat="50.931951"><ele>100.8</ele><time>2022-05-29T07:20:13.000Z</time></trkpt><trkpt lon="5.807732" lat="50.931916"><ele>101</ele><time>2022-05-29T07:20:14.000Z</time></trkpt><trkpt lon="5.807771" lat="50.931878"><ele>101.2</ele><time>2022-05-29T07:20:15.000Z</time></trkpt><trkpt lon="5.807811" lat="50.931844"><ele>101.4</ele><time>2022-05-29T07:20:16.000Z</time></trkpt><trkpt lon="5.80785" lat="50.931809"><ele>101.6</ele><time>2022-05-29T07:20:17.000Z</time></trkpt><trkpt lon="5.807891" lat="50.931775"><ele>101.8</ele><time>2022-05-29T07:20:18.000Z</time></trkpt><trkpt lon="5.807932" lat="50.931742"><ele>102.2</ele><time>2022-05-29T07:20:19.000Z</time></trkpt><trkpt lon="5.807968" lat="50.931711"><ele>102.4</ele><time>2022-05-29T07:20:20.000Z</time></trkpt><trkpt lon="5.808011" lat="50.931681"><ele>102.8</ele><time>2022-05-29T07:20:21.000Z</time></trkpt><trkpt lon="5.808055" lat="50.931655"><ele>103.2</ele><time>2022-05-29T07:20:22.000Z</time></trkpt><trkpt lon="5.808096" lat="50.931632"><ele>103.4</ele><time>2022-05-29T07:20:23.000Z</time></trkpt><trkpt lon="5.808136" lat="50.931606"><ele>103.6</ele><time>2022-05-29T07:20:24.000Z</time></trkpt><trkpt lon="5.808177" lat="50.931583"><ele>103.8</ele><time>2022-05-29T07:20:25.000Z</time></trkpt><trkpt lon="5.808224" lat="50.931559"><ele>104</ele><time>2022-05-29T07:20:26.000Z</time></trkpt><trkpt lon="5.808268" lat="50.931532"><ele>104</ele><time>2022-05-29T07:20:27.000Z</time></trkpt><trkpt lon="5.808312" lat="50.931506"><ele>104</ele><time>2022-05-29T07:20:28.000Z</time></trkpt><trkpt lon="5.808359" lat="50.931479"><ele>104.2</ele><time>2022-05-29T07:20:29.000Z</time></trkpt><trkpt lon="5.808407" lat="50.931452"><ele>104.2</ele><time>2022-05-29T07:20:30.000Z</time></trkpt><trkpt lon="5.808456" lat="50.931422"><ele>104.2</ele><time>2022-05-29T07:20:31.000Z</time></trkpt><trkpt lon="5.808507" lat="50.931395"><ele>104.2</ele><time>2022-05-29T07:20:32.000Z</time></trkpt><trkpt lon="5.808558" lat="50.931369"><ele>104.2</ele><time>2022-05-29T07:20:33.000Z</time></trkpt><trkpt lon="5.808605" lat="50.931345"><ele>104.2</ele><time>2022-05-29T07:20:34.000Z</time></trkpt><trkpt lon="5.808647" lat="50.931315"><ele>104.4</ele><time>2022-05-29T07:20:35.000Z</time></trkpt><trkpt lon="5.808686" lat="50.931289"><ele>104.4</ele><time>2022-05-29T07:20:36.000Z</time></trkpt><trkpt lon="5.808726" lat="50.931266"><ele>104.6</ele><time>2022-05-29T07:20:37.000Z</time></trkpt><trkpt lon="5.808767" lat="50.931243"><ele>104.8</ele><time>2022-05-29T07:20:38.000Z</time></trkpt><trkpt lon="5.80881" lat="50.931217"><ele>105</ele><time>2022-05-29T07:20:39.000Z</time></trkpt><trkpt lon="5.808853" lat="50.931194"><ele>105.2</ele><time>2022-05-29T07:20:40.000Z</time></trkpt><trkpt lon="5.808898" lat="50.93117"><ele>105.4</ele><time>2022-05-29T07:20:41.000Z</time></trkpt><trkpt lon="5.808944" lat="50.931144"><ele>105.6</ele><time>2022-05-29T07:20:42.000Z</time></trkpt><trkpt lon="5.808989" lat="50.931121"><ele>105.8</ele><time>2022-05-29T07:20:43.000Z</time></trkpt><trkpt lon="5.809035" lat="50.931098"><ele>106.2</ele><time>2022-05-29T07:20:44.000Z</time></trkpt><trkpt lon="5.809078" lat="50.931071"><ele>106.4</ele><time>2022-05-29T07:20:45.000Z</time></trkpt><trkpt lon="5.809118" lat="50.931044"><ele>106.6</ele><time>2022-05-29T07:20:46.000Z</time></trkpt><trkpt lon="5.809159" lat="50.931014"><ele>106.8</ele><time>2022-05-29T07:20:47.000Z</time></trkpt><trkpt lon="5.809201" lat="50.930987"><ele>107</ele><time>2022-05-29T07:20:48.000Z</time></trkpt><trkpt lon="5.809243" lat="50.930959"><ele>107.2</ele><time>2022-05-29T07:20:49.000Z</time></trkpt><trkpt lon="5.809283" lat="50.930928"><ele>107.4</ele><time>2022-05-29T07:20:50.000Z</time></trkpt><trkpt lon="5.809323" lat="50.930895"><ele>107.4</ele><time>2022-05-29T07:20:51.000Z</time></trkpt><trkpt lon="5.809362" lat="50.930864"><ele>107.6</ele><time>2022-05-29T07:20:52.000Z</time></trkpt><trkpt lon="5.809405" lat="50.93083"><ele>107.8</ele><time>2022-05-29T07:20:53.000Z</time></trkpt><trkpt lon="5.809447" lat="50.930799"><ele>108</ele><time>2022-05-29T07:20:54.000Z</time></trkpt><trkpt lon="5.809486" lat="50.930765"><ele>108.2</ele><time>2022-05-29T07:20:55.000Z</time></trkpt><trkpt lon="5.80953" lat="50.930735"><ele>108.4</ele><time>2022-05-29T07:20:56.000Z</time></trkpt><trkpt lon="5.809574" lat="50.930704"><ele>108.4</ele><time>2022-05-29T07:20:57.000Z</time></trkpt><trkpt lon="5.809617" lat="50.93067"><ele>108.6</ele><time>2022-05-29T07:20:58.000Z</time></trkpt><trkpt lon="5.809658" lat="50.930639"><ele>108.8</ele><time>2022-05-29T07:20:59.000Z</time></trkpt><trkpt lon="5.8097" lat="50.930608"><ele>108.8</ele><time>2022-05-29T07:21:00.000Z</time></trkpt><trkpt lon="5.809742" lat="50.930575"><ele>108.8</ele><time>2022-05-29T07:21:01.000Z</time></trkpt><trkpt lon="5.809786" lat="50.930544"><ele>109</ele><time>2022-05-29T07:21:02.000Z</time></trkpt><trkpt lon="5.809832" lat="50.93051"><ele>109.2</ele><time>2022-05-29T07:21:03.000Z</time></trkpt><trkpt lon="5.809875" lat="50.930479"><ele>109.2</ele><time>2022-05-29T07:21:04.000Z</time></trkpt><trkpt lon="5.809923" lat="50.930445"><ele>109.2</ele><time>2022-05-29T07:21:05.000Z</time></trkpt><trkpt lon="5.809972" lat="50.930414"><ele>109.2</ele><time>2022-05-29T07:21:06.000Z</time></trkpt><trkpt lon="5.81002" lat="50.930383"><ele>109.2</ele><time>2022-05-29T07:21:07.000Z</time></trkpt><trkpt lon="5.810066" lat="50.930355"><ele>109.2</ele><time>2022-05-29T07:21:08.000Z</time></trkpt><trkpt lon="5.810109" lat="50.930332"><ele>109.2</ele><time>2022-05-29T07:21:09.000Z</time></trkpt><trkpt lon="5.810157" lat="50.930311"><ele>109.2</ele><time>2022-05-29T07:21:10.000Z</time></trkpt><trkpt lon="5.810206" lat="50.9303"><ele>109.2</ele><time>2022-05-29T07:21:11.000Z</time></trkpt><trkpt lon="5.810257" lat="50.930288"><ele>109.2</ele><time>2022-05-29T07:21:12.000Z</time></trkpt><trkpt lon="5.81031" lat="50.930271"><ele>109.2</ele><time>2022-05-29T07:21:13.000Z</time></trkpt><trkpt lon="5.810362" lat="50.930249"><ele>109.2</ele><time>2022-05-29T07:21:14.000Z</time></trkpt><trkpt lon="5.810408" lat="50.930233"><ele>109</ele><time>2022-05-29T07:21:15.000Z</time></trkpt><trkpt lon="5.810451" lat="50.930211"><ele>109</ele><time>2022-05-29T07:21:16.000Z</time></trkpt><trkpt lon="5.810498" lat="50.930191"><ele>109</ele><time>2022-05-29T07:21:17.000Z</time></trkpt><trkpt lon="5.810552" lat="50.930174"><ele>109</ele><time>2022-05-29T07:21:18.000Z</time></trkpt><trkpt lon="5.810614" lat="50.930163"><ele>109</ele><time>2022-05-29T07:21:19.000Z</time></trkpt><trkpt lon="5.810683" lat="50.930155"><ele>109</ele><time>2022-05-29T07:21:20.000Z</time></trkpt><trkpt lon="5.810756" lat="50.930143"><ele>109.2</ele><time>2022-05-29T07:21:21.000Z</time></trkpt><trkpt lon="5.810828" lat="50.930131"><ele>109.2</ele><time>2022-05-29T07:21:22.000Z</time></trkpt><trkpt lon="5.810903" lat="50.930115"><ele>109.4</ele><time>2022-05-29T07:21:23.000Z</time></trkpt><trkpt lon="5.810977" lat="50.930096"><ele>109.4</ele><time>2022-05-29T07:21:24.000Z</time></trkpt><trkpt lon="5.811053" lat="50.930078"><ele>109.4</ele><time>2022-05-29T07:21:25.000Z</time></trkpt><trkpt lon="5.811133" lat="50.930062"><ele>109.6</ele><time>2022-05-29T07:21:26.000Z</time></trkpt><trkpt lon="5.811215" lat="50.930043"><ele>109.8</ele><time>2022-05-29T07:21:27.000Z</time></trkpt><trkpt lon="5.811299" lat="50.930028"><ele>109.8</ele><time>2022-05-29T07:21:28.000Z</time></trkpt><trkpt lon="5.811385" lat="50.930014"><ele>110</ele><time>2022-05-29T07:21:29.000Z</time></trkpt><trkpt lon="5.811472" lat="50.930001"><ele>110</ele><time>2022-05-29T07:21:30.000Z</time></trkpt><trkpt lon="5.811556" lat="50.929986"><ele>110.2</ele><time>2022-05-29T07:21:31.000Z</time></trkpt><trkpt lon="5.811642" lat="50.929971"><ele>110.2</ele><time>2022-05-29T07:21:32.000Z</time></trkpt><trkpt lon="5.811728" lat="50.929956"><ele>110.2</ele><time>2022-05-29T07:21:33.000Z</time></trkpt><trkpt lon="5.811815" lat="50.92994"><ele>110.4</ele><time>2022-05-29T07:21:34.000Z</time></trkpt><trkpt lon="5.8119" lat="50.929921"><ele>110.4</ele><time>2022-05-29T07:21:35.000Z</time></trkpt><trkpt lon="5.811988" lat="50.929902"><ele>110.4</ele><time>2022-05-29T07:21:36.000Z</time></trkpt><trkpt lon="5.812076" lat="50.929883"><ele>110.6</ele><time>2022-05-29T07:21:37.000Z</time></trkpt><trkpt lon="5.812165" lat="50.929863"><ele>110.6</ele><time>2022-05-29T07:21:38.000Z</time></trkpt><trkpt lon="5.812255" lat="50.92984"><ele>110.6</ele><time>2022-05-29T07:21:39.000Z</time></trkpt><trkpt lon="5.812346" lat="50.929818"><ele>110.8</ele><time>2022-05-29T07:21:40.000Z</time></trkpt><trkpt lon="5.812438" lat="50.929799"><ele>111</ele><time>2022-05-29T07:21:41.000Z</time></trkpt><trkpt lon="5.812529" lat="50.92978"><ele>111</ele><time>2022-05-29T07:21:42.000Z</time></trkpt><trkpt lon="5.812624" lat="50.92976"><ele>111.2</ele><time>2022-05-29T07:21:43.000Z</time></trkpt><trkpt lon="5.812716" lat="50.929741"><ele>111.2</ele><time>2022-05-29T07:21:44.000Z</time></trkpt><trkpt lon="5.812812" lat="50.929723"><ele>111.2</ele><time>2022-05-29T07:21:45.000Z</time></trkpt><trkpt lon="5.812907" lat="50.929708"><ele>111.4</ele><time>2022-05-29T07:21:46.000Z</time></trkpt><trkpt lon="5.813005" lat="50.929697"><ele>111.4</ele><time>2022-05-29T07:21:47.000Z</time></trkpt><trkpt lon="5.813101" lat="50.929686"><ele>111.4</ele><time>2022-05-29T07:21:48.000Z</time></trkpt><trkpt lon="5.813197" lat="50.929678"><ele>111.4</ele><time>2022-05-29T07:21:49.000Z</time></trkpt><trkpt lon="5.813296" lat="50.929667"><ele>111.6</ele><time>2022-05-29T07:21:50.000Z</time></trkpt><trkpt lon="5.813395" lat="50.929659"><ele>111.4</ele><time>2022-05-29T07:21:51.000Z</time></trkpt><trkpt lon="5.813492" lat="50.929651"><ele>111.4</ele><time>2022-05-29T07:21:52.000Z</time></trkpt><trkpt lon="5.813591" lat="50.92964"><ele>111.4</ele><time>2022-05-29T07:21:53.000Z</time></trkpt><trkpt lon="5.813693" lat="50.929633"><ele>111.4</ele><time>2022-05-29T07:21:54.000Z</time></trkpt><trkpt lon="5.813797" lat="50.929624"><ele>111.4</ele><time>2022-05-29T07:21:55.000Z</time></trkpt><trkpt lon="5.813897" lat="50.929614"><ele>111.4</ele><time>2022-05-29T07:21:56.000Z</time></trkpt><trkpt lon="5.813997" lat="50.92961"><ele>111.6</ele><time>2022-05-29T07:21:57.000Z</time></trkpt><trkpt lon="5.814101" lat="50.929601"><ele>111.6</ele><time>2022-05-29T07:21:58.000Z</time></trkpt><trkpt lon="5.814201" lat="50.929591"><ele>111.6</ele><time>2022-05-29T07:21:59.000Z</time></trkpt><trkpt lon="5.814302" lat="50.929583"><ele>111.6</ele><time>2022-05-29T07:22:00.000Z</time></trkpt><trkpt lon="5.814402" lat="50.92957"><ele>111.6</ele><time>2022-05-29T07:22:01.000Z</time></trkpt><trkpt lon="5.814502" lat="50.929555"><ele>111.6</ele><time>2022-05-29T07:22:02.000Z</time></trkpt><trkpt lon="5.814601" lat="50.929541"><ele>111.6</ele><time>2022-05-29T07:22:03.000Z</time></trkpt><trkpt lon="5.814701" lat="50.929529"><ele>111.6</ele><time>2022-05-29T07:22:04.000Z</time></trkpt><trkpt lon="5.8148" lat="50.929513"><ele>111.6</ele><time>2022-05-29T07:22:05.000Z</time></trkpt><trkpt lon="5.814897" lat="50.929498"><ele>111.6</ele><time>2022-05-29T07:22:06.000Z</time></trkpt><trkpt lon="5.814998" lat="50.929483"><ele>111.8</ele><time>2022-05-29T07:22:07.000Z</time></trkpt><trkpt lon="5.815099" lat="50.929467"><ele>111.8</ele><time>2022-05-29T07:22:08.000Z</time></trkpt><trkpt lon="5.815195" lat="50.929453"><ele>112</ele><time>2022-05-29T07:22:09.000Z</time></trkpt><trkpt lon="5.815299" lat="50.929437"><ele>112</ele><time>2022-05-29T07:22:10.000Z</time></trkpt><trkpt lon="5.815401" lat="50.929422"><ele>112</ele><time>2022-05-29T07:22:11.000Z</time></trkpt><trkpt lon="5.815503" lat="50.929406"><ele>112.2</ele><time>2022-05-29T07:22:12.000Z</time></trkpt><trkpt lon="5.815606" lat="50.929391"><ele>112.2</ele><time>2022-05-29T07:22:13.000Z</time></trkpt><trkpt lon="5.815709" lat="50.929375"><ele>112.2</ele><time>2022-05-29T07:22:14.000Z</time></trkpt><trkpt lon="5.815813" lat="50.929357"><ele>112.2</ele><time>2022-05-29T07:22:15.000Z</time></trkpt><trkpt lon="5.815914" lat="50.929341"><ele>112.2</ele><time>2022-05-29T07:22:16.000Z</time></trkpt><trkpt lon="5.816015" lat="50.929323"><ele>112.4</ele><time>2022-05-29T07:22:17.000Z</time></trkpt><trkpt lon="5.816118" lat="50.929307"><ele>112.6</ele><time>2022-05-29T07:22:18.000Z</time></trkpt><trkpt lon="5.816219" lat="50.929288"><ele>112.6</ele><time>2022-05-29T07:22:19.000Z</time></trkpt><trkpt lon="5.816315" lat="50.929269"><ele>112.6</ele><time>2022-05-29T07:22:20.000Z</time></trkpt><trkpt lon="5.816411" lat="50.929247"><ele>112.8</ele><time>2022-05-29T07:22:21.000Z</time></trkpt><trkpt lon="5.816516" lat="50.929226"><ele>113</ele><time>2022-05-29T07:22:22.000Z</time></trkpt><trkpt lon="5.816618" lat="50.929203"><ele>113</ele><time>2022-05-29T07:22:23.000Z</time></trkpt><trkpt lon="5.816722" lat="50.929184"><ele>113.2</ele><time>2022-05-29T07:22:24.000Z</time></trkpt><trkpt lon="5.816826" lat="50.929165"><ele>113.4</ele><time>2022-05-29T07:22:25.000Z</time></trkpt><trkpt lon="5.816929" lat="50.929145"><ele>113.4</ele><time>2022-05-29T07:22:26.000Z</time></trkpt><trkpt lon="5.817032" lat="50.929124"><ele>113.4</ele><time>2022-05-29T07:22:27.000Z</time></trkpt><trkpt lon="5.817137" lat="50.929104"><ele>113.6</ele><time>2022-05-29T07:22:28.000Z</time></trkpt><trkpt lon="5.81724" lat="50.929085"><ele>113.6</ele><time>2022-05-29T07:22:29.000Z</time></trkpt><trkpt lon="5.817341" lat="50.929066"><ele>113.6</ele><time>2022-05-29T07:22:30.000Z</time></trkpt><trkpt lon="5.817442" lat="50.929043"><ele>113.8</ele><time>2022-05-29T07:22:31.000Z</time></trkpt><trkpt lon="5.817539" lat="50.929019"><ele>113.8</ele><time>2022-05-29T07:22:32.000Z</time></trkpt><trkpt lon="5.817636" lat="50.928992"><ele>114</ele><time>2022-05-29T07:22:33.000Z</time></trkpt><trkpt lon="5.817732" lat="50.928966"><ele>114</ele><time>2022-05-29T07:22:34.000Z</time></trkpt><trkpt lon="5.817829" lat="50.928939"><ele>114</ele><time>2022-05-29T07:22:35.000Z</time></trkpt><trkpt lon="5.817925" lat="50.928912"><ele>114</ele><time>2022-05-29T07:22:36.000Z</time></trkpt><trkpt lon="5.818017" lat="50.928885"><ele>114</ele><time>2022-05-29T07:22:37.000Z</time></trkpt><trkpt lon="5.818111" lat="50.928855"><ele>114</ele><time>2022-05-29T07:22:38.000Z</time></trkpt><trkpt lon="5.8182" lat="50.928825"><ele>114.2</ele><time>2022-05-29T07:22:39.000Z</time></trkpt><trkpt lon="5.818276" lat="50.928799"><ele>114.2</ele><time>2022-05-29T07:22:40.000Z</time></trkpt><trkpt lon="5.818381" lat="50.928759"><ele>114.2</ele><time>2022-05-29T07:22:41.000Z</time></trkpt><trkpt lon="5.818471" lat="50.928724"><ele>114.4</ele><time>2022-05-29T07:22:42.000Z</time></trkpt><trkpt lon="5.818559" lat="50.928689"><ele>114.4</ele><time>2022-05-29T07:22:43.000Z</time></trkpt><trkpt lon="5.818647" lat="50.928652"><ele>114.6</ele><time>2022-05-29T07:22:44.000Z</time></trkpt><trkpt lon="5.818736" lat="50.928617"><ele>114.6</ele><time>2022-05-29T07:22:45.000Z</time></trkpt><trkpt lon="5.818825" lat="50.928578"><ele>114.8</ele><time>2022-05-29T07:22:46.000Z</time></trkpt><trkpt lon="5.818914" lat="50.92854"><ele>114.8</ele><time>2022-05-29T07:22:47.000Z</time></trkpt><trkpt lon="5.819004" lat="50.928502"><ele>115</ele><time>2022-05-29T07:22:48.000Z</time></trkpt><trkpt lon="5.819089" lat="50.928465"><ele>115</ele><time>2022-05-29T07:22:49.000Z</time></trkpt><trkpt lon="5.81918" lat="50.928426"><ele>115</ele><time>2022-05-29T07:22:50.000Z</time></trkpt><trkpt lon="5.819267" lat="50.928388"><ele>115.2</ele><time>2022-05-29T07:22:51.000Z</time></trkpt><trkpt lon="5.819357" lat="50.92835"><ele>115.2</ele><time>2022-05-29T07:22:52.000Z</time></trkpt><trkpt lon="5.819445" lat="50.928312"><ele>115.4</ele><time>2022-05-29T07:22:53.000Z</time></trkpt><trkpt lon="5.819535" lat="50.928274"><ele>115.4</ele><time>2022-05-29T07:22:54.000Z</time></trkpt><trkpt lon="5.819625" lat="50.928235"><ele>115.4</ele><time>2022-05-29T07:22:55.000Z</time></trkpt><trkpt lon="5.819715" lat="50.928193"><ele>115.4</ele><time>2022-05-29T07:22:56.000Z</time></trkpt><trkpt lon="5.819808" lat="50.928155"><ele>115.4</ele><time>2022-05-29T07:22:57.000Z</time></trkpt><trkpt lon="5.819898" lat="50.928116"><ele>115.4</ele><time>2022-05-29T07:22:58.000Z</time></trkpt><trkpt lon="5.819989" lat="50.928075"><ele>115.6</ele><time>2022-05-29T07:22:59.000Z</time></trkpt><trkpt lon="5.820078" lat="50.928036"><ele>115.6</ele><time>2022-05-29T07:23:00.000Z</time></trkpt><trkpt lon="5.820168" lat="50.927995"><ele>115.8</ele><time>2022-05-29T07:23:01.000Z</time></trkpt><trkpt lon="5.820257" lat="50.927957"><ele>115.8</ele><time>2022-05-29T07:23:02.000Z</time></trkpt><trkpt lon="5.820349" lat="50.927918"><ele>115.8</ele><time>2022-05-29T07:23:03.000Z</time></trkpt><trkpt lon="5.82044" lat="50.927877"><ele>116</ele><time>2022-05-29T07:23:04.000Z</time></trkpt><trkpt lon="5.82053" lat="50.927839"><ele>116</ele><time>2022-05-29T07:23:05.000Z</time></trkpt><trkpt lon="5.820619" lat="50.927801"><ele>116</ele><time>2022-05-29T07:23:06.000Z</time></trkpt><trkpt lon="5.820711" lat="50.927763"><ele>116</ele><time>2022-05-29T07:23:07.000Z</time></trkpt><trkpt lon="5.820801" lat="50.927728"><ele>116.2</ele><time>2022-05-29T07:23:08.000Z</time></trkpt><trkpt lon="5.820894" lat="50.927694"><ele>116.2</ele><time>2022-05-29T07:23:09.000Z</time></trkpt><trkpt lon="5.820985" lat="50.927661"><ele>116.2</ele><time>2022-05-29T07:23:10.000Z</time></trkpt><trkpt lon="5.821074" lat="50.92763"><ele>116.2</ele><time>2022-05-29T07:23:11.000Z</time></trkpt><trkpt lon="5.821169" lat="50.927592"><ele>116.2</ele><time>2022-05-29T07:23:12.000Z</time></trkpt><trkpt lon="5.82126" lat="50.927561"><ele>116.4</ele><time>2022-05-29T07:23:13.000Z</time></trkpt><trkpt lon="5.821353" lat="50.927528"><ele>116.6</ele><time>2022-05-29T07:23:14.000Z</time></trkpt><trkpt lon="5.821446" lat="50.927501"><ele>116.6</ele><time>2022-05-29T07:23:15.000Z</time></trkpt><trkpt lon="5.821537" lat="50.927474"><ele>116.8</ele><time>2022-05-29T07:23:16.000Z</time></trkpt><trkpt lon="5.821628" lat="50.927444"><ele>117</ele><time>2022-05-29T07:23:17.000Z</time></trkpt><trkpt lon="5.821722" lat="50.927417"><ele>117</ele><time>2022-05-29T07:23:18.000Z</time></trkpt><trkpt lon="5.821812" lat="50.92739"><ele>117</ele><time>2022-05-29T07:23:19.000Z</time></trkpt><trkpt lon="5.821904" lat="50.92736"><ele>117</ele><time>2022-05-29T07:23:20.000Z</time></trkpt><trkpt lon="5.821989" lat="50.927333"><ele>117.2</ele><time>2022-05-29T07:23:21.000Z</time></trkpt><trkpt lon="5.822069" lat="50.927307"><ele>117.2</ele><time>2022-05-29T07:23:22.000Z</time></trkpt><trkpt lon="5.822148" lat="50.927284"><ele>117.2</ele><time>2022-05-29T07:23:23.000Z</time></trkpt><trkpt lon="5.822226" lat="50.92726"><ele>117.4</ele><time>2022-05-29T07:23:24.000Z</time></trkpt><trkpt lon="5.822306" lat="50.927234"><ele>117.4</ele><time>2022-05-29T07:23:25.000Z</time></trkpt><trkpt lon="5.822387" lat="50.927206"><ele>117.4</ele><time>2022-05-29T07:23:26.000Z</time></trkpt><trkpt lon="5.822464" lat="50.927171"><ele>117.2</ele><time>2022-05-29T07:23:27.000Z</time></trkpt><trkpt lon="5.822536" lat="50.927131"><ele>117.4</ele><time>2022-05-29T07:23:28.000Z</time></trkpt><trkpt lon="5.822601" lat="50.927085"><ele>117.4</ele><time>2022-05-29T07:23:29.000Z</time></trkpt><trkpt lon="5.822662" lat="50.927035"><ele>117.4</ele><time>2022-05-29T07:23:30.000Z</time></trkpt><trkpt lon="5.822722" lat="50.926985"><ele>117.6</ele><time>2022-05-29T07:23:31.000Z</time></trkpt><trkpt lon="5.822784" lat="50.926932"><ele>117.4</ele><time>2022-05-29T07:23:32.000Z</time></trkpt><trkpt lon="5.822841" lat="50.926882"><ele>117.4</ele><time>2022-05-29T07:23:33.000Z</time></trkpt><trkpt lon="5.822898" lat="50.926829"><ele>117.4</ele><time>2022-05-29T07:23:34.000Z</time></trkpt><trkpt lon="5.822953" lat="50.926779"><ele>117.4</ele><time>2022-05-29T07:23:35.000Z</time></trkpt><trkpt lon="5.82301" lat="50.926727"><ele>117.4</ele><time>2022-05-29T07:23:36.000Z</time></trkpt><trkpt lon="5.823071" lat="50.926676"><ele>117.6</ele><time>2022-05-29T07:23:37.000Z</time></trkpt><trkpt lon="5.823132" lat="50.926626"><ele>117.6</ele><time>2022-05-29T07:23:38.000Z</time></trkpt><trkpt lon="5.823191" lat="50.926574"><ele>117.6</ele><time>2022-05-29T07:23:39.000Z</time></trkpt><trkpt lon="5.82325" lat="50.92652"><ele>117.8</ele><time>2022-05-29T07:23:40.000Z</time></trkpt><trkpt lon="5.82331" lat="50.926467"><ele>117.8</ele><time>2022-05-29T07:23:41.000Z</time></trkpt><trkpt lon="5.823373" lat="50.926413"><ele>117.8</ele><time>2022-05-29T07:23:42.000Z</time></trkpt><trkpt lon="5.823439" lat="50.926359"><ele>117.8</ele><time>2022-05-29T07:23:43.000Z</time></trkpt><trkpt lon="5.823497" lat="50.926305"><ele>117.6</ele><time>2022-05-29T07:23:44.000Z</time></trkpt><trkpt lon="5.823559" lat="50.926248"><ele>117.6</ele><time>2022-05-29T07:23:45.000Z</time></trkpt><trkpt lon="5.823623" lat="50.926192"><ele>117.8</ele><time>2022-05-29T07:23:46.000Z</time></trkpt><trkpt lon="5.823692" lat="50.926138"><ele>118</ele><time>2022-05-29T07:23:47.000Z</time></trkpt><trkpt lon="5.823764" lat="50.926085"><ele>118</ele><time>2022-05-29T07:23:48.000Z</time></trkpt><trkpt lon="5.823835" lat="50.926033"><ele>118</ele><time>2022-05-29T07:23:49.000Z</time></trkpt><trkpt lon="5.823911" lat="50.92598"><ele>118</ele><time>2022-05-29T07:23:50.000Z</time></trkpt><trkpt lon="5.823992" lat="50.925929"><ele>118</ele><time>2022-05-29T07:23:51.000Z</time></trkpt><trkpt lon="5.824072" lat="50.925876"><ele>117.8</ele><time>2022-05-29T07:23:52.000Z</time></trkpt><trkpt lon="5.82415" lat="50.925826"><ele>117.8</ele><time>2022-05-29T07:23:53.000Z</time></trkpt><trkpt lon="5.824229" lat="50.925772"><ele>117.8</ele><time>2022-05-29T07:23:54.000Z</time></trkpt><trkpt lon="5.824312" lat="50.92572"><ele>117.8</ele><time>2022-05-29T07:23:55.000Z</time></trkpt><trkpt lon="5.824398" lat="50.92567"><ele>117.6</ele><time>2022-05-29T07:23:56.000Z</time></trkpt><trkpt lon="5.824479" lat="50.92562"><ele>117.6</ele><time>2022-05-29T07:23:57.000Z</time></trkpt><trkpt lon="5.82454" lat="50.925566"><ele>117.4</ele><time>2022-05-29T07:23:58.000Z</time></trkpt><trkpt lon="5.824595" lat="50.92551"><ele>117.4</ele><time>2022-05-29T07:23:59.000Z</time></trkpt><trkpt lon="5.824648" lat="50.925457"><ele>117.2</ele><time>2022-05-29T07:24:00.000Z</time></trkpt><trkpt lon="5.824702" lat="50.925406"><ele>117.2</ele><time>2022-05-29T07:24:01.000Z</time></trkpt><trkpt lon="5.824753" lat="50.925357"><ele>117.2</ele><time>2022-05-29T07:24:02.000Z</time></trkpt><trkpt lon="5.824802" lat="50.925308"><ele>117.2</ele><time>2022-05-29T07:24:03.000Z</time></trkpt><trkpt lon="5.824851" lat="50.925257"><ele>117.2</ele><time>2022-05-29T07:24:04.000Z</time></trkpt><trkpt lon="5.824896" lat="50.925201"><ele>117</ele><time>2022-05-29T07:24:05.000Z</time></trkpt><trkpt lon="5.824946" lat="50.925146"><ele>117</ele><time>2022-05-29T07:24:06.000Z</time></trkpt><trkpt lon="5.824994" lat="50.925089"><ele>117</ele><time>2022-05-29T07:24:07.000Z</time></trkpt><trkpt lon="5.825041" lat="50.925031"><ele>117.2</ele><time>2022-05-29T07:24:08.000Z</time></trkpt><trkpt lon="5.825093" lat="50.924975"><ele>117</ele><time>2022-05-29T07:24:09.000Z</time></trkpt><trkpt lon="5.82515" lat="50.924925"><ele>117</ele><time>2022-05-29T07:24:10.000Z</time></trkpt><trkpt lon="5.825207" lat="50.924881"><ele>117.2</ele><time>2022-05-29T07:24:11.000Z</time></trkpt><trkpt lon="5.825284" lat="50.924823"><ele>117.2</ele><time>2022-05-29T07:24:12.000Z</time></trkpt><trkpt lon="5.825347" lat="50.924774"><ele>117.2</ele><time>2022-05-29T07:24:13.000Z</time></trkpt><trkpt lon="5.825415" lat="50.924728"><ele>117.4</ele><time>2022-05-29T07:24:14.000Z</time></trkpt><trkpt lon="5.825479" lat="50.924683"><ele>117.4</ele><time>2022-05-29T07:24:15.000Z</time></trkpt><trkpt lon="5.825542" lat="50.924638"><ele>117.4</ele><time>2022-05-29T07:24:16.000Z</time></trkpt><trkpt lon="5.825604" lat="50.924591"><ele>117.6</ele><time>2022-05-29T07:24:17.000Z</time></trkpt><trkpt lon="5.825663" lat="50.924545"><ele>117.6</ele><time>2022-05-29T07:24:18.000Z</time></trkpt><trkpt lon="5.825722" lat="50.9245"><ele>117.6</ele><time>2022-05-29T07:24:19.000Z</time></trkpt><trkpt lon="5.825784" lat="50.92445"><ele>117.8</ele><time>2022-05-29T07:24:20.000Z</time></trkpt><trkpt lon="5.825848" lat="50.924405"><ele>117.8</ele><time>2022-05-29T07:24:21.000Z</time></trkpt><trkpt lon="5.825913" lat="50.924362"><ele>117.8</ele><time>2022-05-29T07:24:22.000Z</time></trkpt><trkpt lon="5.825979" lat="50.924322"><ele>118</ele><time>2022-05-29T07:24:23.000Z</time></trkpt><trkpt lon="5.826044" lat="50.924282"><ele>118.2</ele><time>2022-05-29T07:24:24.000Z</time></trkpt><trkpt lon="5.826104" lat="50.924239"><ele>118.2</ele><time>2022-05-29T07:24:25.000Z</time></trkpt><trkpt lon="5.826161" lat="50.924196"><ele>118.2</ele><time>2022-05-29T07:24:26.000Z</time></trkpt><trkpt lon="5.826221" lat="50.924153"><ele>118.2</ele><time>2022-05-29T07:24:27.000Z</time></trkpt><trkpt lon="5.826278" lat="50.924107"><ele>118.4</ele><time>2022-05-29T07:24:28.000Z</time></trkpt><trkpt lon="5.826335" lat="50.924061"><ele>118.4</ele><time>2022-05-29T07:24:29.000Z</time></trkpt><trkpt lon="5.826389" lat="50.92401"><ele>118.4</ele><time>2022-05-29T07:24:30.000Z</time></trkpt><trkpt lon="5.826443" lat="50.923957"><ele>118.6</ele><time>2022-05-29T07:24:31.000Z</time></trkpt><trkpt lon="5.826494" lat="50.923899"><ele>118.6</ele><time>2022-05-29T07:24:32.000Z</time></trkpt><trkpt lon="5.82654" lat="50.923841"><ele>118.8</ele><time>2022-05-29T07:24:33.000Z</time></trkpt><trkpt lon="5.826576" lat="50.923781"><ele>118.8</ele><time>2022-05-29T07:24:34.000Z</time></trkpt><trkpt lon="5.826612" lat="50.923714"><ele>118.8</ele><time>2022-05-29T07:24:35.000Z</time></trkpt><trkpt lon="5.826639" lat="50.923649"><ele>118.8</ele><time>2022-05-29T07:24:36.000Z</time></trkpt><trkpt lon="5.826666" lat="50.923586"><ele>119</ele><time>2022-05-29T07:24:37.000Z</time></trkpt><trkpt lon="5.826695" lat="50.923525"><ele>119</ele><time>2022-05-29T07:24:38.000Z</time></trkpt><trkpt lon="5.826726" lat="50.923463"><ele>119</ele><time>2022-05-29T07:24:39.000Z</time></trkpt><trkpt lon="5.826754" lat="50.923399"><ele>119</ele><time>2022-05-29T07:24:40.000Z</time></trkpt><trkpt lon="5.826785" lat="50.923337"><ele>119</ele><time>2022-05-29T07:24:41.000Z</time></trkpt><trkpt lon="5.826816" lat="50.923269"><ele>119.2</ele><time>2022-05-29T07:24:42.000Z</time></trkpt><trkpt lon="5.826845" lat="50.923204"><ele>119.2</ele><time>2022-05-29T07:24:43.000Z</time></trkpt><trkpt lon="5.826875" lat="50.92314"><ele>119.2</ele><time>2022-05-29T07:24:44.000Z</time></trkpt><trkpt lon="5.826906" lat="50.923078"><ele>119.4</ele><time>2022-05-29T07:24:45.000Z</time></trkpt><trkpt lon="5.826939" lat="50.923013"><ele>119.2</ele><time>2022-05-29T07:24:46.000Z</time></trkpt><trkpt lon="5.826972" lat="50.922948"><ele>119.4</ele><time>2022-05-29T07:24:47.000Z</time></trkpt><trkpt lon="5.827004" lat="50.922883"><ele>119.4</ele><time>2022-05-29T07:24:48.000Z</time></trkpt><trkpt lon="5.827035" lat="50.922819"><ele>119.4</ele><time>2022-05-29T07:24:49.000Z</time></trkpt><trkpt lon="5.827063" lat="50.922758"><ele>119.6</ele><time>2022-05-29T07:24:50.000Z</time></trkpt><trkpt lon="5.827092" lat="50.922698"><ele>119.6</ele><time>2022-05-29T07:24:51.000Z</time></trkpt><trkpt lon="5.827128" lat="50.922645"><ele>119.8</ele><time>2022-05-29T07:24:52.000Z</time></trkpt><trkpt lon="5.827181" lat="50.922595"><ele>119.8</ele><time>2022-05-29T07:24:53.000Z</time></trkpt><trkpt lon="5.827251" lat="50.922547"><ele>120</ele><time>2022-05-29T07:24:54.000Z</time></trkpt><trkpt lon="5.827333" lat="50.922508"><ele>120</ele><time>2022-05-29T07:24:55.000Z</time></trkpt><trkpt lon="5.82741" lat="50.922482"><ele>120</ele><time>2022-05-29T07:24:56.000Z</time></trkpt><trkpt lon="5.827534" lat="50.922457"><ele>120</ele><time>2022-05-29T07:24:57.000Z</time></trkpt><trkpt lon="5.827641" lat="50.922447"><ele>120</ele><time>2022-05-29T07:24:58.000Z</time></trkpt><trkpt lon="5.827754" lat="50.922443"><ele>120</ele><time>2022-05-29T07:24:59.000Z</time></trkpt><trkpt lon="5.827868" lat="50.922439"><ele>120.2</ele><time>2022-05-29T07:25:00.000Z</time></trkpt><trkpt lon="5.827983" lat="50.922435"><ele>120.2</ele><time>2022-05-29T07:25:01.000Z</time></trkpt><trkpt lon="5.828098" lat="50.922432"><ele>120.2</ele><time>2022-05-29T07:25:02.000Z</time></trkpt><trkpt lon="5.828214" lat="50.922431"><ele>120.2</ele><time>2022-05-29T07:25:03.000Z</time></trkpt><trkpt lon="5.828325" lat="50.922428"><ele>120.2</ele><time>2022-05-29T07:25:04.000Z</time></trkpt><trkpt lon="5.82844" lat="50.922428"><ele>120.2</ele><time>2022-05-29T07:25:05.000Z</time></trkpt><trkpt lon="5.828558" lat="50.922429"><ele>120.2</ele><time>2022-05-29T07:25:06.000Z</time></trkpt><trkpt lon="5.82867" lat="50.922433"><ele>120.2</ele><time>2022-05-29T07:25:07.000Z</time></trkpt><trkpt lon="5.828782" lat="50.922441"><ele>120.2</ele><time>2022-05-29T07:25:08.000Z</time></trkpt><trkpt lon="5.828894" lat="50.922448"><ele>120.2</ele><time>2022-05-29T07:25:09.000Z</time></trkpt><trkpt lon="5.829006" lat="50.922455"><ele>120.2</ele><time>2022-05-29T07:25:10.000Z</time></trkpt><trkpt lon="5.829118" lat="50.92246"><ele>120</ele><time>2022-05-29T07:25:11.000Z</time></trkpt><trkpt lon="5.829229" lat="50.922467"><ele>120</ele><time>2022-05-29T07:25:12.000Z</time></trkpt><trkpt lon="5.829337" lat="50.922475"><ele>120</ele><time>2022-05-29T07:25:13.000Z</time></trkpt><trkpt lon="5.829446" lat="50.922483"><ele>120</ele><time>2022-05-29T07:25:14.000Z</time></trkpt><trkpt lon="5.829553" lat="50.922489"><ele>119.8</ele><time>2022-05-29T07:25:15.000Z</time></trkpt><trkpt lon="5.82966" lat="50.922483"><ele>119.8</ele><time>2022-05-29T07:25:16.000Z</time></trkpt><trkpt lon="5.829768" lat="50.922471"><ele>119.8</ele><time>2022-05-29T07:25:17.000Z</time></trkpt><trkpt lon="5.829874" lat="50.922451"><ele>119.8</ele><time>2022-05-29T07:25:18.000Z</time></trkpt><trkpt lon="5.829978" lat="50.922428"><ele>119.8</ele><time>2022-05-29T07:25:19.000Z</time></trkpt><trkpt lon="5.83008" lat="50.922401"><ele>119.8</ele><time>2022-05-29T07:25:20.000Z</time></trkpt><trkpt lon="5.83018" lat="50.922374"><ele>119.8</ele><time>2022-05-29T07:25:21.000Z</time></trkpt><trkpt lon="5.830275" lat="50.922348"><ele>119.8</ele><time>2022-05-29T07:25:22.000Z</time></trkpt><trkpt lon="5.830372" lat="50.922315"><ele>119.8</ele><time>2022-05-29T07:25:23.000Z</time></trkpt><trkpt lon="5.830468" lat="50.922278"><ele>119.6</ele><time>2022-05-29T07:25:24.000Z</time></trkpt><trkpt lon="5.830565" lat="50.922238"><ele>119.6</ele><time>2022-05-29T07:25:25.000Z</time></trkpt><trkpt lon="5.83066" lat="50.922192"><ele>119.4</ele><time>2022-05-29T07:25:26.000Z</time></trkpt><trkpt lon="5.830754" lat="50.922144"><ele>119.4</ele><time>2022-05-29T07:25:27.000Z</time></trkpt><trkpt lon="5.830843" lat="50.922096"><ele>119.2</ele><time>2022-05-29T07:25:28.000Z</time></trkpt><trkpt lon="5.830934" lat="50.922047"><ele>119</ele><time>2022-05-29T07:25:29.000Z</time></trkpt><trkpt lon="5.831029" lat="50.921995"><ele>118.8</ele><time>2022-05-29T07:25:30.000Z</time></trkpt><trkpt lon="5.831117" lat="50.921946"><ele>118.8</ele><time>2022-05-29T07:25:31.000Z</time></trkpt><trkpt lon="5.831203" lat="50.921901"><ele>118.8</ele><time>2022-05-29T07:25:32.000Z</time></trkpt><trkpt lon="5.831285" lat="50.921856"><ele>118.8</ele><time>2022-05-29T07:25:33.000Z</time></trkpt><trkpt lon="5.831365" lat="50.921813"><ele>118.6</ele><time>2022-05-29T07:25:34.000Z</time></trkpt><trkpt lon="5.831442" lat="50.921771"><ele>118.6</ele><time>2022-05-29T07:25:35.000Z</time></trkpt><trkpt lon="5.83152" lat="50.921726"><ele>118.4</ele><time>2022-05-29T07:25:36.000Z</time></trkpt><trkpt lon="5.831598" lat="50.921683"><ele>118.6</ele><time>2022-05-29T07:25:37.000Z</time></trkpt><trkpt lon="5.831674" lat="50.921638"><ele>118.6</ele><time>2022-05-29T07:25:38.000Z</time></trkpt><trkpt lon="5.83175" lat="50.921595"><ele>118.6</ele><time>2022-05-29T07:25:39.000Z</time></trkpt><trkpt lon="5.831822" lat="50.921551"><ele>118.8</ele><time>2022-05-29T07:25:40.000Z</time></trkpt><trkpt lon="5.831892" lat="50.92151"><ele>118.8</ele><time>2022-05-29T07:25:41.000Z</time></trkpt><trkpt lon="5.831962" lat="50.921462"><ele>119</ele><time>2022-05-29T07:25:42.000Z</time></trkpt><trkpt lon="5.83203" lat="50.921415"><ele>119</ele><time>2022-05-29T07:25:43.000Z</time></trkpt><trkpt lon="5.832103" lat="50.921366"><ele>119.2</ele><time>2022-05-29T07:25:44.000Z</time></trkpt><trkpt lon="5.832178" lat="50.921317"><ele>119.4</ele><time>2022-05-29T07:25:45.000Z</time></trkpt><trkpt lon="5.832253" lat="50.92127"><ele>119.4</ele><time>2022-05-29T07:25:46.000Z</time></trkpt><trkpt lon="5.83233" lat="50.921217"><ele>119.6</ele><time>2022-05-29T07:25:47.000Z</time></trkpt><trkpt lon="5.832408" lat="50.921167"><ele>119.6</ele><time>2022-05-29T07:25:48.000Z</time></trkpt><trkpt lon="5.832483" lat="50.921118"><ele>119.8</ele><time>2022-05-29T07:25:49.000Z</time></trkpt><trkpt lon="5.832557" lat="50.921068"><ele>120</ele><time>2022-05-29T07:25:50.000Z</time></trkpt><trkpt lon="5.832633" lat="50.921019"><ele>120</ele><time>2022-05-29T07:25:51.000Z</time></trkpt><trkpt lon="5.832707" lat="50.920968"><ele>120</ele><time>2022-05-29T07:25:52.000Z</time></trkpt><trkpt lon="5.832779" lat="50.920914"><ele>120</ele><time>2022-05-29T07:25:53.000Z</time></trkpt><trkpt lon="5.832848" lat="50.920861"><ele>120</ele><time>2022-05-29T07:25:54.000Z</time></trkpt><trkpt lon="5.832915" lat="50.920805"><ele>120.2</ele><time>2022-05-29T07:25:55.000Z</time></trkpt><trkpt lon="5.83298" lat="50.920747"><ele>120.2</ele><time>2022-05-29T07:25:56.000Z</time></trkpt><trkpt lon="5.833044" lat="50.920689"><ele>120.2</ele><time>2022-05-29T07:25:57.000Z</time></trkpt><trkpt lon="5.833104" lat="50.920631"><ele>120.2</ele><time>2022-05-29T07:25:58.000Z</time></trkpt><trkpt lon="5.833162" lat="50.920571"><ele>120.4</ele><time>2022-05-29T07:25:59.000Z</time></trkpt><trkpt lon="5.833217" lat="50.920514"><ele>120.4</ele><time>2022-05-29T07:26:00.000Z</time></trkpt><trkpt lon="5.83327" lat="50.920456"><ele>120.4</ele><time>2022-05-29T07:26:01.000Z</time></trkpt><trkpt lon="5.833323" lat="50.9204"><ele>120.4</ele><time>2022-05-29T07:26:02.000Z</time></trkpt><trkpt lon="5.833377" lat="50.920343"><ele>120.6</ele><time>2022-05-29T07:26:03.000Z</time></trkpt><trkpt lon="5.833433" lat="50.92029"><ele>120.6</ele><time>2022-05-29T07:26:04.000Z</time></trkpt><trkpt lon="5.833494" lat="50.920237"><ele>120.6</ele><time>2022-05-29T07:26:05.000Z</time></trkpt><trkpt lon="5.833562" lat="50.920189"><ele>120.8</ele><time>2022-05-29T07:26:06.000Z</time></trkpt><trkpt lon="5.833637" lat="50.920147"><ele>120.8</ele><time>2022-05-29T07:26:07.000Z</time></trkpt><trkpt lon="5.833721" lat="50.920111"><ele>121</ele><time>2022-05-29T07:26:08.000Z</time></trkpt><trkpt lon="5.83381" lat="50.920081"><ele>121</ele><time>2022-05-29T07:26:09.000Z</time></trkpt><trkpt lon="5.833904" lat="50.920056"><ele>121</ele><time>2022-05-29T07:26:10.000Z</time></trkpt><trkpt lon="5.834003" lat="50.920037"><ele>121</ele><time>2022-05-29T07:26:11.000Z</time></trkpt><trkpt lon="5.834106" lat="50.920023"><ele>121</ele><time>2022-05-29T07:26:12.000Z</time></trkpt><trkpt lon="5.83421" lat="50.920013"><ele>121</ele><time>2022-05-29T07:26:13.000Z</time></trkpt><trkpt lon="5.834311" lat="50.920007"><ele>121</ele><time>2022-05-29T07:26:14.000Z</time></trkpt><trkpt lon="5.834415" lat="50.919998"><ele>121</ele><time>2022-05-29T07:26:15.000Z</time></trkpt><trkpt lon="5.834518" lat="50.919997"><ele>121</ele><time>2022-05-29T07:26:16.000Z</time></trkpt><trkpt lon="5.834619" lat="50.919994"><ele>121</ele><time>2022-05-29T07:26:17.000Z</time></trkpt><trkpt lon="5.834719" lat="50.919991"><ele>121</ele><time>2022-05-29T07:26:18.000Z</time></trkpt><trkpt lon="5.834819" lat="50.919991"><ele>121</ele><time>2022-05-29T07:26:19.000Z</time></trkpt><trkpt lon="5.834914" lat="50.919988"><ele>121</ele><time>2022-05-29T07:26:20.000Z</time></trkpt><trkpt lon="5.834999" lat="50.919974"><ele>120.8</ele><time>2022-05-29T07:26:21.000Z</time></trkpt><trkpt lon="5.835064" lat="50.919947"><ele>120.8</ele><time>2022-05-29T07:26:22.000Z</time></trkpt><trkpt lon="5.835123" lat="50.919924"><ele>120.8</ele><time>2022-05-29T07:26:23.000Z</time></trkpt><trkpt lon="5.835191" lat="50.919913"><ele>120.8</ele><time>2022-05-29T07:26:24.000Z</time></trkpt><trkpt lon="5.835257" lat="50.919905"><ele>120.8</ele><time>2022-05-29T07:26:25.000Z</time></trkpt><trkpt lon="5.835317" lat="50.919897"><ele>120.8</ele><time>2022-05-29T07:26:26.000Z</time></trkpt><trkpt lon="5.835365" lat="50.919883"><ele>120.6</ele><time>2022-05-29T07:26:27.000Z</time></trkpt><trkpt lon="5.835395" lat="50.919859"><ele>120.6</ele><time>2022-05-29T07:26:28.000Z</time></trkpt><trkpt lon="5.835398" lat="50.919828"><ele>120.4</ele><time>2022-05-29T07:26:29.000Z</time></trkpt><trkpt lon="5.835378" lat="50.919791"><ele>120.4</ele><time>2022-05-29T07:26:30.000Z</time></trkpt><trkpt lon="5.835351" lat="50.919744"><ele>120.4</ele><time>2022-05-29T07:26:31.000Z</time></trkpt><trkpt lon="5.835323" lat="50.91969"><ele>120.2</ele><time>2022-05-29T07:26:32.000Z</time></trkpt><trkpt lon="5.835294" lat="50.919631"><ele>120</ele><time>2022-05-29T07:26:33.000Z</time></trkpt><trkpt lon="5.835264" lat="50.919566"><ele>119.8</ele><time>2022-05-29T07:26:34.000Z</time></trkpt><trkpt lon="5.835232" lat="50.919497"><ele>119.6</ele><time>2022-05-29T07:26:35.000Z</time></trkpt><trkpt lon="5.835198" lat="50.919429"><ele>119.6</ele><time>2022-05-29T07:26:36.000Z</time></trkpt><trkpt lon="5.835159" lat="50.919359"><ele>119.8</ele><time>2022-05-29T07:26:37.000Z</time></trkpt><trkpt lon="5.835117" lat="50.919287"><ele>120</ele><time>2022-05-29T07:26:38.000Z</time></trkpt><trkpt lon="5.835073" lat="50.919219"><ele>120.2</ele><time>2022-05-29T07:26:39.000Z</time></trkpt><trkpt lon="5.835026" lat="50.919147"><ele>120.2</ele><time>2022-05-29T07:26:40.000Z</time></trkpt><trkpt lon="5.834973" lat="50.919077"><ele>119.8</ele><time>2022-05-29T07:26:41.000Z</time></trkpt><trkpt lon="5.83492" lat="50.91901"><ele>119.2</ele><time>2022-05-29T07:26:42.000Z</time></trkpt><trkpt lon="5.834869" lat="50.918944"><ele>118.8</ele><time>2022-05-29T07:26:43.000Z</time></trkpt><trkpt lon="5.834815" lat="50.918875"><ele>118.4</ele><time>2022-05-29T07:26:44.000Z</time></trkpt><trkpt lon="5.834758" lat="50.918806"><ele>118</ele><time>2022-05-29T07:26:45.000Z</time></trkpt><trkpt lon="5.834696" lat="50.918738"><ele>117.8</ele><time>2022-05-29T07:26:46.000Z</time></trkpt><trkpt lon="5.834633" lat="50.91867"><ele>117.6</ele><time>2022-05-29T07:26:47.000Z</time></trkpt><trkpt lon="5.834566" lat="50.9186"><ele>117.4</ele><time>2022-05-29T07:26:48.000Z</time></trkpt><trkpt lon="5.834499" lat="50.918532"><ele>117.2</ele><time>2022-05-29T07:26:49.000Z</time></trkpt><trkpt lon="5.83443" lat="50.918468"><ele>117.2</ele><time>2022-05-29T07:26:50.000Z</time></trkpt><trkpt lon="5.834361" lat="50.918403"><ele>117</ele><time>2022-05-29T07:26:51.000Z</time></trkpt><trkpt lon="5.83429" lat="50.918338"><ele>116.8</ele><time>2022-05-29T07:26:52.000Z</time></trkpt><trkpt lon="5.834223" lat="50.918277"><ele>116.8</ele><time>2022-05-29T07:26:53.000Z</time></trkpt><trkpt lon="5.834157" lat="50.918216"><ele>116.8</ele><time>2022-05-29T07:26:54.000Z</time></trkpt><trkpt lon="5.83409" lat="50.918156"><ele>116.8</ele><time>2022-05-29T07:26:55.000Z</time></trkpt><trkpt lon="5.834021" lat="50.918099"><ele>116.8</ele><time>2022-05-29T07:26:56.000Z</time></trkpt><trkpt lon="5.833954" lat="50.918043"><ele>116.8</ele><time>2022-05-29T07:26:57.000Z</time></trkpt><trkpt lon="5.833888" lat="50.917985"><ele>116.8</ele><time>2022-05-29T07:26:58.000Z</time></trkpt><trkpt lon="5.833823" lat="50.917928"><ele>116.8</ele><time>2022-05-29T07:26:59.000Z</time></trkpt><trkpt lon="5.833759" lat="50.91787"><ele>117</ele><time>2022-05-29T07:27:00.000Z</time></trkpt><trkpt lon="5.833696" lat="50.917813"><ele>117</ele><time>2022-05-29T07:27:01.000Z</time></trkpt><trkpt lon="5.833633" lat="50.917756"><ele>117</ele><time>2022-05-29T07:27:02.000Z</time></trkpt><trkpt lon="5.833573" lat="50.917703"><ele>117</ele><time>2022-05-29T07:27:03.000Z</time></trkpt><trkpt lon="5.833514" lat="50.91765"><ele>117.2</ele><time>2022-05-29T07:27:04.000Z</time></trkpt><trkpt lon="5.833457" lat="50.917597"><ele>117.2</ele><time>2022-05-29T07:27:05.000Z</time></trkpt><trkpt lon="5.833399" lat="50.917547"><ele>117.2</ele><time>2022-05-29T07:27:06.000Z</time></trkpt><trkpt lon="5.833345" lat="50.917498"><ele>117.4</ele><time>2022-05-29T07:27:07.000Z</time></trkpt><trkpt lon="5.833294" lat="50.917453"><ele>117.4</ele><time>2022-05-29T07:27:08.000Z</time></trkpt><trkpt lon="5.833244" lat="50.917407"><ele>117.6</ele><time>2022-05-29T07:27:09.000Z</time></trkpt><trkpt lon="5.8332" lat="50.917364"><ele>117.8</ele><time>2022-05-29T07:27:10.000Z</time></trkpt><trkpt lon="5.833158" lat="50.91733"><ele>117.8</ele><time>2022-05-29T07:27:11.000Z</time></trkpt><trkpt lon="5.833121" lat="50.9173"><ele>118</ele><time>2022-05-29T07:27:12.000Z</time></trkpt><trkpt lon="5.833094" lat="50.917274"><ele>118.2</ele><time>2022-05-29T07:27:13.000Z</time></trkpt><trkpt lon="5.833073" lat="50.917252"><ele>118.4</ele><time>2022-05-29T07:27:14.000Z</time></trkpt><trkpt lon="5.833056" lat="50.917233"><ele>118.6</ele><time>2022-05-29T07:27:15.000Z</time></trkpt><trkpt lon="5.833046" lat="50.917213"><ele>118.6</ele><time>2022-05-29T07:27:16.000Z</time></trkpt><trkpt lon="5.833049" lat="50.91719"><ele>118.8</ele><time>2022-05-29T07:27:17.000Z</time></trkpt><trkpt lon="5.833067" lat="50.917162"><ele>118.8</ele><time>2022-05-29T07:27:18.000Z</time></trkpt><trkpt lon="5.833097" lat="50.917131"><ele>119</ele><time>2022-05-29T07:27:19.000Z</time></trkpt><trkpt lon="5.833138" lat="50.917095"><ele>118.8</ele><time>2022-05-29T07:27:20.000Z</time></trkpt><trkpt lon="5.833182" lat="50.917053"><ele>118.8</ele><time>2022-05-29T07:27:21.000Z</time></trkpt><trkpt lon="5.833227" lat="50.91701"><ele>119</ele><time>2022-05-29T07:27:22.000Z</time></trkpt><trkpt lon="5.833272" lat="50.916964"><ele>119</ele><time>2022-05-29T07:27:23.000Z</time></trkpt><trkpt lon="5.833319" lat="50.916913"><ele>119.2</ele><time>2022-05-29T07:27:24.000Z</time></trkpt><trkpt lon="5.833365" lat="50.91686"><ele>119.2</ele><time>2022-05-29T07:27:25.000Z</time></trkpt><trkpt lon="5.833407" lat="50.916807"><ele>119.2</ele><time>2022-05-29T07:27:26.000Z</time></trkpt><trkpt lon="5.833448" lat="50.916753"><ele>119.2</ele><time>2022-05-29T07:27:27.000Z</time></trkpt><trkpt lon="5.833492" lat="50.916699"><ele>119.2</ele><time>2022-05-29T07:27:28.000Z</time></trkpt><trkpt lon="5.833537" lat="50.916646"><ele>119.4</ele><time>2022-05-29T07:27:29.000Z</time></trkpt><trkpt lon="5.833582" lat="50.916588"><ele>119.4</ele><time>2022-05-29T07:27:30.000Z</time></trkpt><trkpt lon="5.833626" lat="50.916531"><ele>119.4</ele><time>2022-05-29T07:27:31.000Z</time></trkpt><trkpt lon="5.83367" lat="50.916474"><ele>119.4</ele><time>2022-05-29T07:27:32.000Z</time></trkpt><trkpt lon="5.833713" lat="50.916417"><ele>119.6</ele><time>2022-05-29T07:27:33.000Z</time></trkpt><trkpt lon="5.833754" lat="50.916364"><ele>119.6</ele><time>2022-05-29T07:27:34.000Z</time></trkpt><trkpt lon="5.833789" lat="50.916316"><ele>119.6</ele><time>2022-05-29T07:27:35.000Z</time></trkpt><trkpt lon="5.83382" lat="50.916275"><ele>119.8</ele><time>2022-05-29T07:27:36.000Z</time></trkpt><trkpt lon="5.833849" lat="50.916233"><ele>119.8</ele><time>2022-05-29T07:27:37.000Z</time></trkpt><trkpt lon="5.833882" lat="50.91619"><ele>120</ele><time>2022-05-29T07:27:38.000Z</time></trkpt><trkpt lon="5.833915" lat="50.916143"><ele>120</ele><time>2022-05-29T07:27:39.000Z</time></trkpt><trkpt lon="5.833952" lat="50.916094"><ele>120</ele><time>2022-05-29T07:27:40.000Z</time></trkpt><trkpt lon="5.833987" lat="50.916044"><ele>120.2</ele><time>2022-05-29T07:27:41.000Z</time></trkpt><trkpt lon="5.834022" lat="50.91599"><ele>120.2</ele><time>2022-05-29T07:27:42.000Z</time></trkpt><trkpt lon="5.834061" lat="50.915937"><ele>120.4</ele><time>2022-05-29T07:27:43.000Z</time></trkpt><trkpt lon="5.834098" lat="50.915884"><ele>120.4</ele><time>2022-05-29T07:27:44.000Z</time></trkpt><trkpt lon="5.834129" lat="50.915835"><ele>120.6</ele><time>2022-05-29T07:27:45.000Z</time></trkpt><trkpt lon="5.834158" lat="50.915792"><ele>120.6</ele><time>2022-05-29T07:27:46.000Z</time></trkpt><trkpt lon="5.834181" lat="50.915758"><ele>120.6</ele><time>2022-05-29T07:27:47.000Z</time></trkpt><trkpt lon="5.834199" lat="50.915727"><ele>120.6</ele><time>2022-05-29T07:27:48.000Z</time></trkpt><trkpt lon="5.834217" lat="50.915692"><ele>120.8</ele><time>2022-05-29T07:27:49.000Z</time></trkpt><trkpt lon="5.834241" lat="50.915659"><ele>120.8</ele><time>2022-05-29T07:27:50.000Z</time></trkpt><trkpt lon="5.834271" lat="50.915622"><ele>121</ele><time>2022-05-29T07:27:51.000Z</time></trkpt><trkpt lon="5.834297" lat="50.91558"><ele>121</ele><time>2022-05-29T07:27:52.000Z</time></trkpt><trkpt lon="5.834327" lat="50.915534"><ele>121</ele><time>2022-05-29T07:27:53.000Z</time></trkpt><trkpt lon="5.834358" lat="50.915482"><ele>121</ele><time>2022-05-29T07:27:54.000Z</time></trkpt><trkpt lon="5.834391" lat="50.915425"><ele>121</ele><time>2022-05-29T07:27:55.000Z</time></trkpt><trkpt lon="5.834425" lat="50.915369"><ele>121</ele><time>2022-05-29T07:27:56.000Z</time></trkpt><trkpt lon="5.834474" lat="50.915313"><ele>121.2</ele><time>2022-05-29T07:27:57.000Z</time></trkpt><trkpt lon="5.83453" lat="50.915248"><ele>121.2</ele><time>2022-05-29T07:27:58.000Z</time></trkpt><trkpt lon="5.834589" lat="50.915182"><ele>121.2</ele><time>2022-05-29T07:27:59.000Z</time></trkpt><trkpt lon="5.834651" lat="50.915113"><ele>121.4</ele><time>2022-05-29T07:28:00.000Z</time></trkpt><trkpt lon="5.834704" lat="50.915046"><ele>121.4</ele><time>2022-05-29T07:28:01.000Z</time></trkpt><trkpt lon="5.83475" lat="50.914981"><ele>121.4</ele><time>2022-05-29T07:28:02.000Z</time></trkpt><trkpt lon="5.834795" lat="50.914916"><ele>121.4</ele><time>2022-05-29T07:28:03.000Z</time></trkpt><trkpt lon="5.834838" lat="50.914847"><ele>121.4</ele><time>2022-05-29T07:28:04.000Z</time></trkpt><trkpt lon="5.834879" lat="50.914779"><ele>121.4</ele><time>2022-05-29T07:28:05.000Z</time></trkpt><trkpt lon="5.834917" lat="50.914715"><ele>121.6</ele><time>2022-05-29T07:28:06.000Z</time></trkpt><trkpt lon="5.834956" lat="50.914653"><ele>121.6</ele><time>2022-05-29T07:28:07.000Z</time></trkpt><trkpt lon="5.834996" lat="50.914588"><ele>121.6</ele><time>2022-05-29T07:28:08.000Z</time></trkpt><trkpt lon="5.835038" lat="50.914524"><ele>121.6</ele><time>2022-05-29T07:28:09.000Z</time></trkpt><trkpt lon="5.835076" lat="50.914462"><ele>121.6</ele><time>2022-05-29T07:28:10.000Z</time></trkpt><trkpt lon="5.835114" lat="50.914397"><ele>121.6</ele><time>2022-05-29T07:28:11.000Z</time></trkpt><trkpt lon="5.835153" lat="50.914332"><ele>121.6</ele><time>2022-05-29T07:28:12.000Z</time></trkpt><trkpt lon="5.835192" lat="50.914268"><ele>121.6</ele><time>2022-05-29T07:28:13.000Z</time></trkpt><trkpt lon="5.835227" lat="50.914202"><ele>121.6</ele><time>2022-05-29T07:28:14.000Z</time></trkpt><trkpt lon="5.835262" lat="50.914134"><ele>121.6</ele><time>2022-05-29T07:28:15.000Z</time></trkpt><trkpt lon="5.835296" lat="50.91407"><ele>121.6</ele><time>2022-05-29T07:28:16.000Z</time></trkpt><trkpt lon="5.835329" lat="50.914004"><ele>121.6</ele><time>2022-05-29T07:28:17.000Z</time></trkpt><trkpt lon="5.835362" lat="50.913935"><ele>121.6</ele><time>2022-05-29T07:28:18.000Z</time></trkpt><trkpt lon="5.835389" lat="50.913868"><ele>121.8</ele><time>2022-05-29T07:28:19.000Z</time></trkpt><trkpt lon="5.835414" lat="50.913801"><ele>121.8</ele><time>2022-05-29T07:28:20.000Z</time></trkpt><trkpt lon="5.835433" lat="50.913733"><ele>121.8</ele><time>2022-05-29T07:28:21.000Z</time></trkpt><trkpt lon="5.83545" lat="50.913665"><ele>121.8</ele><time>2022-05-29T07:28:22.000Z</time></trkpt><trkpt lon="5.835466" lat="50.913599"><ele>122</ele><time>2022-05-29T07:28:23.000Z</time></trkpt><trkpt lon="5.835481" lat="50.913531"><ele>122</ele><time>2022-05-29T07:28:24.000Z</time></trkpt><trkpt lon="5.835495" lat="50.913466"><ele>122</ele><time>2022-05-29T07:28:25.000Z</time></trkpt><trkpt lon="5.835504" lat="50.913401"><ele>122</ele><time>2022-05-29T07:28:26.000Z</time></trkpt><trkpt lon="5.835511" lat="50.913333"><ele>122.2</ele><time>2022-05-29T07:28:27.000Z</time></trkpt><trkpt lon="5.835517" lat="50.913264"><ele>122.2</ele><time>2022-05-29T07:28:28.000Z</time></trkpt><trkpt lon="5.83552" lat="50.913199"><ele>122</ele><time>2022-05-29T07:28:29.000Z</time></trkpt><trkpt lon="5.83552" lat="50.91313"><ele>122</ele><time>2022-05-29T07:28:30.000Z</time></trkpt><trkpt lon="5.835518" lat="50.913065"><ele>122</ele><time>2022-05-29T07:28:31.000Z</time></trkpt><trkpt lon="5.835516" lat="50.912996"><ele>122</ele><time>2022-05-29T07:28:32.000Z</time></trkpt><trkpt lon="5.835517" lat="50.912928"><ele>122.2</ele><time>2022-05-29T07:28:33.000Z</time></trkpt><trkpt lon="5.835521" lat="50.912863"><ele>122.2</ele><time>2022-05-29T07:28:34.000Z</time></trkpt><trkpt lon="5.835528" lat="50.912794"><ele>122.2</ele><time>2022-05-29T07:28:35.000Z</time></trkpt><trkpt lon="5.83554" lat="50.912727"><ele>122.2</ele><time>2022-05-29T07:28:36.000Z</time></trkpt><trkpt lon="5.835557" lat="50.912663"><ele>122.4</ele><time>2022-05-29T07:28:37.000Z</time></trkpt><trkpt lon="5.835578" lat="50.912597"><ele>122.4</ele><time>2022-05-29T07:28:38.000Z</time></trkpt><trkpt lon="5.8356" lat="50.912536"><ele>122.6</ele><time>2022-05-29T07:28:39.000Z</time></trkpt><trkpt lon="5.835623" lat="50.912476"><ele>122.8</ele><time>2022-05-29T07:28:40.000Z</time></trkpt><trkpt lon="5.835644" lat="50.91242"><ele>122.8</ele><time>2022-05-29T07:28:41.000Z</time></trkpt><trkpt lon="5.835663" lat="50.912371"><ele>123</ele><time>2022-05-29T07:28:42.000Z</time></trkpt><trkpt lon="5.835681" lat="50.912323"><ele>123.2</ele><time>2022-05-29T07:28:43.000Z</time></trkpt><trkpt lon="5.835693" lat="50.912281"><ele>123.2</ele><time>2022-05-29T07:28:44.000Z</time></trkpt><trkpt lon="5.8357" lat="50.912244"><ele>123.2</ele><time>2022-05-29T07:28:45.000Z</time></trkpt><trkpt lon="5.835687" lat="50.91221"><ele>123.2</ele><time>2022-05-29T07:28:46.000Z</time></trkpt><trkpt lon="5.83565" lat="50.912182"><ele>123.4</ele><time>2022-05-29T07:28:47.000Z</time></trkpt><trkpt lon="5.835596" lat="50.912161"><ele>123.4</ele><time>2022-05-29T07:28:48.000Z</time></trkpt><trkpt lon="5.835516" lat="50.912144"><ele>123.4</ele><time>2022-05-29T07:28:49.000Z</time></trkpt><trkpt lon="5.835431" lat="50.912126"><ele>123.4</ele><time>2022-05-29T07:28:50.000Z</time></trkpt><trkpt lon="5.835342" lat="50.91211"><ele>123.4</ele><time>2022-05-29T07:28:51.000Z</time></trkpt><trkpt lon="5.835249" lat="50.912091"><ele>123.6</ele><time>2022-05-29T07:28:52.000Z</time></trkpt><trkpt lon="5.835152" lat="50.912071"><ele>123.6</ele><time>2022-05-29T07:28:53.000Z</time></trkpt><trkpt lon="5.835057" lat="50.912049"><ele>123.6</ele><time>2022-05-29T07:28:54.000Z</time></trkpt><trkpt lon="5.834958" lat="50.912029"><ele>123.8</ele><time>2022-05-29T07:28:55.000Z</time></trkpt><trkpt lon="5.834853" lat="50.912007"><ele>123.8</ele><time>2022-05-29T07:28:56.000Z</time></trkpt><trkpt lon="5.834748" lat="50.911988"><ele>124</ele><time>2022-05-29T07:28:57.000Z</time></trkpt><trkpt lon="5.834641" lat="50.911968"><ele>124</ele><time>2022-05-29T07:28:58.000Z</time></trkpt><trkpt lon="5.834537" lat="50.911949"><ele>124.2</ele><time>2022-05-29T07:28:59.000Z</time></trkpt><trkpt lon="5.834436" lat="50.911926"><ele>124.2</ele><time>2022-05-29T07:29:00.000Z</time></trkpt><trkpt lon="5.834339" lat="50.911908"><ele>124.2</ele><time>2022-05-29T07:29:01.000Z</time></trkpt><trkpt lon="5.834244" lat="50.911888"><ele>124.4</ele><time>2022-05-29T07:29:02.000Z</time></trkpt><trkpt lon="5.834152" lat="50.911869"><ele>124.4</ele><time>2022-05-29T07:29:03.000Z</time></trkpt><trkpt lon="5.834065" lat="50.91185"><ele>124.6</ele><time>2022-05-29T07:29:04.000Z</time></trkpt><trkpt lon="5.833982" lat="50.911832"><ele>124.6</ele><time>2022-05-29T07:29:05.000Z</time></trkpt><trkpt lon="5.833899" lat="50.911816"><ele>124.8</ele><time>2022-05-29T07:29:06.000Z</time></trkpt><trkpt lon="5.833816" lat="50.911797"><ele>124.8</ele><time>2022-05-29T07:29:07.000Z</time></trkpt><trkpt lon="5.833734" lat="50.911782"><ele>124.8</ele><time>2022-05-29T07:29:08.000Z</time></trkpt><trkpt lon="5.833653" lat="50.911768"><ele>125</ele><time>2022-05-29T07:29:09.000Z</time></trkpt><trkpt lon="5.833573" lat="50.911757"><ele>125</ele><time>2022-05-29T07:29:10.000Z</time></trkpt><trkpt lon="5.833495" lat="50.911749"><ele>125</ele><time>2022-05-29T07:29:11.000Z</time></trkpt><trkpt lon="5.833418" lat="50.911737"><ele>125.2</ele><time>2022-05-29T07:29:12.000Z</time></trkpt><trkpt lon="5.833344" lat="50.911726"><ele>125.2</ele><time>2022-05-29T07:29:13.000Z</time></trkpt><trkpt lon="5.833269" lat="50.911714"><ele>125.4</ele><time>2022-05-29T07:29:14.000Z</time></trkpt><trkpt lon="5.833198" lat="50.911696"><ele>125.4</ele><time>2022-05-29T07:29:15.000Z</time></trkpt><trkpt lon="5.833135" lat="50.911666"><ele>125.6</ele><time>2022-05-29T07:29:16.000Z</time></trkpt><trkpt lon="5.833083" lat="50.911623"><ele>125.6</ele><time>2022-05-29T07:29:17.000Z</time></trkpt><trkpt lon="5.833038" lat="50.911573"><ele>125.8</ele><time>2022-05-29T07:29:18.000Z</time></trkpt><trkpt lon="5.832999" lat="50.911524"><ele>126</ele><time>2022-05-29T07:29:19.000Z</time></trkpt><trkpt lon="5.832959" lat="50.911473"><ele>126.4</ele><time>2022-05-29T07:29:20.000Z</time></trkpt><trkpt lon="5.832916" lat="50.91142"><ele>126.6</ele><time>2022-05-29T07:29:21.000Z</time></trkpt><trkpt lon="5.832869" lat="50.911366"><ele>126.8</ele><time>2022-05-29T07:29:22.000Z</time></trkpt><trkpt lon="5.832823" lat="50.911313"><ele>126.8</ele><time>2022-05-29T07:29:23.000Z</time></trkpt><trkpt lon="5.832778" lat="50.911258"><ele>126.8</ele><time>2022-05-29T07:29:24.000Z</time></trkpt><trkpt lon="5.832726" lat="50.911203"><ele>126.8</ele><time>2022-05-29T07:29:25.000Z</time></trkpt><trkpt lon="5.832678" lat="50.911147"><ele>127</ele><time>2022-05-29T07:29:26.000Z</time></trkpt><trkpt lon="5.83263" lat="50.911092"><ele>127.2</ele><time>2022-05-29T07:29:27.000Z</time></trkpt><trkpt lon="5.832584" lat="50.911038"><ele>127.2</ele><time>2022-05-29T07:29:28.000Z</time></trkpt><trkpt lon="5.832535" lat="50.910981"><ele>126.8</ele><time>2022-05-29T07:29:29.000Z</time></trkpt><trkpt lon="5.832486" lat="50.910927"><ele>126.6</ele><time>2022-05-29T07:29:30.000Z</time></trkpt><trkpt lon="5.832437" lat="50.910866"><ele>126.6</ele><time>2022-05-29T07:29:31.000Z</time></trkpt><trkpt lon="5.832386" lat="50.91081"><ele>126.4</ele><time>2022-05-29T07:29:32.000Z</time></trkpt><trkpt lon="5.832335" lat="50.910753"><ele>126.2</ele><time>2022-05-29T07:29:33.000Z</time></trkpt><trkpt lon="5.832283" lat="50.910691"><ele>126.2</ele><time>2022-05-29T07:29:34.000Z</time></trkpt><trkpt lon="5.832232" lat="50.910633"><ele>126.2</ele><time>2022-05-29T07:29:35.000Z</time></trkpt><trkpt lon="5.83218" lat="50.910573"><ele>126</ele><time>2022-05-29T07:29:36.000Z</time></trkpt><trkpt lon="5.832127" lat="50.910515"><ele>126</ele><time>2022-05-29T07:29:37.000Z</time></trkpt><trkpt lon="5.832075" lat="50.910458"><ele>126</ele><time>2022-05-29T07:29:38.000Z</time></trkpt><trkpt lon="5.832023" lat="50.910402"><ele>126</ele><time>2022-05-29T07:29:39.000Z</time></trkpt><trkpt lon="5.831966" lat="50.910344"><ele>125.8</ele><time>2022-05-29T07:29:40.000Z</time></trkpt><trkpt lon="5.831913" lat="50.910288"><ele>125.8</ele><time>2022-05-29T07:29:41.000Z</time></trkpt><trkpt lon="5.831861" lat="50.910233"><ele>125.8</ele><time>2022-05-29T07:29:42.000Z</time></trkpt><trkpt lon="5.831807" lat="50.910176"><ele>125.8</ele><time>2022-05-29T07:29:43.000Z</time></trkpt><trkpt lon="5.83176" lat="50.910121"><ele>125.8</ele><time>2022-05-29T07:29:44.000Z</time></trkpt><trkpt lon="5.831709" lat="50.910059"><ele>125.8</ele><time>2022-05-29T07:29:45.000Z</time></trkpt><trkpt lon="5.831661" lat="50.910006"><ele>126</ele><time>2022-05-29T07:29:46.000Z</time></trkpt><trkpt lon="5.831611" lat="50.909947"><ele>126</ele><time>2022-05-29T07:29:47.000Z</time></trkpt><trkpt lon="5.831561" lat="50.90989"><ele>126</ele><time>2022-05-29T07:29:48.000Z</time></trkpt><trkpt lon="5.831511" lat="50.909834"><ele>126</ele><time>2022-05-29T07:29:49.000Z</time></trkpt><trkpt lon="5.831461" lat="50.909779"><ele>125.8</ele><time>2022-05-29T07:29:50.000Z</time></trkpt><trkpt lon="5.831414" lat="50.909723"><ele>125.8</ele><time>2022-05-29T07:29:51.000Z</time></trkpt><trkpt lon="5.831362" lat="50.909664"><ele>125.6</ele><time>2022-05-29T07:29:52.000Z</time></trkpt><trkpt lon="5.831312" lat="50.909607"><ele>125.6</ele><time>2022-05-29T07:29:53.000Z</time></trkpt><trkpt lon="5.831264" lat="50.909551"><ele>125.6</ele><time>2022-05-29T07:29:54.000Z</time></trkpt><trkpt lon="5.831214" lat="50.909493"><ele>125.4</ele><time>2022-05-29T07:29:55.000Z</time></trkpt><trkpt lon="5.831163" lat="50.909436"><ele>125.4</ele><time>2022-05-29T07:29:56.000Z</time></trkpt><trkpt lon="5.83111" lat="50.909383"><ele>125.6</ele><time>2022-05-29T07:29:57.000Z</time></trkpt><trkpt lon="5.831048" lat="50.90933"><ele>125.6</ele><time>2022-05-29T07:29:58.000Z</time></trkpt><trkpt lon="5.830977" lat="50.909282"><ele>125.6</ele><time>2022-05-29T07:29:59.000Z</time></trkpt><trkpt lon="5.830898" lat="50.909241"><ele>125.6</ele><time>2022-05-29T07:30:00.000Z</time></trkpt><trkpt lon="5.830811" lat="50.9092"><ele>125.6</ele><time>2022-05-29T07:30:01.000Z</time></trkpt><trkpt lon="5.830723" lat="50.909162"><ele>125.6</ele><time>2022-05-29T07:30:02.000Z</time></trkpt><trkpt lon="5.830636" lat="50.909127"><ele>125.6</ele><time>2022-05-29T07:30:03.000Z</time></trkpt><trkpt lon="5.830556" lat="50.909088"><ele>125.6</ele><time>2022-05-29T07:30:04.000Z</time></trkpt><trkpt lon="5.830482" lat="50.909049"><ele>125.6</ele><time>2022-05-29T07:30:05.000Z</time></trkpt><trkpt lon="5.830414" lat="50.909002"><ele>125.6</ele><time>2022-05-29T07:30:06.000Z</time></trkpt><trkpt lon="5.830352" lat="50.908952"><ele>125.4</ele><time>2022-05-29T07:30:07.000Z</time></trkpt><trkpt lon="5.830295" lat="50.908898"><ele>125.4</ele><time>2022-05-29T07:30:08.000Z</time></trkpt><trkpt lon="5.830242" lat="50.908841"><ele>125.2</ele><time>2022-05-29T07:30:09.000Z</time></trkpt><trkpt lon="5.83019" lat="50.908785"><ele>125</ele><time>2022-05-29T07:30:10.000Z</time></trkpt><trkpt lon="5.830147" lat="50.908733"><ele>125</ele><time>2022-05-29T07:30:11.000Z</time></trkpt><trkpt lon="5.830099" lat="50.90867"><ele>124.8</ele><time>2022-05-29T07:30:12.000Z</time></trkpt><trkpt lon="5.830055" lat="50.908617"><ele>124.8</ele><time>2022-05-29T07:30:13.000Z</time></trkpt><trkpt lon="5.830006" lat="50.908562"><ele>124.6</ele><time>2022-05-29T07:30:14.000Z</time></trkpt><trkpt lon="5.829954" lat="50.908505"><ele>124.6</ele><time>2022-05-29T07:30:15.000Z</time></trkpt><trkpt lon="5.829907" lat="50.908449"><ele>124.4</ele><time>2022-05-29T07:30:16.000Z</time></trkpt><trkpt lon="5.829859" lat="50.908396"><ele>124.4</ele><time>2022-05-29T07:30:17.000Z</time></trkpt><trkpt lon="5.829808" lat="50.908343"><ele>124.4</ele><time>2022-05-29T07:30:18.000Z</time></trkpt><trkpt lon="5.829757" lat="50.908294"><ele>124.4</ele><time>2022-05-29T07:30:19.000Z</time></trkpt><trkpt lon="5.829717" lat="50.908254"><ele>124.4</ele><time>2022-05-29T07:30:20.000Z</time></trkpt><trkpt lon="5.829684" lat="50.908221"><ele>124.4</ele><time>2022-05-29T07:30:21.000Z</time></trkpt><trkpt lon="5.82966" lat="50.908196"><ele>124.4</ele><time>2022-05-29T07:30:22.000Z</time></trkpt><trkpt lon="5.829643" lat="50.908177"><ele>124.4</ele><time>2022-05-29T07:30:23.000Z</time></trkpt><trkpt lon="5.829627" lat="50.908158"><ele>124.4</ele><time>2022-05-29T07:30:24.000Z</time></trkpt><trkpt lon="5.829607" lat="50.908138"><ele>124.2</ele><time>2022-05-29T07:30:25.000Z</time></trkpt><trkpt lon="5.829579" lat="50.908113"><ele>124.2</ele><time>2022-05-29T07:30:26.000Z</time></trkpt><trkpt lon="5.829545" lat="50.908083"><ele>124.2</ele><time>2022-05-29T07:30:27.000Z</time></trkpt><trkpt lon="5.829511" lat="50.908051"><ele>124.2</ele><time>2022-05-29T07:30:28.000Z</time></trkpt><trkpt lon="5.829473" lat="50.908012"><ele>124.2</ele><time>2022-05-29T07:30:29.000Z</time></trkpt><trkpt lon="5.829429" lat="50.90797"><ele>124.2</ele><time>2022-05-29T07:30:30.000Z</time></trkpt><trkpt lon="5.829378" lat="50.907924"><ele>124.2</ele><time>2022-05-29T07:30:31.000Z</time></trkpt><trkpt lon="5.829327" lat="50.907877"><ele>124.2</ele><time>2022-05-29T07:30:32.000Z</time></trkpt><trkpt lon="5.829275" lat="50.907828"><ele>124.4</ele><time>2022-05-29T07:30:33.000Z</time></trkpt><trkpt lon="5.829223" lat="50.907784"><ele>124.4</ele><time>2022-05-29T07:30:34.000Z</time></trkpt><trkpt lon="5.829173" lat="50.907737"><ele>124.4</ele><time>2022-05-29T07:30:35.000Z</time></trkpt><trkpt lon="5.829122" lat="50.907687"><ele>124.4</ele><time>2022-05-29T07:30:36.000Z</time></trkpt><trkpt lon="5.829071" lat="50.907642"><ele>124.4</ele><time>2022-05-29T07:30:37.000Z</time></trkpt><trkpt lon="5.829018" lat="50.907596"><ele>124.6</ele><time>2022-05-29T07:30:38.000Z</time></trkpt><trkpt lon="5.828967" lat="50.907545"><ele>124.6</ele><time>2022-05-29T07:30:39.000Z</time></trkpt><trkpt lon="5.828918" lat="50.907496"><ele>124.6</ele><time>2022-05-29T07:30:40.000Z</time></trkpt><trkpt lon="5.828869" lat="50.907451"><ele>124.6</ele><time>2022-05-29T07:30:41.000Z</time></trkpt><trkpt lon="5.828821" lat="50.907406"><ele>124.8</ele><time>2022-05-29T07:30:42.000Z</time></trkpt><trkpt lon="5.828771" lat="50.907359"><ele>124.8</ele><time>2022-05-29T07:30:43.000Z</time></trkpt><trkpt lon="5.828725" lat="50.907312"><ele>124.8</ele><time>2022-05-29T07:30:44.000Z</time></trkpt><trkpt lon="5.828678" lat="50.907263"><ele>125</ele><time>2022-05-29T07:30:45.000Z</time></trkpt><trkpt lon="5.828634" lat="50.907218"><ele>125</ele><time>2022-05-29T07:30:46.000Z</time></trkpt><trkpt lon="5.828589" lat="50.907172"><ele>125</ele><time>2022-05-29T07:30:47.000Z</time></trkpt><trkpt lon="5.828543" lat="50.907126"><ele>124.8</ele><time>2022-05-29T07:30:48.000Z</time></trkpt><trkpt lon="5.828496" lat="50.90708"><ele>125</ele><time>2022-05-29T07:30:49.000Z</time></trkpt><trkpt lon="5.828451" lat="50.907035"><ele>125.2</ele><time>2022-05-29T07:30:50.000Z</time></trkpt><trkpt lon="5.828402" lat="50.906989"><ele>125.2</ele><time>2022-05-29T07:30:51.000Z</time></trkpt><trkpt lon="5.828353" lat="50.906943"><ele>125.4</ele><time>2022-05-29T07:30:52.000Z</time></trkpt><trkpt lon="5.828309" lat="50.906898"><ele>125.6</ele><time>2022-05-29T07:30:53.000Z</time></trkpt><trkpt lon="5.828267" lat="50.906855"><ele>125.6</ele><time>2022-05-29T07:30:54.000Z</time></trkpt><trkpt lon="5.828225" lat="50.90681"><ele>125.6</ele><time>2022-05-29T07:30:55.000Z</time></trkpt><trkpt lon="5.828187" lat="50.906769"><ele>125.6</ele><time>2022-05-29T07:30:56.000Z</time></trkpt><trkpt lon="5.82815" lat="50.906728"><ele>125.8</ele><time>2022-05-29T07:30:57.000Z</time></trkpt><trkpt lon="5.828115" lat="50.906695"><ele>125.8</ele><time>2022-05-29T07:30:58.000Z</time></trkpt><trkpt lon="5.828075" lat="50.90667"><ele>125.8</ele><time>2022-05-29T07:30:59.000Z</time></trkpt><trkpt lon="5.828029" lat="50.906653"><ele>125.8</ele><time>2022-05-29T07:31:00.000Z</time></trkpt><trkpt lon="5.82797" lat="50.906648"><ele>125.8</ele><time>2022-05-29T07:31:01.000Z</time></trkpt><trkpt lon="5.82792" lat="50.906653"><ele>125.8</ele><time>2022-05-29T07:31:02.000Z</time></trkpt><trkpt lon="5.827822" lat="50.906686"><ele>125.8</ele><time>2022-05-29T07:31:03.000Z</time></trkpt><trkpt lon="5.827741" lat="50.906712"><ele>125.6</ele><time>2022-05-29T07:31:04.000Z</time></trkpt><trkpt lon="5.827652" lat="50.906735"><ele>125.4</ele><time>2022-05-29T07:31:05.000Z</time></trkpt><trkpt lon="5.827562" lat="50.906758"><ele>125.6</ele><time>2022-05-29T07:31:06.000Z</time></trkpt><trkpt lon="5.827469" lat="50.906781"><ele>125.6</ele><time>2022-05-29T07:31:07.000Z</time></trkpt><trkpt lon="5.827377" lat="50.906804"><ele>125.6</ele><time>2022-05-29T07:31:08.000Z</time></trkpt><trkpt lon="5.827287" lat="50.906827"><ele>125.6</ele><time>2022-05-29T07:31:09.000Z</time></trkpt><trkpt lon="5.8272" lat="50.90685"><ele>125.6</ele><time>2022-05-29T07:31:10.000Z</time></trkpt><trkpt lon="5.827115" lat="50.906876"><ele>125.4</ele><time>2022-05-29T07:31:11.000Z</time></trkpt><trkpt lon="5.827031" lat="50.906894"><ele>125.2</ele><time>2022-05-29T07:31:12.000Z</time></trkpt><trkpt lon="5.826948" lat="50.906914"><ele>125.2</ele><time>2022-05-29T07:31:13.000Z</time></trkpt><trkpt lon="5.826868" lat="50.906936"><ele>125.2</ele><time>2022-05-29T07:31:14.000Z</time></trkpt><trkpt lon="5.82679" lat="50.906951"><ele>125</ele><time>2022-05-29T07:31:15.000Z</time></trkpt><trkpt lon="5.826713" lat="50.906969"><ele>124.8</ele><time>2022-05-29T07:31:16.000Z</time></trkpt><trkpt lon="5.82663" lat="50.90698"><ele>124.6</ele><time>2022-05-29T07:31:17.000Z</time></trkpt><trkpt lon="5.826556" lat="50.906986"><ele>124.4</ele><time>2022-05-29T07:31:18.000Z</time></trkpt><trkpt lon="5.82648" lat="50.906986"><ele>124.4</ele><time>2022-05-29T07:31:19.000Z</time></trkpt><trkpt lon="5.826405" lat="50.90698"><ele>124.2</ele><time>2022-05-29T07:31:20.000Z</time></trkpt><trkpt lon="5.826337" lat="50.906969"><ele>124.2</ele><time>2022-05-29T07:31:21.000Z</time></trkpt><trkpt lon="5.826273" lat="50.906958"><ele>124</ele><time>2022-05-29T07:31:22.000Z</time></trkpt><trkpt lon="5.826215" lat="50.906945"><ele>124</ele><time>2022-05-29T07:31:23.000Z</time></trkpt><trkpt lon="5.826169" lat="50.906929"><ele>124</ele><time>2022-05-29T07:31:24.000Z</time></trkpt><trkpt lon="5.826133" lat="50.90691"><ele>123.8</ele><time>2022-05-29T07:31:25.000Z</time></trkpt><trkpt lon="5.826104" lat="50.906891"><ele>123.8</ele><time>2022-05-29T07:31:26.000Z</time></trkpt><trkpt lon="5.826081" lat="50.906865"><ele>123.8</ele><time>2022-05-29T07:31:27.000Z</time></trkpt><trkpt lon="5.826063" lat="50.906828"><ele>123.6</ele><time>2022-05-29T07:31:28.000Z</time></trkpt><trkpt lon="5.826054" lat="50.90679"><ele>123.6</ele><time>2022-05-29T07:31:29.000Z</time></trkpt><trkpt lon="5.826059" lat="50.906741"><ele>123.8</ele><time>2022-05-29T07:31:30.000Z</time></trkpt><trkpt lon="5.82607" lat="50.90669"><ele>123.8</ele><time>2022-05-29T07:31:31.000Z</time></trkpt><trkpt lon="5.826081" lat="50.906637"><ele>124</ele><time>2022-05-29T07:31:32.000Z</time></trkpt><trkpt lon="5.826092" lat="50.906584"><ele>124.2</ele><time>2022-05-29T07:31:33.000Z</time></trkpt><trkpt lon="5.826104" lat="50.906534"><ele>124.2</ele><time>2022-05-29T07:31:34.000Z</time></trkpt><trkpt lon="5.826114" lat="50.90648"><ele>124.4</ele><time>2022-05-29T07:31:35.000Z</time></trkpt><trkpt lon="5.826124" lat="50.906426"><ele>124.4</ele><time>2022-05-29T07:31:36.000Z</time></trkpt><trkpt lon="5.826132" lat="50.906369"><ele>124.6</ele><time>2022-05-29T07:31:37.000Z</time></trkpt><trkpt lon="5.826135" lat="50.906311"><ele>124.8</ele><time>2022-05-29T07:31:38.000Z</time></trkpt><trkpt lon="5.826133" lat="50.90625"><ele>124.8</ele><time>2022-05-29T07:31:39.000Z</time></trkpt><trkpt lon="5.826133" lat="50.906186"><ele>125</ele><time>2022-05-29T07:31:40.000Z</time></trkpt><trkpt lon="5.826131" lat="50.906127"><ele>125</ele><time>2022-05-29T07:31:41.000Z</time></trkpt><trkpt lon="5.826121" lat="50.906058"><ele>125.2</ele><time>2022-05-29T07:31:42.000Z</time></trkpt><trkpt lon="5.826107" lat="50.90599"><ele>125.2</ele><time>2022-05-29T07:31:43.000Z</time></trkpt><trkpt lon="5.826089" lat="50.905926"><ele>125.2</ele><time>2022-05-29T07:31:44.000Z</time></trkpt><trkpt lon="5.826065" lat="50.905868"><ele>125.2</ele><time>2022-05-29T07:31:45.000Z</time></trkpt><trkpt lon="5.826036" lat="50.905802"><ele>125.4</ele><time>2022-05-29T07:31:46.000Z</time></trkpt><trkpt lon="5.826007" lat="50.905734"><ele>125.4</ele><time>2022-05-29T07:31:47.000Z</time></trkpt><trkpt lon="5.82597" lat="50.90567"><ele>125.4</ele><time>2022-05-29T07:31:48.000Z</time></trkpt><trkpt lon="5.825925" lat="50.905605"><ele>125.4</ele><time>2022-05-29T07:31:49.000Z</time></trkpt><trkpt lon="5.825882" lat="50.905539"><ele>125.4</ele><time>2022-05-29T07:31:50.000Z</time></trkpt><trkpt lon="5.825838" lat="50.905475"><ele>125.4</ele><time>2022-05-29T07:31:51.000Z</time></trkpt><trkpt lon="5.825794" lat="50.905411"><ele>125.2</ele><time>2022-05-29T07:31:52.000Z</time></trkpt><trkpt lon="5.825751" lat="50.90535"><ele>125.4</ele><time>2022-05-29T07:31:53.000Z</time></trkpt><trkpt lon="5.825708" lat="50.905285"><ele>125.4</ele><time>2022-05-29T07:31:54.000Z</time></trkpt><trkpt lon="5.825665" lat="50.905221"><ele>125.4</ele><time>2022-05-29T07:31:55.000Z</time></trkpt><trkpt lon="5.825619" lat="50.905152"><ele>125.4</ele><time>2022-05-29T07:31:56.000Z</time></trkpt><trkpt lon="5.825574" lat="50.905086"><ele>125.4</ele><time>2022-05-29T07:31:57.000Z</time></trkpt><trkpt lon="5.825531" lat="50.905022"><ele>125.6</ele><time>2022-05-29T07:31:58.000Z</time></trkpt><trkpt lon="5.825486" lat="50.904953"><ele>125.6</ele><time>2022-05-29T07:31:59.000Z</time></trkpt><trkpt lon="5.825443" lat="50.904892"><ele>125.4</ele><time>2022-05-29T07:32:00.000Z</time></trkpt><trkpt lon="5.825398" lat="50.904831"><ele>125.6</ele><time>2022-05-29T07:32:01.000Z</time></trkpt><trkpt lon="5.825354" lat="50.90477"><ele>125.6</ele><time>2022-05-29T07:32:02.000Z</time></trkpt><trkpt lon="5.82531" lat="50.904705"><ele>125.6</ele><time>2022-05-29T07:32:03.000Z</time></trkpt><trkpt lon="5.825265" lat="50.904648"><ele>125.6</ele><time>2022-05-29T07:32:04.000Z</time></trkpt><trkpt lon="5.825221" lat="50.904587"><ele>125.8</ele><time>2022-05-29T07:32:05.000Z</time></trkpt><trkpt lon="5.825177" lat="50.904523"><ele>125.8</ele><time>2022-05-29T07:32:06.000Z</time></trkpt><trkpt lon="5.825136" lat="50.904465"><ele>125.8</ele><time>2022-05-29T07:32:07.000Z</time></trkpt><trkpt lon="5.825096" lat="50.904404"><ele>126</ele><time>2022-05-29T07:32:08.000Z</time></trkpt><trkpt lon="5.825062" lat="50.904346"><ele>126</ele><time>2022-05-29T07:32:09.000Z</time></trkpt><trkpt lon="5.825027" lat="50.904284"><ele>126</ele><time>2022-05-29T07:32:10.000Z</time></trkpt><trkpt lon="5.824993" lat="50.90422"><ele>125.8</ele><time>2022-05-29T07:32:11.000Z</time></trkpt><trkpt lon="5.824956" lat="50.904159"><ele>125.8</ele><time>2022-05-29T07:32:12.000Z</time></trkpt><trkpt lon="5.824918" lat="50.904098"><ele>126</ele><time>2022-05-29T07:32:13.000Z</time></trkpt><trkpt lon="5.824885" lat="50.904037"><ele>126.2</ele><time>2022-05-29T07:32:14.000Z</time></trkpt><trkpt lon="5.824848" lat="50.903976"><ele>126</ele><time>2022-05-29T07:32:15.000Z</time></trkpt><trkpt lon="5.824811" lat="50.903915"><ele>126.2</ele><time>2022-05-29T07:32:16.000Z</time></trkpt><trkpt lon="5.824777" lat="50.903854"><ele>126.2</ele><time>2022-05-29T07:32:17.000Z</time></trkpt><trkpt lon="5.824751" lat="50.903793"><ele>126.4</ele><time>2022-05-29T07:32:18.000Z</time></trkpt><trkpt lon="5.824727" lat="50.903729"><ele>126.4</ele><time>2022-05-29T07:32:19.000Z</time></trkpt><trkpt lon="5.824698" lat="50.903668"><ele>126.4</ele><time>2022-05-29T07:32:20.000Z</time></trkpt><trkpt lon="5.824669" lat="50.903604"><ele>126.4</ele><time>2022-05-29T07:32:21.000Z</time></trkpt><trkpt lon="5.82464" lat="50.903541"><ele>126.4</ele><time>2022-05-29T07:32:22.000Z</time></trkpt><trkpt lon="5.824614" lat="50.903476"><ele>126.6</ele><time>2022-05-29T07:32:23.000Z</time></trkpt><trkpt lon="5.824589" lat="50.903411"><ele>126.6</ele><time>2022-05-29T07:32:24.000Z</time></trkpt><trkpt lon="5.824564" lat="50.903345"><ele>126.8</ele><time>2022-05-29T07:32:25.000Z</time></trkpt><trkpt lon="5.82454" lat="50.903277"><ele>127</ele><time>2022-05-29T07:32:26.000Z</time></trkpt><trkpt lon="5.824518" lat="50.903213"><ele>127</ele><time>2022-05-29T07:32:27.000Z</time></trkpt><trkpt lon="5.824497" lat="50.903148"><ele>127</ele><time>2022-05-29T07:32:28.000Z</time></trkpt><trkpt lon="5.824479" lat="50.903086"><ele>127.2</ele><time>2022-05-29T07:32:29.000Z</time></trkpt><trkpt lon="5.824462" lat="50.903022"><ele>127.4</ele><time>2022-05-29T07:32:30.000Z</time></trkpt><trkpt lon="5.824447" lat="50.902959"><ele>127.4</ele><time>2022-05-29T07:32:31.000Z</time></trkpt><trkpt lon="5.824429" lat="50.902896"><ele>127.6</ele><time>2022-05-29T07:32:32.000Z</time></trkpt><trkpt lon="5.82441" lat="50.902832"><ele>127.6</ele><time>2022-05-29T07:32:33.000Z</time></trkpt><trkpt lon="5.824392" lat="50.90277"><ele>127.6</ele><time>2022-05-29T07:32:34.000Z</time></trkpt><trkpt lon="5.824375" lat="50.902705"><ele>127.6</ele><time>2022-05-29T07:32:35.000Z</time></trkpt><trkpt lon="5.824358" lat="50.902641"><ele>127.4</ele><time>2022-05-29T07:32:36.000Z</time></trkpt><trkpt lon="5.82434" lat="50.902577"><ele>127.4</ele><time>2022-05-29T07:32:37.000Z</time></trkpt><trkpt lon="5.82432" lat="50.902515"><ele>127.6</ele><time>2022-05-29T07:32:38.000Z</time></trkpt><trkpt lon="5.824299" lat="50.902452"><ele>127.8</ele><time>2022-05-29T07:32:39.000Z</time></trkpt><trkpt lon="5.824275" lat="50.90239"><ele>127.8</ele><time>2022-05-29T07:32:40.000Z</time></trkpt><trkpt lon="5.82425" lat="50.902329"><ele>128</ele><time>2022-05-29T07:32:41.000Z</time></trkpt><trkpt lon="5.824223" lat="50.902265"><ele>128.2</ele><time>2022-05-29T07:32:42.000Z</time></trkpt><trkpt lon="5.824195" lat="50.902199"><ele>128.2</ele><time>2022-05-29T07:32:43.000Z</time></trkpt><trkpt lon="5.824166" lat="50.902138"><ele>128.2</ele><time>2022-05-29T07:32:44.000Z</time></trkpt><trkpt lon="5.824137" lat="50.902078"><ele>128.2</ele><time>2022-05-29T07:32:45.000Z</time></trkpt><trkpt lon="5.824109" lat="50.902011"><ele>128.2</ele><time>2022-05-29T07:32:46.000Z</time></trkpt><trkpt lon="5.82408" lat="50.901947"><ele>128.2</ele><time>2022-05-29T07:32:47.000Z</time></trkpt><trkpt lon="5.82405" lat="50.901887"><ele>128.4</ele><time>2022-05-29T07:32:48.000Z</time></trkpt><trkpt lon="5.824017" lat="50.901825"><ele>128.6</ele><time>2022-05-29T07:32:49.000Z</time></trkpt><trkpt lon="5.823988" lat="50.901764"><ele>128.8</ele><time>2022-05-29T07:32:50.000Z</time></trkpt><trkpt lon="5.823957" lat="50.901703"><ele>128.8</ele><time>2022-05-29T07:32:51.000Z</time></trkpt><trkpt lon="5.823927" lat="50.901642"><ele>129</ele><time>2022-05-29T07:32:52.000Z</time></trkpt><trkpt lon="5.823896" lat="50.901581"><ele>129.2</ele><time>2022-05-29T07:32:53.000Z</time></trkpt><trkpt lon="5.823864" lat="50.90152"><ele>129.4</ele><time>2022-05-29T07:32:54.000Z</time></trkpt><trkpt lon="5.823829" lat="50.901463"><ele>129.4</ele><time>2022-05-29T07:32:55.000Z</time></trkpt><trkpt lon="5.823798" lat="50.901406"><ele>129.6</ele><time>2022-05-29T07:32:56.000Z</time></trkpt><trkpt lon="5.823767" lat="50.901345"><ele>129.8</ele><time>2022-05-29T07:32:57.000Z</time></trkpt><trkpt lon="5.823736" lat="50.901288"><ele>129.8</ele><time>2022-05-29T07:32:58.000Z</time></trkpt><trkpt lon="5.823701" lat="50.901228"><ele>130</ele><time>2022-05-29T07:32:59.000Z</time></trkpt><trkpt lon="5.823662" lat="50.901166"><ele>130</ele><time>2022-05-29T07:33:00.000Z</time></trkpt><trkpt lon="5.82362" lat="50.901109"><ele>130</ele><time>2022-05-29T07:33:01.000Z</time></trkpt><trkpt lon="5.823577" lat="50.901057"><ele>130.2</ele><time>2022-05-29T07:33:02.000Z</time></trkpt><trkpt lon="5.823518" lat="50.900995"><ele>130.4</ele><time>2022-05-29T07:33:03.000Z</time></trkpt><trkpt lon="5.823456" lat="50.900946"><ele>130.4</ele><time>2022-05-29T07:33:04.000Z</time></trkpt><trkpt lon="5.823391" lat="50.900892"><ele>130.4</ele><time>2022-05-29T07:33:05.000Z</time></trkpt><trkpt lon="5.823324" lat="50.900844"><ele>130.4</ele><time>2022-05-29T07:33:06.000Z</time></trkpt><trkpt lon="5.823256" lat="50.900797"><ele>130.6</ele><time>2022-05-29T07:33:07.000Z</time></trkpt><trkpt lon="5.823189" lat="50.900747"><ele>130.4</ele><time>2022-05-29T07:33:08.000Z</time></trkpt><trkpt lon="5.823125" lat="50.900699"><ele>130.2</ele><time>2022-05-29T07:33:09.000Z</time></trkpt><trkpt lon="5.823063" lat="50.900657"><ele>130.2</ele><time>2022-05-29T07:33:10.000Z</time></trkpt><trkpt lon="5.823006" lat="50.900616"><ele>130.2</ele><time>2022-05-29T07:33:11.000Z</time></trkpt><trkpt lon="5.822936" lat="50.900565"><ele>130.2</ele><time>2022-05-29T07:33:12.000Z</time></trkpt><trkpt lon="5.822875" lat="50.900519"><ele>130.2</ele><time>2022-05-29T07:33:13.000Z</time></trkpt><trkpt lon="5.822812" lat="50.900475"><ele>130.2</ele><time>2022-05-29T07:33:14.000Z</time></trkpt><trkpt lon="5.822747" lat="50.900432"><ele>130.2</ele><time>2022-05-29T07:33:15.000Z</time></trkpt><trkpt lon="5.822681" lat="50.900391"><ele>130</ele><time>2022-05-29T07:33:16.000Z</time></trkpt><trkpt lon="5.822611" lat="50.900355"><ele>130</ele><time>2022-05-29T07:33:17.000Z</time></trkpt><trkpt lon="5.82254" lat="50.900324"><ele>130</ele><time>2022-05-29T07:33:18.000Z</time></trkpt><trkpt lon="5.822469" lat="50.900291"><ele>129.8</ele><time>2022-05-29T07:33:19.000Z</time></trkpt><trkpt lon="5.822399" lat="50.900263"><ele>129.8</ele><time>2022-05-29T07:33:20.000Z</time></trkpt><trkpt lon="5.822334" lat="50.900234"><ele>129.8</ele><time>2022-05-29T07:33:21.000Z</time></trkpt><trkpt lon="5.822271" lat="50.900209"><ele>129.8</ele><time>2022-05-29T07:33:22.000Z</time></trkpt><trkpt lon="5.822193" lat="50.900185"><ele>129.8</ele><time>2022-05-29T07:33:23.000Z</time></trkpt><trkpt lon="5.822123" lat="50.900165"><ele>129.8</ele><time>2022-05-29T07:33:24.000Z</time></trkpt><trkpt lon="5.82206" lat="50.900142"><ele>129.6</ele><time>2022-05-29T07:33:25.000Z</time></trkpt><trkpt lon="5.822007" lat="50.900118"><ele>129.6</ele><time>2022-05-29T07:33:26.000Z</time></trkpt><trkpt lon="5.821971" lat="50.900086"><ele>129.8</ele><time>2022-05-29T07:33:27.000Z</time></trkpt><trkpt lon="5.82195" lat="50.900046"><ele>129.8</ele><time>2022-05-29T07:33:28.000Z</time></trkpt><trkpt lon="5.821935" lat="50.900001"><ele>129.6</ele><time>2022-05-29T07:33:29.000Z</time></trkpt><trkpt lon="5.821915" lat="50.899954"><ele>129.6</ele><time>2022-05-29T07:33:30.000Z</time></trkpt><trkpt lon="5.821893" lat="50.8999"><ele>129.6</ele><time>2022-05-29T07:33:31.000Z</time></trkpt><trkpt lon="5.821874" lat="50.899846"><ele>129.6</ele><time>2022-05-29T07:33:32.000Z</time></trkpt><trkpt lon="5.821862" lat="50.899789"><ele>129.6</ele><time>2022-05-29T07:33:33.000Z</time></trkpt><trkpt lon="5.821858" lat="50.89973"><ele>129.6</ele><time>2022-05-29T07:33:34.000Z</time></trkpt><trkpt lon="5.821854" lat="50.899669"><ele>129.6</ele><time>2022-05-29T07:33:35.000Z</time></trkpt><trkpt lon="5.821842" lat="50.899608"><ele>129.8</ele><time>2022-05-29T07:33:36.000Z</time></trkpt><trkpt lon="5.821818" lat="50.899548"><ele>129.8</ele><time>2022-05-29T07:33:37.000Z</time></trkpt><trkpt lon="5.821782" lat="50.899495"><ele>129.8</ele><time>2022-05-29T07:33:38.000Z</time></trkpt><trkpt lon="5.821738" lat="50.899443"><ele>129.8</ele><time>2022-05-29T07:33:39.000Z</time></trkpt><trkpt lon="5.821687" lat="50.899393"><ele>129.8</ele><time>2022-05-29T07:33:40.000Z</time></trkpt><trkpt lon="5.821636" lat="50.89934"><ele>130</ele><time>2022-05-29T07:33:41.000Z</time></trkpt><trkpt lon="5.821583" lat="50.899289"><ele>130</ele><time>2022-05-29T07:33:42.000Z</time></trkpt><trkpt lon="5.821529" lat="50.899236"><ele>130</ele><time>2022-05-29T07:33:43.000Z</time></trkpt><trkpt lon="5.821472" lat="50.899179"><ele>130</ele><time>2022-05-29T07:33:44.000Z</time></trkpt><trkpt lon="5.821416" lat="50.899126"><ele>130.2</ele><time>2022-05-29T07:33:45.000Z</time></trkpt><trkpt lon="5.821359" lat="50.899077"><ele>130.2</ele><time>2022-05-29T07:33:46.000Z</time></trkpt><trkpt lon="5.821305" lat="50.899027"><ele>130.4</ele><time>2022-05-29T07:33:47.000Z</time></trkpt><trkpt lon="5.821251" lat="50.898977"><ele>130.4</ele><time>2022-05-29T07:33:48.000Z</time></trkpt><trkpt lon="5.821196" lat="50.898928"><ele>130.6</ele><time>2022-05-29T07:33:49.000Z</time></trkpt><trkpt lon="5.821144" lat="50.898879"><ele>130.6</ele><time>2022-05-29T07:33:50.000Z</time></trkpt><trkpt lon="5.82109" lat="50.898828"><ele>130.8</ele><time>2022-05-29T07:33:51.000Z</time></trkpt><trkpt lon="5.821038" lat="50.898775"><ele>130.8</ele><time>2022-05-29T07:33:52.000Z</time></trkpt><trkpt lon="5.820987" lat="50.898723"><ele>130.6</ele><time>2022-05-29T07:33:53.000Z</time></trkpt><trkpt lon="5.820939" lat="50.898669"><ele>130.8</ele><time>2022-05-29T07:33:54.000Z</time></trkpt><trkpt lon="5.820887" lat="50.898619"><ele>131</ele><time>2022-05-29T07:33:55.000Z</time></trkpt><trkpt lon="5.820833" lat="50.898564"><ele>130.8</ele><time>2022-05-29T07:33:56.000Z</time></trkpt><trkpt lon="5.820778" lat="50.898508"><ele>130.8</ele><time>2022-05-29T07:33:57.000Z</time></trkpt><trkpt lon="5.820719" lat="50.898454"><ele>130.8</ele><time>2022-05-29T07:33:58.000Z</time></trkpt><trkpt lon="5.820662" lat="50.898401"><ele>130.8</ele><time>2022-05-29T07:33:59.000Z</time></trkpt><trkpt lon="5.820604" lat="50.898349"><ele>131</ele><time>2022-05-29T07:34:00.000Z</time></trkpt><trkpt lon="5.820538" lat="50.898298"><ele>131</ele><time>2022-05-29T07:34:01.000Z</time></trkpt><trkpt lon="5.820475" lat="50.898245"><ele>131.2</ele><time>2022-05-29T07:34:02.000Z</time></trkpt><trkpt lon="5.820412" lat="50.898196"><ele>131.4</ele><time>2022-05-29T07:34:03.000Z</time></trkpt><trkpt lon="5.820356" lat="50.898147"><ele>131.6</ele><time>2022-05-29T07:34:04.000Z</time></trkpt><trkpt lon="5.820299" lat="50.898098"><ele>131.6</ele><time>2022-05-29T07:34:05.000Z</time></trkpt><trkpt lon="5.820236" lat="50.898051"><ele>131.8</ele><time>2022-05-29T07:34:06.000Z</time></trkpt><trkpt lon="5.820171" lat="50.898006"><ele>132</ele><time>2022-05-29T07:34:07.000Z</time></trkpt><trkpt lon="5.820101" lat="50.897964"><ele>132.2</ele><time>2022-05-29T07:34:08.000Z</time></trkpt><trkpt lon="5.820032" lat="50.897921"><ele>132.4</ele><time>2022-05-29T07:34:09.000Z</time></trkpt><trkpt lon="5.819964" lat="50.897877"><ele>132.6</ele><time>2022-05-29T07:34:10.000Z</time></trkpt><trkpt lon="5.819893" lat="50.897834"><ele>132.8</ele><time>2022-05-29T07:34:11.000Z</time></trkpt><trkpt lon="5.819818" lat="50.897793"><ele>133</ele><time>2022-05-29T07:34:12.000Z</time></trkpt><trkpt lon="5.819736" lat="50.897757"><ele>133</ele><time>2022-05-29T07:34:13.000Z</time></trkpt><trkpt lon="5.819648" lat="50.897726"><ele>133.2</ele><time>2022-05-29T07:34:14.000Z</time></trkpt><trkpt lon="5.819554" lat="50.897697"><ele>133.2</ele><time>2022-05-29T07:34:15.000Z</time></trkpt><trkpt lon="5.819459" lat="50.897675"><ele>133.2</ele><time>2022-05-29T07:34:16.000Z</time></trkpt><trkpt lon="5.819355" lat="50.897656"><ele>133</ele><time>2022-05-29T07:34:17.000Z</time></trkpt><trkpt lon="5.81925" lat="50.89764"><ele>132.8</ele><time>2022-05-29T07:34:18.000Z</time></trkpt><trkpt lon="5.819149" lat="50.897623"><ele>132.6</ele><time>2022-05-29T07:34:19.000Z</time></trkpt><trkpt lon="5.819059" lat="50.897613"><ele>132.4</ele><time>2022-05-29T07:34:20.000Z</time></trkpt><trkpt lon="5.818939" lat="50.897596"><ele>132.4</ele><time>2022-05-29T07:34:21.000Z</time></trkpt><trkpt lon="5.818837" lat="50.897581"><ele>132.4</ele><time>2022-05-29T07:34:22.000Z</time></trkpt><trkpt lon="5.81873" lat="50.89757"><ele>132.2</ele><time>2022-05-29T07:34:23.000Z</time></trkpt><trkpt lon="5.818621" lat="50.897558"><ele>132.2</ele><time>2022-05-29T07:34:24.000Z</time></trkpt><trkpt lon="5.818513" lat="50.897546"><ele>132.2</ele><time>2022-05-29T07:34:25.000Z</time></trkpt><trkpt lon="5.818404" lat="50.897531"><ele>132</ele><time>2022-05-29T07:34:26.000Z</time></trkpt><trkpt lon="5.818292" lat="50.89752"><ele>131.8</ele><time>2022-05-29T07:34:27.000Z</time></trkpt><trkpt lon="5.81818" lat="50.897508"><ele>131.8</ele><time>2022-05-29T07:34:28.000Z</time></trkpt><trkpt lon="5.818065" lat="50.897492"><ele>131.6</ele><time>2022-05-29T07:34:29.000Z</time></trkpt><trkpt lon="5.817949" lat="50.897477"><ele>131.4</ele><time>2022-05-29T07:34:30.000Z</time></trkpt><trkpt lon="5.817832" lat="50.897461"><ele>131.2</ele><time>2022-05-29T07:34:31.000Z</time></trkpt><trkpt lon="5.817715" lat="50.897442"><ele>131</ele><time>2022-05-29T07:34:32.000Z</time></trkpt><trkpt lon="5.817597" lat="50.897417"><ele>130.8</ele><time>2022-05-29T07:34:33.000Z</time></trkpt><trkpt lon="5.817486" lat="50.897386"><ele>130.4</ele><time>2022-05-29T07:34:34.000Z</time></trkpt><trkpt lon="5.817379" lat="50.897351"><ele>130</ele><time>2022-05-29T07:34:35.000Z</time></trkpt><trkpt lon="5.817275" lat="50.897313"><ele>129.6</ele><time>2022-05-29T07:34:36.000Z</time></trkpt><trkpt lon="5.817171" lat="50.897275"><ele>129.6</ele><time>2022-05-29T07:34:37.000Z</time></trkpt><trkpt lon="5.817072" lat="50.897238"><ele>129.6</ele><time>2022-05-29T07:34:38.000Z</time></trkpt><trkpt lon="5.816971" lat="50.897198"><ele>129.8</ele><time>2022-05-29T07:34:39.000Z</time></trkpt><trkpt lon="5.816872" lat="50.897157"><ele>129.8</ele><time>2022-05-29T07:34:40.000Z</time></trkpt><trkpt lon="5.816774" lat="50.897119"><ele>129.8</ele><time>2022-05-29T07:34:41.000Z</time></trkpt><trkpt lon="5.816675" lat="50.89708"><ele>130</ele><time>2022-05-29T07:34:42.000Z</time></trkpt><trkpt lon="5.816581" lat="50.897042"><ele>130</ele><time>2022-05-29T07:34:43.000Z</time></trkpt><trkpt lon="5.81649" lat="50.897004"><ele>130</ele><time>2022-05-29T07:34:44.000Z</time></trkpt><trkpt lon="5.8164" lat="50.896965"><ele>130</ele><time>2022-05-29T07:34:45.000Z</time></trkpt><trkpt lon="5.816314" lat="50.896923"><ele>130</ele><time>2022-05-29T07:34:46.000Z</time></trkpt><trkpt lon="5.816231" lat="50.896881"><ele>130.2</ele><time>2022-05-29T07:34:47.000Z</time></trkpt><trkpt lon="5.81615" lat="50.89684"><ele>130.6</ele><time>2022-05-29T07:34:48.000Z</time></trkpt><trkpt lon="5.816069" lat="50.8968"><ele>130.6</ele><time>2022-05-29T07:34:49.000Z</time></trkpt><trkpt lon="5.81599" lat="50.896764"><ele>131</ele><time>2022-05-29T07:34:50.000Z</time></trkpt><trkpt lon="5.815898" lat="50.896721"><ele>131.2</ele><time>2022-05-29T07:34:51.000Z</time></trkpt><trkpt lon="5.815814" lat="50.896683"><ele>131.4</ele><time>2022-05-29T07:34:52.000Z</time></trkpt><trkpt lon="5.815728" lat="50.896646"><ele>131.6</ele><time>2022-05-29T07:34:53.000Z</time></trkpt><trkpt lon="5.815643" lat="50.896611"><ele>131.8</ele><time>2022-05-29T07:34:54.000Z</time></trkpt><trkpt lon="5.815562" lat="50.896572"><ele>132.2</ele><time>2022-05-29T07:34:55.000Z</time></trkpt><trkpt lon="5.815484" lat="50.896535"><ele>132.4</ele><time>2022-05-29T07:34:56.000Z</time></trkpt><trkpt lon="5.815407" lat="50.8965"><ele>132.8</ele><time>2022-05-29T07:34:57.000Z</time></trkpt><trkpt lon="5.815332" lat="50.896463"><ele>133</ele><time>2022-05-29T07:34:58.000Z</time></trkpt><trkpt lon="5.815258" lat="50.896428"><ele>133.4</ele><time>2022-05-29T07:34:59.000Z</time></trkpt><trkpt lon="5.815182" lat="50.896394"><ele>133.6</ele><time>2022-05-29T07:35:00.000Z</time></trkpt><trkpt lon="5.81511" lat="50.89636"><ele>134</ele><time>2022-05-29T07:35:01.000Z</time></trkpt><trkpt lon="5.81504" lat="50.896329"><ele>134.2</ele><time>2022-05-29T07:35:02.000Z</time></trkpt><trkpt lon="5.81497" lat="50.896294"><ele>134.4</ele><time>2022-05-29T07:35:03.000Z</time></trkpt><trkpt lon="5.814902" lat="50.896257"><ele>134.6</ele><time>2022-05-29T07:35:04.000Z</time></trkpt><trkpt lon="5.814835" lat="50.896219"><ele>135</ele><time>2022-05-29T07:35:05.000Z</time></trkpt><trkpt lon="5.814768" lat="50.896183"><ele>135.2</ele><time>2022-05-29T07:35:06.000Z</time></trkpt><trkpt lon="5.8147" lat="50.89614"><ele>135.2</ele><time>2022-05-29T07:35:07.000Z</time></trkpt><trkpt lon="5.814635" lat="50.896094"><ele>135.4</ele><time>2022-05-29T07:35:08.000Z</time></trkpt><trkpt lon="5.81457" lat="50.896048"><ele>135.6</ele><time>2022-05-29T07:35:09.000Z</time></trkpt><trkpt lon="5.814507" lat="50.895998"><ele>135.6</ele><time>2022-05-29T07:35:10.000Z</time></trkpt><trkpt lon="5.814445" lat="50.895949"><ele>135.6</ele><time>2022-05-29T07:35:11.000Z</time></trkpt><trkpt lon="5.814388" lat="50.895899"><ele>135.6</ele><time>2022-05-29T07:35:12.000Z</time></trkpt><trkpt lon="5.814333" lat="50.895846"><ele>135.6</ele><time>2022-05-29T07:35:13.000Z</time></trkpt><trkpt lon="5.814285" lat="50.895798"><ele>135.4</ele><time>2022-05-29T07:35:14.000Z</time></trkpt><trkpt lon="5.814227" lat="50.895741"><ele>135.2</ele><time>2022-05-29T07:35:15.000Z</time></trkpt><trkpt lon="5.814171" lat="50.895685"><ele>135.2</ele><time>2022-05-29T07:35:16.000Z</time></trkpt><trkpt lon="5.814117" lat="50.895624"><ele>135.2</ele><time>2022-05-29T07:35:17.000Z</time></trkpt><trkpt lon="5.814064" lat="50.895565"><ele>135.2</ele><time>2022-05-29T07:35:18.000Z</time></trkpt><trkpt lon="5.814014" lat="50.895509"><ele>135</ele><time>2022-05-29T07:35:19.000Z</time></trkpt><trkpt lon="5.813959" lat="50.895453"><ele>135</ele><time>2022-05-29T07:35:20.000Z</time></trkpt><trkpt lon="5.8139" lat="50.895404"><ele>135</ele><time>2022-05-29T07:35:21.000Z</time></trkpt><trkpt lon="5.813839" lat="50.89535"><ele>134.8</ele><time>2022-05-29T07:35:22.000Z</time></trkpt><trkpt lon="5.81378" lat="50.8953"><ele>134.6</ele><time>2022-05-29T07:35:23.000Z</time></trkpt><trkpt lon="5.813723" lat="50.895251"><ele>134.8</ele><time>2022-05-29T07:35:24.000Z</time></trkpt><trkpt lon="5.813672" lat="50.895206"><ele>134.8</ele><time>2022-05-29T07:35:25.000Z</time></trkpt><trkpt lon="5.81363" lat="50.895159"><ele>134.8</ele><time>2022-05-29T07:35:26.000Z</time></trkpt><trkpt lon="5.813618" lat="50.895109"><ele>134.6</ele><time>2022-05-29T07:35:27.000Z</time></trkpt><trkpt lon="5.813637" lat="50.895061"><ele>134.6</ele><time>2022-05-29T07:35:28.000Z</time></trkpt><trkpt lon="5.813678" lat="50.895014"><ele>134.4</ele><time>2022-05-29T07:35:29.000Z</time></trkpt><trkpt lon="5.813727" lat="50.894969"><ele>134.4</ele><time>2022-05-29T07:35:30.000Z</time></trkpt><trkpt lon="5.813778" lat="50.894925"><ele>134.2</ele><time>2022-05-29T07:35:31.000Z</time></trkpt><trkpt lon="5.813829" lat="50.894881"><ele>134.2</ele><time>2022-05-29T07:35:32.000Z</time></trkpt><trkpt lon="5.813887" lat="50.894827"><ele>134.2</ele><time>2022-05-29T07:35:33.000Z</time></trkpt><trkpt lon="5.81395" lat="50.894772"><ele>134</ele><time>2022-05-29T07:35:34.000Z</time></trkpt><trkpt lon="5.814012" lat="50.894713"><ele>134</ele><time>2022-05-29T07:35:35.000Z</time></trkpt><trkpt lon="5.814068" lat="50.89466"><ele>133.8</ele><time>2022-05-29T07:35:36.000Z</time></trkpt><trkpt lon="5.814136" lat="50.894593"><ele>133.4</ele><time>2022-05-29T07:35:37.000Z</time></trkpt><trkpt lon="5.814195" lat="50.894536"><ele>133.2</ele><time>2022-05-29T07:35:38.000Z</time></trkpt><trkpt lon="5.814261" lat="50.894478"><ele>133</ele><time>2022-05-29T07:35:39.000Z</time></trkpt><trkpt lon="5.814327" lat="50.894418"><ele>132.8</ele><time>2022-05-29T07:35:40.000Z</time></trkpt><trkpt lon="5.814395" lat="50.894359"><ele>132.8</ele><time>2022-05-29T07:35:41.000Z</time></trkpt><trkpt lon="5.814463" lat="50.8943"><ele>132.6</ele><time>2022-05-29T07:35:42.000Z</time></trkpt><trkpt lon="5.814536" lat="50.894239"><ele>132.4</ele><time>2022-05-29T07:35:43.000Z</time></trkpt><trkpt lon="5.81461" lat="50.89418"><ele>132.4</ele><time>2022-05-29T07:35:44.000Z</time></trkpt><trkpt lon="5.814682" lat="50.894116"><ele>132</ele><time>2022-05-29T07:35:45.000Z</time></trkpt><trkpt lon="5.814753" lat="50.894054"><ele>131.8</ele><time>2022-05-29T07:35:46.000Z</time></trkpt><trkpt lon="5.814818" lat="50.893994"><ele>131.8</ele><time>2022-05-29T07:35:47.000Z</time></trkpt><trkpt lon="5.814885" lat="50.893935"><ele>131.8</ele><time>2022-05-29T07:35:48.000Z</time></trkpt><trkpt lon="5.814956" lat="50.893872"><ele>131.8</ele><time>2022-05-29T07:35:49.000Z</time></trkpt><trkpt lon="5.815024" lat="50.89381"><ele>131.6</ele><time>2022-05-29T07:35:50.000Z</time></trkpt><trkpt lon="5.815089" lat="50.893749"><ele>131.2</ele><time>2022-05-29T07:35:51.000Z</time></trkpt><trkpt lon="5.815156" lat="50.893684"><ele>131.2</ele><time>2022-05-29T07:35:52.000Z</time></trkpt><trkpt lon="5.815222" lat="50.893619"><ele>131</ele><time>2022-05-29T07:35:53.000Z</time></trkpt><trkpt lon="5.815289" lat="50.893554"><ele>131</ele><time>2022-05-29T07:35:54.000Z</time></trkpt><trkpt lon="5.815358" lat="50.893485"><ele>130.8</ele><time>2022-05-29T07:35:55.000Z</time></trkpt><trkpt lon="5.81543" lat="50.893416"><ele>130.6</ele><time>2022-05-29T07:35:56.000Z</time></trkpt><trkpt lon="5.815499" lat="50.893347"><ele>130.2</ele><time>2022-05-29T07:35:57.000Z</time></trkpt><trkpt lon="5.815568" lat="50.893278"><ele>130.2</ele><time>2022-05-29T07:35:58.000Z</time></trkpt><trkpt lon="5.815634" lat="50.893206"><ele>130</ele><time>2022-05-29T07:35:59.000Z</time></trkpt><trkpt lon="5.815699" lat="50.893137"><ele>129.8</ele><time>2022-05-29T07:36:00.000Z</time></trkpt><trkpt lon="5.815764" lat="50.893071"><ele>129.8</ele><time>2022-05-29T07:36:01.000Z</time></trkpt><trkpt lon="5.815833" lat="50.89301"><ele>129.8</ele><time>2022-05-29T07:36:02.000Z</time></trkpt><trkpt lon="5.815905" lat="50.892943"><ele>129.8</ele><time>2022-05-29T07:36:03.000Z</time></trkpt><trkpt lon="5.815976" lat="50.892877"><ele>129.8</ele><time>2022-05-29T07:36:04.000Z</time></trkpt><trkpt lon="5.816038" lat="50.892822"><ele>129.6</ele><time>2022-05-29T07:36:05.000Z</time></trkpt><trkpt lon="5.816114" lat="50.892753"><ele>129.6</ele><time>2022-05-29T07:36:06.000Z</time></trkpt><trkpt lon="5.816184" lat="50.892689"><ele>129.6</ele><time>2022-05-29T07:36:07.000Z</time></trkpt><trkpt lon="5.816255" lat="50.892632"><ele>129.6</ele><time>2022-05-29T07:36:08.000Z</time></trkpt><trkpt lon="5.816327" lat="50.892574"><ele>129.4</ele><time>2022-05-29T07:36:09.000Z</time></trkpt><trkpt lon="5.816398" lat="50.892514"><ele>129.4</ele><time>2022-05-29T07:36:10.000Z</time></trkpt><trkpt lon="5.816468" lat="50.892456"><ele>129.4</ele><time>2022-05-29T07:36:11.000Z</time></trkpt><trkpt lon="5.816536" lat="50.892395"><ele>129.2</ele><time>2022-05-29T07:36:12.000Z</time></trkpt><trkpt lon="5.816607" lat="50.89233"><ele>129.2</ele><time>2022-05-29T07:36:13.000Z</time></trkpt><trkpt lon="5.816678" lat="50.89227"><ele>129.2</ele><time>2022-05-29T07:36:14.000Z</time></trkpt><trkpt lon="5.816747" lat="50.892211"><ele>129.2</ele><time>2022-05-29T07:36:15.000Z</time></trkpt><trkpt lon="5.816814" lat="50.892147"><ele>129.2</ele><time>2022-05-29T07:36:16.000Z</time></trkpt><trkpt lon="5.816883" lat="50.892086"><ele>129.2</ele><time>2022-05-29T07:36:17.000Z</time></trkpt><trkpt lon="5.81695" lat="50.892027"><ele>129.2</ele><time>2022-05-29T07:36:18.000Z</time></trkpt><trkpt lon="5.817021" lat="50.891968"><ele>129.2</ele><time>2022-05-29T07:36:19.000Z</time></trkpt><trkpt lon="5.817091" lat="50.891906"><ele>129</ele><time>2022-05-29T07:36:20.000Z</time></trkpt><trkpt lon="5.817159" lat="50.891842"><ele>129</ele><time>2022-05-29T07:36:21.000Z</time></trkpt><trkpt lon="5.817226" lat="50.89178"><ele>129</ele><time>2022-05-29T07:36:22.000Z</time></trkpt><trkpt lon="5.817296" lat="50.891712"><ele>128.8</ele><time>2022-05-29T07:36:23.000Z</time></trkpt><trkpt lon="5.817363" lat="50.891652"><ele>128.6</ele><time>2022-05-29T07:36:24.000Z</time></trkpt><trkpt lon="5.817428" lat="50.891592"><ele>128.4</ele><time>2022-05-29T07:36:25.000Z</time></trkpt><trkpt lon="5.817495" lat="50.891535"><ele>128.4</ele><time>2022-05-29T07:36:26.000Z</time></trkpt><trkpt lon="5.817559" lat="50.891481"><ele>128.4</ele><time>2022-05-29T07:36:27.000Z</time></trkpt><trkpt lon="5.817617" lat="50.891427"><ele>128.2</ele><time>2022-05-29T07:36:28.000Z</time></trkpt><trkpt lon="5.817687" lat="50.891365"><ele>128.2</ele><time>2022-05-29T07:36:29.000Z</time></trkpt><trkpt lon="5.817751" lat="50.891307"><ele>128</ele><time>2022-05-29T07:36:30.000Z</time></trkpt><trkpt lon="5.817806" lat="50.891254"><ele>128</ele><time>2022-05-29T07:36:31.000Z</time></trkpt><trkpt lon="5.817864" lat="50.891199"><ele>127.8</ele><time>2022-05-29T07:36:32.000Z</time></trkpt><trkpt lon="5.817919" lat="50.891146"><ele>127.8</ele><time>2022-05-29T07:36:33.000Z</time></trkpt><trkpt lon="5.817968" lat="50.891098"><ele>127.6</ele><time>2022-05-29T07:36:34.000Z</time></trkpt><trkpt lon="5.81801" lat="50.891053"><ele>127.4</ele><time>2022-05-29T07:36:35.000Z</time></trkpt><trkpt lon="5.818044" lat="50.891016"><ele>127.4</ele><time>2022-05-29T07:36:36.000Z</time></trkpt><trkpt lon="5.818071" lat="50.890986"><ele>127.2</ele><time>2022-05-29T07:36:37.000Z</time></trkpt><trkpt lon="5.818095" lat="50.890956"><ele>127.2</ele><time>2022-05-29T07:36:38.000Z</time></trkpt><trkpt lon="5.818112" lat="50.890934"><ele>127.2</ele><time>2022-05-29T07:36:39.000Z</time></trkpt><trkpt lon="5.818124" lat="50.890917"><ele>127.2</ele><time>2022-05-29T07:36:40.000Z</time></trkpt><trkpt lon="5.818173" lat="50.89087"><ele>127.2</ele><time>2022-05-29T07:36:46.000Z</time></trkpt><trkpt lon="5.818199" lat="50.890856"><ele>127.2</ele><time>2022-05-29T07:36:47.000Z</time></trkpt><trkpt lon="5.818233" lat="50.890849"><ele>127.2</ele><time>2022-05-29T07:36:48.000Z</time></trkpt><trkpt lon="5.818279" lat="50.890847"><ele>127.4</ele><time>2022-05-29T07:36:49.000Z</time></trkpt><trkpt lon="5.818335" lat="50.890851"><ele>127.4</ele><time>2022-05-29T07:36:50.000Z</time></trkpt><trkpt lon="5.8184" lat="50.890855"><ele>127.4</ele><time>2022-05-29T07:36:51.000Z</time></trkpt><trkpt lon="5.818472" lat="50.890863"><ele>127.4</ele><time>2022-05-29T07:36:52.000Z</time></trkpt><trkpt lon="5.818548" lat="50.890875"><ele>127.4</ele><time>2022-05-29T07:36:53.000Z</time></trkpt><trkpt lon="5.818638" lat="50.890892"><ele>127.4</ele><time>2022-05-29T07:36:54.000Z</time></trkpt><trkpt lon="5.818728" lat="50.890911"><ele>127.4</ele><time>2022-05-29T07:36:55.000Z</time></trkpt><trkpt lon="5.818819" lat="50.890935"><ele>127.4</ele><time>2022-05-29T07:36:56.000Z</time></trkpt><trkpt lon="5.818912" lat="50.890966"><ele>127.2</ele><time>2022-05-29T07:36:57.000Z</time></trkpt><trkpt lon="5.819005" lat="50.891001"><ele>127.2</ele><time>2022-05-29T07:36:58.000Z</time></trkpt><trkpt lon="5.819094" lat="50.891036"><ele>127</ele><time>2022-05-29T07:36:59.000Z</time></trkpt><trkpt lon="5.819187" lat="50.891075"><ele>127.2</ele><time>2022-05-29T07:37:00.000Z</time></trkpt><trkpt lon="5.819275" lat="50.891113"><ele>127.2</ele><time>2022-05-29T07:37:01.000Z</time></trkpt><trkpt lon="5.819362" lat="50.89115"><ele>127</ele><time>2022-05-29T07:37:02.000Z</time></trkpt><trkpt lon="5.819454" lat="50.891189"><ele>127.2</ele><time>2022-05-29T07:37:03.000Z</time></trkpt><trkpt lon="5.819543" lat="50.891227"><ele>127.2</ele><time>2022-05-29T07:37:04.000Z</time></trkpt><trkpt lon="5.819631" lat="50.891265"><ele>127.2</ele><time>2022-05-29T07:37:05.000Z</time></trkpt><trkpt lon="5.81972" lat="50.891304"><ele>127.2</ele><time>2022-05-29T07:37:06.000Z</time></trkpt><trkpt lon="5.819808" lat="50.891343"><ele>127.2</ele><time>2022-05-29T07:37:07.000Z</time></trkpt><trkpt lon="5.81989" lat="50.891384"><ele>127.2</ele><time>2022-05-29T07:37:08.000Z</time></trkpt><trkpt lon="5.81997" lat="50.891426"><ele>127.2</ele><time>2022-05-29T07:37:09.000Z</time></trkpt><trkpt lon="5.820051" lat="50.89147"><ele>127.2</ele><time>2022-05-29T07:37:10.000Z</time></trkpt><trkpt lon="5.820128" lat="50.891517"><ele>127.4</ele><time>2022-05-29T07:37:11.000Z</time></trkpt><trkpt lon="5.820208" lat="50.891565"><ele>127.6</ele><time>2022-05-29T07:37:12.000Z</time></trkpt><trkpt lon="5.820286" lat="50.891615"><ele>127.6</ele><time>2022-05-29T07:37:13.000Z</time></trkpt><trkpt lon="5.82036" lat="50.891666"><ele>127.6</ele><time>2022-05-29T07:37:14.000Z</time></trkpt><trkpt lon="5.820428" lat="50.891721"><ele>127.8</ele><time>2022-05-29T07:37:15.000Z</time></trkpt><trkpt lon="5.820499" lat="50.891775"><ele>127.8</ele><time>2022-05-29T07:37:16.000Z</time></trkpt><trkpt lon="5.820572" lat="50.891834"><ele>127.8</ele><time>2022-05-29T07:37:17.000Z</time></trkpt><trkpt lon="5.820642" lat="50.891892"><ele>127.8</ele><time>2022-05-29T07:37:18.000Z</time></trkpt><trkpt lon="5.820711" lat="50.891951"><ele>127.8</ele><time>2022-05-29T07:37:19.000Z</time></trkpt><trkpt lon="5.820781" lat="50.892008"><ele>127.6</ele><time>2022-05-29T07:37:20.000Z</time></trkpt><trkpt lon="5.820854" lat="50.892065"><ele>127.6</ele><time>2022-05-29T07:37:21.000Z</time></trkpt><trkpt lon="5.820929" lat="50.892124"><ele>127.6</ele><time>2022-05-29T07:37:22.000Z</time></trkpt><trkpt lon="5.821002" lat="50.892182"><ele>127.4</ele><time>2022-05-29T07:37:23.000Z</time></trkpt><trkpt lon="5.821074" lat="50.892243"><ele>127.4</ele><time>2022-05-29T07:37:24.000Z</time></trkpt><trkpt lon="5.821145" lat="50.892304"><ele>127.4</ele><time>2022-05-29T07:37:25.000Z</time></trkpt><trkpt lon="5.821218" lat="50.892365"><ele>127</ele><time>2022-05-29T07:37:26.000Z</time></trkpt><trkpt lon="5.82129" lat="50.892426"><ele>126.6</ele><time>2022-05-29T07:37:27.000Z</time></trkpt><trkpt lon="5.821362" lat="50.892486"><ele>126.4</ele><time>2022-05-29T07:37:28.000Z</time></trkpt><trkpt lon="5.821441" lat="50.892546"><ele>126.2</ele><time>2022-05-29T07:37:29.000Z</time></trkpt><trkpt lon="5.821521" lat="50.892604"><ele>126</ele><time>2022-05-29T07:37:30.000Z</time></trkpt><trkpt lon="5.821603" lat="50.892665"><ele>125.6</ele><time>2022-05-29T07:37:31.000Z</time></trkpt><trkpt lon="5.821686" lat="50.892726"><ele>125.4</ele><time>2022-05-29T07:37:32.000Z</time></trkpt><trkpt lon="5.821772" lat="50.892784"><ele>125.4</ele><time>2022-05-29T07:37:33.000Z</time></trkpt><trkpt lon="5.821856" lat="50.892841"><ele>125.4</ele><time>2022-05-29T07:37:34.000Z</time></trkpt><trkpt lon="5.821943" lat="50.892898"><ele>125.2</ele><time>2022-05-29T07:37:35.000Z</time></trkpt><trkpt lon="5.822031" lat="50.892955"><ele>125</ele><time>2022-05-29T07:37:36.000Z</time></trkpt><trkpt lon="5.822119" lat="50.893012"><ele>125</ele><time>2022-05-29T07:37:37.000Z</time></trkpt><trkpt lon="5.822212" lat="50.893065"><ele>125</ele><time>2022-05-29T07:37:38.000Z</time></trkpt><trkpt lon="5.822307" lat="50.893114"><ele>125</ele><time>2022-05-29T07:37:39.000Z</time></trkpt><trkpt lon="5.822403" lat="50.893163"><ele>125</ele><time>2022-05-29T07:37:40.000Z</time></trkpt><trkpt lon="5.822497" lat="50.893214"><ele>125</ele><time>2022-05-29T07:37:41.000Z</time></trkpt><trkpt lon="5.822588" lat="50.893266"><ele>125</ele><time>2022-05-29T07:37:42.000Z</time></trkpt><trkpt lon="5.822673" lat="50.893313"><ele>125</ele><time>2022-05-29T07:37:43.000Z</time></trkpt><trkpt lon="5.822766" lat="50.893363"><ele>125.2</ele><time>2022-05-29T07:37:44.000Z</time></trkpt><trkpt lon="5.822855" lat="50.893409"><ele>125.2</ele><time>2022-05-29T07:37:45.000Z</time></trkpt><trkpt lon="5.822946" lat="50.89346"><ele>125.2</ele><time>2022-05-29T07:37:46.000Z</time></trkpt><trkpt lon="5.82303" lat="50.893505"><ele>125.4</ele><time>2022-05-29T07:37:47.000Z</time></trkpt><trkpt lon="5.823115" lat="50.893555"><ele>125.6</ele><time>2022-05-29T07:37:48.000Z</time></trkpt><trkpt lon="5.823202" lat="50.893605"><ele>125.6</ele><time>2022-05-29T07:37:49.000Z</time></trkpt><trkpt lon="5.823283" lat="50.893651"><ele>125.6</ele><time>2022-05-29T07:37:50.000Z</time></trkpt><trkpt lon="5.823363" lat="50.893701"><ele>125.8</ele><time>2022-05-29T07:37:51.000Z</time></trkpt><trkpt lon="5.823442" lat="50.893751"><ele>126</ele><time>2022-05-29T07:37:52.000Z</time></trkpt><trkpt lon="5.823517" lat="50.893801"><ele>126</ele><time>2022-05-29T07:37:53.000Z</time></trkpt><trkpt lon="5.82359" lat="50.89385"><ele>126.2</ele><time>2022-05-29T07:37:54.000Z</time></trkpt><trkpt lon="5.823661" lat="50.893901"><ele>126.4</ele><time>2022-05-29T07:37:55.000Z</time></trkpt><trkpt lon="5.823729" lat="50.893959"><ele>126.6</ele><time>2022-05-29T07:37:56.000Z</time></trkpt><trkpt lon="5.823789" lat="50.894021"><ele>126.6</ele><time>2022-05-29T07:37:57.000Z</time></trkpt><trkpt lon="5.823844" lat="50.894086"><ele>126.6</ele><time>2022-05-29T07:37:58.000Z</time></trkpt><trkpt lon="5.823892" lat="50.89415"><ele>126.6</ele><time>2022-05-29T07:37:59.000Z</time></trkpt><trkpt lon="5.82394" lat="50.894215"><ele>126.8</ele><time>2022-05-29T07:38:00.000Z</time></trkpt><trkpt lon="5.823994" lat="50.894278"><ele>126.8</ele><time>2022-05-29T07:38:01.000Z</time></trkpt><trkpt lon="5.824055" lat="50.894332"><ele>126.8</ele><time>2022-05-29T07:38:02.000Z</time></trkpt><trkpt lon="5.824119" lat="50.894391"><ele>127</ele><time>2022-05-29T07:38:03.000Z</time></trkpt><trkpt lon="5.824182" lat="50.89445"><ele>127.2</ele><time>2022-05-29T07:38:04.000Z</time></trkpt><trkpt lon="5.824246" lat="50.894502"><ele>127.2</ele><time>2022-05-29T07:38:05.000Z</time></trkpt><trkpt lon="5.824312" lat="50.894559"><ele>127.2</ele><time>2022-05-29T07:38:06.000Z</time></trkpt><trkpt lon="5.824378" lat="50.894618"><ele>127.2</ele><time>2022-05-29T07:38:07.000Z</time></trkpt><trkpt lon="5.824444" lat="50.894676"><ele>127.4</ele><time>2022-05-29T07:38:08.000Z</time></trkpt><trkpt lon="5.824507" lat="50.894733"><ele>127.6</ele><time>2022-05-29T07:38:09.000Z</time></trkpt><trkpt lon="5.824565" lat="50.894779"><ele>127.8</ele><time>2022-05-29T07:38:10.000Z</time></trkpt><trkpt lon="5.824644" lat="50.894846"><ele>127.8</ele><time>2022-05-29T07:38:11.000Z</time></trkpt><trkpt lon="5.82471" lat="50.894898"><ele>128</ele><time>2022-05-29T07:38:12.000Z</time></trkpt><trkpt lon="5.82478" lat="50.894949"><ele>128.2</ele><time>2022-05-29T07:38:13.000Z</time></trkpt><trkpt lon="5.824848" lat="50.895001"><ele>128.2</ele><time>2022-05-29T07:38:14.000Z</time></trkpt><trkpt lon="5.82492" lat="50.895055"><ele>128.4</ele><time>2022-05-29T07:38:15.000Z</time></trkpt><trkpt lon="5.824992" lat="50.895109"><ele>128.6</ele><time>2022-05-29T07:38:16.000Z</time></trkpt><trkpt lon="5.825063" lat="50.895159"><ele>128.8</ele><time>2022-05-29T07:38:17.000Z</time></trkpt><trkpt lon="5.825137" lat="50.895208"><ele>129</ele><time>2022-05-29T07:38:18.000Z</time></trkpt><trkpt lon="5.825212" lat="50.895257"><ele>129.2</ele><time>2022-05-29T07:38:19.000Z</time></trkpt><trkpt lon="5.825288" lat="50.895307"><ele>129.4</ele><time>2022-05-29T07:38:20.000Z</time></trkpt><trkpt lon="5.825365" lat="50.895356"><ele>129.4</ele><time>2022-05-29T07:38:21.000Z</time></trkpt><trkpt lon="5.825444" lat="50.895407"><ele>129.6</ele><time>2022-05-29T07:38:22.000Z</time></trkpt><trkpt lon="5.825524" lat="50.895456"><ele>129.6</ele><time>2022-05-29T07:38:23.000Z</time></trkpt><trkpt lon="5.825605" lat="50.895506"><ele>129.6</ele><time>2022-05-29T07:38:24.000Z</time></trkpt><trkpt lon="5.825685" lat="50.895555"><ele>129.8</ele><time>2022-05-29T07:38:25.000Z</time></trkpt><trkpt lon="5.825765" lat="50.895601"><ele>130</ele><time>2022-05-29T07:38:26.000Z</time></trkpt><trkpt lon="5.825845" lat="50.895651"><ele>130</ele><time>2022-05-29T07:38:27.000Z</time></trkpt><trkpt lon="5.825924" lat="50.8957"><ele>130</ele><time>2022-05-29T07:38:28.000Z</time></trkpt><trkpt lon="5.826" lat="50.895748"><ele>130.2</ele><time>2022-05-29T07:38:29.000Z</time></trkpt><trkpt lon="5.826082" lat="50.895802"><ele>130.2</ele><time>2022-05-29T07:38:30.000Z</time></trkpt><trkpt lon="5.826161" lat="50.895852"><ele>130.2</ele><time>2022-05-29T07:38:31.000Z</time></trkpt><trkpt lon="5.826238" lat="50.895899"><ele>130.4</ele><time>2022-05-29T07:38:32.000Z</time></trkpt><trkpt lon="5.826322" lat="50.89595"><ele>130.4</ele><time>2022-05-29T07:38:33.000Z</time></trkpt><trkpt lon="5.826398" lat="50.896001"><ele>130.4</ele><time>2022-05-29T07:38:34.000Z</time></trkpt><trkpt lon="5.826477" lat="50.89605"><ele>130.4</ele><time>2022-05-29T07:38:35.000Z</time></trkpt><trkpt lon="5.826565" lat="50.896107"><ele>130.4</ele><time>2022-05-29T07:38:36.000Z</time></trkpt><trkpt lon="5.82665" lat="50.896158"><ele>130.4</ele><time>2022-05-29T07:38:37.000Z</time></trkpt><trkpt lon="5.826732" lat="50.896208"><ele>130.4</ele><time>2022-05-29T07:38:38.000Z</time></trkpt><trkpt lon="5.826816" lat="50.896262"><ele>130.4</ele><time>2022-05-29T07:38:39.000Z</time></trkpt><trkpt lon="5.826898" lat="50.896314"><ele>130.4</ele><time>2022-05-29T07:38:40.000Z</time></trkpt><trkpt lon="5.82698" lat="50.896362"><ele>130.4</ele><time>2022-05-29T07:38:41.000Z</time></trkpt><trkpt lon="5.827068" lat="50.896409"><ele>130.4</ele><time>2022-05-29T07:38:42.000Z</time></trkpt><trkpt lon="5.827152" lat="50.896453"><ele>130.6</ele><time>2022-05-29T07:38:43.000Z</time></trkpt><trkpt lon="5.827242" lat="50.896495"><ele>130.6</ele><time>2022-05-29T07:38:44.000Z</time></trkpt><trkpt lon="5.827336" lat="50.896534"><ele>130.6</ele><time>2022-05-29T07:38:45.000Z</time></trkpt><trkpt lon="5.827428" lat="50.896571"><ele>130.6</ele><time>2022-05-29T07:38:46.000Z</time></trkpt><trkpt lon="5.827519" lat="50.896605"><ele>130.8</ele><time>2022-05-29T07:38:47.000Z</time></trkpt><trkpt lon="5.827611" lat="50.896641"><ele>130.8</ele><time>2022-05-29T07:38:48.000Z</time></trkpt><trkpt lon="5.827697" lat="50.896684"><ele>130.8</ele><time>2022-05-29T07:38:49.000Z</time></trkpt><trkpt lon="5.827775" lat="50.896729"><ele>130.8</ele><time>2022-05-29T07:38:50.000Z</time></trkpt><trkpt lon="5.827843" lat="50.896774"><ele>130.8</ele><time>2022-05-29T07:38:51.000Z</time></trkpt><trkpt lon="5.827901" lat="50.89682"><ele>130.8</ele><time>2022-05-29T07:38:52.000Z</time></trkpt><trkpt lon="5.827949" lat="50.896861"><ele>130.8</ele><time>2022-05-29T07:38:53.000Z</time></trkpt><trkpt lon="5.827987" lat="50.896894"><ele>131</ele><time>2022-05-29T07:38:54.000Z</time></trkpt><trkpt lon="5.828017" lat="50.896925"><ele>131</ele><time>2022-05-29T07:38:55.000Z</time></trkpt><trkpt lon="5.828033" lat="50.896955"><ele>131</ele><time>2022-05-29T07:38:56.000Z</time></trkpt><trkpt lon="5.828037" lat="50.896979"><ele>131</ele><time>2022-05-29T07:38:57.000Z</time></trkpt><trkpt lon="5.828027" lat="50.896991"><ele>131</ele><time>2022-05-29T07:38:58.000Z</time></trkpt><trkpt lon="5.827996" lat="50.89701"><ele>131</ele><time>2022-05-29T07:38:59.000Z</time></trkpt><trkpt lon="5.827966" lat="50.897024"><ele>131</ele><time>2022-05-29T07:39:00.000Z</time></trkpt><trkpt lon="5.827935" lat="50.897033"><ele>131</ele><time>2022-05-29T07:39:01.000Z</time></trkpt><trkpt lon="5.827908" lat="50.897047"><ele>131</ele><time>2022-05-29T07:39:02.000Z</time></trkpt><trkpt lon="5.827882" lat="50.897055"><ele>131</ele><time>2022-05-29T07:39:03.000Z</time></trkpt><trkpt lon="5.827857" lat="50.897066"><ele>131</ele><time>2022-05-29T07:39:04.000Z</time></trkpt><trkpt lon="5.827831" lat="50.897074"><ele>131</ele><time>2022-05-29T07:39:05.000Z</time></trkpt><trkpt lon="5.827803" lat="50.897086"><ele>131</ele><time>2022-05-29T07:39:06.000Z</time></trkpt><trkpt lon="5.827773" lat="50.897101"><ele>131</ele><time>2022-05-29T07:39:07.000Z</time></trkpt><trkpt lon="5.827732" lat="50.897117"><ele>131</ele><time>2022-05-29T07:39:08.000Z</time></trkpt><trkpt lon="5.827685" lat="50.897136"><ele>131</ele><time>2022-05-29T07:39:09.000Z</time></trkpt><trkpt lon="5.827634" lat="50.897155"><ele>131</ele><time>2022-05-29T07:39:10.000Z</time></trkpt><trkpt lon="5.827583" lat="50.897175"><ele>131</ele><time>2022-05-29T07:39:11.000Z</time></trkpt><trkpt lon="5.827525" lat="50.897203"><ele>131</ele><time>2022-05-29T07:39:12.000Z</time></trkpt><trkpt lon="5.827467" lat="50.897229"><ele>130.8</ele><time>2022-05-29T07:39:13.000Z</time></trkpt><trkpt lon="5.827411" lat="50.897257"><ele>131</ele><time>2022-05-29T07:39:14.000Z</time></trkpt><trkpt lon="5.82736" lat="50.897289"><ele>131</ele><time>2022-05-29T07:39:15.000Z</time></trkpt><trkpt lon="5.827315" lat="50.897326"><ele>131.2</ele><time>2022-05-29T07:39:16.000Z</time></trkpt><trkpt lon="5.827267" lat="50.897361"><ele>131.2</ele><time>2022-05-29T07:39:17.000Z</time></trkpt><trkpt lon="5.827208" lat="50.897394"><ele>131.2</ele><time>2022-05-29T07:39:18.000Z</time></trkpt><trkpt lon="5.827138" lat="50.897424"><ele>131.4</ele><time>2022-05-29T07:39:19.000Z</time></trkpt><trkpt lon="5.827062" lat="50.897451"><ele>131.6</ele><time>2022-05-29T07:39:20.000Z</time></trkpt><trkpt lon="5.826985" lat="50.897477"><ele>131.6</ele><time>2022-05-29T07:39:21.000Z</time></trkpt><trkpt lon="5.826903" lat="50.897502"><ele>131.6</ele><time>2022-05-29T07:39:22.000Z</time></trkpt><trkpt lon="5.82682" lat="50.897522"><ele>131.6</ele><time>2022-05-29T07:39:23.000Z</time></trkpt><trkpt lon="5.826736" lat="50.897545"><ele>131.8</ele><time>2022-05-29T07:39:24.000Z</time></trkpt><trkpt lon="5.826651" lat="50.897568"><ele>131.8</ele><time>2022-05-29T07:39:25.000Z</time></trkpt><trkpt lon="5.826562" lat="50.89759"><ele>131.8</ele><time>2022-05-29T07:39:26.000Z</time></trkpt><trkpt lon="5.826472" lat="50.89761"><ele>131.8</ele><time>2022-05-29T07:39:27.000Z</time></trkpt><trkpt lon="5.826382" lat="50.897633"><ele>132</ele><time>2022-05-29T07:39:28.000Z</time></trkpt><trkpt lon="5.826293" lat="50.897656"><ele>132</ele><time>2022-05-29T07:39:29.000Z</time></trkpt><trkpt lon="5.826203" lat="50.897679"><ele>132</ele><time>2022-05-29T07:39:30.000Z</time></trkpt><trkpt lon="5.826114" lat="50.897702"><ele>132</ele><time>2022-05-29T07:39:31.000Z</time></trkpt><trkpt lon="5.826023" lat="50.897724"><ele>132.2</ele><time>2022-05-29T07:39:32.000Z</time></trkpt><trkpt lon="5.825936" lat="50.897746"><ele>132.2</ele><time>2022-05-29T07:39:33.000Z</time></trkpt><trkpt lon="5.825842" lat="50.897767"><ele>132.2</ele><time>2022-05-29T07:39:34.000Z</time></trkpt><trkpt lon="5.825751" lat="50.89779"><ele>132.4</ele><time>2022-05-29T07:39:35.000Z</time></trkpt><trkpt lon="5.825661" lat="50.897817"><ele>132.4</ele><time>2022-05-29T07:39:36.000Z</time></trkpt><trkpt lon="5.825572" lat="50.897843"><ele>132.6</ele><time>2022-05-29T07:39:37.000Z</time></trkpt><trkpt lon="5.825479" lat="50.897867"><ele>132.8</ele><time>2022-05-29T07:39:38.000Z</time></trkpt><trkpt lon="5.825391" lat="50.897893"><ele>133</ele><time>2022-05-29T07:39:39.000Z</time></trkpt><trkpt lon="5.825305" lat="50.897919"><ele>133.2</ele><time>2022-05-29T07:39:40.000Z</time></trkpt><trkpt lon="5.825209" lat="50.897946"><ele>133.2</ele><time>2022-05-29T07:39:41.000Z</time></trkpt><trkpt lon="5.825113" lat="50.897968"><ele>133.4</ele><time>2022-05-29T07:39:42.000Z</time></trkpt><trkpt lon="5.825015" lat="50.897986"><ele>133.4</ele><time>2022-05-29T07:39:43.000Z</time></trkpt><trkpt lon="5.824919" lat="50.898003"><ele>133.6</ele><time>2022-05-29T07:39:44.000Z</time></trkpt><trkpt lon="5.824824" lat="50.898027"><ele>133.8</ele><time>2022-05-29T07:39:45.000Z</time></trkpt><trkpt lon="5.824731" lat="50.898054"><ele>133.8</ele><time>2022-05-29T07:39:46.000Z</time></trkpt><trkpt lon="5.82464" lat="50.898084"><ele>134</ele><time>2022-05-29T07:39:47.000Z</time></trkpt><trkpt lon="5.824549" lat="50.898115"><ele>134.2</ele><time>2022-05-29T07:39:48.000Z</time></trkpt><trkpt lon="5.824461" lat="50.898146"><ele>134.4</ele><time>2022-05-29T07:39:49.000Z</time></trkpt><trkpt lon="5.824379" lat="50.898176"><ele>134.6</ele><time>2022-05-29T07:39:50.000Z</time></trkpt><trkpt lon="5.824301" lat="50.89821"><ele>134.8</ele><time>2022-05-29T07:39:51.000Z</time></trkpt><trkpt lon="5.824223" lat="50.898246"><ele>134.8</ele><time>2022-05-29T07:39:52.000Z</time></trkpt><trkpt lon="5.824146" lat="50.898281"><ele>135</ele><time>2022-05-29T07:39:53.000Z</time></trkpt><trkpt lon="5.824067" lat="50.898319"><ele>135</ele><time>2022-05-29T07:39:54.000Z</time></trkpt><trkpt lon="5.823991" lat="50.898357"><ele>135</ele><time>2022-05-29T07:39:55.000Z</time></trkpt><trkpt lon="5.823916" lat="50.8984"><ele>135</ele><time>2022-05-29T07:39:56.000Z</time></trkpt><trkpt lon="5.823843" lat="50.898446"><ele>135</ele><time>2022-05-29T07:39:57.000Z</time></trkpt><trkpt lon="5.823768" lat="50.898492"><ele>135</ele><time>2022-05-29T07:39:58.000Z</time></trkpt><trkpt lon="5.823699" lat="50.898539"><ele>135</ele><time>2022-05-29T07:39:59.000Z</time></trkpt><trkpt lon="5.823632" lat="50.898589"><ele>135</ele><time>2022-05-29T07:40:00.000Z</time></trkpt><trkpt lon="5.823568" lat="50.898642"><ele>134.8</ele><time>2022-05-29T07:40:01.000Z</time></trkpt><trkpt lon="5.823508" lat="50.898693"><ele>134.8</ele><time>2022-05-29T07:40:02.000Z</time></trkpt><trkpt lon="5.82345" lat="50.898755"><ele>134.6</ele><time>2022-05-29T07:40:03.000Z</time></trkpt><trkpt lon="5.823394" lat="50.898816"><ele>134.2</ele><time>2022-05-29T07:40:04.000Z</time></trkpt><trkpt lon="5.823339" lat="50.898881"><ele>134.2</ele><time>2022-05-29T07:40:05.000Z</time></trkpt><trkpt lon="5.823282" lat="50.898946"><ele>134</ele><time>2022-05-29T07:40:06.000Z</time></trkpt><trkpt lon="5.823226" lat="50.89901"><ele>134</ele><time>2022-05-29T07:40:07.000Z</time></trkpt><trkpt lon="5.82317" lat="50.899076"><ele>133.8</ele><time>2022-05-29T07:40:08.000Z</time></trkpt><trkpt lon="5.823112" lat="50.899144"><ele>133.6</ele><time>2022-05-29T07:40:09.000Z</time></trkpt><trkpt lon="5.823054" lat="50.899208"><ele>133.4</ele><time>2022-05-29T07:40:10.000Z</time></trkpt><trkpt lon="5.822992" lat="50.899269"><ele>133.2</ele><time>2022-05-29T07:40:11.000Z</time></trkpt><trkpt lon="5.82293" lat="50.899329"><ele>133</ele><time>2022-05-29T07:40:12.000Z</time></trkpt><trkpt lon="5.82287" lat="50.899387"><ele>132.4</ele><time>2022-05-29T07:40:13.000Z</time></trkpt><trkpt lon="5.822812" lat="50.899448"><ele>132.2</ele><time>2022-05-29T07:40:14.000Z</time></trkpt><trkpt lon="5.822751" lat="50.899511"><ele>132</ele><time>2022-05-29T07:40:15.000Z</time></trkpt><trkpt lon="5.822688" lat="50.899574"><ele>131.8</ele><time>2022-05-29T07:40:16.000Z</time></trkpt><trkpt lon="5.822628" lat="50.89963"><ele>131.4</ele><time>2022-05-29T07:40:17.000Z</time></trkpt><trkpt lon="5.822564" lat="50.899692"><ele>131.4</ele><time>2022-05-29T07:40:18.000Z</time></trkpt><trkpt lon="5.822505" lat="50.899749"><ele>131.2</ele><time>2022-05-29T07:40:19.000Z</time></trkpt><trkpt lon="5.822448" lat="50.899805"><ele>131</ele><time>2022-05-29T07:40:20.000Z</time></trkpt><trkpt lon="5.822395" lat="50.899858"><ele>130.8</ele><time>2022-05-29T07:40:21.000Z</time></trkpt><trkpt lon="5.822349" lat="50.899907"><ele>130.6</ele><time>2022-05-29T07:40:22.000Z</time></trkpt><trkpt lon="5.822311" lat="50.899951"><ele>130.4</ele><time>2022-05-29T07:40:23.000Z</time></trkpt><trkpt lon="5.822292" lat="50.89999"><ele>130.4</ele><time>2022-05-29T07:40:24.000Z</time></trkpt><trkpt lon="5.822285" lat="50.900029"><ele>130.2</ele><time>2022-05-29T07:40:25.000Z</time></trkpt><trkpt lon="5.822287" lat="50.90007"><ele>130.2</ele><time>2022-05-29T07:40:26.000Z</time></trkpt><trkpt lon="5.822284" lat="50.900111"><ele>130.2</ele><time>2022-05-29T07:40:27.000Z</time></trkpt><trkpt lon="5.822268" lat="50.900149"><ele>130.2</ele><time>2022-05-29T07:40:28.000Z</time></trkpt><trkpt lon="5.822234" lat="50.900181"><ele>130</ele><time>2022-05-29T07:40:29.000Z</time></trkpt><trkpt lon="5.822182" lat="50.900203"><ele>130</ele><time>2022-05-29T07:40:30.000Z</time></trkpt><trkpt lon="5.82212" lat="50.900222"><ele>130</ele><time>2022-05-29T07:40:31.000Z</time></trkpt><trkpt lon="5.822061" lat="50.900238"><ele>129.8</ele><time>2022-05-29T07:40:32.000Z</time></trkpt><trkpt lon="5.822008" lat="50.90026"><ele>129.8</ele><time>2022-05-29T07:40:33.000Z</time></trkpt><trkpt lon="5.82196" lat="50.900295"><ele>129.6</ele><time>2022-05-29T07:40:34.000Z</time></trkpt><trkpt lon="5.821914" lat="50.900333"><ele>129.6</ele><time>2022-05-29T07:40:35.000Z</time></trkpt><trkpt lon="5.821868" lat="50.900371"><ele>129.4</ele><time>2022-05-29T07:40:36.000Z</time></trkpt><trkpt lon="5.821827" lat="50.90041"><ele>129.4</ele><time>2022-05-29T07:40:37.000Z</time></trkpt><trkpt lon="5.821786" lat="50.900451"><ele>129.4</ele><time>2022-05-29T07:40:38.000Z</time></trkpt><trkpt lon="5.821746" lat="50.90049"><ele>129.2</ele><time>2022-05-29T07:40:39.000Z</time></trkpt><trkpt lon="5.821708" lat="50.900528"><ele>129.2</ele><time>2022-05-29T07:40:40.000Z</time></trkpt><trkpt lon="5.821671" lat="50.900566"><ele>129.2</ele><time>2022-05-29T07:40:41.000Z</time></trkpt><trkpt lon="5.821633" lat="50.900608"><ele>129.2</ele><time>2022-05-29T07:40:42.000Z</time></trkpt><trkpt lon="5.821592" lat="50.90065"><ele>129</ele><time>2022-05-29T07:40:43.000Z</time></trkpt><trkpt lon="5.821549" lat="50.900693"><ele>129</ele><time>2022-05-29T07:40:44.000Z</time></trkpt><trkpt lon="5.821506" lat="50.900739"><ele>129</ele><time>2022-05-29T07:40:45.000Z</time></trkpt><trkpt lon="5.821459" lat="50.900785"><ele>129</ele><time>2022-05-29T07:40:46.000Z</time></trkpt><trkpt lon="5.821409" lat="50.900831"><ele>128.8</ele><time>2022-05-29T07:40:47.000Z</time></trkpt><trkpt lon="5.821358" lat="50.900881"><ele>128.8</ele><time>2022-05-29T07:40:48.000Z</time></trkpt><trkpt lon="5.821306" lat="50.90093"><ele>128.6</ele><time>2022-05-29T07:40:49.000Z</time></trkpt><trkpt lon="5.821253" lat="50.90098"><ele>128.6</ele><time>2022-05-29T07:40:50.000Z</time></trkpt><trkpt lon="5.821198" lat="50.901029"><ele>128.6</ele><time>2022-05-29T07:40:51.000Z</time></trkpt><trkpt lon="5.821141" lat="50.90108"><ele>128.6</ele><time>2022-05-29T07:40:52.000Z</time></trkpt><trkpt lon="5.821084" lat="50.901133"><ele>128.4</ele><time>2022-05-29T07:40:53.000Z</time></trkpt><trkpt lon="5.821028" lat="50.901186"><ele>128.4</ele><time>2022-05-29T07:40:54.000Z</time></trkpt><trkpt lon="5.820969" lat="50.90124"><ele>128.4</ele><time>2022-05-29T07:40:55.000Z</time></trkpt><trkpt lon="5.820909" lat="50.901293"><ele>128.2</ele><time>2022-05-29T07:40:56.000Z</time></trkpt><trkpt lon="5.820848" lat="50.901347"><ele>128.2</ele><time>2022-05-29T07:40:57.000Z</time></trkpt><trkpt lon="5.820786" lat="50.9014"><ele>128.2</ele><time>2022-05-29T07:40:58.000Z</time></trkpt><trkpt lon="5.820723" lat="50.901454"><ele>128.2</ele><time>2022-05-29T07:40:59.000Z</time></trkpt><trkpt lon="5.820662" lat="50.901511"><ele>128.2</ele><time>2022-05-29T07:41:00.000Z</time></trkpt><trkpt lon="5.820602" lat="50.901564"><ele>128.2</ele><time>2022-05-29T07:41:01.000Z</time></trkpt><trkpt lon="5.820539" lat="50.901617"><ele>128.2</ele><time>2022-05-29T07:41:02.000Z</time></trkpt><trkpt lon="5.820474" lat="50.901671"><ele>128.2</ele><time>2022-05-29T07:41:03.000Z</time></trkpt><trkpt lon="5.820408" lat="50.901724"><ele>128</ele><time>2022-05-29T07:41:04.000Z</time></trkpt><trkpt lon="5.820343" lat="50.901777"><ele>128</ele><time>2022-05-29T07:41:05.000Z</time></trkpt><trkpt lon="5.820278" lat="50.901827"><ele>128</ele><time>2022-05-29T07:41:06.000Z</time></trkpt><trkpt lon="5.820211" lat="50.901881"><ele>128</ele><time>2022-05-29T07:41:07.000Z</time></trkpt><trkpt lon="5.820147" lat="50.901934"><ele>128</ele><time>2022-05-29T07:41:08.000Z</time></trkpt><trkpt lon="5.82008" lat="50.901991"><ele>128</ele><time>2022-05-29T07:41:09.000Z</time></trkpt><trkpt lon="5.820013" lat="50.902041"><ele>128</ele><time>2022-05-29T07:41:10.000Z</time></trkpt><trkpt lon="5.819946" lat="50.902093"><ele>128</ele><time>2022-05-29T07:41:11.000Z</time></trkpt><trkpt lon="5.819882" lat="50.902139"><ele>127.8</ele><time>2022-05-29T07:41:12.000Z</time></trkpt><trkpt lon="5.81982" lat="50.902187"><ele>127.8</ele><time>2022-05-29T07:41:13.000Z</time></trkpt><trkpt lon="5.819758" lat="50.902235"><ele>127.8</ele><time>2022-05-29T07:41:14.000Z</time></trkpt><trkpt lon="5.819701" lat="50.902279"><ele>128</ele><time>2022-05-29T07:41:15.000Z</time></trkpt><trkpt lon="5.819646" lat="50.90232"><ele>128.2</ele><time>2022-05-29T07:41:16.000Z</time></trkpt><trkpt lon="5.819587" lat="50.902368"><ele>128.2</ele><time>2022-05-29T07:41:17.000Z</time></trkpt><trkpt lon="5.81953" lat="50.902414"><ele>128.2</ele><time>2022-05-29T07:41:18.000Z</time></trkpt><trkpt lon="5.819472" lat="50.902463"><ele>128.4</ele><time>2022-05-29T07:41:19.000Z</time></trkpt><trkpt lon="5.81941" lat="50.902514"><ele>128.6</ele><time>2022-05-29T07:41:20.000Z</time></trkpt><trkpt lon="5.819346" lat="50.902563"><ele>128.6</ele><time>2022-05-29T07:41:21.000Z</time></trkpt><trkpt lon="5.819283" lat="50.902613"><ele>128.6</ele><time>2022-05-29T07:41:22.000Z</time></trkpt><trkpt lon="5.81922" lat="50.902666"><ele>128.6</ele><time>2022-05-29T07:41:23.000Z</time></trkpt><trkpt lon="5.819155" lat="50.902719"><ele>128.8</ele><time>2022-05-29T07:41:24.000Z</time></trkpt><trkpt lon="5.819087" lat="50.902773"><ele>128.8</ele><time>2022-05-29T07:41:25.000Z</time></trkpt><trkpt lon="5.819019" lat="50.902822"><ele>128.8</ele><time>2022-05-29T07:41:26.000Z</time></trkpt><trkpt lon="5.818951" lat="50.902873"><ele>129</ele><time>2022-05-29T07:41:27.000Z</time></trkpt><trkpt lon="5.818887" lat="50.902925"><ele>129</ele><time>2022-05-29T07:41:28.000Z</time></trkpt><trkpt lon="5.818825" lat="50.902975"><ele>129</ele><time>2022-05-29T07:41:29.000Z</time></trkpt><trkpt lon="5.818763" lat="50.903024"><ele>129.2</ele><time>2022-05-29T07:41:30.000Z</time></trkpt><trkpt lon="5.818701" lat="50.903069"><ele>129.2</ele><time>2022-05-29T07:41:31.000Z</time></trkpt><trkpt lon="5.818637" lat="50.903115"><ele>129.2</ele><time>2022-05-29T07:41:32.000Z</time></trkpt><trkpt lon="5.818575" lat="50.903163"><ele>129.4</ele><time>2022-05-29T07:41:33.000Z</time></trkpt><trkpt lon="5.818509" lat="50.903215"><ele>129.4</ele><time>2022-05-29T07:41:34.000Z</time></trkpt><trkpt lon="5.818447" lat="50.903263"><ele>129.6</ele><time>2022-05-29T07:41:35.000Z</time></trkpt><trkpt lon="5.818381" lat="50.903314"><ele>129.6</ele><time>2022-05-29T07:41:36.000Z</time></trkpt><trkpt lon="5.818316" lat="50.903362"><ele>129.6</ele><time>2022-05-29T07:41:37.000Z</time></trkpt><trkpt lon="5.818249" lat="50.903408"><ele>129.6</ele><time>2022-05-29T07:41:38.000Z</time></trkpt><trkpt lon="5.818177" lat="50.903454"><ele>129.8</ele><time>2022-05-29T07:41:39.000Z</time></trkpt><trkpt lon="5.818105" lat="50.903496"><ele>129.8</ele><time>2022-05-29T07:41:40.000Z</time></trkpt><trkpt lon="5.81803" lat="50.903539"><ele>130</ele><time>2022-05-29T07:41:41.000Z</time></trkpt><trkpt lon="5.817953" lat="50.903584"><ele>130</ele><time>2022-05-29T07:41:42.000Z</time></trkpt><trkpt lon="5.817872" lat="50.903625"><ele>130</ele><time>2022-05-29T07:41:43.000Z</time></trkpt><trkpt lon="5.817791" lat="50.903664"><ele>130</ele><time>2022-05-29T07:41:44.000Z</time></trkpt><trkpt lon="5.817707" lat="50.903705"><ele>130</ele><time>2022-05-29T07:41:45.000Z</time></trkpt><trkpt lon="5.817622" lat="50.903743"><ele>130</ele><time>2022-05-29T07:41:46.000Z</time></trkpt><trkpt lon="5.817535" lat="50.903777"><ele>130</ele><time>2022-05-29T07:41:47.000Z</time></trkpt><trkpt lon="5.817447" lat="50.903816"><ele>130</ele><time>2022-05-29T07:41:48.000Z</time></trkpt><trkpt lon="5.817359" lat="50.903853"><ele>130</ele><time>2022-05-29T07:41:49.000Z</time></trkpt><trkpt lon="5.817272" lat="50.903888"><ele>130</ele><time>2022-05-29T07:41:50.000Z</time></trkpt><trkpt lon="5.817185" lat="50.903922"><ele>130</ele><time>2022-05-29T07:41:51.000Z</time></trkpt><trkpt lon="5.817098" lat="50.903956"><ele>130</ele><time>2022-05-29T07:41:52.000Z</time></trkpt><trkpt lon="5.81701" lat="50.903987"><ele>130</ele><time>2022-05-29T07:41:53.000Z</time></trkpt><trkpt lon="5.816921" lat="50.90402"><ele>130</ele><time>2022-05-29T07:41:54.000Z</time></trkpt><trkpt lon="5.816833" lat="50.904052"><ele>130</ele><time>2022-05-29T07:41:55.000Z</time></trkpt><trkpt lon="5.816743" lat="50.904085"><ele>130</ele><time>2022-05-29T07:41:56.000Z</time></trkpt><trkpt lon="5.816652" lat="50.904116"><ele>130</ele><time>2022-05-29T07:41:57.000Z</time></trkpt><trkpt lon="5.816559" lat="50.90415"><ele>129.8</ele><time>2022-05-29T07:41:58.000Z</time></trkpt><trkpt lon="5.816469" lat="50.90418"><ele>129.8</ele><time>2022-05-29T07:41:59.000Z</time></trkpt><trkpt lon="5.816377" lat="50.904216"><ele>129.8</ele><time>2022-05-29T07:42:00.000Z</time></trkpt><trkpt lon="5.816288" lat="50.90425"><ele>129.8</ele><time>2022-05-29T07:42:01.000Z</time></trkpt><trkpt lon="5.8162" lat="50.904284"><ele>129.8</ele><time>2022-05-29T07:42:02.000Z</time></trkpt><trkpt lon="5.816112" lat="50.904319"><ele>129.8</ele><time>2022-05-29T07:42:03.000Z</time></trkpt><trkpt lon="5.816026" lat="50.904353"><ele>129.8</ele><time>2022-05-29T07:42:04.000Z</time></trkpt><trkpt lon="5.815943" lat="50.904387"><ele>129.8</ele><time>2022-05-29T07:42:05.000Z</time></trkpt><trkpt lon="5.815867" lat="50.904421"><ele>129.8</ele><time>2022-05-29T07:42:06.000Z</time></trkpt><trkpt lon="5.815795" lat="50.904456"><ele>129.8</ele><time>2022-05-29T07:42:07.000Z</time></trkpt><trkpt lon="5.815698" lat="50.904498"><ele>129.8</ele><time>2022-05-29T07:42:08.000Z</time></trkpt><trkpt lon="5.815611" lat="50.904531"><ele>129.6</ele><time>2022-05-29T07:42:09.000Z</time></trkpt><trkpt lon="5.815516" lat="50.904561"><ele>129.8</ele><time>2022-05-29T07:42:10.000Z</time></trkpt><trkpt lon="5.815425" lat="50.904588"><ele>129.6</ele><time>2022-05-29T07:42:11.000Z</time></trkpt><trkpt lon="5.815333" lat="50.90462"><ele>129.8</ele><time>2022-05-29T07:42:12.000Z</time></trkpt><trkpt lon="5.815247" lat="50.904655"><ele>129.8</ele><time>2022-05-29T07:42:13.000Z</time></trkpt><trkpt lon="5.815159" lat="50.904692"><ele>130</ele><time>2022-05-29T07:42:14.000Z</time></trkpt><trkpt lon="5.815072" lat="50.904727"><ele>130</ele><time>2022-05-29T07:42:15.000Z</time></trkpt><trkpt lon="5.814987" lat="50.904765"><ele>129.8</ele><time>2022-05-29T07:42:16.000Z</time></trkpt><trkpt lon="5.814901" lat="50.904804"><ele>129.8</ele><time>2022-05-29T07:42:17.000Z</time></trkpt><trkpt lon="5.814817" lat="50.904846"><ele>130</ele><time>2022-05-29T07:42:18.000Z</time></trkpt><trkpt lon="5.814738" lat="50.904882"><ele>130</ele><time>2022-05-29T07:42:19.000Z</time></trkpt><trkpt lon="5.814656" lat="50.904923"><ele>130.2</ele><time>2022-05-29T07:42:20.000Z</time></trkpt><trkpt lon="5.814577" lat="50.904969"><ele>130.2</ele><time>2022-05-29T07:42:21.000Z</time></trkpt><trkpt lon="5.814497" lat="50.905011"><ele>130.4</ele><time>2022-05-29T07:42:22.000Z</time></trkpt><trkpt lon="5.814417" lat="50.905052"><ele>130.6</ele><time>2022-05-29T07:42:23.000Z</time></trkpt><trkpt lon="5.814339" lat="50.905093"><ele>130.8</ele><time>2022-05-29T07:42:24.000Z</time></trkpt><trkpt lon="5.814259" lat="50.905136"><ele>131</ele><time>2022-05-29T07:42:25.000Z</time></trkpt><trkpt lon="5.814181" lat="50.905179"><ele>131.2</ele><time>2022-05-29T07:42:26.000Z</time></trkpt><trkpt lon="5.814108" lat="50.905226"><ele>131.2</ele><time>2022-05-29T07:42:27.000Z</time></trkpt><trkpt lon="5.814037" lat="50.905275"><ele>131.2</ele><time>2022-05-29T07:42:28.000Z</time></trkpt><trkpt lon="5.81397" lat="50.905326"><ele>131.2</ele><time>2022-05-29T07:42:29.000Z</time></trkpt><trkpt lon="5.813909" lat="50.905382"><ele>131</ele><time>2022-05-29T07:42:30.000Z</time></trkpt><trkpt lon="5.813856" lat="50.905442"><ele>131</ele><time>2022-05-29T07:42:31.000Z</time></trkpt><trkpt lon="5.813811" lat="50.905507"><ele>130.8</ele><time>2022-05-29T07:42:32.000Z</time></trkpt><trkpt lon="5.813769" lat="50.905576"><ele>130.6</ele><time>2022-05-29T07:42:33.000Z</time></trkpt><trkpt lon="5.813729" lat="50.905642"><ele>130.4</ele><time>2022-05-29T07:42:34.000Z</time></trkpt><trkpt lon="5.813689" lat="50.905715"><ele>130.2</ele><time>2022-05-29T07:42:35.000Z</time></trkpt><trkpt lon="5.813651" lat="50.905791"><ele>130</ele><time>2022-05-29T07:42:36.000Z</time></trkpt><trkpt lon="5.813611" lat="50.905863"><ele>129.8</ele><time>2022-05-29T07:42:37.000Z</time></trkpt><trkpt lon="5.813571" lat="50.905935"><ele>129.6</ele><time>2022-05-29T07:42:38.000Z</time></trkpt><trkpt lon="5.813531" lat="50.906006"><ele>129.4</ele><time>2022-05-29T07:42:39.000Z</time></trkpt><trkpt lon="5.813485" lat="50.906081"><ele>129</ele><time>2022-05-29T07:42:40.000Z</time></trkpt><trkpt lon="5.813441" lat="50.906153"><ele>128.8</ele><time>2022-05-29T07:42:41.000Z</time></trkpt><trkpt lon="5.813398" lat="50.906229"><ele>128.6</ele><time>2022-05-29T07:42:42.000Z</time></trkpt><trkpt lon="5.813354" lat="50.906301"><ele>128.2</ele><time>2022-05-29T07:42:43.000Z</time></trkpt><trkpt lon="5.81331" lat="50.906379"><ele>128</ele><time>2022-05-29T07:42:44.000Z</time></trkpt><trkpt lon="5.813268" lat="50.906454"><ele>127.8</ele><time>2022-05-29T07:42:45.000Z</time></trkpt><trkpt lon="5.813222" lat="50.906527"><ele>127.4</ele><time>2022-05-29T07:42:46.000Z</time></trkpt><trkpt lon="5.813173" lat="50.9066"><ele>127.2</ele><time>2022-05-29T07:42:47.000Z</time></trkpt><trkpt lon="5.813127" lat="50.906672"><ele>127</ele><time>2022-05-29T07:42:48.000Z</time></trkpt><trkpt lon="5.813085" lat="50.906744"><ele>126.8</ele><time>2022-05-29T07:42:49.000Z</time></trkpt><trkpt lon="5.813042" lat="50.906815"><ele>126.6</ele><time>2022-05-29T07:42:50.000Z</time></trkpt><trkpt lon="5.812996" lat="50.906885"><ele>126.4</ele><time>2022-05-29T07:42:51.000Z</time></trkpt><trkpt lon="5.812952" lat="50.906956"><ele>126</ele><time>2022-05-29T07:42:52.000Z</time></trkpt><trkpt lon="5.812909" lat="50.907021"><ele>125.8</ele><time>2022-05-29T07:42:53.000Z</time></trkpt><trkpt lon="5.812869" lat="50.907082"><ele>125.6</ele><time>2022-05-29T07:42:54.000Z</time></trkpt><trkpt lon="5.812827" lat="50.907146"><ele>125.6</ele><time>2022-05-29T07:42:55.000Z</time></trkpt><trkpt lon="5.812776" lat="50.907213"><ele>125.4</ele><time>2022-05-29T07:42:56.000Z</time></trkpt><trkpt lon="5.81273" lat="50.907281"><ele>125.2</ele><time>2022-05-29T07:42:57.000Z</time></trkpt><trkpt lon="5.812683" lat="50.907354"><ele>125</ele><time>2022-05-29T07:42:58.000Z</time></trkpt><trkpt lon="5.812637" lat="50.907426"><ele>125</ele><time>2022-05-29T07:42:59.000Z</time></trkpt><trkpt lon="5.81259" lat="50.9075"><ele>124.8</ele><time>2022-05-29T07:43:00.000Z</time></trkpt><trkpt lon="5.812544" lat="50.907573"><ele>124.6</ele><time>2022-05-29T07:43:01.000Z</time></trkpt><trkpt lon="5.812495" lat="50.907645"><ele>124.6</ele><time>2022-05-29T07:43:02.000Z</time></trkpt><trkpt lon="5.812447" lat="50.907717"><ele>124.4</ele><time>2022-05-29T07:43:03.000Z</time></trkpt><trkpt lon="5.812399" lat="50.90779"><ele>124.2</ele><time>2022-05-29T07:43:04.000Z</time></trkpt><trkpt lon="5.812351" lat="50.907863"><ele>124</ele><time>2022-05-29T07:43:05.000Z</time></trkpt><trkpt lon="5.812306" lat="50.907935"><ele>123.8</ele><time>2022-05-29T07:43:06.000Z</time></trkpt><trkpt lon="5.812256" lat="50.908012"><ele>123.6</ele><time>2022-05-29T07:43:07.000Z</time></trkpt><trkpt lon="5.812208" lat="50.908086"><ele>123.4</ele><time>2022-05-29T07:43:08.000Z</time></trkpt><trkpt lon="5.812162" lat="50.908155"><ele>123.2</ele><time>2022-05-29T07:43:09.000Z</time></trkpt><trkpt lon="5.812118" lat="50.908223"><ele>123</ele><time>2022-05-29T07:43:10.000Z</time></trkpt><trkpt lon="5.812075" lat="50.908288"><ele>122.8</ele><time>2022-05-29T07:43:11.000Z</time></trkpt><trkpt lon="5.81203" lat="50.908353"><ele>122.6</ele><time>2022-05-29T07:43:12.000Z</time></trkpt><trkpt lon="5.811985" lat="50.908417"><ele>122.6</ele><time>2022-05-29T07:43:13.000Z</time></trkpt><trkpt lon="5.811942" lat="50.908482"><ele>122.4</ele><time>2022-05-29T07:43:14.000Z</time></trkpt><trkpt lon="5.811901" lat="50.908542"><ele>122.2</ele><time>2022-05-29T07:43:15.000Z</time></trkpt><trkpt lon="5.811858" lat="50.908604"><ele>122</ele><time>2022-05-29T07:43:16.000Z</time></trkpt><trkpt lon="5.811811" lat="50.90867"><ele>121.8</ele><time>2022-05-29T07:43:17.000Z</time></trkpt><trkpt lon="5.811763" lat="50.908738"><ele>121.6</ele><time>2022-05-29T07:43:18.000Z</time></trkpt><trkpt lon="5.811713" lat="50.908808"><ele>121.4</ele><time>2022-05-29T07:43:19.000Z</time></trkpt><trkpt lon="5.811667" lat="50.908876"><ele>121.2</ele><time>2022-05-29T07:43:20.000Z</time></trkpt><trkpt lon="5.811623" lat="50.908945"><ele>121</ele><time>2022-05-29T07:43:21.000Z</time></trkpt><trkpt lon="5.81158" lat="50.909014"><ele>120.8</ele><time>2022-05-29T07:43:22.000Z</time></trkpt><trkpt lon="5.811534" lat="50.909086"><ele>120.8</ele><time>2022-05-29T07:43:23.000Z</time></trkpt><trkpt lon="5.811484" lat="50.909153"><ele>120.6</ele><time>2022-05-29T07:43:24.000Z</time></trkpt><trkpt lon="5.811429" lat="50.909213"><ele>120.4</ele><time>2022-05-29T07:43:25.000Z</time></trkpt><trkpt lon="5.811371" lat="50.909269"><ele>120.2</ele><time>2022-05-29T07:43:26.000Z</time></trkpt><trkpt lon="5.811309" lat="50.909323"><ele>120</ele><time>2022-05-29T07:43:27.000Z</time></trkpt><trkpt lon="5.811246" lat="50.909375"><ele>119.8</ele><time>2022-05-29T07:43:28.000Z</time></trkpt><trkpt lon="5.811184" lat="50.90942"><ele>119.6</ele><time>2022-05-29T07:43:29.000Z</time></trkpt><trkpt lon="5.811127" lat="50.909457"><ele>119.4</ele><time>2022-05-29T07:43:30.000Z</time></trkpt><trkpt lon="5.81108" lat="50.909491"><ele>119.2</ele><time>2022-05-29T07:43:31.000Z</time></trkpt><trkpt lon="5.811035" lat="50.909524"><ele>119</ele><time>2022-05-29T07:43:32.000Z</time></trkpt><trkpt lon="5.810991" lat="50.909551"><ele>118.8</ele><time>2022-05-29T07:43:33.000Z</time></trkpt><trkpt lon="5.810943" lat="50.909577"><ele>118.8</ele><time>2022-05-29T07:43:34.000Z</time></trkpt><trkpt lon="5.810888" lat="50.909599"><ele>118.6</ele><time>2022-05-29T07:43:35.000Z</time></trkpt><trkpt lon="5.810822" lat="50.909617"><ele>118.4</ele><time>2022-05-29T07:43:36.000Z</time></trkpt><trkpt lon="5.810743" lat="50.909633"><ele>118.4</ele><time>2022-05-29T07:43:37.000Z</time></trkpt><trkpt lon="5.810656" lat="50.909649"><ele>118.2</ele><time>2022-05-29T07:43:38.000Z</time></trkpt><trkpt lon="5.810564" lat="50.909669"><ele>118</ele><time>2022-05-29T07:43:39.000Z</time></trkpt><trkpt lon="5.810473" lat="50.909695"><ele>118</ele><time>2022-05-29T07:43:40.000Z</time></trkpt><trkpt lon="5.810383" lat="50.909718"><ele>117.8</ele><time>2022-05-29T07:43:41.000Z</time></trkpt><trkpt lon="5.810288" lat="50.90974"><ele>117.8</ele><time>2022-05-29T07:43:42.000Z</time></trkpt><trkpt lon="5.810193" lat="50.90976"><ele>117.6</ele><time>2022-05-29T07:43:43.000Z</time></trkpt><trkpt lon="5.81009" lat="50.909783"><ele>117.4</ele><time>2022-05-29T07:43:44.000Z</time></trkpt><trkpt lon="5.809979" lat="50.909806"><ele>117.2</ele><time>2022-05-29T07:43:45.000Z</time></trkpt><trkpt lon="5.809872" lat="50.909828"><ele>117.2</ele><time>2022-05-29T07:43:46.000Z</time></trkpt><trkpt lon="5.809762" lat="50.909846"><ele>117.2</ele><time>2022-05-29T07:43:47.000Z</time></trkpt><trkpt lon="5.809645" lat="50.909861"><ele>117</ele><time>2022-05-29T07:43:48.000Z</time></trkpt><trkpt lon="5.809529" lat="50.909872"><ele>117</ele><time>2022-05-29T07:43:49.000Z</time></trkpt><trkpt lon="5.809412" lat="50.909882"><ele>116.8</ele><time>2022-05-29T07:43:50.000Z</time></trkpt><trkpt lon="5.809298" lat="50.909886"><ele>116.8</ele><time>2022-05-29T07:43:51.000Z</time></trkpt><trkpt lon="5.809185" lat="50.909889"><ele>116.8</ele><time>2022-05-29T07:43:52.000Z</time></trkpt><trkpt lon="5.809075" lat="50.909889"><ele>116.8</ele><time>2022-05-29T07:43:53.000Z</time></trkpt><trkpt lon="5.808972" lat="50.909889"><ele>116.8</ele><time>2022-05-29T07:43:54.000Z</time></trkpt><trkpt lon="5.808879" lat="50.909888"><ele>116.6</ele><time>2022-05-29T07:43:55.000Z</time></trkpt><trkpt lon="5.808804" lat="50.909886"><ele>116.8</ele><time>2022-05-29T07:43:56.000Z</time></trkpt><trkpt lon="5.808751" lat="50.909891"><ele>116.8</ele><time>2022-05-29T07:43:57.000Z</time></trkpt><trkpt lon="5.808715" lat="50.909898"><ele>116.8</ele><time>2022-05-29T07:43:58.000Z</time></trkpt><trkpt lon="5.808686" lat="50.909904"><ele>116.8</ele><time>2022-05-29T07:43:59.000Z</time></trkpt><trkpt lon="5.808665" lat="50.909904"><ele>116.8</ele><time>2022-05-29T07:44:00.000Z</time></trkpt><trkpt lon="5.808651" lat="50.909898"><ele>116.6</ele><time>2022-05-29T07:44:01.000Z</time></trkpt><trkpt lon="5.808652" lat="50.909888"><ele>116.6</ele><time>2022-05-29T07:44:02.000Z</time></trkpt><trkpt lon="5.808666" lat="50.909882"><ele>116.6</ele><time>2022-05-29T07:44:03.000Z</time></trkpt><trkpt lon="5.80869" lat="50.909882"><ele>116.6</ele><time>2022-05-29T07:44:04.000Z</time></trkpt><trkpt lon="5.808722" lat="50.909882"><ele>116.6</ele><time>2022-05-29T07:44:05.000Z</time></trkpt><trkpt lon="5.808762" lat="50.909882"><ele>116.6</ele><time>2022-05-29T07:44:06.000Z</time></trkpt><trkpt lon="5.808807" lat="50.909882"><ele>116.6</ele><time>2022-05-29T07:44:07.000Z</time></trkpt><trkpt lon="5.808852" lat="50.909881"><ele>116.6</ele><time>2022-05-29T07:44:08.000Z</time></trkpt><trkpt lon="5.808897" lat="50.909878"><ele>116.6</ele><time>2022-05-29T07:44:09.000Z</time></trkpt><trkpt lon="5.808934" lat="50.909878"><ele>116.6</ele><time>2022-05-29T07:44:10.000Z</time></trkpt><trkpt lon="5.808987" lat="50.909869"><ele>116.6</ele><time>2022-05-29T07:44:11.000Z</time></trkpt><trkpt lon="5.809027" lat="50.909864"><ele>116.6</ele><time>2022-05-29T07:44:12.000Z</time></trkpt><trkpt lon="5.809062" lat="50.909854"><ele>116.6</ele><time>2022-05-29T07:44:13.000Z</time></trkpt><trkpt lon="5.809087" lat="50.909847"><ele>116.6</ele><time>2022-05-29T07:44:14.000Z</time></trkpt><trkpt lon="5.809103" lat="50.909843"><ele>116.8</ele><time>2022-05-29T07:44:15.000Z</time></trkpt><trkpt lon="5.80911" lat="50.909838"><ele>116.8</ele><time>2022-05-29T07:44:16.000Z</time></trkpt><trkpt lon="5.80911" lat="50.909832"><ele>116.8</ele><time>2022-05-29T07:44:17.000Z</time></trkpt><trkpt lon="5.80911" lat="50.909832"><ele>116.8</ele><time>2022-05-29T07:44:18.000Z</time></trkpt><trkpt lon="5.80911" lat="50.909832"><ele>116.8</ele><time>2022-05-29T07:44:19.000Z</time></trkpt><trkpt lon="5.809048" lat="50.909753"><ele>116.8</ele><time>2022-05-29T08:09:10.000Z</time></trkpt><trkpt lon="5.809046" lat="50.909756"><ele>116.8</ele><time>2022-05-29T08:09:11.000Z</time></trkpt><trkpt lon="5.809043" lat="50.90976"><ele>116.8</ele><time>2022-05-29T08:09:12.000Z</time></trkpt><trkpt lon="5.809043" lat="50.909764"><ele>116.8</ele><time>2022-05-29T08:09:13.000Z</time></trkpt><trkpt lon="5.809043" lat="50.909768"><ele>116.8</ele><time>2022-05-29T08:09:14.000Z</time></trkpt><trkpt lon="5.80904" lat="50.909771"><ele>116.8</ele><time>2022-05-29T08:09:15.000Z</time></trkpt><trkpt lon="5.809033" lat="50.909771"><ele>116.8</ele><time>2022-05-29T08:09:20.000Z</time></trkpt><trkpt lon="5.809033" lat="50.909774"><ele>116.8</ele><time>2022-05-29T08:09:21.000Z</time></trkpt><trkpt lon="5.809032" lat="50.909787"><ele>116.8</ele><time>2022-05-29T08:09:22.000Z</time></trkpt><trkpt lon="5.809034" lat="50.909796"><ele>116.8</ele><time>2022-05-29T08:09:23.000Z</time></trkpt><trkpt lon="5.809034" lat="50.909806"><ele>116.8</ele><time>2022-05-29T08:09:24.000Z</time></trkpt><trkpt lon="5.809031" lat="50.909811"><ele>116.8</ele><time>2022-05-29T08:09:25.000Z</time></trkpt><trkpt lon="5.809031" lat="50.909821"><ele>116.8</ele><time>2022-05-29T08:09:26.000Z</time></trkpt><trkpt lon="5.809035" lat="50.909826"><ele>116.8</ele><time>2022-05-29T08:09:27.000Z</time></trkpt><trkpt lon="5.80904" lat="50.909833"><ele>116.8</ele><time>2022-05-29T08:09:28.000Z</time></trkpt><trkpt lon="5.809053" lat="50.90984"><ele>116.8</ele><time>2022-05-29T08:09:29.000Z</time></trkpt><trkpt lon="5.809066" lat="50.909845"><ele>117</ele><time>2022-05-29T08:09:30.000Z</time></trkpt><trkpt lon="5.809073" lat="50.909855"><ele>117</ele><time>2022-05-29T08:09:31.000Z</time></trkpt><trkpt lon="5.809079" lat="50.909865"><ele>117</ele><time>2022-05-29T08:09:32.000Z</time></trkpt><trkpt lon="5.809083" lat="50.909876"><ele>117</ele><time>2022-05-29T08:09:33.000Z</time></trkpt><trkpt lon="5.809082" lat="50.909888"><ele>117</ele><time>2022-05-29T08:09:34.000Z</time></trkpt><trkpt lon="5.809073" lat="50.909898"><ele>117</ele><time>2022-05-29T08:09:35.000Z</time></trkpt><trkpt lon="5.80906" lat="50.909901"><ele>117</ele><time>2022-05-29T08:09:36.000Z</time></trkpt><trkpt lon="5.809042" lat="50.909904"><ele>117</ele><time>2022-05-29T08:09:37.000Z</time></trkpt><trkpt lon="5.809023" lat="50.909905"><ele>117</ele><time>2022-05-29T08:09:38.000Z</time></trkpt><trkpt lon="5.809004" lat="50.909908"><ele>117</ele><time>2022-05-29T08:09:39.000Z</time></trkpt><trkpt lon="5.808987" lat="50.909908"><ele>117</ele><time>2022-05-29T08:09:40.000Z</time></trkpt><trkpt lon="5.808974" lat="50.909908"><ele>117</ele><time>2022-05-29T08:09:41.000Z</time></trkpt><trkpt lon="5.808967" lat="50.909908"><ele>117</ele><time>2022-05-29T08:09:42.000Z</time></trkpt><trkpt lon="5.808969" lat="50.909908"><ele>117</ele><time>2022-05-29T08:09:43.000Z</time></trkpt><trkpt lon="5.80897" lat="50.909908"><ele>117</ele><time>2022-05-29T08:09:44.000Z</time></trkpt><trkpt lon="5.80897" lat="50.909908"><ele>117</ele><time>2022-05-29T08:09:45.000Z</time></trkpt><trkpt lon="5.80897" lat="50.909908"><ele>117</ele><time>2022-05-29T08:10:05.000Z</time></trkpt><trkpt lon="5.808966" lat="50.909909"><ele>117</ele><time>2022-05-29T08:10:06.000Z</time></trkpt><trkpt lon="5.80894" lat="50.909913"><ele>117</ele><time>2022-05-29T08:10:07.000Z</time></trkpt><trkpt lon="5.808912" lat="50.909917"><ele>117</ele><time>2022-05-29T08:10:08.000Z</time></trkpt><trkpt lon="5.808879" lat="50.909919"><ele>117</ele><time>2022-05-29T08:10:09.000Z</time></trkpt><trkpt lon="5.808837" lat="50.909916"><ele>117</ele><time>2022-05-29T08:10:10.000Z</time></trkpt><trkpt lon="5.808793" lat="50.909915"><ele>117</ele><time>2022-05-29T08:10:11.000Z</time></trkpt><trkpt lon="5.808744" lat="50.909913"><ele>116.8</ele><time>2022-05-29T08:10:12.000Z</time></trkpt><trkpt lon="5.808688" lat="50.909916"><ele>116.8</ele><time>2022-05-29T08:10:13.000Z</time></trkpt><trkpt lon="5.808627" lat="50.909915"><ele>116.8</ele><time>2022-05-29T08:10:14.000Z</time></trkpt><trkpt lon="5.808566" lat="50.909911"><ele>116.8</ele><time>2022-05-29T08:10:15.000Z</time></trkpt><trkpt lon="5.808501" lat="50.909902"><ele>116.8</ele><time>2022-05-29T08:10:16.000Z</time></trkpt><trkpt lon="5.808437" lat="50.909891"><ele>116.8</ele><time>2022-05-29T08:10:17.000Z</time></trkpt><trkpt lon="5.808365" lat="50.909875"><ele>116.8</ele><time>2022-05-29T08:10:18.000Z</time></trkpt><trkpt lon="5.808295" lat="50.90986"><ele>116.6</ele><time>2022-05-29T08:10:19.000Z</time></trkpt><trkpt lon="5.808222" lat="50.909845"><ele>116.6</ele><time>2022-05-29T08:10:20.000Z</time></trkpt><trkpt lon="5.808147" lat="50.909829"><ele>116.4</ele><time>2022-05-29T08:10:21.000Z</time></trkpt><trkpt lon="5.808073" lat="50.909814"><ele>116.4</ele><time>2022-05-29T08:10:22.000Z</time></trkpt><trkpt lon="5.807995" lat="50.909799"><ele>116.4</ele><time>2022-05-29T08:10:23.000Z</time></trkpt><trkpt lon="5.807915" lat="50.909787"><ele>116.4</ele><time>2022-05-29T08:10:24.000Z</time></trkpt><trkpt lon="5.807831" lat="50.909771"><ele>116.4</ele><time>2022-05-29T08:10:25.000Z</time></trkpt><trkpt lon="5.807745" lat="50.909752"><ele>116.4</ele><time>2022-05-29T08:10:26.000Z</time></trkpt><trkpt lon="5.807659" lat="50.909733"><ele>116.4</ele><time>2022-05-29T08:10:27.000Z</time></trkpt><trkpt lon="5.807578" lat="50.909712"><ele>116.4</ele><time>2022-05-29T08:10:28.000Z</time></trkpt><trkpt lon="5.807483" lat="50.909687"><ele>116.4</ele><time>2022-05-29T08:10:29.000Z</time></trkpt><trkpt lon="5.807395" lat="50.909662"><ele>116.4</ele><time>2022-05-29T08:10:30.000Z</time></trkpt><trkpt lon="5.807291" lat="50.909637"><ele>116.4</ele><time>2022-05-29T08:10:31.000Z</time></trkpt><trkpt lon="5.807191" lat="50.909614"><ele>116.2</ele><time>2022-05-29T08:10:32.000Z</time></trkpt><trkpt lon="5.807092" lat="50.909592"><ele>116</ele><time>2022-05-29T08:10:33.000Z</time></trkpt><trkpt lon="5.806992" lat="50.909569"><ele>115.8</ele><time>2022-05-29T08:10:34.000Z</time></trkpt><trkpt lon="5.806894" lat="50.909549"><ele>115.8</ele><time>2022-05-29T08:10:35.000Z</time></trkpt><trkpt lon="5.806796" lat="50.909527"><ele>115.8</ele><time>2022-05-29T08:10:36.000Z</time></trkpt><trkpt lon="5.806696" lat="50.909503"><ele>115.8</ele><time>2022-05-29T08:10:37.000Z</time></trkpt><trkpt lon="5.806599" lat="50.909481"><ele>116</ele><time>2022-05-29T08:10:38.000Z</time></trkpt><trkpt lon="5.806502" lat="50.909463"><ele>116</ele><time>2022-05-29T08:10:39.000Z</time></trkpt><trkpt lon="5.806402" lat="50.909442"><ele>116</ele><time>2022-05-29T08:10:40.000Z</time></trkpt><trkpt lon="5.806309" lat="50.909417"><ele>116</ele><time>2022-05-29T08:10:41.000Z</time></trkpt><trkpt lon="5.806208" lat="50.909394"><ele>116</ele><time>2022-05-29T08:10:42.000Z</time></trkpt><trkpt lon="5.806112" lat="50.909374"><ele>116</ele><time>2022-05-29T08:10:43.000Z</time></trkpt><trkpt lon="5.806014" lat="50.909351"><ele>116</ele><time>2022-05-29T08:10:44.000Z</time></trkpt><trkpt lon="5.805916" lat="50.909329"><ele>116</ele><time>2022-05-29T08:10:45.000Z</time></trkpt><trkpt lon="5.805819" lat="50.909314"><ele>116</ele><time>2022-05-29T08:10:46.000Z</time></trkpt><trkpt lon="5.805719" lat="50.909299"><ele>116</ele><time>2022-05-29T08:10:47.000Z</time></trkpt><trkpt lon="5.80562" lat="50.909284"><ele>115.8</ele><time>2022-05-29T08:10:48.000Z</time></trkpt><trkpt lon="5.805525" lat="50.909273"><ele>115.8</ele><time>2022-05-29T08:10:49.000Z</time></trkpt><trkpt lon="5.805425" lat="50.909261"><ele>115.8</ele><time>2022-05-29T08:10:50.000Z</time></trkpt><trkpt lon="5.805321" lat="50.909246"><ele>116</ele><time>2022-05-29T08:10:51.000Z</time></trkpt><trkpt lon="5.805216" lat="50.909235"><ele>116</ele><time>2022-05-29T08:10:52.000Z</time></trkpt><trkpt lon="5.805113" lat="50.909224"><ele>116</ele><time>2022-05-29T08:10:53.000Z</time></trkpt><trkpt lon="5.805009" lat="50.909213"><ele>116</ele><time>2022-05-29T08:10:54.000Z</time></trkpt><trkpt lon="5.804898" lat="50.909206"><ele>116</ele><time>2022-05-29T08:10:55.000Z</time></trkpt><trkpt lon="5.804796" lat="50.909202"><ele>116</ele><time>2022-05-29T08:10:56.000Z</time></trkpt><trkpt lon="5.80469" lat="50.909195"><ele>116.2</ele><time>2022-05-29T08:10:57.000Z</time></trkpt><trkpt lon="5.804583" lat="50.909195"><ele>116.2</ele><time>2022-05-29T08:10:58.000Z</time></trkpt><trkpt lon="5.804477" lat="50.909194"><ele>116.2</ele><time>2022-05-29T08:10:59.000Z</time></trkpt><trkpt lon="5.804374" lat="50.909186"><ele>116.2</ele><time>2022-05-29T08:11:00.000Z</time></trkpt><trkpt lon="5.804272" lat="50.909178"><ele>116</ele><time>2022-05-29T08:11:01.000Z</time></trkpt><trkpt lon="5.804176" lat="50.909171"><ele>116</ele><time>2022-05-29T08:11:02.000Z</time></trkpt><trkpt lon="5.804076" lat="50.909168"><ele>115.8</ele><time>2022-05-29T08:11:03.000Z</time></trkpt><trkpt lon="5.803974" lat="50.909167"><ele>115.8</ele><time>2022-05-29T08:11:04.000Z</time></trkpt><trkpt lon="5.803871" lat="50.90916"><ele>115.8</ele><time>2022-05-29T08:11:05.000Z</time></trkpt><trkpt lon="5.803765" lat="50.909155"><ele>115.8</ele><time>2022-05-29T08:11:06.000Z</time></trkpt><trkpt lon="5.803659" lat="50.909147"><ele>115.8</ele><time>2022-05-29T08:11:07.000Z</time></trkpt><trkpt lon="5.803551" lat="50.909136"><ele>115.8</ele><time>2022-05-29T08:11:08.000Z</time></trkpt><trkpt lon="5.803447" lat="50.909127"><ele>115.8</ele><time>2022-05-29T08:11:09.000Z</time></trkpt><trkpt lon="5.803338" lat="50.909113"><ele>115.8</ele><time>2022-05-29T08:11:10.000Z</time></trkpt><trkpt lon="5.803229" lat="50.909101"><ele>115.8</ele><time>2022-05-29T08:11:11.000Z</time></trkpt><trkpt lon="5.80312" lat="50.909084"><ele>115.6</ele><time>2022-05-29T08:11:12.000Z</time></trkpt><trkpt lon="5.803011" lat="50.909065"><ele>115.4</ele><time>2022-05-29T08:11:13.000Z</time></trkpt><trkpt lon="5.802904" lat="50.909047"><ele>115</ele><time>2022-05-29T08:11:14.000Z</time></trkpt><trkpt lon="5.802798" lat="50.909031"><ele>114.8</ele><time>2022-05-29T08:11:15.000Z</time></trkpt><trkpt lon="5.802691" lat="50.909012"><ele>114.8</ele><time>2022-05-29T08:11:16.000Z</time></trkpt><trkpt lon="5.802583" lat="50.908995"><ele>114.6</ele><time>2022-05-29T08:11:17.000Z</time></trkpt><trkpt lon="5.802473" lat="50.908982"><ele>114.6</ele><time>2022-05-29T08:11:18.000Z</time></trkpt><trkpt lon="5.802367" lat="50.908963"><ele>114.4</ele><time>2022-05-29T08:11:19.000Z</time></trkpt><trkpt lon="5.802257" lat="50.908947"><ele>114.4</ele><time>2022-05-29T08:11:20.000Z</time></trkpt><trkpt lon="5.802153" lat="50.908929"><ele>114.2</ele><time>2022-05-29T08:11:21.000Z</time></trkpt><trkpt lon="5.80205" lat="50.908914"><ele>114.2</ele><time>2022-05-29T08:11:22.000Z</time></trkpt><trkpt lon="5.801944" lat="50.908898"><ele>114</ele><time>2022-05-29T08:11:23.000Z</time></trkpt><trkpt lon="5.80184" lat="50.908882"><ele>114</ele><time>2022-05-29T08:11:24.000Z</time></trkpt><trkpt lon="5.801738" lat="50.908864"><ele>114</ele><time>2022-05-29T08:11:25.000Z</time></trkpt><trkpt lon="5.801635" lat="50.908848"><ele>113.8</ele><time>2022-05-29T08:11:26.000Z</time></trkpt><trkpt lon="5.801534" lat="50.908829"><ele>113.8</ele><time>2022-05-29T08:11:27.000Z</time></trkpt><trkpt lon="5.801432" lat="50.908809"><ele>114</ele><time>2022-05-29T08:11:28.000Z</time></trkpt><trkpt lon="5.801331" lat="50.908787"><ele>113.8</ele><time>2022-05-29T08:11:29.000Z</time></trkpt><trkpt lon="5.801232" lat="50.908767"><ele>113.8</ele><time>2022-05-29T08:11:30.000Z</time></trkpt><trkpt lon="5.80113" lat="50.908745"><ele>113.8</ele><time>2022-05-29T08:11:31.000Z</time></trkpt><trkpt lon="5.801029" lat="50.908726"><ele>114</ele><time>2022-05-29T08:11:32.000Z</time></trkpt><trkpt lon="5.800927" lat="50.908706"><ele>114</ele><time>2022-05-29T08:11:33.000Z</time></trkpt><trkpt lon="5.800826" lat="50.908683"><ele>114.2</ele><time>2022-05-29T08:11:34.000Z</time></trkpt><trkpt lon="5.800727" lat="50.908661"><ele>114.4</ele><time>2022-05-29T08:11:35.000Z</time></trkpt><trkpt lon="5.800624" lat="50.908638"><ele>114.4</ele><time>2022-05-29T08:11:36.000Z</time></trkpt><trkpt lon="5.800523" lat="50.908615"><ele>114.6</ele><time>2022-05-29T08:11:37.000Z</time></trkpt><trkpt lon="5.800423" lat="50.908592"><ele>114.6</ele><time>2022-05-29T08:11:38.000Z</time></trkpt><trkpt lon="5.800324" lat="50.908569"><ele>114.6</ele><time>2022-05-29T08:11:39.000Z</time></trkpt><trkpt lon="5.800223" lat="50.908542"><ele>114.6</ele><time>2022-05-29T08:11:40.000Z</time></trkpt><trkpt lon="5.800123" lat="50.908519"><ele>114.6</ele><time>2022-05-29T08:11:41.000Z</time></trkpt><trkpt lon="5.800024" lat="50.908497"><ele>114.8</ele><time>2022-05-29T08:11:42.000Z</time></trkpt><trkpt lon="5.799925" lat="50.908474"><ele>115</ele><time>2022-05-29T08:11:43.000Z</time></trkpt><trkpt lon="5.799828" lat="50.90845"><ele>115</ele><time>2022-05-29T08:11:44.000Z</time></trkpt><trkpt lon="5.799731" lat="50.908425"><ele>115</ele><time>2022-05-29T08:11:45.000Z</time></trkpt><trkpt lon="5.799633" lat="50.908402"><ele>115</ele><time>2022-05-29T08:11:46.000Z</time></trkpt><trkpt lon="5.799537" lat="50.908378"><ele>115.2</ele><time>2022-05-29T08:11:47.000Z</time></trkpt><trkpt lon="5.799439" lat="50.908352"><ele>115.2</ele><time>2022-05-29T08:11:48.000Z</time></trkpt><trkpt lon="5.799344" lat="50.908329"><ele>115.2</ele><time>2022-05-29T08:11:49.000Z</time></trkpt><trkpt lon="5.799248" lat="50.908305"><ele>115.4</ele><time>2022-05-29T08:11:50.000Z</time></trkpt><trkpt lon="5.799152" lat="50.908279"><ele>115.4</ele><time>2022-05-29T08:11:51.000Z</time></trkpt><trkpt lon="5.799052" lat="50.908253"><ele>115.4</ele><time>2022-05-29T08:11:52.000Z</time></trkpt><trkpt lon="5.798952" lat="50.90823"><ele>115.2</ele><time>2022-05-29T08:11:53.000Z</time></trkpt><trkpt lon="5.798852" lat="50.90821"><ele>115</ele><time>2022-05-29T08:11:54.000Z</time></trkpt><trkpt lon="5.798754" lat="50.908187"><ele>115.2</ele><time>2022-05-29T08:11:55.000Z</time></trkpt><trkpt lon="5.798657" lat="50.908166"><ele>115.2</ele><time>2022-05-29T08:11:56.000Z</time></trkpt><trkpt lon="5.798558" lat="50.908145"><ele>115.2</ele><time>2022-05-29T08:11:57.000Z</time></trkpt><trkpt lon="5.79846" lat="50.908119"><ele>115.2</ele><time>2022-05-29T08:11:58.000Z</time></trkpt><trkpt lon="5.79836" lat="50.908096"><ele>115.2</ele><time>2022-05-29T08:11:59.000Z</time></trkpt><trkpt lon="5.79826" lat="50.908073"><ele>115.2</ele><time>2022-05-29T08:12:00.000Z</time></trkpt><trkpt lon="5.79816" lat="50.90805"><ele>115.2</ele><time>2022-05-29T08:12:01.000Z</time></trkpt><trkpt lon="5.798062" lat="50.908027"><ele>115.4</ele><time>2022-05-29T08:12:02.000Z</time></trkpt><trkpt lon="5.797966" lat="50.908005"><ele>115.4</ele><time>2022-05-29T08:12:03.000Z</time></trkpt><trkpt lon="5.797868" lat="50.907982"><ele>115.4</ele><time>2022-05-29T08:12:04.000Z</time></trkpt><trkpt lon="5.797766" lat="50.907959"><ele>115.6</ele><time>2022-05-29T08:12:05.000Z</time></trkpt><trkpt lon="5.79767" lat="50.907936"><ele>115.6</ele><time>2022-05-29T08:12:06.000Z</time></trkpt><trkpt lon="5.797571" lat="50.907913"><ele>115.6</ele><time>2022-05-29T08:12:07.000Z</time></trkpt><trkpt lon="5.797472" lat="50.907891"><ele>115.6</ele><time>2022-05-29T08:12:08.000Z</time></trkpt><trkpt lon="5.797375" lat="50.907871"><ele>115.8</ele><time>2022-05-29T08:12:09.000Z</time></trkpt><trkpt lon="5.797275" lat="50.907849"><ele>115.8</ele><time>2022-05-29T08:12:10.000Z</time></trkpt><trkpt lon="5.797178" lat="50.907831"><ele>115.8</ele><time>2022-05-29T08:12:11.000Z</time></trkpt><trkpt lon="5.797083" lat="50.907816"><ele>115.8</ele><time>2022-05-29T08:12:12.000Z</time></trkpt><trkpt lon="5.796971" lat="50.907796"><ele>115.8</ele><time>2022-05-29T08:12:13.000Z</time></trkpt><trkpt lon="5.796865" lat="50.90778"><ele>116</ele><time>2022-05-29T08:12:14.000Z</time></trkpt><trkpt lon="5.796761" lat="50.907761"><ele>116</ele><time>2022-05-29T08:12:15.000Z</time></trkpt><trkpt lon="5.796656" lat="50.907743"><ele>116</ele><time>2022-05-29T08:12:16.000Z</time></trkpt><trkpt lon="5.796554" lat="50.907728"><ele>116.2</ele><time>2022-05-29T08:12:17.000Z</time></trkpt><trkpt lon="5.796445" lat="50.907713"><ele>116</ele><time>2022-05-29T08:12:18.000Z</time></trkpt><trkpt lon="5.796338" lat="50.907701"><ele>116.2</ele><time>2022-05-29T08:12:19.000Z</time></trkpt><trkpt lon="5.796227" lat="50.907691"><ele>116</ele><time>2022-05-29T08:12:20.000Z</time></trkpt><trkpt lon="5.796119" lat="50.907682"><ele>116</ele><time>2022-05-29T08:12:21.000Z</time></trkpt><trkpt lon="5.79601" lat="50.907672"><ele>115.8</ele><time>2022-05-29T08:12:22.000Z</time></trkpt><trkpt lon="5.795898" lat="50.907664"><ele>115.8</ele><time>2022-05-29T08:12:23.000Z</time></trkpt><trkpt lon="5.795786" lat="50.907657"><ele>115.6</ele><time>2022-05-29T08:12:24.000Z</time></trkpt><trkpt lon="5.795673" lat="50.907653"><ele>115.4</ele><time>2022-05-29T08:12:25.000Z</time></trkpt><trkpt lon="5.795561" lat="50.907649"><ele>115.2</ele><time>2022-05-29T08:12:26.000Z</time></trkpt><trkpt lon="5.795445" lat="50.907646"><ele>115.2</ele><time>2022-05-29T08:12:27.000Z</time></trkpt><trkpt lon="5.795332" lat="50.907645"><ele>115</ele><time>2022-05-29T08:12:28.000Z</time></trkpt><trkpt lon="5.79522" lat="50.907642"><ele>114.8</ele><time>2022-05-29T08:12:29.000Z</time></trkpt><trkpt lon="5.795109" lat="50.907642"><ele>114.6</ele><time>2022-05-29T08:12:30.000Z</time></trkpt><trkpt lon="5.794991" lat="50.907643"><ele>114.4</ele><time>2022-05-29T08:12:31.000Z</time></trkpt><trkpt lon="5.794875" lat="50.907646"><ele>114.4</ele><time>2022-05-29T08:12:32.000Z</time></trkpt><trkpt lon="5.794757" lat="50.907647"><ele>114.4</ele><time>2022-05-29T08:12:33.000Z</time></trkpt><trkpt lon="5.794642" lat="50.907651"><ele>114.2</ele><time>2022-05-29T08:12:34.000Z</time></trkpt><trkpt lon="5.794526" lat="50.907654"><ele>114.2</ele><time>2022-05-29T08:12:35.000Z</time></trkpt><trkpt lon="5.794414" lat="50.907658"><ele>114.2</ele><time>2022-05-29T08:12:36.000Z</time></trkpt><trkpt lon="5.794312" lat="50.907661"><ele>114</ele><time>2022-05-29T08:12:37.000Z</time></trkpt><trkpt lon="5.794191" lat="50.907669"><ele>114</ele><time>2022-05-29T08:12:38.000Z</time></trkpt><trkpt lon="5.794069" lat="50.907677"><ele>113.8</ele><time>2022-05-29T08:12:39.000Z</time></trkpt><trkpt lon="5.793941" lat="50.907685"><ele>113.8</ele><time>2022-05-29T08:12:40.000Z</time></trkpt><trkpt lon="5.793825" lat="50.90769"><ele>113.6</ele><time>2022-05-29T08:12:41.000Z</time></trkpt><trkpt lon="5.793707" lat="50.907697"><ele>113.6</ele><time>2022-05-29T08:12:42.000Z</time></trkpt><trkpt lon="5.793588" lat="50.907704"><ele>113.4</ele><time>2022-05-29T08:12:43.000Z</time></trkpt><trkpt lon="5.793467" lat="50.907709"><ele>113.4</ele><time>2022-05-29T08:12:44.000Z</time></trkpt><trkpt lon="5.793348" lat="50.907715"><ele>113.4</ele><time>2022-05-29T08:12:45.000Z</time></trkpt><trkpt lon="5.793226" lat="50.907721"><ele>113.2</ele><time>2022-05-29T08:12:46.000Z</time></trkpt><trkpt lon="5.793106" lat="50.907731"><ele>113.2</ele><time>2022-05-29T08:12:47.000Z</time></trkpt><trkpt lon="5.792985" lat="50.907735"><ele>113</ele><time>2022-05-29T08:12:48.000Z</time></trkpt><trkpt lon="5.792866" lat="50.907743"><ele>112.8</ele><time>2022-05-29T08:12:49.000Z</time></trkpt><trkpt lon="5.79275" lat="50.90775"><ele>112.6</ele><time>2022-05-29T08:12:50.000Z</time></trkpt><trkpt lon="5.792624" lat="50.907754"><ele>112.4</ele><time>2022-05-29T08:12:51.000Z</time></trkpt><trkpt lon="5.792501" lat="50.907758"><ele>112.4</ele><time>2022-05-29T08:12:52.000Z</time></trkpt><trkpt lon="5.792382" lat="50.907766"><ele>112.2</ele><time>2022-05-29T08:12:53.000Z</time></trkpt><trkpt lon="5.79226" lat="50.907773"><ele>112.2</ele><time>2022-05-29T08:12:54.000Z</time></trkpt><trkpt lon="5.792139" lat="50.90778"><ele>112</ele><time>2022-05-29T08:12:55.000Z</time></trkpt><trkpt lon="5.79202" lat="50.907784"><ele>111.8</ele><time>2022-05-29T08:12:56.000Z</time></trkpt><trkpt lon="5.791905" lat="50.907788"><ele>111.8</ele><time>2022-05-29T08:12:57.000Z</time></trkpt><trkpt lon="5.79178" lat="50.907796"><ele>111.6</ele><time>2022-05-29T08:12:58.000Z</time></trkpt><trkpt lon="5.79166" lat="50.907804"><ele>111.4</ele><time>2022-05-29T08:12:59.000Z</time></trkpt><trkpt lon="5.791541" lat="50.907812"><ele>111.4</ele><time>2022-05-29T08:13:00.000Z</time></trkpt><trkpt lon="5.791424" lat="50.907823"><ele>111.2</ele><time>2022-05-29T08:13:01.000Z</time></trkpt><trkpt lon="5.791307" lat="50.90783"><ele>111</ele><time>2022-05-29T08:13:02.000Z</time></trkpt><trkpt lon="5.791183" lat="50.907834"><ele>111</ele><time>2022-05-29T08:13:03.000Z</time></trkpt><trkpt lon="5.791071" lat="50.907841"><ele>110.8</ele><time>2022-05-29T08:13:04.000Z</time></trkpt><trkpt lon="5.790953" lat="50.907846"><ele>110.8</ele><time>2022-05-29T08:13:05.000Z</time></trkpt><trkpt lon="5.790835" lat="50.907854"><ele>110.6</ele><time>2022-05-29T08:13:06.000Z</time></trkpt><trkpt lon="5.790722" lat="50.907861"><ele>110.6</ele><time>2022-05-29T08:13:07.000Z</time></trkpt><trkpt lon="5.79061" lat="50.907868"><ele>110.6</ele><time>2022-05-29T08:13:08.000Z</time></trkpt><trkpt lon="5.790507" lat="50.907872"><ele>110.6</ele><time>2022-05-29T08:13:09.000Z</time></trkpt><trkpt lon="5.790399" lat="50.907878"><ele>110.4</ele><time>2022-05-29T08:13:10.000Z</time></trkpt><trkpt lon="5.790299" lat="50.907893"><ele>110.4</ele><time>2022-05-29T08:13:11.000Z</time></trkpt><trkpt lon="5.790192" lat="50.907913"><ele>110.4</ele><time>2022-05-29T08:13:12.000Z</time></trkpt><trkpt lon="5.790087" lat="50.90793"><ele>110.2</ele><time>2022-05-29T08:13:13.000Z</time></trkpt><trkpt lon="5.789978" lat="50.907938"><ele>110.2</ele><time>2022-05-29T08:13:14.000Z</time></trkpt><trkpt lon="5.789868" lat="50.907944"><ele>110.2</ele><time>2022-05-29T08:13:15.000Z</time></trkpt><trkpt lon="5.789763" lat="50.907947"><ele>110.2</ele><time>2022-05-29T08:13:16.000Z</time></trkpt><trkpt lon="5.789653" lat="50.907942"><ele>110</ele><time>2022-05-29T08:13:17.000Z</time></trkpt><trkpt lon="5.789543" lat="50.90793"><ele>109.8</ele><time>2022-05-29T08:13:18.000Z</time></trkpt><trkpt lon="5.789436" lat="50.90792"><ele>109.8</ele><time>2022-05-29T08:13:19.000Z</time></trkpt><trkpt lon="5.789323" lat="50.907918"><ele>109.6</ele><time>2022-05-29T08:13:20.000Z</time></trkpt><trkpt lon="5.789208" lat="50.907926"><ele>109.6</ele><time>2022-05-29T08:13:21.000Z</time></trkpt><trkpt lon="5.78909" lat="50.907934"><ele>109.6</ele><time>2022-05-29T08:13:22.000Z</time></trkpt><trkpt lon="5.788971" lat="50.907941"><ele>109.6</ele><time>2022-05-29T08:13:23.000Z</time></trkpt><trkpt lon="5.788855" lat="50.907948"><ele>109.4</ele><time>2022-05-29T08:13:24.000Z</time></trkpt><trkpt lon="5.78874" lat="50.907953"><ele>109.2</ele><time>2022-05-29T08:13:25.000Z</time></trkpt><trkpt lon="5.78863" lat="50.90796"><ele>109.2</ele><time>2022-05-29T08:13:26.000Z</time></trkpt><trkpt lon="5.788522" lat="50.907963"><ele>109</ele><time>2022-05-29T08:13:27.000Z</time></trkpt><trkpt lon="5.788408" lat="50.907967"><ele>109</ele><time>2022-05-29T08:13:28.000Z</time></trkpt><trkpt lon="5.788293" lat="50.90797"><ele>109</ele><time>2022-05-29T08:13:29.000Z</time></trkpt><trkpt lon="5.788182" lat="50.907971"><ele>109</ele><time>2022-05-29T08:13:30.000Z</time></trkpt><trkpt lon="5.788063" lat="50.907976"><ele>109</ele><time>2022-05-29T08:13:31.000Z</time></trkpt><trkpt lon="5.787949" lat="50.907983"><ele>109</ele><time>2022-05-29T08:13:32.000Z</time></trkpt><trkpt lon="5.787835" lat="50.907988"><ele>109</ele><time>2022-05-29T08:13:33.000Z</time></trkpt><trkpt lon="5.787722" lat="50.907998"><ele>108.8</ele><time>2022-05-29T08:13:34.000Z</time></trkpt><trkpt lon="5.787616" lat="50.908005"><ele>108.6</ele><time>2022-05-29T08:13:35.000Z</time></trkpt><trkpt lon="5.787506" lat="50.908008"><ele>108.6</ele><time>2022-05-29T08:13:36.000Z</time></trkpt><trkpt lon="5.787402" lat="50.908003"><ele>108.4</ele><time>2022-05-29T08:13:37.000Z</time></trkpt><trkpt lon="5.787299" lat="50.907997"><ele>108.4</ele><time>2022-05-29T08:13:38.000Z</time></trkpt><trkpt lon="5.787195" lat="50.907991"><ele>108.4</ele><time>2022-05-29T08:13:39.000Z</time></trkpt><trkpt lon="5.787095" lat="50.907979"><ele>108.4</ele><time>2022-05-29T08:13:40.000Z</time></trkpt><trkpt lon="5.786993" lat="50.907962"><ele>108</ele><time>2022-05-29T08:13:41.000Z</time></trkpt><trkpt lon="5.786893" lat="50.907939"><ele>107.8</ele><time>2022-05-29T08:13:42.000Z</time></trkpt><trkpt lon="5.786796" lat="50.907916"><ele>107.8</ele><time>2022-05-29T08:13:43.000Z</time></trkpt><trkpt lon="5.786697" lat="50.907888"><ele>107.6</ele><time>2022-05-29T08:13:44.000Z</time></trkpt><trkpt lon="5.786599" lat="50.907853"><ele>107.4</ele><time>2022-05-29T08:13:45.000Z</time></trkpt><trkpt lon="5.786501" lat="50.907818"><ele>107.2</ele><time>2022-05-29T08:13:46.000Z</time></trkpt><trkpt lon="5.786405" lat="50.907779"><ele>107.2</ele><time>2022-05-29T08:13:47.000Z</time></trkpt><trkpt lon="5.786312" lat="50.907734"><ele>107</ele><time>2022-05-29T08:13:48.000Z</time></trkpt><trkpt lon="5.786221" lat="50.907692"><ele>107.2</ele><time>2022-05-29T08:13:49.000Z</time></trkpt><trkpt lon="5.786131" lat="50.90764"><ele>107.2</ele><time>2022-05-29T08:13:50.000Z</time></trkpt><trkpt lon="5.78605" lat="50.907588"><ele>107.2</ele><time>2022-05-29T08:13:51.000Z</time></trkpt><trkpt lon="5.785967" lat="50.907535"><ele>107</ele><time>2022-05-29T08:13:52.000Z</time></trkpt><trkpt lon="5.785882" lat="50.907484"><ele>106.8</ele><time>2022-05-29T08:13:53.000Z</time></trkpt><trkpt lon="5.785801" lat="50.907433"><ele>106.8</ele><time>2022-05-29T08:13:54.000Z</time></trkpt><trkpt lon="5.785717" lat="50.907379"><ele>106.8</ele><time>2022-05-29T08:13:55.000Z</time></trkpt><trkpt lon="5.785646" lat="50.907334"><ele>106.4</ele><time>2022-05-29T08:13:56.000Z</time></trkpt><trkpt lon="5.785547" lat="50.907273"><ele>106.4</ele><time>2022-05-29T08:13:57.000Z</time></trkpt><trkpt lon="5.785464" lat="50.90722"><ele>106.4</ele><time>2022-05-29T08:13:58.000Z</time></trkpt><trkpt lon="5.785382" lat="50.907168"><ele>106.2</ele><time>2022-05-29T08:13:59.000Z</time></trkpt><trkpt lon="5.785302" lat="50.907118"><ele>106.2</ele><time>2022-05-29T08:14:00.000Z</time></trkpt><trkpt lon="5.785222" lat="50.907061"><ele>106</ele><time>2022-05-29T08:14:01.000Z</time></trkpt><trkpt lon="5.785141" lat="50.907007"><ele>105.8</ele><time>2022-05-29T08:14:02.000Z</time></trkpt><trkpt lon="5.785061" lat="50.906954"><ele>105.6</ele><time>2022-05-29T08:14:03.000Z</time></trkpt><trkpt lon="5.78498" lat="50.906901"><ele>105.4</ele><time>2022-05-29T08:14:04.000Z</time></trkpt><trkpt lon="5.784901" lat="50.906847"><ele>105.2</ele><time>2022-05-29T08:14:05.000Z</time></trkpt><trkpt lon="5.784821" lat="50.906795"><ele>104.8</ele><time>2022-05-29T08:14:06.000Z</time></trkpt><trkpt lon="5.784735" lat="50.906745"><ele>104.4</ele><time>2022-05-29T08:14:07.000Z</time></trkpt><trkpt lon="5.784651" lat="50.906694"><ele>104.2</ele><time>2022-05-29T08:14:08.000Z</time></trkpt><trkpt lon="5.78457" lat="50.906642"><ele>104.2</ele><time>2022-05-29T08:14:09.000Z</time></trkpt><trkpt lon="5.784485" lat="50.906587"><ele>104.2</ele><time>2022-05-29T08:14:10.000Z</time></trkpt><trkpt lon="5.784404" lat="50.906535"><ele>104.2</ele><time>2022-05-29T08:14:11.000Z</time></trkpt><trkpt lon="5.784323" lat="50.90648"><ele>104.2</ele><time>2022-05-29T08:14:12.000Z</time></trkpt><trkpt lon="5.784245" lat="50.906425"><ele>104.2</ele><time>2022-05-29T08:14:13.000Z</time></trkpt><trkpt lon="5.784164" lat="50.906374"><ele>104.2</ele><time>2022-05-29T08:14:14.000Z</time></trkpt><trkpt lon="5.784086" lat="50.90632"><ele>104</ele><time>2022-05-29T08:14:15.000Z</time></trkpt><trkpt lon="5.784012" lat="50.906269"><ele>104</ele><time>2022-05-29T08:14:16.000Z</time></trkpt><trkpt lon="5.783941" lat="50.906226"><ele>103.8</ele><time>2022-05-29T08:14:17.000Z</time></trkpt><trkpt lon="5.783873" lat="50.906178"><ele>103.8</ele><time>2022-05-29T08:14:18.000Z</time></trkpt><trkpt lon="5.783798" lat="50.906131"><ele>103.6</ele><time>2022-05-29T08:14:19.000Z</time></trkpt><trkpt lon="5.783717" lat="50.906086"><ele>103.4</ele><time>2022-05-29T08:14:20.000Z</time></trkpt><trkpt lon="5.783634" lat="50.906045"><ele>103.2</ele><time>2022-05-29T08:14:21.000Z</time></trkpt><trkpt lon="5.783545" lat="50.906002"><ele>102.8</ele><time>2022-05-29T08:14:22.000Z</time></trkpt><trkpt lon="5.783453" lat="50.905955"><ele>102.6</ele><time>2022-05-29T08:14:23.000Z</time></trkpt><trkpt lon="5.783361" lat="50.90591"><ele>102.6</ele><time>2022-05-29T08:14:24.000Z</time></trkpt><trkpt lon="5.783264" lat="50.905864"><ele>102.4</ele><time>2022-05-29T08:14:25.000Z</time></trkpt><trkpt lon="5.783162" lat="50.905819"><ele>102</ele><time>2022-05-29T08:14:26.000Z</time></trkpt><trkpt lon="5.783059" lat="50.905778"><ele>101.8</ele><time>2022-05-29T08:14:27.000Z</time></trkpt><trkpt lon="5.782947" lat="50.905738"><ele>101.4</ele><time>2022-05-29T08:14:28.000Z</time></trkpt><trkpt lon="5.782834" lat="50.905696"><ele>101.2</ele><time>2022-05-29T08:14:29.000Z</time></trkpt><trkpt lon="5.782722" lat="50.905652"><ele>100.8</ele><time>2022-05-29T08:14:30.000Z</time></trkpt><trkpt lon="5.782604" lat="50.905612"><ele>100.6</ele><time>2022-05-29T08:14:31.000Z</time></trkpt><trkpt lon="5.782492" lat="50.905569"><ele>100.4</ele><time>2022-05-29T08:14:32.000Z</time></trkpt><trkpt lon="5.782378" lat="50.90553"><ele>100</ele><time>2022-05-29T08:14:33.000Z</time></trkpt><trkpt lon="5.782264" lat="50.905488"><ele>99.8</ele><time>2022-05-29T08:14:34.000Z</time></trkpt><trkpt lon="5.782157" lat="50.905451"><ele>99.4</ele><time>2022-05-29T08:14:35.000Z</time></trkpt><trkpt lon="5.782044" lat="50.90541"><ele>99</ele><time>2022-05-29T08:14:36.000Z</time></trkpt><trkpt lon="5.781941" lat="50.905366"><ele>98.8</ele><time>2022-05-29T08:14:37.000Z</time></trkpt><trkpt lon="5.781832" lat="50.905322"><ele>98.4</ele><time>2022-05-29T08:14:38.000Z</time></trkpt><trkpt lon="5.781733" lat="50.905275"><ele>98.2</ele><time>2022-05-29T08:14:39.000Z</time></trkpt><trkpt lon="5.781628" lat="50.905221"><ele>98</ele><time>2022-05-29T08:14:40.000Z</time></trkpt><trkpt lon="5.781532" lat="50.905164"><ele>97.6</ele><time>2022-05-29T08:14:41.000Z</time></trkpt><trkpt lon="5.78144" lat="50.905108"><ele>97.4</ele><time>2022-05-29T08:14:42.000Z</time></trkpt><trkpt lon="5.781339" lat="50.905044"><ele>97</ele><time>2022-05-29T08:14:43.000Z</time></trkpt><trkpt lon="5.781241" lat="50.904984"><ele>96.4</ele><time>2022-05-29T08:14:44.000Z</time></trkpt><trkpt lon="5.781147" lat="50.904927"><ele>96.2</ele><time>2022-05-29T08:14:45.000Z</time></trkpt><trkpt lon="5.781061" lat="50.904874"><ele>96</ele><time>2022-05-29T08:14:46.000Z</time></trkpt><trkpt lon="5.780949" lat="50.904811"><ele>95.6</ele><time>2022-05-29T08:14:47.000Z</time></trkpt><trkpt lon="5.780849" lat="50.904757"><ele>95.4</ele><time>2022-05-29T08:14:48.000Z</time></trkpt><trkpt lon="5.780736" lat="50.904706"><ele>95</ele><time>2022-05-29T08:14:49.000Z</time></trkpt><trkpt lon="5.780621" lat="50.904658"><ele>95</ele><time>2022-05-29T08:14:50.000Z</time></trkpt><trkpt lon="5.780516" lat="50.904614"><ele>94.8</ele><time>2022-05-29T08:14:51.000Z</time></trkpt><trkpt lon="5.780401" lat="50.904567"><ele>94.6</ele><time>2022-05-29T08:14:52.000Z</time></trkpt><trkpt lon="5.780285" lat="50.904528"><ele>94.4</ele><time>2022-05-29T08:14:53.000Z</time></trkpt><trkpt lon="5.780167" lat="50.904497"><ele>94.2</ele><time>2022-05-29T08:14:54.000Z</time></trkpt><trkpt lon="5.780047" lat="50.904468"><ele>94</ele><time>2022-05-29T08:14:55.000Z</time></trkpt><trkpt lon="5.779928" lat="50.904446"><ele>93.8</ele><time>2022-05-29T08:14:56.000Z</time></trkpt><trkpt lon="5.779802" lat="50.904422"><ele>93.6</ele><time>2022-05-29T08:14:57.000Z</time></trkpt><trkpt lon="5.779678" lat="50.904401"><ele>93.6</ele><time>2022-05-29T08:14:58.000Z</time></trkpt><trkpt lon="5.779555" lat="50.904385"><ele>93.6</ele><time>2022-05-29T08:14:59.000Z</time></trkpt><trkpt lon="5.779432" lat="50.904365"><ele>93.4</ele><time>2022-05-29T08:15:00.000Z</time></trkpt><trkpt lon="5.779312" lat="50.904342"><ele>93.4</ele><time>2022-05-29T08:15:01.000Z</time></trkpt><trkpt lon="5.779192" lat="50.904318"><ele>93.4</ele><time>2022-05-29T08:15:02.000Z</time></trkpt><trkpt lon="5.779076" lat="50.904292"><ele>93.2</ele><time>2022-05-29T08:15:03.000Z</time></trkpt><trkpt lon="5.778962" lat="50.904264"><ele>93.2</ele><time>2022-05-29T08:15:04.000Z</time></trkpt><trkpt lon="5.778853" lat="50.904229"><ele>93</ele><time>2022-05-29T08:15:05.000Z</time></trkpt><trkpt lon="5.778741" lat="50.904191"><ele>93</ele><time>2022-05-29T08:15:06.000Z</time></trkpt><trkpt lon="5.778632" lat="50.904157"><ele>92.8</ele><time>2022-05-29T08:15:07.000Z</time></trkpt><trkpt lon="5.778521" lat="50.904118"><ele>92.8</ele><time>2022-05-29T08:15:08.000Z</time></trkpt><trkpt lon="5.77841" lat="50.904076"><ele>92.6</ele><time>2022-05-29T08:15:09.000Z</time></trkpt><trkpt lon="5.778303" lat="50.904037"><ele>92.4</ele><time>2022-05-29T08:15:10.000Z</time></trkpt><trkpt lon="5.7782" lat="50.903997"><ele>92.2</ele><time>2022-05-29T08:15:11.000Z</time></trkpt><trkpt lon="5.778096" lat="50.903959"><ele>92.2</ele><time>2022-05-29T08:15:12.000Z</time></trkpt><trkpt lon="5.777986" lat="50.903915"><ele>92</ele><time>2022-05-29T08:15:13.000Z</time></trkpt><trkpt lon="5.777879" lat="50.903874"><ele>91.8</ele><time>2022-05-29T08:15:14.000Z</time></trkpt><trkpt lon="5.777774" lat="50.903832"><ele>91.6</ele><time>2022-05-29T08:15:15.000Z</time></trkpt><trkpt lon="5.777668" lat="50.90379"><ele>91.4</ele><time>2022-05-29T08:15:16.000Z</time></trkpt><trkpt lon="5.777558" lat="50.903747"><ele>91.2</ele><time>2022-05-29T08:15:17.000Z</time></trkpt><trkpt lon="5.777454" lat="50.903705"><ele>91</ele><time>2022-05-29T08:15:18.000Z</time></trkpt><trkpt lon="5.777351" lat="50.90366"><ele>91</ele><time>2022-05-29T08:15:19.000Z</time></trkpt><trkpt lon="5.777247" lat="50.903618"><ele>90.8</ele><time>2022-05-29T08:15:20.000Z</time></trkpt><trkpt lon="5.777146" lat="50.903576"><ele>90.6</ele><time>2022-05-29T08:15:21.000Z</time></trkpt><trkpt lon="5.777041" lat="50.903534"><ele>90.6</ele><time>2022-05-29T08:15:22.000Z</time></trkpt><trkpt lon="5.77694" lat="50.903491"><ele>90.2</ele><time>2022-05-29T08:15:23.000Z</time></trkpt><trkpt lon="5.776838" lat="50.903446"><ele>89.8</ele><time>2022-05-29T08:15:24.000Z</time></trkpt><trkpt lon="5.776738" lat="50.903404"><ele>89.4</ele><time>2022-05-29T08:15:25.000Z</time></trkpt><trkpt lon="5.776637" lat="50.903358"><ele>89.2</ele><time>2022-05-29T08:15:26.000Z</time></trkpt><trkpt lon="5.776535" lat="50.903312"><ele>89</ele><time>2022-05-29T08:15:27.000Z</time></trkpt><trkpt lon="5.776433" lat="50.903271"><ele>88.8</ele><time>2022-05-29T08:15:28.000Z</time></trkpt><trkpt lon="5.776333" lat="50.903229"><ele>88.8</ele><time>2022-05-29T08:15:29.000Z</time></trkpt><trkpt lon="5.776234" lat="50.903189"><ele>88.6</ele><time>2022-05-29T08:15:30.000Z</time></trkpt><trkpt lon="5.776131" lat="50.903151"><ele>88.4</ele><time>2022-05-29T08:15:31.000Z</time></trkpt><trkpt lon="5.776022" lat="50.903116"><ele>88.2</ele><time>2022-05-29T08:15:32.000Z</time></trkpt><trkpt lon="5.775915" lat="50.903085"><ele>88.2</ele><time>2022-05-29T08:15:33.000Z</time></trkpt><trkpt lon="5.775808" lat="50.90305"><ele>88.2</ele><time>2022-05-29T08:15:34.000Z</time></trkpt><trkpt lon="5.775702" lat="50.903017"><ele>88.2</ele><time>2022-05-29T08:15:35.000Z</time></trkpt><trkpt lon="5.775595" lat="50.902986"><ele>88.2</ele><time>2022-05-29T08:15:36.000Z</time></trkpt><trkpt lon="5.775487" lat="50.902951"><ele>88.2</ele><time>2022-05-29T08:15:37.000Z</time></trkpt><trkpt lon="5.775386" lat="50.902915"><ele>88.2</ele><time>2022-05-29T08:15:38.000Z</time></trkpt><trkpt lon="5.775296" lat="50.902888"><ele>88.2</ele><time>2022-05-29T08:15:39.000Z</time></trkpt><trkpt lon="5.775203" lat="50.902859"><ele>88.2</ele><time>2022-05-29T08:15:40.000Z</time></trkpt><trkpt lon="5.775091" lat="50.90282"><ele>88.2</ele><time>2022-05-29T08:15:41.000Z</time></trkpt><trkpt lon="5.774997" lat="50.902793"><ele>88.2</ele><time>2022-05-29T08:15:42.000Z</time></trkpt><trkpt lon="5.774898" lat="50.902762"><ele>88.2</ele><time>2022-05-29T08:15:43.000Z</time></trkpt><trkpt lon="5.774806" lat="50.902731"><ele>88</ele><time>2022-05-29T08:15:44.000Z</time></trkpt><trkpt lon="5.774719" lat="50.902701"><ele>88</ele><time>2022-05-29T08:15:45.000Z</time></trkpt><trkpt lon="5.774634" lat="50.902674"><ele>88</ele><time>2022-05-29T08:15:46.000Z</time></trkpt><trkpt lon="5.774551" lat="50.902644"><ele>88</ele><time>2022-05-29T08:15:47.000Z</time></trkpt><trkpt lon="5.774472" lat="50.902619"><ele>88.2</ele><time>2022-05-29T08:15:48.000Z</time></trkpt><trkpt lon="5.774393" lat="50.902598"><ele>88.2</ele><time>2022-05-29T08:15:49.000Z</time></trkpt><trkpt lon="5.774318" lat="50.902573"><ele>88.4</ele><time>2022-05-29T08:15:50.000Z</time></trkpt><trkpt lon="5.774246" lat="50.902553"><ele>88.4</ele><time>2022-05-29T08:15:51.000Z</time></trkpt><trkpt lon="5.774171" lat="50.902526"><ele>88.6</ele><time>2022-05-29T08:15:52.000Z</time></trkpt><trkpt lon="5.77409" lat="50.902498"><ele>88.6</ele><time>2022-05-29T08:15:53.000Z</time></trkpt><trkpt lon="5.774006" lat="50.902462"><ele>88.8</ele><time>2022-05-29T08:15:54.000Z</time></trkpt><trkpt lon="5.773922" lat="50.902421"><ele>88.8</ele><time>2022-05-29T08:15:55.000Z</time></trkpt><trkpt lon="5.773836" lat="50.902382"><ele>89</ele><time>2022-05-29T08:15:56.000Z</time></trkpt><trkpt lon="5.77375" lat="50.90234"><ele>89</ele><time>2022-05-29T08:15:57.000Z</time></trkpt><trkpt lon="5.773661" lat="50.902294"><ele>89</ele><time>2022-05-29T08:15:58.000Z</time></trkpt><trkpt lon="5.773574" lat="50.902253"><ele>89</ele><time>2022-05-29T08:15:59.000Z</time></trkpt><trkpt lon="5.773492" lat="50.902214"><ele>89</ele><time>2022-05-29T08:16:00.000Z</time></trkpt><trkpt lon="5.773417" lat="50.902173"><ele>89</ele><time>2022-05-29T08:16:01.000Z</time></trkpt><trkpt lon="5.773349" lat="50.902135"><ele>89</ele><time>2022-05-29T08:16:02.000Z</time></trkpt><trkpt lon="5.77328" lat="50.902105"><ele>89.2</ele><time>2022-05-29T08:16:03.000Z</time></trkpt><trkpt lon="5.773207" lat="50.902092"><ele>89.2</ele><time>2022-05-29T08:16:04.000Z</time></trkpt><trkpt lon="5.773117" lat="50.902095"><ele>89.4</ele><time>2022-05-29T08:16:05.000Z</time></trkpt><trkpt lon="5.773043" lat="50.90212"><ele>89.4</ele><time>2022-05-29T08:16:06.000Z</time></trkpt><trkpt lon="5.772973" lat="50.90216"><ele>89.6</ele><time>2022-05-29T08:16:07.000Z</time></trkpt><trkpt lon="5.772905" lat="50.902205"><ele>89.8</ele><time>2022-05-29T08:16:08.000Z</time></trkpt><trkpt lon="5.772835" lat="50.902253"><ele>90</ele><time>2022-05-29T08:16:09.000Z</time></trkpt><trkpt lon="5.772765" lat="50.9023"><ele>90</ele><time>2022-05-29T08:16:10.000Z</time></trkpt><trkpt lon="5.772692" lat="50.90235"><ele>90.2</ele><time>2022-05-29T08:16:11.000Z</time></trkpt><trkpt lon="5.772617" lat="50.902404"><ele>90.4</ele><time>2022-05-29T08:16:12.000Z</time></trkpt><trkpt lon="5.772538" lat="50.902461"><ele>90.6</ele><time>2022-05-29T08:16:13.000Z</time></trkpt><trkpt lon="5.77246" lat="50.902514"><ele>90.8</ele><time>2022-05-29T08:16:14.000Z</time></trkpt><trkpt lon="5.772381" lat="50.902566"><ele>91.2</ele><time>2022-05-29T08:16:15.000Z</time></trkpt><trkpt lon="5.772303" lat="50.902616"><ele>91.4</ele><time>2022-05-29T08:16:16.000Z</time></trkpt><trkpt lon="5.77223" lat="50.902666"><ele>91.8</ele><time>2022-05-29T08:16:17.000Z</time></trkpt><trkpt lon="5.772163" lat="50.902715"><ele>91.8</ele><time>2022-05-29T08:16:18.000Z</time></trkpt><trkpt lon="5.772097" lat="50.902761"><ele>92</ele><time>2022-05-29T08:16:19.000Z</time></trkpt><trkpt lon="5.772026" lat="50.90281"><ele>92.2</ele><time>2022-05-29T08:16:20.000Z</time></trkpt><trkpt lon="5.771948" lat="50.902855"><ele>92.4</ele><time>2022-05-29T08:16:21.000Z</time></trkpt><trkpt lon="5.771872" lat="50.902895"><ele>92.6</ele><time>2022-05-29T08:16:22.000Z</time></trkpt><trkpt lon="5.771793" lat="50.902925"><ele>92.8</ele><time>2022-05-29T08:16:23.000Z</time></trkpt><trkpt lon="5.771709" lat="50.90296"><ele>93</ele><time>2022-05-29T08:16:24.000Z</time></trkpt><trkpt lon="5.771622" lat="50.902995"><ele>93.4</ele><time>2022-05-29T08:16:25.000Z</time></trkpt><trkpt lon="5.771539" lat="50.903028"><ele>93.6</ele><time>2022-05-29T08:16:26.000Z</time></trkpt><trkpt lon="5.771459" lat="50.903058"><ele>93.8</ele><time>2022-05-29T08:16:27.000Z</time></trkpt><trkpt lon="5.771373" lat="50.903088"><ele>94</ele><time>2022-05-29T08:16:28.000Z</time></trkpt><trkpt lon="5.771292" lat="50.90311"><ele>94.4</ele><time>2022-05-29T08:16:29.000Z</time></trkpt><trkpt lon="5.771206" lat="50.903137"><ele>94.6</ele><time>2022-05-29T08:16:30.000Z</time></trkpt><trkpt lon="5.771119" lat="50.903163"><ele>95</ele><time>2022-05-29T08:16:31.000Z</time></trkpt><trkpt lon="5.771036" lat="50.903185"><ele>95.2</ele><time>2022-05-29T08:16:32.000Z</time></trkpt><trkpt lon="5.770955" lat="50.903204"><ele>95.4</ele><time>2022-05-29T08:16:33.000Z</time></trkpt><trkpt lon="5.770863" lat="50.903226"><ele>95.8</ele><time>2022-05-29T08:16:34.000Z</time></trkpt><trkpt lon="5.770782" lat="50.903248"><ele>96</ele><time>2022-05-29T08:16:35.000Z</time></trkpt><trkpt lon="5.770702" lat="50.90327"><ele>96.4</ele><time>2022-05-29T08:16:36.000Z</time></trkpt><trkpt lon="5.77062" lat="50.903289"><ele>96.8</ele><time>2022-05-29T08:16:37.000Z</time></trkpt><trkpt lon="5.770537" lat="50.903308"><ele>97</ele><time>2022-05-29T08:16:38.000Z</time></trkpt><trkpt lon="5.770455" lat="50.903327"><ele>97.2</ele><time>2022-05-29T08:16:39.000Z</time></trkpt><trkpt lon="5.770371" lat="50.903342"><ele>97.4</ele><time>2022-05-29T08:16:40.000Z</time></trkpt><trkpt lon="5.770287" lat="50.903356"><ele>97.8</ele><time>2022-05-29T08:16:41.000Z</time></trkpt><trkpt lon="5.770204" lat="50.903364"><ele>98</ele><time>2022-05-29T08:16:42.000Z</time></trkpt><trkpt lon="5.770118" lat="50.903376"><ele>98.2</ele><time>2022-05-29T08:16:43.000Z</time></trkpt><trkpt lon="5.770037" lat="50.903387"><ele>98.6</ele><time>2022-05-29T08:16:44.000Z</time></trkpt><trkpt lon="5.769951" lat="50.903398"><ele>98.8</ele><time>2022-05-29T08:16:45.000Z</time></trkpt><trkpt lon="5.769868" lat="50.903405"><ele>98.8</ele><time>2022-05-29T08:16:46.000Z</time></trkpt><trkpt lon="5.769785" lat="50.903408"><ele>99</ele><time>2022-05-29T08:16:47.000Z</time></trkpt><trkpt lon="5.7697" lat="50.903408"><ele>99.4</ele><time>2022-05-29T08:16:48.000Z</time></trkpt><trkpt lon="5.769614" lat="50.903408"><ele>99.6</ele><time>2022-05-29T08:16:49.000Z</time></trkpt><trkpt lon="5.769529" lat="50.903409"><ele>99.8</ele><time>2022-05-29T08:16:50.000Z</time></trkpt><trkpt lon="5.769442" lat="50.903411"><ele>100.2</ele><time>2022-05-29T08:16:51.000Z</time></trkpt><trkpt lon="5.769359" lat="50.903407"><ele>100.4</ele><time>2022-05-29T08:16:52.000Z</time></trkpt><trkpt lon="5.769272" lat="50.903403"><ele>100.6</ele><time>2022-05-29T08:16:53.000Z</time></trkpt><trkpt lon="5.769186" lat="50.9034"><ele>100.8</ele><time>2022-05-29T08:16:54.000Z</time></trkpt><trkpt lon="5.769099" lat="50.903395"><ele>101</ele><time>2022-05-29T08:16:55.000Z</time></trkpt><trkpt lon="5.769011" lat="50.903388"><ele>101.2</ele><time>2022-05-29T08:16:56.000Z</time></trkpt><trkpt lon="5.768928" lat="50.903384"><ele>101.4</ele><time>2022-05-29T08:16:57.000Z</time></trkpt><trkpt lon="5.768832" lat="50.903376"><ele>101.6</ele><time>2022-05-29T08:16:58.000Z</time></trkpt><trkpt lon="5.768744" lat="50.903369"><ele>101.6</ele><time>2022-05-29T08:16:59.000Z</time></trkpt><trkpt lon="5.768656" lat="50.903365"><ele>101.8</ele><time>2022-05-29T08:17:00.000Z</time></trkpt><trkpt lon="5.768567" lat="50.903358"><ele>102</ele><time>2022-05-29T08:17:01.000Z</time></trkpt><trkpt lon="5.768478" lat="50.903353"><ele>102</ele><time>2022-05-29T08:17:02.000Z</time></trkpt><trkpt lon="5.768389" lat="50.903346"><ele>102.4</ele><time>2022-05-29T08:17:03.000Z</time></trkpt><trkpt lon="5.7683" lat="50.903342"><ele>102.6</ele><time>2022-05-29T08:17:04.000Z</time></trkpt><trkpt lon="5.768212" lat="50.903335"><ele>102.6</ele><time>2022-05-29T08:17:05.000Z</time></trkpt><trkpt lon="5.768122" lat="50.90333"><ele>102.8</ele><time>2022-05-29T08:17:06.000Z</time></trkpt><trkpt lon="5.76803" lat="50.903323"><ele>103</ele><time>2022-05-29T08:17:07.000Z</time></trkpt><trkpt lon="5.767938" lat="50.903316"><ele>103</ele><time>2022-05-29T08:17:08.000Z</time></trkpt><trkpt lon="5.767847" lat="50.903311"><ele>103.2</ele><time>2022-05-29T08:17:09.000Z</time></trkpt><trkpt lon="5.767757" lat="50.903304"><ele>103.4</ele><time>2022-05-29T08:17:10.000Z</time></trkpt><trkpt lon="5.767669" lat="50.9033"><ele>103.4</ele><time>2022-05-29T08:17:11.000Z</time></trkpt><trkpt lon="5.767581" lat="50.903293"><ele>103.6</ele><time>2022-05-29T08:17:12.000Z</time></trkpt><trkpt lon="5.767494" lat="50.903289"><ele>103.6</ele><time>2022-05-29T08:17:13.000Z</time></trkpt><trkpt lon="5.767406" lat="50.903285"><ele>103.8</ele><time>2022-05-29T08:17:14.000Z</time></trkpt><trkpt lon="5.767318" lat="50.903278"><ele>104</ele><time>2022-05-29T08:17:15.000Z</time></trkpt><trkpt lon="5.76723" lat="50.903273"><ele>104.2</ele><time>2022-05-29T08:17:16.000Z</time></trkpt><trkpt lon="5.767142" lat="50.903266"><ele>104.2</ele><time>2022-05-29T08:17:17.000Z</time></trkpt><trkpt lon="5.767053" lat="50.903262"><ele>104.2</ele><time>2022-05-29T08:17:18.000Z</time></trkpt><trkpt lon="5.766963" lat="50.903259"><ele>104.4</ele><time>2022-05-29T08:17:19.000Z</time></trkpt><trkpt lon="5.766873" lat="50.903255"><ele>104.6</ele><time>2022-05-29T08:17:20.000Z</time></trkpt><trkpt lon="5.766783" lat="50.903251"><ele>104.6</ele><time>2022-05-29T08:17:21.000Z</time></trkpt><trkpt lon="5.766695" lat="50.903247"><ele>104.8</ele><time>2022-05-29T08:17:22.000Z</time></trkpt><trkpt lon="5.766619" lat="50.90324"><ele>104.8</ele><time>2022-05-29T08:17:23.000Z</time></trkpt><trkpt lon="5.766517" lat="50.903235"><ele>105</ele><time>2022-05-29T08:17:24.000Z</time></trkpt><trkpt lon="5.766432" lat="50.903228"><ele>105.2</ele><time>2022-05-29T08:17:25.000Z</time></trkpt><trkpt lon="5.766337" lat="50.90322"><ele>105.4</ele><time>2022-05-29T08:17:26.000Z</time></trkpt><trkpt lon="5.766247" lat="50.903216"><ele>105.6</ele><time>2022-05-29T08:17:27.000Z</time></trkpt><trkpt lon="5.766158" lat="50.903209"><ele>105.6</ele><time>2022-05-29T08:17:28.000Z</time></trkpt><trkpt lon="5.766072" lat="50.903204"><ele>105.6</ele><time>2022-05-29T08:17:29.000Z</time></trkpt><trkpt lon="5.765984" lat="50.903198"><ele>105.8</ele><time>2022-05-29T08:17:30.000Z</time></trkpt><trkpt lon="5.765897" lat="50.903193"><ele>105.8</ele><time>2022-05-29T08:17:31.000Z</time></trkpt><trkpt lon="5.765809" lat="50.903186"><ele>106</ele><time>2022-05-29T08:17:32.000Z</time></trkpt><trkpt lon="5.765722" lat="50.903182"><ele>106.2</ele><time>2022-05-29T08:17:33.000Z</time></trkpt><trkpt lon="5.765634" lat="50.903174"><ele>106.2</ele><time>2022-05-29T08:17:34.000Z</time></trkpt><trkpt lon="5.765545" lat="50.903167"><ele>106.4</ele><time>2022-05-29T08:17:35.000Z</time></trkpt><trkpt lon="5.765459" lat="50.903163"><ele>106.4</ele><time>2022-05-29T08:17:36.000Z</time></trkpt><trkpt lon="5.765375" lat="50.903155"><ele>106.6</ele><time>2022-05-29T08:17:37.000Z</time></trkpt><trkpt lon="5.765291" lat="50.903148"><ele>106.6</ele><time>2022-05-29T08:17:38.000Z</time></trkpt><trkpt lon="5.765204" lat="50.903143"><ele>106.6</ele><time>2022-05-29T08:17:39.000Z</time></trkpt><trkpt lon="5.765122" lat="50.903137"><ele>106.8</ele><time>2022-05-29T08:17:40.000Z</time></trkpt><trkpt lon="5.765042" lat="50.903133"><ele>106.8</ele><time>2022-05-29T08:17:41.000Z</time></trkpt><trkpt lon="5.764967" lat="50.903128"><ele>107</ele><time>2022-05-29T08:17:42.000Z</time></trkpt><trkpt lon="5.764898" lat="50.903121"><ele>107</ele><time>2022-05-29T08:17:43.000Z</time></trkpt><trkpt lon="5.764835" lat="50.903118"><ele>107</ele><time>2022-05-29T08:17:44.000Z</time></trkpt><trkpt lon="5.76477" lat="50.903117"><ele>107</ele><time>2022-05-29T08:17:45.000Z</time></trkpt><trkpt lon="5.764704" lat="50.903112"><ele>107</ele><time>2022-05-29T08:17:46.000Z</time></trkpt><trkpt lon="5.764638" lat="50.9031"><ele>107</ele><time>2022-05-29T08:17:47.000Z</time></trkpt><trkpt lon="5.76456" lat="50.903075"><ele>107</ele><time>2022-05-29T08:17:48.000Z</time></trkpt><trkpt lon="5.764486" lat="50.903048"><ele>107</ele><time>2022-05-29T08:17:49.000Z</time></trkpt><trkpt lon="5.764414" lat="50.903019"><ele>107</ele><time>2022-05-29T08:17:50.000Z</time></trkpt><trkpt lon="5.764336" lat="50.902991"><ele>107.2</ele><time>2022-05-29T08:17:51.000Z</time></trkpt><trkpt lon="5.764262" lat="50.902962"><ele>107</ele><time>2022-05-29T08:17:52.000Z</time></trkpt><trkpt lon="5.764181" lat="50.902928"><ele>107</ele><time>2022-05-29T08:17:53.000Z</time></trkpt><trkpt lon="5.764105" lat="50.902891"><ele>107</ele><time>2022-05-29T08:17:54.000Z</time></trkpt><trkpt lon="5.764026" lat="50.902856"><ele>107</ele><time>2022-05-29T08:17:55.000Z</time></trkpt><trkpt lon="5.763945" lat="50.902822"><ele>107</ele><time>2022-05-29T08:17:56.000Z</time></trkpt><trkpt lon="5.763862" lat="50.902786"><ele>107</ele><time>2022-05-29T08:17:57.000Z</time></trkpt><trkpt lon="5.763784" lat="50.902745"><ele>107</ele><time>2022-05-29T08:17:58.000Z</time></trkpt><trkpt lon="5.763706" lat="50.902702"><ele>107</ele><time>2022-05-29T08:17:59.000Z</time></trkpt><trkpt lon="5.763633" lat="50.902656"><ele>107.2</ele><time>2022-05-29T08:18:00.000Z</time></trkpt><trkpt lon="5.763564" lat="50.902609"><ele>107.2</ele><time>2022-05-29T08:18:01.000Z</time></trkpt><trkpt lon="5.763498" lat="50.90256"><ele>107.4</ele><time>2022-05-29T08:18:02.000Z</time></trkpt><trkpt lon="5.763432" lat="50.902505"><ele>107.4</ele><time>2022-05-29T08:18:03.000Z</time></trkpt><trkpt lon="5.76337" lat="50.902452"><ele>107.4</ele><time>2022-05-29T08:18:04.000Z</time></trkpt><trkpt lon="5.763313" lat="50.902396"><ele>107.2</ele><time>2022-05-29T08:18:05.000Z</time></trkpt><trkpt lon="5.763253" lat="50.902339"><ele>107.2</ele><time>2022-05-29T08:18:06.000Z</time></trkpt><trkpt lon="5.763193" lat="50.90228"><ele>107</ele><time>2022-05-29T08:18:07.000Z</time></trkpt><trkpt lon="5.763131" lat="50.902219"><ele>107</ele><time>2022-05-29T08:18:08.000Z</time></trkpt><trkpt lon="5.763073" lat="50.902163"><ele>107</ele><time>2022-05-29T08:18:09.000Z</time></trkpt><trkpt lon="5.76301" lat="50.902099"><ele>107</ele><time>2022-05-29T08:18:10.000Z</time></trkpt><trkpt lon="5.76295" lat="50.902039"><ele>106.8</ele><time>2022-05-29T08:18:11.000Z</time></trkpt><trkpt lon="5.762887" lat="50.901981"><ele>106.8</ele><time>2022-05-29T08:18:12.000Z</time></trkpt><trkpt lon="5.762825" lat="50.90192"><ele>106.6</ele><time>2022-05-29T08:18:13.000Z</time></trkpt><trkpt lon="5.762766" lat="50.90186"><ele>106.8</ele><time>2022-05-29T08:18:14.000Z</time></trkpt><trkpt lon="5.762709" lat="50.9018"><ele>106.8</ele><time>2022-05-29T08:18:15.000Z</time></trkpt><trkpt lon="5.762652" lat="50.901742"><ele>106.8</ele><time>2022-05-29T08:18:16.000Z</time></trkpt><trkpt lon="5.762586" lat="50.901677"><ele>106.8</ele><time>2022-05-29T08:18:17.000Z</time></trkpt><trkpt lon="5.762526" lat="50.901619"><ele>106.8</ele><time>2022-05-29T08:18:18.000Z</time></trkpt><trkpt lon="5.762458" lat="50.901554"><ele>106.8</ele><time>2022-05-29T08:18:19.000Z</time></trkpt><trkpt lon="5.762397" lat="50.901493"><ele>106.8</ele><time>2022-05-29T08:18:20.000Z</time></trkpt><trkpt lon="5.762333" lat="50.901432"><ele>106.8</ele><time>2022-05-29T08:18:21.000Z</time></trkpt><trkpt lon="5.762272" lat="50.901373"><ele>106.8</ele><time>2022-05-29T08:18:22.000Z</time></trkpt><trkpt lon="5.762207" lat="50.901311"><ele>107</ele><time>2022-05-29T08:18:23.000Z</time></trkpt><trkpt lon="5.762147" lat="50.901251"><ele>106.8</ele><time>2022-05-29T08:18:24.000Z</time></trkpt><trkpt lon="5.762084" lat="50.901188"><ele>106.8</ele><time>2022-05-29T08:18:25.000Z</time></trkpt><trkpt lon="5.762024" lat="50.901127"><ele>106.8</ele><time>2022-05-29T08:18:26.000Z</time></trkpt><trkpt lon="5.761963" lat="50.901066"><ele>106.8</ele><time>2022-05-29T08:18:27.000Z</time></trkpt><trkpt lon="5.761902" lat="50.901006"><ele>106.8</ele><time>2022-05-29T08:18:28.000Z</time></trkpt><trkpt lon="5.761838" lat="50.900947"><ele>106.8</ele><time>2022-05-29T08:18:29.000Z</time></trkpt><trkpt lon="5.761776" lat="50.900888"><ele>106.8</ele><time>2022-05-29T08:18:30.000Z</time></trkpt><trkpt lon="5.761716" lat="50.90083"><ele>106.6</ele><time>2022-05-29T08:18:31.000Z</time></trkpt><trkpt lon="5.761649" lat="50.900765"><ele>106.6</ele><time>2022-05-29T08:18:32.000Z</time></trkpt><trkpt lon="5.761587" lat="50.900704"><ele>106.4</ele><time>2022-05-29T08:18:33.000Z</time></trkpt><trkpt lon="5.761525" lat="50.900643"><ele>106.4</ele><time>2022-05-29T08:18:34.000Z</time></trkpt><trkpt lon="5.761462" lat="50.900581"><ele>106.4</ele><time>2022-05-29T08:18:35.000Z</time></trkpt><trkpt lon="5.761399" lat="50.90052"><ele>106.4</ele><time>2022-05-29T08:18:36.000Z</time></trkpt><trkpt lon="5.761335" lat="50.900459"><ele>106.4</ele><time>2022-05-29T08:18:37.000Z</time></trkpt><trkpt lon="5.761274" lat="50.900399"><ele>106.4</ele><time>2022-05-29T08:18:38.000Z</time></trkpt><trkpt lon="5.761212" lat="50.900339"><ele>106.2</ele><time>2022-05-29T08:18:39.000Z</time></trkpt><trkpt lon="5.761146" lat="50.900276"><ele>106.2</ele><time>2022-05-29T08:18:40.000Z</time></trkpt><trkpt lon="5.761084" lat="50.900217"><ele>106.2</ele><time>2022-05-29T08:18:41.000Z</time></trkpt><trkpt lon="5.761019" lat="50.900158"><ele>106.2</ele><time>2022-05-29T08:18:42.000Z</time></trkpt><trkpt lon="5.760955" lat="50.900102"><ele>106.2</ele><time>2022-05-29T08:18:43.000Z</time></trkpt><trkpt lon="5.760887" lat="50.90004"><ele>106</ele><time>2022-05-29T08:18:44.000Z</time></trkpt><trkpt lon="5.760817" lat="50.899977"><ele>106</ele><time>2022-05-29T08:18:45.000Z</time></trkpt><trkpt lon="5.760748" lat="50.899919"><ele>106.2</ele><time>2022-05-29T08:18:46.000Z</time></trkpt><trkpt lon="5.760683" lat="50.899861"><ele>106.2</ele><time>2022-05-29T08:18:47.000Z</time></trkpt><trkpt lon="5.76062" lat="50.899805"><ele>106.4</ele><time>2022-05-29T08:18:48.000Z</time></trkpt><trkpt lon="5.760554" lat="50.899751"><ele>106.4</ele><time>2022-05-29T08:18:49.000Z</time></trkpt><trkpt lon="5.760486" lat="50.899694"><ele>106.4</ele><time>2022-05-29T08:18:50.000Z</time></trkpt><trkpt lon="5.760412" lat="50.899636"><ele>106.4</ele><time>2022-05-29T08:18:51.000Z</time></trkpt><trkpt lon="5.760338" lat="50.899574"><ele>106.4</ele><time>2022-05-29T08:18:52.000Z</time></trkpt><trkpt lon="5.760266" lat="50.899514"><ele>106.2</ele><time>2022-05-29T08:18:53.000Z</time></trkpt><trkpt lon="5.760193" lat="50.899456"><ele>106</ele><time>2022-05-29T08:18:54.000Z</time></trkpt><trkpt lon="5.76012" lat="50.899397"><ele>105.8</ele><time>2022-05-29T08:18:55.000Z</time></trkpt><trkpt lon="5.760047" lat="50.899343"><ele>105.8</ele><time>2022-05-29T08:18:56.000Z</time></trkpt><trkpt lon="5.759975" lat="50.899287"><ele>105.8</ele><time>2022-05-29T08:18:57.000Z</time></trkpt><trkpt lon="5.7599" lat="50.899229"><ele>105.8</ele><time>2022-05-29T08:18:58.000Z</time></trkpt><trkpt lon="5.759826" lat="50.899174"><ele>105.8</ele><time>2022-05-29T08:18:59.000Z</time></trkpt><trkpt lon="5.759753" lat="50.899118"><ele>105.8</ele><time>2022-05-29T08:19:00.000Z</time></trkpt><trkpt lon="5.759681" lat="50.899062"><ele>105.8</ele><time>2022-05-29T08:19:01.000Z</time></trkpt><trkpt lon="5.759607" lat="50.899008"><ele>105.6</ele><time>2022-05-29T08:19:02.000Z</time></trkpt><trkpt lon="5.759534" lat="50.898954"><ele>105.6</ele><time>2022-05-29T08:19:03.000Z</time></trkpt><trkpt lon="5.759462" lat="50.898897"><ele>105.6</ele><time>2022-05-29T08:19:04.000Z</time></trkpt><trkpt lon="5.75939" lat="50.898844"><ele>105.6</ele><time>2022-05-29T08:19:05.000Z</time></trkpt><trkpt lon="5.759318" lat="50.898791"><ele>105.6</ele><time>2022-05-29T08:19:06.000Z</time></trkpt><trkpt lon="5.759247" lat="50.898737"><ele>105.6</ele><time>2022-05-29T08:19:07.000Z</time></trkpt><trkpt lon="5.759173" lat="50.898684"><ele>105.6</ele><time>2022-05-29T08:19:08.000Z</time></trkpt><trkpt lon="5.759098" lat="50.898636"><ele>105.6</ele><time>2022-05-29T08:19:09.000Z</time></trkpt><trkpt lon="5.759017" lat="50.898591"><ele>105.8</ele><time>2022-05-29T08:19:10.000Z</time></trkpt><trkpt lon="5.758924" lat="50.898554"><ele>105.8</ele><time>2022-05-29T08:19:11.000Z</time></trkpt><trkpt lon="5.75883" lat="50.898525"><ele>105.6</ele><time>2022-05-29T08:19:12.000Z</time></trkpt><trkpt lon="5.758735" lat="50.8985"><ele>105.8</ele><time>2022-05-29T08:19:13.000Z</time></trkpt><trkpt lon="5.758629" lat="50.89848"><ele>106</ele><time>2022-05-29T08:19:14.000Z</time></trkpt><trkpt lon="5.758526" lat="50.898467"><ele>106.2</ele><time>2022-05-29T08:19:15.000Z</time></trkpt><trkpt lon="5.75842" lat="50.89846"><ele>106.4</ele><time>2022-05-29T08:19:16.000Z</time></trkpt><trkpt lon="5.758316" lat="50.898457"><ele>106.4</ele><time>2022-05-29T08:19:17.000Z</time></trkpt><trkpt lon="5.758211" lat="50.898462"><ele>106.6</ele><time>2022-05-29T08:19:18.000Z</time></trkpt><trkpt lon="5.758106" lat="50.898475"><ele>106.8</ele><time>2022-05-29T08:19:19.000Z</time></trkpt><trkpt lon="5.758007" lat="50.89849"><ele>106.8</ele><time>2022-05-29T08:19:20.000Z</time></trkpt><trkpt lon="5.757907" lat="50.898511"><ele>107.2</ele><time>2022-05-29T08:19:21.000Z</time></trkpt><trkpt lon="5.757813" lat="50.898539"><ele>107.4</ele><time>2022-05-29T08:19:22.000Z</time></trkpt><trkpt lon="5.757723" lat="50.89857"><ele>107.4</ele><time>2022-05-29T08:19:23.000Z</time></trkpt><trkpt lon="5.757633" lat="50.898604"><ele>107.4</ele><time>2022-05-29T08:19:24.000Z</time></trkpt><trkpt lon="5.757543" lat="50.898639"><ele>107.4</ele><time>2022-05-29T08:19:25.000Z</time></trkpt><trkpt lon="5.757458" lat="50.898676"><ele>107.6</ele><time>2022-05-29T08:19:26.000Z</time></trkpt><trkpt lon="5.75737" lat="50.898714"><ele>107.8</ele><time>2022-05-29T08:19:27.000Z</time></trkpt><trkpt lon="5.757281" lat="50.89875"><ele>107.8</ele><time>2022-05-29T08:19:28.000Z</time></trkpt><trkpt lon="5.757197" lat="50.898787"><ele>108</ele><time>2022-05-29T08:19:29.000Z</time></trkpt><trkpt lon="5.757112" lat="50.898821"><ele>108</ele><time>2022-05-29T08:19:30.000Z</time></trkpt><trkpt lon="5.757027" lat="50.898857"><ele>108</ele><time>2022-05-29T08:19:31.000Z</time></trkpt><trkpt lon="5.756943" lat="50.898894"><ele>108</ele><time>2022-05-29T08:19:32.000Z</time></trkpt><trkpt lon="5.756858" lat="50.898928"><ele>108</ele><time>2022-05-29T08:19:33.000Z</time></trkpt><trkpt lon="5.756772" lat="50.898962"><ele>108</ele><time>2022-05-29T08:19:34.000Z</time></trkpt><trkpt lon="5.756695" lat="50.898991"><ele>108.2</ele><time>2022-05-29T08:19:35.000Z</time></trkpt><trkpt lon="5.756608" lat="50.89903"><ele>108.2</ele><time>2022-05-29T08:19:36.000Z</time></trkpt><trkpt lon="5.756527" lat="50.899062"><ele>108.2</ele><time>2022-05-29T08:19:37.000Z</time></trkpt><trkpt lon="5.756445" lat="50.899095"><ele>108.2</ele><time>2022-05-29T08:19:38.000Z</time></trkpt><trkpt lon="5.756364" lat="50.899125"><ele>108.4</ele><time>2022-05-29T08:19:39.000Z</time></trkpt><trkpt lon="5.756274" lat="50.899156"><ele>108.2</ele><time>2022-05-29T08:19:40.000Z</time></trkpt><trkpt lon="5.756189" lat="50.899187"><ele>108.2</ele><time>2022-05-29T08:19:41.000Z</time></trkpt><trkpt lon="5.756102" lat="50.899217"><ele>108</ele><time>2022-05-29T08:19:42.000Z</time></trkpt><trkpt lon="5.756022" lat="50.899243"><ele>107.8</ele><time>2022-05-29T08:19:43.000Z</time></trkpt><trkpt lon="5.755945" lat="50.89927"><ele>107.8</ele><time>2022-05-29T08:19:44.000Z</time></trkpt><trkpt lon="5.755875" lat="50.899293"><ele>107.8</ele><time>2022-05-29T08:19:45.000Z</time></trkpt><trkpt lon="5.755807" lat="50.899319"><ele>107.8</ele><time>2022-05-29T08:19:46.000Z</time></trkpt><trkpt lon="5.755748" lat="50.899342"><ele>107.8</ele><time>2022-05-29T08:19:47.000Z</time></trkpt><trkpt lon="5.755704" lat="50.899367"><ele>108</ele><time>2022-05-29T08:19:48.000Z</time></trkpt><trkpt lon="5.755673" lat="50.899401"><ele>108</ele><time>2022-05-29T08:19:49.000Z</time></trkpt><trkpt lon="5.75565" lat="50.899435"><ele>108</ele><time>2022-05-29T08:19:50.000Z</time></trkpt><trkpt lon="5.75563" lat="50.899475"><ele>108.2</ele><time>2022-05-29T08:19:51.000Z</time></trkpt><trkpt lon="5.755614" lat="50.899514"><ele>108.4</ele><time>2022-05-29T08:19:52.000Z</time></trkpt><trkpt lon="5.755601" lat="50.899556"><ele>108.4</ele><time>2022-05-29T08:19:53.000Z</time></trkpt><trkpt lon="5.7556" lat="50.899602"><ele>108.4</ele><time>2022-05-29T08:19:54.000Z</time></trkpt><trkpt lon="5.755608" lat="50.899651"><ele>108.6</ele><time>2022-05-29T08:19:55.000Z</time></trkpt><trkpt lon="5.75563" lat="50.8997"><ele>108.6</ele><time>2022-05-29T08:19:56.000Z</time></trkpt><trkpt lon="5.755667" lat="50.899748"><ele>108.6</ele><time>2022-05-29T08:19:57.000Z</time></trkpt><trkpt lon="5.755714" lat="50.899796"><ele>108.8</ele><time>2022-05-29T08:19:58.000Z</time></trkpt><trkpt lon="5.755765" lat="50.89984"><ele>108.8</ele><time>2022-05-29T08:19:59.000Z</time></trkpt><trkpt lon="5.755818" lat="50.899884"><ele>108.8</ele><time>2022-05-29T08:20:00.000Z</time></trkpt><trkpt lon="5.755878" lat="50.899933"><ele>109</ele><time>2022-05-29T08:20:01.000Z</time></trkpt><trkpt lon="5.75593" lat="50.899974"><ele>109</ele><time>2022-05-29T08:20:02.000Z</time></trkpt><trkpt lon="5.755978" lat="50.900011"><ele>109.2</ele><time>2022-05-29T08:20:03.000Z</time></trkpt><trkpt lon="5.756022" lat="50.90005"><ele>109.2</ele><time>2022-05-29T08:20:04.000Z</time></trkpt><trkpt lon="5.756055" lat="50.900083"><ele>109.4</ele><time>2022-05-29T08:20:05.000Z</time></trkpt><trkpt lon="5.756079" lat="50.900113"><ele>109.4</ele><time>2022-05-29T08:20:06.000Z</time></trkpt><trkpt lon="5.756088" lat="50.90014"><ele>109.4</ele><time>2022-05-29T08:20:07.000Z</time></trkpt><trkpt lon="5.756073" lat="50.900166"><ele>109.4</ele><time>2022-05-29T08:20:08.000Z</time></trkpt><trkpt lon="5.756032" lat="50.900189"><ele>109.6</ele><time>2022-05-29T08:20:09.000Z</time></trkpt><trkpt lon="5.755976" lat="50.900211"><ele>109.6</ele><time>2022-05-29T08:20:10.000Z</time></trkpt><trkpt lon="5.755911" lat="50.900235"><ele>109.6</ele><time>2022-05-29T08:20:11.000Z</time></trkpt><trkpt lon="5.755841" lat="50.900262"><ele>109.6</ele><time>2022-05-29T08:20:12.000Z</time></trkpt><trkpt lon="5.755768" lat="50.900293"><ele>109.8</ele><time>2022-05-29T08:20:13.000Z</time></trkpt><trkpt lon="5.75569" lat="50.900324"><ele>109.8</ele><time>2022-05-29T08:20:14.000Z</time></trkpt><trkpt lon="5.755613" lat="50.900355"><ele>109.8</ele><time>2022-05-29T08:20:15.000Z</time></trkpt><trkpt lon="5.755537" lat="50.900388"><ele>109.8</ele><time>2022-05-29T08:20:16.000Z</time></trkpt><trkpt lon="5.755467" lat="50.900418"><ele>109.8</ele><time>2022-05-29T08:20:17.000Z</time></trkpt><trkpt lon="5.755391" lat="50.900448"><ele>109.8</ele><time>2022-05-29T08:20:18.000Z</time></trkpt><trkpt lon="5.755311" lat="50.900469"><ele>109.6</ele><time>2022-05-29T08:20:19.000Z</time></trkpt><trkpt lon="5.75523" lat="50.900479"><ele>109.6</ele><time>2022-05-29T08:20:20.000Z</time></trkpt><trkpt lon="5.755143" lat="50.90048"><ele>109.6</ele><time>2022-05-29T08:20:21.000Z</time></trkpt><trkpt lon="5.755052" lat="50.900466"><ele>109.4</ele><time>2022-05-29T08:20:22.000Z</time></trkpt><trkpt lon="5.754964" lat="50.900438"><ele>109.4</ele><time>2022-05-29T08:20:23.000Z</time></trkpt><trkpt lon="5.754883" lat="50.900404"><ele>109.4</ele><time>2022-05-29T08:20:24.000Z</time></trkpt><trkpt lon="5.754805" lat="50.900356"><ele>109.4</ele><time>2022-05-29T08:20:25.000Z</time></trkpt><trkpt lon="5.754729" lat="50.900312"><ele>109.2</ele><time>2022-05-29T08:20:26.000Z</time></trkpt><trkpt lon="5.754641" lat="50.900261"><ele>109.2</ele><time>2022-05-29T08:20:27.000Z</time></trkpt><trkpt lon="5.75455" lat="50.900211"><ele>109</ele><time>2022-05-29T08:20:28.000Z</time></trkpt><trkpt lon="5.754461" lat="50.900164"><ele>109</ele><time>2022-05-29T08:20:29.000Z</time></trkpt><trkpt lon="5.754365" lat="50.900111"><ele>109</ele><time>2022-05-29T08:20:30.000Z</time></trkpt><trkpt lon="5.75427" lat="50.900062"><ele>109</ele><time>2022-05-29T08:20:31.000Z</time></trkpt><trkpt lon="5.754175" lat="50.90002"><ele>109</ele><time>2022-05-29T08:20:32.000Z</time></trkpt><trkpt lon="5.754078" lat="50.899974"><ele>109</ele><time>2022-05-29T08:20:33.000Z</time></trkpt><trkpt lon="5.753982" lat="50.89993"><ele>108.8</ele><time>2022-05-29T08:20:34.000Z</time></trkpt><trkpt lon="5.753883" lat="50.899886"><ele>108.8</ele><time>2022-05-29T08:20:35.000Z</time></trkpt><trkpt lon="5.753785" lat="50.899841"><ele>108.6</ele><time>2022-05-29T08:20:36.000Z</time></trkpt><trkpt lon="5.753684" lat="50.899799"><ele>108.6</ele><time>2022-05-29T08:20:37.000Z</time></trkpt><trkpt lon="5.753585" lat="50.899757"><ele>108.4</ele><time>2022-05-29T08:20:38.000Z</time></trkpt><trkpt lon="5.753488" lat="50.899715"><ele>108.4</ele><time>2022-05-29T08:20:39.000Z</time></trkpt><trkpt lon="5.75339" lat="50.89967"><ele>108.2</ele><time>2022-05-29T08:20:40.000Z</time></trkpt><trkpt lon="5.753297" lat="50.899629"><ele>108.2</ele><time>2022-05-29T08:20:41.000Z</time></trkpt><trkpt lon="5.753202" lat="50.899587"><ele>108.2</ele><time>2022-05-29T08:20:42.000Z</time></trkpt><trkpt lon="5.753107" lat="50.899544"><ele>108.2</ele><time>2022-05-29T08:20:43.000Z</time></trkpt><trkpt lon="5.753009" lat="50.899497"><ele>108.2</ele><time>2022-05-29T08:20:44.000Z</time></trkpt><trkpt lon="5.752917" lat="50.899452"><ele>108</ele><time>2022-05-29T08:20:45.000Z</time></trkpt><trkpt lon="5.752828" lat="50.899407"><ele>108</ele><time>2022-05-29T08:20:46.000Z</time></trkpt><trkpt lon="5.752741" lat="50.899361"><ele>107.8</ele><time>2022-05-29T08:20:47.000Z</time></trkpt><trkpt lon="5.752655" lat="50.899314"><ele>107.8</ele><time>2022-05-29T08:20:48.000Z</time></trkpt><trkpt lon="5.752573" lat="50.89927"><ele>107.8</ele><time>2022-05-29T08:20:49.000Z</time></trkpt><trkpt lon="5.752497" lat="50.899231"><ele>108</ele><time>2022-05-29T08:20:50.000Z</time></trkpt><trkpt lon="5.752411" lat="50.899176"><ele>107.8</ele><time>2022-05-29T08:20:51.000Z</time></trkpt><trkpt lon="5.752337" lat="50.899127"><ele>107.8</ele><time>2022-05-29T08:20:52.000Z</time></trkpt><trkpt lon="5.752266" lat="50.899081"><ele>107.8</ele><time>2022-05-29T08:20:53.000Z</time></trkpt><trkpt lon="5.752197" lat="50.899036"><ele>107.8</ele><time>2022-05-29T08:20:54.000Z</time></trkpt><trkpt lon="5.752121" lat="50.898994"><ele>107.8</ele><time>2022-05-29T08:20:55.000Z</time></trkpt><trkpt lon="5.752046" lat="50.898954"><ele>108</ele><time>2022-05-29T08:20:56.000Z</time></trkpt><trkpt lon="5.751972" lat="50.898926"><ele>108</ele><time>2022-05-29T08:20:57.000Z</time></trkpt><trkpt lon="5.751897" lat="50.898911"><ele>108.2</ele><time>2022-05-29T08:20:58.000Z</time></trkpt><trkpt lon="5.751827" lat="50.898913"><ele>108.2</ele><time>2022-05-29T08:20:59.000Z</time></trkpt><trkpt lon="5.751764" lat="50.89893"><ele>108.2</ele><time>2022-05-29T08:21:00.000Z</time></trkpt><trkpt lon="5.751705" lat="50.89896"><ele>108.4</ele><time>2022-05-29T08:21:01.000Z</time></trkpt><trkpt lon="5.751644" lat="50.899003"><ele>108.4</ele><time>2022-05-29T08:21:02.000Z</time></trkpt><trkpt lon="5.751579" lat="50.89905"><ele>108.4</ele><time>2022-05-29T08:21:03.000Z</time></trkpt><trkpt lon="5.751515" lat="50.899102"><ele>108.4</ele><time>2022-05-29T08:21:04.000Z</time></trkpt><trkpt lon="5.751447" lat="50.899156"><ele>108.4</ele><time>2022-05-29T08:21:05.000Z</time></trkpt><trkpt lon="5.751387" lat="50.899204"><ele>108.4</ele><time>2022-05-29T08:21:06.000Z</time></trkpt><trkpt lon="5.751339" lat="50.899251"><ele>108.4</ele><time>2022-05-29T08:21:07.000Z</time></trkpt><trkpt lon="5.751313" lat="50.899301"><ele>108.6</ele><time>2022-05-29T08:21:08.000Z</time></trkpt><trkpt lon="5.751313" lat="50.899356"><ele>108.6</ele><time>2022-05-29T08:21:09.000Z</time></trkpt><trkpt lon="5.751336" lat="50.899412"><ele>108.6</ele><time>2022-05-29T08:21:10.000Z</time></trkpt><trkpt lon="5.751377" lat="50.89946"><ele>108.4</ele><time>2022-05-29T08:21:11.000Z</time></trkpt><trkpt lon="5.751438" lat="50.899505"><ele>108.4</ele><time>2022-05-29T08:21:12.000Z</time></trkpt><trkpt lon="5.751513" lat="50.899549"><ele>108.4</ele><time>2022-05-29T08:21:13.000Z</time></trkpt><trkpt lon="5.75159" lat="50.899597"><ele>108.2</ele><time>2022-05-29T08:21:14.000Z</time></trkpt><trkpt lon="5.751659" lat="50.899641"><ele>108.2</ele><time>2022-05-29T08:21:15.000Z</time></trkpt><trkpt lon="5.751751" lat="50.899702"><ele>108</ele><time>2022-05-29T08:21:16.000Z</time></trkpt><trkpt lon="5.75183" lat="50.899759"><ele>108</ele><time>2022-05-29T08:21:17.000Z</time></trkpt><trkpt lon="5.751903" lat="50.899813"><ele>107.8</ele><time>2022-05-29T08:21:18.000Z</time></trkpt><trkpt lon="5.751969" lat="50.899876"><ele>107.8</ele><time>2022-05-29T08:21:19.000Z</time></trkpt><trkpt lon="5.752028" lat="50.899938"><ele>107.8</ele><time>2022-05-29T08:21:20.000Z</time></trkpt><trkpt lon="5.752088" lat="50.900006"><ele>107.6</ele><time>2022-05-29T08:21:21.000Z</time></trkpt><trkpt lon="5.75214" lat="50.900075"><ele>107.6</ele><time>2022-05-29T08:21:22.000Z</time></trkpt><trkpt lon="5.752189" lat="50.900144"><ele>107.4</ele><time>2022-05-29T08:21:23.000Z</time></trkpt><trkpt lon="5.752227" lat="50.900212"><ele>107.4</ele><time>2022-05-29T08:21:24.000Z</time></trkpt><trkpt lon="5.752256" lat="50.900286"><ele>107.6</ele><time>2022-05-29T08:21:25.000Z</time></trkpt><trkpt lon="5.752276" lat="50.900359"><ele>107.6</ele><time>2022-05-29T08:21:26.000Z</time></trkpt><trkpt lon="5.752289" lat="50.900434"><ele>107.4</ele><time>2022-05-29T08:21:27.000Z</time></trkpt><trkpt lon="5.7523" lat="50.900508"><ele>107.4</ele><time>2022-05-29T08:21:28.000Z</time></trkpt><trkpt lon="5.752309" lat="50.900583"><ele>107.4</ele><time>2022-05-29T08:21:29.000Z</time></trkpt><trkpt lon="5.752312" lat="50.90066"><ele>107.4</ele><time>2022-05-29T08:21:30.000Z</time></trkpt><trkpt lon="5.752316" lat="50.900731"><ele>107.6</ele><time>2022-05-29T08:21:31.000Z</time></trkpt><trkpt lon="5.75232" lat="50.900808"><ele>107.6</ele><time>2022-05-29T08:21:32.000Z</time></trkpt><trkpt lon="5.752322" lat="50.900879"><ele>107.6</ele><time>2022-05-29T08:21:33.000Z</time></trkpt><trkpt lon="5.752322" lat="50.900955"><ele>107.6</ele><time>2022-05-29T08:21:34.000Z</time></trkpt><trkpt lon="5.752321" lat="50.90103"><ele>107.8</ele><time>2022-05-29T08:21:35.000Z</time></trkpt><trkpt lon="5.752318" lat="50.901103"><ele>108</ele><time>2022-05-29T08:21:36.000Z</time></trkpt><trkpt lon="5.752316" lat="50.901178"><ele>108</ele><time>2022-05-29T08:21:37.000Z</time></trkpt><trkpt lon="5.752314" lat="50.90125"><ele>108.2</ele><time>2022-05-29T08:21:38.000Z</time></trkpt><trkpt lon="5.752311" lat="50.901326"><ele>108.2</ele><time>2022-05-29T08:21:39.000Z</time></trkpt><trkpt lon="5.752308" lat="50.901394"><ele>108.2</ele><time>2022-05-29T08:21:40.000Z</time></trkpt><trkpt lon="5.752306" lat="50.901464"><ele>108.4</ele><time>2022-05-29T08:21:41.000Z</time></trkpt><trkpt lon="5.752303" lat="50.901544"><ele>108.4</ele><time>2022-05-29T08:21:42.000Z</time></trkpt><trkpt lon="5.752299" lat="50.901618"><ele>108.6</ele><time>2022-05-29T08:21:43.000Z</time></trkpt><trkpt lon="5.752297" lat="50.901689"><ele>108.6</ele><time>2022-05-29T08:21:44.000Z</time></trkpt><trkpt lon="5.7523" lat="50.901758"><ele>108.6</ele><time>2022-05-29T08:21:45.000Z</time></trkpt><trkpt lon="5.752311" lat="50.90183"><ele>108.6</ele><time>2022-05-29T08:21:46.000Z</time></trkpt><trkpt lon="5.752333" lat="50.901899"><ele>108.6</ele><time>2022-05-29T08:21:47.000Z</time></trkpt><trkpt lon="5.752361" lat="50.901965"><ele>108.6</ele><time>2022-05-29T08:21:48.000Z</time></trkpt><trkpt lon="5.752403" lat="50.90203"><ele>108.8</ele><time>2022-05-29T08:21:49.000Z</time></trkpt><trkpt lon="5.752459" lat="50.902088"><ele>108.8</ele><time>2022-05-29T08:21:50.000Z</time></trkpt><trkpt lon="5.752525" lat="50.902145"><ele>108.8</ele><time>2022-05-29T08:21:51.000Z</time></trkpt><trkpt lon="5.752595" lat="50.9022"><ele>108.8</ele><time>2022-05-29T08:21:52.000Z</time></trkpt><trkpt lon="5.752671" lat="50.902252"><ele>108.8</ele><time>2022-05-29T08:21:53.000Z</time></trkpt><trkpt lon="5.752747" lat="50.902309"><ele>108.8</ele><time>2022-05-29T08:21:54.000Z</time></trkpt><trkpt lon="5.75282" lat="50.902367"><ele>108.8</ele><time>2022-05-29T08:21:55.000Z</time></trkpt><trkpt lon="5.752884" lat="50.902429"><ele>108.8</ele><time>2022-05-29T08:21:56.000Z</time></trkpt><trkpt lon="5.752938" lat="50.902493"><ele>108.8</ele><time>2022-05-29T08:21:57.000Z</time></trkpt><trkpt lon="5.752986" lat="50.90256"><ele>108.8</ele><time>2022-05-29T08:21:58.000Z</time></trkpt><trkpt lon="5.753028" lat="50.90263"><ele>108.8</ele><time>2022-05-29T08:21:59.000Z</time></trkpt><trkpt lon="5.753069" lat="50.9027"><ele>108.6</ele><time>2022-05-29T08:22:00.000Z</time></trkpt><trkpt lon="5.753109" lat="50.902768"><ele>108.6</ele><time>2022-05-29T08:22:01.000Z</time></trkpt><trkpt lon="5.753149" lat="50.902841"><ele>108.6</ele><time>2022-05-29T08:22:02.000Z</time></trkpt><trkpt lon="5.753188" lat="50.902908"><ele>108.8</ele><time>2022-05-29T08:22:03.000Z</time></trkpt><trkpt lon="5.753228" lat="50.902973"><ele>108.6</ele><time>2022-05-29T08:22:04.000Z</time></trkpt><trkpt lon="5.753261" lat="50.903034"><ele>108.6</ele><time>2022-05-29T08:22:05.000Z</time></trkpt><trkpt lon="5.753286" lat="50.90312"><ele>108.6</ele><time>2022-05-29T08:22:06.000Z</time></trkpt><trkpt lon="5.753292" lat="50.90319"><ele>108.4</ele><time>2022-05-29T08:22:07.000Z</time></trkpt><trkpt lon="5.753276" lat="50.903264"><ele>108.4</ele><time>2022-05-29T08:22:08.000Z</time></trkpt><trkpt lon="5.753247" lat="50.903337"><ele>108.4</ele><time>2022-05-29T08:22:09.000Z</time></trkpt><trkpt lon="5.75321" lat="50.903405"><ele>108.4</ele><time>2022-05-29T08:22:10.000Z</time></trkpt><trkpt lon="5.753169" lat="50.903475"><ele>108.4</ele><time>2022-05-29T08:22:11.000Z</time></trkpt><trkpt lon="5.753127" lat="50.903548"><ele>108.4</ele><time>2022-05-29T08:22:12.000Z</time></trkpt><trkpt lon="5.753086" lat="50.903618"><ele>108.4</ele><time>2022-05-29T08:22:13.000Z</time></trkpt><trkpt lon="5.75304" lat="50.903689"><ele>108.4</ele><time>2022-05-29T08:22:14.000Z</time></trkpt><trkpt lon="5.752994" lat="50.903761"><ele>108.2</ele><time>2022-05-29T08:22:15.000Z</time></trkpt><trkpt lon="5.752948" lat="50.903829"><ele>108.2</ele><time>2022-05-29T08:22:16.000Z</time></trkpt><trkpt lon="5.752901" lat="50.903897"><ele>108.2</ele><time>2022-05-29T08:22:17.000Z</time></trkpt><trkpt lon="5.752852" lat="50.903964"><ele>107.8</ele><time>2022-05-29T08:22:18.000Z</time></trkpt><trkpt lon="5.752795" lat="50.904034"><ele>107.4</ele><time>2022-05-29T08:22:19.000Z</time></trkpt><trkpt lon="5.752733" lat="50.904099"><ele>107.2</ele><time>2022-05-29T08:22:20.000Z</time></trkpt><trkpt lon="5.752668" lat="50.904164"><ele>107</ele><time>2022-05-29T08:22:21.000Z</time></trkpt><trkpt lon="5.752603" lat="50.904233"><ele>106.8</ele><time>2022-05-29T08:22:22.000Z</time></trkpt><trkpt lon="5.752545" lat="50.904302"><ele>106.6</ele><time>2022-05-29T08:22:23.000Z</time></trkpt><trkpt lon="5.75249" lat="50.904371"><ele>106.4</ele><time>2022-05-29T08:22:24.000Z</time></trkpt><trkpt lon="5.752435" lat="50.90444"><ele>106.4</ele><time>2022-05-29T08:22:25.000Z</time></trkpt><trkpt lon="5.752382" lat="50.904509"><ele>106.2</ele><time>2022-05-29T08:22:26.000Z</time></trkpt><trkpt lon="5.752329" lat="50.90458"><ele>106.4</ele><time>2022-05-29T08:22:27.000Z</time></trkpt><trkpt lon="5.752276" lat="50.904649"><ele>106.6</ele><time>2022-05-29T08:22:28.000Z</time></trkpt><trkpt lon="5.752224" lat="50.904717"><ele>106.6</ele><time>2022-05-29T08:22:29.000Z</time></trkpt><trkpt lon="5.752174" lat="50.904785"><ele>106.6</ele><time>2022-05-29T08:22:30.000Z</time></trkpt><trkpt lon="5.752125" lat="50.904857"><ele>106.8</ele><time>2022-05-29T08:22:31.000Z</time></trkpt><trkpt lon="5.752076" lat="50.904928"><ele>106.8</ele><time>2022-05-29T08:22:32.000Z</time></trkpt><trkpt lon="5.752029" lat="50.904999"><ele>106.8</ele><time>2022-05-29T08:22:33.000Z</time></trkpt><trkpt lon="5.751979" lat="50.905068"><ele>106.8</ele><time>2022-05-29T08:22:34.000Z</time></trkpt><trkpt lon="5.751927" lat="50.905138"><ele>106.8</ele><time>2022-05-29T08:22:35.000Z</time></trkpt><trkpt lon="5.751876" lat="50.905206"><ele>107</ele><time>2022-05-29T08:22:36.000Z</time></trkpt><trkpt lon="5.751826" lat="50.905275"><ele>107</ele><time>2022-05-29T08:22:37.000Z</time></trkpt><trkpt lon="5.751776" lat="50.905344"><ele>107</ele><time>2022-05-29T08:22:38.000Z</time></trkpt><trkpt lon="5.751729" lat="50.905412"><ele>107</ele><time>2022-05-29T08:22:39.000Z</time></trkpt><trkpt lon="5.751682" lat="50.905476"><ele>107.2</ele><time>2022-05-29T08:22:40.000Z</time></trkpt><trkpt lon="5.751638" lat="50.905539"><ele>107.2</ele><time>2022-05-29T08:22:41.000Z</time></trkpt><trkpt lon="5.751591" lat="50.905604"><ele>107.4</ele><time>2022-05-29T08:22:42.000Z</time></trkpt><trkpt lon="5.751547" lat="50.90567"><ele>107.6</ele><time>2022-05-29T08:22:43.000Z</time></trkpt><trkpt lon="5.751504" lat="50.905736"><ele>107.4</ele><time>2022-05-29T08:22:44.000Z</time></trkpt><trkpt lon="5.751461" lat="50.905799"><ele>107.4</ele><time>2022-05-29T08:22:45.000Z</time></trkpt><trkpt lon="5.751423" lat="50.90586"><ele>107.4</ele><time>2022-05-29T08:22:46.000Z</time></trkpt><trkpt lon="5.751398" lat="50.905918"><ele>107.4</ele><time>2022-05-29T08:22:47.000Z</time></trkpt><trkpt lon="5.751389" lat="50.905977"><ele>107.6</ele><time>2022-05-29T08:22:48.000Z</time></trkpt><trkpt lon="5.751412" lat="50.90603"><ele>107.8</ele><time>2022-05-29T08:22:49.000Z</time></trkpt><trkpt lon="5.751466" lat="50.906074"><ele>107.8</ele><time>2022-05-29T08:22:50.000Z</time></trkpt><trkpt lon="5.751542" lat="50.906112"><ele>108</ele><time>2022-05-29T08:22:51.000Z</time></trkpt><trkpt lon="5.751628" lat="50.906151"><ele>108</ele><time>2022-05-29T08:22:52.000Z</time></trkpt><trkpt lon="5.751712" lat="50.906192"><ele>108.2</ele><time>2022-05-29T08:22:53.000Z</time></trkpt><trkpt lon="5.751799" lat="50.906239"><ele>108.2</ele><time>2022-05-29T08:22:54.000Z</time></trkpt><trkpt lon="5.751887" lat="50.906285"><ele>108.4</ele><time>2022-05-29T08:22:55.000Z</time></trkpt><trkpt lon="5.751971" lat="50.90633"><ele>108.6</ele><time>2022-05-29T08:22:56.000Z</time></trkpt><trkpt lon="5.752051" lat="50.906377"><ele>108.6</ele><time>2022-05-29T08:22:57.000Z</time></trkpt><trkpt lon="5.752136" lat="50.906435"><ele>108.6</ele><time>2022-05-29T08:22:58.000Z</time></trkpt><trkpt lon="5.75221" lat="50.906495"><ele>108.6</ele><time>2022-05-29T08:22:59.000Z</time></trkpt><trkpt lon="5.752275" lat="50.906555"><ele>108.6</ele><time>2022-05-29T08:23:00.000Z</time></trkpt><trkpt lon="5.752338" lat="50.906616"><ele>108.6</ele><time>2022-05-29T08:23:01.000Z</time></trkpt><trkpt lon="5.752399" lat="50.906677"><ele>108.6</ele><time>2022-05-29T08:23:02.000Z</time></trkpt><trkpt lon="5.752458" lat="50.906738"><ele>108.8</ele><time>2022-05-29T08:23:03.000Z</time></trkpt><trkpt lon="5.752514" lat="50.906804"><ele>109</ele><time>2022-05-29T08:23:04.000Z</time></trkpt><trkpt lon="5.752565" lat="50.906868"><ele>109</ele><time>2022-05-29T08:23:05.000Z</time></trkpt><trkpt lon="5.752612" lat="50.906934"><ele>109.2</ele><time>2022-05-29T08:23:06.000Z</time></trkpt><trkpt lon="5.752653" lat="50.906998"><ele>109.4</ele><time>2022-05-29T08:23:07.000Z</time></trkpt><trkpt lon="5.752688" lat="50.907064"><ele>109.6</ele><time>2022-05-29T08:23:08.000Z</time></trkpt><trkpt lon="5.752715" lat="50.907132"><ele>109.6</ele><time>2022-05-29T08:23:09.000Z</time></trkpt><trkpt lon="5.752729" lat="50.907201"><ele>109.8</ele><time>2022-05-29T08:23:10.000Z</time></trkpt><trkpt lon="5.752733" lat="50.907271"><ele>109.8</ele><time>2022-05-29T08:23:11.000Z</time></trkpt><trkpt lon="5.752728" lat="50.907342"><ele>109.8</ele><time>2022-05-29T08:23:12.000Z</time></trkpt><trkpt lon="5.75272" lat="50.907416"><ele>109.8</ele><time>2022-05-29T08:23:13.000Z</time></trkpt><trkpt lon="5.752709" lat="50.907487"><ele>109.8</ele><time>2022-05-29T08:23:14.000Z</time></trkpt><trkpt lon="5.752696" lat="50.90756"><ele>109.8</ele><time>2022-05-29T08:23:15.000Z</time></trkpt><trkpt lon="5.752681" lat="50.907633"><ele>109.6</ele><time>2022-05-29T08:23:16.000Z</time></trkpt><trkpt lon="5.752668" lat="50.907706"><ele>109.6</ele><time>2022-05-29T08:23:17.000Z</time></trkpt><trkpt lon="5.752656" lat="50.907781"><ele>109.6</ele><time>2022-05-29T08:23:18.000Z</time></trkpt><trkpt lon="5.75264" lat="50.907854"><ele>109.6</ele><time>2022-05-29T08:23:19.000Z</time></trkpt><trkpt lon="5.752623" lat="50.907928"><ele>109.6</ele><time>2022-05-29T08:23:20.000Z</time></trkpt><trkpt lon="5.752603" lat="50.908003"><ele>109.6</ele><time>2022-05-29T08:23:21.000Z</time></trkpt><trkpt lon="5.752579" lat="50.908074"><ele>109.6</ele><time>2022-05-29T08:23:22.000Z</time></trkpt><trkpt lon="5.752554" lat="50.908147"><ele>109.6</ele><time>2022-05-29T08:23:23.000Z</time></trkpt><trkpt lon="5.752529" lat="50.908224"><ele>109.6</ele><time>2022-05-29T08:23:24.000Z</time></trkpt><trkpt lon="5.752501" lat="50.908297"><ele>109.6</ele><time>2022-05-29T08:23:25.000Z</time></trkpt><trkpt lon="5.752469" lat="50.908372"><ele>109.4</ele><time>2022-05-29T08:23:26.000Z</time></trkpt><trkpt lon="5.752434" lat="50.908445"><ele>109.2</ele><time>2022-05-29T08:23:27.000Z</time></trkpt><trkpt lon="5.752396" lat="50.908521"><ele>109.2</ele><time>2022-05-29T08:23:28.000Z</time></trkpt><trkpt lon="5.752354" lat="50.908593"><ele>109</ele><time>2022-05-29T08:23:29.000Z</time></trkpt><trkpt lon="5.752311" lat="50.908663"><ele>108.6</ele><time>2022-05-29T08:23:30.000Z</time></trkpt><trkpt lon="5.752261" lat="50.908735"><ele>108.6</ele><time>2022-05-29T08:23:31.000Z</time></trkpt><trkpt lon="5.752209" lat="50.908806"><ele>108.4</ele><time>2022-05-29T08:23:32.000Z</time></trkpt><trkpt lon="5.752155" lat="50.908872"><ele>108.2</ele><time>2022-05-29T08:23:33.000Z</time></trkpt><trkpt lon="5.7521" lat="50.908938"><ele>108</ele><time>2022-05-29T08:23:34.000Z</time></trkpt><trkpt lon="5.752039" lat="50.909004"><ele>107.4</ele><time>2022-05-29T08:23:35.000Z</time></trkpt><trkpt lon="5.751978" lat="50.909069"><ele>107.2</ele><time>2022-05-29T08:23:36.000Z</time></trkpt><trkpt lon="5.751919" lat="50.909131"><ele>107.2</ele><time>2022-05-29T08:23:37.000Z</time></trkpt><trkpt lon="5.751859" lat="50.909194"><ele>107</ele><time>2022-05-29T08:23:38.000Z</time></trkpt><trkpt lon="5.751798" lat="50.909251"><ele>107</ele><time>2022-05-29T08:23:39.000Z</time></trkpt><trkpt lon="5.751736" lat="50.909307"><ele>107</ele><time>2022-05-29T08:23:40.000Z</time></trkpt><trkpt lon="5.751675" lat="50.909361"><ele>107</ele><time>2022-05-29T08:23:41.000Z</time></trkpt><trkpt lon="5.751618" lat="50.909414"><ele>107</ele><time>2022-05-29T08:23:42.000Z</time></trkpt><trkpt lon="5.751573" lat="50.909462"><ele>106.8</ele><time>2022-05-29T08:23:43.000Z</time></trkpt><trkpt lon="5.751551" lat="50.909512"><ele>106.8</ele><time>2022-05-29T08:23:44.000Z</time></trkpt><trkpt lon="5.751561" lat="50.90956"><ele>106.8</ele><time>2022-05-29T08:23:45.000Z</time></trkpt><trkpt lon="5.751606" lat="50.909599"><ele>106.8</ele><time>2022-05-29T08:23:46.000Z</time></trkpt><trkpt lon="5.751675" lat="50.909637"><ele>106.8</ele><time>2022-05-29T08:23:47.000Z</time></trkpt><trkpt lon="5.751751" lat="50.90968"><ele>107</ele><time>2022-05-29T08:23:48.000Z</time></trkpt><trkpt lon="5.751832" lat="50.909722"><ele>107</ele><time>2022-05-29T08:23:49.000Z</time></trkpt><trkpt lon="5.751911" lat="50.909764"><ele>107</ele><time>2022-05-29T08:23:50.000Z</time></trkpt><trkpt lon="5.751993" lat="50.90981"><ele>107.2</ele><time>2022-05-29T08:23:51.000Z</time></trkpt><trkpt lon="5.752076" lat="50.909856"><ele>107.2</ele><time>2022-05-29T08:23:52.000Z</time></trkpt><trkpt lon="5.752159" lat="50.909902"><ele>107.4</ele><time>2022-05-29T08:23:53.000Z</time></trkpt><trkpt lon="5.752245" lat="50.909948"><ele>107.4</ele><time>2022-05-29T08:23:54.000Z</time></trkpt><trkpt lon="5.752331" lat="50.909994"><ele>107.4</ele><time>2022-05-29T08:23:55.000Z</time></trkpt><trkpt lon="5.752417" lat="50.910042"><ele>107.6</ele><time>2022-05-29T08:23:56.000Z</time></trkpt><trkpt lon="5.7525" lat="50.910086"><ele>107.6</ele><time>2022-05-29T08:23:57.000Z</time></trkpt><trkpt lon="5.752592" lat="50.910134"><ele>107.6</ele><time>2022-05-29T08:23:58.000Z</time></trkpt><trkpt lon="5.75268" lat="50.910179"><ele>107.6</ele><time>2022-05-29T08:23:59.000Z</time></trkpt><trkpt lon="5.752769" lat="50.910228"><ele>107.6</ele><time>2022-05-29T08:24:00.000Z</time></trkpt><trkpt lon="5.752862" lat="50.910275"><ele>107.8</ele><time>2022-05-29T08:24:01.000Z</time></trkpt><trkpt lon="5.752954" lat="50.910322"><ele>107.8</ele><time>2022-05-29T08:24:02.000Z</time></trkpt><trkpt lon="5.753039" lat="50.910371"><ele>107.8</ele><time>2022-05-29T08:24:03.000Z</time></trkpt><trkpt lon="5.753126" lat="50.910421"><ele>107.8</ele><time>2022-05-29T08:24:04.000Z</time></trkpt><trkpt lon="5.753213" lat="50.910471"><ele>107.8</ele><time>2022-05-29T08:24:05.000Z</time></trkpt><trkpt lon="5.753297" lat="50.910521"><ele>107.8</ele><time>2022-05-29T08:24:06.000Z</time></trkpt><trkpt lon="5.753379" lat="50.910575"><ele>107.8</ele><time>2022-05-29T08:24:07.000Z</time></trkpt><trkpt lon="5.75346" lat="50.910631"><ele>107.8</ele><time>2022-05-29T08:24:08.000Z</time></trkpt><trkpt lon="5.753542" lat="50.910685"><ele>107.8</ele><time>2022-05-29T08:24:09.000Z</time></trkpt><trkpt lon="5.75362" lat="50.910737"><ele>107.8</ele><time>2022-05-29T08:24:10.000Z</time></trkpt><trkpt lon="5.753703" lat="50.910797"><ele>107.8</ele><time>2022-05-29T08:24:11.000Z</time></trkpt><trkpt lon="5.75378" lat="50.910857"><ele>108</ele><time>2022-05-29T08:24:12.000Z</time></trkpt><trkpt lon="5.753857" lat="50.910914"><ele>108</ele><time>2022-05-29T08:24:13.000Z</time></trkpt><trkpt lon="5.753935" lat="50.910972"><ele>108</ele><time>2022-05-29T08:24:14.000Z</time></trkpt><trkpt lon="5.754011" lat="50.911029"><ele>108</ele><time>2022-05-29T08:24:15.000Z</time></trkpt><trkpt lon="5.754085" lat="50.91109"><ele>108</ele><time>2022-05-29T08:24:16.000Z</time></trkpt><trkpt lon="5.754158" lat="50.911147"><ele>108</ele><time>2022-05-29T08:24:17.000Z</time></trkpt><trkpt lon="5.754232" lat="50.911208"><ele>108</ele><time>2022-05-29T08:24:18.000Z</time></trkpt><trkpt lon="5.754305" lat="50.911266"><ele>108</ele><time>2022-05-29T08:24:19.000Z</time></trkpt><trkpt lon="5.754377" lat="50.911327"><ele>108.2</ele><time>2022-05-29T08:24:20.000Z</time></trkpt><trkpt lon="5.754444" lat="50.911385"><ele>108.2</ele><time>2022-05-29T08:24:21.000Z</time></trkpt><trkpt lon="5.754511" lat="50.911449"><ele>108.2</ele><time>2022-05-29T08:24:22.000Z</time></trkpt><trkpt lon="5.754577" lat="50.91151"><ele>108.2</ele><time>2022-05-29T08:24:23.000Z</time></trkpt><trkpt lon="5.754642" lat="50.91157"><ele>108.2</ele><time>2022-05-29T08:24:24.000Z</time></trkpt><trkpt lon="5.754706" lat="50.911636"><ele>108.2</ele><time>2022-05-29T08:24:25.000Z</time></trkpt><trkpt lon="5.754769" lat="50.911701"><ele>108.2</ele><time>2022-05-29T08:24:26.000Z</time></trkpt><trkpt lon="5.754831" lat="50.911766"><ele>108.2</ele><time>2022-05-29T08:24:27.000Z</time></trkpt><trkpt lon="5.754892" lat="50.911831"><ele>108.2</ele><time>2022-05-29T08:24:28.000Z</time></trkpt><trkpt lon="5.754952" lat="50.911898"><ele>108.4</ele><time>2022-05-29T08:24:29.000Z</time></trkpt><trkpt lon="5.755013" lat="50.911967"><ele>108.2</ele><time>2022-05-29T08:24:30.000Z</time></trkpt><trkpt lon="5.755075" lat="50.912035"><ele>108.2</ele><time>2022-05-29T08:24:31.000Z</time></trkpt><trkpt lon="5.755134" lat="50.912102"><ele>108.2</ele><time>2022-05-29T08:24:32.000Z</time></trkpt><trkpt lon="5.755196" lat="50.912172"><ele>108.2</ele><time>2022-05-29T08:24:33.000Z</time></trkpt><trkpt lon="5.755254" lat="50.91224"><ele>108.2</ele><time>2022-05-29T08:24:34.000Z</time></trkpt><trkpt lon="5.755315" lat="50.912306"><ele>108.2</ele><time>2022-05-29T08:24:35.000Z</time></trkpt><trkpt lon="5.755375" lat="50.912373"><ele>108</ele><time>2022-05-29T08:24:36.000Z</time></trkpt><trkpt lon="5.755436" lat="50.912439"><ele>108</ele><time>2022-05-29T08:24:37.000Z</time></trkpt><trkpt lon="5.755496" lat="50.912507"><ele>108</ele><time>2022-05-29T08:24:38.000Z</time></trkpt><trkpt lon="5.755557" lat="50.912574"><ele>108</ele><time>2022-05-29T08:24:39.000Z</time></trkpt><trkpt lon="5.755622" lat="50.912641"><ele>107.8</ele><time>2022-05-29T08:24:40.000Z</time></trkpt><trkpt lon="5.755685" lat="50.912709"><ele>107.8</ele><time>2022-05-29T08:24:41.000Z</time></trkpt><trkpt lon="5.75575" lat="50.912773"><ele>107.8</ele><time>2022-05-29T08:24:42.000Z</time></trkpt><trkpt lon="5.755818" lat="50.912842"><ele>107.6</ele><time>2022-05-29T08:24:43.000Z</time></trkpt><trkpt lon="5.755888" lat="50.912907"><ele>107.6</ele><time>2022-05-29T08:24:44.000Z</time></trkpt><trkpt lon="5.755962" lat="50.912972"><ele>107.4</ele><time>2022-05-29T08:24:45.000Z</time></trkpt><trkpt lon="5.756036" lat="50.913036"><ele>107.4</ele><time>2022-05-29T08:24:46.000Z</time></trkpt><trkpt lon="5.75611" lat="50.913097"><ele>107.2</ele><time>2022-05-29T08:24:47.000Z</time></trkpt><trkpt lon="5.756183" lat="50.913156"><ele>107.2</ele><time>2022-05-29T08:24:48.000Z</time></trkpt><trkpt lon="5.756261" lat="50.913219"><ele>107.2</ele><time>2022-05-29T08:24:49.000Z</time></trkpt><trkpt lon="5.756336" lat="50.913275"><ele>107.2</ele><time>2022-05-29T08:24:50.000Z</time></trkpt><trkpt lon="5.756419" lat="50.913337"><ele>107</ele><time>2022-05-29T08:24:51.000Z</time></trkpt><trkpt lon="5.7565" lat="50.913393"><ele>107</ele><time>2022-05-29T08:24:52.000Z</time></trkpt><trkpt lon="5.756583" lat="50.913447"><ele>107</ele><time>2022-05-29T08:24:53.000Z</time></trkpt><trkpt lon="5.756669" lat="50.913504"><ele>107</ele><time>2022-05-29T08:24:54.000Z</time></trkpt><trkpt lon="5.756761" lat="50.913558"><ele>106.8</ele><time>2022-05-29T08:24:55.000Z</time></trkpt><trkpt lon="5.756851" lat="50.91361"><ele>106.8</ele><time>2022-05-29T08:24:56.000Z</time></trkpt><trkpt lon="5.756948" lat="50.913665"><ele>106.8</ele><time>2022-05-29T08:24:57.000Z</time></trkpt><trkpt lon="5.75704" lat="50.913721"><ele>106.8</ele><time>2022-05-29T08:24:58.000Z</time></trkpt><trkpt lon="5.757133" lat="50.913774"><ele>106.8</ele><time>2022-05-29T08:24:59.000Z</time></trkpt><trkpt lon="5.75723" lat="50.913829"><ele>106.6</ele><time>2022-05-29T08:25:00.000Z</time></trkpt><trkpt lon="5.757323" lat="50.913881"><ele>106.6</ele><time>2022-05-29T08:25:01.000Z</time></trkpt><trkpt lon="5.757413" lat="50.913933"><ele>106.6</ele><time>2022-05-29T08:25:02.000Z</time></trkpt><trkpt lon="5.757513" lat="50.913992"><ele>106.4</ele><time>2022-05-29T08:25:03.000Z</time></trkpt><trkpt lon="5.757606" lat="50.914045"><ele>106.4</ele><time>2022-05-29T08:25:04.000Z</time></trkpt><trkpt lon="5.757701" lat="50.914099"><ele>106.4</ele><time>2022-05-29T08:25:05.000Z</time></trkpt><trkpt lon="5.757793" lat="50.914153"><ele>106.4</ele><time>2022-05-29T08:25:06.000Z</time></trkpt><trkpt lon="5.757887" lat="50.914209"><ele>106.4</ele><time>2022-05-29T08:25:07.000Z</time></trkpt><trkpt lon="5.757979" lat="50.914264"><ele>106.2</ele><time>2022-05-29T08:25:08.000Z</time></trkpt><trkpt lon="5.758071" lat="50.914317"><ele>106</ele><time>2022-05-29T08:25:09.000Z</time></trkpt><trkpt lon="5.758162" lat="50.91437"><ele>106</ele><time>2022-05-29T08:25:10.000Z</time></trkpt><trkpt lon="5.758255" lat="50.914423"><ele>105.8</ele><time>2022-05-29T08:25:11.000Z</time></trkpt><trkpt lon="5.758347" lat="50.914477"><ele>105.8</ele><time>2022-05-29T08:25:12.000Z</time></trkpt><trkpt lon="5.758439" lat="50.914529"><ele>105.8</ele><time>2022-05-29T08:25:13.000Z</time></trkpt><trkpt lon="5.758526" lat="50.914578"><ele>105.8</ele><time>2022-05-29T08:25:14.000Z</time></trkpt><trkpt lon="5.758604" lat="50.914623"><ele>105.8</ele><time>2022-05-29T08:25:15.000Z</time></trkpt><trkpt lon="5.758671" lat="50.91466"><ele>105.6</ele><time>2022-05-29T08:25:16.000Z</time></trkpt><trkpt lon="5.758742" lat="50.9147"><ele>105.6</ele><time>2022-05-29T08:25:17.000Z</time></trkpt><trkpt lon="5.758817" lat="50.914742"><ele>105.4</ele><time>2022-05-29T08:25:18.000Z</time></trkpt><trkpt lon="5.758898" lat="50.914784"><ele>105.4</ele><time>2022-05-29T08:25:19.000Z</time></trkpt><trkpt lon="5.758981" lat="50.914829"><ele>105.4</ele><time>2022-05-29T08:25:20.000Z</time></trkpt><trkpt lon="5.759069" lat="50.914877"><ele>105.2</ele><time>2022-05-29T08:25:21.000Z</time></trkpt><trkpt lon="5.759151" lat="50.914927"><ele>105</ele><time>2022-05-29T08:25:22.000Z</time></trkpt><trkpt lon="5.759231" lat="50.91498"><ele>105</ele><time>2022-05-29T08:25:23.000Z</time></trkpt><trkpt lon="5.759305" lat="50.915029"><ele>104.8</ele><time>2022-05-29T08:25:24.000Z</time></trkpt><trkpt lon="5.759383" lat="50.915082"><ele>104.6</ele><time>2022-05-29T08:25:25.000Z</time></trkpt><trkpt lon="5.759461" lat="50.915134"><ele>104.6</ele><time>2022-05-29T08:25:26.000Z</time></trkpt><trkpt lon="5.75954" lat="50.915188"><ele>104.4</ele><time>2022-05-29T08:25:27.000Z</time></trkpt><trkpt lon="5.759607" lat="50.915233"><ele>104.4</ele><time>2022-05-29T08:25:28.000Z</time></trkpt><trkpt lon="5.759705" lat="50.915297"><ele>104.4</ele><time>2022-05-29T08:25:29.000Z</time></trkpt><trkpt lon="5.75979" lat="50.915351"><ele>104.2</ele><time>2022-05-29T08:25:30.000Z</time></trkpt><trkpt lon="5.759874" lat="50.915408"><ele>104.2</ele><time>2022-05-29T08:25:31.000Z</time></trkpt><trkpt lon="5.759958" lat="50.915461"><ele>104.4</ele><time>2022-05-29T08:25:32.000Z</time></trkpt><trkpt lon="5.760041" lat="50.915515"><ele>104.4</ele><time>2022-05-29T08:25:33.000Z</time></trkpt><trkpt lon="5.760125" lat="50.915572"><ele>104.4</ele><time>2022-05-29T08:25:34.000Z</time></trkpt><trkpt lon="5.760207" lat="50.915626"><ele>104.6</ele><time>2022-05-29T08:25:35.000Z</time></trkpt><trkpt lon="5.760291" lat="50.915683"><ele>104.6</ele><time>2022-05-29T08:25:36.000Z</time></trkpt><trkpt lon="5.760379" lat="50.91574"><ele>104.8</ele><time>2022-05-29T08:25:37.000Z</time></trkpt><trkpt lon="5.760468" lat="50.915793"><ele>104.6</ele><time>2022-05-29T08:25:38.000Z</time></trkpt><trkpt lon="5.760562" lat="50.915845"><ele>104.6</ele><time>2022-05-29T08:25:39.000Z</time></trkpt><trkpt lon="5.760658" lat="50.915891"><ele>104.4</ele><time>2022-05-29T08:25:40.000Z</time></trkpt><trkpt lon="5.760759" lat="50.915935"><ele>104.4</ele><time>2022-05-29T08:25:41.000Z</time></trkpt><trkpt lon="5.760868" lat="50.915973"><ele>104.6</ele><time>2022-05-29T08:25:42.000Z</time></trkpt><trkpt lon="5.760978" lat="50.916006"><ele>104.6</ele><time>2022-05-29T08:25:43.000Z</time></trkpt><trkpt lon="5.761091" lat="50.916037"><ele>104.8</ele><time>2022-05-29T08:25:44.000Z</time></trkpt><trkpt lon="5.761203" lat="50.916073"><ele>104.8</ele><time>2022-05-29T08:25:45.000Z</time></trkpt><trkpt lon="5.761312" lat="50.91611"><ele>104.8</ele><time>2022-05-29T08:25:46.000Z</time></trkpt><trkpt lon="5.76142" lat="50.916145"><ele>104.8</ele><time>2022-05-29T08:25:47.000Z</time></trkpt><trkpt lon="5.761523" lat="50.916184"><ele>104.8</ele><time>2022-05-29T08:25:48.000Z</time></trkpt><trkpt lon="5.761621" lat="50.916228"><ele>104.8</ele><time>2022-05-29T08:25:49.000Z</time></trkpt><trkpt lon="5.761721" lat="50.916272"><ele>104.8</ele><time>2022-05-29T08:25:50.000Z</time></trkpt><trkpt lon="5.761817" lat="50.916323"><ele>104.8</ele><time>2022-05-29T08:25:51.000Z</time></trkpt><trkpt lon="5.761906" lat="50.916375"><ele>104.8</ele><time>2022-05-29T08:25:52.000Z</time></trkpt><trkpt lon="5.761998" lat="50.916431"><ele>104.8</ele><time>2022-05-29T08:25:53.000Z</time></trkpt><trkpt lon="5.762083" lat="50.916488"><ele>104.8</ele><time>2022-05-29T08:25:54.000Z</time></trkpt><trkpt lon="5.762168" lat="50.916549"><ele>104.8</ele><time>2022-05-29T08:25:55.000Z</time></trkpt><trkpt lon="5.762247" lat="50.916606"><ele>104.8</ele><time>2022-05-29T08:25:56.000Z</time></trkpt><trkpt lon="5.762324" lat="50.916668"><ele>104.8</ele><time>2022-05-29T08:25:57.000Z</time></trkpt><trkpt lon="5.762395" lat="50.916729"><ele>104.8</ele><time>2022-05-29T08:25:58.000Z</time></trkpt><trkpt lon="5.762461" lat="50.916794"><ele>105</ele><time>2022-05-29T08:25:59.000Z</time></trkpt><trkpt lon="5.76252" lat="50.916858"><ele>105</ele><time>2022-05-29T08:26:00.000Z</time></trkpt><trkpt lon="5.762575" lat="50.916928"><ele>104.8</ele><time>2022-05-29T08:26:01.000Z</time></trkpt><trkpt lon="5.762625" lat="50.916996"><ele>104.8</ele><time>2022-05-29T08:26:02.000Z</time></trkpt><trkpt lon="5.762677" lat="50.917067"><ele>105</ele><time>2022-05-29T08:26:03.000Z</time></trkpt><trkpt lon="5.762728" lat="50.917134"><ele>105</ele><time>2022-05-29T08:26:04.000Z</time></trkpt><trkpt lon="5.762779" lat="50.917199"><ele>105</ele><time>2022-05-29T08:26:05.000Z</time></trkpt><trkpt lon="5.762828" lat="50.917267"><ele>105.2</ele><time>2022-05-29T08:26:06.000Z</time></trkpt><trkpt lon="5.762875" lat="50.917333"><ele>105.4</ele><time>2022-05-29T08:26:07.000Z</time></trkpt><trkpt lon="5.762922" lat="50.917402"><ele>105.4</ele><time>2022-05-29T08:26:08.000Z</time></trkpt><trkpt lon="5.762969" lat="50.917471"><ele>105.4</ele><time>2022-05-29T08:26:09.000Z</time></trkpt><trkpt lon="5.763015" lat="50.917539"><ele>105.6</ele><time>2022-05-29T08:26:10.000Z</time></trkpt><trkpt lon="5.763059" lat="50.917606"><ele>105.8</ele><time>2022-05-29T08:26:11.000Z</time></trkpt><trkpt lon="5.763103" lat="50.917672"><ele>105.8</ele><time>2022-05-29T08:26:12.000Z</time></trkpt><trkpt lon="5.763148" lat="50.917741"><ele>105.8</ele><time>2022-05-29T08:26:13.000Z</time></trkpt><trkpt lon="5.763193" lat="50.917809"><ele>105.8</ele><time>2022-05-29T08:26:14.000Z</time></trkpt><trkpt lon="5.763237" lat="50.917878"><ele>105.8</ele><time>2022-05-29T08:26:15.000Z</time></trkpt><trkpt lon="5.76328" lat="50.917944"><ele>106</ele><time>2022-05-29T08:26:16.000Z</time></trkpt><trkpt lon="5.763325" lat="50.918012"><ele>106</ele><time>2022-05-29T08:26:17.000Z</time></trkpt><trkpt lon="5.763366" lat="50.91808"><ele>106.2</ele><time>2022-05-29T08:26:18.000Z</time></trkpt><trkpt lon="5.763407" lat="50.918145"><ele>106.4</ele><time>2022-05-29T08:26:19.000Z</time></trkpt><trkpt lon="5.763448" lat="50.918213"><ele>106.8</ele><time>2022-05-29T08:26:20.000Z</time></trkpt><trkpt lon="5.763485" lat="50.918283"><ele>107</ele><time>2022-05-29T08:26:21.000Z</time></trkpt><trkpt lon="5.763522" lat="50.918351"><ele>107.2</ele><time>2022-05-29T08:26:22.000Z</time></trkpt><trkpt lon="5.763561" lat="50.91842"><ele>107.2</ele><time>2022-05-29T08:26:23.000Z</time></trkpt><trkpt lon="5.763601" lat="50.918489"><ele>107.4</ele><time>2022-05-29T08:26:24.000Z</time></trkpt><trkpt lon="5.763641" lat="50.918558"><ele>107.4</ele><time>2022-05-29T08:26:25.000Z</time></trkpt><trkpt lon="5.763684" lat="50.918627"><ele>107.4</ele><time>2022-05-29T08:26:26.000Z</time></trkpt><trkpt lon="5.763727" lat="50.918695"><ele>107.4</ele><time>2022-05-29T08:26:27.000Z</time></trkpt><trkpt lon="5.763772" lat="50.918765"><ele>107.4</ele><time>2022-05-29T08:26:28.000Z</time></trkpt><trkpt lon="5.763817" lat="50.918837"><ele>107.4</ele><time>2022-05-29T08:26:29.000Z</time></trkpt><trkpt lon="5.763862" lat="50.918911"><ele>107.2</ele><time>2022-05-29T08:26:30.000Z</time></trkpt><trkpt lon="5.763902" lat="50.918987"><ele>107</ele><time>2022-05-29T08:26:31.000Z</time></trkpt><trkpt lon="5.763938" lat="50.919062"><ele>106.8</ele><time>2022-05-29T08:26:32.000Z</time></trkpt><trkpt lon="5.763969" lat="50.919137"><ele>106.4</ele><time>2022-05-29T08:26:33.000Z</time></trkpt><trkpt lon="5.763996" lat="50.919218"><ele>106.2</ele><time>2022-05-29T08:26:34.000Z</time></trkpt><trkpt lon="5.764018" lat="50.919295"><ele>106</ele><time>2022-05-29T08:26:35.000Z</time></trkpt><trkpt lon="5.764036" lat="50.919371"><ele>105.8</ele><time>2022-05-29T08:26:36.000Z</time></trkpt><trkpt lon="5.764052" lat="50.919448"><ele>105.6</ele><time>2022-05-29T08:26:37.000Z</time></trkpt><trkpt lon="5.764061" lat="50.919524"><ele>105.4</ele><time>2022-05-29T08:26:38.000Z</time></trkpt><trkpt lon="5.764067" lat="50.9196"><ele>105.2</ele><time>2022-05-29T08:26:39.000Z</time></trkpt><trkpt lon="5.764068" lat="50.919674"><ele>105</ele><time>2022-05-29T08:26:40.000Z</time></trkpt><trkpt lon="5.764064" lat="50.919753"><ele>104.8</ele><time>2022-05-29T08:26:41.000Z</time></trkpt><trkpt lon="5.764058" lat="50.919825"><ele>104.6</ele><time>2022-05-29T08:26:42.000Z</time></trkpt><trkpt lon="5.764045" lat="50.919897"><ele>104.4</ele><time>2022-05-29T08:26:43.000Z</time></trkpt><trkpt lon="5.764028" lat="50.91997"><ele>104.2</ele><time>2022-05-29T08:26:44.000Z</time></trkpt><trkpt lon="5.764006" lat="50.920041"><ele>103.8</ele><time>2022-05-29T08:26:45.000Z</time></trkpt><trkpt lon="5.76398" lat="50.920113"><ele>103.8</ele><time>2022-05-29T08:26:46.000Z</time></trkpt><trkpt lon="5.76395" lat="50.920184"><ele>103.8</ele><time>2022-05-29T08:26:47.000Z</time></trkpt><trkpt lon="5.763917" lat="50.920256"><ele>103.8</ele><time>2022-05-29T08:26:48.000Z</time></trkpt><trkpt lon="5.763884" lat="50.920327"><ele>103.8</ele><time>2022-05-29T08:26:49.000Z</time></trkpt><trkpt lon="5.763851" lat="50.920394"><ele>103.6</ele><time>2022-05-29T08:26:50.000Z</time></trkpt><trkpt lon="5.763816" lat="50.92046"><ele>103.8</ele><time>2022-05-29T08:26:51.000Z</time></trkpt><trkpt lon="5.763786" lat="50.920524"><ele>103.8</ele><time>2022-05-29T08:26:52.000Z</time></trkpt><trkpt lon="5.763755" lat="50.920594"><ele>103.8</ele><time>2022-05-29T08:26:53.000Z</time></trkpt><trkpt lon="5.763726" lat="50.920658"><ele>103.8</ele><time>2022-05-29T08:26:54.000Z</time></trkpt><trkpt lon="5.763694" lat="50.920724"><ele>103.6</ele><time>2022-05-29T08:26:55.000Z</time></trkpt><trkpt lon="5.763664" lat="50.92079"><ele>103.6</ele><time>2022-05-29T08:26:56.000Z</time></trkpt><trkpt lon="5.76363" lat="50.920861"><ele>103.6</ele><time>2022-05-29T08:26:57.000Z</time></trkpt><trkpt lon="5.763592" lat="50.920926"><ele>103.6</ele><time>2022-05-29T08:26:58.000Z</time></trkpt><trkpt lon="5.76355" lat="50.920995"><ele>103.4</ele><time>2022-05-29T08:26:59.000Z</time></trkpt><trkpt lon="5.763507" lat="50.921063"><ele>103.4</ele><time>2022-05-29T08:27:00.000Z</time></trkpt><trkpt lon="5.76346" lat="50.921129"><ele>103.2</ele><time>2022-05-29T08:27:01.000Z</time></trkpt><trkpt lon="5.763414" lat="50.921199"><ele>103.2</ele><time>2022-05-29T08:27:02.000Z</time></trkpt><trkpt lon="5.763365" lat="50.921265"><ele>103.2</ele><time>2022-05-29T08:27:03.000Z</time></trkpt><trkpt lon="5.763317" lat="50.921332"><ele>103.2</ele><time>2022-05-29T08:27:04.000Z</time></trkpt><trkpt lon="5.763262" lat="50.921398"><ele>103.2</ele><time>2022-05-29T08:27:05.000Z</time></trkpt><trkpt lon="5.76321" lat="50.921463"><ele>103</ele><time>2022-05-29T08:27:06.000Z</time></trkpt><trkpt lon="5.763157" lat="50.921533"><ele>103</ele><time>2022-05-29T08:27:07.000Z</time></trkpt><trkpt lon="5.763101" lat="50.921601"><ele>103</ele><time>2022-05-29T08:27:08.000Z</time></trkpt><trkpt lon="5.763049" lat="50.921662"><ele>102.8</ele><time>2022-05-29T08:27:09.000Z</time></trkpt><trkpt lon="5.762998" lat="50.921726"><ele>102.6</ele><time>2022-05-29T08:27:10.000Z</time></trkpt><trkpt lon="5.762946" lat="50.921791"><ele>102.4</ele><time>2022-05-29T08:27:11.000Z</time></trkpt><trkpt lon="5.762894" lat="50.921852"><ele>102.2</ele><time>2022-05-29T08:27:12.000Z</time></trkpt><trkpt lon="5.762843" lat="50.921913"><ele>102.2</ele><time>2022-05-29T08:27:13.000Z</time></trkpt><trkpt lon="5.762788" lat="50.921977"><ele>102.2</ele><time>2022-05-29T08:27:14.000Z</time></trkpt><trkpt lon="5.762733" lat="50.922035"><ele>102.2</ele><time>2022-05-29T08:27:15.000Z</time></trkpt><trkpt lon="5.762675" lat="50.922092"><ele>102.2</ele><time>2022-05-29T08:27:16.000Z</time></trkpt><trkpt lon="5.762614" lat="50.922149"><ele>102.4</ele><time>2022-05-29T08:27:17.000Z</time></trkpt><trkpt lon="5.762549" lat="50.922207"><ele>102.4</ele><time>2022-05-29T08:27:18.000Z</time></trkpt><trkpt lon="5.762479" lat="50.922267"><ele>102.6</ele><time>2022-05-29T08:27:19.000Z</time></trkpt><trkpt lon="5.762411" lat="50.922325"><ele>102.4</ele><time>2022-05-29T08:27:20.000Z</time></trkpt><trkpt lon="5.762343" lat="50.922386"><ele>102.6</ele><time>2022-05-29T08:27:21.000Z</time></trkpt><trkpt lon="5.762276" lat="50.92245"><ele>102.4</ele><time>2022-05-29T08:27:22.000Z</time></trkpt><trkpt lon="5.762212" lat="50.922517"><ele>102.4</ele><time>2022-05-29T08:27:23.000Z</time></trkpt><trkpt lon="5.762152" lat="50.922584"><ele>102.4</ele><time>2022-05-29T08:27:24.000Z</time></trkpt><trkpt lon="5.762093" lat="50.922654"><ele>102.4</ele><time>2022-05-29T08:27:25.000Z</time></trkpt><trkpt lon="5.762036" lat="50.922718"><ele>102.4</ele><time>2022-05-29T08:27:26.000Z</time></trkpt><trkpt lon="5.76198" lat="50.922787"><ele>102.2</ele><time>2022-05-29T08:27:27.000Z</time></trkpt><trkpt lon="5.761927" lat="50.922851"><ele>102.2</ele><time>2022-05-29T08:27:28.000Z</time></trkpt><trkpt lon="5.761874" lat="50.922908"><ele>102.2</ele><time>2022-05-29T08:27:29.000Z</time></trkpt><trkpt lon="5.76182" lat="50.92297"><ele>102.2</ele><time>2022-05-29T08:27:30.000Z</time></trkpt><trkpt lon="5.761767" lat="50.923031"><ele>102.2</ele><time>2022-05-29T08:27:31.000Z</time></trkpt><trkpt lon="5.761717" lat="50.923092"><ele>102.2</ele><time>2022-05-29T08:27:32.000Z</time></trkpt><trkpt lon="5.761675" lat="50.923158"><ele>102.4</ele><time>2022-05-29T08:27:33.000Z</time></trkpt><trkpt lon="5.761643" lat="50.923226"><ele>102.6</ele><time>2022-05-29T08:27:34.000Z</time></trkpt><trkpt lon="5.761613" lat="50.923295"><ele>102.6</ele><time>2022-05-29T08:27:35.000Z</time></trkpt><trkpt lon="5.761581" lat="50.923367"><ele>102.8</ele><time>2022-05-29T08:27:36.000Z</time></trkpt><trkpt lon="5.761547" lat="50.923437"><ele>102.8</ele><time>2022-05-29T08:27:37.000Z</time></trkpt><trkpt lon="5.761513" lat="50.923508"><ele>103</ele><time>2022-05-29T08:27:38.000Z</time></trkpt><trkpt lon="5.761479" lat="50.923578"><ele>103</ele><time>2022-05-29T08:27:39.000Z</time></trkpt><trkpt lon="5.761448" lat="50.923646"><ele>103</ele><time>2022-05-29T08:27:40.000Z</time></trkpt><trkpt lon="5.761418" lat="50.923714"><ele>103</ele><time>2022-05-29T08:27:41.000Z</time></trkpt><trkpt lon="5.761389" lat="50.923779"><ele>103</ele><time>2022-05-29T08:27:42.000Z</time></trkpt><trkpt lon="5.761357" lat="50.923844"><ele>103</ele><time>2022-05-29T08:27:43.000Z</time></trkpt><trkpt lon="5.761325" lat="50.923909"><ele>103.2</ele><time>2022-05-29T08:27:44.000Z</time></trkpt><trkpt lon="5.761294" lat="50.923974"><ele>103.2</ele><time>2022-05-29T08:27:45.000Z</time></trkpt><trkpt lon="5.761264" lat="50.924039"><ele>103.4</ele><time>2022-05-29T08:27:46.000Z</time></trkpt><trkpt lon="5.761231" lat="50.924104"><ele>103.6</ele><time>2022-05-29T08:27:47.000Z</time></trkpt><trkpt lon="5.761199" lat="50.924168"><ele>103.6</ele><time>2022-05-29T08:27:48.000Z</time></trkpt><trkpt lon="5.761167" lat="50.924233"><ele>103.6</ele><time>2022-05-29T08:27:49.000Z</time></trkpt><trkpt lon="5.761133" lat="50.924297"><ele>103.6</ele><time>2022-05-29T08:27:50.000Z</time></trkpt><trkpt lon="5.761099" lat="50.924359"><ele>103.8</ele><time>2022-05-29T08:27:51.000Z</time></trkpt><trkpt lon="5.761065" lat="50.924423"><ele>104</ele><time>2022-05-29T08:27:52.000Z</time></trkpt><trkpt lon="5.761033" lat="50.924484"><ele>104</ele><time>2022-05-29T08:27:53.000Z</time></trkpt><trkpt lon="5.761001" lat="50.924545"><ele>104</ele><time>2022-05-29T08:27:54.000Z</time></trkpt><trkpt lon="5.760969" lat="50.924606"><ele>104</ele><time>2022-05-29T08:27:55.000Z</time></trkpt><trkpt lon="5.760938" lat="50.924667"><ele>104.2</ele><time>2022-05-29T08:27:56.000Z</time></trkpt><trkpt lon="5.760906" lat="50.924729"><ele>104.2</ele><time>2022-05-29T08:27:57.000Z</time></trkpt><trkpt lon="5.760878" lat="50.924794"><ele>104.2</ele><time>2022-05-29T08:27:58.000Z</time></trkpt><trkpt lon="5.760848" lat="50.924858"><ele>104.2</ele><time>2022-05-29T08:27:59.000Z</time></trkpt><trkpt lon="5.760817" lat="50.924919"><ele>104.4</ele><time>2022-05-29T08:28:00.000Z</time></trkpt><trkpt lon="5.760784" lat="50.924984"><ele>104.6</ele><time>2022-05-29T08:28:01.000Z</time></trkpt><trkpt lon="5.760754" lat="50.925041"><ele>104.8</ele><time>2022-05-29T08:28:02.000Z</time></trkpt><trkpt lon="5.760722" lat="50.925098"><ele>105</ele><time>2022-05-29T08:28:03.000Z</time></trkpt><trkpt lon="5.760689" lat="50.925159"><ele>105</ele><time>2022-05-29T08:28:04.000Z</time></trkpt><trkpt lon="5.760655" lat="50.92522"><ele>105</ele><time>2022-05-29T08:28:05.000Z</time></trkpt><trkpt lon="5.760621" lat="50.925277"><ele>105.2</ele><time>2022-05-29T08:28:06.000Z</time></trkpt><trkpt lon="5.760587" lat="50.925334"><ele>105.4</ele><time>2022-05-29T08:28:07.000Z</time></trkpt><trkpt lon="5.760555" lat="50.925386"><ele>105.6</ele><time>2022-05-29T08:28:08.000Z</time></trkpt><trkpt lon="5.760525" lat="50.925436"><ele>105.6</ele><time>2022-05-29T08:28:09.000Z</time></trkpt><trkpt lon="5.760498" lat="50.925485"><ele>105.8</ele><time>2022-05-29T08:28:10.000Z</time></trkpt><trkpt lon="5.760472" lat="50.92553"><ele>106</ele><time>2022-05-29T08:28:11.000Z</time></trkpt><trkpt lon="5.760448" lat="50.925572"><ele>106.2</ele><time>2022-05-29T08:28:12.000Z</time></trkpt><trkpt lon="5.760426" lat="50.925612"><ele>106.2</ele><time>2022-05-29T08:28:13.000Z</time></trkpt><trkpt lon="5.760404" lat="50.925645"><ele>106.4</ele><time>2022-05-29T08:28:14.000Z</time></trkpt><trkpt lon="5.76038" lat="50.925672"><ele>106.4</ele><time>2022-05-29T08:28:15.000Z</time></trkpt><trkpt lon="5.760363" lat="50.925697"><ele>106.4</ele><time>2022-05-29T08:28:16.000Z</time></trkpt><trkpt lon="5.760352" lat="50.925716"><ele>106.6</ele><time>2022-05-29T08:28:17.000Z</time></trkpt><trkpt lon="5.760355" lat="50.925731"><ele>106.6</ele><time>2022-05-29T08:28:18.000Z</time></trkpt><trkpt lon="5.760376" lat="50.925746"><ele>106.6</ele><time>2022-05-29T08:28:19.000Z</time></trkpt><trkpt lon="5.760413" lat="50.92576"><ele>106.6</ele><time>2022-05-29T08:28:20.000Z</time></trkpt><trkpt lon="5.760461" lat="50.925769"><ele>106.6</ele><time>2022-05-29T08:28:21.000Z</time></trkpt><trkpt lon="5.760509" lat="50.925784"><ele>106.6</ele><time>2022-05-29T08:28:22.000Z</time></trkpt><trkpt lon="5.760546" lat="50.925797"><ele>106.6</ele><time>2022-05-29T08:28:23.000Z</time></trkpt><trkpt lon="5.760578" lat="50.925828"><ele>106.8</ele><time>2022-05-29T08:28:24.000Z</time></trkpt><trkpt lon="5.760597" lat="50.925855"><ele>106.8</ele><time>2022-05-29T08:28:25.000Z</time></trkpt><trkpt lon="5.760609" lat="50.925886"><ele>106.8</ele><time>2022-05-29T08:28:26.000Z</time></trkpt><trkpt lon="5.760617" lat="50.925916"><ele>106.8</ele><time>2022-05-29T08:28:27.000Z</time></trkpt><trkpt lon="5.760618" lat="50.925946"><ele>106.8</ele><time>2022-05-29T08:28:28.000Z</time></trkpt><trkpt lon="5.760604" lat="50.925971"><ele>106.8</ele><time>2022-05-29T08:28:29.000Z</time></trkpt><trkpt lon="5.760569" lat="50.925986"><ele>106.8</ele><time>2022-05-29T08:28:30.000Z</time></trkpt><trkpt lon="5.760526" lat="50.925998"><ele>106.6</ele><time>2022-05-29T08:28:31.000Z</time></trkpt><trkpt lon="5.760482" lat="50.926013"><ele>106.6</ele><time>2022-05-29T08:28:32.000Z</time></trkpt><trkpt lon="5.760441" lat="50.926028"><ele>106.6</ele><time>2022-05-29T08:28:33.000Z</time></trkpt><trkpt lon="5.760402" lat="50.926043"><ele>106.8</ele><time>2022-05-29T08:28:34.000Z</time></trkpt><trkpt lon="5.760369" lat="50.926058"><ele>106.8</ele><time>2022-05-29T08:28:35.000Z</time></trkpt><trkpt lon="5.760334" lat="50.926071"><ele>106.8</ele><time>2022-05-29T08:28:36.000Z</time></trkpt><trkpt lon="5.760293" lat="50.92609"><ele>106.8</ele><time>2022-05-29T08:28:37.000Z</time></trkpt><trkpt lon="5.760249" lat="50.926111"><ele>106.8</ele><time>2022-05-29T08:28:38.000Z</time></trkpt><trkpt lon="5.760208" lat="50.926144"><ele>106.6</ele><time>2022-05-29T08:28:39.000Z</time></trkpt><trkpt lon="5.760172" lat="50.926187"><ele>106.6</ele><time>2022-05-29T08:28:40.000Z</time></trkpt><trkpt lon="5.760141" lat="50.926238"><ele>106.6</ele><time>2022-05-29T08:28:41.000Z</time></trkpt><trkpt lon="5.76011" lat="50.926291"><ele>106.6</ele><time>2022-05-29T08:28:42.000Z</time></trkpt><trkpt lon="5.760077" lat="50.926345"><ele>106.6</ele><time>2022-05-29T08:28:43.000Z</time></trkpt><trkpt lon="5.760045" lat="50.926399"><ele>106.6</ele><time>2022-05-29T08:28:44.000Z</time></trkpt><trkpt lon="5.760009" lat="50.926458"><ele>106.6</ele><time>2022-05-29T08:28:45.000Z</time></trkpt><trkpt lon="5.759973" lat="50.926512"><ele>106.6</ele><time>2022-05-29T08:28:46.000Z</time></trkpt><trkpt lon="5.759936" lat="50.926567"><ele>106.6</ele><time>2022-05-29T08:28:47.000Z</time></trkpt><trkpt lon="5.759904" lat="50.92661"><ele>106.4</ele><time>2022-05-29T08:28:48.000Z</time></trkpt><trkpt lon="5.759867" lat="50.926657"><ele>106.6</ele><time>2022-05-29T08:28:49.000Z</time></trkpt><trkpt lon="5.759843" lat="50.926689"><ele>106.6</ele><time>2022-05-29T08:28:50.000Z</time></trkpt><trkpt lon="5.759807" lat="50.92674"><ele>106.6</ele><time>2022-05-29T08:28:51.000Z</time></trkpt><trkpt lon="5.759774" lat="50.926783"><ele>106.6</ele><time>2022-05-29T08:28:52.000Z</time></trkpt><trkpt lon="5.759745" lat="50.926818"><ele>106.6</ele><time>2022-05-29T08:28:53.000Z</time></trkpt><trkpt lon="5.75969" lat="50.92688"><ele>106.4</ele><time>2022-05-29T08:28:54.000Z</time></trkpt><trkpt lon="5.759657" lat="50.92692"><ele>106.4</ele><time>2022-05-29T08:28:55.000Z</time></trkpt><trkpt lon="5.759594" lat="50.926987"><ele>106.6</ele><time>2022-05-29T08:28:56.000Z</time></trkpt><trkpt lon="5.759542" lat="50.927034"><ele>106.4</ele><time>2022-05-29T08:28:57.000Z</time></trkpt><trkpt lon="5.759476" lat="50.927089"><ele>106.2</ele><time>2022-05-29T08:28:58.000Z</time></trkpt><trkpt lon="5.759431" lat="50.927126"><ele>106.2</ele><time>2022-05-29T08:28:59.000Z</time></trkpt><trkpt lon="5.759349" lat="50.927195"><ele>106</ele><time>2022-05-29T08:29:00.000Z</time></trkpt><trkpt lon="5.759306" lat="50.927231"><ele>106</ele><time>2022-05-29T08:29:01.000Z</time></trkpt><trkpt lon="5.759223" lat="50.927302"><ele>106.2</ele><time>2022-05-29T08:29:02.000Z</time></trkpt><trkpt lon="5.759182" lat="50.927338"><ele>106</ele><time>2022-05-29T08:29:03.000Z</time></trkpt><trkpt lon="5.759097" lat="50.927407"><ele>106</ele><time>2022-05-29T08:29:04.000Z</time></trkpt><trkpt lon="5.759049" lat="50.927448"><ele>106</ele><time>2022-05-29T08:29:05.000Z</time></trkpt><trkpt lon="5.758975" lat="50.927512"><ele>106</ele><time>2022-05-29T08:29:06.000Z</time></trkpt><trkpt lon="5.758938" lat="50.92755"><ele>106</ele><time>2022-05-29T08:29:07.000Z</time></trkpt><trkpt lon="5.758865" lat="50.927623"><ele>106</ele><time>2022-05-29T08:29:08.000Z</time></trkpt><trkpt lon="5.758827" lat="50.927664"><ele>105.8</ele><time>2022-05-29T08:29:09.000Z</time></trkpt><trkpt lon="5.758766" lat="50.927727"><ele>105.8</ele><time>2022-05-29T08:29:10.000Z</time></trkpt><trkpt lon="5.758728" lat="50.927771"><ele>105.6</ele><time>2022-05-29T08:29:11.000Z</time></trkpt><trkpt lon="5.758702" lat="50.927824"><ele>105.6</ele><time>2022-05-29T08:29:12.000Z</time></trkpt><trkpt lon="5.758704" lat="50.927861"><ele>105.8</ele><time>2022-05-29T08:29:13.000Z</time></trkpt><trkpt lon="5.758734" lat="50.927918"><ele>105.8</ele><time>2022-05-29T08:29:14.000Z</time></trkpt><trkpt lon="5.758764" lat="50.927943"><ele>105.8</ele><time>2022-05-29T08:29:15.000Z</time></trkpt><trkpt lon="5.758849" lat="50.927977"><ele>105.6</ele><time>2022-05-29T08:29:16.000Z</time></trkpt><trkpt lon="5.758906" lat="50.927989"><ele>105.6</ele><time>2022-05-29T08:29:17.000Z</time></trkpt><trkpt lon="5.759035" lat="50.928014"><ele>105.6</ele><time>2022-05-29T08:29:18.000Z</time></trkpt><trkpt lon="5.759133" lat="50.928032"><ele>105.6</ele><time>2022-05-29T08:29:19.000Z</time></trkpt><trkpt lon="5.759267" lat="50.928059"><ele>105.6</ele><time>2022-05-29T08:29:20.000Z</time></trkpt><trkpt lon="5.75937" lat="50.928083"><ele>105.4</ele><time>2022-05-29T08:29:21.000Z</time></trkpt><trkpt lon="5.759495" lat="50.928111"><ele>105.4</ele><time>2022-05-29T08:29:22.000Z</time></trkpt><trkpt lon="5.759568" lat="50.928126"><ele>105.2</ele><time>2022-05-29T08:29:23.000Z</time></trkpt><trkpt lon="5.759732" lat="50.928161"><ele>105.2</ele><time>2022-05-29T08:29:24.000Z</time></trkpt><trkpt lon="5.759822" lat="50.928176"><ele>105</ele><time>2022-05-29T08:29:25.000Z</time></trkpt><trkpt lon="5.759956" lat="50.928203"><ele>105</ele><time>2022-05-29T08:29:26.000Z</time></trkpt><trkpt lon="5.760035" lat="50.92822"><ele>104.8</ele><time>2022-05-29T08:29:27.000Z</time></trkpt><trkpt lon="5.760157" lat="50.928244"><ele>104.6</ele><time>2022-05-29T08:29:28.000Z</time></trkpt><trkpt lon="5.760217" lat="50.928257"><ele>104.6</ele><time>2022-05-29T08:29:29.000Z</time></trkpt><trkpt lon="5.760329" lat="50.928279"><ele>104.4</ele><time>2022-05-29T08:29:30.000Z</time></trkpt><trkpt lon="5.760401" lat="50.928295"><ele>104.4</ele><time>2022-05-29T08:29:31.000Z</time></trkpt><trkpt lon="5.760466" lat="50.928317"><ele>104.2</ele><time>2022-05-29T08:29:32.000Z</time></trkpt><trkpt lon="5.760522" lat="50.928357"><ele>104.2</ele><time>2022-05-29T08:29:33.000Z</time></trkpt><trkpt lon="5.760566" lat="50.928405"><ele>104</ele><time>2022-05-29T08:29:34.000Z</time></trkpt><trkpt lon="5.760597" lat="50.928463"><ele>103.8</ele><time>2022-05-29T08:29:35.000Z</time></trkpt><trkpt lon="5.76062" lat="50.928533"><ele>103.8</ele><time>2022-05-29T08:29:36.000Z</time></trkpt><trkpt lon="5.760637" lat="50.928599"><ele>103.8</ele><time>2022-05-29T08:29:37.000Z</time></trkpt><trkpt lon="5.760653" lat="50.92867"><ele>103.6</ele><time>2022-05-29T08:29:38.000Z</time></trkpt><trkpt lon="5.76067" lat="50.928742"><ele>103.4</ele><time>2022-05-29T08:29:39.000Z</time></trkpt><trkpt lon="5.760686" lat="50.928811"><ele>103.4</ele><time>2022-05-29T08:29:40.000Z</time></trkpt><trkpt lon="5.760704" lat="50.928884"><ele>103.4</ele><time>2022-05-29T08:29:41.000Z</time></trkpt><trkpt lon="5.760722" lat="50.928957"><ele>103.4</ele><time>2022-05-29T08:29:42.000Z</time></trkpt><trkpt lon="5.76074" lat="50.929029"><ele>103.4</ele><time>2022-05-29T08:29:43.000Z</time></trkpt><trkpt lon="5.760758" lat="50.929099"><ele>103.4</ele><time>2022-05-29T08:29:44.000Z</time></trkpt><trkpt lon="5.760776" lat="50.929179"><ele>103.4</ele><time>2022-05-29T08:29:45.000Z</time></trkpt><trkpt lon="5.760793" lat="50.929251"><ele>103.4</ele><time>2022-05-29T08:29:46.000Z</time></trkpt><trkpt lon="5.760812" lat="50.929324"><ele>103.4</ele><time>2022-05-29T08:29:47.000Z</time></trkpt><trkpt lon="5.760834" lat="50.929404"><ele>103.4</ele><time>2022-05-29T08:29:48.000Z</time></trkpt><trkpt lon="5.760854" lat="50.929481"><ele>103.2</ele><time>2022-05-29T08:29:49.000Z</time></trkpt><trkpt lon="5.760876" lat="50.929557"><ele>103.2</ele><time>2022-05-29T08:29:50.000Z</time></trkpt><trkpt lon="5.760898" lat="50.929634"><ele>103.2</ele><time>2022-05-29T08:29:51.000Z</time></trkpt><trkpt lon="5.76092" lat="50.929711"><ele>103</ele><time>2022-05-29T08:29:52.000Z</time></trkpt><trkpt lon="5.76094" lat="50.929789"><ele>102.8</ele><time>2022-05-29T08:29:53.000Z</time></trkpt><trkpt lon="5.760959" lat="50.929867"><ele>102.6</ele><time>2022-05-29T08:29:54.000Z</time></trkpt><trkpt lon="5.76098" lat="50.929945"><ele>102.6</ele><time>2022-05-29T08:29:55.000Z</time></trkpt><trkpt lon="5.761" lat="50.93002"><ele>102.6</ele><time>2022-05-29T08:29:56.000Z</time></trkpt><trkpt lon="5.761025" lat="50.930101"><ele>102.4</ele><time>2022-05-29T08:29:57.000Z</time></trkpt><trkpt lon="5.761053" lat="50.930183"><ele>102.2</ele><time>2022-05-29T08:29:58.000Z</time></trkpt><trkpt lon="5.761085" lat="50.930262"><ele>102.2</ele><time>2022-05-29T08:29:59.000Z</time></trkpt><trkpt lon="5.76112" lat="50.930339"><ele>102</ele><time>2022-05-29T08:30:00.000Z</time></trkpt><trkpt lon="5.761158" lat="50.930417"><ele>102</ele><time>2022-05-29T08:30:01.000Z</time></trkpt><trkpt lon="5.7612" lat="50.930496"><ele>101.8</ele><time>2022-05-29T08:30:02.000Z</time></trkpt><trkpt lon="5.761244" lat="50.930574"><ele>101.6</ele><time>2022-05-29T08:30:03.000Z</time></trkpt><trkpt lon="5.76129" lat="50.930652"><ele>101.4</ele><time>2022-05-29T08:30:04.000Z</time></trkpt><trkpt lon="5.761335" lat="50.930732"><ele>101.4</ele><time>2022-05-29T08:30:05.000Z</time></trkpt><trkpt lon="5.761378" lat="50.930804"><ele>101.2</ele><time>2022-05-29T08:30:06.000Z</time></trkpt><trkpt lon="5.761415" lat="50.930868"><ele>101.2</ele><time>2022-05-29T08:30:07.000Z</time></trkpt><trkpt lon="5.761465" lat="50.930956"><ele>101.2</ele><time>2022-05-29T08:30:08.000Z</time></trkpt><trkpt lon="5.761509" lat="50.931033"><ele>101</ele><time>2022-05-29T08:30:09.000Z</time></trkpt><trkpt lon="5.761558" lat="50.931117"><ele>101</ele><time>2022-05-29T08:30:10.000Z</time></trkpt><trkpt lon="5.761603" lat="50.931197"><ele>100.8</ele><time>2022-05-29T08:30:11.000Z</time></trkpt><trkpt lon="5.761648" lat="50.931273"><ele>100.6</ele><time>2022-05-29T08:30:12.000Z</time></trkpt><trkpt lon="5.761694" lat="50.931355"><ele>100.4</ele><time>2022-05-29T08:30:13.000Z</time></trkpt><trkpt lon="5.761739" lat="50.931433"><ele>100.4</ele><time>2022-05-29T08:30:14.000Z</time></trkpt><trkpt lon="5.761786" lat="50.931508"><ele>100.2</ele><time>2022-05-29T08:30:15.000Z</time></trkpt><trkpt lon="5.761834" lat="50.931587"><ele>100.2</ele><time>2022-05-29T08:30:16.000Z</time></trkpt><trkpt lon="5.76188" lat="50.931666"><ele>100</ele><time>2022-05-29T08:30:17.000Z</time></trkpt><trkpt lon="5.761926" lat="50.931743"><ele>100</ele><time>2022-05-29T08:30:18.000Z</time></trkpt><trkpt lon="5.761968" lat="50.931822"><ele>99.8</ele><time>2022-05-29T08:30:19.000Z</time></trkpt><trkpt lon="5.762011" lat="50.931898"><ele>99.6</ele><time>2022-05-29T08:30:20.000Z</time></trkpt><trkpt lon="5.762055" lat="50.931973"><ele>99.6</ele><time>2022-05-29T08:30:21.000Z</time></trkpt><trkpt lon="5.762099" lat="50.93205"><ele>99.4</ele><time>2022-05-29T08:30:22.000Z</time></trkpt><trkpt lon="5.762143" lat="50.932124"><ele>99.2</ele><time>2022-05-29T08:30:23.000Z</time></trkpt><trkpt lon="5.762186" lat="50.932204"><ele>99</ele><time>2022-05-29T08:30:24.000Z</time></trkpt><trkpt lon="5.762228" lat="50.932277"><ele>98.8</ele><time>2022-05-29T08:30:25.000Z</time></trkpt><trkpt lon="5.76227" lat="50.932353"><ele>98.6</ele><time>2022-05-29T08:30:26.000Z</time></trkpt><trkpt lon="5.762312" lat="50.932429"><ele>98.2</ele><time>2022-05-29T08:30:27.000Z</time></trkpt><trkpt lon="5.762359" lat="50.932506"><ele>98</ele><time>2022-05-29T08:30:28.000Z</time></trkpt><trkpt lon="5.762405" lat="50.932582"><ele>97.8</ele><time>2022-05-29T08:30:29.000Z</time></trkpt><trkpt lon="5.76245" lat="50.932662"><ele>97.4</ele><time>2022-05-29T08:30:30.000Z</time></trkpt><trkpt lon="5.762496" lat="50.932741"><ele>97</ele><time>2022-05-29T08:30:31.000Z</time></trkpt><trkpt lon="5.762543" lat="50.932823"><ele>96.6</ele><time>2022-05-29T08:30:32.000Z</time></trkpt><trkpt lon="5.76259" lat="50.932906"><ele>96.4</ele><time>2022-05-29T08:30:33.000Z</time></trkpt><trkpt lon="5.762637" lat="50.932987"><ele>96</ele><time>2022-05-29T08:30:34.000Z</time></trkpt><trkpt lon="5.762683" lat="50.933069"><ele>95.8</ele><time>2022-05-29T08:30:35.000Z</time></trkpt><trkpt lon="5.762731" lat="50.933153"><ele>95.4</ele><time>2022-05-29T08:30:36.000Z</time></trkpt><trkpt lon="5.762775" lat="50.933229"><ele>95</ele><time>2022-05-29T08:30:37.000Z</time></trkpt><trkpt lon="5.762827" lat="50.933311"><ele>94.6</ele><time>2022-05-29T08:30:38.000Z</time></trkpt><trkpt lon="5.762881" lat="50.93339"><ele>94.2</ele><time>2022-05-29T08:30:39.000Z</time></trkpt><trkpt lon="5.762939" lat="50.93347"><ele>93.8</ele><time>2022-05-29T08:30:40.000Z</time></trkpt><trkpt lon="5.762998" lat="50.93355"><ele>93.4</ele><time>2022-05-29T08:30:41.000Z</time></trkpt><trkpt lon="5.763058" lat="50.933628"><ele>93</ele><time>2022-05-29T08:30:42.000Z</time></trkpt><trkpt lon="5.763119" lat="50.933706"><ele>92.8</ele><time>2022-05-29T08:30:43.000Z</time></trkpt><trkpt lon="5.763183" lat="50.933784"><ele>92.4</ele><time>2022-05-29T08:30:44.000Z</time></trkpt><trkpt lon="5.763248" lat="50.933864"><ele>92</ele><time>2022-05-29T08:30:45.000Z</time></trkpt><trkpt lon="5.763315" lat="50.933945"><ele>91.6</ele><time>2022-05-29T08:30:46.000Z</time></trkpt><trkpt lon="5.763387" lat="50.934028"><ele>91</ele><time>2022-05-29T08:30:47.000Z</time></trkpt><trkpt lon="5.763463" lat="50.934112"><ele>90.4</ele><time>2022-05-29T08:30:48.000Z</time></trkpt><trkpt lon="5.763541" lat="50.934198"><ele>89.8</ele><time>2022-05-29T08:30:49.000Z</time></trkpt><trkpt lon="5.763628" lat="50.934284"><ele>89.4</ele><time>2022-05-29T08:30:50.000Z</time></trkpt><trkpt lon="5.763722" lat="50.934367"><ele>88.8</ele><time>2022-05-29T08:30:51.000Z</time></trkpt><trkpt lon="5.763828" lat="50.934451"><ele>88.2</ele><time>2022-05-29T08:30:52.000Z</time></trkpt><trkpt lon="5.763938" lat="50.934527"><ele>87.6</ele><time>2022-05-29T08:30:53.000Z</time></trkpt><trkpt lon="5.764064" lat="50.934602"><ele>87.4</ele><time>2022-05-29T08:30:54.000Z</time></trkpt><trkpt lon="5.764189" lat="50.934673"><ele>86.8</ele><time>2022-05-29T08:30:55.000Z</time></trkpt><trkpt lon="5.764315" lat="50.934743"><ele>86.4</ele><time>2022-05-29T08:30:56.000Z</time></trkpt><trkpt lon="5.764434" lat="50.934816"><ele>85.8</ele><time>2022-05-29T08:30:57.000Z</time></trkpt><trkpt lon="5.764551" lat="50.934891"><ele>85.6</ele><time>2022-05-29T08:30:58.000Z</time></trkpt><trkpt lon="5.764662" lat="50.934965"><ele>85.2</ele><time>2022-05-29T08:30:59.000Z</time></trkpt><trkpt lon="5.764778" lat="50.935042"><ele>84.8</ele><time>2022-05-29T08:31:00.000Z</time></trkpt><trkpt lon="5.764888" lat="50.935118"><ele>84.4</ele><time>2022-05-29T08:31:01.000Z</time></trkpt><trkpt lon="5.765" lat="50.9352"><ele>84.2</ele><time>2022-05-29T08:31:02.000Z</time></trkpt><trkpt lon="5.765104" lat="50.935279"><ele>83.8</ele><time>2022-05-29T08:31:03.000Z</time></trkpt><trkpt lon="5.76521" lat="50.935358"><ele>83.4</ele><time>2022-05-29T08:31:04.000Z</time></trkpt><trkpt lon="5.765313" lat="50.935433"><ele>83.2</ele><time>2022-05-29T08:31:05.000Z</time></trkpt><trkpt lon="5.765421" lat="50.935512"><ele>83</ele><time>2022-05-29T08:31:06.000Z</time></trkpt><trkpt lon="5.765525" lat="50.935588"><ele>82.8</ele><time>2022-05-29T08:31:07.000Z</time></trkpt><trkpt lon="5.765626" lat="50.935661"><ele>82.4</ele><time>2022-05-29T08:31:08.000Z</time></trkpt><trkpt lon="5.765728" lat="50.935737"><ele>82.2</ele><time>2022-05-29T08:31:09.000Z</time></trkpt><trkpt lon="5.765827" lat="50.93581"><ele>82</ele><time>2022-05-29T08:31:10.000Z</time></trkpt><trkpt lon="5.765922" lat="50.935885"><ele>81.8</ele><time>2022-05-29T08:31:11.000Z</time></trkpt><trkpt lon="5.766017" lat="50.935958"><ele>81.6</ele><time>2022-05-29T08:31:12.000Z</time></trkpt><trkpt lon="5.76611" lat="50.936029"><ele>81.4</ele><time>2022-05-29T08:31:13.000Z</time></trkpt><trkpt lon="5.766201" lat="50.936102"><ele>81.2</ele><time>2022-05-29T08:31:14.000Z</time></trkpt><trkpt lon="5.766288" lat="50.936174"><ele>81.2</ele><time>2022-05-29T08:31:15.000Z</time></trkpt><trkpt lon="5.76637" lat="50.936249"><ele>81</ele><time>2022-05-29T08:31:16.000Z</time></trkpt><trkpt lon="5.76645" lat="50.936329"><ele>81</ele><time>2022-05-29T08:31:17.000Z</time></trkpt><trkpt lon="5.766516" lat="50.936411"><ele>81</ele><time>2022-05-29T08:31:18.000Z</time></trkpt><trkpt lon="5.766572" lat="50.936493"><ele>81</ele><time>2022-05-29T08:31:19.000Z</time></trkpt><trkpt lon="5.766622" lat="50.936578"><ele>81</ele><time>2022-05-29T08:31:20.000Z</time></trkpt><trkpt lon="5.766668" lat="50.936665"><ele>80.8</ele><time>2022-05-29T08:31:21.000Z</time></trkpt><trkpt lon="5.766708" lat="50.936747"><ele>80.8</ele><time>2022-05-29T08:31:22.000Z</time></trkpt><trkpt lon="5.766741" lat="50.936825"><ele>80.8</ele><time>2022-05-29T08:31:23.000Z</time></trkpt><trkpt lon="5.766772" lat="50.936897"><ele>81</ele><time>2022-05-29T08:31:24.000Z</time></trkpt><trkpt lon="5.766806" lat="50.936968"><ele>81</ele><time>2022-05-29T08:31:25.000Z</time></trkpt><trkpt lon="5.766838" lat="50.937046"><ele>81.2</ele><time>2022-05-29T08:31:26.000Z</time></trkpt><trkpt lon="5.766873" lat="50.937112"><ele>81.2</ele><time>2022-05-29T08:31:27.000Z</time></trkpt><trkpt lon="5.766914" lat="50.937187"><ele>81.2</ele><time>2022-05-29T08:31:28.000Z</time></trkpt><trkpt lon="5.766958" lat="50.937251"><ele>81.4</ele><time>2022-05-29T08:31:29.000Z</time></trkpt><trkpt lon="5.767011" lat="50.937328"><ele>81.4</ele><time>2022-05-29T08:31:30.000Z</time></trkpt><trkpt lon="5.767064" lat="50.937388"><ele>81.2</ele><time>2022-05-29T08:31:31.000Z</time></trkpt><trkpt lon="5.767126" lat="50.937467"><ele>81.2</ele><time>2022-05-29T08:31:32.000Z</time></trkpt><trkpt lon="5.76717" lat="50.937539"><ele>80.8</ele><time>2022-05-29T08:31:33.000Z</time></trkpt><trkpt lon="5.767203" lat="50.937623"><ele>80.8</ele><time>2022-05-29T08:31:34.000Z</time></trkpt><trkpt lon="5.767223" lat="50.937703"><ele>80.6</ele><time>2022-05-29T08:31:35.000Z</time></trkpt><trkpt lon="5.767236" lat="50.937787"><ele>80.4</ele><time>2022-05-29T08:31:36.000Z</time></trkpt><trkpt lon="5.767245" lat="50.937868"><ele>80.4</ele><time>2022-05-29T08:31:37.000Z</time></trkpt><trkpt lon="5.767245" lat="50.937953"><ele>80.2</ele><time>2022-05-29T08:31:38.000Z</time></trkpt><trkpt lon="5.767235" lat="50.938036"><ele>79.8</ele><time>2022-05-29T08:31:39.000Z</time></trkpt><trkpt lon="5.767223" lat="50.938117"><ele>79.6</ele><time>2022-05-29T08:31:40.000Z</time></trkpt><trkpt lon="5.767205" lat="50.938193"><ele>79.6</ele><time>2022-05-29T08:31:41.000Z</time></trkpt><trkpt lon="5.767179" lat="50.938276"><ele>79.4</ele><time>2022-05-29T08:31:42.000Z</time></trkpt><trkpt lon="5.767145" lat="50.938351"><ele>79</ele><time>2022-05-29T08:31:43.000Z</time></trkpt><trkpt lon="5.76711" lat="50.938426"><ele>78.8</ele><time>2022-05-29T08:31:44.000Z</time></trkpt><trkpt lon="5.767073" lat="50.938499"><ele>78.6</ele><time>2022-05-29T08:31:45.000Z</time></trkpt><trkpt lon="5.767035" lat="50.938575"><ele>78.4</ele><time>2022-05-29T08:31:46.000Z</time></trkpt><trkpt lon="5.766999" lat="50.938651"><ele>78.4</ele><time>2022-05-29T08:31:47.000Z</time></trkpt><trkpt lon="5.766969" lat="50.938722"><ele>78.2</ele><time>2022-05-29T08:31:48.000Z</time></trkpt><trkpt lon="5.766943" lat="50.938789"><ele>78.2</ele><time>2022-05-29T08:31:49.000Z</time></trkpt><trkpt lon="5.766919" lat="50.938856"><ele>78.2</ele><time>2022-05-29T08:31:50.000Z</time></trkpt><trkpt lon="5.766904" lat="50.938919"><ele>78.2</ele><time>2022-05-29T08:31:51.000Z</time></trkpt><trkpt lon="5.766899" lat="50.938991"><ele>77.8</ele><time>2022-05-29T08:31:52.000Z</time></trkpt><trkpt lon="5.766896" lat="50.939061"><ele>77.8</ele><time>2022-05-29T08:31:53.000Z</time></trkpt><trkpt lon="5.766906" lat="50.939127"><ele>77.8</ele><time>2022-05-29T08:31:54.000Z</time></trkpt><trkpt lon="5.766916" lat="50.939194"><ele>77.8</ele><time>2022-05-29T08:31:55.000Z</time></trkpt><trkpt lon="5.766922" lat="50.939255"><ele>77.6</ele><time>2022-05-29T08:31:56.000Z</time></trkpt><trkpt lon="5.766908" lat="50.939315"><ele>77.6</ele><time>2022-05-29T08:31:57.000Z</time></trkpt><trkpt lon="5.766873" lat="50.939372"><ele>77.4</ele><time>2022-05-29T08:31:58.000Z</time></trkpt><trkpt lon="5.766824" lat="50.93943"><ele>77.4</ele><time>2022-05-29T08:31:59.000Z</time></trkpt><trkpt lon="5.766763" lat="50.939478"><ele>77.2</ele><time>2022-05-29T08:32:00.000Z</time></trkpt><trkpt lon="5.766684" lat="50.939529"><ele>77.2</ele><time>2022-05-29T08:32:01.000Z</time></trkpt><trkpt lon="5.766598" lat="50.939576"><ele>77</ele><time>2022-05-29T08:32:02.000Z</time></trkpt><trkpt lon="5.766505" lat="50.939621"><ele>76.8</ele><time>2022-05-29T08:32:03.000Z</time></trkpt><trkpt lon="5.766409" lat="50.939663"><ele>76.8</ele><time>2022-05-29T08:32:04.000Z</time></trkpt><trkpt lon="5.766312" lat="50.939704"><ele>76.4</ele><time>2022-05-29T08:32:05.000Z</time></trkpt><trkpt lon="5.766217" lat="50.939737"><ele>76.2</ele><time>2022-05-29T08:32:06.000Z</time></trkpt><trkpt lon="5.766128" lat="50.939767"><ele>76</ele><time>2022-05-29T08:32:07.000Z</time></trkpt><trkpt lon="5.766051" lat="50.939793"><ele>75.8</ele><time>2022-05-29T08:32:08.000Z</time></trkpt><trkpt lon="5.765985" lat="50.939815"><ele>75.6</ele><time>2022-05-29T08:32:09.000Z</time></trkpt><trkpt lon="5.765922" lat="50.939833"><ele>75.4</ele><time>2022-05-29T08:32:10.000Z</time></trkpt><trkpt lon="5.765861" lat="50.93985"><ele>75.4</ele><time>2022-05-29T08:32:11.000Z</time></trkpt><trkpt lon="5.765812" lat="50.939868"><ele>75.2</ele><time>2022-05-29T08:32:12.000Z</time></trkpt><trkpt lon="5.765768" lat="50.939882"><ele>75.2</ele><time>2022-05-29T08:32:13.000Z</time></trkpt><trkpt lon="5.765728" lat="50.939893"><ele>75</ele><time>2022-05-29T08:32:14.000Z</time></trkpt><trkpt lon="5.7657" lat="50.9399"><ele>75</ele><time>2022-05-29T08:32:15.000Z</time></trkpt><trkpt lon="5.765677" lat="50.939908"><ele>75</ele><time>2022-05-29T08:32:16.000Z</time></trkpt><trkpt lon="5.76549" lat="50.939996"><ele>74.8</ele><time>2022-05-29T08:49:45.000Z</time></trkpt><trkpt lon="5.765469" lat="50.940005"><ele>74.8</ele><time>2022-05-29T08:49:46.000Z</time></trkpt><trkpt lon="5.765445" lat="50.940016"><ele>74.8</ele><time>2022-05-29T08:49:47.000Z</time></trkpt><trkpt lon="5.765417" lat="50.940027"><ele>74.8</ele><time>2022-05-29T08:49:48.000Z</time></trkpt><trkpt lon="5.765384" lat="50.94004"><ele>74.6</ele><time>2022-05-29T08:49:49.000Z</time></trkpt><trkpt lon="5.76535" lat="50.940056"><ele>74.6</ele><time>2022-05-29T08:49:50.000Z</time></trkpt><trkpt lon="5.765313" lat="50.940078"><ele>74.6</ele><time>2022-05-29T08:49:51.000Z</time></trkpt><trkpt lon="5.765273" lat="50.940098"><ele>74.6</ele><time>2022-05-29T08:49:52.000Z</time></trkpt><trkpt lon="5.765236" lat="50.940122"><ele>74.6</ele><time>2022-05-29T08:49:53.000Z</time></trkpt><trkpt lon="5.765203" lat="50.940147"><ele>74.6</ele><time>2022-05-29T08:49:54.000Z</time></trkpt><trkpt lon="5.765169" lat="50.940177"><ele>74.6</ele><time>2022-05-29T08:49:55.000Z</time></trkpt><trkpt lon="5.765143" lat="50.940215"><ele>74.4</ele><time>2022-05-29T08:49:56.000Z</time></trkpt><trkpt lon="5.765115" lat="50.94025"><ele>74.4</ele><time>2022-05-29T08:49:57.000Z</time></trkpt><trkpt lon="5.765092" lat="50.940289"><ele>74.4</ele><time>2022-05-29T08:49:58.000Z</time></trkpt><trkpt lon="5.765072" lat="50.940336"><ele>74.4</ele><time>2022-05-29T08:49:59.000Z</time></trkpt><trkpt lon="5.765056" lat="50.940385"><ele>74.2</ele><time>2022-05-29T08:50:00.000Z</time></trkpt><trkpt lon="5.765041" lat="50.940435"><ele>74.2</ele><time>2022-05-29T08:50:01.000Z</time></trkpt><trkpt lon="5.765025" lat="50.94049"><ele>74</ele><time>2022-05-29T08:50:02.000Z</time></trkpt><trkpt lon="5.76501" lat="50.940548"><ele>74</ele><time>2022-05-29T08:50:03.000Z</time></trkpt><trkpt lon="5.764998" lat="50.940609"><ele>74</ele><time>2022-05-29T08:50:04.000Z</time></trkpt><trkpt lon="5.764988" lat="50.94067"><ele>73.8</ele><time>2022-05-29T08:50:05.000Z</time></trkpt><trkpt lon="5.764979" lat="50.940734"><ele>73.8</ele><time>2022-05-29T08:50:06.000Z</time></trkpt><trkpt lon="5.764973" lat="50.940796"><ele>74</ele><time>2022-05-29T08:50:07.000Z</time></trkpt><trkpt lon="5.764969" lat="50.940856"><ele>73.8</ele><time>2022-05-29T08:50:08.000Z</time></trkpt><trkpt lon="5.764966" lat="50.940913"><ele>74</ele><time>2022-05-29T08:50:09.000Z</time></trkpt><trkpt lon="5.764966" lat="50.940975"><ele>74</ele><time>2022-05-29T08:50:10.000Z</time></trkpt><trkpt lon="5.764966" lat="50.941035"><ele>73.8</ele><time>2022-05-29T08:50:11.000Z</time></trkpt><trkpt lon="5.764962" lat="50.941089"><ele>73.6</ele><time>2022-05-29T08:50:12.000Z</time></trkpt><trkpt lon="5.764958" lat="50.941146"><ele>73.6</ele><time>2022-05-29T08:50:13.000Z</time></trkpt><trkpt lon="5.76496" lat="50.941202"><ele>73.6</ele><time>2022-05-29T08:50:14.000Z</time></trkpt><trkpt lon="5.764971" lat="50.941254"><ele>73.4</ele><time>2022-05-29T08:50:15.000Z</time></trkpt><trkpt lon="5.765002" lat="50.941297"><ele>73.4</ele><time>2022-05-29T08:50:16.000Z</time></trkpt><trkpt lon="5.765054" lat="50.941325"><ele>73.4</ele><time>2022-05-29T08:50:17.000Z</time></trkpt><trkpt lon="5.765121" lat="50.941338"><ele>73.6</ele><time>2022-05-29T08:50:18.000Z</time></trkpt><trkpt lon="5.765197" lat="50.941341"><ele>73.6</ele><time>2022-05-29T08:50:19.000Z</time></trkpt><trkpt lon="5.765277" lat="50.941337"><ele>73.6</ele><time>2022-05-29T08:50:20.000Z</time></trkpt><trkpt lon="5.765358" lat="50.941333"><ele>73.8</ele><time>2022-05-29T08:50:21.000Z</time></trkpt><trkpt lon="5.765441" lat="50.94133"><ele>74</ele><time>2022-05-29T08:50:22.000Z</time></trkpt><trkpt lon="5.765527" lat="50.94133"><ele>74</ele><time>2022-05-29T08:50:23.000Z</time></trkpt><trkpt lon="5.765613" lat="50.94133"><ele>74.2</ele><time>2022-05-29T08:50:24.000Z</time></trkpt><trkpt lon="5.765695" lat="50.94133"><ele>74.2</ele><time>2022-05-29T08:50:25.000Z</time></trkpt><trkpt lon="5.765776" lat="50.941332"><ele>74.4</ele><time>2022-05-29T08:50:26.000Z</time></trkpt><trkpt lon="5.765853" lat="50.941345"><ele>74.4</ele><time>2022-05-29T08:50:27.000Z</time></trkpt><trkpt lon="5.765921" lat="50.941367"><ele>74.6</ele><time>2022-05-29T08:50:28.000Z</time></trkpt><trkpt lon="5.765977" lat="50.941404"><ele>74.6</ele><time>2022-05-29T08:50:29.000Z</time></trkpt><trkpt lon="5.766023" lat="50.94145"><ele>74.6</ele><time>2022-05-29T08:50:30.000Z</time></trkpt><trkpt lon="5.766062" lat="50.9415"><ele>74.6</ele><time>2022-05-29T08:50:31.000Z</time></trkpt><trkpt lon="5.766099" lat="50.941554"><ele>74.6</ele><time>2022-05-29T08:50:32.000Z</time></trkpt><trkpt lon="5.766135" lat="50.941608"><ele>74.4</ele><time>2022-05-29T08:50:33.000Z</time></trkpt><trkpt lon="5.766174" lat="50.941668"><ele>74.2</ele><time>2022-05-29T08:50:34.000Z</time></trkpt><trkpt lon="5.766215" lat="50.941725"><ele>74</ele><time>2022-05-29T08:50:35.000Z</time></trkpt><trkpt lon="5.766255" lat="50.941779"><ele>74</ele><time>2022-05-29T08:50:36.000Z</time></trkpt><trkpt lon="5.766292" lat="50.941836"><ele>73.8</ele><time>2022-05-29T08:50:37.000Z</time></trkpt><trkpt lon="5.766329" lat="50.941893"><ele>73.8</ele><time>2022-05-29T08:50:38.000Z</time></trkpt><trkpt lon="5.766369" lat="50.941947"><ele>74</ele><time>2022-05-29T08:50:39.000Z</time></trkpt><trkpt lon="5.766405" lat="50.942004"><ele>74</ele><time>2022-05-29T08:50:40.000Z</time></trkpt><trkpt lon="5.766444" lat="50.942062"><ele>74</ele><time>2022-05-29T08:50:41.000Z</time></trkpt><trkpt lon="5.766484" lat="50.942124"><ele>73.8</ele><time>2022-05-29T08:50:42.000Z</time></trkpt><trkpt lon="5.766524" lat="50.942188"><ele>73.6</ele><time>2022-05-29T08:50:43.000Z</time></trkpt><trkpt lon="5.766564" lat="50.942253"><ele>73.6</ele><time>2022-05-29T08:50:44.000Z</time></trkpt><trkpt lon="5.766606" lat="50.942323"><ele>73.6</ele><time>2022-05-29T08:50:45.000Z</time></trkpt><trkpt lon="5.766645" lat="50.942391"><ele>73.6</ele><time>2022-05-29T08:50:46.000Z</time></trkpt><trkpt lon="5.766686" lat="50.942461"><ele>73.6</ele><time>2022-05-29T08:50:47.000Z</time></trkpt><trkpt lon="5.766725" lat="50.942532"><ele>73.4</ele><time>2022-05-29T08:50:48.000Z</time></trkpt><trkpt lon="5.766768" lat="50.942598"><ele>73.4</ele><time>2022-05-29T08:50:49.000Z</time></trkpt><trkpt lon="5.76681" lat="50.942671"><ele>73.2</ele><time>2022-05-29T08:50:50.000Z</time></trkpt><trkpt lon="5.766847" lat="50.942743"><ele>73.2</ele><time>2022-05-29T08:50:51.000Z</time></trkpt><trkpt lon="5.766882" lat="50.942812"><ele>73</ele><time>2022-05-29T08:50:52.000Z</time></trkpt><trkpt lon="5.76692" lat="50.942881"><ele>73</ele><time>2022-05-29T08:50:53.000Z</time></trkpt><trkpt lon="5.766958" lat="50.942952"><ele>73</ele><time>2022-05-29T08:50:54.000Z</time></trkpt><trkpt lon="5.767001" lat="50.943021"><ele>73</ele><time>2022-05-29T08:50:55.000Z</time></trkpt><trkpt lon="5.767042" lat="50.943091"><ele>73</ele><time>2022-05-29T08:50:56.000Z</time></trkpt><trkpt lon="5.76708" lat="50.943162"><ele>72.8</ele><time>2022-05-29T08:50:57.000Z</time></trkpt><trkpt lon="5.767117" lat="50.943231"><ele>72.6</ele><time>2022-05-29T08:50:58.000Z</time></trkpt><trkpt lon="5.767153" lat="50.9433"><ele>72.4</ele><time>2022-05-29T08:50:59.000Z</time></trkpt><trkpt lon="5.767189" lat="50.943368"><ele>72.4</ele><time>2022-05-29T08:51:00.000Z</time></trkpt><trkpt lon="5.767227" lat="50.943436"><ele>72.2</ele><time>2022-05-29T08:51:01.000Z</time></trkpt><trkpt lon="5.767267" lat="50.943501"><ele>72.2</ele><time>2022-05-29T08:51:02.000Z</time></trkpt><trkpt lon="5.767308" lat="50.94357"><ele>72.2</ele><time>2022-05-29T08:51:03.000Z</time></trkpt><trkpt lon="5.767347" lat="50.943636"><ele>72.2</ele><time>2022-05-29T08:51:04.000Z</time></trkpt><trkpt lon="5.767384" lat="50.943702"><ele>72.2</ele><time>2022-05-29T08:51:05.000Z</time></trkpt><trkpt lon="5.76742" lat="50.943764"><ele>72.4</ele><time>2022-05-29T08:51:06.000Z</time></trkpt><trkpt lon="5.767448" lat="50.943829"><ele>72.4</ele><time>2022-05-29T08:51:07.000Z</time></trkpt><trkpt lon="5.76747" lat="50.943896"><ele>72.2</ele><time>2022-05-29T08:51:08.000Z</time></trkpt><trkpt lon="5.767484" lat="50.943967"><ele>72.4</ele><time>2022-05-29T08:51:09.000Z</time></trkpt><trkpt lon="5.767488" lat="50.944036"><ele>72.4</ele><time>2022-05-29T08:51:10.000Z</time></trkpt><trkpt lon="5.767486" lat="50.944102"><ele>72.6</ele><time>2022-05-29T08:51:11.000Z</time></trkpt><trkpt lon="5.767481" lat="50.944166"><ele>72.8</ele><time>2022-05-29T08:51:12.000Z</time></trkpt><trkpt lon="5.767476" lat="50.944234"><ele>72.8</ele><time>2022-05-29T08:51:13.000Z</time></trkpt><trkpt lon="5.767471" lat="50.944302"><ele>72.8</ele><time>2022-05-29T08:51:14.000Z</time></trkpt><trkpt lon="5.767465" lat="50.944362"><ele>73</ele><time>2022-05-29T08:51:15.000Z</time></trkpt><trkpt lon="5.767461" lat="50.944418"><ele>73</ele><time>2022-05-29T08:51:16.000Z</time></trkpt><trkpt lon="5.767454" lat="50.94447"><ele>73.2</ele><time>2022-05-29T08:51:17.000Z</time></trkpt><trkpt lon="5.767448" lat="50.944511"><ele>73</ele><time>2022-05-29T08:51:18.000Z</time></trkpt><trkpt lon="5.767444" lat="50.944547"><ele>73</ele><time>2022-05-29T08:51:19.000Z</time></trkpt><trkpt lon="5.767439" lat="50.944578"><ele>72.8</ele><time>2022-05-29T08:51:20.000Z</time></trkpt><trkpt lon="5.767436" lat="50.944608"><ele>72.6</ele><time>2022-05-29T08:51:21.000Z</time></trkpt><trkpt lon="5.767435" lat="50.94464"><ele>72.4</ele><time>2022-05-29T08:51:22.000Z</time></trkpt><trkpt lon="5.767432" lat="50.944679"><ele>72.2</ele><time>2022-05-29T08:51:23.000Z</time></trkpt><trkpt lon="5.767424" lat="50.944722"><ele>72</ele><time>2022-05-29T08:51:24.000Z</time></trkpt><trkpt lon="5.767415" lat="50.944772"><ele>71.8</ele><time>2022-05-29T08:51:25.000Z</time></trkpt><trkpt lon="5.767409" lat="50.944828"><ele>71.8</ele><time>2022-05-29T08:51:26.000Z</time></trkpt><trkpt lon="5.767402" lat="50.944889"><ele>71.8</ele><time>2022-05-29T08:51:27.000Z</time></trkpt><trkpt lon="5.767395" lat="50.94495"><ele>71.6</ele><time>2022-05-29T08:51:28.000Z</time></trkpt><trkpt lon="5.767386" lat="50.945016"><ele>71.4</ele><time>2022-05-29T08:51:29.000Z</time></trkpt><trkpt lon="5.767376" lat="50.945081"><ele>71.2</ele><time>2022-05-29T08:51:30.000Z</time></trkpt><trkpt lon="5.767364" lat="50.945149"><ele>71</ele><time>2022-05-29T08:51:31.000Z</time></trkpt><trkpt lon="5.767352" lat="50.945213"><ele>71</ele><time>2022-05-29T08:51:32.000Z</time></trkpt><trkpt lon="5.767342" lat="50.945279"><ele>70.8</ele><time>2022-05-29T08:51:33.000Z</time></trkpt><trkpt lon="5.767331" lat="50.945348"><ele>70.8</ele><time>2022-05-29T08:51:34.000Z</time></trkpt><trkpt lon="5.767318" lat="50.945416"><ele>70.4</ele><time>2022-05-29T08:51:35.000Z</time></trkpt><trkpt lon="5.7673" lat="50.945481"><ele>70.2</ele><time>2022-05-29T08:51:36.000Z</time></trkpt><trkpt lon="5.767278" lat="50.94555"><ele>70</ele><time>2022-05-29T08:51:37.000Z</time></trkpt><trkpt lon="5.767258" lat="50.945619"><ele>69.8</ele><time>2022-05-29T08:51:38.000Z</time></trkpt><trkpt lon="5.767234" lat="50.945688"><ele>69.6</ele><time>2022-05-29T08:51:39.000Z</time></trkpt><trkpt lon="5.767198" lat="50.945755"><ele>69.4</ele><time>2022-05-29T08:51:40.000Z</time></trkpt><trkpt lon="5.767147" lat="50.945821"><ele>69.2</ele><time>2022-05-29T08:51:41.000Z</time></trkpt><trkpt lon="5.767083" lat="50.945884"><ele>69</ele><time>2022-05-29T08:51:42.000Z</time></trkpt><trkpt lon="5.767009" lat="50.945941"><ele>69</ele><time>2022-05-29T08:51:43.000Z</time></trkpt><trkpt lon="5.766927" lat="50.945996"><ele>68.6</ele><time>2022-05-29T08:51:44.000Z</time></trkpt><trkpt lon="5.766846" lat="50.946045"><ele>68.2</ele><time>2022-05-29T08:51:45.000Z</time></trkpt><trkpt lon="5.766762" lat="50.946096"><ele>67.8</ele><time>2022-05-29T08:51:46.000Z</time></trkpt><trkpt lon="5.766679" lat="50.946145"><ele>67.6</ele><time>2022-05-29T08:51:47.000Z</time></trkpt><trkpt lon="5.766604" lat="50.946196"><ele>67.2</ele><time>2022-05-29T08:51:48.000Z</time></trkpt><trkpt lon="5.766538" lat="50.94625"><ele>67</ele><time>2022-05-29T08:51:49.000Z</time></trkpt><trkpt lon="5.76649" lat="50.946309"><ele>66.6</ele><time>2022-05-29T08:51:50.000Z</time></trkpt><trkpt lon="5.766458" lat="50.946373"><ele>66.4</ele><time>2022-05-29T08:51:51.000Z</time></trkpt><trkpt lon="5.766442" lat="50.946438"><ele>66</ele><time>2022-05-29T08:51:52.000Z</time></trkpt><trkpt lon="5.766435" lat="50.946497"><ele>65.8</ele><time>2022-05-29T08:51:53.000Z</time></trkpt><trkpt lon="5.766436" lat="50.946549"><ele>65.4</ele><time>2022-05-29T08:51:54.000Z</time></trkpt><trkpt lon="5.766441" lat="50.946592"><ele>65.2</ele><time>2022-05-29T08:51:55.000Z</time></trkpt><trkpt lon="5.766446" lat="50.946627"><ele>65</ele><time>2022-05-29T08:51:56.000Z</time></trkpt><trkpt lon="5.76645" lat="50.946661"><ele>64.8</ele><time>2022-05-29T08:51:57.000Z</time></trkpt><trkpt lon="5.766445" lat="50.946695"><ele>64.8</ele><time>2022-05-29T08:51:58.000Z</time></trkpt><trkpt lon="5.766421" lat="50.946725"><ele>64.8</ele><time>2022-05-29T08:51:59.000Z</time></trkpt><trkpt lon="5.766374" lat="50.946754"><ele>64.8</ele><time>2022-05-29T08:52:00.000Z</time></trkpt><trkpt lon="5.766308" lat="50.946771"><ele>64.6</ele><time>2022-05-29T08:52:01.000Z</time></trkpt><trkpt lon="5.766231" lat="50.946779"><ele>64.6</ele><time>2022-05-29T08:52:02.000Z</time></trkpt><trkpt lon="5.766145" lat="50.946786"><ele>64.4</ele><time>2022-05-29T08:52:03.000Z</time></trkpt><trkpt lon="5.766054" lat="50.94679"><ele>64.4</ele><time>2022-05-29T08:52:04.000Z</time></trkpt><trkpt lon="5.765965" lat="50.946798"><ele>64</ele><time>2022-05-29T08:52:05.000Z</time></trkpt><trkpt lon="5.765881" lat="50.946811"><ele>63.8</ele><time>2022-05-29T08:52:06.000Z</time></trkpt><trkpt lon="5.765808" lat="50.946827"><ele>63.8</ele><time>2022-05-29T08:52:07.000Z</time></trkpt><trkpt lon="5.765752" lat="50.946852"><ele>63.6</ele><time>2022-05-29T08:52:08.000Z</time></trkpt><trkpt lon="5.765716" lat="50.946887"><ele>63.6</ele><time>2022-05-29T08:52:09.000Z</time></trkpt><trkpt lon="5.765694" lat="50.946928"><ele>63.6</ele><time>2022-05-29T08:52:10.000Z</time></trkpt><trkpt lon="5.765684" lat="50.946983"><ele>63.6</ele><time>2022-05-29T08:52:11.000Z</time></trkpt><trkpt lon="5.765687" lat="50.947041"><ele>63.6</ele><time>2022-05-29T08:52:12.000Z</time></trkpt><trkpt lon="5.765693" lat="50.947106"><ele>63.8</ele><time>2022-05-29T08:52:13.000Z</time></trkpt><trkpt lon="5.765698" lat="50.94717"><ele>63.8</ele><time>2022-05-29T08:52:14.000Z</time></trkpt><trkpt lon="5.765704" lat="50.947233"><ele>64</ele><time>2022-05-29T08:52:15.000Z</time></trkpt><trkpt lon="5.765708" lat="50.9473"><ele>64</ele><time>2022-05-29T08:52:16.000Z</time></trkpt><trkpt lon="5.765713" lat="50.94736"><ele>64.2</ele><time>2022-05-29T08:52:17.000Z</time></trkpt><trkpt lon="5.765712" lat="50.947419"><ele>64.4</ele><time>2022-05-29T08:52:18.000Z</time></trkpt><trkpt lon="5.765717" lat="50.947482"><ele>64.6</ele><time>2022-05-29T08:52:19.000Z</time></trkpt><trkpt lon="5.765724" lat="50.947539"><ele>64.8</ele><time>2022-05-29T08:52:20.000Z</time></trkpt><trkpt lon="5.765724" lat="50.947595"><ele>65</ele><time>2022-05-29T08:52:21.000Z</time></trkpt><trkpt lon="5.765716" lat="50.947646"><ele>65</ele><time>2022-05-29T08:52:22.000Z</time></trkpt><trkpt lon="5.765711" lat="50.947703"><ele>65.2</ele><time>2022-05-29T08:52:23.000Z</time></trkpt><trkpt lon="5.7657" lat="50.947755"><ele>65.2</ele><time>2022-05-29T08:52:24.000Z</time></trkpt><trkpt lon="5.765676" lat="50.9478"><ele>65.4</ele><time>2022-05-29T08:52:25.000Z</time></trkpt><trkpt lon="5.765637" lat="50.94784"><ele>65.4</ele><time>2022-05-29T08:52:26.000Z</time></trkpt><trkpt lon="5.765588" lat="50.947869"><ele>65.4</ele><time>2022-05-29T08:52:27.000Z</time></trkpt><trkpt lon="5.765531" lat="50.947889"><ele>65.4</ele><time>2022-05-29T08:52:28.000Z</time></trkpt><trkpt lon="5.765462" lat="50.947899"><ele>65.4</ele><time>2022-05-29T08:52:29.000Z</time></trkpt><trkpt lon="5.76538" lat="50.947903"><ele>65.2</ele><time>2022-05-29T08:52:30.000Z</time></trkpt><trkpt lon="5.765296" lat="50.947907"><ele>65.2</ele><time>2022-05-29T08:52:31.000Z</time></trkpt><trkpt lon="5.765189" lat="50.947916"><ele>65</ele><time>2022-05-29T08:52:32.000Z</time></trkpt><trkpt lon="5.765082" lat="50.947928"><ele>65</ele><time>2022-05-29T08:52:33.000Z</time></trkpt><trkpt lon="5.764971" lat="50.947939"><ele>64.8</ele><time>2022-05-29T08:52:34.000Z</time></trkpt><trkpt lon="5.764856" lat="50.947951"><ele>64.6</ele><time>2022-05-29T08:52:35.000Z</time></trkpt><trkpt lon="5.764739" lat="50.947966"><ele>64.4</ele><time>2022-05-29T08:52:36.000Z</time></trkpt><trkpt lon="5.764617" lat="50.947977"><ele>64.2</ele><time>2022-05-29T08:52:37.000Z</time></trkpt><trkpt lon="5.764493" lat="50.947989"><ele>64.2</ele><time>2022-05-29T08:52:38.000Z</time></trkpt><trkpt lon="5.764363" lat="50.947999"><ele>64</ele><time>2022-05-29T08:52:39.000Z</time></trkpt><trkpt lon="5.764233" lat="50.948008"><ele>63.8</ele><time>2022-05-29T08:52:40.000Z</time></trkpt><trkpt lon="5.764104" lat="50.948019"><ele>63.6</ele><time>2022-05-29T08:52:41.000Z</time></trkpt><trkpt lon="5.763972" lat="50.948031"><ele>63.4</ele><time>2022-05-29T08:52:42.000Z</time></trkpt><trkpt lon="5.763843" lat="50.948047"><ele>63.2</ele><time>2022-05-29T08:52:43.000Z</time></trkpt><trkpt lon="5.763713" lat="50.948061"><ele>63</ele><time>2022-05-29T08:52:44.000Z</time></trkpt><trkpt lon="5.763583" lat="50.948073"><ele>63</ele><time>2022-05-29T08:52:45.000Z</time></trkpt><trkpt lon="5.763455" lat="50.948084"><ele>62.8</ele><time>2022-05-29T08:52:46.000Z</time></trkpt><trkpt lon="5.763325" lat="50.948096"><ele>62.6</ele><time>2022-05-29T08:52:47.000Z</time></trkpt><trkpt lon="5.763196" lat="50.948112"><ele>62.4</ele><time>2022-05-29T08:52:48.000Z</time></trkpt><trkpt lon="5.76307" lat="50.94813"><ele>62.2</ele><time>2022-05-29T08:52:49.000Z</time></trkpt><trkpt lon="5.762946" lat="50.948141"><ele>62</ele><time>2022-05-29T08:52:50.000Z</time></trkpt><trkpt lon="5.762816" lat="50.948153"><ele>61.8</ele><time>2022-05-29T08:52:51.000Z</time></trkpt><trkpt lon="5.762687" lat="50.948169"><ele>61.8</ele><time>2022-05-29T08:52:52.000Z</time></trkpt><trkpt lon="5.76256" lat="50.948184"><ele>61.6</ele><time>2022-05-29T08:52:53.000Z</time></trkpt><trkpt lon="5.762433" lat="50.948199"><ele>61.6</ele><time>2022-05-29T08:52:54.000Z</time></trkpt><trkpt lon="5.762307" lat="50.948214"><ele>61.6</ele><time>2022-05-29T08:52:55.000Z</time></trkpt><trkpt lon="5.762181" lat="50.948226"><ele>61.6</ele><time>2022-05-29T08:52:56.000Z</time></trkpt><trkpt lon="5.762056" lat="50.948241"><ele>61.6</ele><time>2022-05-29T08:52:57.000Z</time></trkpt><trkpt lon="5.76193" lat="50.948256"><ele>61.4</ele><time>2022-05-29T08:52:58.000Z</time></trkpt><trkpt lon="5.761813" lat="50.948266"><ele>61.2</ele><time>2022-05-29T08:52:59.000Z</time></trkpt><trkpt lon="5.761695" lat="50.948275"><ele>61.4</ele><time>2022-05-29T08:53:00.000Z</time></trkpt><trkpt lon="5.761585" lat="50.94829"><ele>61.4</ele><time>2022-05-29T08:53:01.000Z</time></trkpt><trkpt lon="5.761478" lat="50.948302"><ele>61.4</ele><time>2022-05-29T08:53:02.000Z</time></trkpt><trkpt lon="5.761382" lat="50.948317"><ele>61.4</ele><time>2022-05-29T08:53:03.000Z</time></trkpt><trkpt lon="5.761297" lat="50.948332"><ele>61.6</ele><time>2022-05-29T08:53:04.000Z</time></trkpt><trkpt lon="5.761227" lat="50.948343"><ele>61.6</ele><time>2022-05-29T08:53:05.000Z</time></trkpt><trkpt lon="5.761167" lat="50.948354"><ele>61.6</ele><time>2022-05-29T08:53:06.000Z</time></trkpt><trkpt lon="5.761114" lat="50.948363"><ele>61.6</ele><time>2022-05-29T08:53:07.000Z</time></trkpt><trkpt lon="5.761069" lat="50.948375"><ele>61.6</ele><time>2022-05-29T08:53:08.000Z</time></trkpt><trkpt lon="5.761031" lat="50.948391"><ele>61.6</ele><time>2022-05-29T08:53:09.000Z</time></trkpt><trkpt lon="5.761003" lat="50.94841"><ele>61.6</ele><time>2022-05-29T08:53:10.000Z</time></trkpt><trkpt lon="5.760983" lat="50.948429"><ele>61.8</ele><time>2022-05-29T08:53:11.000Z</time></trkpt><trkpt lon="5.760962" lat="50.948446"><ele>61.8</ele><time>2022-05-29T08:53:12.000Z</time></trkpt><trkpt lon="5.760936" lat="50.948453"><ele>61.8</ele><time>2022-05-29T08:53:13.000Z</time></trkpt><trkpt lon="5.760901" lat="50.948456"><ele>61.8</ele><time>2022-05-29T08:53:14.000Z</time></trkpt><trkpt lon="5.760857" lat="50.948455"><ele>61.8</ele><time>2022-05-29T08:53:15.000Z</time></trkpt><trkpt lon="5.760806" lat="50.948452"><ele>61.8</ele><time>2022-05-29T08:53:16.000Z</time></trkpt><trkpt lon="5.760745" lat="50.948454"><ele>61.8</ele><time>2022-05-29T08:53:17.000Z</time></trkpt><trkpt lon="5.760676" lat="50.948466"><ele>61.8</ele><time>2022-05-29T08:53:18.000Z</time></trkpt><trkpt lon="5.760607" lat="50.948477"><ele>61.8</ele><time>2022-05-29T08:53:19.000Z</time></trkpt><trkpt lon="5.760536" lat="50.948494"><ele>61.8</ele><time>2022-05-29T08:53:20.000Z</time></trkpt><trkpt lon="5.760471" lat="50.948517"><ele>61.8</ele><time>2022-05-29T08:53:21.000Z</time></trkpt><trkpt lon="5.760419" lat="50.948541"><ele>61.8</ele><time>2022-05-29T08:53:22.000Z</time></trkpt><trkpt lon="5.760388" lat="50.948574"><ele>61.8</ele><time>2022-05-29T08:53:23.000Z</time></trkpt><trkpt lon="5.760381" lat="50.948614"><ele>61.8</ele><time>2022-05-29T08:53:24.000Z</time></trkpt><trkpt lon="5.760392" lat="50.948653"><ele>61.8</ele><time>2022-05-29T08:53:25.000Z</time></trkpt><trkpt lon="5.760408" lat="50.948685"><ele>61.8</ele><time>2022-05-29T08:53:26.000Z</time></trkpt><trkpt lon="5.760428" lat="50.948715"><ele>61.8</ele><time>2022-05-29T08:53:27.000Z</time></trkpt><trkpt lon="5.760454" lat="50.948737"><ele>61.8</ele><time>2022-05-29T08:53:28.000Z</time></trkpt><trkpt lon="5.760492" lat="50.948759"><ele>61.8</ele><time>2022-05-29T08:53:29.000Z</time></trkpt><trkpt lon="5.760528" lat="50.948789"><ele>61.8</ele><time>2022-05-29T08:53:30.000Z</time></trkpt><trkpt lon="5.760564" lat="50.94882"><ele>61.8</ele><time>2022-05-29T08:53:31.000Z</time></trkpt><trkpt lon="5.760602" lat="50.94885"><ele>61.8</ele><time>2022-05-29T08:53:32.000Z</time></trkpt><trkpt lon="5.760643" lat="50.948886"><ele>61.8</ele><time>2022-05-29T08:53:33.000Z</time></trkpt><trkpt lon="5.76068" lat="50.948928"><ele>61.8</ele><time>2022-05-29T08:53:34.000Z</time></trkpt><trkpt lon="5.760718" lat="50.948976"><ele>61.6</ele><time>2022-05-29T08:53:35.000Z</time></trkpt><trkpt lon="5.760755" lat="50.949025"><ele>61.6</ele><time>2022-05-29T08:53:36.000Z</time></trkpt><trkpt lon="5.760804" lat="50.949076"><ele>61.6</ele><time>2022-05-29T08:53:37.000Z</time></trkpt><trkpt lon="5.760865" lat="50.94913"><ele>61.6</ele><time>2022-05-29T08:53:38.000Z</time></trkpt><trkpt lon="5.760932" lat="50.949187"><ele>61.6</ele><time>2022-05-29T08:53:39.000Z</time></trkpt><trkpt lon="5.760998" lat="50.949244"><ele>61.6</ele><time>2022-05-29T08:53:40.000Z</time></trkpt><trkpt lon="5.761067" lat="50.949301"><ele>61.4</ele><time>2022-05-29T08:53:41.000Z</time></trkpt><trkpt lon="5.761138" lat="50.94936"><ele>61.2</ele><time>2022-05-29T08:53:42.000Z</time></trkpt><trkpt lon="5.761207" lat="50.949424"><ele>61.2</ele><time>2022-05-29T08:53:43.000Z</time></trkpt><trkpt lon="5.761279" lat="50.949487"><ele>61.2</ele><time>2022-05-29T08:53:44.000Z</time></trkpt><trkpt lon="5.76135" lat="50.94955"><ele>61</ele><time>2022-05-29T08:53:45.000Z</time></trkpt><trkpt lon="5.761417" lat="50.949612"><ele>61</ele><time>2022-05-29T08:53:46.000Z</time></trkpt><trkpt lon="5.761485" lat="50.949676"><ele>61</ele><time>2022-05-29T08:53:47.000Z</time></trkpt><trkpt lon="5.761553" lat="50.949737"><ele>61</ele><time>2022-05-29T08:53:48.000Z</time></trkpt><trkpt lon="5.761622" lat="50.949802"><ele>61</ele><time>2022-05-29T08:53:49.000Z</time></trkpt><trkpt lon="5.76169" lat="50.949863"><ele>61</ele><time>2022-05-29T08:53:50.000Z</time></trkpt><trkpt lon="5.761755" lat="50.949927"><ele>60.8</ele><time>2022-05-29T08:53:51.000Z</time></trkpt><trkpt lon="5.76182" lat="50.949989"><ele>60.8</ele><time>2022-05-29T08:53:52.000Z</time></trkpt><trkpt lon="5.761883" lat="50.95005"><ele>60.6</ele><time>2022-05-29T08:53:53.000Z</time></trkpt><trkpt lon="5.761947" lat="50.950112"><ele>60.6</ele><time>2022-05-29T08:53:54.000Z</time></trkpt><trkpt lon="5.762009" lat="50.950176"><ele>60.8</ele><time>2022-05-29T08:53:55.000Z</time></trkpt><trkpt lon="5.762073" lat="50.950238"><ele>60.8</ele><time>2022-05-29T08:53:56.000Z</time></trkpt><trkpt lon="5.762138" lat="50.950302"><ele>60.8</ele><time>2022-05-29T08:53:57.000Z</time></trkpt><trkpt lon="5.762202" lat="50.950365"><ele>60.8</ele><time>2022-05-29T08:53:58.000Z</time></trkpt><trkpt lon="5.762268" lat="50.950428"><ele>60.8</ele><time>2022-05-29T08:53:59.000Z</time></trkpt><trkpt lon="5.762332" lat="50.950492"><ele>60.8</ele><time>2022-05-29T08:54:00.000Z</time></trkpt><trkpt lon="5.762392" lat="50.950558"><ele>60.6</ele><time>2022-05-29T08:54:01.000Z</time></trkpt><trkpt lon="5.762447" lat="50.950624"><ele>60.6</ele><time>2022-05-29T08:54:02.000Z</time></trkpt><trkpt lon="5.762492" lat="50.950692"><ele>60.6</ele><time>2022-05-29T08:54:03.000Z</time></trkpt><trkpt lon="5.762529" lat="50.950762"><ele>60.6</ele><time>2022-05-29T08:54:04.000Z</time></trkpt><trkpt lon="5.762563" lat="50.950834"><ele>60.8</ele><time>2022-05-29T08:54:05.000Z</time></trkpt><trkpt lon="5.762597" lat="50.950906"><ele>60.8</ele><time>2022-05-29T08:54:06.000Z</time></trkpt><trkpt lon="5.762628" lat="50.950982"><ele>60.6</ele><time>2022-05-29T08:54:07.000Z</time></trkpt><trkpt lon="5.762658" lat="50.95106"><ele>60.6</ele><time>2022-05-29T08:54:08.000Z</time></trkpt><trkpt lon="5.762682" lat="50.951138"><ele>60.6</ele><time>2022-05-29T08:54:09.000Z</time></trkpt><trkpt lon="5.762708" lat="50.951216"><ele>60.6</ele><time>2022-05-29T08:54:10.000Z</time></trkpt><trkpt lon="5.762734" lat="50.951292"><ele>60.6</ele><time>2022-05-29T08:54:11.000Z</time></trkpt><trkpt lon="5.762757" lat="50.951369"><ele>60.6</ele><time>2022-05-29T08:54:12.000Z</time></trkpt><trkpt lon="5.762778" lat="50.951446"><ele>60.6</ele><time>2022-05-29T08:54:13.000Z</time></trkpt><trkpt lon="5.762797" lat="50.951521"><ele>60.6</ele><time>2022-05-29T08:54:14.000Z</time></trkpt><trkpt lon="5.76282" lat="50.951597"><ele>60.6</ele><time>2022-05-29T08:54:15.000Z</time></trkpt><trkpt lon="5.762848" lat="50.951673"><ele>60.6</ele><time>2022-05-29T08:54:16.000Z</time></trkpt><trkpt lon="5.762874" lat="50.951745"><ele>60.6</ele><time>2022-05-29T08:54:17.000Z</time></trkpt><trkpt lon="5.762897" lat="50.951817"><ele>60.6</ele><time>2022-05-29T08:54:18.000Z</time></trkpt><trkpt lon="5.762917" lat="50.951886"><ele>60.6</ele><time>2022-05-29T08:54:19.000Z</time></trkpt><trkpt lon="5.762937" lat="50.951953"><ele>60.6</ele><time>2022-05-29T08:54:20.000Z</time></trkpt><trkpt lon="5.762961" lat="50.952022"><ele>60.6</ele><time>2022-05-29T08:54:21.000Z</time></trkpt><trkpt lon="5.762987" lat="50.95209"><ele>60.6</ele><time>2022-05-29T08:54:22.000Z</time></trkpt><trkpt lon="5.763012" lat="50.952157"><ele>60.6</ele><time>2022-05-29T08:54:23.000Z</time></trkpt><trkpt lon="5.763035" lat="50.952225"><ele>60.6</ele><time>2022-05-29T08:54:24.000Z</time></trkpt><trkpt lon="5.763054" lat="50.952298"><ele>60.6</ele><time>2022-05-29T08:54:25.000Z</time></trkpt><trkpt lon="5.763069" lat="50.952371"><ele>60.6</ele><time>2022-05-29T08:54:26.000Z</time></trkpt><trkpt lon="5.763084" lat="50.952439"><ele>60.6</ele><time>2022-05-29T08:54:27.000Z</time></trkpt><trkpt lon="5.763095" lat="50.952512"><ele>60.6</ele><time>2022-05-29T08:54:28.000Z</time></trkpt><trkpt lon="5.763103" lat="50.952584"><ele>60.6</ele><time>2022-05-29T08:54:29.000Z</time></trkpt><trkpt lon="5.763113" lat="50.952656"><ele>60.6</ele><time>2022-05-29T08:54:30.000Z</time></trkpt><trkpt lon="5.763119" lat="50.952728"><ele>60.6</ele><time>2022-05-29T08:54:31.000Z</time></trkpt><trkpt lon="5.763127" lat="50.952803"><ele>60.6</ele><time>2022-05-29T08:54:32.000Z</time></trkpt><trkpt lon="5.763136" lat="50.952876"><ele>60.6</ele><time>2022-05-29T08:54:33.000Z</time></trkpt><trkpt lon="5.763149" lat="50.95295"><ele>60.6</ele><time>2022-05-29T08:54:34.000Z</time></trkpt><trkpt lon="5.763164" lat="50.953024"><ele>60.6</ele><time>2022-05-29T08:54:35.000Z</time></trkpt><trkpt lon="5.763175" lat="50.9531"><ele>60.6</ele><time>2022-05-29T08:54:36.000Z</time></trkpt><trkpt lon="5.763184" lat="50.953176"><ele>60.6</ele><time>2022-05-29T08:54:37.000Z</time></trkpt><trkpt lon="5.763188" lat="50.953248"><ele>60.6</ele><time>2022-05-29T08:54:38.000Z</time></trkpt><trkpt lon="5.763188" lat="50.953319"><ele>60.6</ele><time>2022-05-29T08:54:39.000Z</time></trkpt><trkpt lon="5.763186" lat="50.95339"><ele>60.6</ele><time>2022-05-29T08:54:40.000Z</time></trkpt><trkpt lon="5.763183" lat="50.953465"><ele>60.6</ele><time>2022-05-29T08:54:41.000Z</time></trkpt><trkpt lon="5.763181" lat="50.953533"><ele>60.6</ele><time>2022-05-29T08:54:42.000Z</time></trkpt><trkpt lon="5.763176" lat="50.953604"><ele>60.6</ele><time>2022-05-29T08:54:43.000Z</time></trkpt><trkpt lon="5.763171" lat="50.953675"><ele>60.6</ele><time>2022-05-29T08:54:44.000Z</time></trkpt><trkpt lon="5.763166" lat="50.953744"><ele>60.6</ele><time>2022-05-29T08:54:45.000Z</time></trkpt><trkpt lon="5.76316" lat="50.953813"><ele>60.6</ele><time>2022-05-29T08:54:46.000Z</time></trkpt><trkpt lon="5.763153" lat="50.953881"><ele>60.6</ele><time>2022-05-29T08:54:47.000Z</time></trkpt><trkpt lon="5.763141" lat="50.953954"><ele>60.4</ele><time>2022-05-29T08:54:48.000Z</time></trkpt><trkpt lon="5.763126" lat="50.954026"><ele>60.4</ele><time>2022-05-29T08:54:49.000Z</time></trkpt><trkpt lon="5.763113" lat="50.954099"><ele>60.4</ele><time>2022-05-29T08:54:50.000Z</time></trkpt><trkpt lon="5.763105" lat="50.954167"><ele>60.6</ele><time>2022-05-29T08:54:51.000Z</time></trkpt><trkpt lon="5.763093" lat="50.954235"><ele>60.6</ele><time>2022-05-29T08:54:52.000Z</time></trkpt><trkpt lon="5.763081" lat="50.954306"><ele>60.6</ele><time>2022-05-29T08:54:53.000Z</time></trkpt><trkpt lon="5.763066" lat="50.954377"><ele>60.8</ele><time>2022-05-29T08:54:54.000Z</time></trkpt><trkpt lon="5.76305" lat="50.954445"><ele>60.8</ele><time>2022-05-29T08:54:55.000Z</time></trkpt><trkpt lon="5.76303" lat="50.954509"><ele>60.8</ele><time>2022-05-29T08:54:56.000Z</time></trkpt><trkpt lon="5.763008" lat="50.954575"><ele>60.6</ele><time>2022-05-29T08:54:57.000Z</time></trkpt><trkpt lon="5.762985" lat="50.954642"><ele>60.6</ele><time>2022-05-29T08:54:58.000Z</time></trkpt><trkpt lon="5.762963" lat="50.954699"><ele>60.6</ele><time>2022-05-29T08:54:59.000Z</time></trkpt><trkpt lon="5.762941" lat="50.954754"><ele>60.8</ele><time>2022-05-29T08:55:00.000Z</time></trkpt><trkpt lon="5.762914" lat="50.954813"><ele>60.8</ele><time>2022-05-29T08:55:01.000Z</time></trkpt><trkpt lon="5.762887" lat="50.954865"><ele>60.8</ele><time>2022-05-29T08:55:02.000Z</time></trkpt><trkpt lon="5.762855" lat="50.954909"><ele>60.8</ele><time>2022-05-29T08:55:03.000Z</time></trkpt><trkpt lon="5.762815" lat="50.954939"><ele>60.8</ele><time>2022-05-29T08:55:04.000Z</time></trkpt><trkpt lon="5.762764" lat="50.954956"><ele>60.8</ele><time>2022-05-29T08:55:05.000Z</time></trkpt><trkpt lon="5.76272" lat="50.95498"><ele>60.8</ele><time>2022-05-29T08:55:06.000Z</time></trkpt><trkpt lon="5.762684" lat="50.955017"><ele>60.8</ele><time>2022-05-29T08:55:07.000Z</time></trkpt><trkpt lon="5.762662" lat="50.955062"><ele>60.8</ele><time>2022-05-29T08:55:08.000Z</time></trkpt><trkpt lon="5.762639" lat="50.955119"><ele>60.8</ele><time>2022-05-29T08:55:09.000Z</time></trkpt><trkpt lon="5.762615" lat="50.955176"><ele>60.6</ele><time>2022-05-29T08:55:10.000Z</time></trkpt><trkpt lon="5.762583" lat="50.955234"><ele>60.8</ele><time>2022-05-29T08:55:11.000Z</time></trkpt><trkpt lon="5.762551" lat="50.955294"><ele>60.8</ele><time>2022-05-29T08:55:12.000Z</time></trkpt><trkpt lon="5.762515" lat="50.955357"><ele>60.8</ele><time>2022-05-29T08:55:13.000Z</time></trkpt><trkpt lon="5.762477" lat="50.955421"><ele>60.8</ele><time>2022-05-29T08:55:14.000Z</time></trkpt><trkpt lon="5.762439" lat="50.955486"><ele>60.8</ele><time>2022-05-29T08:55:15.000Z</time></trkpt><trkpt lon="5.762402" lat="50.95555"><ele>60.8</ele><time>2022-05-29T08:55:16.000Z</time></trkpt><trkpt lon="5.762362" lat="50.955615"><ele>60.8</ele><time>2022-05-29T08:55:17.000Z</time></trkpt><trkpt lon="5.762321" lat="50.955681"><ele>61</ele><time>2022-05-29T08:55:18.000Z</time></trkpt><trkpt lon="5.762277" lat="50.955749"><ele>61</ele><time>2022-05-29T08:55:19.000Z</time></trkpt><trkpt lon="5.762232" lat="50.955812"><ele>61.2</ele><time>2022-05-29T08:55:20.000Z</time></trkpt><trkpt lon="5.762182" lat="50.955883"><ele>61.2</ele><time>2022-05-29T08:55:21.000Z</time></trkpt><trkpt lon="5.762135" lat="50.955951"><ele>61.2</ele><time>2022-05-29T08:55:22.000Z</time></trkpt><trkpt lon="5.762082" lat="50.956017"><ele>61.2</ele><time>2022-05-29T08:55:23.000Z</time></trkpt><trkpt lon="5.762032" lat="50.956085"><ele>61</ele><time>2022-05-29T08:55:24.000Z</time></trkpt><trkpt lon="5.761982" lat="50.956151"><ele>60.8</ele><time>2022-05-29T08:55:25.000Z</time></trkpt><trkpt lon="5.761929" lat="50.956219"><ele>60.8</ele><time>2022-05-29T08:55:26.000Z</time></trkpt><trkpt lon="5.761877" lat="50.956286"><ele>60.8</ele><time>2022-05-29T08:55:27.000Z</time></trkpt><trkpt lon="5.761823" lat="50.956349"><ele>60.8</ele><time>2022-05-29T08:55:28.000Z</time></trkpt><trkpt lon="5.761769" lat="50.956412"><ele>61</ele><time>2022-05-29T08:55:29.000Z</time></trkpt><trkpt lon="5.761709" lat="50.956473"><ele>61</ele><time>2022-05-29T08:55:30.000Z</time></trkpt><trkpt lon="5.761648" lat="50.956539"><ele>61</ele><time>2022-05-29T08:55:31.000Z</time></trkpt><trkpt lon="5.761587" lat="50.956604"><ele>61</ele><time>2022-05-29T08:55:32.000Z</time></trkpt><trkpt lon="5.761528" lat="50.956671"><ele>61</ele><time>2022-05-29T08:55:33.000Z</time></trkpt><trkpt lon="5.761461" lat="50.956737"><ele>61</ele><time>2022-05-29T08:55:34.000Z</time></trkpt><trkpt lon="5.761397" lat="50.956805"><ele>61</ele><time>2022-05-29T08:55:35.000Z</time></trkpt><trkpt lon="5.761334" lat="50.956871"><ele>61</ele><time>2022-05-29T08:55:36.000Z</time></trkpt><trkpt lon="5.761271" lat="50.956935"><ele>61</ele><time>2022-05-29T08:55:37.000Z</time></trkpt><trkpt lon="5.761204" lat="50.957001"><ele>61</ele><time>2022-05-29T08:55:38.000Z</time></trkpt><trkpt lon="5.761137" lat="50.95707"><ele>61</ele><time>2022-05-29T08:55:39.000Z</time></trkpt><trkpt lon="5.761069" lat="50.957138"><ele>60.8</ele><time>2022-05-29T08:55:40.000Z</time></trkpt><trkpt lon="5.761006" lat="50.957207"><ele>60.8</ele><time>2022-05-29T08:55:41.000Z</time></trkpt><trkpt lon="5.760938" lat="50.957276"><ele>60.8</ele><time>2022-05-29T08:55:42.000Z</time></trkpt><trkpt lon="5.76087" lat="50.957344"><ele>60.6</ele><time>2022-05-29T08:55:43.000Z</time></trkpt><trkpt lon="5.760804" lat="50.957409"><ele>60.6</ele><time>2022-05-29T08:55:44.000Z</time></trkpt><trkpt lon="5.760737" lat="50.957478"><ele>60.6</ele><time>2022-05-29T08:55:45.000Z</time></trkpt><trkpt lon="5.760668" lat="50.957547"><ele>60.4</ele><time>2022-05-29T08:55:46.000Z</time></trkpt><trkpt lon="5.760599" lat="50.957616"><ele>60.4</ele><time>2022-05-29T08:55:47.000Z</time></trkpt><trkpt lon="5.76053" lat="50.957687"><ele>60.2</ele><time>2022-05-29T08:55:48.000Z</time></trkpt><trkpt lon="5.76046" lat="50.957753"><ele>60.2</ele><time>2022-05-29T08:55:49.000Z</time></trkpt><trkpt lon="5.760391" lat="50.957825"><ele>60</ele><time>2022-05-29T08:55:50.000Z</time></trkpt><trkpt lon="5.76032" lat="50.957894"><ele>59.8</ele><time>2022-05-29T08:55:51.000Z</time></trkpt><trkpt lon="5.76025" lat="50.957971"><ele>59.8</ele><time>2022-05-29T08:55:52.000Z</time></trkpt><trkpt lon="5.76018" lat="50.958043"><ele>59.6</ele><time>2022-05-29T08:55:53.000Z</time></trkpt><trkpt lon="5.760111" lat="50.958114"><ele>59.6</ele><time>2022-05-29T08:55:54.000Z</time></trkpt><trkpt lon="5.760042" lat="50.958187"><ele>59.4</ele><time>2022-05-29T08:55:55.000Z</time></trkpt><trkpt lon="5.759974" lat="50.958256"><ele>59.2</ele><time>2022-05-29T08:55:56.000Z</time></trkpt><trkpt lon="5.759907" lat="50.958324"><ele>59.2</ele><time>2022-05-29T08:55:57.000Z</time></trkpt><trkpt lon="5.75984" lat="50.958393"><ele>59.2</ele><time>2022-05-29T08:55:58.000Z</time></trkpt><trkpt lon="5.759773" lat="50.958462"><ele>59</ele><time>2022-05-29T08:55:59.000Z</time></trkpt><trkpt lon="5.759707" lat="50.958531"><ele>58.8</ele><time>2022-05-29T08:56:00.000Z</time></trkpt><trkpt lon="5.759639" lat="50.958603"><ele>58.6</ele><time>2022-05-29T08:56:01.000Z</time></trkpt><trkpt lon="5.759572" lat="50.958672"><ele>58.6</ele><time>2022-05-29T08:56:02.000Z</time></trkpt><trkpt lon="5.759502" lat="50.958745"><ele>58.4</ele><time>2022-05-29T08:56:03.000Z</time></trkpt><trkpt lon="5.759431" lat="50.958817"><ele>58.2</ele><time>2022-05-29T08:56:04.000Z</time></trkpt><trkpt lon="5.759363" lat="50.958885"><ele>58</ele><time>2022-05-29T08:56:05.000Z</time></trkpt><trkpt lon="5.759291" lat="50.958959"><ele>57.8</ele><time>2022-05-29T08:56:06.000Z</time></trkpt><trkpt lon="5.759222" lat="50.959032"><ele>57.6</ele><time>2022-05-29T08:56:07.000Z</time></trkpt><trkpt lon="5.75916" lat="50.959108"><ele>57.4</ele><time>2022-05-29T08:56:08.000Z</time></trkpt><trkpt lon="5.759114" lat="50.959184"><ele>57.2</ele><time>2022-05-29T08:56:09.000Z</time></trkpt><trkpt lon="5.759088" lat="50.959265"><ele>57.2</ele><time>2022-05-29T08:56:10.000Z</time></trkpt><trkpt lon="5.759077" lat="50.959345"><ele>57</ele><time>2022-05-29T08:56:11.000Z</time></trkpt><trkpt lon="5.759079" lat="50.95943"><ele>57</ele><time>2022-05-29T08:56:12.000Z</time></trkpt><trkpt lon="5.759092" lat="50.959516"><ele>56.8</ele><time>2022-05-29T08:56:13.000Z</time></trkpt><trkpt lon="5.759119" lat="50.959601"><ele>56.6</ele><time>2022-05-29T08:56:14.000Z</time></trkpt><trkpt lon="5.759159" lat="50.959684"><ele>56.4</ele><time>2022-05-29T08:56:15.000Z</time></trkpt><trkpt lon="5.759214" lat="50.959759"><ele>56.4</ele><time>2022-05-29T08:56:16.000Z</time></trkpt><trkpt lon="5.759283" lat="50.959831"><ele>56.2</ele><time>2022-05-29T08:56:17.000Z</time></trkpt><trkpt lon="5.759365" lat="50.959899"><ele>56</ele><time>2022-05-29T08:56:18.000Z</time></trkpt><trkpt lon="5.759455" lat="50.959955"><ele>55.8</ele><time>2022-05-29T08:56:19.000Z</time></trkpt><trkpt lon="5.759549" lat="50.960008"><ele>55.6</ele><time>2022-05-29T08:56:20.000Z</time></trkpt><trkpt lon="5.759662" lat="50.960065"><ele>55.4</ele><time>2022-05-29T08:56:21.000Z</time></trkpt><trkpt lon="5.759767" lat="50.960118"><ele>55.4</ele><time>2022-05-29T08:56:22.000Z</time></trkpt><trkpt lon="5.75987" lat="50.960165"><ele>55.2</ele><time>2022-05-29T08:56:23.000Z</time></trkpt><trkpt lon="5.759986" lat="50.96022"><ele>55</ele><time>2022-05-29T08:56:24.000Z</time></trkpt><trkpt lon="5.760096" lat="50.960268"><ele>55</ele><time>2022-05-29T08:56:25.000Z</time></trkpt><trkpt lon="5.760203" lat="50.96032"><ele>54.8</ele><time>2022-05-29T08:56:26.000Z</time></trkpt><trkpt lon="5.760312" lat="50.960369"><ele>54.8</ele><time>2022-05-29T08:56:27.000Z</time></trkpt><trkpt lon="5.760422" lat="50.960415"><ele>54.6</ele><time>2022-05-29T08:56:28.000Z</time></trkpt><trkpt lon="5.760534" lat="50.960465"><ele>54.4</ele><time>2022-05-29T08:56:29.000Z</time></trkpt><trkpt lon="5.760642" lat="50.960514"><ele>54.4</ele><time>2022-05-29T08:56:30.000Z</time></trkpt><trkpt lon="5.760752" lat="50.960559"><ele>54.2</ele><time>2022-05-29T08:56:31.000Z</time></trkpt><trkpt lon="5.760858" lat="50.960605"><ele>54.2</ele><time>2022-05-29T08:56:32.000Z</time></trkpt><trkpt lon="5.760963" lat="50.960652"><ele>54.2</ele><time>2022-05-29T08:56:33.000Z</time></trkpt><trkpt lon="5.761073" lat="50.960701"><ele>54</ele><time>2022-05-29T08:56:34.000Z</time></trkpt><trkpt lon="5.761177" lat="50.960746"><ele>54</ele><time>2022-05-29T08:56:35.000Z</time></trkpt><trkpt lon="5.761279" lat="50.960788"><ele>54</ele><time>2022-05-29T08:56:36.000Z</time></trkpt><trkpt lon="5.761384" lat="50.960834"><ele>54</ele><time>2022-05-29T08:56:37.000Z</time></trkpt><trkpt lon="5.761487" lat="50.96088"><ele>54</ele><time>2022-05-29T08:56:38.000Z</time></trkpt><trkpt lon="5.761598" lat="50.960926"><ele>54</ele><time>2022-05-29T08:56:39.000Z</time></trkpt><trkpt lon="5.761705" lat="50.960972"><ele>53.8</ele><time>2022-05-29T08:56:40.000Z</time></trkpt><trkpt lon="5.761812" lat="50.961017"><ele>53.8</ele><time>2022-05-29T08:56:41.000Z</time></trkpt><trkpt lon="5.76192" lat="50.961064"><ele>54</ele><time>2022-05-29T08:56:42.000Z</time></trkpt><trkpt lon="5.762026" lat="50.961109"><ele>53.8</ele><time>2022-05-29T08:56:43.000Z</time></trkpt><trkpt lon="5.762131" lat="50.96115"><ele>53.8</ele><time>2022-05-29T08:56:44.000Z</time></trkpt><trkpt lon="5.762235" lat="50.961192"><ele>53.8</ele><time>2022-05-29T08:56:45.000Z</time></trkpt><trkpt lon="5.76234" lat="50.961234"><ele>53.8</ele><time>2022-05-29T08:56:46.000Z</time></trkpt><trkpt lon="5.762439" lat="50.961272"><ele>53.8</ele><time>2022-05-29T08:56:47.000Z</time></trkpt><trkpt lon="5.762538" lat="50.961313"><ele>53.8</ele><time>2022-05-29T08:56:48.000Z</time></trkpt><trkpt lon="5.762636" lat="50.961352"><ele>54</ele><time>2022-05-29T08:56:49.000Z</time></trkpt><trkpt lon="5.762737" lat="50.961394"><ele>54</ele><time>2022-05-29T08:56:50.000Z</time></trkpt><trkpt lon="5.762837" lat="50.961432"><ele>54.2</ele><time>2022-05-29T08:56:51.000Z</time></trkpt><trkpt lon="5.762931" lat="50.961472"><ele>54.2</ele><time>2022-05-29T08:56:52.000Z</time></trkpt><trkpt lon="5.763032" lat="50.961508"><ele>54.4</ele><time>2022-05-29T08:56:53.000Z</time></trkpt><trkpt lon="5.763127" lat="50.961547"><ele>54.2</ele><time>2022-05-29T08:56:54.000Z</time></trkpt><trkpt lon="5.76322" lat="50.961588"><ele>54</ele><time>2022-05-29T08:56:55.000Z</time></trkpt><trkpt lon="5.763311" lat="50.961626"><ele>54</ele><time>2022-05-29T08:56:56.000Z</time></trkpt><trkpt lon="5.763403" lat="50.961661"><ele>54</ele><time>2022-05-29T08:56:57.000Z</time></trkpt><trkpt lon="5.763493" lat="50.961698"><ele>54</ele><time>2022-05-29T08:56:58.000Z</time></trkpt><trkpt lon="5.763587" lat="50.961733"><ele>54.2</ele><time>2022-05-29T08:56:59.000Z</time></trkpt><trkpt lon="5.763683" lat="50.961768"><ele>54.4</ele><time>2022-05-29T08:57:00.000Z</time></trkpt><trkpt lon="5.763775" lat="50.961809"><ele>54.4</ele><time>2022-05-29T08:57:01.000Z</time></trkpt><trkpt lon="5.763872" lat="50.961848"><ele>54.4</ele><time>2022-05-29T08:57:02.000Z</time></trkpt><trkpt lon="5.763964" lat="50.96189"><ele>54.6</ele><time>2022-05-29T08:57:03.000Z</time></trkpt><trkpt lon="5.764048" lat="50.961928"><ele>54.8</ele><time>2022-05-29T08:57:04.000Z</time></trkpt><trkpt lon="5.76413" lat="50.96197"><ele>55</ele><time>2022-05-29T08:57:05.000Z</time></trkpt><trkpt lon="5.764215" lat="50.962009"><ele>55.2</ele><time>2022-05-29T08:57:06.000Z</time></trkpt><trkpt lon="5.764304" lat="50.96205"><ele>55.4</ele><time>2022-05-29T08:57:07.000Z</time></trkpt><trkpt lon="5.764387" lat="50.962085"><ele>55.4</ele><time>2022-05-29T08:57:08.000Z</time></trkpt><trkpt lon="5.764469" lat="50.962127"><ele>55.6</ele><time>2022-05-29T08:57:09.000Z</time></trkpt><trkpt lon="5.764548" lat="50.962165"><ele>55.6</ele><time>2022-05-29T08:57:10.000Z</time></trkpt><trkpt lon="5.764628" lat="50.962206"><ele>55.6</ele><time>2022-05-29T08:57:11.000Z</time></trkpt><trkpt lon="5.764714" lat="50.962243"><ele>55.8</ele><time>2022-05-29T08:57:12.000Z</time></trkpt><trkpt lon="5.764798" lat="50.962274"><ele>55.8</ele><time>2022-05-29T08:57:13.000Z</time></trkpt><trkpt lon="5.764881" lat="50.962304"><ele>56</ele><time>2022-05-29T08:57:14.000Z</time></trkpt><trkpt lon="5.764963" lat="50.96233"><ele>56</ele><time>2022-05-29T08:57:15.000Z</time></trkpt><trkpt lon="5.765048" lat="50.962353"><ele>56</ele><time>2022-05-29T08:57:16.000Z</time></trkpt><trkpt lon="5.765129" lat="50.96238"><ele>56.2</ele><time>2022-05-29T08:57:17.000Z</time></trkpt><trkpt lon="5.765214" lat="50.96241"><ele>56.4</ele><time>2022-05-29T08:57:18.000Z</time></trkpt><trkpt lon="5.765301" lat="50.962431"><ele>56.4</ele><time>2022-05-29T08:57:19.000Z</time></trkpt><trkpt lon="5.765399" lat="50.96244"><ele>56.4</ele><time>2022-05-29T08:57:20.000Z</time></trkpt><trkpt lon="5.765495" lat="50.962434"><ele>56.6</ele><time>2022-05-29T08:57:21.000Z</time></trkpt><trkpt lon="5.765573" lat="50.962415"><ele>56.6</ele><time>2022-05-29T08:57:22.000Z</time></trkpt><trkpt lon="5.765652" lat="50.962376"><ele>56.8</ele><time>2022-05-29T08:57:23.000Z</time></trkpt><trkpt lon="5.765735" lat="50.962329"><ele>56.8</ele><time>2022-05-29T08:57:24.000Z</time></trkpt><trkpt lon="5.765816" lat="50.96228"><ele>56.8</ele><time>2022-05-29T08:57:25.000Z</time></trkpt><trkpt lon="5.765896" lat="50.962231"><ele>56.8</ele><time>2022-05-29T08:57:26.000Z</time></trkpt><trkpt lon="5.765975" lat="50.962181"><ele>56.8</ele><time>2022-05-29T08:57:27.000Z</time></trkpt><trkpt lon="5.766059" lat="50.962131"><ele>56.6</ele><time>2022-05-29T08:57:28.000Z</time></trkpt><trkpt lon="5.766141" lat="50.962082"><ele>56.8</ele><time>2022-05-29T08:57:29.000Z</time></trkpt><trkpt lon="5.766219" lat="50.962031"><ele>57</ele><time>2022-05-29T08:57:30.000Z</time></trkpt><trkpt lon="5.766294" lat="50.961978"><ele>57</ele><time>2022-05-29T08:57:31.000Z</time></trkpt><trkpt lon="5.766367" lat="50.961926"><ele>57.2</ele><time>2022-05-29T08:57:32.000Z</time></trkpt><trkpt lon="5.766445" lat="50.961877"><ele>57.2</ele><time>2022-05-29T08:57:33.000Z</time></trkpt><trkpt lon="5.766527" lat="50.961835"><ele>57.2</ele><time>2022-05-29T08:57:34.000Z</time></trkpt><trkpt lon="5.766616" lat="50.961798"><ele>57.4</ele><time>2022-05-29T08:57:35.000Z</time></trkpt><trkpt lon="5.766714" lat="50.961766"><ele>57.6</ele><time>2022-05-29T08:57:36.000Z</time></trkpt><trkpt lon="5.766811" lat="50.961749"><ele>57.8</ele><time>2022-05-29T08:57:37.000Z</time></trkpt><trkpt lon="5.766909" lat="50.961747"><ele>58</ele><time>2022-05-29T08:57:38.000Z</time></trkpt><trkpt lon="5.767009" lat="50.961756"><ele>58</ele><time>2022-05-29T08:57:39.000Z</time></trkpt><trkpt lon="5.767092" lat="50.961772"><ele>58.2</ele><time>2022-05-29T08:57:40.000Z</time></trkpt><trkpt lon="5.76717" lat="50.961792"><ele>58.4</ele><time>2022-05-29T08:57:41.000Z</time></trkpt><trkpt lon="5.76724" lat="50.961818"><ele>58.4</ele><time>2022-05-29T08:57:42.000Z</time></trkpt><trkpt lon="5.7673" lat="50.961837"><ele>58.6</ele><time>2022-05-29T08:57:43.000Z</time></trkpt><trkpt lon="5.76735" lat="50.961855"><ele>58.8</ele><time>2022-05-29T08:57:44.000Z</time></trkpt><trkpt lon="5.767389" lat="50.961866"><ele>58.8</ele><time>2022-05-29T08:57:45.000Z</time></trkpt><trkpt lon="5.767425" lat="50.961877"><ele>59</ele><time>2022-05-29T08:57:46.000Z</time></trkpt><trkpt lon="5.767451" lat="50.961885"><ele>59.2</ele><time>2022-05-29T08:57:47.000Z</time></trkpt><trkpt lon="5.767477" lat="50.961897"><ele>59.2</ele><time>2022-05-29T08:57:48.000Z</time></trkpt><trkpt lon="5.767501" lat="50.961909"><ele>59.4</ele><time>2022-05-29T08:57:49.000Z</time></trkpt><trkpt lon="5.767524" lat="50.961925"><ele>59.4</ele><time>2022-05-29T08:57:50.000Z</time></trkpt><trkpt lon="5.767539" lat="50.961953"><ele>59.4</ele><time>2022-05-29T08:57:51.000Z</time></trkpt><trkpt lon="5.767541" lat="50.961984"><ele>59.4</ele><time>2022-05-29T08:57:52.000Z</time></trkpt><trkpt lon="5.767536" lat="50.962023"><ele>59.4</ele><time>2022-05-29T08:57:53.000Z</time></trkpt><trkpt lon="5.767522" lat="50.96206"><ele>59.6</ele><time>2022-05-29T08:57:54.000Z</time></trkpt><trkpt lon="5.767495" lat="50.962099"><ele>59.6</ele><time>2022-05-29T08:57:55.000Z</time></trkpt><trkpt lon="5.767463" lat="50.962135"><ele>59.6</ele><time>2022-05-29T08:57:56.000Z</time></trkpt><trkpt lon="5.767421" lat="50.96218"><ele>59.6</ele><time>2022-05-29T08:57:57.000Z</time></trkpt><trkpt lon="5.767378" lat="50.962221"><ele>59.6</ele><time>2022-05-29T08:57:58.000Z</time></trkpt><trkpt lon="5.767331" lat="50.962268"><ele>59.6</ele><time>2022-05-29T08:57:59.000Z</time></trkpt><trkpt lon="5.767285" lat="50.962314"><ele>59.6</ele><time>2022-05-29T08:58:00.000Z</time></trkpt><trkpt lon="5.767237" lat="50.962365"><ele>59.6</ele><time>2022-05-29T08:58:01.000Z</time></trkpt><trkpt lon="5.767188" lat="50.962419"><ele>59.4</ele><time>2022-05-29T08:58:02.000Z</time></trkpt><trkpt lon="5.767137" lat="50.962471"><ele>59.4</ele><time>2022-05-29T08:58:03.000Z</time></trkpt><trkpt lon="5.767084" lat="50.962525"><ele>59.2</ele><time>2022-05-29T08:58:04.000Z</time></trkpt><trkpt lon="5.76703" lat="50.962582"><ele>59.2</ele><time>2022-05-29T08:58:05.000Z</time></trkpt><trkpt lon="5.766973" lat="50.962636"><ele>59.2</ele><time>2022-05-29T08:58:06.000Z</time></trkpt><trkpt lon="5.766917" lat="50.962693"><ele>59.2</ele><time>2022-05-29T08:58:07.000Z</time></trkpt><trkpt lon="5.766857" lat="50.962752"><ele>59.4</ele><time>2022-05-29T08:58:08.000Z</time></trkpt><trkpt lon="5.7668" lat="50.962813"><ele>59.6</ele><time>2022-05-29T08:58:09.000Z</time></trkpt><trkpt lon="5.766742" lat="50.962873"><ele>59.6</ele><time>2022-05-29T08:58:10.000Z</time></trkpt><trkpt lon="5.766685" lat="50.96293"><ele>59.8</ele><time>2022-05-29T08:58:11.000Z</time></trkpt><trkpt lon="5.766632" lat="50.962988"><ele>59.8</ele><time>2022-05-29T08:58:12.000Z</time></trkpt><trkpt lon="5.766579" lat="50.963053"><ele>59.8</ele><time>2022-05-29T08:58:13.000Z</time></trkpt><trkpt lon="5.766527" lat="50.963117"><ele>59.8</ele><time>2022-05-29T08:58:14.000Z</time></trkpt><trkpt lon="5.766477" lat="50.96318"><ele>59.8</ele><time>2022-05-29T08:58:15.000Z</time></trkpt><trkpt lon="5.766423" lat="50.963245"><ele>59.6</ele><time>2022-05-29T08:58:16.000Z</time></trkpt><trkpt lon="5.766375" lat="50.963309"><ele>59.6</ele><time>2022-05-29T08:58:17.000Z</time></trkpt><trkpt lon="5.766322" lat="50.963376"><ele>59.6</ele><time>2022-05-29T08:58:18.000Z</time></trkpt><trkpt lon="5.76627" lat="50.963445"><ele>59.6</ele><time>2022-05-29T08:58:19.000Z</time></trkpt><trkpt lon="5.766216" lat="50.96351"><ele>59.6</ele><time>2022-05-29T08:58:20.000Z</time></trkpt><trkpt lon="5.76616" lat="50.963575"><ele>59.6</ele><time>2022-05-29T08:58:21.000Z</time></trkpt><trkpt lon="5.766105" lat="50.963643"><ele>59.6</ele><time>2022-05-29T08:58:22.000Z</time></trkpt><trkpt lon="5.766049" lat="50.963709"><ele>59.4</ele><time>2022-05-29T08:58:23.000Z</time></trkpt><trkpt lon="5.765994" lat="50.963776"><ele>59.4</ele><time>2022-05-29T08:58:24.000Z</time></trkpt><trkpt lon="5.765939" lat="50.96384"><ele>59.4</ele><time>2022-05-29T08:58:25.000Z</time></trkpt><trkpt lon="5.765888" lat="50.963901"><ele>59.2</ele><time>2022-05-29T08:58:26.000Z</time></trkpt><trkpt lon="5.765838" lat="50.963967"><ele>59.2</ele><time>2022-05-29T08:58:27.000Z</time></trkpt><trkpt lon="5.765788" lat="50.964033"><ele>59</ele><time>2022-05-29T08:58:28.000Z</time></trkpt><trkpt lon="5.76574" lat="50.964102"><ele>58.8</ele><time>2022-05-29T08:58:29.000Z</time></trkpt><trkpt lon="5.765694" lat="50.964169"><ele>58.8</ele><time>2022-05-29T08:58:30.000Z</time></trkpt><trkpt lon="5.765652" lat="50.96424"><ele>58.8</ele><time>2022-05-29T08:58:31.000Z</time></trkpt><trkpt lon="5.76561" lat="50.964312"><ele>58.6</ele><time>2022-05-29T08:58:32.000Z</time></trkpt><trkpt lon="5.765569" lat="50.964385"><ele>58.6</ele><time>2022-05-29T08:58:33.000Z</time></trkpt><trkpt lon="5.765527" lat="50.964457"><ele>58.6</ele><time>2022-05-29T08:58:34.000Z</time></trkpt><trkpt lon="5.76549" lat="50.964528"><ele>58.4</ele><time>2022-05-29T08:58:35.000Z</time></trkpt><trkpt lon="5.765453" lat="50.964598"><ele>58.4</ele><time>2022-05-29T08:58:36.000Z</time></trkpt><trkpt lon="5.765417" lat="50.96467"><ele>58</ele><time>2022-05-29T08:58:37.000Z</time></trkpt><trkpt lon="5.765384" lat="50.964739"><ele>57.6</ele><time>2022-05-29T08:58:38.000Z</time></trkpt><trkpt lon="5.765354" lat="50.964811"><ele>57.4</ele><time>2022-05-29T08:58:39.000Z</time></trkpt><trkpt lon="5.765324" lat="50.96488"><ele>57.4</ele><time>2022-05-29T08:58:40.000Z</time></trkpt><trkpt lon="5.765293" lat="50.964949"><ele>57.4</ele><time>2022-05-29T08:58:41.000Z</time></trkpt><trkpt lon="5.765263" lat="50.965022"><ele>57.4</ele><time>2022-05-29T08:58:42.000Z</time></trkpt><trkpt lon="5.765235" lat="50.965095"><ele>57.4</ele><time>2022-05-29T08:58:43.000Z</time></trkpt><trkpt lon="5.76521" lat="50.965171"><ele>57.4</ele><time>2022-05-29T08:58:44.000Z</time></trkpt><trkpt lon="5.765186" lat="50.965246"><ele>57.4</ele><time>2022-05-29T08:58:45.000Z</time></trkpt><trkpt lon="5.765163" lat="50.96532"><ele>57.4</ele><time>2022-05-29T08:58:46.000Z</time></trkpt><trkpt lon="5.765143" lat="50.965396"><ele>57.2</ele><time>2022-05-29T08:58:47.000Z</time></trkpt><trkpt lon="5.765125" lat="50.965472"><ele>57.2</ele><time>2022-05-29T08:58:48.000Z</time></trkpt><trkpt lon="5.765108" lat="50.965545"><ele>57.2</ele><time>2022-05-29T08:58:49.000Z</time></trkpt><trkpt lon="5.765091" lat="50.96562"><ele>57.2</ele><time>2022-05-29T08:58:50.000Z</time></trkpt><trkpt lon="5.765076" lat="50.965693"><ele>57.2</ele><time>2022-05-29T08:58:51.000Z</time></trkpt><trkpt lon="5.765061" lat="50.965766"><ele>57.2</ele><time>2022-05-29T08:58:52.000Z</time></trkpt><trkpt lon="5.765051" lat="50.965842"><ele>57</ele><time>2022-05-29T08:58:53.000Z</time></trkpt><trkpt lon="5.765044" lat="50.965915"><ele>56.8</ele><time>2022-05-29T08:58:54.000Z</time></trkpt><trkpt lon="5.76504" lat="50.96599"><ele>56.6</ele><time>2022-05-29T08:58:55.000Z</time></trkpt><trkpt lon="5.76504" lat="50.966062"><ele>56.6</ele><time>2022-05-29T08:58:56.000Z</time></trkpt><trkpt lon="5.765038" lat="50.966134"><ele>56.4</ele><time>2022-05-29T08:58:57.000Z</time></trkpt><trkpt lon="5.765032" lat="50.966203"><ele>56.4</ele><time>2022-05-29T08:58:58.000Z</time></trkpt><trkpt lon="5.765027" lat="50.966273"><ele>56.4</ele><time>2022-05-29T08:58:59.000Z</time></trkpt><trkpt lon="5.765018" lat="50.966344"><ele>56.4</ele><time>2022-05-29T08:59:00.000Z</time></trkpt><trkpt lon="5.765007" lat="50.966413"><ele>56.4</ele><time>2022-05-29T08:59:01.000Z</time></trkpt><trkpt lon="5.764994" lat="50.966481"><ele>56.2</ele><time>2022-05-29T08:59:02.000Z</time></trkpt><trkpt lon="5.76498" lat="50.966547"><ele>56.2</ele><time>2022-05-29T08:59:03.000Z</time></trkpt><trkpt lon="5.764971" lat="50.966615"><ele>56.2</ele><time>2022-05-29T08:59:04.000Z</time></trkpt><trkpt lon="5.764969" lat="50.96668"><ele>56.4</ele><time>2022-05-29T08:59:05.000Z</time></trkpt><trkpt lon="5.764971" lat="50.96675"><ele>56.2</ele><time>2022-05-29T08:59:06.000Z</time></trkpt><trkpt lon="5.764975" lat="50.966821"><ele>56.4</ele><time>2022-05-29T08:59:07.000Z</time></trkpt><trkpt lon="5.764975" lat="50.96689"><ele>56.4</ele><time>2022-05-29T08:59:08.000Z</time></trkpt><trkpt lon="5.764972" lat="50.966958"><ele>56.4</ele><time>2022-05-29T08:59:09.000Z</time></trkpt><trkpt lon="5.764967" lat="50.967023"><ele>56.4</ele><time>2022-05-29T08:59:10.000Z</time></trkpt><trkpt lon="5.76496" lat="50.967087"><ele>56.4</ele><time>2022-05-29T08:59:11.000Z</time></trkpt><trkpt lon="5.764952" lat="50.967152"><ele>56.4</ele><time>2022-05-29T08:59:12.000Z</time></trkpt><trkpt lon="5.764946" lat="50.967216"><ele>56.4</ele><time>2022-05-29T08:59:13.000Z</time></trkpt><trkpt lon="5.764946" lat="50.967277"><ele>56.4</ele><time>2022-05-29T08:59:14.000Z</time></trkpt><trkpt lon="5.764951" lat="50.967334"><ele>56.4</ele><time>2022-05-29T08:59:15.000Z</time></trkpt><trkpt lon="5.764955" lat="50.967391"><ele>56.4</ele><time>2022-05-29T08:59:16.000Z</time></trkpt><trkpt lon="5.764954" lat="50.967443"><ele>56.2</ele><time>2022-05-29T08:59:17.000Z</time></trkpt><trkpt lon="5.764949" lat="50.967491"><ele>56.2</ele><time>2022-05-29T08:59:18.000Z</time></trkpt><trkpt lon="5.764945" lat="50.967533"><ele>56.2</ele><time>2022-05-29T08:59:19.000Z</time></trkpt><trkpt lon="5.764945" lat="50.967571"><ele>56.2</ele><time>2022-05-29T08:59:20.000Z</time></trkpt><trkpt lon="5.764949" lat="50.967608"><ele>56.2</ele><time>2022-05-29T08:59:21.000Z</time></trkpt><trkpt lon="5.764961" lat="50.96764"><ele>56.4</ele><time>2022-05-29T08:59:22.000Z</time></trkpt><trkpt lon="5.764971" lat="50.967678"><ele>56.4</ele><time>2022-05-29T08:59:23.000Z</time></trkpt><trkpt lon="5.764966" lat="50.96772"><ele>56.4</ele><time>2022-05-29T08:59:24.000Z</time></trkpt><trkpt lon="5.764944" lat="50.967762"><ele>56.4</ele><time>2022-05-29T08:59:25.000Z</time></trkpt><trkpt lon="5.764909" lat="50.967804"><ele>56.2</ele><time>2022-05-29T08:59:26.000Z</time></trkpt><trkpt lon="5.764879" lat="50.967847"><ele>56.4</ele><time>2022-05-29T08:59:27.000Z</time></trkpt><trkpt lon="5.764859" lat="50.967893"><ele>56.4</ele><time>2022-05-29T08:59:28.000Z</time></trkpt><trkpt lon="5.764847" lat="50.967944"><ele>56.4</ele><time>2022-05-29T08:59:29.000Z</time></trkpt><trkpt lon="5.764839" lat="50.967996"><ele>56.2</ele><time>2022-05-29T08:59:30.000Z</time></trkpt><trkpt lon="5.764835" lat="50.968047"><ele>56.2</ele><time>2022-05-29T08:59:31.000Z</time></trkpt><trkpt lon="5.764833" lat="50.968101"><ele>56</ele><time>2022-05-29T08:59:32.000Z</time></trkpt><trkpt lon="5.76483" lat="50.968158"><ele>56</ele><time>2022-05-29T08:59:33.000Z</time></trkpt><trkpt lon="5.764824" lat="50.968215"><ele>56</ele><time>2022-05-29T08:59:34.000Z</time></trkpt><trkpt lon="5.76482" lat="50.968273"><ele>55.8</ele><time>2022-05-29T08:59:35.000Z</time></trkpt><trkpt lon="5.764812" lat="50.968331"><ele>55.8</ele><time>2022-05-29T08:59:36.000Z</time></trkpt><trkpt lon="5.764804" lat="50.968397"><ele>55.8</ele><time>2022-05-29T08:59:37.000Z</time></trkpt><trkpt lon="5.764801" lat="50.968465"><ele>55.8</ele><time>2022-05-29T08:59:38.000Z</time></trkpt><trkpt lon="5.764798" lat="50.968534"><ele>55.6</ele><time>2022-05-29T08:59:39.000Z</time></trkpt><trkpt lon="5.764798" lat="50.9686"><ele>55.8</ele><time>2022-05-29T08:59:40.000Z</time></trkpt><trkpt lon="5.764802" lat="50.968668"><ele>56</ele><time>2022-05-29T08:59:41.000Z</time></trkpt><trkpt lon="5.7648" lat="50.968736"><ele>55.8</ele><time>2022-05-29T08:59:42.000Z</time></trkpt><trkpt lon="5.764795" lat="50.968802"><ele>55.8</ele><time>2022-05-29T08:59:43.000Z</time></trkpt><trkpt lon="5.764794" lat="50.968874"><ele>55.8</ele><time>2022-05-29T08:59:44.000Z</time></trkpt><trkpt lon="5.764798" lat="50.968947"><ele>56</ele><time>2022-05-29T08:59:45.000Z</time></trkpt><trkpt lon="5.764805" lat="50.969018"><ele>56</ele><time>2022-05-29T08:59:46.000Z</time></trkpt><trkpt lon="5.764814" lat="50.969092"><ele>56.2</ele><time>2022-05-29T08:59:47.000Z</time></trkpt><trkpt lon="5.764826" lat="50.969164"><ele>56.2</ele><time>2022-05-29T08:59:48.000Z</time></trkpt><trkpt lon="5.764841" lat="50.969241"><ele>56.2</ele><time>2022-05-29T08:59:49.000Z</time></trkpt><trkpt lon="5.764866" lat="50.969312"><ele>56.4</ele><time>2022-05-29T08:59:50.000Z</time></trkpt><trkpt lon="5.764896" lat="50.96938"><ele>56.6</ele><time>2022-05-29T08:59:51.000Z</time></trkpt><trkpt lon="5.764932" lat="50.969449"><ele>56.8</ele><time>2022-05-29T08:59:52.000Z</time></trkpt><trkpt lon="5.76497" lat="50.969514"><ele>57</ele><time>2022-05-29T08:59:53.000Z</time></trkpt><trkpt lon="5.765013" lat="50.969578"><ele>57</ele><time>2022-05-29T08:59:54.000Z</time></trkpt><trkpt lon="5.765053" lat="50.969639"><ele>57</ele><time>2022-05-29T08:59:55.000Z</time></trkpt><trkpt lon="5.765094" lat="50.969699"><ele>57</ele><time>2022-05-29T08:59:56.000Z</time></trkpt><trkpt lon="5.765139" lat="50.969758"><ele>57.2</ele><time>2022-05-29T08:59:57.000Z</time></trkpt><trkpt lon="5.765184" lat="50.969818"><ele>57</ele><time>2022-05-29T08:59:58.000Z</time></trkpt><trkpt lon="5.765234" lat="50.969879"><ele>57</ele><time>2022-05-29T08:59:59.000Z</time></trkpt><trkpt lon="5.765285" lat="50.96994"><ele>57.2</ele><time>2022-05-29T09:00:00.000Z</time></trkpt><trkpt lon="5.765338" lat="50.970001"><ele>57.2</ele><time>2022-05-29T09:00:01.000Z</time></trkpt><trkpt lon="5.765392" lat="50.970062"><ele>57.2</ele><time>2022-05-29T09:00:02.000Z</time></trkpt><trkpt lon="5.765447" lat="50.970123"><ele>57.2</ele><time>2022-05-29T09:00:03.000Z</time></trkpt><trkpt lon="5.765498" lat="50.97018"><ele>57.4</ele><time>2022-05-29T09:00:04.000Z</time></trkpt><trkpt lon="5.765551" lat="50.970237"><ele>57.4</ele><time>2022-05-29T09:00:05.000Z</time></trkpt><trkpt lon="5.765604" lat="50.970293"><ele>57.4</ele><time>2022-05-29T09:00:06.000Z</time></trkpt><trkpt lon="5.765657" lat="50.970343"><ele>57.6</ele><time>2022-05-29T09:00:07.000Z</time></trkpt><trkpt lon="5.765711" lat="50.970396"><ele>57.6</ele><time>2022-05-29T09:00:08.000Z</time></trkpt><trkpt lon="5.765764" lat="50.970445"><ele>57.6</ele><time>2022-05-29T09:00:09.000Z</time></trkpt><trkpt lon="5.765814" lat="50.970495"><ele>57.8</ele><time>2022-05-29T09:00:10.000Z</time></trkpt><trkpt lon="5.765864" lat="50.970545"><ele>57.8</ele><time>2022-05-29T09:00:11.000Z</time></trkpt><trkpt lon="5.765913" lat="50.970599"><ele>57.8</ele><time>2022-05-29T09:00:12.000Z</time></trkpt><trkpt lon="5.76596" lat="50.970653"><ele>57.8</ele><time>2022-05-29T09:00:13.000Z</time></trkpt><trkpt lon="5.766005" lat="50.97071"><ele>57.8</ele><time>2022-05-29T09:00:14.000Z</time></trkpt><trkpt lon="5.766049" lat="50.970767"><ele>58</ele><time>2022-05-29T09:00:15.000Z</time></trkpt><trkpt lon="5.766091" lat="50.970825"><ele>57.8</ele><time>2022-05-29T09:00:16.000Z</time></trkpt><trkpt lon="5.766131" lat="50.970884"><ele>57.8</ele><time>2022-05-29T09:00:17.000Z</time></trkpt><trkpt lon="5.766171" lat="50.970939"><ele>57.8</ele><time>2022-05-29T09:00:18.000Z</time></trkpt><trkpt lon="5.76621" lat="50.970995"><ele>57.8</ele><time>2022-05-29T09:00:19.000Z</time></trkpt><trkpt lon="5.766246" lat="50.971049"><ele>58</ele><time>2022-05-29T09:00:20.000Z</time></trkpt><trkpt lon="5.766278" lat="50.971101"><ele>58.2</ele><time>2022-05-29T09:00:21.000Z</time></trkpt><trkpt lon="5.766311" lat="50.971149"><ele>58.2</ele><time>2022-05-29T09:00:22.000Z</time></trkpt><trkpt lon="5.766348" lat="50.971191"><ele>58.4</ele><time>2022-05-29T09:00:23.000Z</time></trkpt><trkpt lon="5.766385" lat="50.97123"><ele>58.6</ele><time>2022-05-29T09:00:24.000Z</time></trkpt><trkpt lon="5.766412" lat="50.971277"><ele>58.8</ele><time>2022-05-29T09:00:25.000Z</time></trkpt><trkpt lon="5.766431" lat="50.971327"><ele>59</ele><time>2022-05-29T09:00:26.000Z</time></trkpt><trkpt lon="5.766446" lat="50.971378"><ele>59.2</ele><time>2022-05-29T09:00:27.000Z</time></trkpt><trkpt lon="5.766461" lat="50.971436"><ele>59.2</ele><time>2022-05-29T09:00:28.000Z</time></trkpt><trkpt lon="5.766476" lat="50.971497"><ele>59.2</ele><time>2022-05-29T09:00:29.000Z</time></trkpt><trkpt lon="5.766491" lat="50.971558"><ele>59.4</ele><time>2022-05-29T09:00:30.000Z</time></trkpt><trkpt lon="5.766506" lat="50.971622"><ele>59.4</ele><time>2022-05-29T09:00:31.000Z</time></trkpt><trkpt lon="5.76652" lat="50.971683"><ele>59.4</ele><time>2022-05-29T09:00:32.000Z</time></trkpt><trkpt lon="5.766534" lat="50.971749"><ele>59.6</ele><time>2022-05-29T09:00:33.000Z</time></trkpt><trkpt lon="5.766548" lat="50.971814"><ele>59.6</ele><time>2022-05-29T09:00:34.000Z</time></trkpt><trkpt lon="5.766564" lat="50.971883"><ele>59.6</ele><time>2022-05-29T09:00:35.000Z</time></trkpt><trkpt lon="5.766578" lat="50.971952"><ele>59.6</ele><time>2022-05-29T09:00:36.000Z</time></trkpt><trkpt lon="5.766593" lat="50.972025"><ele>59.6</ele><time>2022-05-29T09:00:37.000Z</time></trkpt><trkpt lon="5.76661" lat="50.972098"><ele>59.4</ele><time>2022-05-29T09:00:38.000Z</time></trkpt><trkpt lon="5.766624" lat="50.972169"><ele>59.4</ele><time>2022-05-29T09:00:39.000Z</time></trkpt><trkpt lon="5.766639" lat="50.972238"><ele>59.2</ele><time>2022-05-29T09:00:40.000Z</time></trkpt><trkpt lon="5.766654" lat="50.972316"><ele>59.2</ele><time>2022-05-29T09:00:41.000Z</time></trkpt><trkpt lon="5.766666" lat="50.972391"><ele>59.2</ele><time>2022-05-29T09:00:42.000Z</time></trkpt><trkpt lon="5.766679" lat="50.972465"><ele>59.2</ele><time>2022-05-29T09:00:43.000Z</time></trkpt><trkpt lon="5.766692" lat="50.97254"><ele>59</ele><time>2022-05-29T09:00:44.000Z</time></trkpt><trkpt lon="5.766706" lat="50.972613"><ele>58.8</ele><time>2022-05-29T09:00:45.000Z</time></trkpt><trkpt lon="5.766721" lat="50.97269"><ele>58.8</ele><time>2022-05-29T09:00:46.000Z</time></trkpt><trkpt lon="5.766734" lat="50.972765"><ele>58.6</ele><time>2022-05-29T09:00:47.000Z</time></trkpt><trkpt lon="5.766749" lat="50.972838"><ele>58.6</ele><time>2022-05-29T09:00:48.000Z</time></trkpt><trkpt lon="5.766763" lat="50.972916"><ele>58.4</ele><time>2022-05-29T09:00:49.000Z</time></trkpt><trkpt lon="5.76678" lat="50.972995"><ele>58.2</ele><time>2022-05-29T09:00:50.000Z</time></trkpt><trkpt lon="5.766798" lat="50.973072"><ele>58</ele><time>2022-05-29T09:00:51.000Z</time></trkpt><trkpt lon="5.766815" lat="50.973151"><ele>57.8</ele><time>2022-05-29T09:00:52.000Z</time></trkpt><trkpt lon="5.766832" lat="50.973227"><ele>57.8</ele><time>2022-05-29T09:00:53.000Z</time></trkpt><trkpt lon="5.766848" lat="50.973304"><ele>57.6</ele><time>2022-05-29T09:00:54.000Z</time></trkpt><trkpt lon="5.766863" lat="50.973379"><ele>57.2</ele><time>2022-05-29T09:00:55.000Z</time></trkpt><trkpt lon="5.76688" lat="50.973452"><ele>57</ele><time>2022-05-29T09:00:56.000Z</time></trkpt><trkpt lon="5.766898" lat="50.973532"><ele>57</ele><time>2022-05-29T09:00:57.000Z</time></trkpt><trkpt lon="5.766915" lat="50.973605"><ele>57</ele><time>2022-05-29T09:00:58.000Z</time></trkpt><trkpt lon="5.766931" lat="50.973678"><ele>57</ele><time>2022-05-29T09:00:59.000Z</time></trkpt><trkpt lon="5.766947" lat="50.973752"><ele>57</ele><time>2022-05-29T09:01:00.000Z</time></trkpt><trkpt lon="5.766961" lat="50.973822"><ele>57.2</ele><time>2022-05-29T09:01:01.000Z</time></trkpt><trkpt lon="5.766978" lat="50.973895"><ele>57.2</ele><time>2022-05-29T09:01:02.000Z</time></trkpt><trkpt lon="5.766995" lat="50.973967"><ele>57.4</ele><time>2022-05-29T09:01:03.000Z</time></trkpt><trkpt lon="5.767012" lat="50.974039"><ele>57.6</ele><time>2022-05-29T09:01:04.000Z</time></trkpt><trkpt lon="5.767028" lat="50.974108"><ele>57.6</ele><time>2022-05-29T09:01:05.000Z</time></trkpt><trkpt lon="5.767044" lat="50.974179"><ele>57.6</ele><time>2022-05-29T09:01:06.000Z</time></trkpt><trkpt lon="5.767057" lat="50.974245"><ele>57.8</ele><time>2022-05-29T09:01:07.000Z</time></trkpt><trkpt lon="5.767068" lat="50.974318"><ele>57.8</ele><time>2022-05-29T09:01:08.000Z</time></trkpt><trkpt lon="5.767085" lat="50.974391"><ele>57.8</ele><time>2022-05-29T09:01:09.000Z</time></trkpt><trkpt lon="5.767098" lat="50.974463"><ele>58</ele><time>2022-05-29T09:01:10.000Z</time></trkpt><trkpt lon="5.767109" lat="50.974535"><ele>58</ele><time>2022-05-29T09:01:11.000Z</time></trkpt><trkpt lon="5.767125" lat="50.974604"><ele>58</ele><time>2022-05-29T09:01:12.000Z</time></trkpt><trkpt lon="5.767142" lat="50.974676"><ele>58</ele><time>2022-05-29T09:01:13.000Z</time></trkpt><trkpt lon="5.767162" lat="50.974749"><ele>58</ele><time>2022-05-29T09:01:14.000Z</time></trkpt><trkpt lon="5.76718" lat="50.974824"><ele>58</ele><time>2022-05-29T09:01:15.000Z</time></trkpt><trkpt lon="5.767198" lat="50.974895"><ele>58</ele><time>2022-05-29T09:01:16.000Z</time></trkpt><trkpt lon="5.767212" lat="50.97497"><ele>57.8</ele><time>2022-05-29T09:01:17.000Z</time></trkpt><trkpt lon="5.767225" lat="50.975042"><ele>57.8</ele><time>2022-05-29T09:01:18.000Z</time></trkpt><trkpt lon="5.767233" lat="50.975116"><ele>57.6</ele><time>2022-05-29T09:01:19.000Z</time></trkpt><trkpt lon="5.767242" lat="50.975189"><ele>57.4</ele><time>2022-05-29T09:01:20.000Z</time></trkpt><trkpt lon="5.767247" lat="50.975264"><ele>57.4</ele><time>2022-05-29T09:01:21.000Z</time></trkpt><trkpt lon="5.767251" lat="50.975341"><ele>57.4</ele><time>2022-05-29T09:01:22.000Z</time></trkpt><trkpt lon="5.767253" lat="50.97542"><ele>57.4</ele><time>2022-05-29T09:01:23.000Z</time></trkpt><trkpt lon="5.767254" lat="50.975493"><ele>57.4</ele><time>2022-05-29T09:01:24.000Z</time></trkpt><trkpt lon="5.767255" lat="50.97557"><ele>57.4</ele><time>2022-05-29T09:01:25.000Z</time></trkpt><trkpt lon="5.767257" lat="50.975646"><ele>57.4</ele><time>2022-05-29T09:01:26.000Z</time></trkpt><trkpt lon="5.767258" lat="50.975726"><ele>57.4</ele><time>2022-05-29T09:01:27.000Z</time></trkpt><trkpt lon="5.767256" lat="50.975802"><ele>57.2</ele><time>2022-05-29T09:01:28.000Z</time></trkpt><trkpt lon="5.767251" lat="50.975878"><ele>57.2</ele><time>2022-05-29T09:01:29.000Z</time></trkpt><trkpt lon="5.767248" lat="50.975956"><ele>57.2</ele><time>2022-05-29T09:01:30.000Z</time></trkpt><trkpt lon="5.767247" lat="50.976036"><ele>57.2</ele><time>2022-05-29T09:01:31.000Z</time></trkpt><trkpt lon="5.767246" lat="50.976111"><ele>57.2</ele><time>2022-05-29T09:01:32.000Z</time></trkpt><trkpt lon="5.767243" lat="50.976184"><ele>57.2</ele><time>2022-05-29T09:01:33.000Z</time></trkpt><trkpt lon="5.767241" lat="50.97626"><ele>57</ele><time>2022-05-29T09:01:34.000Z</time></trkpt><trkpt lon="5.767239" lat="50.976333"><ele>57</ele><time>2022-05-29T09:01:35.000Z</time></trkpt><trkpt lon="5.767236" lat="50.976408"><ele>56.8</ele><time>2022-05-29T09:01:36.000Z</time></trkpt><trkpt lon="5.767234" lat="50.976482"><ele>56.8</ele><time>2022-05-29T09:01:37.000Z</time></trkpt><trkpt lon="5.767229" lat="50.976558"><ele>56.8</ele><time>2022-05-29T09:01:38.000Z</time></trkpt><trkpt lon="5.767226" lat="50.976634"><ele>56.6</ele><time>2022-05-29T09:01:39.000Z</time></trkpt><trkpt lon="5.767224" lat="50.976707"><ele>56.6</ele><time>2022-05-29T09:01:40.000Z</time></trkpt><trkpt lon="5.767223" lat="50.976783"><ele>56.4</ele><time>2022-05-29T09:01:41.000Z</time></trkpt><trkpt lon="5.767219" lat="50.976859"><ele>56.4</ele><time>2022-05-29T09:01:42.000Z</time></trkpt><trkpt lon="5.767217" lat="50.976935"><ele>56.4</ele><time>2022-05-29T09:01:43.000Z</time></trkpt><trkpt lon="5.767217" lat="50.977008"><ele>56.2</ele><time>2022-05-29T09:01:44.000Z</time></trkpt><trkpt lon="5.767219" lat="50.977085"><ele>56.2</ele><time>2022-05-29T09:01:45.000Z</time></trkpt><trkpt lon="5.76722" lat="50.977165"><ele>56.4</ele><time>2022-05-29T09:01:46.000Z</time></trkpt><trkpt lon="5.767219" lat="50.977241"><ele>56.4</ele><time>2022-05-29T09:01:47.000Z</time></trkpt><trkpt lon="5.767215" lat="50.977317"><ele>56.4</ele><time>2022-05-29T09:01:48.000Z</time></trkpt><trkpt lon="5.767215" lat="50.977393"><ele>56.4</ele><time>2022-05-29T09:01:49.000Z</time></trkpt><trkpt lon="5.767216" lat="50.977469"><ele>56.2</ele><time>2022-05-29T09:01:50.000Z</time></trkpt><trkpt lon="5.767215" lat="50.977542"><ele>56.4</ele><time>2022-05-29T09:01:51.000Z</time></trkpt><trkpt lon="5.76722" lat="50.977618"><ele>56.2</ele><time>2022-05-29T09:01:52.000Z</time></trkpt><trkpt lon="5.767229" lat="50.977694"><ele>56.2</ele><time>2022-05-29T09:01:53.000Z</time></trkpt><trkpt lon="5.767244" lat="50.97777"><ele>56</ele><time>2022-05-29T09:01:54.000Z</time></trkpt><trkpt lon="5.767265" lat="50.977844"><ele>56</ele><time>2022-05-29T09:01:55.000Z</time></trkpt><trkpt lon="5.767294" lat="50.97792"><ele>56</ele><time>2022-05-29T09:01:56.000Z</time></trkpt><trkpt lon="5.767327" lat="50.977995"><ele>56</ele><time>2022-05-29T09:01:57.000Z</time></trkpt><trkpt lon="5.767366" lat="50.978067"><ele>56</ele><time>2022-05-29T09:01:58.000Z</time></trkpt><trkpt lon="5.767406" lat="50.97814"><ele>56.2</ele><time>2022-05-29T09:01:59.000Z</time></trkpt><trkpt lon="5.767447" lat="50.978212"><ele>56.2</ele><time>2022-05-29T09:02:00.000Z</time></trkpt><trkpt lon="5.767483" lat="50.97828"><ele>56.2</ele><time>2022-05-29T09:02:01.000Z</time></trkpt><trkpt lon="5.767517" lat="50.978349"><ele>56.2</ele><time>2022-05-29T09:02:02.000Z</time></trkpt><trkpt lon="5.767544" lat="50.978414"><ele>56</ele><time>2022-05-29T09:02:03.000Z</time></trkpt><trkpt lon="5.767573" lat="50.978482"><ele>56</ele><time>2022-05-29T09:02:04.000Z</time></trkpt><trkpt lon="5.767601" lat="50.978551"><ele>56</ele><time>2022-05-29T09:02:05.000Z</time></trkpt><trkpt lon="5.767626" lat="50.97862"><ele>56</ele><time>2022-05-29T09:02:06.000Z</time></trkpt><trkpt lon="5.767648" lat="50.978689"><ele>56</ele><time>2022-05-29T09:02:07.000Z</time></trkpt><trkpt lon="5.767667" lat="50.978762"><ele>55.8</ele><time>2022-05-29T09:02:08.000Z</time></trkpt><trkpt lon="5.767688" lat="50.978836"><ele>55.6</ele><time>2022-05-29T09:02:09.000Z</time></trkpt><trkpt lon="5.767707" lat="50.978911"><ele>55.4</ele><time>2022-05-29T09:02:10.000Z</time></trkpt><trkpt lon="5.767724" lat="50.978987"><ele>55.2</ele><time>2022-05-29T09:02:11.000Z</time></trkpt><trkpt lon="5.767744" lat="50.979064"><ele>55</ele><time>2022-05-29T09:02:12.000Z</time></trkpt><trkpt lon="5.767768" lat="50.979142"><ele>54.6</ele><time>2022-05-29T09:02:13.000Z</time></trkpt><trkpt lon="5.767795" lat="50.979226"><ele>54</ele><time>2022-05-29T09:02:14.000Z</time></trkpt><trkpt lon="5.767827" lat="50.979305"><ele>53.8</ele><time>2022-05-29T09:02:15.000Z</time></trkpt><trkpt lon="5.767864" lat="50.979386"><ele>53.8</ele><time>2022-05-29T09:02:16.000Z</time></trkpt><trkpt lon="5.767907" lat="50.97947"><ele>53.4</ele><time>2022-05-29T09:02:17.000Z</time></trkpt><trkpt lon="5.76795" lat="50.979554"><ele>53.2</ele><time>2022-05-29T09:02:18.000Z</time></trkpt><trkpt lon="5.767995" lat="50.979638"><ele>53</ele><time>2022-05-29T09:02:19.000Z</time></trkpt><trkpt lon="5.76804" lat="50.979721"><ele>52.8</ele><time>2022-05-29T09:02:20.000Z</time></trkpt><trkpt lon="5.768083" lat="50.979801"><ele>52.6</ele><time>2022-05-29T09:02:21.000Z</time></trkpt><trkpt lon="5.768125" lat="50.979881"><ele>52.4</ele><time>2022-05-29T09:02:22.000Z</time></trkpt><trkpt lon="5.768171" lat="50.979957"><ele>52.4</ele><time>2022-05-29T09:02:23.000Z</time></trkpt><trkpt lon="5.768218" lat="50.980037"><ele>52.2</ele><time>2022-05-29T09:02:24.000Z</time></trkpt><trkpt lon="5.768263" lat="50.980116"><ele>52.2</ele><time>2022-05-29T09:02:25.000Z</time></trkpt><trkpt lon="5.768307" lat="50.980193"><ele>52.2</ele><time>2022-05-29T09:02:26.000Z</time></trkpt><trkpt lon="5.768351" lat="50.98027"><ele>52</ele><time>2022-05-29T09:02:27.000Z</time></trkpt><trkpt lon="5.768394" lat="50.980348"><ele>52</ele><time>2022-05-29T09:02:28.000Z</time></trkpt><trkpt lon="5.768434" lat="50.980421"><ele>52</ele><time>2022-05-29T09:02:29.000Z</time></trkpt><trkpt lon="5.768469" lat="50.980489"><ele>52</ele><time>2022-05-29T09:02:30.000Z</time></trkpt><trkpt lon="5.768502" lat="50.980553"><ele>52.2</ele><time>2022-05-29T09:02:31.000Z</time></trkpt><trkpt lon="5.768532" lat="50.980614"><ele>52.2</ele><time>2022-05-29T09:02:32.000Z</time></trkpt><trkpt lon="5.768567" lat="50.980675"><ele>52.2</ele><time>2022-05-29T09:02:33.000Z</time></trkpt><trkpt lon="5.768602" lat="50.980732"><ele>52.2</ele><time>2022-05-29T09:02:34.000Z</time></trkpt><trkpt lon="5.768638" lat="50.980792"><ele>52.4</ele><time>2022-05-29T09:02:35.000Z</time></trkpt><trkpt lon="5.768675" lat="50.98085"><ele>52.4</ele><time>2022-05-29T09:02:36.000Z</time></trkpt><trkpt lon="5.768709" lat="50.980912"><ele>52.6</ele><time>2022-05-29T09:02:37.000Z</time></trkpt><trkpt lon="5.768748" lat="50.980975"><ele>52.6</ele><time>2022-05-29T09:02:38.000Z</time></trkpt><trkpt lon="5.76879" lat="50.981029"><ele>52.8</ele><time>2022-05-29T09:02:39.000Z</time></trkpt><trkpt lon="5.768833" lat="50.981082"><ele>53</ele><time>2022-05-29T09:02:40.000Z</time></trkpt><trkpt lon="5.768876" lat="50.981139"><ele>53.2</ele><time>2022-05-29T09:02:41.000Z</time></trkpt><trkpt lon="5.768916" lat="50.981197"><ele>53.4</ele><time>2022-05-29T09:02:42.000Z</time></trkpt><trkpt lon="5.768951" lat="50.981254"><ele>53.6</ele><time>2022-05-29T09:02:43.000Z</time></trkpt><trkpt lon="5.768985" lat="50.981312"><ele>53.6</ele><time>2022-05-29T09:02:44.000Z</time></trkpt><trkpt lon="5.769021" lat="50.981373"><ele>53.6</ele><time>2022-05-29T09:02:45.000Z</time></trkpt><trkpt lon="5.769055" lat="50.981433"><ele>53.8</ele><time>2022-05-29T09:02:46.000Z</time></trkpt><trkpt lon="5.769091" lat="50.981489"><ele>53.8</ele><time>2022-05-29T09:02:47.000Z</time></trkpt><trkpt lon="5.769134" lat="50.981536"><ele>54</ele><time>2022-05-29T09:02:48.000Z</time></trkpt><trkpt lon="5.76919" lat="50.981573"><ele>54.2</ele><time>2022-05-29T09:02:49.000Z</time></trkpt><trkpt lon="5.769253" lat="50.981603"><ele>54.6</ele><time>2022-05-29T09:02:50.000Z</time></trkpt><trkpt lon="5.769298" lat="50.981632"><ele>54.6</ele><time>2022-05-29T09:02:51.000Z</time></trkpt><trkpt lon="5.769323" lat="50.981671"><ele>54.8</ele><time>2022-05-29T09:02:52.000Z</time></trkpt><trkpt lon="5.769339" lat="50.981717"><ele>54.8</ele><time>2022-05-29T09:02:53.000Z</time></trkpt><trkpt lon="5.769339" lat="50.981759"><ele>55</ele><time>2022-05-29T09:02:54.000Z</time></trkpt><trkpt lon="5.769315" lat="50.981804"><ele>55</ele><time>2022-05-29T09:02:55.000Z</time></trkpt><trkpt lon="5.769282" lat="50.981848"><ele>54.8</ele><time>2022-05-29T09:02:56.000Z</time></trkpt><trkpt lon="5.769263" lat="50.981897"><ele>55</ele><time>2022-05-29T09:02:57.000Z</time></trkpt><trkpt lon="5.769264" lat="50.981947"><ele>55</ele><time>2022-05-29T09:02:58.000Z</time></trkpt><trkpt lon="5.769279" lat="50.982006"><ele>55</ele><time>2022-05-29T09:02:59.000Z</time></trkpt><trkpt lon="5.769302" lat="50.982067"><ele>55.2</ele><time>2022-05-29T09:03:00.000Z</time></trkpt><trkpt lon="5.769327" lat="50.982126"><ele>55.2</ele><time>2022-05-29T09:03:01.000Z</time></trkpt><trkpt lon="5.769346" lat="50.982181"><ele>55.2</ele><time>2022-05-29T09:03:02.000Z</time></trkpt><trkpt lon="5.769361" lat="50.982243"><ele>55.2</ele><time>2022-05-29T09:03:03.000Z</time></trkpt><trkpt lon="5.769373" lat="50.982303"><ele>55.4</ele><time>2022-05-29T09:03:04.000Z</time></trkpt><trkpt lon="5.769383" lat="50.982366"><ele>55.4</ele><time>2022-05-29T09:03:05.000Z</time></trkpt><trkpt lon="5.76939" lat="50.98243"><ele>55.4</ele><time>2022-05-29T09:03:06.000Z</time></trkpt><trkpt lon="5.769403" lat="50.982491"><ele>55.4</ele><time>2022-05-29T09:03:07.000Z</time></trkpt><trkpt lon="5.769418" lat="50.982555"><ele>55.4</ele><time>2022-05-29T09:03:08.000Z</time></trkpt><trkpt lon="5.769437" lat="50.982616"><ele>55.4</ele><time>2022-05-29T09:03:09.000Z</time></trkpt><trkpt lon="5.769455" lat="50.982677"><ele>55.2</ele><time>2022-05-29T09:03:10.000Z</time></trkpt><trkpt lon="5.769475" lat="50.982734"><ele>55.2</ele><time>2022-05-29T09:03:11.000Z</time></trkpt><trkpt lon="5.76949" lat="50.982792"><ele>55</ele><time>2022-05-29T09:03:12.000Z</time></trkpt><trkpt lon="5.769508" lat="50.982857"><ele>54.8</ele><time>2022-05-29T09:03:13.000Z</time></trkpt><trkpt lon="5.769534" lat="50.982924"><ele>54.8</ele><time>2022-05-29T09:03:14.000Z</time></trkpt><trkpt lon="5.769561" lat="50.982996"><ele>54.6</ele><time>2022-05-29T09:03:15.000Z</time></trkpt><trkpt lon="5.769587" lat="50.983065"><ele>54.4</ele><time>2022-05-29T09:03:16.000Z</time></trkpt><trkpt lon="5.769614" lat="50.983134"><ele>54.2</ele><time>2022-05-29T09:03:17.000Z</time></trkpt><trkpt lon="5.769642" lat="50.983208"><ele>54</ele><time>2022-05-29T09:03:18.000Z</time></trkpt><trkpt lon="5.769673" lat="50.983286"><ele>53.8</ele><time>2022-05-29T09:03:19.000Z</time></trkpt><trkpt lon="5.769705" lat="50.983359"><ele>53.6</ele><time>2022-05-29T09:03:20.000Z</time></trkpt><trkpt lon="5.769733" lat="50.983438"><ele>53.4</ele><time>2022-05-29T09:03:21.000Z</time></trkpt><trkpt lon="5.769762" lat="50.983512"><ele>53.2</ele><time>2022-05-29T09:03:22.000Z</time></trkpt><trkpt lon="5.769789" lat="50.98359"><ele>53</ele><time>2022-05-29T09:03:23.000Z</time></trkpt><trkpt lon="5.769821" lat="50.983674"><ele>53</ele><time>2022-05-29T09:03:24.000Z</time></trkpt><trkpt lon="5.76985" lat="50.98376"><ele>52.8</ele><time>2022-05-29T09:03:25.000Z</time></trkpt><trkpt lon="5.769879" lat="50.983836"><ele>52.8</ele><time>2022-05-29T09:03:26.000Z</time></trkpt><trkpt lon="5.769909" lat="50.98391"><ele>52.8</ele><time>2022-05-29T09:03:27.000Z</time></trkpt><trkpt lon="5.76994" lat="50.983989"><ele>52.8</ele><time>2022-05-29T09:03:28.000Z</time></trkpt><trkpt lon="5.769967" lat="50.984066"><ele>52.8</ele><time>2022-05-29T09:03:29.000Z</time></trkpt><trkpt lon="5.769991" lat="50.984147"><ele>52.8</ele><time>2022-05-29T09:03:30.000Z</time></trkpt><trkpt lon="5.770015" lat="50.984233"><ele>53</ele><time>2022-05-29T09:03:31.000Z</time></trkpt><trkpt lon="5.770026" lat="50.98431"><ele>53.2</ele><time>2022-05-29T09:03:32.000Z</time></trkpt><trkpt lon="5.770021" lat="50.984389"><ele>53.4</ele><time>2022-05-29T09:03:33.000Z</time></trkpt><trkpt lon="5.77001" lat="50.984464"><ele>53.6</ele><time>2022-05-29T09:03:34.000Z</time></trkpt><trkpt lon="5.770003" lat="50.984536"><ele>53.8</ele><time>2022-05-29T09:03:35.000Z</time></trkpt><trkpt lon="5.770008" lat="50.984619"><ele>53.8</ele><time>2022-05-29T09:03:36.000Z</time></trkpt><trkpt lon="5.770011" lat="50.984704"><ele>53.8</ele><time>2022-05-29T09:03:37.000Z</time></trkpt><trkpt lon="5.770005" lat="50.984794"><ele>54</ele><time>2022-05-29T09:03:38.000Z</time></trkpt><trkpt lon="5.769999" lat="50.984887"><ele>54</ele><time>2022-05-29T09:03:39.000Z</time></trkpt><trkpt lon="5.769996" lat="50.984974"><ele>54</ele><time>2022-05-29T09:03:40.000Z</time></trkpt><trkpt lon="5.769991" lat="50.985058"><ele>54</ele><time>2022-05-29T09:03:41.000Z</time></trkpt><trkpt lon="5.769987" lat="50.985142"><ele>54.2</ele><time>2022-05-29T09:03:42.000Z</time></trkpt><trkpt lon="5.769987" lat="50.985226"><ele>54</ele><time>2022-05-29T09:03:43.000Z</time></trkpt><trkpt lon="5.769987" lat="50.985312"><ele>54</ele><time>2022-05-29T09:03:44.000Z</time></trkpt><trkpt lon="5.76998" lat="50.985394"><ele>54</ele><time>2022-05-29T09:03:45.000Z</time></trkpt><trkpt lon="5.769967" lat="50.985478"><ele>53.8</ele><time>2022-05-29T09:03:46.000Z</time></trkpt><trkpt lon="5.769955" lat="50.985562"><ele>53.4</ele><time>2022-05-29T09:03:47.000Z</time></trkpt><trkpt lon="5.769949" lat="50.985648"><ele>53.2</ele><time>2022-05-29T09:03:48.000Z</time></trkpt><trkpt lon="5.76995" lat="50.985739"><ele>52.8</ele><time>2022-05-29T09:03:49.000Z</time></trkpt><trkpt lon="5.769955" lat="50.98583"><ele>52.6</ele><time>2022-05-29T09:03:50.000Z</time></trkpt><trkpt lon="5.769956" lat="50.985918"><ele>52.6</ele><time>2022-05-29T09:03:51.000Z</time></trkpt><trkpt lon="5.769951" lat="50.986006"><ele>52.4</ele><time>2022-05-29T09:03:52.000Z</time></trkpt><trkpt lon="5.76995" lat="50.986092"><ele>52</ele><time>2022-05-29T09:03:53.000Z</time></trkpt><trkpt lon="5.769956" lat="50.986177"><ele>51.6</ele><time>2022-05-29T09:03:54.000Z</time></trkpt><trkpt lon="5.769964" lat="50.986264"><ele>51.4</ele><time>2022-05-29T09:03:55.000Z</time></trkpt><trkpt lon="5.769976" lat="50.986349"><ele>51.2</ele><time>2022-05-29T09:03:56.000Z</time></trkpt><trkpt lon="5.769987" lat="50.986432"><ele>51</ele><time>2022-05-29T09:03:57.000Z</time></trkpt><trkpt lon="5.769998" lat="50.986514"><ele>50.8</ele><time>2022-05-29T09:03:58.000Z</time></trkpt><trkpt lon="5.770011" lat="50.986594"><ele>50.6</ele><time>2022-05-29T09:03:59.000Z</time></trkpt><trkpt lon="5.770024" lat="50.986669"><ele>50.4</ele><time>2022-05-29T09:04:00.000Z</time></trkpt><trkpt lon="5.770036" lat="50.986743"><ele>50.4</ele><time>2022-05-29T09:04:01.000Z</time></trkpt><trkpt lon="5.770054" lat="50.98682"><ele>50.4</ele><time>2022-05-29T09:04:02.000Z</time></trkpt><trkpt lon="5.770074" lat="50.986899"><ele>50.2</ele><time>2022-05-29T09:04:03.000Z</time></trkpt><trkpt lon="5.770096" lat="50.986976"><ele>50.2</ele><time>2022-05-29T09:04:04.000Z</time></trkpt><trkpt lon="5.770119" lat="50.987052"><ele>50</ele><time>2022-05-29T09:04:05.000Z</time></trkpt><trkpt lon="5.770142" lat="50.987124"><ele>49.8</ele><time>2022-05-29T09:04:06.000Z</time></trkpt><trkpt lon="5.770171" lat="50.987196"><ele>49.6</ele><time>2022-05-29T09:04:07.000Z</time></trkpt><trkpt lon="5.770209" lat="50.987267"><ele>49.6</ele><time>2022-05-29T09:04:08.000Z</time></trkpt><trkpt lon="5.770249" lat="50.987332"><ele>49.6</ele><time>2022-05-29T09:04:09.000Z</time></trkpt><trkpt lon="5.770278" lat="50.987398"><ele>49.6</ele><time>2022-05-29T09:04:10.000Z</time></trkpt><trkpt lon="5.770295" lat="50.987466"><ele>49.4</ele><time>2022-05-29T09:04:11.000Z</time></trkpt><trkpt lon="5.770309" lat="50.987533"><ele>49.4</ele><time>2022-05-29T09:04:12.000Z</time></trkpt><trkpt lon="5.770335" lat="50.987595"><ele>49.4</ele><time>2022-05-29T09:04:13.000Z</time></trkpt><trkpt lon="5.770368" lat="50.987656"><ele>49.4</ele><time>2022-05-29T09:04:14.000Z</time></trkpt><trkpt lon="5.770403" lat="50.987717"><ele>49.4</ele><time>2022-05-29T09:04:15.000Z</time></trkpt><trkpt lon="5.770436" lat="50.987781"><ele>49.4</ele><time>2022-05-29T09:04:16.000Z</time></trkpt><trkpt lon="5.770467" lat="50.987839"><ele>49.2</ele><time>2022-05-29T09:04:17.000Z</time></trkpt><trkpt lon="5.770498" lat="50.987901"><ele>49.2</ele><time>2022-05-29T09:04:18.000Z</time></trkpt><trkpt lon="5.770531" lat="50.987966"><ele>49</ele><time>2022-05-29T09:04:19.000Z</time></trkpt><trkpt lon="5.770563" lat="50.988034"><ele>48.8</ele><time>2022-05-29T09:04:20.000Z</time></trkpt><trkpt lon="5.770597" lat="50.9881"><ele>48.8</ele><time>2022-05-29T09:04:21.000Z</time></trkpt><trkpt lon="5.770634" lat="50.988173"><ele>48.8</ele><time>2022-05-29T09:04:22.000Z</time></trkpt><trkpt lon="5.770675" lat="50.988241"><ele>48.6</ele><time>2022-05-29T09:04:23.000Z</time></trkpt><trkpt lon="5.770716" lat="50.988309"><ele>48.4</ele><time>2022-05-29T09:04:24.000Z</time></trkpt><trkpt lon="5.770754" lat="50.988378"><ele>48.2</ele><time>2022-05-29T09:04:25.000Z</time></trkpt><trkpt lon="5.77079" lat="50.988447"><ele>48.2</ele><time>2022-05-29T09:04:26.000Z</time></trkpt><trkpt lon="5.770823" lat="50.988514"><ele>48.2</ele><time>2022-05-29T09:04:27.000Z</time></trkpt><trkpt lon="5.770862" lat="50.988578"><ele>48.2</ele><time>2022-05-29T09:04:28.000Z</time></trkpt><trkpt lon="5.77091" lat="50.988635"><ele>48.2</ele><time>2022-05-29T09:04:29.000Z</time></trkpt><trkpt lon="5.770966" lat="50.988692"><ele>48.2</ele><time>2022-05-29T09:04:30.000Z</time></trkpt><trkpt lon="5.771009" lat="50.988754"><ele>48.2</ele><time>2022-05-29T09:04:31.000Z</time></trkpt><trkpt lon="5.771031" lat="50.98882"><ele>48.2</ele><time>2022-05-29T09:04:32.000Z</time></trkpt><trkpt lon="5.771033" lat="50.988886"><ele>48</ele><time>2022-05-29T09:04:33.000Z</time></trkpt><trkpt lon="5.771036" lat="50.988958"><ele>48</ele><time>2022-05-29T09:04:34.000Z</time></trkpt><trkpt lon="5.771054" lat="50.989027"><ele>47.8</ele><time>2022-05-29T09:04:35.000Z</time></trkpt><trkpt lon="5.771085" lat="50.989102"><ele>47.8</ele><time>2022-05-29T09:04:36.000Z</time></trkpt><trkpt lon="5.771126" lat="50.989185"><ele>47.8</ele><time>2022-05-29T09:04:37.000Z</time></trkpt><trkpt lon="5.771174" lat="50.989262"><ele>47.8</ele><time>2022-05-29T09:04:38.000Z</time></trkpt><trkpt lon="5.771226" lat="50.989341"><ele>47.6</ele><time>2022-05-29T09:04:39.000Z</time></trkpt><trkpt lon="5.771282" lat="50.989417"><ele>47.4</ele><time>2022-05-29T09:04:40.000Z</time></trkpt><trkpt lon="5.77134" lat="50.989498"><ele>47.2</ele><time>2022-05-29T09:04:41.000Z</time></trkpt><trkpt lon="5.771397" lat="50.989577"><ele>47</ele><time>2022-05-29T09:04:42.000Z</time></trkpt><trkpt lon="5.771451" lat="50.989653"><ele>47.2</ele><time>2022-05-29T09:04:43.000Z</time></trkpt><trkpt lon="5.771505" lat="50.98973"><ele>47.2</ele><time>2022-05-29T09:04:44.000Z</time></trkpt><trkpt lon="5.771558" lat="50.989807"><ele>47.2</ele><time>2022-05-29T09:04:45.000Z</time></trkpt><trkpt lon="5.771607" lat="50.989886"><ele>47.2</ele><time>2022-05-29T09:04:46.000Z</time></trkpt><trkpt lon="5.771653" lat="50.989961"><ele>47</ele><time>2022-05-29T09:04:47.000Z</time></trkpt><trkpt lon="5.7717" lat="50.990034"><ele>47</ele><time>2022-05-29T09:04:48.000Z</time></trkpt><trkpt lon="5.77174" lat="50.990107"><ele>47</ele><time>2022-05-29T09:04:49.000Z</time></trkpt><trkpt lon="5.771776" lat="50.990179"><ele>47</ele><time>2022-05-29T09:04:50.000Z</time></trkpt><trkpt lon="5.771806" lat="50.990247"><ele>47</ele><time>2022-05-29T09:04:51.000Z</time></trkpt><trkpt lon="5.771831" lat="50.990315"><ele>47</ele><time>2022-05-29T09:04:52.000Z</time></trkpt><trkpt lon="5.771853" lat="50.99038"><ele>46.8</ele><time>2022-05-29T09:04:53.000Z</time></trkpt><trkpt lon="5.771876" lat="50.990443"><ele>46.8</ele><time>2022-05-29T09:04:54.000Z</time></trkpt><trkpt lon="5.771904" lat="50.990506"><ele>46.8</ele><time>2022-05-29T09:04:55.000Z</time></trkpt><trkpt lon="5.771932" lat="50.990571"><ele>46.8</ele><time>2022-05-29T09:04:56.000Z</time></trkpt><trkpt lon="5.771949" lat="50.990636"><ele>46.6</ele><time>2022-05-29T09:04:57.000Z</time></trkpt><trkpt lon="5.77195" lat="50.990706"><ele>46.6</ele><time>2022-05-29T09:04:58.000Z</time></trkpt><trkpt lon="5.771941" lat="50.990779"><ele>46.6</ele><time>2022-05-29T09:04:59.000Z</time></trkpt><trkpt lon="5.77193" lat="50.990856"><ele>46.4</ele><time>2022-05-29T09:05:00.000Z</time></trkpt><trkpt lon="5.771926" lat="50.99094"><ele>46.4</ele><time>2022-05-29T09:05:01.000Z</time></trkpt><trkpt lon="5.771931" lat="50.991021"><ele>46.2</ele><time>2022-05-29T09:05:02.000Z</time></trkpt><trkpt lon="5.771949" lat="50.991112"><ele>46</ele><time>2022-05-29T09:05:03.000Z</time></trkpt><trkpt lon="5.771978" lat="50.991196"><ele>45.8</ele><time>2022-05-29T09:05:04.000Z</time></trkpt><trkpt lon="5.772015" lat="50.991282"><ele>45.8</ele><time>2022-05-29T09:05:05.000Z</time></trkpt><trkpt lon="5.772054" lat="50.991367"><ele>45.6</ele><time>2022-05-29T09:05:06.000Z</time></trkpt><trkpt lon="5.772091" lat="50.99145"><ele>45.4</ele><time>2022-05-29T09:05:07.000Z</time></trkpt><trkpt lon="5.772124" lat="50.991531"><ele>45.2</ele><time>2022-05-29T09:05:08.000Z</time></trkpt><trkpt lon="5.772155" lat="50.99161"><ele>45</ele><time>2022-05-29T09:05:09.000Z</time></trkpt><trkpt lon="5.772185" lat="50.991686"><ele>44.8</ele><time>2022-05-29T09:05:10.000Z</time></trkpt><trkpt lon="5.772214" lat="50.991758"><ele>44.8</ele><time>2022-05-29T09:05:11.000Z</time></trkpt><trkpt lon="5.772244" lat="50.991834"><ele>44.6</ele><time>2022-05-29T09:05:12.000Z</time></trkpt><trkpt lon="5.772271" lat="50.991904"><ele>44.4</ele><time>2022-05-29T09:05:13.000Z</time></trkpt><trkpt lon="5.772296" lat="50.99198"><ele>44</ele><time>2022-05-29T09:05:14.000Z</time></trkpt><trkpt lon="5.772321" lat="50.992053"><ele>43.8</ele><time>2022-05-29T09:05:15.000Z</time></trkpt><trkpt lon="5.772343" lat="50.99213"><ele>43.8</ele><time>2022-05-29T09:05:16.000Z</time></trkpt><trkpt lon="5.772361" lat="50.992204"><ele>43.8</ele><time>2022-05-29T09:05:17.000Z</time></trkpt><trkpt lon="5.772376" lat="50.992275"><ele>43.8</ele><time>2022-05-29T09:05:18.000Z</time></trkpt><trkpt lon="5.772389" lat="50.992353"><ele>44</ele><time>2022-05-29T09:05:19.000Z</time></trkpt><trkpt lon="5.772402" lat="50.992426"><ele>44</ele><time>2022-05-29T09:05:20.000Z</time></trkpt><trkpt lon="5.77241" lat="50.9925"><ele>44</ele><time>2022-05-29T09:05:21.000Z</time></trkpt><trkpt lon="5.77242" lat="50.992579"><ele>44</ele><time>2022-05-29T09:05:22.000Z</time></trkpt><trkpt lon="5.772427" lat="50.992656"><ele>44</ele><time>2022-05-29T09:05:23.000Z</time></trkpt><trkpt lon="5.772435" lat="50.992732"><ele>44.2</ele><time>2022-05-29T09:05:24.000Z</time></trkpt><trkpt lon="5.772441" lat="50.992809"><ele>44.2</ele><time>2022-05-29T09:05:25.000Z</time></trkpt><trkpt lon="5.772446" lat="50.992884"><ele>44.2</ele><time>2022-05-29T09:05:26.000Z</time></trkpt><trkpt lon="5.772449" lat="50.99296"><ele>44.2</ele><time>2022-05-29T09:05:27.000Z</time></trkpt><trkpt lon="5.772452" lat="50.993031"><ele>44</ele><time>2022-05-29T09:05:28.000Z</time></trkpt><trkpt lon="5.772452" lat="50.993101"><ele>44.2</ele><time>2022-05-29T09:05:29.000Z</time></trkpt><trkpt lon="5.77245" lat="50.993175"><ele>44.2</ele><time>2022-05-29T09:05:30.000Z</time></trkpt><trkpt lon="5.772449" lat="50.993251"><ele>44.2</ele><time>2022-05-29T09:05:31.000Z</time></trkpt><trkpt lon="5.77245" lat="50.993324"><ele>44.2</ele><time>2022-05-29T09:05:32.000Z</time></trkpt><trkpt lon="5.772448" lat="50.993403"><ele>44.2</ele><time>2022-05-29T09:05:33.000Z</time></trkpt><trkpt lon="5.772446" lat="50.993479"><ele>44</ele><time>2022-05-29T09:05:34.000Z</time></trkpt><trkpt lon="5.772443" lat="50.993557"><ele>43.8</ele><time>2022-05-29T09:05:35.000Z</time></trkpt><trkpt lon="5.772442" lat="50.993636"><ele>43.8</ele><time>2022-05-29T09:05:36.000Z</time></trkpt><trkpt lon="5.77244" lat="50.993712"><ele>43.8</ele><time>2022-05-29T09:05:37.000Z</time></trkpt><trkpt lon="5.772438" lat="50.993789"><ele>43.8</ele><time>2022-05-29T09:05:38.000Z</time></trkpt><trkpt lon="5.772432" lat="50.993864"><ele>43.8</ele><time>2022-05-29T09:05:39.000Z</time></trkpt><trkpt lon="5.772428" lat="50.993938"><ele>43.8</ele><time>2022-05-29T09:05:40.000Z</time></trkpt><trkpt lon="5.772426" lat="50.994012"><ele>43.8</ele><time>2022-05-29T09:05:41.000Z</time></trkpt><trkpt lon="5.772422" lat="50.994081"><ele>43.6</ele><time>2022-05-29T09:05:42.000Z</time></trkpt><trkpt lon="5.772416" lat="50.994149"><ele>43.6</ele><time>2022-05-29T09:05:43.000Z</time></trkpt><trkpt lon="5.772414" lat="50.994214"><ele>43.6</ele><time>2022-05-29T09:05:44.000Z</time></trkpt><trkpt lon="5.772408" lat="50.994279"><ele>43.6</ele><time>2022-05-29T09:05:45.000Z</time></trkpt><trkpt lon="5.772396" lat="50.994344"><ele>43.8</ele><time>2022-05-29T09:05:46.000Z</time></trkpt><trkpt lon="5.772382" lat="50.994409"><ele>43.6</ele><time>2022-05-29T09:05:47.000Z</time></trkpt><trkpt lon="5.772374" lat="50.994477"><ele>43.6</ele><time>2022-05-29T09:05:48.000Z</time></trkpt><trkpt lon="5.772367" lat="50.994543"><ele>43.6</ele><time>2022-05-29T09:05:49.000Z</time></trkpt><trkpt lon="5.772364" lat="50.994611"><ele>43.6</ele><time>2022-05-29T09:05:50.000Z</time></trkpt><trkpt lon="5.772365" lat="50.994675"><ele>43.6</ele><time>2022-05-29T09:05:51.000Z</time></trkpt><trkpt lon="5.772367" lat="50.99474"><ele>43.8</ele><time>2022-05-29T09:05:52.000Z</time></trkpt><trkpt lon="5.77237" lat="50.994804"><ele>43.8</ele><time>2022-05-29T09:05:53.000Z</time></trkpt><trkpt lon="5.772368" lat="50.99487"><ele>44</ele><time>2022-05-29T09:05:54.000Z</time></trkpt><trkpt lon="5.772369" lat="50.994938"><ele>44</ele><time>2022-05-29T09:05:55.000Z</time></trkpt><trkpt lon="5.772372" lat="50.995"><ele>44.2</ele><time>2022-05-29T09:05:56.000Z</time></trkpt><trkpt lon="5.772373" lat="50.995065"><ele>44.4</ele><time>2022-05-29T09:05:57.000Z</time></trkpt><trkpt lon="5.772374" lat="50.995133"><ele>44.4</ele><time>2022-05-29T09:05:58.000Z</time></trkpt><trkpt lon="5.772375" lat="50.995197"><ele>44.6</ele><time>2022-05-29T09:05:59.000Z</time></trkpt><trkpt lon="5.772374" lat="50.995258"><ele>44.8</ele><time>2022-05-29T09:06:00.000Z</time></trkpt><trkpt lon="5.772376" lat="50.995324"><ele>44.8</ele><time>2022-05-29T09:06:01.000Z</time></trkpt><trkpt lon="5.77238" lat="50.995388"><ele>45</ele><time>2022-05-29T09:06:02.000Z</time></trkpt><trkpt lon="5.772381" lat="50.995452"><ele>45</ele><time>2022-05-29T09:06:03.000Z</time></trkpt><trkpt lon="5.772388" lat="50.995511"><ele>45</ele><time>2022-05-29T09:06:04.000Z</time></trkpt><trkpt lon="5.772399" lat="50.995576"><ele>45.2</ele><time>2022-05-29T09:06:05.000Z</time></trkpt><trkpt lon="5.772414" lat="50.995641"><ele>45.2</ele><time>2022-05-29T09:06:06.000Z</time></trkpt><trkpt lon="5.77243" lat="50.995711"><ele>45.2</ele><time>2022-05-29T09:06:07.000Z</time></trkpt><trkpt lon="5.772447" lat="50.995783"><ele>45.2</ele><time>2022-05-29T09:06:08.000Z</time></trkpt><trkpt lon="5.772466" lat="50.995855"><ele>45.2</ele><time>2022-05-29T09:06:09.000Z</time></trkpt><trkpt lon="5.772487" lat="50.995923"><ele>45.4</ele><time>2022-05-29T09:06:10.000Z</time></trkpt><trkpt lon="5.772507" lat="50.995988"><ele>45.4</ele><time>2022-05-29T09:06:11.000Z</time></trkpt><trkpt lon="5.772525" lat="50.996053"><ele>45.4</ele><time>2022-05-29T09:06:12.000Z</time></trkpt><trkpt lon="5.772545" lat="50.996119"><ele>45.6</ele><time>2022-05-29T09:06:13.000Z</time></trkpt><trkpt lon="5.772561" lat="50.996186"><ele>45.6</ele><time>2022-05-29T09:06:14.000Z</time></trkpt><trkpt lon="5.772574" lat="50.996251"><ele>45.6</ele><time>2022-05-29T09:06:15.000Z</time></trkpt><trkpt lon="5.772591" lat="50.996317"><ele>45.6</ele><time>2022-05-29T09:06:16.000Z</time></trkpt><trkpt lon="5.77261" lat="50.996386"><ele>45.8</ele><time>2022-05-29T09:06:17.000Z</time></trkpt><trkpt lon="5.772629" lat="50.996458"><ele>45.8</ele><time>2022-05-29T09:06:18.000Z</time></trkpt><trkpt lon="5.772649" lat="50.996528"><ele>46</ele><time>2022-05-29T09:06:19.000Z</time></trkpt><trkpt lon="5.772667" lat="50.9966"><ele>46</ele><time>2022-05-29T09:06:20.000Z</time></trkpt><trkpt lon="5.772685" lat="50.996672"><ele>46</ele><time>2022-05-29T09:06:21.000Z</time></trkpt><trkpt lon="5.772702" lat="50.996744"><ele>46</ele><time>2022-05-29T09:06:22.000Z</time></trkpt><trkpt lon="5.77272" lat="50.996817"><ele>46.2</ele><time>2022-05-29T09:06:23.000Z</time></trkpt><trkpt lon="5.772736" lat="50.996885"><ele>46.2</ele><time>2022-05-29T09:06:24.000Z</time></trkpt><trkpt lon="5.772752" lat="50.996949"><ele>46.2</ele><time>2022-05-29T09:06:25.000Z</time></trkpt><trkpt lon="5.772773" lat="50.997015"><ele>46.2</ele><time>2022-05-29T09:06:26.000Z</time></trkpt><trkpt lon="5.772796" lat="50.997086"><ele>46.2</ele><time>2022-05-29T09:06:27.000Z</time></trkpt><trkpt lon="5.772817" lat="50.997155"><ele>46.2</ele><time>2022-05-29T09:06:28.000Z</time></trkpt><trkpt lon="5.772838" lat="50.997223"><ele>46.4</ele><time>2022-05-29T09:06:29.000Z</time></trkpt><trkpt lon="5.772861" lat="50.997293"><ele>46.2</ele><time>2022-05-29T09:06:30.000Z</time></trkpt><trkpt lon="5.772885" lat="50.997363"><ele>46.2</ele><time>2022-05-29T09:06:31.000Z</time></trkpt><trkpt lon="5.772908" lat="50.997434"><ele>46.2</ele><time>2022-05-29T09:06:32.000Z</time></trkpt><trkpt lon="5.772933" lat="50.997503"><ele>46.2</ele><time>2022-05-29T09:06:33.000Z</time></trkpt><trkpt lon="5.77296" lat="50.997576"><ele>46.2</ele><time>2022-05-29T09:06:34.000Z</time></trkpt><trkpt lon="5.772985" lat="50.997648"><ele>46</ele><time>2022-05-29T09:06:35.000Z</time></trkpt><trkpt lon="5.77301" lat="50.997717"><ele>46</ele><time>2022-05-29T09:06:36.000Z</time></trkpt><trkpt lon="5.773034" lat="50.997786"><ele>46.2</ele><time>2022-05-29T09:06:37.000Z</time></trkpt><trkpt lon="5.77306" lat="50.997857"><ele>46.2</ele><time>2022-05-29T09:06:38.000Z</time></trkpt><trkpt lon="5.773085" lat="50.997926"><ele>46.2</ele><time>2022-05-29T09:06:39.000Z</time></trkpt><trkpt lon="5.773111" lat="50.997996"><ele>46.4</ele><time>2022-05-29T09:06:40.000Z</time></trkpt><trkpt lon="5.773136" lat="50.998069"><ele>46.4</ele><time>2022-05-29T09:06:41.000Z</time></trkpt><trkpt lon="5.77316" lat="50.99814"><ele>46.6</ele><time>2022-05-29T09:06:42.000Z</time></trkpt><trkpt lon="5.773185" lat="50.998208"><ele>46.4</ele><time>2022-05-29T09:06:43.000Z</time></trkpt><trkpt lon="5.77321" lat="50.998278"><ele>46.4</ele><time>2022-05-29T09:06:44.000Z</time></trkpt><trkpt lon="5.773236" lat="50.99835"><ele>46.4</ele><time>2022-05-29T09:06:45.000Z</time></trkpt><trkpt lon="5.773261" lat="50.998419"><ele>46.4</ele><time>2022-05-29T09:06:46.000Z</time></trkpt><trkpt lon="5.773282" lat="50.998488"><ele>46.4</ele><time>2022-05-29T09:06:47.000Z</time></trkpt><trkpt lon="5.773303" lat="50.998559"><ele>46.2</ele><time>2022-05-29T09:06:48.000Z</time></trkpt><trkpt lon="5.773326" lat="50.998628"><ele>46.2</ele><time>2022-05-29T09:06:49.000Z</time></trkpt><trkpt lon="5.773351" lat="50.998696"><ele>46.2</ele><time>2022-05-29T09:06:50.000Z</time></trkpt><trkpt lon="5.773373" lat="50.998761"><ele>46.2</ele><time>2022-05-29T09:06:51.000Z</time></trkpt><trkpt lon="5.773393" lat="50.998826"><ele>46</ele><time>2022-05-29T09:06:52.000Z</time></trkpt><trkpt lon="5.773415" lat="50.998895"><ele>46</ele><time>2022-05-29T09:06:53.000Z</time></trkpt><trkpt lon="5.77344" lat="50.998963"><ele>46</ele><time>2022-05-29T09:06:54.000Z</time></trkpt><trkpt lon="5.773463" lat="50.999027"><ele>46</ele><time>2022-05-29T09:06:55.000Z</time></trkpt><trkpt lon="5.773488" lat="50.999089"><ele>45.8</ele><time>2022-05-29T09:06:56.000Z</time></trkpt><trkpt lon="5.77351" lat="50.999153"><ele>45.8</ele><time>2022-05-29T09:06:57.000Z</time></trkpt><trkpt lon="5.773532" lat="50.999217"><ele>46</ele><time>2022-05-29T09:06:58.000Z</time></trkpt><trkpt lon="5.773558" lat="50.999288"><ele>46</ele><time>2022-05-29T09:06:59.000Z</time></trkpt><trkpt lon="5.773582" lat="50.999357"><ele>46</ele><time>2022-05-29T09:07:00.000Z</time></trkpt><trkpt lon="5.773609" lat="50.99943"><ele>46</ele><time>2022-05-29T09:07:01.000Z</time></trkpt><trkpt lon="5.773635" lat="50.999502"><ele>46.2</ele><time>2022-05-29T09:07:02.000Z</time></trkpt><trkpt lon="5.773661" lat="50.999575"><ele>46.2</ele><time>2022-05-29T09:07:03.000Z</time></trkpt><trkpt lon="5.77369" lat="50.999648"><ele>46.2</ele><time>2022-05-29T09:07:04.000Z</time></trkpt><trkpt lon="5.773719" lat="50.999723"><ele>46.2</ele><time>2022-05-29T09:07:05.000Z</time></trkpt><trkpt lon="5.77375" lat="50.999797"><ele>46.2</ele><time>2022-05-29T09:07:06.000Z</time></trkpt><trkpt lon="5.77378" lat="50.999873"><ele>46.4</ele><time>2022-05-29T09:07:07.000Z</time></trkpt><trkpt lon="5.773814" lat="50.999945"><ele>46.6</ele><time>2022-05-29T09:07:08.000Z</time></trkpt><trkpt lon="5.773852" lat="51.000017"><ele>46.6</ele><time>2022-05-29T09:07:09.000Z</time></trkpt><trkpt lon="5.773887" lat="51.000089"><ele>46.6</ele><time>2022-05-29T09:07:10.000Z</time></trkpt><trkpt lon="5.773924" lat="51.000159"><ele>46.8</ele><time>2022-05-29T09:07:11.000Z</time></trkpt><trkpt lon="5.77396" lat="51.00023"><ele>46.8</ele><time>2022-05-29T09:07:12.000Z</time></trkpt><trkpt lon="5.773996" lat="51.000297"><ele>47</ele><time>2022-05-29T09:07:13.000Z</time></trkpt><trkpt lon="5.774032" lat="51.000363"><ele>47.2</ele><time>2022-05-29T09:07:14.000Z</time></trkpt><trkpt lon="5.774068" lat="51.000428"><ele>47.2</ele><time>2022-05-29T09:07:15.000Z</time></trkpt><trkpt lon="5.774101" lat="51.000492"><ele>47.2</ele><time>2022-05-29T09:07:16.000Z</time></trkpt><trkpt lon="5.774137" lat="51.000554"><ele>47.2</ele><time>2022-05-29T09:07:17.000Z</time></trkpt><trkpt lon="5.774175" lat="51.000617"><ele>47.2</ele><time>2022-05-29T09:07:18.000Z</time></trkpt><trkpt lon="5.774211" lat="51.000677"><ele>47.4</ele><time>2022-05-29T09:07:19.000Z</time></trkpt><trkpt lon="5.774246" lat="51.00074"><ele>47.4</ele><time>2022-05-29T09:07:20.000Z</time></trkpt><trkpt lon="5.774282" lat="51.000804"><ele>47.4</ele><time>2022-05-29T09:07:21.000Z</time></trkpt><trkpt lon="5.77432" lat="51.000866"><ele>47.4</ele><time>2022-05-29T09:07:22.000Z</time></trkpt><trkpt lon="5.774357" lat="51.000931"><ele>47.6</ele><time>2022-05-29T09:07:23.000Z</time></trkpt><trkpt lon="5.774394" lat="51.000996"><ele>47.6</ele><time>2022-05-29T09:07:24.000Z</time></trkpt><trkpt lon="5.774428" lat="51.001057"><ele>47.6</ele><time>2022-05-29T09:07:25.000Z</time></trkpt><trkpt lon="5.774463" lat="51.001122"><ele>47.6</ele><time>2022-05-29T09:07:26.000Z</time></trkpt><trkpt lon="5.774503" lat="51.001187"><ele>47.8</ele><time>2022-05-29T09:07:27.000Z</time></trkpt><trkpt lon="5.774542" lat="51.001251"><ele>47.8</ele><time>2022-05-29T09:07:28.000Z</time></trkpt><trkpt lon="5.77458" lat="51.001312"><ele>48</ele><time>2022-05-29T09:07:29.000Z</time></trkpt><trkpt lon="5.774621" lat="51.001378"><ele>48</ele><time>2022-05-29T09:07:30.000Z</time></trkpt><trkpt lon="5.774661" lat="51.001442"><ele>48</ele><time>2022-05-29T09:07:31.000Z</time></trkpt><trkpt lon="5.774697" lat="51.001504"><ele>48</ele><time>2022-05-29T09:07:32.000Z</time></trkpt><trkpt lon="5.77473" lat="51.001567"><ele>47.8</ele><time>2022-05-29T09:07:33.000Z</time></trkpt><trkpt lon="5.774767" lat="51.001626"><ele>48</ele><time>2022-05-29T09:07:34.000Z</time></trkpt><trkpt lon="5.774805" lat="51.001689"><ele>48</ele><time>2022-05-29T09:07:35.000Z</time></trkpt><trkpt lon="5.774843" lat="51.001746"><ele>48</ele><time>2022-05-29T09:07:36.000Z</time></trkpt><trkpt lon="5.774881" lat="51.001807"><ele>48.2</ele><time>2022-05-29T09:07:37.000Z</time></trkpt><trkpt lon="5.774919" lat="51.001869"><ele>48.2</ele><time>2022-05-29T09:07:38.000Z</time></trkpt><trkpt lon="5.774954" lat="51.001931"><ele>48.4</ele><time>2022-05-29T09:07:39.000Z</time></trkpt><trkpt lon="5.774991" lat="51.001992"><ele>48.6</ele><time>2022-05-29T09:07:40.000Z</time></trkpt><trkpt lon="5.775029" lat="51.002053"><ele>48.6</ele><time>2022-05-29T09:07:41.000Z</time></trkpt><trkpt lon="5.775067" lat="51.002113"><ele>48.8</ele><time>2022-05-29T09:07:42.000Z</time></trkpt><trkpt lon="5.775101" lat="51.002174"><ele>49</ele><time>2022-05-29T09:07:43.000Z</time></trkpt><trkpt lon="5.775135" lat="51.00224"><ele>49</ele><time>2022-05-29T09:07:44.000Z</time></trkpt><trkpt lon="5.775171" lat="51.002304"><ele>49</ele><time>2022-05-29T09:07:45.000Z</time></trkpt><trkpt lon="5.77521" lat="51.002366"><ele>49.2</ele><time>2022-05-29T09:07:46.000Z</time></trkpt><trkpt lon="5.775249" lat="51.00243"><ele>49.4</ele><time>2022-05-29T09:07:47.000Z</time></trkpt><trkpt lon="5.77529" lat="51.00249"><ele>49.4</ele><time>2022-05-29T09:07:48.000Z</time></trkpt><trkpt lon="5.775336" lat="51.002547"><ele>49.6</ele><time>2022-05-29T09:07:49.000Z</time></trkpt><trkpt lon="5.775383" lat="51.002606"><ele>49.6</ele><time>2022-05-29T09:07:50.000Z</time></trkpt><trkpt lon="5.775431" lat="51.002666"><ele>49.8</ele><time>2022-05-29T09:07:51.000Z</time></trkpt><trkpt lon="5.775482" lat="51.002724"><ele>49.8</ele><time>2022-05-29T09:07:52.000Z</time></trkpt><trkpt lon="5.775533" lat="51.002783"><ele>50</ele><time>2022-05-29T09:07:53.000Z</time></trkpt><trkpt lon="5.775589" lat="51.002841"><ele>50</ele><time>2022-05-29T09:07:54.000Z</time></trkpt><trkpt lon="5.775648" lat="51.002898"><ele>50</ele><time>2022-05-29T09:07:55.000Z</time></trkpt><trkpt lon="5.775706" lat="51.002951"><ele>50</ele><time>2022-05-29T09:07:56.000Z</time></trkpt><trkpt lon="5.775768" lat="51.003004"><ele>50.2</ele><time>2022-05-29T09:07:57.000Z</time></trkpt><trkpt lon="5.775828" lat="51.003057"><ele>50</ele><time>2022-05-29T09:07:58.000Z</time></trkpt><trkpt lon="5.77589" lat="51.003107"><ele>50.2</ele><time>2022-05-29T09:07:59.000Z</time></trkpt><trkpt lon="5.775951" lat="51.003156"><ele>50.2</ele><time>2022-05-29T09:08:00.000Z</time></trkpt><trkpt lon="5.77601" lat="51.003205"><ele>50.2</ele><time>2022-05-29T09:08:01.000Z</time></trkpt><trkpt lon="5.77607" lat="51.003252"><ele>50.4</ele><time>2022-05-29T09:08:02.000Z</time></trkpt><trkpt lon="5.776129" lat="51.003301"><ele>50.6</ele><time>2022-05-29T09:08:03.000Z</time></trkpt><trkpt lon="5.77619" lat="51.003346"><ele>50.6</ele><time>2022-05-29T09:08:04.000Z</time></trkpt><trkpt lon="5.776247" lat="51.003388"><ele>50.8</ele><time>2022-05-29T09:08:05.000Z</time></trkpt><trkpt lon="5.776303" lat="51.003433"><ele>51</ele><time>2022-05-29T09:08:06.000Z</time></trkpt><trkpt lon="5.776356" lat="51.003471"><ele>51.2</ele><time>2022-05-29T09:08:07.000Z</time></trkpt><trkpt lon="5.776402" lat="51.003507"><ele>51.2</ele><time>2022-05-29T09:08:08.000Z</time></trkpt><trkpt lon="5.776438" lat="51.003533"><ele>51.4</ele><time>2022-05-29T09:08:09.000Z</time></trkpt><trkpt lon="5.776463" lat="51.003554"><ele>51.6</ele><time>2022-05-29T09:08:10.000Z</time></trkpt><trkpt lon="5.776475" lat="51.003568"><ele>51.6</ele><time>2022-05-29T09:08:11.000Z</time></trkpt><trkpt lon="5.776484" lat="51.003576"><ele>51.8</ele><time>2022-05-29T09:08:12.000Z</time></trkpt><trkpt lon="5.7765" lat="51.003584"><ele>51.8</ele><time>2022-05-29T09:08:13.000Z</time></trkpt><trkpt lon="5.776525" lat="51.003596"><ele>52</ele><time>2022-05-29T09:08:14.000Z</time></trkpt><trkpt lon="5.776561" lat="51.003612"><ele>52</ele><time>2022-05-29T09:08:15.000Z</time></trkpt><trkpt lon="5.776605" lat="51.003628"><ele>52</ele><time>2022-05-29T09:08:16.000Z</time></trkpt><trkpt lon="5.776656" lat="51.003652"><ele>52.2</ele><time>2022-05-29T09:08:17.000Z</time></trkpt><trkpt lon="5.776707" lat="51.00368"><ele>52.2</ele><time>2022-05-29T09:08:18.000Z</time></trkpt><trkpt lon="5.776763" lat="51.003719"><ele>52.2</ele><time>2022-05-29T09:08:19.000Z</time></trkpt><trkpt lon="5.776827" lat="51.003757"><ele>52.4</ele><time>2022-05-29T09:08:20.000Z</time></trkpt><trkpt lon="5.776895" lat="51.003801"><ele>52.6</ele><time>2022-05-29T09:08:21.000Z</time></trkpt><trkpt lon="5.776962" lat="51.003846"><ele>52.6</ele><time>2022-05-29T09:08:22.000Z</time></trkpt><trkpt lon="5.777031" lat="51.003891"><ele>52.8</ele><time>2022-05-29T09:08:23.000Z</time></trkpt><trkpt lon="5.777099" lat="51.003933"><ele>52.8</ele><time>2022-05-29T09:08:24.000Z</time></trkpt><trkpt lon="5.777167" lat="51.003984"><ele>52.8</ele><time>2022-05-29T09:08:25.000Z</time></trkpt><trkpt lon="5.777229" lat="51.004034"><ele>52.8</ele><time>2022-05-29T09:08:26.000Z</time></trkpt><trkpt lon="5.777287" lat="51.004087"><ele>53</ele><time>2022-05-29T09:08:27.000Z</time></trkpt><trkpt lon="5.777341" lat="51.004138"><ele>53</ele><time>2022-05-29T09:08:28.000Z</time></trkpt><trkpt lon="5.77739" lat="51.004191"><ele>53.2</ele><time>2022-05-29T09:08:29.000Z</time></trkpt><trkpt lon="5.777436" lat="51.004245"><ele>53.2</ele><time>2022-05-29T09:08:30.000Z</time></trkpt><trkpt lon="5.777475" lat="51.004304"><ele>53.4</ele><time>2022-05-29T09:08:31.000Z</time></trkpt><trkpt lon="5.777513" lat="51.004368"><ele>53.4</ele><time>2022-05-29T09:08:32.000Z</time></trkpt><trkpt lon="5.777544" lat="51.00443"><ele>53.6</ele><time>2022-05-29T09:08:33.000Z</time></trkpt><trkpt lon="5.777571" lat="51.004494"><ele>53.8</ele><time>2022-05-29T09:08:34.000Z</time></trkpt><trkpt lon="5.777596" lat="51.004559"><ele>53.8</ele><time>2022-05-29T09:08:35.000Z</time></trkpt><trkpt lon="5.777616" lat="51.004623"><ele>53.8</ele><time>2022-05-29T09:08:36.000Z</time></trkpt><trkpt lon="5.777638" lat="51.004688"><ele>53.8</ele><time>2022-05-29T09:08:37.000Z</time></trkpt><trkpt lon="5.777667" lat="51.004751"><ele>53.8</ele><time>2022-05-29T09:08:38.000Z</time></trkpt><trkpt lon="5.777706" lat="51.004823"><ele>53.8</ele><time>2022-05-29T09:08:39.000Z</time></trkpt><trkpt lon="5.777748" lat="51.004887"><ele>53.8</ele><time>2022-05-29T09:08:40.000Z</time></trkpt><trkpt lon="5.777793" lat="51.004952"><ele>53.6</ele><time>2022-05-29T09:08:41.000Z</time></trkpt><trkpt lon="5.77784" lat="51.005016"><ele>53.6</ele><time>2022-05-29T09:08:42.000Z</time></trkpt><trkpt lon="5.777891" lat="51.005081"><ele>53.6</ele><time>2022-05-29T09:08:43.000Z</time></trkpt><trkpt lon="5.77794" lat="51.005147"><ele>53.4</ele><time>2022-05-29T09:08:44.000Z</time></trkpt><trkpt lon="5.777992" lat="51.005216"><ele>53.2</ele><time>2022-05-29T09:08:45.000Z</time></trkpt><trkpt lon="5.778043" lat="51.005281"><ele>53</ele><time>2022-05-29T09:08:46.000Z</time></trkpt><trkpt lon="5.778097" lat="51.00535"><ele>53</ele><time>2022-05-29T09:08:47.000Z</time></trkpt><trkpt lon="5.778151" lat="51.005416"><ele>53</ele><time>2022-05-29T09:08:48.000Z</time></trkpt><trkpt lon="5.778209" lat="51.005478"><ele>52.8</ele><time>2022-05-29T09:08:49.000Z</time></trkpt><trkpt lon="5.778268" lat="51.005541"><ele>52.6</ele><time>2022-05-29T09:08:50.000Z</time></trkpt><trkpt lon="5.778333" lat="51.005608"><ele>52.6</ele><time>2022-05-29T09:08:51.000Z</time></trkpt><trkpt lon="5.778394" lat="51.005671"><ele>52.4</ele><time>2022-05-29T09:08:52.000Z</time></trkpt><trkpt lon="5.77846" lat="51.005733"><ele>52.4</ele><time>2022-05-29T09:08:53.000Z</time></trkpt><trkpt lon="5.778523" lat="51.005795"><ele>52.2</ele><time>2022-05-29T09:08:54.000Z</time></trkpt><trkpt lon="5.77859" lat="51.005859"><ele>52.2</ele><time>2022-05-29T09:08:55.000Z</time></trkpt><trkpt lon="5.778653" lat="51.005919"><ele>52</ele><time>2022-05-29T09:08:56.000Z</time></trkpt><trkpt lon="5.778721" lat="51.005982"><ele>51.8</ele><time>2022-05-29T09:08:57.000Z</time></trkpt><trkpt lon="5.778785" lat="51.006044"><ele>51.8</ele><time>2022-05-29T09:08:58.000Z</time></trkpt><trkpt lon="5.778856" lat="51.006112"><ele>51.6</ele><time>2022-05-29T09:08:59.000Z</time></trkpt><trkpt lon="5.778921" lat="51.006176"><ele>51.4</ele><time>2022-05-29T09:09:00.000Z</time></trkpt><trkpt lon="5.778989" lat="51.006241"><ele>51.2</ele><time>2022-05-29T09:09:01.000Z</time></trkpt><trkpt lon="5.779053" lat="51.006301"><ele>51.2</ele><time>2022-05-29T09:09:02.000Z</time></trkpt><trkpt lon="5.779119" lat="51.006363"><ele>51.2</ele><time>2022-05-29T09:09:03.000Z</time></trkpt><trkpt lon="5.779182" lat="51.006426"><ele>51</ele><time>2022-05-29T09:09:04.000Z</time></trkpt><trkpt lon="5.77925" lat="51.006488"><ele>51</ele><time>2022-05-29T09:09:05.000Z</time></trkpt><trkpt lon="5.77932" lat="51.006549"><ele>50.8</ele><time>2022-05-29T09:09:06.000Z</time></trkpt><trkpt lon="5.779392" lat="51.006606"><ele>50.8</ele><time>2022-05-29T09:09:07.000Z</time></trkpt><trkpt lon="5.779464" lat="51.006662"><ele>50.8</ele><time>2022-05-29T09:09:08.000Z</time></trkpt><trkpt lon="5.779541" lat="51.006719"><ele>50.8</ele><time>2022-05-29T09:09:09.000Z</time></trkpt><trkpt lon="5.77962" lat="51.006767"><ele>50.6</ele><time>2022-05-29T09:09:10.000Z</time></trkpt><trkpt lon="5.779708" lat="51.006808"><ele>50.4</ele><time>2022-05-29T09:09:11.000Z</time></trkpt><trkpt lon="5.7798" lat="51.006843"><ele>50.4</ele><time>2022-05-29T09:09:12.000Z</time></trkpt><trkpt lon="5.779897" lat="51.006866"><ele>50.2</ele><time>2022-05-29T09:09:13.000Z</time></trkpt><trkpt lon="5.779986" lat="51.006883"><ele>50.2</ele><time>2022-05-29T09:09:14.000Z</time></trkpt><trkpt lon="5.780069" lat="51.006888"><ele>50.2</ele><time>2022-05-29T09:09:15.000Z</time></trkpt><trkpt lon="5.780142" lat="51.006877"><ele>50.2</ele><time>2022-05-29T09:09:16.000Z</time></trkpt><trkpt lon="5.780205" lat="51.006843"><ele>50</ele><time>2022-05-29T09:09:17.000Z</time></trkpt><trkpt lon="5.780251" lat="51.006797"><ele>50</ele><time>2022-05-29T09:09:18.000Z</time></trkpt><trkpt lon="5.780301" lat="51.006741"><ele>50</ele><time>2022-05-29T09:09:19.000Z</time></trkpt><trkpt lon="5.780352" lat="51.006681"><ele>50</ele><time>2022-05-29T09:09:20.000Z</time></trkpt><trkpt lon="5.780406" lat="51.006618"><ele>50</ele><time>2022-05-29T09:09:21.000Z</time></trkpt><trkpt lon="5.780459" lat="51.006556"><ele>50</ele><time>2022-05-29T09:09:22.000Z</time></trkpt><trkpt lon="5.780515" lat="51.006493"><ele>50</ele><time>2022-05-29T09:09:23.000Z</time></trkpt><trkpt lon="5.78057" lat="51.006434"><ele>50</ele><time>2022-05-29T09:09:24.000Z</time></trkpt><trkpt lon="5.780637" lat="51.006378"><ele>50</ele><time>2022-05-29T09:09:25.000Z</time></trkpt><trkpt lon="5.780711" lat="51.006334"><ele>50</ele><time>2022-05-29T09:09:26.000Z</time></trkpt><trkpt lon="5.780801" lat="51.006297"><ele>50</ele><time>2022-05-29T09:09:27.000Z</time></trkpt><trkpt lon="5.780898" lat="51.006272"><ele>50</ele><time>2022-05-29T09:09:28.000Z</time></trkpt><trkpt lon="5.781008" lat="51.006254"><ele>50</ele><time>2022-05-29T09:09:29.000Z</time></trkpt><trkpt lon="5.78112" lat="51.006243"><ele>50</ele><time>2022-05-29T09:09:30.000Z</time></trkpt><trkpt lon="5.781236" lat="51.00623"><ele>50.2</ele><time>2022-05-29T09:09:31.000Z</time></trkpt><trkpt lon="5.781347" lat="51.006216"><ele>50.2</ele><time>2022-05-29T09:09:32.000Z</time></trkpt><trkpt lon="5.781465" lat="51.006205"><ele>50.4</ele><time>2022-05-29T09:09:33.000Z</time></trkpt><trkpt lon="5.781579" lat="51.006193"><ele>50.6</ele><time>2022-05-29T09:09:34.000Z</time></trkpt><trkpt lon="5.781691" lat="51.006181"><ele>50.6</ele><time>2022-05-29T09:09:35.000Z</time></trkpt><trkpt lon="5.7818" lat="51.006166"><ele>50.6</ele><time>2022-05-29T09:09:36.000Z</time></trkpt><trkpt lon="5.781912" lat="51.006155"><ele>50.8</ele><time>2022-05-29T09:09:37.000Z</time></trkpt><trkpt lon="5.78202" lat="51.006144"><ele>50.8</ele><time>2022-05-29T09:09:38.000Z</time></trkpt><trkpt lon="5.782134" lat="51.006131"><ele>51</ele><time>2022-05-29T09:09:39.000Z</time></trkpt><trkpt lon="5.782243" lat="51.006118"><ele>51</ele><time>2022-05-29T09:09:40.000Z</time></trkpt><trkpt lon="5.782357" lat="51.006109"><ele>51</ele><time>2022-05-29T09:09:41.000Z</time></trkpt><trkpt lon="5.782467" lat="51.006098"><ele>51</ele><time>2022-05-29T09:09:42.000Z</time></trkpt><trkpt lon="5.782582" lat="51.006086"><ele>51.2</ele><time>2022-05-29T09:09:43.000Z</time></trkpt><trkpt lon="5.782693" lat="51.006071"><ele>51.4</ele><time>2022-05-29T09:09:44.000Z</time></trkpt><trkpt lon="5.782805" lat="51.00606"><ele>51.4</ele><time>2022-05-29T09:09:45.000Z</time></trkpt><trkpt lon="5.78291" lat="51.006049"><ele>51.6</ele><time>2022-05-29T09:09:46.000Z</time></trkpt><trkpt lon="5.783031" lat="51.006033"><ele>51.8</ele><time>2022-05-29T09:09:47.000Z</time></trkpt><trkpt lon="5.783139" lat="51.006022"><ele>52</ele><time>2022-05-29T09:09:48.000Z</time></trkpt><trkpt lon="5.783253" lat="51.00601"><ele>52.2</ele><time>2022-05-29T09:09:49.000Z</time></trkpt><trkpt lon="5.78336" lat="51.005999"><ele>52.4</ele><time>2022-05-29T09:09:50.000Z</time></trkpt><trkpt lon="5.783471" lat="51.005987"><ele>52.6</ele><time>2022-05-29T09:09:51.000Z</time></trkpt><trkpt lon="5.783581" lat="51.005972"><ele>52.8</ele><time>2022-05-29T09:09:52.000Z</time></trkpt><trkpt lon="5.783695" lat="51.00596"><ele>53</ele><time>2022-05-29T09:09:53.000Z</time></trkpt><trkpt lon="5.783804" lat="51.005949"><ele>53.2</ele><time>2022-05-29T09:09:54.000Z</time></trkpt><trkpt lon="5.783919" lat="51.005934"><ele>53.4</ele><time>2022-05-29T09:09:55.000Z</time></trkpt><trkpt lon="5.784029" lat="51.005923"><ele>53.4</ele><time>2022-05-29T09:09:56.000Z</time></trkpt><trkpt lon="5.784148" lat="51.005911"><ele>53.4</ele><time>2022-05-29T09:09:57.000Z</time></trkpt><trkpt lon="5.784258" lat="51.0059"><ele>53.6</ele><time>2022-05-29T09:09:58.000Z</time></trkpt><trkpt lon="5.784374" lat="51.005888"><ele>53.6</ele><time>2022-05-29T09:09:59.000Z</time></trkpt><trkpt lon="5.78448" lat="51.005877"><ele>53.6</ele><time>2022-05-29T09:10:00.000Z</time></trkpt><trkpt lon="5.784599" lat="51.005861"><ele>53.4</ele><time>2022-05-29T09:10:01.000Z</time></trkpt><trkpt lon="5.784707" lat="51.00585"><ele>53.4</ele><time>2022-05-29T09:10:02.000Z</time></trkpt><trkpt lon="5.784822" lat="51.005838"><ele>53.4</ele><time>2022-05-29T09:10:03.000Z</time></trkpt><trkpt lon="5.78493" lat="51.005827"><ele>53.4</ele><time>2022-05-29T09:10:04.000Z</time></trkpt><trkpt lon="5.785047" lat="51.005815"><ele>53.2</ele><time>2022-05-29T09:10:05.000Z</time></trkpt><trkpt lon="5.785158" lat="51.0058"><ele>53.2</ele><time>2022-05-29T09:10:06.000Z</time></trkpt><trkpt lon="5.785273" lat="51.005789"><ele>53.2</ele><time>2022-05-29T09:10:07.000Z</time></trkpt><trkpt lon="5.785382" lat="51.005778"><ele>53.2</ele><time>2022-05-29T09:10:08.000Z</time></trkpt><trkpt lon="5.785502" lat="51.005765"><ele>53.2</ele><time>2022-05-29T09:10:09.000Z</time></trkpt><trkpt lon="5.785614" lat="51.005751"><ele>53.2</ele><time>2022-05-29T09:10:10.000Z</time></trkpt><trkpt lon="5.785732" lat="51.005738"><ele>53</ele><time>2022-05-29T09:10:11.000Z</time></trkpt><trkpt lon="5.785847" lat="51.005721"><ele>53</ele><time>2022-05-29T09:10:12.000Z</time></trkpt><trkpt lon="5.785961" lat="51.005704"><ele>53</ele><time>2022-05-29T09:10:13.000Z</time></trkpt><trkpt lon="5.786073" lat="51.005687"><ele>53</ele><time>2022-05-29T09:10:14.000Z</time></trkpt><trkpt lon="5.786183" lat="51.005664"><ele>53</ele><time>2022-05-29T09:10:15.000Z</time></trkpt><trkpt lon="5.786291" lat="51.005641"><ele>53</ele><time>2022-05-29T09:10:16.000Z</time></trkpt><trkpt lon="5.786398" lat="51.005618"><ele>53</ele><time>2022-05-29T09:10:17.000Z</time></trkpt><trkpt lon="5.786505" lat="51.005592"><ele>53</ele><time>2022-05-29T09:10:18.000Z</time></trkpt><trkpt lon="5.786613" lat="51.005567"><ele>53</ele><time>2022-05-29T09:10:19.000Z</time></trkpt><trkpt lon="5.786721" lat="51.005543"><ele>53</ele><time>2022-05-29T09:10:20.000Z</time></trkpt><trkpt lon="5.786831" lat="51.005519"><ele>53</ele><time>2022-05-29T09:10:21.000Z</time></trkpt><trkpt lon="5.786941" lat="51.005496"><ele>53</ele><time>2022-05-29T09:10:22.000Z</time></trkpt><trkpt lon="5.787055" lat="51.00547"><ele>53</ele><time>2022-05-29T09:10:23.000Z</time></trkpt><trkpt lon="5.787168" lat="51.005447"><ele>53</ele><time>2022-05-29T09:10:24.000Z</time></trkpt><trkpt lon="5.787282" lat="51.005424"><ele>53</ele><time>2022-05-29T09:10:25.000Z</time></trkpt><trkpt lon="5.787396" lat="51.005399"><ele>53</ele><time>2022-05-29T09:10:26.000Z</time></trkpt><trkpt lon="5.787509" lat="51.005374"><ele>53</ele><time>2022-05-29T09:10:27.000Z</time></trkpt><trkpt lon="5.787623" lat="51.005348"><ele>53</ele><time>2022-05-29T09:10:28.000Z</time></trkpt><trkpt lon="5.787735" lat="51.005325"><ele>52.8</ele><time>2022-05-29T09:10:29.000Z</time></trkpt><trkpt lon="5.787847" lat="51.005302"><ele>52.8</ele><time>2022-05-29T09:10:30.000Z</time></trkpt><trkpt lon="5.787958" lat="51.005279"><ele>52.6</ele><time>2022-05-29T09:10:31.000Z</time></trkpt><trkpt lon="5.788071" lat="51.005256"><ele>52.6</ele><time>2022-05-29T09:10:32.000Z</time></trkpt><trkpt lon="5.788182" lat="51.005233"><ele>52.6</ele><time>2022-05-29T09:10:33.000Z</time></trkpt><trkpt lon="5.788292" lat="51.005211"><ele>52.6</ele><time>2022-05-29T09:10:34.000Z</time></trkpt><trkpt lon="5.788404" lat="51.005188"><ele>52.6</ele><time>2022-05-29T09:10:35.000Z</time></trkpt><trkpt lon="5.788515" lat="51.005165"><ele>52.4</ele><time>2022-05-29T09:10:36.000Z</time></trkpt><trkpt lon="5.788626" lat="51.005146"><ele>52.6</ele><time>2022-05-29T09:10:37.000Z</time></trkpt><trkpt lon="5.788736" lat="51.005123"><ele>52.6</ele><time>2022-05-29T09:10:38.000Z</time></trkpt><trkpt lon="5.78885" lat="51.0051"><ele>52.8</ele><time>2022-05-29T09:10:39.000Z</time></trkpt><trkpt lon="5.788963" lat="51.005077"><ele>52.8</ele><time>2022-05-29T09:10:40.000Z</time></trkpt><trkpt lon="5.789074" lat="51.005054"><ele>53</ele><time>2022-05-29T09:10:41.000Z</time></trkpt><trkpt lon="5.789186" lat="51.005031"><ele>53</ele><time>2022-05-29T09:10:42.000Z</time></trkpt><trkpt lon="5.789296" lat="51.005008"><ele>52.8</ele><time>2022-05-29T09:10:43.000Z</time></trkpt><trkpt lon="5.789408" lat="51.004982"><ele>52.8</ele><time>2022-05-29T09:10:44.000Z</time></trkpt><trkpt lon="5.789518" lat="51.004958"><ele>52.8</ele><time>2022-05-29T09:10:45.000Z</time></trkpt><trkpt lon="5.789628" lat="51.004935"><ele>52.8</ele><time>2022-05-29T09:10:46.000Z</time></trkpt><trkpt lon="5.789739" lat="51.004908"><ele>52.8</ele><time>2022-05-29T09:10:47.000Z</time></trkpt><trkpt lon="5.789849" lat="51.004882"><ele>52.8</ele><time>2022-05-29T09:10:48.000Z</time></trkpt><trkpt lon="5.789959" lat="51.004859"><ele>52.8</ele><time>2022-05-29T09:10:49.000Z</time></trkpt><trkpt lon="5.790065" lat="51.004836"><ele>52.8</ele><time>2022-05-29T09:10:50.000Z</time></trkpt><trkpt lon="5.790171" lat="51.004811"><ele>52.8</ele><time>2022-05-29T09:10:51.000Z</time></trkpt><trkpt lon="5.79028" lat="51.00479"><ele>52.8</ele><time>2022-05-29T09:10:52.000Z</time></trkpt><trkpt lon="5.790384" lat="51.004764"><ele>52.8</ele><time>2022-05-29T09:10:53.000Z</time></trkpt><trkpt lon="5.790481" lat="51.004743"><ele>52.6</ele><time>2022-05-29T09:10:54.000Z</time></trkpt><trkpt lon="5.790576" lat="51.004723"><ele>52.6</ele><time>2022-05-29T09:10:55.000Z</time></trkpt><trkpt lon="5.79066" lat="51.004704"><ele>52.6</ele><time>2022-05-29T09:10:56.000Z</time></trkpt><trkpt lon="5.790736" lat="51.004685"><ele>52.6</ele><time>2022-05-29T09:10:57.000Z</time></trkpt><trkpt lon="5.790803" lat="51.004667"><ele>52.6</ele><time>2022-05-29T09:10:58.000Z</time></trkpt><trkpt lon="5.790865" lat="51.004658"><ele>52.6</ele><time>2022-05-29T09:10:59.000Z</time></trkpt><trkpt lon="5.790922" lat="51.004664"><ele>52.6</ele><time>2022-05-29T09:11:00.000Z</time></trkpt><trkpt lon="5.790973" lat="51.004682"><ele>52.6</ele><time>2022-05-29T09:11:01.000Z</time></trkpt><trkpt lon="5.79101" lat="51.004712"><ele>52.4</ele><time>2022-05-29T09:11:02.000Z</time></trkpt><trkpt lon="5.791035" lat="51.004759"><ele>52.4</ele><time>2022-05-29T09:11:03.000Z</time></trkpt><trkpt lon="5.791048" lat="51.004811"><ele>52.2</ele><time>2022-05-29T09:11:04.000Z</time></trkpt><trkpt lon="5.791054" lat="51.004874"><ele>52</ele><time>2022-05-29T09:11:05.000Z</time></trkpt><trkpt lon="5.791059" lat="51.004943"><ele>51.8</ele><time>2022-05-29T09:11:06.000Z</time></trkpt><trkpt lon="5.791065" lat="51.005015"><ele>51.8</ele><time>2022-05-29T09:11:07.000Z</time></trkpt><trkpt lon="5.791073" lat="51.005088"><ele>51.8</ele><time>2022-05-29T09:11:08.000Z</time></trkpt><trkpt lon="5.791082" lat="51.005164"><ele>51.8</ele><time>2022-05-29T09:11:09.000Z</time></trkpt><trkpt lon="5.79109" lat="51.005241"><ele>51.8</ele><time>2022-05-29T09:11:10.000Z</time></trkpt><trkpt lon="5.7911" lat="51.005316"><ele>51.8</ele><time>2022-05-29T09:11:11.000Z</time></trkpt><trkpt lon="5.791109" lat="51.005389"><ele>51.8</ele><time>2022-05-29T09:11:12.000Z</time></trkpt><trkpt lon="5.791119" lat="51.005468"><ele>51.8</ele><time>2022-05-29T09:11:13.000Z</time></trkpt><trkpt lon="5.791128" lat="51.005542"><ele>51.8</ele><time>2022-05-29T09:11:14.000Z</time></trkpt><trkpt lon="5.791135" lat="51.005617"><ele>51.8</ele><time>2022-05-29T09:11:15.000Z</time></trkpt><trkpt lon="5.791141" lat="51.005689"><ele>51.8</ele><time>2022-05-29T09:11:16.000Z</time></trkpt><trkpt lon="5.791148" lat="51.005767"><ele>51.6</ele><time>2022-05-29T09:11:17.000Z</time></trkpt><trkpt lon="5.791153" lat="51.00584"><ele>51.8</ele><time>2022-05-29T09:11:18.000Z</time></trkpt><trkpt lon="5.791157" lat="51.005914"><ele>51.8</ele><time>2022-05-29T09:11:19.000Z</time></trkpt><trkpt lon="5.791161" lat="51.005984"><ele>51.8</ele><time>2022-05-29T09:11:20.000Z</time></trkpt><trkpt lon="5.791168" lat="51.00606"><ele>52</ele><time>2022-05-29T09:11:21.000Z</time></trkpt><trkpt lon="5.791175" lat="51.006133"><ele>52</ele><time>2022-05-29T09:11:22.000Z</time></trkpt><trkpt lon="5.791181" lat="51.00621"><ele>52</ele><time>2022-05-29T09:11:23.000Z</time></trkpt><trkpt lon="5.791186" lat="51.006289"><ele>52</ele><time>2022-05-29T09:11:24.000Z</time></trkpt><trkpt lon="5.791191" lat="51.006366"><ele>52.2</ele><time>2022-05-29T09:11:25.000Z</time></trkpt><trkpt lon="5.791196" lat="51.006442"><ele>52.2</ele><time>2022-05-29T09:11:26.000Z</time></trkpt><trkpt lon="5.791203" lat="51.006519"><ele>52.2</ele><time>2022-05-29T09:11:27.000Z</time></trkpt><trkpt lon="5.791209" lat="51.006594"><ele>52.2</ele><time>2022-05-29T09:11:28.000Z</time></trkpt><trkpt lon="5.791216" lat="51.006672"><ele>52.2</ele><time>2022-05-29T09:11:29.000Z</time></trkpt><trkpt lon="5.791223" lat="51.006752"><ele>52.4</ele><time>2022-05-29T09:11:30.000Z</time></trkpt><trkpt lon="5.79123" lat="51.006831"><ele>52.2</ele><time>2022-05-29T09:11:31.000Z</time></trkpt><trkpt lon="5.791236" lat="51.006908"><ele>52.2</ele><time>2022-05-29T09:11:32.000Z</time></trkpt><trkpt lon="5.791241" lat="51.006984"><ele>52.4</ele><time>2022-05-29T09:11:33.000Z</time></trkpt><trkpt lon="5.791247" lat="51.007064"><ele>52.6</ele><time>2022-05-29T09:11:34.000Z</time></trkpt><trkpt lon="5.791249" lat="51.007145"><ele>52.6</ele><time>2022-05-29T09:11:35.000Z</time></trkpt><trkpt lon="5.791253" lat="51.007225"><ele>52.4</ele><time>2022-05-29T09:11:36.000Z</time></trkpt><trkpt lon="5.79126" lat="51.007305"><ele>52.4</ele><time>2022-05-29T09:11:37.000Z</time></trkpt><trkpt lon="5.791266" lat="51.007385"><ele>52.2</ele><time>2022-05-29T09:11:38.000Z</time></trkpt><trkpt lon="5.791273" lat="51.007465"><ele>52</ele><time>2022-05-29T09:11:39.000Z</time></trkpt><trkpt lon="5.791277" lat="51.007546"><ele>51.8</ele><time>2022-05-29T09:11:40.000Z</time></trkpt><trkpt lon="5.791283" lat="51.00763"><ele>51.6</ele><time>2022-05-29T09:11:41.000Z</time></trkpt><trkpt lon="5.791291" lat="51.007712"><ele>51.4</ele><time>2022-05-29T09:11:42.000Z</time></trkpt><trkpt lon="5.7913" lat="51.007795"><ele>51.2</ele><time>2022-05-29T09:11:43.000Z</time></trkpt><trkpt lon="5.791307" lat="51.007882"><ele>50.8</ele><time>2022-05-29T09:11:44.000Z</time></trkpt><trkpt lon="5.791314" lat="51.00797"><ele>50.4</ele><time>2022-05-29T09:11:45.000Z</time></trkpt><trkpt lon="5.79132" lat="51.008058"><ele>50.2</ele><time>2022-05-29T09:11:46.000Z</time></trkpt><trkpt lon="5.791327" lat="51.008145"><ele>50</ele><time>2022-05-29T09:11:47.000Z</time></trkpt><trkpt lon="5.791335" lat="51.008232"><ele>49.6</ele><time>2022-05-29T09:11:48.000Z</time></trkpt><trkpt lon="5.791343" lat="51.008318"><ele>49.4</ele><time>2022-05-29T09:11:49.000Z</time></trkpt><trkpt lon="5.791351" lat="51.008404"><ele>49.2</ele><time>2022-05-29T09:11:50.000Z</time></trkpt><trkpt lon="5.791358" lat="51.008488"><ele>49</ele><time>2022-05-29T09:11:51.000Z</time></trkpt><trkpt lon="5.791366" lat="51.008575"><ele>48.6</ele><time>2022-05-29T09:11:52.000Z</time></trkpt><trkpt lon="5.791371" lat="51.008656"><ele>48.4</ele><time>2022-05-29T09:11:53.000Z</time></trkpt><trkpt lon="5.791378" lat="51.008739"><ele>48.4</ele><time>2022-05-29T09:11:54.000Z</time></trkpt><trkpt lon="5.791384" lat="51.008822"><ele>48.2</ele><time>2022-05-29T09:11:55.000Z</time></trkpt><trkpt lon="5.791391" lat="51.008903"><ele>48.2</ele><time>2022-05-29T09:11:56.000Z</time></trkpt><trkpt lon="5.791398" lat="51.008983"><ele>48</ele><time>2022-05-29T09:11:57.000Z</time></trkpt><trkpt lon="5.791403" lat="51.009063"><ele>48</ele><time>2022-05-29T09:11:58.000Z</time></trkpt><trkpt lon="5.791408" lat="51.009143"><ele>47.8</ele><time>2022-05-29T09:11:59.000Z</time></trkpt><trkpt lon="5.791416" lat="51.009219"><ele>47.8</ele><time>2022-05-29T09:12:00.000Z</time></trkpt><trkpt lon="5.791423" lat="51.009299"><ele>47.8</ele><time>2022-05-29T09:12:01.000Z</time></trkpt><trkpt lon="5.791431" lat="51.00938"><ele>47.6</ele><time>2022-05-29T09:12:02.000Z</time></trkpt><trkpt lon="5.791439" lat="51.00946"><ele>47.6</ele><time>2022-05-29T09:12:03.000Z</time></trkpt><trkpt lon="5.791444" lat="51.009541"><ele>47.6</ele><time>2022-05-29T09:12:04.000Z</time></trkpt><trkpt lon="5.791449" lat="51.009621"><ele>47.6</ele><time>2022-05-29T09:12:05.000Z</time></trkpt><trkpt lon="5.791456" lat="51.009701"><ele>47.6</ele><time>2022-05-29T09:12:06.000Z</time></trkpt><trkpt lon="5.791463" lat="51.009782"><ele>47.4</ele><time>2022-05-29T09:12:07.000Z</time></trkpt><trkpt lon="5.791469" lat="51.009865"><ele>47.6</ele><time>2022-05-29T09:12:08.000Z</time></trkpt><trkpt lon="5.791476" lat="51.009944"><ele>47.4</ele><time>2022-05-29T09:12:09.000Z</time></trkpt><trkpt lon="5.791483" lat="51.010029"><ele>47.4</ele><time>2022-05-29T09:12:10.000Z</time></trkpt><trkpt lon="5.791489" lat="51.01011"><ele>47.4</ele><time>2022-05-29T09:12:11.000Z</time></trkpt><trkpt lon="5.791496" lat="51.010192"><ele>47.4</ele><time>2022-05-29T09:12:12.000Z</time></trkpt><trkpt lon="5.791501" lat="51.010273"><ele>47.2</ele><time>2022-05-29T09:12:13.000Z</time></trkpt><trkpt lon="5.791506" lat="51.010353"><ele>47.2</ele><time>2022-05-29T09:12:14.000Z</time></trkpt><trkpt lon="5.791513" lat="51.010438"><ele>47.2</ele><time>2022-05-29T09:12:15.000Z</time></trkpt><trkpt lon="5.791519" lat="51.010522"><ele>47.4</ele><time>2022-05-29T09:12:16.000Z</time></trkpt><trkpt lon="5.791526" lat="51.010606"><ele>47.4</ele><time>2022-05-29T09:12:17.000Z</time></trkpt><trkpt lon="5.791533" lat="51.010689"><ele>47.4</ele><time>2022-05-29T09:12:18.000Z</time></trkpt><trkpt lon="5.791538" lat="51.010768"><ele>47.4</ele><time>2022-05-29T09:12:19.000Z</time></trkpt><trkpt lon="5.791543" lat="51.010848"><ele>47.4</ele><time>2022-05-29T09:12:20.000Z</time></trkpt><trkpt lon="5.79155" lat="51.010929"><ele>47.4</ele><time>2022-05-29T09:12:21.000Z</time></trkpt><trkpt lon="5.791556" lat="51.011008"><ele>47.2</ele><time>2022-05-29T09:12:22.000Z</time></trkpt><trkpt lon="5.791563" lat="51.011084"><ele>47.2</ele><time>2022-05-29T09:12:23.000Z</time></trkpt><trkpt lon="5.791568" lat="51.011161"><ele>47.2</ele><time>2022-05-29T09:12:24.000Z</time></trkpt><trkpt lon="5.791575" lat="51.011241"><ele>47.2</ele><time>2022-05-29T09:12:25.000Z</time></trkpt><trkpt lon="5.791581" lat="51.011317"><ele>47.2</ele><time>2022-05-29T09:12:26.000Z</time></trkpt><trkpt lon="5.791586" lat="51.011396"><ele>47.2</ele><time>2022-05-29T09:12:27.000Z</time></trkpt><trkpt lon="5.791591" lat="51.011469"><ele>47</ele><time>2022-05-29T09:12:28.000Z</time></trkpt><trkpt lon="5.791598" lat="51.011542"><ele>47</ele><time>2022-05-29T09:12:29.000Z</time></trkpt><trkpt lon="5.791604" lat="51.011614"><ele>47</ele><time>2022-05-29T09:12:30.000Z</time></trkpt><trkpt lon="5.791609" lat="51.011689"><ele>47</ele><time>2022-05-29T09:12:31.000Z</time></trkpt><trkpt lon="5.791616" lat="51.011762"><ele>47</ele><time>2022-05-29T09:12:32.000Z</time></trkpt><trkpt lon="5.79162" lat="51.011835"><ele>47</ele><time>2022-05-29T09:12:33.000Z</time></trkpt><trkpt lon="5.791624" lat="51.011908"><ele>46.8</ele><time>2022-05-29T09:12:34.000Z</time></trkpt><trkpt lon="5.791629" lat="51.011981"><ele>46.8</ele><time>2022-05-29T09:12:35.000Z</time></trkpt><trkpt lon="5.791634" lat="51.012053"><ele>46.8</ele><time>2022-05-29T09:12:36.000Z</time></trkpt><trkpt lon="5.791639" lat="51.012125"><ele>46.8</ele><time>2022-05-29T09:12:37.000Z</time></trkpt><trkpt lon="5.791644" lat="51.012199"><ele>46.8</ele><time>2022-05-29T09:12:38.000Z</time></trkpt><trkpt lon="5.79165" lat="51.012276"><ele>46.6</ele><time>2022-05-29T09:12:39.000Z</time></trkpt><trkpt lon="5.791658" lat="51.012355"><ele>46.6</ele><time>2022-05-29T09:12:40.000Z</time></trkpt><trkpt lon="5.791668" lat="51.012432"><ele>46.6</ele><time>2022-05-29T09:12:41.000Z</time></trkpt><trkpt lon="5.791674" lat="51.012511"><ele>46.6</ele><time>2022-05-29T09:12:42.000Z</time></trkpt><trkpt lon="5.791681" lat="51.012591"><ele>46.8</ele><time>2022-05-29T09:12:43.000Z</time></trkpt><trkpt lon="5.791686" lat="51.012668"><ele>46.6</ele><time>2022-05-29T09:12:44.000Z</time></trkpt><trkpt lon="5.791693" lat="51.012748"><ele>46.6</ele><time>2022-05-29T09:12:45.000Z</time></trkpt><trkpt lon="5.7917" lat="51.012827"><ele>46.6</ele><time>2022-05-29T09:12:46.000Z</time></trkpt><trkpt lon="5.791706" lat="51.012904"><ele>46.6</ele><time>2022-05-29T09:12:47.000Z</time></trkpt><trkpt lon="5.791711" lat="51.012981"><ele>46.8</ele><time>2022-05-29T09:12:48.000Z</time></trkpt><trkpt lon="5.791716" lat="51.013061"><ele>46.8</ele><time>2022-05-29T09:12:49.000Z</time></trkpt><trkpt lon="5.791723" lat="51.013141"><ele>46.8</ele><time>2022-05-29T09:12:50.000Z</time></trkpt><trkpt lon="5.79173" lat="51.013221"><ele>46.8</ele><time>2022-05-29T09:12:51.000Z</time></trkpt><trkpt lon="5.791738" lat="51.013298"><ele>46.8</ele><time>2022-05-29T09:12:52.000Z</time></trkpt><trkpt lon="5.791745" lat="51.013377"><ele>46.8</ele><time>2022-05-29T09:12:53.000Z</time></trkpt><trkpt lon="5.791751" lat="51.013454"><ele>46.6</ele><time>2022-05-29T09:12:54.000Z</time></trkpt><trkpt lon="5.791755" lat="51.01353"><ele>46.6</ele><time>2022-05-29T09:12:55.000Z</time></trkpt><trkpt lon="5.791763" lat="51.013606"><ele>46.6</ele><time>2022-05-29T09:12:56.000Z</time></trkpt><trkpt lon="5.791769" lat="51.013682"><ele>46.6</ele><time>2022-05-29T09:12:57.000Z</time></trkpt><trkpt lon="5.791774" lat="51.013758"><ele>46.6</ele><time>2022-05-29T09:12:58.000Z</time></trkpt><trkpt lon="5.79178" lat="51.013831"><ele>46.6</ele><time>2022-05-29T09:12:59.000Z</time></trkpt><trkpt lon="5.791786" lat="51.013907"><ele>46.6</ele><time>2022-05-29T09:13:00.000Z</time></trkpt><trkpt lon="5.791792" lat="51.013984"><ele>46.6</ele><time>2022-05-29T09:13:01.000Z</time></trkpt><trkpt lon="5.791798" lat="51.01406"><ele>46.6</ele><time>2022-05-29T09:13:02.000Z</time></trkpt><trkpt lon="5.791803" lat="51.014137"><ele>46.6</ele><time>2022-05-29T09:13:03.000Z</time></trkpt><trkpt lon="5.791809" lat="51.014216"><ele>46.6</ele><time>2022-05-29T09:13:04.000Z</time></trkpt><trkpt lon="5.791816" lat="51.014292"><ele>46.6</ele><time>2022-05-29T09:13:05.000Z</time></trkpt><trkpt lon="5.791822" lat="51.014372"><ele>46.6</ele><time>2022-05-29T09:13:06.000Z</time></trkpt><trkpt lon="5.791828" lat="51.01445"><ele>46.6</ele><time>2022-05-29T09:13:07.000Z</time></trkpt><trkpt lon="5.791835" lat="51.014529"><ele>46.6</ele><time>2022-05-29T09:13:08.000Z</time></trkpt><trkpt lon="5.791841" lat="51.014606"><ele>46.6</ele><time>2022-05-29T09:13:09.000Z</time></trkpt><trkpt lon="5.791848" lat="51.014682"><ele>46.6</ele><time>2022-05-29T09:13:10.000Z</time></trkpt><trkpt lon="5.791854" lat="51.014758"><ele>46.6</ele><time>2022-05-29T09:13:11.000Z</time></trkpt><trkpt lon="5.791859" lat="51.014834"><ele>46.6</ele><time>2022-05-29T09:13:12.000Z</time></trkpt><trkpt lon="5.791866" lat="51.014914"><ele>46.6</ele><time>2022-05-29T09:13:13.000Z</time></trkpt><trkpt lon="5.791873" lat="51.014991"><ele>46.6</ele><time>2022-05-29T09:13:14.000Z</time></trkpt><trkpt lon="5.79188" lat="51.01507"><ele>46.6</ele><time>2022-05-29T09:13:15.000Z</time></trkpt><trkpt lon="5.791886" lat="51.015143"><ele>46.6</ele><time>2022-05-29T09:13:16.000Z</time></trkpt><trkpt lon="5.791893" lat="51.01522"><ele>46.6</ele><time>2022-05-29T09:13:17.000Z</time></trkpt><trkpt lon="5.791899" lat="51.015299"><ele>46.6</ele><time>2022-05-29T09:13:18.000Z</time></trkpt><trkpt lon="5.791906" lat="51.015376"><ele>46.6</ele><time>2022-05-29T09:13:19.000Z</time></trkpt><trkpt lon="5.791911" lat="51.015452"><ele>46.6</ele><time>2022-05-29T09:13:20.000Z</time></trkpt><trkpt lon="5.791918" lat="51.015532"><ele>46.6</ele><time>2022-05-29T09:13:21.000Z</time></trkpt><trkpt lon="5.791923" lat="51.015609"><ele>46.6</ele><time>2022-05-29T09:13:22.000Z</time></trkpt><trkpt lon="5.79193" lat="51.015686"><ele>46.6</ele><time>2022-05-29T09:13:23.000Z</time></trkpt><trkpt lon="5.791936" lat="51.015762"><ele>46.6</ele><time>2022-05-29T09:13:24.000Z</time></trkpt><trkpt lon="5.791943" lat="51.015839"><ele>46.4</ele><time>2022-05-29T09:13:25.000Z</time></trkpt><trkpt lon="5.79195" lat="51.015918"><ele>46.4</ele><time>2022-05-29T09:13:26.000Z</time></trkpt><trkpt lon="5.791956" lat="51.015994"><ele>46.4</ele><time>2022-05-29T09:13:27.000Z</time></trkpt><trkpt lon="5.791961" lat="51.016074"><ele>46.4</ele><time>2022-05-29T09:13:28.000Z</time></trkpt><trkpt lon="5.791968" lat="51.016151"><ele>46.4</ele><time>2022-05-29T09:13:29.000Z</time></trkpt><trkpt lon="5.791974" lat="51.016227"><ele>46.4</ele><time>2022-05-29T09:13:30.000Z</time></trkpt><trkpt lon="5.791981" lat="51.016304"><ele>46.2</ele><time>2022-05-29T09:13:31.000Z</time></trkpt><trkpt lon="5.791986" lat="51.016382"><ele>46.2</ele><time>2022-05-29T09:13:32.000Z</time></trkpt><trkpt lon="5.791993" lat="51.016456"><ele>46.2</ele><time>2022-05-29T09:13:33.000Z</time></trkpt><trkpt lon="5.792" lat="51.016536"><ele>46</ele><time>2022-05-29T09:13:34.000Z</time></trkpt><trkpt lon="5.792006" lat="51.016614"><ele>46</ele><time>2022-05-29T09:13:35.000Z</time></trkpt><trkpt lon="5.792013" lat="51.016693"><ele>46</ele><time>2022-05-29T09:13:36.000Z</time></trkpt><trkpt lon="5.79202" lat="51.016772"><ele>46</ele><time>2022-05-29T09:13:37.000Z</time></trkpt><trkpt lon="5.792026" lat="51.016849"><ele>46</ele><time>2022-05-29T09:13:38.000Z</time></trkpt><trkpt lon="5.792033" lat="51.016926"><ele>46</ele><time>2022-05-29T09:13:39.000Z</time></trkpt><trkpt lon="5.79204" lat="51.017006"><ele>46</ele><time>2022-05-29T09:13:40.000Z</time></trkpt><trkpt lon="5.792046" lat="51.017085"><ele>45.8</ele><time>2022-05-29T09:13:41.000Z</time></trkpt><trkpt lon="5.792051" lat="51.017162"><ele>45.8</ele><time>2022-05-29T09:13:42.000Z</time></trkpt><trkpt lon="5.792058" lat="51.017242"><ele>45.6</ele><time>2022-05-29T09:13:43.000Z</time></trkpt><trkpt lon="5.792065" lat="51.017323"><ele>45.6</ele><time>2022-05-29T09:13:44.000Z</time></trkpt><trkpt lon="5.792073" lat="51.017403"><ele>45.6</ele><time>2022-05-29T09:13:45.000Z</time></trkpt><trkpt lon="5.79208" lat="51.017482"><ele>45.6</ele><time>2022-05-29T09:13:46.000Z</time></trkpt><trkpt lon="5.792086" lat="51.017558"><ele>45.6</ele><time>2022-05-29T09:13:47.000Z</time></trkpt><trkpt lon="5.792092" lat="51.017635"><ele>45.4</ele><time>2022-05-29T09:13:48.000Z</time></trkpt><trkpt lon="5.792096" lat="51.017715"><ele>45.2</ele><time>2022-05-29T09:13:49.000Z</time></trkpt><trkpt lon="5.792101" lat="51.01779"><ele>45.2</ele><time>2022-05-29T09:13:50.000Z</time></trkpt><trkpt lon="5.792106" lat="51.017865"><ele>45.2</ele><time>2022-05-29T09:13:51.000Z</time></trkpt><trkpt lon="5.792111" lat="51.01794"><ele>45.2</ele><time>2022-05-29T09:13:52.000Z</time></trkpt><trkpt lon="5.792117" lat="51.018015"><ele>45.2</ele><time>2022-05-29T09:13:53.000Z</time></trkpt><trkpt lon="5.792125" lat="51.018088"><ele>45.4</ele><time>2022-05-29T09:13:54.000Z</time></trkpt><trkpt lon="5.792134" lat="51.018161"><ele>45.4</ele><time>2022-05-29T09:13:55.000Z</time></trkpt><trkpt lon="5.792138" lat="51.018236"><ele>45.2</ele><time>2022-05-29T09:13:56.000Z</time></trkpt><trkpt lon="5.792139" lat="51.018305"><ele>45.2</ele><time>2022-05-29T09:13:57.000Z</time></trkpt><trkpt lon="5.792142" lat="51.018375"><ele>45.2</ele><time>2022-05-29T09:13:58.000Z</time></trkpt><trkpt lon="5.792145" lat="51.018449"><ele>45</ele><time>2022-05-29T09:13:59.000Z</time></trkpt><trkpt lon="5.792148" lat="51.018518"><ele>44.6</ele><time>2022-05-29T09:14:00.000Z</time></trkpt><trkpt lon="5.792156" lat="51.018595"><ele>44.6</ele><time>2022-05-29T09:14:01.000Z</time></trkpt><trkpt lon="5.792163" lat="51.018671"><ele>44.6</ele><time>2022-05-29T09:14:02.000Z</time></trkpt><trkpt lon="5.792171" lat="51.018745"><ele>44.4</ele><time>2022-05-29T09:14:03.000Z</time></trkpt><trkpt lon="5.792185" lat="51.018825"><ele>44.4</ele><time>2022-05-29T09:14:04.000Z</time></trkpt><trkpt lon="5.792203" lat="51.018902"><ele>44.2</ele><time>2022-05-29T09:14:05.000Z</time></trkpt><trkpt lon="5.792221" lat="51.018981"><ele>44</ele><time>2022-05-29T09:14:06.000Z</time></trkpt><trkpt lon="5.792238" lat="51.019061"><ele>43.8</ele><time>2022-05-29T09:14:07.000Z</time></trkpt><trkpt lon="5.792258" lat="51.019138"><ele>43.8</ele><time>2022-05-29T09:14:08.000Z</time></trkpt><trkpt lon="5.792278" lat="51.019217"><ele>43.6</ele><time>2022-05-29T09:14:09.000Z</time></trkpt><trkpt lon="5.792297" lat="51.019297"><ele>43.6</ele><time>2022-05-29T09:14:10.000Z</time></trkpt><trkpt lon="5.792315" lat="51.019372"><ele>43.4</ele><time>2022-05-29T09:14:11.000Z</time></trkpt><trkpt lon="5.792331" lat="51.019443"><ele>43.4</ele><time>2022-05-29T09:14:12.000Z</time></trkpt><trkpt lon="5.792344" lat="51.019522"><ele>43.4</ele><time>2022-05-29T09:14:13.000Z</time></trkpt><trkpt lon="5.792359" lat="51.019598"><ele>43.2</ele><time>2022-05-29T09:14:14.000Z</time></trkpt><trkpt lon="5.792372" lat="51.019671"><ele>43</ele><time>2022-05-29T09:14:15.000Z</time></trkpt><trkpt lon="5.792386" lat="51.019744"><ele>42.8</ele><time>2022-05-29T09:14:16.000Z</time></trkpt><trkpt lon="5.7924" lat="51.019816"><ele>42.6</ele><time>2022-05-29T09:14:17.000Z</time></trkpt><trkpt lon="5.792415" lat="51.019887"><ele>42.6</ele><time>2022-05-29T09:14:18.000Z</time></trkpt><trkpt lon="5.792433" lat="51.019956"><ele>42.6</ele><time>2022-05-29T09:14:19.000Z</time></trkpt><trkpt lon="5.792447" lat="51.020023"><ele>42.8</ele><time>2022-05-29T09:14:20.000Z</time></trkpt><trkpt lon="5.792461" lat="51.020084"><ele>42.6</ele><time>2022-05-29T09:14:21.000Z</time></trkpt><trkpt lon="5.792472" lat="51.020148"><ele>42.6</ele><time>2022-05-29T09:14:22.000Z</time></trkpt><trkpt lon="5.792481" lat="51.020211"><ele>42.6</ele><time>2022-05-29T09:14:23.000Z</time></trkpt><trkpt lon="5.792489" lat="51.020276"><ele>42.8</ele><time>2022-05-29T09:14:24.000Z</time></trkpt><trkpt lon="5.792503" lat="51.020341"><ele>42.8</ele><time>2022-05-29T09:14:25.000Z</time></trkpt><trkpt lon="5.792528" lat="51.020409"><ele>43</ele><time>2022-05-29T09:14:26.000Z</time></trkpt><trkpt lon="5.792555" lat="51.020478"><ele>43</ele><time>2022-05-29T09:14:27.000Z</time></trkpt><trkpt lon="5.792579" lat="51.020547"><ele>43</ele><time>2022-05-29T09:14:28.000Z</time></trkpt><trkpt lon="5.792599" lat="51.020615"><ele>43</ele><time>2022-05-29T09:14:29.000Z</time></trkpt><trkpt lon="5.792615" lat="51.02069"><ele>43</ele><time>2022-05-29T09:14:30.000Z</time></trkpt><trkpt lon="5.792632" lat="51.020766"><ele>43.2</ele><time>2022-05-29T09:14:31.000Z</time></trkpt><trkpt lon="5.792649" lat="51.020837"><ele>43.2</ele><time>2022-05-29T09:14:32.000Z</time></trkpt><trkpt lon="5.792663" lat="51.020906"><ele>43.2</ele><time>2022-05-29T09:14:33.000Z</time></trkpt><trkpt lon="5.79268" lat="51.020975"><ele>43.2</ele><time>2022-05-29T09:14:34.000Z</time></trkpt><trkpt lon="5.792697" lat="51.021045"><ele>43.2</ele><time>2022-05-29T09:14:35.000Z</time></trkpt><trkpt lon="5.792717" lat="51.021121"><ele>43.2</ele><time>2022-05-29T09:14:36.000Z</time></trkpt><trkpt lon="5.792735" lat="51.021197"><ele>43</ele><time>2022-05-29T09:14:37.000Z</time></trkpt><trkpt lon="5.792752" lat="51.021274"><ele>43</ele><time>2022-05-29T09:14:38.000Z</time></trkpt><trkpt lon="5.79277" lat="51.021349"><ele>42.8</ele><time>2022-05-29T09:14:39.000Z</time></trkpt><trkpt lon="5.792789" lat="51.021425"><ele>42.8</ele><time>2022-05-29T09:14:40.000Z</time></trkpt><trkpt lon="5.792803" lat="51.021502"><ele>42.8</ele><time>2022-05-29T09:14:41.000Z</time></trkpt><trkpt lon="5.792818" lat="51.021583"><ele>42.6</ele><time>2022-05-29T09:14:42.000Z</time></trkpt><trkpt lon="5.792835" lat="51.021659"><ele>42.6</ele><time>2022-05-29T09:14:43.000Z</time></trkpt><trkpt lon="5.792853" lat="51.021735"><ele>42.6</ele><time>2022-05-29T09:14:44.000Z</time></trkpt><trkpt lon="5.792873" lat="51.021816"><ele>42.6</ele><time>2022-05-29T09:14:45.000Z</time></trkpt><trkpt lon="5.792892" lat="51.021896"><ele>42.4</ele><time>2022-05-29T09:14:46.000Z</time></trkpt><trkpt lon="5.792911" lat="51.021973"><ele>42.4</ele><time>2022-05-29T09:14:47.000Z</time></trkpt><trkpt lon="5.792932" lat="51.022053"><ele>42.2</ele><time>2022-05-29T09:14:48.000Z</time></trkpt><trkpt lon="5.79295" lat="51.022132"><ele>42.2</ele><time>2022-05-29T09:14:49.000Z</time></trkpt><trkpt lon="5.792969" lat="51.022208"><ele>42.2</ele><time>2022-05-29T09:14:50.000Z</time></trkpt><trkpt lon="5.792991" lat="51.022285"><ele>42</ele><time>2022-05-29T09:14:51.000Z</time></trkpt><trkpt lon="5.79301" lat="51.022362"><ele>41.8</ele><time>2022-05-29T09:14:52.000Z</time></trkpt><trkpt lon="5.793027" lat="51.022442"><ele>41.8</ele><time>2022-05-29T09:14:53.000Z</time></trkpt><trkpt lon="5.793045" lat="51.022517"><ele>41.6</ele><time>2022-05-29T09:14:54.000Z</time></trkpt><trkpt lon="5.793062" lat="51.022593"><ele>41.4</ele><time>2022-05-29T09:14:55.000Z</time></trkpt><trkpt lon="5.793082" lat="51.022675"><ele>41.4</ele><time>2022-05-29T09:14:56.000Z</time></trkpt><trkpt lon="5.793098" lat="51.022754"><ele>41.4</ele><time>2022-05-29T09:14:57.000Z</time></trkpt><trkpt lon="5.793113" lat="51.02283"><ele>41.4</ele><time>2022-05-29T09:14:58.000Z</time></trkpt><trkpt lon="5.793129" lat="51.022906"><ele>41.2</ele><time>2022-05-29T09:14:59.000Z</time></trkpt><trkpt lon="5.793145" lat="51.022983"><ele>41.2</ele><time>2022-05-29T09:15:00.000Z</time></trkpt><trkpt lon="5.793164" lat="51.023063"><ele>41.2</ele><time>2022-05-29T09:15:01.000Z</time></trkpt><trkpt lon="5.793184" lat="51.023139"><ele>41</ele><time>2022-05-29T09:15:02.000Z</time></trkpt><trkpt lon="5.793203" lat="51.023215"><ele>41</ele><time>2022-05-29T09:15:03.000Z</time></trkpt><trkpt lon="5.793221" lat="51.023291"><ele>41</ele><time>2022-05-29T09:15:04.000Z</time></trkpt><trkpt lon="5.79324" lat="51.023369"><ele>40.8</ele><time>2022-05-29T09:15:05.000Z</time></trkpt><trkpt lon="5.793258" lat="51.023446"><ele>40.8</ele><time>2022-05-29T09:15:06.000Z</time></trkpt><trkpt lon="5.793277" lat="51.023528"><ele>40.8</ele><time>2022-05-29T09:15:07.000Z</time></trkpt><trkpt lon="5.793295" lat="51.023606"><ele>40.6</ele><time>2022-05-29T09:15:08.000Z</time></trkpt><trkpt lon="5.793313" lat="51.023689"><ele>40.6</ele><time>2022-05-29T09:15:09.000Z</time></trkpt><trkpt lon="5.793333" lat="51.023769"><ele>40.6</ele><time>2022-05-29T09:15:10.000Z</time></trkpt><trkpt lon="5.793356" lat="51.023849"><ele>40.4</ele><time>2022-05-29T09:15:11.000Z</time></trkpt><trkpt lon="5.793382" lat="51.023928"><ele>40.2</ele><time>2022-05-29T09:15:12.000Z</time></trkpt><trkpt lon="5.79341" lat="51.024005"><ele>40.2</ele><time>2022-05-29T09:15:13.000Z</time></trkpt><trkpt lon="5.793437" lat="51.024083"><ele>40</ele><time>2022-05-29T09:15:14.000Z</time></trkpt><trkpt lon="5.79346" lat="51.024158"><ele>39.8</ele><time>2022-05-29T09:15:15.000Z</time></trkpt><trkpt lon="5.793481" lat="51.024236"><ele>40</ele><time>2022-05-29T09:15:16.000Z</time></trkpt><trkpt lon="5.793504" lat="51.024309"><ele>40</ele><time>2022-05-29T09:15:17.000Z</time></trkpt><trkpt lon="5.793526" lat="51.024381"><ele>40.2</ele><time>2022-05-29T09:15:18.000Z</time></trkpt><trkpt lon="5.79355" lat="51.024452"><ele>40.2</ele><time>2022-05-29T09:15:19.000Z</time></trkpt><trkpt lon="5.793579" lat="51.024511"><ele>40.2</ele><time>2022-05-29T09:15:20.000Z</time></trkpt><trkpt lon="5.793606" lat="51.024559"><ele>40.4</ele><time>2022-05-29T09:15:21.000Z</time></trkpt><trkpt lon="5.793631" lat="51.024598"><ele>40.4</ele><time>2022-05-29T09:15:22.000Z</time></trkpt><trkpt lon="5.793643" lat="51.024629"><ele>40.4</ele><time>2022-05-29T09:15:23.000Z</time></trkpt><trkpt lon="5.793637" lat="51.024654"><ele>40.6</ele><time>2022-05-29T09:15:24.000Z</time></trkpt><trkpt lon="5.793606" lat="51.024687"><ele>41</ele><time>2022-05-29T09:15:35.000Z</time></trkpt><trkpt lon="5.793583" lat="51.024698"><ele>41</ele><time>2022-05-29T09:15:36.000Z</time></trkpt><trkpt lon="5.793565" lat="51.024711"><ele>41</ele><time>2022-05-29T09:15:37.000Z</time></trkpt><trkpt lon="5.793548" lat="51.024726"><ele>41</ele><time>2022-05-29T09:15:38.000Z</time></trkpt><trkpt lon="5.793535" lat="51.024743"><ele>41</ele><time>2022-05-29T09:15:39.000Z</time></trkpt><trkpt lon="5.793534" lat="51.024772"><ele>41</ele><time>2022-05-29T09:15:40.000Z</time></trkpt><trkpt lon="5.793549" lat="51.024808"><ele>41</ele><time>2022-05-29T09:15:41.000Z</time></trkpt><trkpt lon="5.793571" lat="51.024853"><ele>41</ele><time>2022-05-29T09:15:42.000Z</time></trkpt><trkpt lon="5.793599" lat="51.024901"><ele>40.8</ele><time>2022-05-29T09:15:43.000Z</time></trkpt><trkpt lon="5.793629" lat="51.024954"><ele>40.8</ele><time>2022-05-29T09:15:44.000Z</time></trkpt><trkpt lon="5.793663" lat="51.025012"><ele>40.6</ele><time>2022-05-29T09:15:45.000Z</time></trkpt><trkpt lon="5.793698" lat="51.025072"><ele>40.6</ele><time>2022-05-29T09:15:46.000Z</time></trkpt><trkpt lon="5.793735" lat="51.025131"><ele>40.4</ele><time>2022-05-29T09:15:47.000Z</time></trkpt><trkpt lon="5.793773" lat="51.025196"><ele>40.4</ele><time>2022-05-29T09:15:48.000Z</time></trkpt><trkpt lon="5.79381" lat="51.025257"><ele>40.2</ele><time>2022-05-29T09:15:49.000Z</time></trkpt><trkpt lon="5.793846" lat="51.025317"><ele>40.2</ele><time>2022-05-29T09:15:50.000Z</time></trkpt><trkpt lon="5.793882" lat="51.025375"><ele>40</ele><time>2022-05-29T09:15:51.000Z</time></trkpt><trkpt lon="5.793917" lat="51.025432"><ele>40</ele><time>2022-05-29T09:15:52.000Z</time></trkpt><trkpt lon="5.793951" lat="51.025488"><ele>39.8</ele><time>2022-05-29T09:15:53.000Z</time></trkpt><trkpt lon="5.793987" lat="51.025542"><ele>39.8</ele><time>2022-05-29T09:15:54.000Z</time></trkpt><trkpt lon="5.794021" lat="51.025599"><ele>39.8</ele><time>2022-05-29T09:15:55.000Z</time></trkpt><trkpt lon="5.794057" lat="51.025656"><ele>39.6</ele><time>2022-05-29T09:15:56.000Z</time></trkpt><trkpt lon="5.794093" lat="51.025715"><ele>39.4</ele><time>2022-05-29T09:15:57.000Z</time></trkpt><trkpt lon="5.794132" lat="51.025779"><ele>39.4</ele><time>2022-05-29T09:15:58.000Z</time></trkpt><trkpt lon="5.794171" lat="51.025842"><ele>39.2</ele><time>2022-05-29T09:15:59.000Z</time></trkpt><trkpt lon="5.794213" lat="51.025907"><ele>39.2</ele><time>2022-05-29T09:16:00.000Z</time></trkpt><trkpt lon="5.794253" lat="51.025976"><ele>39</ele><time>2022-05-29T09:16:01.000Z</time></trkpt><trkpt lon="5.794295" lat="51.026044"><ele>38.8</ele><time>2022-05-29T09:16:02.000Z</time></trkpt><trkpt lon="5.794336" lat="51.026109"><ele>38.6</ele><time>2022-05-29T09:16:03.000Z</time></trkpt><trkpt lon="5.794378" lat="51.026177"><ele>38.6</ele><time>2022-05-29T09:16:04.000Z</time></trkpt><trkpt lon="5.794418" lat="51.026242"><ele>38.4</ele><time>2022-05-29T09:16:05.000Z</time></trkpt><trkpt lon="5.79446" lat="51.026312"><ele>38.4</ele><time>2022-05-29T09:16:06.000Z</time></trkpt><trkpt lon="5.794501" lat="51.026385"><ele>38.4</ele><time>2022-05-29T09:16:07.000Z</time></trkpt><trkpt lon="5.794544" lat="51.026457"><ele>38.2</ele><time>2022-05-29T09:16:08.000Z</time></trkpt><trkpt lon="5.794585" lat="51.02653"><ele>38.2</ele><time>2022-05-29T09:16:09.000Z</time></trkpt><trkpt lon="5.794626" lat="51.026601"><ele>38</ele><time>2022-05-29T09:16:10.000Z</time></trkpt><trkpt lon="5.794666" lat="51.026666"><ele>38</ele><time>2022-05-29T09:16:11.000Z</time></trkpt><trkpt lon="5.794711" lat="51.026741"><ele>38</ele><time>2022-05-29T09:16:12.000Z</time></trkpt><trkpt lon="5.79476" lat="51.026811"><ele>38</ele><time>2022-05-29T09:16:13.000Z</time></trkpt><trkpt lon="5.794813" lat="51.026875"><ele>38</ele><time>2022-05-29T09:16:14.000Z</time></trkpt><trkpt lon="5.79487" lat="51.026943"><ele>38</ele><time>2022-05-29T09:16:15.000Z</time></trkpt><trkpt lon="5.794937" lat="51.027005"><ele>38</ele><time>2022-05-29T09:16:16.000Z</time></trkpt><trkpt lon="5.795009" lat="51.027068"><ele>38</ele><time>2022-05-29T09:16:17.000Z</time></trkpt><trkpt lon="5.795085" lat="51.027126"><ele>38</ele><time>2022-05-29T09:16:18.000Z</time></trkpt><trkpt lon="5.795165" lat="51.027186"><ele>37.8</ele><time>2022-05-29T09:16:19.000Z</time></trkpt><trkpt lon="5.795236" lat="51.027243"><ele>37.8</ele><time>2022-05-29T09:16:20.000Z</time></trkpt><trkpt lon="5.795306" lat="51.027297"><ele>37.8</ele><time>2022-05-29T09:16:21.000Z</time></trkpt><trkpt lon="5.795378" lat="51.027355"><ele>37.8</ele><time>2022-05-29T09:16:22.000Z</time></trkpt><trkpt lon="5.795447" lat="51.027415"><ele>37.8</ele><time>2022-05-29T09:16:23.000Z</time></trkpt><trkpt lon="5.795514" lat="51.027473"><ele>37.6</ele><time>2022-05-29T09:16:24.000Z</time></trkpt><trkpt lon="5.795583" lat="51.027538"><ele>37.6</ele><time>2022-05-29T09:16:25.000Z</time></trkpt><trkpt lon="5.795653" lat="51.027595"><ele>37.6</ele><time>2022-05-29T09:16:26.000Z</time></trkpt><trkpt lon="5.795724" lat="51.027655"><ele>37.6</ele><time>2022-05-29T09:16:27.000Z</time></trkpt><trkpt lon="5.79579" lat="51.027713"><ele>37.6</ele><time>2022-05-29T09:16:28.000Z</time></trkpt><trkpt lon="5.795855" lat="51.027774"><ele>37.6</ele><time>2022-05-29T09:16:29.000Z</time></trkpt><trkpt lon="5.795917" lat="51.027831"><ele>37.6</ele><time>2022-05-29T09:16:30.000Z</time></trkpt><trkpt lon="5.795977" lat="51.027888"><ele>37.6</ele><time>2022-05-29T09:16:31.000Z</time></trkpt><trkpt lon="5.796035" lat="51.027947"><ele>37.6</ele><time>2022-05-29T09:16:32.000Z</time></trkpt><trkpt lon="5.796091" lat="51.028008"><ele>37.6</ele><time>2022-05-29T09:16:33.000Z</time></trkpt><trkpt lon="5.796144" lat="51.028069"><ele>37.8</ele><time>2022-05-29T09:16:34.000Z</time></trkpt><trkpt lon="5.796194" lat="51.028135"><ele>37.8</ele><time>2022-05-29T09:16:35.000Z</time></trkpt><trkpt lon="5.796241" lat="51.028203"><ele>37.8</ele><time>2022-05-29T09:16:36.000Z</time></trkpt><trkpt lon="5.796287" lat="51.028272"><ele>37.8</ele><time>2022-05-29T09:16:37.000Z</time></trkpt><trkpt lon="5.796335" lat="51.02834"><ele>37.8</ele><time>2022-05-29T09:16:38.000Z</time></trkpt><trkpt lon="5.796381" lat="51.028409"><ele>37.8</ele><time>2022-05-29T09:16:39.000Z</time></trkpt><trkpt lon="5.796426" lat="51.028478"><ele>37.8</ele><time>2022-05-29T09:16:40.000Z</time></trkpt><trkpt lon="5.79647" lat="51.028551"><ele>37.8</ele><time>2022-05-29T09:16:41.000Z</time></trkpt><trkpt lon="5.796515" lat="51.028618"><ele>37.6</ele><time>2022-05-29T09:16:42.000Z</time></trkpt><trkpt lon="5.796557" lat="51.028687"><ele>37.6</ele><time>2022-05-29T09:16:43.000Z</time></trkpt><trkpt lon="5.796599" lat="51.028756"><ele>37.6</ele><time>2022-05-29T09:16:44.000Z</time></trkpt><trkpt lon="5.796641" lat="51.028825"><ele>37.6</ele><time>2022-05-29T09:16:45.000Z</time></trkpt><trkpt lon="5.796683" lat="51.028893"><ele>37.6</ele><time>2022-05-29T09:16:46.000Z</time></trkpt><trkpt lon="5.796725" lat="51.028959"><ele>37.6</ele><time>2022-05-29T09:16:47.000Z</time></trkpt><trkpt lon="5.796768" lat="51.029027"><ele>37.6</ele><time>2022-05-29T09:16:48.000Z</time></trkpt><trkpt lon="5.796813" lat="51.029095"><ele>37.6</ele><time>2022-05-29T09:16:49.000Z</time></trkpt><trkpt lon="5.796858" lat="51.02916"><ele>37.6</ele><time>2022-05-29T09:16:50.000Z</time></trkpt><trkpt lon="5.7969" lat="51.029229"><ele>37.4</ele><time>2022-05-29T09:16:51.000Z</time></trkpt><trkpt lon="5.796941" lat="51.029299"><ele>37.6</ele><time>2022-05-29T09:16:52.000Z</time></trkpt><trkpt lon="5.796982" lat="51.029367"><ele>37.4</ele><time>2022-05-29T09:16:53.000Z</time></trkpt><trkpt lon="5.797026" lat="51.029436"><ele>37.4</ele><time>2022-05-29T09:16:54.000Z</time></trkpt><trkpt lon="5.797067" lat="51.029503"><ele>37.6</ele><time>2022-05-29T09:16:55.000Z</time></trkpt><trkpt lon="5.797103" lat="51.029568"><ele>37.6</ele><time>2022-05-29T09:16:56.000Z</time></trkpt><trkpt lon="5.797139" lat="51.029633"><ele>37.6</ele><time>2022-05-29T09:16:57.000Z</time></trkpt><trkpt lon="5.797178" lat="51.029698"><ele>37.6</ele><time>2022-05-29T09:16:58.000Z</time></trkpt><trkpt lon="5.797219" lat="51.029763"><ele>37.6</ele><time>2022-05-29T09:16:59.000Z</time></trkpt><trkpt lon="5.797257" lat="51.029831"><ele>37.6</ele><time>2022-05-29T09:17:00.000Z</time></trkpt><trkpt lon="5.797296" lat="51.029894"><ele>37.4</ele><time>2022-05-29T09:17:01.000Z</time></trkpt><trkpt lon="5.797337" lat="51.029962"><ele>37.6</ele><time>2022-05-29T09:17:02.000Z</time></trkpt><trkpt lon="5.797376" lat="51.030031"><ele>37.6</ele><time>2022-05-29T09:17:03.000Z</time></trkpt><trkpt lon="5.797417" lat="51.030098"><ele>37.6</ele><time>2022-05-29T09:17:04.000Z</time></trkpt><trkpt lon="5.797461" lat="51.030161"><ele>37.6</ele><time>2022-05-29T09:17:05.000Z</time></trkpt><trkpt lon="5.797499" lat="51.030229"><ele>37.6</ele><time>2022-05-29T09:17:06.000Z</time></trkpt><trkpt lon="5.797536" lat="51.030295"><ele>37.6</ele><time>2022-05-29T09:17:07.000Z</time></trkpt><trkpt lon="5.797577" lat="51.030362"><ele>37.6</ele><time>2022-05-29T09:17:08.000Z</time></trkpt><trkpt lon="5.79762" lat="51.030426"><ele>37.6</ele><time>2022-05-29T09:17:09.000Z</time></trkpt><trkpt lon="5.797664" lat="51.030491"><ele>37.6</ele><time>2022-05-29T09:17:10.000Z</time></trkpt><trkpt lon="5.797711" lat="51.030555"><ele>37.6</ele><time>2022-05-29T09:17:11.000Z</time></trkpt><trkpt lon="5.797756" lat="51.030617"><ele>37.8</ele><time>2022-05-29T09:17:12.000Z</time></trkpt><trkpt lon="5.797798" lat="51.030681"><ele>37.8</ele><time>2022-05-29T09:17:13.000Z</time></trkpt><trkpt lon="5.797834" lat="51.030739"><ele>38</ele><time>2022-05-29T09:17:14.000Z</time></trkpt><trkpt lon="5.797873" lat="51.030798"><ele>38</ele><time>2022-05-29T09:17:15.000Z</time></trkpt><trkpt lon="5.797906" lat="51.03085"><ele>38.2</ele><time>2022-05-29T09:17:16.000Z</time></trkpt><trkpt lon="5.797931" lat="51.030895"><ele>38.2</ele><time>2022-05-29T09:17:17.000Z</time></trkpt><trkpt lon="5.797956" lat="51.030941"><ele>38.4</ele><time>2022-05-29T09:17:18.000Z</time></trkpt><trkpt lon="5.797981" lat="51.030982"><ele>38.4</ele><time>2022-05-29T09:17:19.000Z</time></trkpt><trkpt lon="5.798005" lat="51.031018"><ele>38.6</ele><time>2022-05-29T09:17:20.000Z</time></trkpt><trkpt lon="5.798037" lat="51.031038"><ele>38.6</ele><time>2022-05-29T09:17:21.000Z</time></trkpt><trkpt lon="5.798081" lat="51.031051"><ele>38.6</ele><time>2022-05-29T09:17:22.000Z</time></trkpt><trkpt lon="5.798129" lat="51.031068"><ele>38.8</ele><time>2022-05-29T09:17:23.000Z</time></trkpt><trkpt lon="5.798177" lat="51.031097"><ele>38.8</ele><time>2022-05-29T09:17:24.000Z</time></trkpt><trkpt lon="5.798224" lat="51.031134"><ele>38.8</ele><time>2022-05-29T09:17:25.000Z</time></trkpt><trkpt lon="5.798276" lat="51.031183"><ele>38.8</ele><time>2022-05-29T09:17:26.000Z</time></trkpt><trkpt lon="5.79833" lat="51.031236"><ele>38.8</ele><time>2022-05-29T09:17:27.000Z</time></trkpt><trkpt lon="5.798392" lat="51.031291"><ele>38.8</ele><time>2022-05-29T09:17:28.000Z</time></trkpt><trkpt lon="5.798454" lat="51.031345"><ele>38.8</ele><time>2022-05-29T09:17:29.000Z</time></trkpt><trkpt lon="5.798522" lat="51.031402"><ele>39</ele><time>2022-05-29T09:17:30.000Z</time></trkpt><trkpt lon="5.798596" lat="51.031459"><ele>39</ele><time>2022-05-29T09:17:31.000Z</time></trkpt><trkpt lon="5.798671" lat="51.031515"><ele>39</ele><time>2022-05-29T09:17:32.000Z</time></trkpt><trkpt lon="5.798756" lat="51.031573"><ele>39</ele><time>2022-05-29T09:17:33.000Z</time></trkpt><trkpt lon="5.798841" lat="51.031626"><ele>39</ele><time>2022-05-29T09:17:34.000Z</time></trkpt><trkpt lon="5.798926" lat="51.03168"><ele>39</ele><time>2022-05-29T09:17:35.000Z</time></trkpt><trkpt lon="5.799014" lat="51.031737"><ele>39</ele><time>2022-05-29T09:17:36.000Z</time></trkpt><trkpt lon="5.799097" lat="51.03179"><ele>38.8</ele><time>2022-05-29T09:17:37.000Z</time></trkpt><trkpt lon="5.799184" lat="51.031847"><ele>38.8</ele><time>2022-05-29T09:17:38.000Z</time></trkpt><trkpt lon="5.799268" lat="51.0319"><ele>38.6</ele><time>2022-05-29T09:17:39.000Z</time></trkpt><trkpt lon="5.799351" lat="51.031954"><ele>38.6</ele><time>2022-05-29T09:17:40.000Z</time></trkpt><trkpt lon="5.799431" lat="51.032007"><ele>38.6</ele><time>2022-05-29T09:17:41.000Z</time></trkpt><trkpt lon="5.799511" lat="51.032056"><ele>38.4</ele><time>2022-05-29T09:17:42.000Z</time></trkpt><trkpt lon="5.799587" lat="51.032106"><ele>38.4</ele><time>2022-05-29T09:17:43.000Z</time></trkpt><trkpt lon="5.799663" lat="51.03216"><ele>38.4</ele><time>2022-05-29T09:17:44.000Z</time></trkpt><trkpt lon="5.799739" lat="51.032214"><ele>38.4</ele><time>2022-05-29T09:17:45.000Z</time></trkpt><trkpt lon="5.799822" lat="51.032271"><ele>38.4</ele><time>2022-05-29T09:17:46.000Z</time></trkpt><trkpt lon="5.799902" lat="51.032327"><ele>38.4</ele><time>2022-05-29T09:17:47.000Z</time></trkpt><trkpt lon="5.799987" lat="51.032381"><ele>38.2</ele><time>2022-05-29T09:17:48.000Z</time></trkpt><trkpt lon="5.800067" lat="51.032434"><ele>38</ele><time>2022-05-29T09:17:49.000Z</time></trkpt><trkpt lon="5.80015" lat="51.032488"><ele>38</ele><time>2022-05-29T09:17:50.000Z</time></trkpt><trkpt lon="5.800227" lat="51.032542"><ele>38</ele><time>2022-05-29T09:17:51.000Z</time></trkpt><trkpt lon="5.800304" lat="51.0326"><ele>38</ele><time>2022-05-29T09:17:52.000Z</time></trkpt><trkpt lon="5.800373" lat="51.032659"><ele>38</ele><time>2022-05-29T09:17:53.000Z</time></trkpt><trkpt lon="5.800435" lat="51.032711"><ele>38</ele><time>2022-05-29T09:17:54.000Z</time></trkpt><trkpt lon="5.800497" lat="51.032773"><ele>38</ele><time>2022-05-29T09:17:55.000Z</time></trkpt><trkpt lon="5.800558" lat="51.03283"><ele>38.2</ele><time>2022-05-29T09:17:56.000Z</time></trkpt><trkpt lon="5.800623" lat="51.032885"><ele>38.2</ele><time>2022-05-29T09:17:57.000Z</time></trkpt><trkpt lon="5.800686" lat="51.032938"><ele>38.2</ele><time>2022-05-29T09:17:58.000Z</time></trkpt><trkpt lon="5.800748" lat="51.032992"><ele>38.2</ele><time>2022-05-29T09:17:59.000Z</time></trkpt><trkpt lon="5.800807" lat="51.033049"><ele>38.2</ele><time>2022-05-29T09:18:00.000Z</time></trkpt><trkpt lon="5.800863" lat="51.033104"><ele>38.2</ele><time>2022-05-29T09:18:01.000Z</time></trkpt><trkpt lon="5.800925" lat="51.033164"><ele>38.2</ele><time>2022-05-29T09:18:02.000Z</time></trkpt><trkpt lon="5.800988" lat="51.033221"><ele>38.2</ele><time>2022-05-29T09:18:03.000Z</time></trkpt><trkpt lon="5.801052" lat="51.033279"><ele>38.2</ele><time>2022-05-29T09:18:04.000Z</time></trkpt><trkpt lon="5.801114" lat="51.033334"><ele>38.2</ele><time>2022-05-29T09:18:05.000Z</time></trkpt><trkpt lon="5.801182" lat="51.033393"><ele>38.2</ele><time>2022-05-29T09:18:06.000Z</time></trkpt><trkpt lon="5.801249" lat="51.03345"><ele>38</ele><time>2022-05-29T09:18:07.000Z</time></trkpt><trkpt lon="5.80132" lat="51.033508"><ele>38</ele><time>2022-05-29T09:18:08.000Z</time></trkpt><trkpt lon="5.80139" lat="51.033569"><ele>38</ele><time>2022-05-29T09:18:09.000Z</time></trkpt><trkpt lon="5.801457" lat="51.033625"><ele>38</ele><time>2022-05-29T09:18:10.000Z</time></trkpt><trkpt lon="5.801522" lat="51.033679"><ele>37.8</ele><time>2022-05-29T09:18:11.000Z</time></trkpt><trkpt lon="5.801592" lat="51.03374"><ele>37.8</ele><time>2022-05-29T09:18:12.000Z</time></trkpt><trkpt lon="5.801667" lat="51.033798"><ele>37.8</ele><time>2022-05-29T09:18:13.000Z</time></trkpt><trkpt lon="5.801741" lat="51.033859"><ele>37.8</ele><time>2022-05-29T09:18:14.000Z</time></trkpt><trkpt lon="5.80181" lat="51.033915"><ele>38</ele><time>2022-05-29T09:18:15.000Z</time></trkpt><trkpt lon="5.801876" lat="51.033971"><ele>37.8</ele><time>2022-05-29T09:18:16.000Z</time></trkpt><trkpt lon="5.801945" lat="51.03403"><ele>37.8</ele><time>2022-05-29T09:18:17.000Z</time></trkpt><trkpt lon="5.802008" lat="51.034087"><ele>37.8</ele><time>2022-05-29T09:18:18.000Z</time></trkpt><trkpt lon="5.80207" lat="51.034141"><ele>37.8</ele><time>2022-05-29T09:18:19.000Z</time></trkpt><trkpt lon="5.802131" lat="51.034196"><ele>37.8</ele><time>2022-05-29T09:18:20.000Z</time></trkpt><trkpt lon="5.802197" lat="51.034251"><ele>37.8</ele><time>2022-05-29T09:18:21.000Z</time></trkpt><trkpt lon="5.802261" lat="51.034306"><ele>37.8</ele><time>2022-05-29T09:18:22.000Z</time></trkpt><trkpt lon="5.802328" lat="51.034366"><ele>37.8</ele><time>2022-05-29T09:18:23.000Z</time></trkpt><trkpt lon="5.802392" lat="51.034424"><ele>37.8</ele><time>2022-05-29T09:18:24.000Z</time></trkpt><trkpt lon="5.802452" lat="51.034484"><ele>38</ele><time>2022-05-29T09:18:25.000Z</time></trkpt><trkpt lon="5.802511" lat="51.034542"><ele>38</ele><time>2022-05-29T09:18:26.000Z</time></trkpt><trkpt lon="5.80257" lat="51.034603"><ele>38</ele><time>2022-05-29T09:18:27.000Z</time></trkpt><trkpt lon="5.802624" lat="51.034665"><ele>38</ele><time>2022-05-29T09:18:28.000Z</time></trkpt><trkpt lon="5.802671" lat="51.034733"><ele>38</ele><time>2022-05-29T09:18:29.000Z</time></trkpt><trkpt lon="5.802711" lat="51.034802"><ele>38</ele><time>2022-05-29T09:18:30.000Z</time></trkpt><trkpt lon="5.802747" lat="51.034872"><ele>38</ele><time>2022-05-29T09:18:31.000Z</time></trkpt><trkpt lon="5.802778" lat="51.034944"><ele>37.8</ele><time>2022-05-29T09:18:32.000Z</time></trkpt><trkpt lon="5.802805" lat="51.035013"><ele>37.8</ele><time>2022-05-29T09:18:33.000Z</time></trkpt><trkpt lon="5.802832" lat="51.03508"><ele>37.8</ele><time>2022-05-29T09:18:34.000Z</time></trkpt><trkpt lon="5.802857" lat="51.03514"><ele>37.8</ele><time>2022-05-29T09:18:35.000Z</time></trkpt><trkpt lon="5.80288" lat="51.035197"><ele>37.8</ele><time>2022-05-29T09:18:36.000Z</time></trkpt><trkpt lon="5.802902" lat="51.035248"><ele>37.6</ele><time>2022-05-29T09:18:37.000Z</time></trkpt><trkpt lon="5.802921" lat="51.035292"><ele>37.6</ele><time>2022-05-29T09:18:38.000Z</time></trkpt><trkpt lon="5.802935" lat="51.035335"><ele>37.6</ele><time>2022-05-29T09:18:39.000Z</time></trkpt><trkpt lon="5.802938" lat="51.035377"><ele>37.4</ele><time>2022-05-29T09:18:40.000Z</time></trkpt><trkpt lon="5.802923" lat="51.035414"><ele>37.4</ele><time>2022-05-29T09:18:41.000Z</time></trkpt><trkpt lon="5.802894" lat="51.035442"><ele>37.4</ele><time>2022-05-29T09:18:42.000Z</time></trkpt><trkpt lon="5.802855" lat="51.03546"><ele>37.4</ele><time>2022-05-29T09:18:43.000Z</time></trkpt><trkpt lon="5.802816" lat="51.035481"><ele>37.4</ele><time>2022-05-29T09:18:44.000Z</time></trkpt><trkpt lon="5.802798" lat="51.035504"><ele>37.4</ele><time>2022-05-29T09:18:45.000Z</time></trkpt><trkpt lon="5.802797" lat="51.035529"><ele>37.4</ele><time>2022-05-29T09:18:46.000Z</time></trkpt><trkpt lon="5.802806" lat="51.035563"><ele>37.4</ele><time>2022-05-29T09:18:47.000Z</time></trkpt><trkpt lon="5.802824" lat="51.035601"><ele>37.4</ele><time>2022-05-29T09:18:48.000Z</time></trkpt><trkpt lon="5.802839" lat="51.035635"><ele>37.4</ele><time>2022-05-29T09:18:49.000Z</time></trkpt><trkpt lon="5.802838" lat="51.035663"><ele>37.4</ele><time>2022-05-29T09:18:50.000Z</time></trkpt><trkpt lon="5.802812" lat="51.035677"><ele>37.2</ele><time>2022-05-29T09:18:51.000Z</time></trkpt><trkpt lon="5.802764" lat="51.035689"><ele>37</ele><time>2022-05-29T09:18:52.000Z</time></trkpt><trkpt lon="5.802704" lat="51.035699"><ele>37</ele><time>2022-05-29T09:18:53.000Z</time></trkpt><trkpt lon="5.802634" lat="51.035702"><ele>36.8</ele><time>2022-05-29T09:18:54.000Z</time></trkpt><trkpt lon="5.802552" lat="51.035707"><ele>36.8</ele><time>2022-05-29T09:18:55.000Z</time></trkpt><trkpt lon="5.802463" lat="51.035715"><ele>36.8</ele><time>2022-05-29T09:18:56.000Z</time></trkpt><trkpt lon="5.802364" lat="51.03573"><ele>36.8</ele><time>2022-05-29T09:18:57.000Z</time></trkpt><trkpt lon="5.802263" lat="51.035742"><ele>36.8</ele><time>2022-05-29T09:18:58.000Z</time></trkpt><trkpt lon="5.802151" lat="51.035759"><ele>37</ele><time>2022-05-29T09:18:59.000Z</time></trkpt><trkpt lon="5.802037" lat="51.035782"><ele>37</ele><time>2022-05-29T09:19:00.000Z</time></trkpt><trkpt lon="5.80192" lat="51.035801"><ele>37.2</ele><time>2022-05-29T09:19:01.000Z</time></trkpt><trkpt lon="5.801801" lat="51.035821"><ele>37.4</ele><time>2022-05-29T09:19:02.000Z</time></trkpt><trkpt lon="5.801681" lat="51.035844"><ele>37.6</ele><time>2022-05-29T09:19:03.000Z</time></trkpt><trkpt lon="5.80156" lat="51.03587"><ele>37.8</ele><time>2022-05-29T09:19:04.000Z</time></trkpt><trkpt lon="5.801435" lat="51.035892"><ele>38</ele><time>2022-05-29T09:19:05.000Z</time></trkpt><trkpt lon="5.801306" lat="51.035916"><ele>38.2</ele><time>2022-05-29T09:19:06.000Z</time></trkpt><trkpt lon="5.801173" lat="51.035941"><ele>38.6</ele><time>2022-05-29T09:19:07.000Z</time></trkpt><trkpt lon="5.801042" lat="51.035961"><ele>38.8</ele><time>2022-05-29T09:19:08.000Z</time></trkpt><trkpt lon="5.800912" lat="51.035984"><ele>39</ele><time>2022-05-29T09:19:09.000Z</time></trkpt><trkpt lon="5.800791" lat="51.036006"><ele>39.4</ele><time>2022-05-29T09:19:10.000Z</time></trkpt><trkpt lon="5.800662" lat="51.036035"><ele>39.8</ele><time>2022-05-29T09:19:11.000Z</time></trkpt><trkpt lon="5.800542" lat="51.036061"><ele>40</ele><time>2022-05-29T09:19:12.000Z</time></trkpt><trkpt lon="5.800432" lat="51.036086"><ele>40</ele><time>2022-05-29T09:19:13.000Z</time></trkpt><trkpt lon="5.800313" lat="51.03611"><ele>40</ele><time>2022-05-29T09:19:14.000Z</time></trkpt><trkpt lon="5.800195" lat="51.036134"><ele>40.2</ele><time>2022-05-29T09:19:15.000Z</time></trkpt><trkpt lon="5.800079" lat="51.03616"><ele>40.2</ele><time>2022-05-29T09:19:16.000Z</time></trkpt><trkpt lon="5.79997" lat="51.036183"><ele>40.2</ele><time>2022-05-29T09:19:17.000Z</time></trkpt><trkpt lon="5.799864" lat="51.036206"><ele>40.2</ele><time>2022-05-29T09:19:18.000Z</time></trkpt><trkpt lon="5.799757" lat="51.036233"><ele>40.2</ele><time>2022-05-29T09:19:19.000Z</time></trkpt><trkpt lon="5.799648" lat="51.036258"><ele>40</ele><time>2022-05-29T09:19:20.000Z</time></trkpt><trkpt lon="5.799532" lat="51.036278"><ele>39.8</ele><time>2022-05-29T09:19:21.000Z</time></trkpt><trkpt lon="5.799411" lat="51.036301"><ele>39.6</ele><time>2022-05-29T09:19:22.000Z</time></trkpt><trkpt lon="5.799291" lat="51.036324"><ele>39.6</ele><time>2022-05-29T09:19:23.000Z</time></trkpt><trkpt lon="5.799172" lat="51.036346"><ele>39.6</ele><time>2022-05-29T09:19:24.000Z</time></trkpt><trkpt lon="5.799055" lat="51.036366"><ele>39.6</ele><time>2022-05-29T09:19:25.000Z</time></trkpt><trkpt lon="5.798943" lat="51.036388"><ele>39.8</ele><time>2022-05-29T09:19:26.000Z</time></trkpt><trkpt lon="5.798835" lat="51.036408"><ele>40</ele><time>2022-05-29T09:19:27.000Z</time></trkpt><trkpt lon="5.798729" lat="51.03643"><ele>40</ele><time>2022-05-29T09:19:28.000Z</time></trkpt><trkpt lon="5.798626" lat="51.036451"><ele>40.2</ele><time>2022-05-29T09:19:29.000Z</time></trkpt><trkpt lon="5.798526" lat="51.036476"><ele>40.2</ele><time>2022-05-29T09:19:30.000Z</time></trkpt><trkpt lon="5.798426" lat="51.036495"><ele>40.4</ele><time>2022-05-29T09:19:31.000Z</time></trkpt><trkpt lon="5.798322" lat="51.036518"><ele>40.4</ele><time>2022-05-29T09:19:32.000Z</time></trkpt><trkpt lon="5.798222" lat="51.036537"><ele>40.4</ele><time>2022-05-29T09:19:33.000Z</time></trkpt><trkpt lon="5.79812" lat="51.03656"><ele>40.4</ele><time>2022-05-29T09:19:34.000Z</time></trkpt><trkpt lon="5.798024" lat="51.03658"><ele>40.4</ele><time>2022-05-29T09:19:35.000Z</time></trkpt><trkpt lon="5.797926" lat="51.036601"><ele>40.6</ele><time>2022-05-29T09:19:36.000Z</time></trkpt><trkpt lon="5.797827" lat="51.03662"><ele>40.6</ele><time>2022-05-29T09:19:37.000Z</time></trkpt><trkpt lon="5.797734" lat="51.036639"><ele>40.8</ele><time>2022-05-29T09:19:38.000Z</time></trkpt><trkpt lon="5.797637" lat="51.036663"><ele>40.6</ele><time>2022-05-29T09:19:39.000Z</time></trkpt><trkpt lon="5.797558" lat="51.03668"><ele>40.6</ele><time>2022-05-29T09:19:40.000Z</time></trkpt><trkpt lon="5.797478" lat="51.036701"><ele>40.6</ele><time>2022-05-29T09:19:41.000Z</time></trkpt><trkpt lon="5.797413" lat="51.036719"><ele>40.4</ele><time>2022-05-29T09:19:42.000Z</time></trkpt><trkpt lon="5.79736" lat="51.036736"><ele>40.4</ele><time>2022-05-29T09:19:43.000Z</time></trkpt><trkpt lon="5.797332" lat="51.03676"><ele>40.2</ele><time>2022-05-29T09:19:44.000Z</time></trkpt><trkpt lon="5.797327" lat="51.036792"><ele>40.2</ele><time>2022-05-29T09:19:45.000Z</time></trkpt><trkpt lon="5.797343" lat="51.036831"><ele>40</ele><time>2022-05-29T09:19:46.000Z</time></trkpt><trkpt lon="5.797369" lat="51.036876"><ele>39.8</ele><time>2022-05-29T09:19:47.000Z</time></trkpt><trkpt lon="5.797401" lat="51.036929"><ele>39.6</ele><time>2022-05-29T09:19:48.000Z</time></trkpt><trkpt lon="5.797431" lat="51.036986"><ele>39.4</ele><time>2022-05-29T09:19:49.000Z</time></trkpt><trkpt lon="5.797463" lat="51.037044"><ele>39.2</ele><time>2022-05-29T09:19:50.000Z</time></trkpt><trkpt lon="5.797496" lat="51.037108"><ele>38.8</ele><time>2022-05-29T09:19:51.000Z</time></trkpt><trkpt lon="5.79753" lat="51.037181"><ele>38.4</ele><time>2022-05-29T09:19:52.000Z</time></trkpt><trkpt lon="5.797568" lat="51.037261"><ele>38</ele><time>2022-05-29T09:19:53.000Z</time></trkpt><trkpt lon="5.797605" lat="51.037341"><ele>37.6</ele><time>2022-05-29T09:19:54.000Z</time></trkpt><trkpt lon="5.79764" lat="51.037418"><ele>37</ele><time>2022-05-29T09:19:55.000Z</time></trkpt><trkpt lon="5.797676" lat="51.037499"><ele>36.4</ele><time>2022-05-29T09:19:56.000Z</time></trkpt><trkpt lon="5.797708" lat="51.037583"><ele>35.8</ele><time>2022-05-29T09:19:57.000Z</time></trkpt><trkpt lon="5.797735" lat="51.03767"><ele>35</ele><time>2022-05-29T09:19:58.000Z</time></trkpt><trkpt lon="5.797763" lat="51.037755"><ele>34.6</ele><time>2022-05-29T09:19:59.000Z</time></trkpt><trkpt lon="5.797795" lat="51.037846"><ele>34</ele><time>2022-05-29T09:20:00.000Z</time></trkpt><trkpt lon="5.797827" lat="51.037941"><ele>33.6</ele><time>2022-05-29T09:20:01.000Z</time></trkpt><trkpt lon="5.797861" lat="51.038029"><ele>33.4</ele><time>2022-05-29T09:20:02.000Z</time></trkpt><trkpt lon="5.797894" lat="51.038114"><ele>33</ele><time>2022-05-29T09:20:03.000Z</time></trkpt><trkpt lon="5.797928" lat="51.038202"><ele>32.8</ele><time>2022-05-29T09:20:04.000Z</time></trkpt><trkpt lon="5.797967" lat="51.038289"><ele>32.8</ele><time>2022-05-29T09:20:05.000Z</time></trkpt><trkpt lon="5.798007" lat="51.038375"><ele>32.8</ele><time>2022-05-29T09:20:06.000Z</time></trkpt><trkpt lon="5.798051" lat="51.038464"><ele>32.8</ele><time>2022-05-29T09:20:07.000Z</time></trkpt><trkpt lon="5.798094" lat="51.038549"><ele>32.8</ele><time>2022-05-29T09:20:08.000Z</time></trkpt><trkpt lon="5.798136" lat="51.038636"><ele>33</ele><time>2022-05-29T09:20:09.000Z</time></trkpt><trkpt lon="5.798177" lat="51.038723"><ele>33.2</ele><time>2022-05-29T09:20:10.000Z</time></trkpt><trkpt lon="5.798217" lat="51.038808"><ele>33.2</ele><time>2022-05-29T09:20:11.000Z</time></trkpt><trkpt lon="5.798255" lat="51.038895"><ele>33.4</ele><time>2022-05-29T09:20:12.000Z</time></trkpt><trkpt lon="5.798293" lat="51.038977"><ele>33.6</ele><time>2022-05-29T09:20:13.000Z</time></trkpt><trkpt lon="5.798333" lat="51.039063"><ele>33.6</ele><time>2022-05-29T09:20:14.000Z</time></trkpt><trkpt lon="5.798375" lat="51.039147"><ele>33.6</ele><time>2022-05-29T09:20:15.000Z</time></trkpt><trkpt lon="5.798418" lat="51.039231"><ele>33.4</ele><time>2022-05-29T09:20:16.000Z</time></trkpt><trkpt lon="5.798461" lat="51.039314"><ele>33.4</ele><time>2022-05-29T09:20:17.000Z</time></trkpt><trkpt lon="5.798502" lat="51.039394"><ele>33.4</ele><time>2022-05-29T09:20:18.000Z</time></trkpt><trkpt lon="5.798545" lat="51.039475"><ele>33.4</ele><time>2022-05-29T09:20:19.000Z</time></trkpt><trkpt lon="5.798588" lat="51.039558"><ele>33.2</ele><time>2022-05-29T09:20:20.000Z</time></trkpt><trkpt lon="5.798628" lat="51.039639"><ele>33.4</ele><time>2022-05-29T09:20:21.000Z</time></trkpt><trkpt lon="5.798666" lat="51.039723"><ele>33.2</ele><time>2022-05-29T09:20:22.000Z</time></trkpt><trkpt lon="5.798706" lat="51.039809"><ele>33.2</ele><time>2022-05-29T09:20:23.000Z</time></trkpt><trkpt lon="5.798746" lat="51.039891"><ele>33</ele><time>2022-05-29T09:20:24.000Z</time></trkpt><trkpt lon="5.798788" lat="51.039975"><ele>33.2</ele><time>2022-05-29T09:20:25.000Z</time></trkpt><trkpt lon="5.798832" lat="51.040059"><ele>33.2</ele><time>2022-05-29T09:20:26.000Z</time></trkpt><trkpt lon="5.798879" lat="51.040142"><ele>33</ele><time>2022-05-29T09:20:27.000Z</time></trkpt><trkpt lon="5.798924" lat="51.040222"><ele>33</ele><time>2022-05-29T09:20:28.000Z</time></trkpt><trkpt lon="5.798962" lat="51.040301"><ele>33.2</ele><time>2022-05-29T09:20:29.000Z</time></trkpt><trkpt lon="5.798997" lat="51.040375"><ele>33.2</ele><time>2022-05-29T09:20:30.000Z</time></trkpt><trkpt lon="5.799043" lat="51.040459"><ele>33.2</ele><time>2022-05-29T09:20:31.000Z</time></trkpt><trkpt lon="5.799082" lat="51.040537"><ele>33</ele><time>2022-05-29T09:20:32.000Z</time></trkpt><trkpt lon="5.79912" lat="51.040613"><ele>33</ele><time>2022-05-29T09:20:33.000Z</time></trkpt><trkpt lon="5.799159" lat="51.040689"><ele>33</ele><time>2022-05-29T09:20:34.000Z</time></trkpt><trkpt lon="5.799198" lat="51.040765"><ele>33</ele><time>2022-05-29T09:20:35.000Z</time></trkpt><trkpt lon="5.799239" lat="51.040843"><ele>33</ele><time>2022-05-29T09:20:36.000Z</time></trkpt><trkpt lon="5.799278" lat="51.040919"><ele>33.2</ele><time>2022-05-29T09:20:37.000Z</time></trkpt><trkpt lon="5.799319" lat="51.040999"><ele>33.2</ele><time>2022-05-29T09:20:38.000Z</time></trkpt><trkpt lon="5.799357" lat="51.041075"><ele>33.2</ele><time>2022-05-29T09:20:39.000Z</time></trkpt><trkpt lon="5.799399" lat="51.041152"><ele>33.2</ele><time>2022-05-29T09:20:40.000Z</time></trkpt><trkpt lon="5.799437" lat="51.041228"><ele>33</ele><time>2022-05-29T09:20:41.000Z</time></trkpt><trkpt lon="5.799475" lat="51.041304"><ele>33</ele><time>2022-05-29T09:20:42.000Z</time></trkpt><trkpt lon="5.799513" lat="51.041379"><ele>33</ele><time>2022-05-29T09:20:43.000Z</time></trkpt><trkpt lon="5.799553" lat="51.041455"><ele>33</ele><time>2022-05-29T09:20:44.000Z</time></trkpt><trkpt lon="5.799593" lat="51.041533"><ele>33</ele><time>2022-05-29T09:20:45.000Z</time></trkpt><trkpt lon="5.799632" lat="51.04161"><ele>33</ele><time>2022-05-29T09:20:46.000Z</time></trkpt><trkpt lon="5.799672" lat="51.041686"><ele>33</ele><time>2022-05-29T09:20:47.000Z</time></trkpt><trkpt lon="5.799712" lat="51.041761"><ele>33</ele><time>2022-05-29T09:20:48.000Z</time></trkpt><trkpt lon="5.79975" lat="51.041838"><ele>33</ele><time>2022-05-29T09:20:49.000Z</time></trkpt><trkpt lon="5.79979" lat="51.041917"><ele>33</ele><time>2022-05-29T09:20:50.000Z</time></trkpt><trkpt lon="5.799828" lat="51.041994"><ele>33</ele><time>2022-05-29T09:20:51.000Z</time></trkpt><trkpt lon="5.799865" lat="51.04207"><ele>33</ele><time>2022-05-29T09:20:52.000Z</time></trkpt><trkpt lon="5.799902" lat="51.042148"><ele>33</ele><time>2022-05-29T09:20:53.000Z</time></trkpt><trkpt lon="5.799938" lat="51.042223"><ele>33</ele><time>2022-05-29T09:20:54.000Z</time></trkpt><trkpt lon="5.799976" lat="51.042305"><ele>33</ele><time>2022-05-29T09:20:55.000Z</time></trkpt><trkpt lon="5.800012" lat="51.042378"><ele>33</ele><time>2022-05-29T09:20:56.000Z</time></trkpt><trkpt lon="5.800051" lat="51.042461"><ele>33</ele><time>2022-05-29T09:20:57.000Z</time></trkpt><trkpt lon="5.800087" lat="51.042538"><ele>33</ele><time>2022-05-29T09:20:58.000Z</time></trkpt><trkpt lon="5.800122" lat="51.042614"><ele>33</ele><time>2022-05-29T09:20:59.000Z</time></trkpt><trkpt lon="5.800163" lat="51.042696"><ele>33</ele><time>2022-05-29T09:21:00.000Z</time></trkpt><trkpt lon="5.8002" lat="51.04277"><ele>33.2</ele><time>2022-05-29T09:21:01.000Z</time></trkpt><trkpt lon="5.800237" lat="51.04285"><ele>33.2</ele><time>2022-05-29T09:21:02.000Z</time></trkpt><trkpt lon="5.800272" lat="51.042927"><ele>33.2</ele><time>2022-05-29T09:21:03.000Z</time></trkpt><trkpt lon="5.800309" lat="51.043006"><ele>33.2</ele><time>2022-05-29T09:21:04.000Z</time></trkpt><trkpt lon="5.800347" lat="51.043083"><ele>33</ele><time>2022-05-29T09:21:05.000Z</time></trkpt><trkpt lon="5.800384" lat="51.043163"><ele>33</ele><time>2022-05-29T09:21:06.000Z</time></trkpt><trkpt lon="5.80042" lat="51.043242"><ele>32.8</ele><time>2022-05-29T09:21:07.000Z</time></trkpt><trkpt lon="5.80046" lat="51.043318"><ele>32.8</ele><time>2022-05-29T09:21:08.000Z</time></trkpt><trkpt lon="5.800496" lat="51.043394"><ele>32.8</ele><time>2022-05-29T09:21:09.000Z</time></trkpt><trkpt lon="5.800535" lat="51.043474"><ele>32.8</ele><time>2022-05-29T09:21:10.000Z</time></trkpt><trkpt lon="5.800571" lat="51.04355"><ele>32.8</ele><time>2022-05-29T09:21:11.000Z</time></trkpt><trkpt lon="5.80061" lat="51.043626"><ele>32.8</ele><time>2022-05-29T09:21:12.000Z</time></trkpt><trkpt lon="5.800649" lat="51.043704"><ele>32.8</ele><time>2022-05-29T09:21:13.000Z</time></trkpt><trkpt lon="5.800687" lat="51.043779"><ele>32.8</ele><time>2022-05-29T09:21:14.000Z</time></trkpt><trkpt lon="5.800728" lat="51.043857"><ele>32.6</ele><time>2022-05-29T09:21:15.000Z</time></trkpt><trkpt lon="5.800767" lat="51.043933"><ele>32.6</ele><time>2022-05-29T09:21:16.000Z</time></trkpt><trkpt lon="5.800807" lat="51.044009"><ele>32.6</ele><time>2022-05-29T09:21:17.000Z</time></trkpt><trkpt lon="5.800847" lat="51.044088"><ele>32.4</ele><time>2022-05-29T09:21:18.000Z</time></trkpt><trkpt lon="5.80089" lat="51.044165"><ele>32.2</ele><time>2022-05-29T09:21:19.000Z</time></trkpt><trkpt lon="5.800931" lat="51.04424"><ele>32</ele><time>2022-05-29T09:21:20.000Z</time></trkpt><trkpt lon="5.80097" lat="51.044317"><ele>31.8</ele><time>2022-05-29T09:21:21.000Z</time></trkpt><trkpt lon="5.801009" lat="51.044393"><ele>31.6</ele><time>2022-05-29T09:21:22.000Z</time></trkpt><trkpt lon="5.801045" lat="51.04446"><ele>31.6</ele><time>2022-05-29T09:21:23.000Z</time></trkpt><trkpt lon="5.80108" lat="51.044531"><ele>31.6</ele><time>2022-05-29T09:21:24.000Z</time></trkpt><trkpt lon="5.801117" lat="51.044594"><ele>31.4</ele><time>2022-05-29T09:21:25.000Z</time></trkpt><trkpt lon="5.801153" lat="51.044662"><ele>31.2</ele><time>2022-05-29T09:21:26.000Z</time></trkpt><trkpt lon="5.801174" lat="51.044722"><ele>31.2</ele><time>2022-05-29T09:21:27.000Z</time></trkpt><trkpt lon="5.801177" lat="51.044783"><ele>31</ele><time>2022-05-29T09:21:28.000Z</time></trkpt><trkpt lon="5.801152" lat="51.044835"><ele>31</ele><time>2022-05-29T09:21:29.000Z</time></trkpt><trkpt lon="5.801098" lat="51.044873"><ele>30.8</ele><time>2022-05-29T09:21:30.000Z</time></trkpt><trkpt lon="5.801021" lat="51.044894"><ele>30.8</ele><time>2022-05-29T09:21:31.000Z</time></trkpt><trkpt lon="5.800929" lat="51.044882"><ele>30.6</ele><time>2022-05-29T09:21:32.000Z</time></trkpt><trkpt lon="5.800845" lat="51.044849"><ele>30.6</ele><time>2022-05-29T09:21:33.000Z</time></trkpt><trkpt lon="5.80077" lat="51.044807"><ele>30.6</ele><time>2022-05-29T09:21:34.000Z</time></trkpt><trkpt lon="5.800698" lat="51.044765"><ele>30.8</ele><time>2022-05-29T09:21:35.000Z</time></trkpt><trkpt lon="5.800623" lat="51.044715"><ele>30.8</ele><time>2022-05-29T09:21:36.000Z</time></trkpt><trkpt lon="5.800545" lat="51.044666"><ele>30.8</ele><time>2022-05-29T09:21:37.000Z</time></trkpt><trkpt lon="5.800465" lat="51.04462"><ele>30.8</ele><time>2022-05-29T09:21:38.000Z</time></trkpt><trkpt lon="5.800385" lat="51.044575"><ele>31</ele><time>2022-05-29T09:21:39.000Z</time></trkpt><trkpt lon="5.800306" lat="51.044539"><ele>31.2</ele><time>2022-05-29T09:21:40.000Z</time></trkpt><trkpt lon="5.800227" lat="51.044503"><ele>31.4</ele><time>2022-05-29T09:21:41.000Z</time></trkpt><trkpt lon="5.800156" lat="51.044465"><ele>31.6</ele><time>2022-05-29T09:21:42.000Z</time></trkpt><trkpt lon="5.800085" lat="51.044427"><ele>31.6</ele><time>2022-05-29T09:21:43.000Z</time></trkpt><trkpt lon="5.800015" lat="51.044382"><ele>31.6</ele><time>2022-05-29T09:21:44.000Z</time></trkpt><trkpt lon="5.799953" lat="51.044329"><ele>31.8</ele><time>2022-05-29T09:21:45.000Z</time></trkpt><trkpt lon="5.799896" lat="51.044278"><ele>31.8</ele><time>2022-05-29T09:21:46.000Z</time></trkpt><trkpt lon="5.799828" lat="51.044217"><ele>32</ele><time>2022-05-29T09:21:47.000Z</time></trkpt><trkpt lon="5.799764" lat="51.04416"><ele>32</ele><time>2022-05-29T09:21:48.000Z</time></trkpt><trkpt lon="5.799704" lat="51.044103"><ele>32.2</ele><time>2022-05-29T09:21:49.000Z</time></trkpt><trkpt lon="5.799648" lat="51.044047"><ele>32.2</ele><time>2022-05-29T09:21:50.000Z</time></trkpt><trkpt lon="5.799589" lat="51.043992"><ele>32.4</ele><time>2022-05-29T09:21:51.000Z</time></trkpt><trkpt lon="5.799525" lat="51.043935"><ele>32.6</ele><time>2022-05-29T09:21:52.000Z</time></trkpt><trkpt lon="5.799456" lat="51.043884"><ele>32.6</ele><time>2022-05-29T09:21:53.000Z</time></trkpt><trkpt lon="5.799379" lat="51.043843"><ele>32.6</ele><time>2022-05-29T09:21:54.000Z</time></trkpt><trkpt lon="5.799292" lat="51.043805"><ele>32.6</ele><time>2022-05-29T09:21:55.000Z</time></trkpt><trkpt lon="5.799193" lat="51.043768"><ele>32.6</ele><time>2022-05-29T09:21:56.000Z</time></trkpt><trkpt lon="5.799093" lat="51.043737"><ele>32.6</ele><time>2022-05-29T09:21:57.000Z</time></trkpt><trkpt lon="5.798991" lat="51.043703"><ele>32.8</ele><time>2022-05-29T09:21:58.000Z</time></trkpt><trkpt lon="5.798887" lat="51.043668"><ele>32.8</ele><time>2022-05-29T09:21:59.000Z</time></trkpt><trkpt lon="5.798781" lat="51.043634"><ele>32.8</ele><time>2022-05-29T09:22:00.000Z</time></trkpt><trkpt lon="5.798679" lat="51.043599"><ele>32.6</ele><time>2022-05-29T09:22:01.000Z</time></trkpt><trkpt lon="5.798576" lat="51.043561"><ele>32.4</ele><time>2022-05-29T09:22:02.000Z</time></trkpt><trkpt lon="5.798477" lat="51.043528"><ele>32.4</ele><time>2022-05-29T09:22:03.000Z</time></trkpt><trkpt lon="5.798372" lat="51.043498"><ele>32.2</ele><time>2022-05-29T09:22:04.000Z</time></trkpt><trkpt lon="5.798266" lat="51.043469"><ele>32.2</ele><time>2022-05-29T09:22:05.000Z</time></trkpt><trkpt lon="5.798161" lat="51.043436"><ele>32.2</ele><time>2022-05-29T09:22:06.000Z</time></trkpt><trkpt lon="5.798056" lat="51.043405"><ele>32.4</ele><time>2022-05-29T09:22:07.000Z</time></trkpt><trkpt lon="5.797945" lat="51.043371"><ele>32.4</ele><time>2022-05-29T09:22:08.000Z</time></trkpt><trkpt lon="5.797838" lat="51.043341"><ele>32.4</ele><time>2022-05-29T09:22:09.000Z</time></trkpt><trkpt lon="5.797728" lat="51.043311"><ele>32.4</ele><time>2022-05-29T09:22:10.000Z</time></trkpt><trkpt lon="5.797625" lat="51.043282"><ele>32.2</ele><time>2022-05-29T09:22:11.000Z</time></trkpt><trkpt lon="5.797514" lat="51.04325"><ele>32.2</ele><time>2022-05-29T09:22:12.000Z</time></trkpt><trkpt lon="5.797404" lat="51.043216"><ele>32</ele><time>2022-05-29T09:22:13.000Z</time></trkpt><trkpt lon="5.797292" lat="51.043184"><ele>32</ele><time>2022-05-29T09:22:14.000Z</time></trkpt><trkpt lon="5.797185" lat="51.043153"><ele>32</ele><time>2022-05-29T09:22:15.000Z</time></trkpt><trkpt lon="5.797078" lat="51.043119"><ele>32.2</ele><time>2022-05-29T09:22:16.000Z</time></trkpt><trkpt lon="5.796974" lat="51.043088"><ele>32.4</ele><time>2022-05-29T09:22:17.000Z</time></trkpt><trkpt lon="5.796871" lat="51.043055"><ele>32.6</ele><time>2022-05-29T09:22:18.000Z</time></trkpt><trkpt lon="5.796776" lat="51.043029"><ele>32.8</ele><time>2022-05-29T09:22:19.000Z</time></trkpt><trkpt lon="5.796681" lat="51.043"><ele>33</ele><time>2022-05-29T09:22:20.000Z</time></trkpt><trkpt lon="5.796585" lat="51.042966"><ele>33</ele><time>2022-05-29T09:22:21.000Z</time></trkpt><trkpt lon="5.796493" lat="51.042933"><ele>33</ele><time>2022-05-29T09:22:22.000Z</time></trkpt><trkpt lon="5.796405" lat="51.042909"><ele>33</ele><time>2022-05-29T09:22:23.000Z</time></trkpt><trkpt lon="5.796317" lat="51.042895"><ele>33.2</ele><time>2022-05-29T09:22:24.000Z</time></trkpt><trkpt lon="5.796226" lat="51.042887"><ele>33</ele><time>2022-05-29T09:22:25.000Z</time></trkpt><trkpt lon="5.796137" lat="51.042881"><ele>33</ele><time>2022-05-29T09:22:26.000Z</time></trkpt><trkpt lon="5.796051" lat="51.042882"><ele>33</ele><time>2022-05-29T09:22:27.000Z</time></trkpt><trkpt lon="5.795963" lat="51.042884"><ele>33</ele><time>2022-05-29T09:22:28.000Z</time></trkpt><trkpt lon="5.795868" lat="51.04288"><ele>33</ele><time>2022-05-29T09:22:29.000Z</time></trkpt><trkpt lon="5.795773" lat="51.042876"><ele>33</ele><time>2022-05-29T09:22:30.000Z</time></trkpt><trkpt lon="5.79568" lat="51.042868"><ele>33</ele><time>2022-05-29T09:22:31.000Z</time></trkpt><trkpt lon="5.795592" lat="51.042861"><ele>33</ele><time>2022-05-29T09:22:32.000Z</time></trkpt><trkpt lon="5.795501" lat="51.042853"><ele>33</ele><time>2022-05-29T09:22:33.000Z</time></trkpt><trkpt lon="5.795408" lat="51.042845"><ele>32.8</ele><time>2022-05-29T09:22:34.000Z</time></trkpt><trkpt lon="5.795315" lat="51.042838"><ele>32.8</ele><time>2022-05-29T09:22:35.000Z</time></trkpt><trkpt lon="5.795222" lat="51.042836"><ele>32.8</ele><time>2022-05-29T09:22:36.000Z</time></trkpt><trkpt lon="5.795122" lat="51.042844"><ele>33</ele><time>2022-05-29T09:22:37.000Z</time></trkpt><trkpt lon="5.795049" lat="51.042872"><ele>33</ele><time>2022-05-29T09:22:38.000Z</time></trkpt><trkpt lon="5.794996" lat="51.042911"><ele>33</ele><time>2022-05-29T09:22:39.000Z</time></trkpt><trkpt lon="5.79496" lat="51.04296"><ele>33.2</ele><time>2022-05-29T09:22:40.000Z</time></trkpt><trkpt lon="5.794934" lat="51.043017"><ele>33.2</ele><time>2022-05-29T09:22:41.000Z</time></trkpt><trkpt lon="5.794916" lat="51.043077"><ele>33.2</ele><time>2022-05-29T09:22:42.000Z</time></trkpt><trkpt lon="5.794902" lat="51.043134"><ele>33.2</ele><time>2022-05-29T09:22:43.000Z</time></trkpt><trkpt lon="5.794878" lat="51.043204"><ele>33.2</ele><time>2022-05-29T09:22:44.000Z</time></trkpt><trkpt lon="5.794859" lat="51.043279"><ele>33.2</ele><time>2022-05-29T09:22:45.000Z</time></trkpt><trkpt lon="5.794841" lat="51.043348"><ele>33.2</ele><time>2022-05-29T09:22:46.000Z</time></trkpt><trkpt lon="5.794817" lat="51.043415"><ele>33.2</ele><time>2022-05-29T09:22:47.000Z</time></trkpt><trkpt lon="5.794795" lat="51.043483"><ele>33.4</ele><time>2022-05-29T09:22:48.000Z</time></trkpt><trkpt lon="5.794779" lat="51.043557"><ele>33.2</ele><time>2022-05-29T09:22:49.000Z</time></trkpt><trkpt lon="5.794768" lat="51.043626"><ele>33.2</ele><time>2022-05-29T09:22:50.000Z</time></trkpt><trkpt lon="5.794756" lat="51.043699"><ele>33.4</ele><time>2022-05-29T09:22:51.000Z</time></trkpt><trkpt lon="5.794743" lat="51.043771"><ele>33.4</ele><time>2022-05-29T09:22:52.000Z</time></trkpt><trkpt lon="5.794734" lat="51.043839"><ele>33.4</ele><time>2022-05-29T09:22:53.000Z</time></trkpt><trkpt lon="5.794727" lat="51.043903"><ele>33.4</ele><time>2022-05-29T09:22:54.000Z</time></trkpt><trkpt lon="5.794718" lat="51.043969"><ele>33.2</ele><time>2022-05-29T09:22:55.000Z</time></trkpt><trkpt lon="5.794702" lat="51.04403"><ele>33.4</ele><time>2022-05-29T09:22:56.000Z</time></trkpt><trkpt lon="5.794688" lat="51.044096"><ele>33.4</ele><time>2022-05-29T09:22:57.000Z</time></trkpt><trkpt lon="5.794678" lat="51.044162"><ele>33.4</ele><time>2022-05-29T09:22:58.000Z</time></trkpt><trkpt lon="5.794663" lat="51.04422"><ele>33.4</ele><time>2022-05-29T09:22:59.000Z</time></trkpt><trkpt lon="5.794634" lat="51.044275"><ele>33.4</ele><time>2022-05-29T09:23:00.000Z</time></trkpt><trkpt lon="5.79459" lat="51.044319"><ele>33.4</ele><time>2022-05-29T09:23:01.000Z</time></trkpt><trkpt lon="5.794528" lat="51.044359"><ele>33.4</ele><time>2022-05-29T09:23:02.000Z</time></trkpt><trkpt lon="5.794451" lat="51.044386"><ele>33.2</ele><time>2022-05-29T09:23:03.000Z</time></trkpt><trkpt lon="5.794368" lat="51.044395"><ele>33.2</ele><time>2022-05-29T09:23:04.000Z</time></trkpt><trkpt lon="5.794279" lat="51.044395"><ele>33.2</ele><time>2022-05-29T09:23:05.000Z</time></trkpt><trkpt lon="5.794179" lat="51.044392"><ele>33.2</ele><time>2022-05-29T09:23:06.000Z</time></trkpt><trkpt lon="5.794086" lat="51.044391"><ele>33</ele><time>2022-05-29T09:23:07.000Z</time></trkpt><trkpt lon="5.793981" lat="51.044387"><ele>33</ele><time>2022-05-29T09:23:08.000Z</time></trkpt><trkpt lon="5.793875" lat="51.044383"><ele>33</ele><time>2022-05-29T09:23:09.000Z</time></trkpt><trkpt lon="5.793769" lat="51.044379"><ele>33</ele><time>2022-05-29T09:23:10.000Z</time></trkpt><trkpt lon="5.793662" lat="51.044376"><ele>33</ele><time>2022-05-29T09:23:11.000Z</time></trkpt><trkpt lon="5.793559" lat="51.044371"><ele>33</ele><time>2022-05-29T09:23:12.000Z</time></trkpt><trkpt lon="5.793449" lat="51.04436"><ele>33.2</ele><time>2022-05-29T09:23:13.000Z</time></trkpt><trkpt lon="5.793353" lat="51.044352"><ele>33.2</ele><time>2022-05-29T09:23:14.000Z</time></trkpt><trkpt lon="5.793261" lat="51.044345"><ele>33.2</ele><time>2022-05-29T09:23:15.000Z</time></trkpt><trkpt lon="5.793179" lat="51.044342"><ele>33.2</ele><time>2022-05-29T09:23:16.000Z</time></trkpt><trkpt lon="5.793104" lat="51.044343"><ele>33.2</ele><time>2022-05-29T09:23:17.000Z</time></trkpt><trkpt lon="5.793028" lat="51.044349"><ele>33.2</ele><time>2022-05-29T09:23:18.000Z</time></trkpt><trkpt lon="5.792969" lat="51.044366"><ele>33.2</ele><time>2022-05-29T09:23:19.000Z</time></trkpt><trkpt lon="5.792936" lat="51.044393"><ele>33.2</ele><time>2022-05-29T09:23:20.000Z</time></trkpt><trkpt lon="5.792914" lat="51.044429"><ele>33.2</ele><time>2022-05-29T09:23:21.000Z</time></trkpt><trkpt lon="5.792899" lat="51.044492"><ele>33.2</ele><time>2022-05-29T09:23:22.000Z</time></trkpt><trkpt lon="5.792886" lat="51.044579"><ele>33.2</ele><time>2022-05-29T09:23:23.000Z</time></trkpt><trkpt lon="5.792874" lat="51.044658"><ele>33.2</ele><time>2022-05-29T09:23:24.000Z</time></trkpt><trkpt lon="5.792862" lat="51.044733"><ele>33</ele><time>2022-05-29T09:23:25.000Z</time></trkpt><trkpt lon="5.792854" lat="51.044804"><ele>33</ele><time>2022-05-29T09:23:26.000Z</time></trkpt><trkpt lon="5.792847" lat="51.04487"><ele>33</ele><time>2022-05-29T09:23:27.000Z</time></trkpt><trkpt lon="5.792839" lat="51.044937"><ele>33</ele><time>2022-05-29T09:23:28.000Z</time></trkpt><trkpt lon="5.792834" lat="51.044996"><ele>33</ele><time>2022-05-29T09:23:29.000Z</time></trkpt><trkpt lon="5.792839" lat="51.045048"><ele>33</ele><time>2022-05-29T09:23:30.000Z</time></trkpt><trkpt lon="5.79286" lat="51.045089"><ele>33</ele><time>2022-05-29T09:23:31.000Z</time></trkpt><trkpt lon="5.792894" lat="51.045125"><ele>33</ele><time>2022-05-29T09:23:32.000Z</time></trkpt><trkpt lon="5.792957" lat="51.045154"><ele>33</ele><time>2022-05-29T09:23:33.000Z</time></trkpt><trkpt lon="5.793041" lat="51.045178"><ele>33</ele><time>2022-05-29T09:23:34.000Z</time></trkpt><trkpt lon="5.79313" lat="51.045199"><ele>33</ele><time>2022-05-29T09:23:35.000Z</time></trkpt><trkpt lon="5.793228" lat="51.045215"><ele>33.2</ele><time>2022-05-29T09:23:36.000Z</time></trkpt><trkpt lon="5.793327" lat="51.045234"><ele>33</ele><time>2022-05-29T09:23:37.000Z</time></trkpt><trkpt lon="5.793429" lat="51.045254"><ele>33.2</ele><time>2022-05-29T09:23:38.000Z</time></trkpt><trkpt lon="5.793535" lat="51.045273"><ele>33.2</ele><time>2022-05-29T09:23:39.000Z</time></trkpt><trkpt lon="5.793641" lat="51.045292"><ele>33.2</ele><time>2022-05-29T09:23:40.000Z</time></trkpt><trkpt lon="5.793753" lat="51.045314"><ele>33.2</ele><time>2022-05-29T09:23:41.000Z</time></trkpt><trkpt lon="5.793868" lat="51.045334"><ele>33.2</ele><time>2022-05-29T09:23:42.000Z</time></trkpt><trkpt lon="5.793984" lat="51.045353"><ele>33.2</ele><time>2022-05-29T09:23:43.000Z</time></trkpt><trkpt lon="5.7941" lat="51.045371"><ele>33</ele><time>2022-05-29T09:23:44.000Z</time></trkpt><trkpt lon="5.794218" lat="51.045391"><ele>33.2</ele><time>2022-05-29T09:23:45.000Z</time></trkpt><trkpt lon="5.794335" lat="51.04541"><ele>33.2</ele><time>2022-05-29T09:23:46.000Z</time></trkpt><trkpt lon="5.794453" lat="51.045429"><ele>33.2</ele><time>2022-05-29T09:23:47.000Z</time></trkpt><trkpt lon="5.794571" lat="51.045448"><ele>33.2</ele><time>2022-05-29T09:23:48.000Z</time></trkpt><trkpt lon="5.794689" lat="51.045466"><ele>33.2</ele><time>2022-05-29T09:23:49.000Z</time></trkpt><trkpt lon="5.794804" lat="51.045483"><ele>33.2</ele><time>2022-05-29T09:23:50.000Z</time></trkpt><trkpt lon="5.794923" lat="51.045504"><ele>33.4</ele><time>2022-05-29T09:23:51.000Z</time></trkpt><trkpt lon="5.79504" lat="51.045521"><ele>33.4</ele><time>2022-05-29T09:23:52.000Z</time></trkpt><trkpt lon="5.795153" lat="51.045539"><ele>33.4</ele><time>2022-05-29T09:23:53.000Z</time></trkpt><trkpt lon="5.795263" lat="51.045556"><ele>33.4</ele><time>2022-05-29T09:23:54.000Z</time></trkpt><trkpt lon="5.795377" lat="51.045571"><ele>33.4</ele><time>2022-05-29T09:23:55.000Z</time></trkpt><trkpt lon="5.795501" lat="51.045591"><ele>33.4</ele><time>2022-05-29T09:23:56.000Z</time></trkpt><trkpt lon="5.795622" lat="51.045611"><ele>33.2</ele><time>2022-05-29T09:23:57.000Z</time></trkpt><trkpt lon="5.795732" lat="51.045629"><ele>33.2</ele><time>2022-05-29T09:23:58.000Z</time></trkpt><trkpt lon="5.795859" lat="51.04565"><ele>33.4</ele><time>2022-05-29T09:23:59.000Z</time></trkpt><trkpt lon="5.795975" lat="51.045669"><ele>33.4</ele><time>2022-05-29T09:24:00.000Z</time></trkpt><trkpt lon="5.796092" lat="51.045688"><ele>33.4</ele><time>2022-05-29T09:24:01.000Z</time></trkpt><trkpt lon="5.796207" lat="51.045703"><ele>33.4</ele><time>2022-05-29T09:24:02.000Z</time></trkpt><trkpt lon="5.796322" lat="51.045722"><ele>33.2</ele><time>2022-05-29T09:24:03.000Z</time></trkpt><trkpt lon="5.796443" lat="51.045741"><ele>33.2</ele><time>2022-05-29T09:24:04.000Z</time></trkpt><trkpt lon="5.796562" lat="51.045757"><ele>33.2</ele><time>2022-05-29T09:24:05.000Z</time></trkpt><trkpt lon="5.796678" lat="51.045776"><ele>33.2</ele><time>2022-05-29T09:24:06.000Z</time></trkpt><trkpt lon="5.796796" lat="51.045795"><ele>33.2</ele><time>2022-05-29T09:24:07.000Z</time></trkpt><trkpt lon="5.796912" lat="51.045814"><ele>33</ele><time>2022-05-29T09:24:08.000Z</time></trkpt><trkpt lon="5.79703" lat="51.045833"><ele>33</ele><time>2022-05-29T09:24:09.000Z</time></trkpt><trkpt lon="5.797147" lat="51.045852"><ele>33</ele><time>2022-05-29T09:24:10.000Z</time></trkpt><trkpt lon="5.797264" lat="51.045871"><ele>33</ele><time>2022-05-29T09:24:11.000Z</time></trkpt><trkpt lon="5.797382" lat="51.045887"><ele>33</ele><time>2022-05-29T09:24:12.000Z</time></trkpt><trkpt lon="5.797499" lat="51.045906"><ele>33</ele><time>2022-05-29T09:24:13.000Z</time></trkpt><trkpt lon="5.797613" lat="51.045925"><ele>33</ele><time>2022-05-29T09:24:14.000Z</time></trkpt><trkpt lon="5.797728" lat="51.045944"><ele>33</ele><time>2022-05-29T09:24:15.000Z</time></trkpt><trkpt lon="5.797843" lat="51.045963"><ele>33</ele><time>2022-05-29T09:24:16.000Z</time></trkpt><trkpt lon="5.797959" lat="51.045981"><ele>33</ele><time>2022-05-29T09:24:17.000Z</time></trkpt><trkpt lon="5.798075" lat="51.045997"><ele>33</ele><time>2022-05-29T09:24:18.000Z</time></trkpt><trkpt lon="5.798186" lat="51.046012"><ele>33</ele><time>2022-05-29T09:24:19.000Z</time></trkpt><trkpt lon="5.798296" lat="51.046028"><ele>33</ele><time>2022-05-29T09:24:20.000Z</time></trkpt><trkpt lon="5.798402" lat="51.046046"><ele>32.8</ele><time>2022-05-29T09:24:21.000Z</time></trkpt><trkpt lon="5.798505" lat="51.046061"><ele>32.8</ele><time>2022-05-29T09:24:22.000Z</time></trkpt><trkpt lon="5.798605" lat="51.046077"><ele>32.8</ele><time>2022-05-29T09:24:23.000Z</time></trkpt><trkpt lon="5.798691" lat="51.046091"><ele>32.8</ele><time>2022-05-29T09:24:24.000Z</time></trkpt><trkpt lon="5.798776" lat="51.046113"><ele>32.8</ele><time>2022-05-29T09:24:25.000Z</time></trkpt><trkpt lon="5.798833" lat="51.046142"><ele>33</ele><time>2022-05-29T09:24:26.000Z</time></trkpt><trkpt lon="5.798858" lat="51.046182"><ele>33</ele><time>2022-05-29T09:24:27.000Z</time></trkpt><trkpt lon="5.79884" lat="51.046231"><ele>33.2</ele><time>2022-05-29T09:24:28.000Z</time></trkpt><trkpt lon="5.798798" lat="51.046276"><ele>33.2</ele><time>2022-05-29T09:24:29.000Z</time></trkpt><trkpt lon="5.798732" lat="51.046312"><ele>33</ele><time>2022-05-29T09:24:30.000Z</time></trkpt><trkpt lon="5.798647" lat="51.046341"><ele>33</ele><time>2022-05-29T09:24:31.000Z</time></trkpt><trkpt lon="5.798553" lat="51.046358"><ele>32.8</ele><time>2022-05-29T09:24:32.000Z</time></trkpt><trkpt lon="5.798457" lat="51.046364"><ele>32.6</ele><time>2022-05-29T09:24:33.000Z</time></trkpt><trkpt lon="5.798362" lat="51.046367"><ele>32.4</ele><time>2022-05-29T09:24:34.000Z</time></trkpt><trkpt lon="5.798264" lat="51.046381"><ele>32.2</ele><time>2022-05-29T09:24:35.000Z</time></trkpt><trkpt lon="5.798173" lat="51.046393"><ele>32</ele><time>2022-05-29T09:24:36.000Z</time></trkpt><trkpt lon="5.798092" lat="51.046406"><ele>31.8</ele><time>2022-05-29T09:24:37.000Z</time></trkpt><trkpt lon="5.798028" lat="51.046429"><ele>31.6</ele><time>2022-05-29T09:24:38.000Z</time></trkpt><trkpt lon="5.797992" lat="51.046454"><ele>31.4</ele><time>2022-05-29T09:24:39.000Z</time></trkpt><trkpt lon="5.798" lat="51.046482"><ele>31.4</ele><time>2022-05-29T09:24:40.000Z</time></trkpt><trkpt lon="5.79805" lat="51.046503"><ele>31.2</ele><time>2022-05-29T09:24:41.000Z</time></trkpt><trkpt lon="5.798126" lat="51.046514"><ele>31.2</ele><time>2022-05-29T09:24:42.000Z</time></trkpt><trkpt lon="5.798211" lat="51.046522"><ele>31</ele><time>2022-05-29T09:24:43.000Z</time></trkpt><trkpt lon="5.79831" lat="51.046538"><ele>31</ele><time>2022-05-29T09:24:44.000Z</time></trkpt><trkpt lon="5.798413" lat="51.046554"><ele>31</ele><time>2022-05-29T09:24:45.000Z</time></trkpt><trkpt lon="5.798516" lat="51.046572"><ele>31</ele><time>2022-05-29T09:24:46.000Z</time></trkpt><trkpt lon="5.798614" lat="51.046586"><ele>31</ele><time>2022-05-29T09:24:47.000Z</time></trkpt><trkpt lon="5.798727" lat="51.046603"><ele>31.2</ele><time>2022-05-29T09:24:48.000Z</time></trkpt><trkpt lon="5.798833" lat="51.046623"><ele>31.4</ele><time>2022-05-29T09:24:49.000Z</time></trkpt><trkpt lon="5.79894" lat="51.046641"><ele>31.6</ele><time>2022-05-29T09:24:50.000Z</time></trkpt><trkpt lon="5.799045" lat="51.046657"><ele>31.8</ele><time>2022-05-29T09:24:51.000Z</time></trkpt><trkpt lon="5.799148" lat="51.046672"><ele>32</ele><time>2022-05-29T09:24:52.000Z</time></trkpt><trkpt lon="5.799251" lat="51.046691"><ele>32.2</ele><time>2022-05-29T09:24:53.000Z</time></trkpt><trkpt lon="5.799354" lat="51.046706"><ele>32.6</ele><time>2022-05-29T09:24:54.000Z</time></trkpt><trkpt lon="5.799459" lat="51.046722"><ele>33</ele><time>2022-05-29T09:24:55.000Z</time></trkpt><trkpt lon="5.799563" lat="51.046741"><ele>33.2</ele><time>2022-05-29T09:24:56.000Z</time></trkpt><trkpt lon="5.799668" lat="51.046756"><ele>33.6</ele><time>2022-05-29T09:24:57.000Z</time></trkpt><trkpt lon="5.799771" lat="51.046772"><ele>34</ele><time>2022-05-29T09:24:58.000Z</time></trkpt><trkpt lon="5.799873" lat="51.04679"><ele>34.4</ele><time>2022-05-29T09:24:59.000Z</time></trkpt><trkpt lon="5.799976" lat="51.046805"><ele>34.8</ele><time>2022-05-29T09:25:00.000Z</time></trkpt><trkpt lon="5.800079" lat="51.046821"><ele>35.2</ele><time>2022-05-29T09:25:01.000Z</time></trkpt><trkpt lon="5.800184" lat="51.04684"><ele>35.6</ele><time>2022-05-29T09:25:02.000Z</time></trkpt><trkpt lon="5.800285" lat="51.046855"><ele>36</ele><time>2022-05-29T09:25:03.000Z</time></trkpt><trkpt lon="5.800391" lat="51.046874"><ele>36.4</ele><time>2022-05-29T09:25:04.000Z</time></trkpt><trkpt lon="5.800494" lat="51.046891"><ele>36.6</ele><time>2022-05-29T09:25:05.000Z</time></trkpt><trkpt lon="5.800595" lat="51.046914"><ele>37.2</ele><time>2022-05-29T09:25:06.000Z</time></trkpt><trkpt lon="5.800693" lat="51.046942"><ele>37.6</ele><time>2022-05-29T09:25:07.000Z</time></trkpt><trkpt lon="5.800791" lat="51.046972"><ele>38</ele><time>2022-05-29T09:25:08.000Z</time></trkpt><trkpt lon="5.800888" lat="51.046999"><ele>38.4</ele><time>2022-05-29T09:25:09.000Z</time></trkpt><trkpt lon="5.800984" lat="51.04703"><ele>38.8</ele><time>2022-05-29T09:25:10.000Z</time></trkpt><trkpt lon="5.80108" lat="51.047063"><ele>39.2</ele><time>2022-05-29T09:25:11.000Z</time></trkpt><trkpt lon="5.801173" lat="51.047094"><ele>39.6</ele><time>2022-05-29T09:25:12.000Z</time></trkpt><trkpt lon="5.801266" lat="51.047124"><ele>39.8</ele><time>2022-05-29T09:25:13.000Z</time></trkpt><trkpt lon="5.801362" lat="51.047155"><ele>40</ele><time>2022-05-29T09:25:14.000Z</time></trkpt><trkpt lon="5.801458" lat="51.047186"><ele>40.2</ele><time>2022-05-29T09:25:15.000Z</time></trkpt><trkpt lon="5.80155" lat="51.047216"><ele>40.4</ele><time>2022-05-29T09:25:16.000Z</time></trkpt><trkpt lon="5.801642" lat="51.047246"><ele>40.6</ele><time>2022-05-29T09:25:17.000Z</time></trkpt><trkpt lon="5.801741" lat="51.047278"><ele>40.6</ele><time>2022-05-29T09:25:18.000Z</time></trkpt><trkpt lon="5.801838" lat="51.047312"><ele>40.8</ele><time>2022-05-29T09:25:19.000Z</time></trkpt><trkpt lon="5.801934" lat="51.047343"><ele>40.8</ele><time>2022-05-29T09:25:20.000Z</time></trkpt><trkpt lon="5.802031" lat="51.047377"><ele>40.6</ele><time>2022-05-29T09:25:21.000Z</time></trkpt><trkpt lon="5.802129" lat="51.047408"><ele>40.4</ele><time>2022-05-29T09:25:22.000Z</time></trkpt><trkpt lon="5.802229" lat="51.047446"><ele>40.2</ele><time>2022-05-29T09:25:23.000Z</time></trkpt><trkpt lon="5.802323" lat="51.047488"><ele>40</ele><time>2022-05-29T09:25:24.000Z</time></trkpt><trkpt lon="5.802419" lat="51.047542"><ele>39.8</ele><time>2022-05-29T09:25:25.000Z</time></trkpt><trkpt lon="5.8025" lat="51.047605"><ele>39.4</ele><time>2022-05-29T09:25:26.000Z</time></trkpt><trkpt lon="5.802572" lat="51.047674"><ele>39</ele><time>2022-05-29T09:25:27.000Z</time></trkpt><trkpt lon="5.802629" lat="51.047744"><ele>38.6</ele><time>2022-05-29T09:25:28.000Z</time></trkpt><trkpt lon="5.802683" lat="51.047829"><ele>38.2</ele><time>2022-05-29T09:25:29.000Z</time></trkpt><trkpt lon="5.80273" lat="51.047913"><ele>37.8</ele><time>2022-05-29T09:25:30.000Z</time></trkpt><trkpt lon="5.802773" lat="51.047998"><ele>37.2</ele><time>2022-05-29T09:25:31.000Z</time></trkpt><trkpt lon="5.802817" lat="51.048083"><ele>36.8</ele><time>2022-05-29T09:25:32.000Z</time></trkpt><trkpt lon="5.802862" lat="51.048174"><ele>36.2</ele><time>2022-05-29T09:25:33.000Z</time></trkpt><trkpt lon="5.802908" lat="51.048263"><ele>35.6</ele><time>2022-05-29T09:25:34.000Z</time></trkpt><trkpt lon="5.802954" lat="51.048355"><ele>35</ele><time>2022-05-29T09:25:35.000Z</time></trkpt><trkpt lon="5.803002" lat="51.048452"><ele>34.6</ele><time>2022-05-29T09:25:36.000Z</time></trkpt><trkpt lon="5.803049" lat="51.048545"><ele>34</ele><time>2022-05-29T09:25:37.000Z</time></trkpt><trkpt lon="5.803097" lat="51.048643"><ele>33.4</ele><time>2022-05-29T09:25:38.000Z</time></trkpt><trkpt lon="5.803146" lat="51.048739"><ele>32.8</ele><time>2022-05-29T09:25:39.000Z</time></trkpt><trkpt lon="5.803193" lat="51.048834"><ele>32.2</ele><time>2022-05-29T09:25:40.000Z</time></trkpt><trkpt lon="5.803241" lat="51.048931"><ele>31.6</ele><time>2022-05-29T09:25:41.000Z</time></trkpt><trkpt lon="5.803287" lat="51.049025"><ele>31.2</ele><time>2022-05-29T09:25:42.000Z</time></trkpt><trkpt lon="5.803334" lat="51.049116"><ele>30.8</ele><time>2022-05-29T09:25:43.000Z</time></trkpt><trkpt lon="5.803376" lat="51.049203"><ele>30.4</ele><time>2022-05-29T09:25:44.000Z</time></trkpt><trkpt lon="5.80342" lat="51.04929"><ele>29.8</ele><time>2022-05-29T09:25:45.000Z</time></trkpt><trkpt lon="5.803463" lat="51.049374"><ele>29.4</ele><time>2022-05-29T09:25:46.000Z</time></trkpt><trkpt lon="5.803505" lat="51.049457"><ele>29.2</ele><time>2022-05-29T09:25:47.000Z</time></trkpt><trkpt lon="5.803544" lat="51.049534"><ele>29</ele><time>2022-05-29T09:25:48.000Z</time></trkpt><trkpt lon="5.803582" lat="51.049614"><ele>29.2</ele><time>2022-05-29T09:25:49.000Z</time></trkpt><trkpt lon="5.80362" lat="51.049697"><ele>29.2</ele><time>2022-05-29T09:25:50.000Z</time></trkpt><trkpt lon="5.803659" lat="51.049774"><ele>29.4</ele><time>2022-05-29T09:25:51.000Z</time></trkpt><trkpt lon="5.803699" lat="51.049853"><ele>29.6</ele><time>2022-05-29T09:25:52.000Z</time></trkpt><trkpt lon="5.803736" lat="51.049932"><ele>29.6</ele><time>2022-05-29T09:25:53.000Z</time></trkpt><trkpt lon="5.803778" lat="51.050015"><ele>29.6</ele><time>2022-05-29T09:25:54.000Z</time></trkpt><trkpt lon="5.803817" lat="51.050094"><ele>29.6</ele><time>2022-05-29T09:25:55.000Z</time></trkpt><trkpt lon="5.803855" lat="51.050174"><ele>29.8</ele><time>2022-05-29T09:25:56.000Z</time></trkpt><trkpt lon="5.803892" lat="51.05025"><ele>29.8</ele><time>2022-05-29T09:25:57.000Z</time></trkpt><trkpt lon="5.803929" lat="51.050327"><ele>29.8</ele><time>2022-05-29T09:25:58.000Z</time></trkpt><trkpt lon="5.803967" lat="51.050407"><ele>29.8</ele><time>2022-05-29T09:25:59.000Z</time></trkpt><trkpt lon="5.804004" lat="51.050488"><ele>29.6</ele><time>2022-05-29T09:26:00.000Z</time></trkpt><trkpt lon="5.804042" lat="51.050566"><ele>29.6</ele><time>2022-05-29T09:26:01.000Z</time></trkpt><trkpt lon="5.804077" lat="51.050642"><ele>29.6</ele><time>2022-05-29T09:26:02.000Z</time></trkpt><trkpt lon="5.804114" lat="51.050719"><ele>29.6</ele><time>2022-05-29T09:26:03.000Z</time></trkpt><trkpt lon="5.804154" lat="51.050795"><ele>29.6</ele><time>2022-05-29T09:26:04.000Z</time></trkpt><trkpt lon="5.804192" lat="51.050868"><ele>29.4</ele><time>2022-05-29T09:26:05.000Z</time></trkpt><trkpt lon="5.804231" lat="51.050947"><ele>29.4</ele><time>2022-05-29T09:26:06.000Z</time></trkpt><trkpt lon="5.80427" lat="51.051025"><ele>29.4</ele><time>2022-05-29T09:26:07.000Z</time></trkpt><trkpt lon="5.804308" lat="51.051104"><ele>29.4</ele><time>2022-05-29T09:26:08.000Z</time></trkpt><trkpt lon="5.804348" lat="51.051181"><ele>29.4</ele><time>2022-05-29T09:26:09.000Z</time></trkpt><trkpt lon="5.804389" lat="51.051257"><ele>29.4</ele><time>2022-05-29T09:26:10.000Z</time></trkpt><trkpt lon="5.804427" lat="51.051333"><ele>29.4</ele><time>2022-05-29T09:26:11.000Z</time></trkpt><trkpt lon="5.804464" lat="51.051407"><ele>29.4</ele><time>2022-05-29T09:26:12.000Z</time></trkpt><trkpt lon="5.804502" lat="51.051486"><ele>29.6</ele><time>2022-05-29T09:26:13.000Z</time></trkpt><trkpt lon="5.80454" lat="51.051562"><ele>29.6</ele><time>2022-05-29T09:26:14.000Z</time></trkpt><trkpt lon="5.804578" lat="51.051638"><ele>29.6</ele><time>2022-05-29T09:26:15.000Z</time></trkpt><trkpt lon="5.804615" lat="51.051715"><ele>29.6</ele><time>2022-05-29T09:26:16.000Z</time></trkpt><trkpt lon="5.804652" lat="51.051791"><ele>29.6</ele><time>2022-05-29T09:26:17.000Z</time></trkpt><trkpt lon="5.804692" lat="51.051868"><ele>29.6</ele><time>2022-05-29T09:26:18.000Z</time></trkpt><trkpt lon="5.804732" lat="51.051947"><ele>29.6</ele><time>2022-05-29T09:26:19.000Z</time></trkpt><trkpt lon="5.804773" lat="51.052025"><ele>29.6</ele><time>2022-05-29T09:26:20.000Z</time></trkpt><trkpt lon="5.804812" lat="51.052105"><ele>29.6</ele><time>2022-05-29T09:26:21.000Z</time></trkpt><trkpt lon="5.804852" lat="51.052185"><ele>29.6</ele><time>2022-05-29T09:26:22.000Z</time></trkpt><trkpt lon="5.804891" lat="51.052264"><ele>29.6</ele><time>2022-05-29T09:26:23.000Z</time></trkpt><trkpt lon="5.80493" lat="51.052343"><ele>29.8</ele><time>2022-05-29T09:26:24.000Z</time></trkpt><trkpt lon="5.804969" lat="51.052417"><ele>29.8</ele><time>2022-05-29T09:26:25.000Z</time></trkpt><trkpt lon="5.805009" lat="51.05249"><ele>29.8</ele><time>2022-05-29T09:26:26.000Z</time></trkpt><trkpt lon="5.805052" lat="51.052573"><ele>29.8</ele><time>2022-05-29T09:26:27.000Z</time></trkpt><trkpt lon="5.805091" lat="51.052645"><ele>30</ele><time>2022-05-29T09:26:28.000Z</time></trkpt><trkpt lon="5.805133" lat="51.052733"><ele>29.8</ele><time>2022-05-29T09:26:29.000Z</time></trkpt><trkpt lon="5.80517" lat="51.052814"><ele>29.8</ele><time>2022-05-29T09:26:30.000Z</time></trkpt><trkpt lon="5.805208" lat="51.052892"><ele>29.8</ele><time>2022-05-29T09:26:31.000Z</time></trkpt><trkpt lon="5.805248" lat="51.052969"><ele>29.8</ele><time>2022-05-29T09:26:32.000Z</time></trkpt><trkpt lon="5.805289" lat="51.053046"><ele>29.8</ele><time>2022-05-29T09:26:33.000Z</time></trkpt><trkpt lon="5.805326" lat="51.053123"><ele>29.8</ele><time>2022-05-29T09:26:34.000Z</time></trkpt><trkpt lon="5.805361" lat="51.0532"><ele>30</ele><time>2022-05-29T09:26:35.000Z</time></trkpt><trkpt lon="5.805399" lat="51.053275"><ele>30</ele><time>2022-05-29T09:26:36.000Z</time></trkpt><trkpt lon="5.805438" lat="51.053352"><ele>30</ele><time>2022-05-29T09:26:37.000Z</time></trkpt><trkpt lon="5.805478" lat="51.053428"><ele>29.8</ele><time>2022-05-29T09:26:38.000Z</time></trkpt><trkpt lon="5.805517" lat="51.053507"><ele>29.8</ele><time>2022-05-29T09:26:39.000Z</time></trkpt><trkpt lon="5.805555" lat="51.053584"><ele>29.8</ele><time>2022-05-29T09:26:40.000Z</time></trkpt><trkpt lon="5.805594" lat="51.05366"><ele>29.8</ele><time>2022-05-29T09:26:41.000Z</time></trkpt><trkpt lon="5.805634" lat="51.053737"><ele>29.8</ele><time>2022-05-29T09:26:42.000Z</time></trkpt><trkpt lon="5.805675" lat="51.053816"><ele>29.8</ele><time>2022-05-29T09:26:43.000Z</time></trkpt><trkpt lon="5.805715" lat="51.053898"><ele>29.8</ele><time>2022-05-29T09:26:44.000Z</time></trkpt><trkpt lon="5.805754" lat="51.053981"><ele>29.8</ele><time>2022-05-29T09:26:45.000Z</time></trkpt><trkpt lon="5.805795" lat="51.054058"><ele>29.8</ele><time>2022-05-29T09:26:46.000Z</time></trkpt><trkpt lon="5.805838" lat="51.054138"><ele>29.8</ele><time>2022-05-29T09:26:47.000Z</time></trkpt><trkpt lon="5.805883" lat="51.054216"><ele>29.8</ele><time>2022-05-29T09:26:48.000Z</time></trkpt><trkpt lon="5.80593" lat="51.054293"><ele>29.8</ele><time>2022-05-29T09:26:49.000Z</time></trkpt><trkpt lon="5.805979" lat="51.054369"><ele>30</ele><time>2022-05-29T09:26:50.000Z</time></trkpt><trkpt lon="5.806032" lat="51.054442"><ele>30</ele><time>2022-05-29T09:26:51.000Z</time></trkpt><trkpt lon="5.806085" lat="51.054517"><ele>30</ele><time>2022-05-29T09:26:52.000Z</time></trkpt><trkpt lon="5.806138" lat="51.054593"><ele>30.2</ele><time>2022-05-29T09:26:53.000Z</time></trkpt><trkpt lon="5.806184" lat="51.054659"><ele>30.4</ele><time>2022-05-29T09:26:54.000Z</time></trkpt><trkpt lon="5.806236" lat="51.054743"><ele>30.4</ele><time>2022-05-29T09:26:55.000Z</time></trkpt><trkpt lon="5.806282" lat="51.054816"><ele>30.8</ele><time>2022-05-29T09:26:56.000Z</time></trkpt><trkpt lon="5.806326" lat="51.05489"><ele>31</ele><time>2022-05-29T09:26:57.000Z</time></trkpt><trkpt lon="5.806372" lat="51.05496"><ele>31.2</ele><time>2022-05-29T09:26:58.000Z</time></trkpt><trkpt lon="5.806417" lat="51.055033"><ele>31.4</ele><time>2022-05-29T09:26:59.000Z</time></trkpt><trkpt lon="5.806462" lat="51.055105"><ele>31.6</ele><time>2022-05-29T09:27:00.000Z</time></trkpt><trkpt lon="5.806507" lat="51.055173"><ele>31.8</ele><time>2022-05-29T09:27:01.000Z</time></trkpt><trkpt lon="5.806551" lat="51.055243"><ele>32.2</ele><time>2022-05-29T09:27:02.000Z</time></trkpt><trkpt lon="5.806592" lat="51.055314"><ele>32.4</ele><time>2022-05-29T09:27:03.000Z</time></trkpt><trkpt lon="5.806635" lat="51.055383"><ele>32.6</ele><time>2022-05-29T09:27:04.000Z</time></trkpt><trkpt lon="5.806678" lat="51.055451"><ele>32.8</ele><time>2022-05-29T09:27:05.000Z</time></trkpt><trkpt lon="5.80672" lat="51.055519"><ele>33.2</ele><time>2022-05-29T09:27:06.000Z</time></trkpt><trkpt lon="5.806762" lat="51.055586"><ele>33.4</ele><time>2022-05-29T09:27:07.000Z</time></trkpt><trkpt lon="5.806806" lat="51.055662"><ele>33.6</ele><time>2022-05-29T09:27:08.000Z</time></trkpt><trkpt lon="5.806846" lat="51.055731"><ele>34</ele><time>2022-05-29T09:27:09.000Z</time></trkpt><trkpt lon="5.806883" lat="51.055803"><ele>34.2</ele><time>2022-05-29T09:27:10.000Z</time></trkpt><trkpt lon="5.806915" lat="51.055871"><ele>34.6</ele><time>2022-05-29T09:27:11.000Z</time></trkpt><trkpt lon="5.806945" lat="51.055942"><ele>34.8</ele><time>2022-05-29T09:27:12.000Z</time></trkpt><trkpt lon="5.806976" lat="51.056012"><ele>35</ele><time>2022-05-29T09:27:13.000Z</time></trkpt><trkpt lon="5.807007" lat="51.056077"><ele>35.2</ele><time>2022-05-29T09:27:14.000Z</time></trkpt><trkpt lon="5.807035" lat="51.056146"><ele>35.6</ele><time>2022-05-29T09:27:15.000Z</time></trkpt><trkpt lon="5.807058" lat="51.056214"><ele>35.8</ele><time>2022-05-29T09:27:16.000Z</time></trkpt><trkpt lon="5.807079" lat="51.056278"><ele>36</ele><time>2022-05-29T09:27:17.000Z</time></trkpt><trkpt lon="5.807103" lat="51.056344"><ele>36.2</ele><time>2022-05-29T09:27:18.000Z</time></trkpt><trkpt lon="5.807127" lat="51.056407"><ele>36.6</ele><time>2022-05-29T09:27:19.000Z</time></trkpt><trkpt lon="5.807151" lat="51.056467"><ele>36.8</ele><time>2022-05-29T09:27:20.000Z</time></trkpt><trkpt lon="5.807178" lat="51.056534"><ele>37</ele><time>2022-05-29T09:27:21.000Z</time></trkpt><trkpt lon="5.807204" lat="51.056596"><ele>37.2</ele><time>2022-05-29T09:27:22.000Z</time></trkpt><trkpt lon="5.807224" lat="51.05666"><ele>37.6</ele><time>2022-05-29T09:27:23.000Z</time></trkpt><trkpt lon="5.807235" lat="51.056725"><ele>37.8</ele><time>2022-05-29T09:27:24.000Z</time></trkpt><trkpt lon="5.807243" lat="51.056791"><ele>38</ele><time>2022-05-29T09:27:25.000Z</time></trkpt><trkpt lon="5.807251" lat="51.056855"><ele>38.4</ele><time>2022-05-29T09:27:26.000Z</time></trkpt><trkpt lon="5.807258" lat="51.056917"><ele>38.6</ele><time>2022-05-29T09:27:27.000Z</time></trkpt><trkpt lon="5.807265" lat="51.05698"><ele>38.8</ele><time>2022-05-29T09:27:28.000Z</time></trkpt><trkpt lon="5.807277" lat="51.057041"><ele>39.2</ele><time>2022-05-29T09:27:29.000Z</time></trkpt><trkpt lon="5.807294" lat="51.057098"><ele>39.4</ele><time>2022-05-29T09:27:30.000Z</time></trkpt><trkpt lon="5.807315" lat="51.057156"><ele>39.6</ele><time>2022-05-29T09:27:31.000Z</time></trkpt><trkpt lon="5.807345" lat="51.057216"><ele>39.8</ele><time>2022-05-29T09:27:32.000Z</time></trkpt><trkpt lon="5.807376" lat="51.057277"><ele>40</ele><time>2022-05-29T09:27:33.000Z</time></trkpt><trkpt lon="5.80741" lat="51.057335"><ele>40</ele><time>2022-05-29T09:27:34.000Z</time></trkpt><trkpt lon="5.807446" lat="51.057395"><ele>40</ele><time>2022-05-29T09:27:35.000Z</time></trkpt><trkpt lon="5.807488" lat="51.057451"><ele>40</ele><time>2022-05-29T09:27:36.000Z</time></trkpt><trkpt lon="5.807544" lat="51.057514"><ele>40</ele><time>2022-05-29T09:27:37.000Z</time></trkpt><trkpt lon="5.807599" lat="51.057571"><ele>39.8</ele><time>2022-05-29T09:27:38.000Z</time></trkpt><trkpt lon="5.807655" lat="51.057628"><ele>39.8</ele><time>2022-05-29T09:27:39.000Z</time></trkpt><trkpt lon="5.80771" lat="51.057685"><ele>39.6</ele><time>2022-05-29T09:27:40.000Z</time></trkpt><trkpt lon="5.80776" lat="51.057741"><ele>39.4</ele><time>2022-05-29T09:27:41.000Z</time></trkpt><trkpt lon="5.807803" lat="51.057794"><ele>39.2</ele><time>2022-05-29T09:27:42.000Z</time></trkpt><trkpt lon="5.807855" lat="51.057868"><ele>39</ele><time>2022-05-29T09:27:43.000Z</time></trkpt><trkpt lon="5.8079" lat="51.057935"><ele>38.8</ele><time>2022-05-29T09:27:44.000Z</time></trkpt><trkpt lon="5.807936" lat="51.057998"><ele>38.6</ele><time>2022-05-29T09:27:45.000Z</time></trkpt><trkpt lon="5.807973" lat="51.058057"><ele>38.4</ele><time>2022-05-29T09:27:46.000Z</time></trkpt><trkpt lon="5.808013" lat="51.058128"><ele>38.4</ele><time>2022-05-29T09:27:47.000Z</time></trkpt><trkpt lon="5.808051" lat="51.058191"><ele>38</ele><time>2022-05-29T09:27:48.000Z</time></trkpt><trkpt lon="5.808088" lat="51.058251"><ele>37.8</ele><time>2022-05-29T09:27:49.000Z</time></trkpt><trkpt lon="5.808128" lat="51.058312"><ele>37.6</ele><time>2022-05-29T09:27:50.000Z</time></trkpt><trkpt lon="5.808169" lat="51.058376"><ele>37.4</ele><time>2022-05-29T09:27:51.000Z</time></trkpt><trkpt lon="5.808204" lat="51.058437"><ele>37.4</ele><time>2022-05-29T09:27:52.000Z</time></trkpt><trkpt lon="5.808236" lat="51.058497"><ele>37.2</ele><time>2022-05-29T09:27:53.000Z</time></trkpt><trkpt lon="5.808274" lat="51.058559"><ele>37</ele><time>2022-05-29T09:27:54.000Z</time></trkpt><trkpt lon="5.808316" lat="51.058621"><ele>36.8</ele><time>2022-05-29T09:27:55.000Z</time></trkpt><trkpt lon="5.808363" lat="51.05869"><ele>36.6</ele><time>2022-05-29T09:27:56.000Z</time></trkpt><trkpt lon="5.808415" lat="51.058765"><ele>36.4</ele><time>2022-05-29T09:27:57.000Z</time></trkpt><trkpt lon="5.808468" lat="51.058849"><ele>36.2</ele><time>2022-05-29T09:27:58.000Z</time></trkpt><trkpt lon="5.808519" lat="51.058929"><ele>36</ele><time>2022-05-29T09:27:59.000Z</time></trkpt><trkpt lon="5.808568" lat="51.059014"><ele>36</ele><time>2022-05-29T09:28:00.000Z</time></trkpt><trkpt lon="5.808615" lat="51.059096"><ele>36</ele><time>2022-05-29T09:28:01.000Z</time></trkpt><trkpt lon="5.808655" lat="51.059165"><ele>35.8</ele><time>2022-05-29T09:28:02.000Z</time></trkpt><trkpt lon="5.808705" lat="51.059254"><ele>35.6</ele><time>2022-05-29T09:28:03.000Z</time></trkpt><trkpt lon="5.808745" lat="51.059322"><ele>35.6</ele><time>2022-05-29T09:28:04.000Z</time></trkpt><trkpt lon="5.808798" lat="51.059411"><ele>35.4</ele><time>2022-05-29T09:28:05.000Z</time></trkpt><trkpt lon="5.80884" lat="51.059481"><ele>35.2</ele><time>2022-05-29T09:28:06.000Z</time></trkpt><trkpt lon="5.808885" lat="51.059564"><ele>35</ele><time>2022-05-29T09:28:07.000Z</time></trkpt><trkpt lon="5.808923" lat="51.059641"><ele>34.8</ele><time>2022-05-29T09:28:08.000Z</time></trkpt><trkpt lon="5.808967" lat="51.059718"><ele>34.8</ele><time>2022-05-29T09:28:09.000Z</time></trkpt><trkpt lon="5.809009" lat="51.059796"><ele>34.6</ele><time>2022-05-29T09:28:10.000Z</time></trkpt><trkpt lon="5.809055" lat="51.059884"><ele>34.4</ele><time>2022-05-29T09:28:11.000Z</time></trkpt><trkpt lon="5.80908" lat="51.059929"><ele>34.4</ele><time>2022-05-29T09:28:12.000Z</time></trkpt><trkpt lon="5.809112" lat="51.059986"><ele>34.2</ele><time>2022-05-29T09:28:13.000Z</time></trkpt><trkpt lon="5.809154" lat="51.060064"><ele>34</ele><time>2022-05-29T09:28:14.000Z</time></trkpt><trkpt lon="5.809202" lat="51.060152"><ele>33.8</ele><time>2022-05-29T09:28:15.000Z</time></trkpt><trkpt lon="5.809268" lat="51.060273"><ele>33.6</ele><time>2022-05-29T09:28:16.000Z</time></trkpt><trkpt lon="5.809319" lat="51.060368"><ele>33.2</ele><time>2022-05-29T09:28:17.000Z</time></trkpt><trkpt lon="5.809368" lat="51.060458"><ele>33</ele><time>2022-05-29T09:28:18.000Z</time></trkpt><trkpt lon="5.809411" lat="51.060542"><ele>32.8</ele><time>2022-05-29T09:28:19.000Z</time></trkpt><trkpt lon="5.809454" lat="51.060618"><ele>32.4</ele><time>2022-05-29T09:28:20.000Z</time></trkpt><trkpt lon="5.809507" lat="51.060714"><ele>32.2</ele><time>2022-05-29T09:28:21.000Z</time></trkpt><trkpt lon="5.809557" lat="51.060807"><ele>31.8</ele><time>2022-05-29T09:28:22.000Z</time></trkpt><trkpt lon="5.8096" lat="51.060889"><ele>31.4</ele><time>2022-05-29T09:28:23.000Z</time></trkpt><trkpt lon="5.809644" lat="51.06097"><ele>31.2</ele><time>2022-05-29T09:28:24.000Z</time></trkpt><trkpt lon="5.809689" lat="51.061056"><ele>30.8</ele><time>2022-05-29T09:28:25.000Z</time></trkpt><trkpt lon="5.809735" lat="51.061141"><ele>30.4</ele><time>2022-05-29T09:28:26.000Z</time></trkpt><trkpt lon="5.809779" lat="51.061225"><ele>30.2</ele><time>2022-05-29T09:28:27.000Z</time></trkpt><trkpt lon="5.809825" lat="51.06131"><ele>30.2</ele><time>2022-05-29T09:28:28.000Z</time></trkpt><trkpt lon="5.809872" lat="51.061394"><ele>30</ele><time>2022-05-29T09:28:29.000Z</time></trkpt><trkpt lon="5.809917" lat="51.061478"><ele>29.8</ele><time>2022-05-29T09:28:30.000Z</time></trkpt><trkpt lon="5.809961" lat="51.061562"><ele>29.8</ele><time>2022-05-29T09:28:31.000Z</time></trkpt><trkpt lon="5.810005" lat="51.061642"><ele>29.8</ele><time>2022-05-29T09:28:32.000Z</time></trkpt><trkpt lon="5.81005" lat="51.061722"><ele>29.8</ele><time>2022-05-29T09:28:33.000Z</time></trkpt><trkpt lon="5.810093" lat="51.061802"><ele>29.8</ele><time>2022-05-29T09:28:34.000Z</time></trkpt><trkpt lon="5.810137" lat="51.061881"><ele>29.8</ele><time>2022-05-29T09:28:35.000Z</time></trkpt><trkpt lon="5.810181" lat="51.061956"><ele>29.6</ele><time>2022-05-29T09:28:36.000Z</time></trkpt><trkpt lon="5.810227" lat="51.062032"><ele>29.6</ele><time>2022-05-29T09:28:37.000Z</time></trkpt><trkpt lon="5.810272" lat="51.062107"><ele>29.6</ele><time>2022-05-29T09:28:38.000Z</time></trkpt><trkpt lon="5.810318" lat="51.062186"><ele>29.6</ele><time>2022-05-29T09:28:39.000Z</time></trkpt><trkpt lon="5.810361" lat="51.062262"><ele>29.6</ele><time>2022-05-29T09:28:40.000Z</time></trkpt><trkpt lon="5.810405" lat="51.062335"><ele>29.6</ele><time>2022-05-29T09:28:41.000Z</time></trkpt><trkpt lon="5.810449" lat="51.062407"><ele>29.6</ele><time>2022-05-29T09:28:42.000Z</time></trkpt><trkpt lon="5.810495" lat="51.062479"><ele>29.8</ele><time>2022-05-29T09:28:43.000Z</time></trkpt><trkpt lon="5.810538" lat="51.06255"><ele>29.8</ele><time>2022-05-29T09:28:44.000Z</time></trkpt><trkpt lon="5.81058" lat="51.062618"><ele>29.8</ele><time>2022-05-29T09:28:45.000Z</time></trkpt><trkpt lon="5.810621" lat="51.062687"><ele>29.6</ele><time>2022-05-29T09:28:46.000Z</time></trkpt><trkpt lon="5.810657" lat="51.062757"><ele>29.6</ele><time>2022-05-29T09:28:47.000Z</time></trkpt><trkpt lon="5.810683" lat="51.06283"><ele>29.6</ele><time>2022-05-29T09:28:48.000Z</time></trkpt><trkpt lon="5.810697" lat="51.062901"><ele>29.6</ele><time>2022-05-29T09:28:49.000Z</time></trkpt><trkpt lon="5.810693" lat="51.06298"><ele>29.6</ele><time>2022-05-29T09:28:50.000Z</time></trkpt><trkpt lon="5.810674" lat="51.063055"><ele>29.6</ele><time>2022-05-29T09:28:51.000Z</time></trkpt><trkpt lon="5.81064" lat="51.063128"><ele>29.6</ele><time>2022-05-29T09:28:52.000Z</time></trkpt><trkpt lon="5.810596" lat="51.0632"><ele>29.6</ele><time>2022-05-29T09:28:53.000Z</time></trkpt><trkpt lon="5.810544" lat="51.063268"><ele>29.6</ele><time>2022-05-29T09:28:54.000Z</time></trkpt><trkpt lon="5.810487" lat="51.06333"><ele>29.6</ele><time>2022-05-29T09:28:55.000Z</time></trkpt><trkpt lon="5.810431" lat="51.063383"><ele>29.6</ele><time>2022-05-29T09:28:56.000Z</time></trkpt><trkpt lon="5.81038" lat="51.063432"><ele>29.6</ele><time>2022-05-29T09:28:57.000Z</time></trkpt><trkpt lon="5.810337" lat="51.063483"><ele>29.6</ele><time>2022-05-29T09:28:58.000Z</time></trkpt><trkpt lon="5.810306" lat="51.063536"><ele>29.6</ele><time>2022-05-29T09:28:59.000Z</time></trkpt><trkpt lon="5.810281" lat="51.063593"><ele>29.6</ele><time>2022-05-29T09:29:00.000Z</time></trkpt><trkpt lon="5.810245" lat="51.063655"><ele>29.6</ele><time>2022-05-29T09:29:01.000Z</time></trkpt><trkpt lon="5.810193" lat="51.063716"><ele>29.6</ele><time>2022-05-29T09:29:02.000Z</time></trkpt><trkpt lon="5.810132" lat="51.063778"><ele>29.6</ele><time>2022-05-29T09:29:03.000Z</time></trkpt><trkpt lon="5.810068" lat="51.063843"><ele>29.6</ele><time>2022-05-29T09:29:04.000Z</time></trkpt><trkpt lon="5.810008" lat="51.0639"><ele>29.8</ele><time>2022-05-29T09:29:05.000Z</time></trkpt><trkpt lon="5.809962" lat="51.063947"><ele>29.8</ele><time>2022-05-29T09:29:06.000Z</time></trkpt><trkpt lon="5.809895" lat="51.064012"><ele>29.6</ele><time>2022-05-29T09:29:07.000Z</time></trkpt><trkpt lon="5.809822" lat="51.064081"><ele>29.4</ele><time>2022-05-29T09:29:08.000Z</time></trkpt><trkpt lon="5.809745" lat="51.064157"><ele>29.4</ele><time>2022-05-29T09:29:09.000Z</time></trkpt><trkpt lon="5.809676" lat="51.064229"><ele>29.4</ele><time>2022-05-29T09:29:10.000Z</time></trkpt><trkpt lon="5.809609" lat="51.064295"><ele>29.4</ele><time>2022-05-29T09:29:11.000Z</time></trkpt><trkpt lon="5.80954" lat="51.064367"><ele>29.4</ele><time>2022-05-29T09:29:12.000Z</time></trkpt><trkpt lon="5.809469" lat="51.064435"><ele>29.4</ele><time>2022-05-29T09:29:13.000Z</time></trkpt><trkpt lon="5.809399" lat="51.064504"><ele>29.4</ele><time>2022-05-29T09:29:14.000Z</time></trkpt><trkpt lon="5.809329" lat="51.064573"><ele>29.4</ele><time>2022-05-29T09:29:15.000Z</time></trkpt><trkpt lon="5.80926" lat="51.064641"><ele>29.4</ele><time>2022-05-29T09:29:16.000Z</time></trkpt><trkpt lon="5.809194" lat="51.064705"><ele>29</ele><time>2022-05-29T09:29:17.000Z</time></trkpt><trkpt lon="5.809132" lat="51.064766"><ele>29.2</ele><time>2022-05-29T09:29:18.000Z</time></trkpt><trkpt lon="5.809067" lat="51.064829"><ele>29.2</ele><time>2022-05-29T09:29:19.000Z</time></trkpt><trkpt lon="5.809009" lat="51.064892"><ele>29.2</ele><time>2022-05-29T09:29:20.000Z</time></trkpt><trkpt lon="5.808956" lat="51.064958"><ele>29.2</ele><time>2022-05-29T09:29:21.000Z</time></trkpt><trkpt lon="5.808909" lat="51.065022"><ele>29.2</ele><time>2022-05-29T09:29:22.000Z</time></trkpt><trkpt lon="5.808869" lat="51.065089"><ele>29</ele><time>2022-05-29T09:29:23.000Z</time></trkpt><trkpt lon="5.808839" lat="51.065164"><ele>29</ele><time>2022-05-29T09:29:24.000Z</time></trkpt><trkpt lon="5.808818" lat="51.065237"><ele>29</ele><time>2022-05-29T09:29:25.000Z</time></trkpt><trkpt lon="5.808806" lat="51.065314"><ele>29</ele><time>2022-05-29T09:29:26.000Z</time></trkpt><trkpt lon="5.808805" lat="51.065389"><ele>29</ele><time>2022-05-29T09:29:27.000Z</time></trkpt><trkpt lon="5.808813" lat="51.065462"><ele>29</ele><time>2022-05-29T09:29:28.000Z</time></trkpt><trkpt lon="5.808831" lat="51.065534"><ele>29</ele><time>2022-05-29T09:29:29.000Z</time></trkpt><trkpt lon="5.808859" lat="51.065604"><ele>29</ele><time>2022-05-29T09:29:30.000Z</time></trkpt><trkpt lon="5.808894" lat="51.065676"><ele>29</ele><time>2022-05-29T09:29:31.000Z</time></trkpt><trkpt lon="5.808938" lat="51.065748"><ele>28.8</ele><time>2022-05-29T09:29:32.000Z</time></trkpt><trkpt lon="5.80899" lat="51.065821"><ele>28.8</ele><time>2022-05-29T09:29:33.000Z</time></trkpt><trkpt lon="5.809044" lat="51.065892"><ele>28.8</ele><time>2022-05-29T09:29:34.000Z</time></trkpt><trkpt lon="5.809101" lat="51.065962"><ele>28.8</ele><time>2022-05-29T09:29:35.000Z</time></trkpt><trkpt lon="5.809161" lat="51.066034"><ele>28.6</ele><time>2022-05-29T09:29:36.000Z</time></trkpt><trkpt lon="5.809221" lat="51.066102"><ele>28.6</ele><time>2022-05-29T09:29:37.000Z</time></trkpt><trkpt lon="5.809283" lat="51.066171"><ele>28.8</ele><time>2022-05-29T09:29:38.000Z</time></trkpt><trkpt lon="5.809343" lat="51.06624"><ele>28.8</ele><time>2022-05-29T09:29:39.000Z</time></trkpt><trkpt lon="5.8094" lat="51.066306"><ele>28.8</ele><time>2022-05-29T09:29:40.000Z</time></trkpt><trkpt lon="5.80946" lat="51.066376"><ele>28.8</ele><time>2022-05-29T09:29:41.000Z</time></trkpt><trkpt lon="5.809518" lat="51.066442"><ele>28.8</ele><time>2022-05-29T09:29:42.000Z</time></trkpt><trkpt lon="5.809579" lat="51.066513"><ele>28.8</ele><time>2022-05-29T09:29:43.000Z</time></trkpt><trkpt lon="5.80964" lat="51.066587"><ele>28.8</ele><time>2022-05-29T09:29:44.000Z</time></trkpt><trkpt lon="5.809693" lat="51.066659"><ele>28.8</ele><time>2022-05-29T09:29:45.000Z</time></trkpt><trkpt lon="5.809742" lat="51.066729"><ele>28.8</ele><time>2022-05-29T09:29:46.000Z</time></trkpt><trkpt lon="5.809784" lat="51.066801"><ele>28.8</ele><time>2022-05-29T09:29:47.000Z</time></trkpt><trkpt lon="5.809821" lat="51.066874"><ele>28.8</ele><time>2022-05-29T09:29:48.000Z</time></trkpt><trkpt lon="5.809852" lat="51.066946"><ele>28.6</ele><time>2022-05-29T09:29:49.000Z</time></trkpt><trkpt lon="5.809879" lat="51.067021"><ele>28.6</ele><time>2022-05-29T09:29:50.000Z</time></trkpt><trkpt lon="5.809903" lat="51.067092"><ele>28.8</ele><time>2022-05-29T09:29:51.000Z</time></trkpt><trkpt lon="5.809923" lat="51.067175"><ele>28.6</ele><time>2022-05-29T09:29:52.000Z</time></trkpt><trkpt lon="5.809939" lat="51.067248"><ele>28.6</ele><time>2022-05-29T09:29:53.000Z</time></trkpt><trkpt lon="5.809954" lat="51.067324"><ele>28.6</ele><time>2022-05-29T09:29:54.000Z</time></trkpt><trkpt lon="5.809965" lat="51.0674"><ele>28.6</ele><time>2022-05-29T09:29:55.000Z</time></trkpt><trkpt lon="5.809978" lat="51.067473"><ele>28.6</ele><time>2022-05-29T09:29:56.000Z</time></trkpt><trkpt lon="5.809992" lat="51.067549"><ele>28.6</ele><time>2022-05-29T09:29:57.000Z</time></trkpt><trkpt lon="5.810001" lat="51.067624"><ele>28.6</ele><time>2022-05-29T09:29:58.000Z</time></trkpt><trkpt lon="5.81001" lat="51.067696"><ele>28.6</ele><time>2022-05-29T09:29:59.000Z</time></trkpt><trkpt lon="5.810016" lat="51.067774"><ele>28.6</ele><time>2022-05-29T09:30:00.000Z</time></trkpt><trkpt lon="5.810023" lat="51.06785"><ele>28.6</ele><time>2022-05-29T09:30:01.000Z</time></trkpt><trkpt lon="5.810027" lat="51.067925"><ele>28.4</ele><time>2022-05-29T09:30:02.000Z</time></trkpt><trkpt lon="5.810032" lat="51.068004"><ele>28.4</ele><time>2022-05-29T09:30:03.000Z</time></trkpt><trkpt lon="5.810029" lat="51.068079"><ele>28.4</ele><time>2022-05-29T09:30:04.000Z</time></trkpt><trkpt lon="5.810023" lat="51.068156"><ele>28.6</ele><time>2022-05-29T09:30:05.000Z</time></trkpt><trkpt lon="5.810009" lat="51.068232"><ele>28.6</ele><time>2022-05-29T09:30:06.000Z</time></trkpt><trkpt lon="5.809987" lat="51.068311"><ele>28.6</ele><time>2022-05-29T09:30:07.000Z</time></trkpt><trkpt lon="5.809955" lat="51.068384"><ele>28.6</ele><time>2022-05-29T09:30:08.000Z</time></trkpt><trkpt lon="5.809917" lat="51.068457"><ele>28.6</ele><time>2022-05-29T09:30:09.000Z</time></trkpt><trkpt lon="5.809875" lat="51.068528"><ele>28.6</ele><time>2022-05-29T09:30:10.000Z</time></trkpt><trkpt lon="5.809828" lat="51.068597"><ele>28.6</ele><time>2022-05-29T09:30:11.000Z</time></trkpt><trkpt lon="5.809775" lat="51.068665"><ele>28.6</ele><time>2022-05-29T09:30:12.000Z</time></trkpt><trkpt lon="5.809717" lat="51.068734"><ele>28.6</ele><time>2022-05-29T09:30:13.000Z</time></trkpt><trkpt lon="5.809658" lat="51.068799"><ele>28.4</ele><time>2022-05-29T09:30:14.000Z</time></trkpt><trkpt lon="5.809602" lat="51.068864"><ele>28.4</ele><time>2022-05-29T09:30:15.000Z</time></trkpt><trkpt lon="5.809551" lat="51.068932"><ele>28.4</ele><time>2022-05-29T09:30:16.000Z</time></trkpt><trkpt lon="5.809502" lat="51.068996"><ele>28.4</ele><time>2022-05-29T09:30:17.000Z</time></trkpt><trkpt lon="5.809451" lat="51.069063"><ele>28.4</ele><time>2022-05-29T09:30:18.000Z</time></trkpt><trkpt lon="5.809405" lat="51.06913"><ele>28.4</ele><time>2022-05-29T09:30:19.000Z</time></trkpt><trkpt lon="5.80936" lat="51.069195"><ele>28.4</ele><time>2022-05-29T09:30:20.000Z</time></trkpt><trkpt lon="5.809315" lat="51.069261"><ele>28.4</ele><time>2022-05-29T09:30:21.000Z</time></trkpt><trkpt lon="5.809271" lat="51.069325"><ele>28.2</ele><time>2022-05-29T09:30:22.000Z</time></trkpt><trkpt lon="5.809229" lat="51.069391"><ele>28</ele><time>2022-05-29T09:30:23.000Z</time></trkpt><trkpt lon="5.809188" lat="51.069459"><ele>28.2</ele><time>2022-05-29T09:30:24.000Z</time></trkpt><trkpt lon="5.809148" lat="51.069524"><ele>28.2</ele><time>2022-05-29T09:30:25.000Z</time></trkpt><trkpt lon="5.80911" lat="51.069589"><ele>28.2</ele><time>2022-05-29T09:30:26.000Z</time></trkpt><trkpt lon="5.809075" lat="51.069657"><ele>28.4</ele><time>2022-05-29T09:30:27.000Z</time></trkpt><trkpt lon="5.809042" lat="51.069723"><ele>28.4</ele><time>2022-05-29T09:30:28.000Z</time></trkpt><trkpt lon="5.809007" lat="51.069792"><ele>28.4</ele><time>2022-05-29T09:30:29.000Z</time></trkpt><trkpt lon="5.808973" lat="51.069864"><ele>28.4</ele><time>2022-05-29T09:30:30.000Z</time></trkpt><trkpt lon="5.808937" lat="51.069932"><ele>28.4</ele><time>2022-05-29T09:30:31.000Z</time></trkpt><trkpt lon="5.808905" lat="51.07"><ele>28.4</ele><time>2022-05-29T09:30:32.000Z</time></trkpt><trkpt lon="5.808875" lat="51.070068"><ele>28.4</ele><time>2022-05-29T09:30:33.000Z</time></trkpt><trkpt lon="5.808846" lat="51.070143"><ele>28.4</ele><time>2022-05-29T09:30:34.000Z</time></trkpt><trkpt lon="5.808818" lat="51.070215"><ele>28.4</ele><time>2022-05-29T09:30:35.000Z</time></trkpt><trkpt lon="5.808788" lat="51.070284"><ele>28.6</ele><time>2022-05-29T09:30:36.000Z</time></trkpt><trkpt lon="5.80876" lat="51.070354"><ele>28.4</ele><time>2022-05-29T09:30:37.000Z</time></trkpt><trkpt lon="5.808737" lat="51.070425"><ele>28.4</ele><time>2022-05-29T09:30:38.000Z</time></trkpt><trkpt lon="5.808717" lat="51.070498"><ele>28.4</ele><time>2022-05-29T09:30:39.000Z</time></trkpt><trkpt lon="5.808701" lat="51.070568"><ele>28.4</ele><time>2022-05-29T09:30:40.000Z</time></trkpt><trkpt lon="5.808684" lat="51.070639"><ele>28.4</ele><time>2022-05-29T09:30:41.000Z</time></trkpt><trkpt lon="5.808667" lat="51.07071"><ele>28.4</ele><time>2022-05-29T09:30:42.000Z</time></trkpt><trkpt lon="5.80865" lat="51.07078"><ele>28.4</ele><time>2022-05-29T09:30:43.000Z</time></trkpt><trkpt lon="5.808634" lat="51.070853"><ele>28.4</ele><time>2022-05-29T09:30:44.000Z</time></trkpt><trkpt lon="5.808617" lat="51.070924"><ele>28.4</ele><time>2022-05-29T09:30:45.000Z</time></trkpt><trkpt lon="5.8086" lat="51.070997"><ele>28.2</ele><time>2022-05-29T09:30:46.000Z</time></trkpt><trkpt lon="5.808581" lat="51.07107"><ele>28.2</ele><time>2022-05-29T09:30:47.000Z</time></trkpt><trkpt lon="5.808559" lat="51.071147"><ele>28.4</ele><time>2022-05-29T09:30:48.000Z</time></trkpt><trkpt lon="5.808536" lat="51.071219"><ele>28.4</ele><time>2022-05-29T09:30:49.000Z</time></trkpt><trkpt lon="5.808515" lat="51.071295"><ele>28.4</ele><time>2022-05-29T09:30:50.000Z</time></trkpt><trkpt lon="5.808495" lat="51.071372"><ele>28.4</ele><time>2022-05-29T09:30:51.000Z</time></trkpt><trkpt lon="5.808477" lat="51.071448"><ele>28.6</ele><time>2022-05-29T09:30:52.000Z</time></trkpt><trkpt lon="5.808458" lat="51.071525"><ele>28.4</ele><time>2022-05-29T09:30:53.000Z</time></trkpt><trkpt lon="5.808438" lat="51.071601"><ele>28.4</ele><time>2022-05-29T09:30:54.000Z</time></trkpt><trkpt lon="5.808418" lat="51.071677"><ele>28.4</ele><time>2022-05-29T09:30:55.000Z</time></trkpt><trkpt lon="5.8084" lat="51.071752"><ele>28.2</ele><time>2022-05-29T09:30:56.000Z</time></trkpt><trkpt lon="5.80838" lat="51.071825"><ele>28.2</ele><time>2022-05-29T09:30:57.000Z</time></trkpt><trkpt lon="5.808361" lat="51.071901"><ele>28</ele><time>2022-05-29T09:30:58.000Z</time></trkpt><trkpt lon="5.808344" lat="51.071977"><ele>27.8</ele><time>2022-05-29T09:30:59.000Z</time></trkpt><trkpt lon="5.808329" lat="51.07205"><ele>27.8</ele><time>2022-05-29T09:31:00.000Z</time></trkpt><trkpt lon="5.808313" lat="51.072122"><ele>27.8</ele><time>2022-05-29T09:31:01.000Z</time></trkpt><trkpt lon="5.808295" lat="51.072192"><ele>28</ele><time>2022-05-29T09:31:02.000Z</time></trkpt><trkpt lon="5.808277" lat="51.072262"><ele>28</ele><time>2022-05-29T09:31:03.000Z</time></trkpt><trkpt lon="5.808261" lat="51.07233"><ele>28</ele><time>2022-05-29T09:31:04.000Z</time></trkpt><trkpt lon="5.808246" lat="51.072402"><ele>28.2</ele><time>2022-05-29T09:31:05.000Z</time></trkpt><trkpt lon="5.808227" lat="51.072474"><ele>28.2</ele><time>2022-05-29T09:31:06.000Z</time></trkpt><trkpt lon="5.808212" lat="51.072546"><ele>28.2</ele><time>2022-05-29T09:31:07.000Z</time></trkpt><trkpt lon="5.808195" lat="51.072614"><ele>28</ele><time>2022-05-29T09:31:08.000Z</time></trkpt><trkpt lon="5.808176" lat="51.072684"><ele>28</ele><time>2022-05-29T09:31:09.000Z</time></trkpt><trkpt lon="5.808156" lat="51.072756"><ele>28</ele><time>2022-05-29T09:31:10.000Z</time></trkpt><trkpt lon="5.808138" lat="51.072824"><ele>28</ele><time>2022-05-29T09:31:11.000Z</time></trkpt><trkpt lon="5.80812" lat="51.072893"><ele>28</ele><time>2022-05-29T09:31:12.000Z</time></trkpt><trkpt lon="5.808102" lat="51.07296"><ele>28</ele><time>2022-05-29T09:31:13.000Z</time></trkpt><trkpt lon="5.808088" lat="51.073024"><ele>28</ele><time>2022-05-29T09:31:14.000Z</time></trkpt><trkpt lon="5.808075" lat="51.073099"><ele>28</ele><time>2022-05-29T09:31:15.000Z</time></trkpt><trkpt lon="5.808067" lat="51.073171"><ele>28</ele><time>2022-05-29T09:31:16.000Z</time></trkpt><trkpt lon="5.808061" lat="51.073244"><ele>27.8</ele><time>2022-05-29T09:31:17.000Z</time></trkpt><trkpt lon="5.808056" lat="51.073317"><ele>27.8</ele><time>2022-05-29T09:31:18.000Z</time></trkpt><trkpt lon="5.808053" lat="51.073389"><ele>27.8</ele><time>2022-05-29T09:31:19.000Z</time></trkpt><trkpt lon="5.808054" lat="51.073462"><ele>27.8</ele><time>2022-05-29T09:31:20.000Z</time></trkpt><trkpt lon="5.808056" lat="51.073536"><ele>27.8</ele><time>2022-05-29T09:31:21.000Z</time></trkpt><trkpt lon="5.808061" lat="51.07361"><ele>27.8</ele><time>2022-05-29T09:31:22.000Z</time></trkpt><trkpt lon="5.808068" lat="51.073682"><ele>27.8</ele><time>2022-05-29T09:31:23.000Z</time></trkpt><trkpt lon="5.808079" lat="51.073755"><ele>27.8</ele><time>2022-05-29T09:31:24.000Z</time></trkpt><trkpt lon="5.80809" lat="51.07383"><ele>27.8</ele><time>2022-05-29T09:31:25.000Z</time></trkpt><trkpt lon="5.808105" lat="51.073908"><ele>27.6</ele><time>2022-05-29T09:31:26.000Z</time></trkpt><trkpt lon="5.808122" lat="51.073981"><ele>27.6</ele><time>2022-05-29T09:31:27.000Z</time></trkpt><trkpt lon="5.808145" lat="51.074057"><ele>27.6</ele><time>2022-05-29T09:31:28.000Z</time></trkpt><trkpt lon="5.80817" lat="51.074129"><ele>27.6</ele><time>2022-05-29T09:31:29.000Z</time></trkpt><trkpt lon="5.808197" lat="51.074203"><ele>27.6</ele><time>2022-05-29T09:31:30.000Z</time></trkpt><trkpt lon="5.808226" lat="51.074278"><ele>27.6</ele><time>2022-05-29T09:31:31.000Z</time></trkpt><trkpt lon="5.80826" lat="51.07435"><ele>27.6</ele><time>2022-05-29T09:31:32.000Z</time></trkpt><trkpt lon="5.808297" lat="51.074423"><ele>27.6</ele><time>2022-05-29T09:31:33.000Z</time></trkpt><trkpt lon="5.808335" lat="51.07449"><ele>27.6</ele><time>2022-05-29T09:31:34.000Z</time></trkpt><trkpt lon="5.808377" lat="51.074556"><ele>27.6</ele><time>2022-05-29T09:31:35.000Z</time></trkpt><trkpt lon="5.808423" lat="51.074627"><ele>27.4</ele><time>2022-05-29T09:31:36.000Z</time></trkpt><trkpt lon="5.808469" lat="51.074696"><ele>27.4</ele><time>2022-05-29T09:31:37.000Z</time></trkpt><trkpt lon="5.80852" lat="51.074769"><ele>27.4</ele><time>2022-05-29T09:31:38.000Z</time></trkpt><trkpt lon="5.808573" lat="51.074834"><ele>27.4</ele><time>2022-05-29T09:31:39.000Z</time></trkpt><trkpt lon="5.808631" lat="51.074907"><ele>27.2</ele><time>2022-05-29T09:31:40.000Z</time></trkpt><trkpt lon="5.808691" lat="51.074974"><ele>27.2</ele><time>2022-05-29T09:31:41.000Z</time></trkpt><trkpt lon="5.808754" lat="51.07504"><ele>27.2</ele><time>2022-05-29T09:31:42.000Z</time></trkpt><trkpt lon="5.808821" lat="51.075109"><ele>27.2</ele><time>2022-05-29T09:31:43.000Z</time></trkpt><trkpt lon="5.808889" lat="51.075176"><ele>27.4</ele><time>2022-05-29T09:31:44.000Z</time></trkpt><trkpt lon="5.808961" lat="51.075241"><ele>27.4</ele><time>2022-05-29T09:31:45.000Z</time></trkpt><trkpt lon="5.809034" lat="51.075303"><ele>27.4</ele><time>2022-05-29T09:31:46.000Z</time></trkpt><trkpt lon="5.809109" lat="51.075368"><ele>27.4</ele><time>2022-05-29T09:31:47.000Z</time></trkpt><trkpt lon="5.809184" lat="51.075433"><ele>27.2</ele><time>2022-05-29T09:31:48.000Z</time></trkpt><trkpt lon="5.809261" lat="51.075496"><ele>27.2</ele><time>2022-05-29T09:31:49.000Z</time></trkpt><trkpt lon="5.809338" lat="51.075556"><ele>27.4</ele><time>2022-05-29T09:31:50.000Z</time></trkpt><trkpt lon="5.809418" lat="51.075615"><ele>27.2</ele><time>2022-05-29T09:31:51.000Z</time></trkpt><trkpt lon="5.809507" lat="51.075675"><ele>27.2</ele><time>2022-05-29T09:31:52.000Z</time></trkpt><trkpt lon="5.809589" lat="51.075732"><ele>27.4</ele><time>2022-05-29T09:31:53.000Z</time></trkpt><trkpt lon="5.809672" lat="51.075789"><ele>27.4</ele><time>2022-05-29T09:31:54.000Z</time></trkpt><trkpt lon="5.809753" lat="51.075846"><ele>27.4</ele><time>2022-05-29T09:31:55.000Z</time></trkpt><trkpt lon="5.809832" lat="51.075904"><ele>27.4</ele><time>2022-05-29T09:31:56.000Z</time></trkpt><trkpt lon="5.809912" lat="51.075965"><ele>27.4</ele><time>2022-05-29T09:31:57.000Z</time></trkpt><trkpt lon="5.809995" lat="51.076026"><ele>27.4</ele><time>2022-05-29T09:31:58.000Z</time></trkpt><trkpt lon="5.810075" lat="51.076084"><ele>27.4</ele><time>2022-05-29T09:31:59.000Z</time></trkpt><trkpt lon="5.810156" lat="51.076144"><ele>27.4</ele><time>2022-05-29T09:32:00.000Z</time></trkpt><trkpt lon="5.810238" lat="51.076205"><ele>27.2</ele><time>2022-05-29T09:32:01.000Z</time></trkpt><trkpt lon="5.810322" lat="51.076277"><ele>27.2</ele><time>2022-05-29T09:32:02.000Z</time></trkpt><trkpt lon="5.810399" lat="51.076345"><ele>27.2</ele><time>2022-05-29T09:32:03.000Z</time></trkpt><trkpt lon="5.810468" lat="51.076414"><ele>27.2</ele><time>2022-05-29T09:32:04.000Z</time></trkpt><trkpt lon="5.810536" lat="51.076483"><ele>27.2</ele><time>2022-05-29T09:32:05.000Z</time></trkpt><trkpt lon="5.8106" lat="51.076554"><ele>27.2</ele><time>2022-05-29T09:32:06.000Z</time></trkpt><trkpt lon="5.81066" lat="51.076624"><ele>27.2</ele><time>2022-05-29T09:32:07.000Z</time></trkpt><trkpt lon="5.810715" lat="51.076699"><ele>27.2</ele><time>2022-05-29T09:32:08.000Z</time></trkpt><trkpt lon="5.810767" lat="51.076773"><ele>27</ele><time>2022-05-29T09:32:09.000Z</time></trkpt><trkpt lon="5.810815" lat="51.076845"><ele>27</ele><time>2022-05-29T09:32:10.000Z</time></trkpt><trkpt lon="5.81086" lat="51.07692"><ele>27</ele><time>2022-05-29T09:32:11.000Z</time></trkpt><trkpt lon="5.810906" lat="51.077002"><ele>27</ele><time>2022-05-29T09:32:12.000Z</time></trkpt><trkpt lon="5.810951" lat="51.077077"><ele>27</ele><time>2022-05-29T09:32:13.000Z</time></trkpt><trkpt lon="5.810995" lat="51.077149"><ele>27</ele><time>2022-05-29T09:32:14.000Z</time></trkpt><trkpt lon="5.811041" lat="51.077227"><ele>27</ele><time>2022-05-29T09:32:15.000Z</time></trkpt><trkpt lon="5.811085" lat="51.077301"><ele>27</ele><time>2022-05-29T09:32:16.000Z</time></trkpt><trkpt lon="5.811125" lat="51.077368"><ele>27</ele><time>2022-05-29T09:32:17.000Z</time></trkpt><trkpt lon="5.811176" lat="51.077452"><ele>27</ele><time>2022-05-29T09:32:18.000Z</time></trkpt><trkpt lon="5.811221" lat="51.077528"><ele>27</ele><time>2022-05-29T09:32:19.000Z</time></trkpt><trkpt lon="5.811263" lat="51.077605"><ele>26.8</ele><time>2022-05-29T09:32:20.000Z</time></trkpt><trkpt lon="5.811306" lat="51.077681"><ele>26.8</ele><time>2022-05-29T09:32:21.000Z</time></trkpt><trkpt lon="5.811349" lat="51.077756"><ele>26.8</ele><time>2022-05-29T09:32:22.000Z</time></trkpt><trkpt lon="5.811394" lat="51.077828"><ele>26.6</ele><time>2022-05-29T09:32:23.000Z</time></trkpt><trkpt lon="5.81144" lat="51.077902"><ele>26.6</ele><time>2022-05-29T09:32:24.000Z</time></trkpt><trkpt lon="5.811483" lat="51.077974"><ele>26.6</ele><time>2022-05-29T09:32:25.000Z</time></trkpt><trkpt lon="5.811525" lat="51.078046"><ele>26.6</ele><time>2022-05-29T09:32:26.000Z</time></trkpt><trkpt lon="5.811567" lat="51.078123"><ele>26.6</ele><time>2022-05-29T09:32:27.000Z</time></trkpt><trkpt lon="5.811607" lat="51.078196"><ele>26.6</ele><time>2022-05-29T09:32:28.000Z</time></trkpt><trkpt lon="5.811647" lat="51.07827"><ele>26.6</ele><time>2022-05-29T09:32:29.000Z</time></trkpt><trkpt lon="5.811689" lat="51.078344"><ele>26.6</ele><time>2022-05-29T09:32:30.000Z</time></trkpt><trkpt lon="5.81173" lat="51.078418"><ele>26.6</ele><time>2022-05-29T09:32:31.000Z</time></trkpt><trkpt lon="5.811771" lat="51.078492"><ele>26.8</ele><time>2022-05-29T09:32:32.000Z</time></trkpt><trkpt lon="5.811807" lat="51.078569"><ele>26.8</ele><time>2022-05-29T09:32:33.000Z</time></trkpt><trkpt lon="5.81184" lat="51.078644"><ele>26.8</ele><time>2022-05-29T09:32:34.000Z</time></trkpt><trkpt lon="5.811874" lat="51.078722"><ele>26.8</ele><time>2022-05-29T09:32:35.000Z</time></trkpt><trkpt lon="5.811906" lat="51.0788"><ele>26.8</ele><time>2022-05-29T09:32:36.000Z</time></trkpt><trkpt lon="5.811933" lat="51.078879"><ele>26.6</ele><time>2022-05-29T09:32:37.000Z</time></trkpt><trkpt lon="5.811958" lat="51.078959"><ele>26.6</ele><time>2022-05-29T09:32:38.000Z</time></trkpt><trkpt lon="5.81198" lat="51.079036"><ele>26.6</ele><time>2022-05-29T09:32:39.000Z</time></trkpt><trkpt lon="5.811998" lat="51.079116"><ele>26.6</ele><time>2022-05-29T09:32:40.000Z</time></trkpt><trkpt lon="5.812014" lat="51.079196"><ele>26.8</ele><time>2022-05-29T09:32:41.000Z</time></trkpt><trkpt lon="5.812027" lat="51.079277"><ele>26.6</ele><time>2022-05-29T09:32:42.000Z</time></trkpt><trkpt lon="5.812041" lat="51.079358"><ele>26.6</ele><time>2022-05-29T09:32:43.000Z</time></trkpt><trkpt lon="5.81205" lat="51.079443"><ele>26.6</ele><time>2022-05-29T09:32:44.000Z</time></trkpt><trkpt lon="5.812052" lat="51.079523"><ele>26.6</ele><time>2022-05-29T09:32:45.000Z</time></trkpt><trkpt lon="5.812046" lat="51.079603"><ele>26.6</ele><time>2022-05-29T09:32:46.000Z</time></trkpt><trkpt lon="5.812034" lat="51.079682"><ele>26.4</ele><time>2022-05-29T09:32:47.000Z</time></trkpt><trkpt lon="5.812021" lat="51.07976"><ele>26.4</ele><time>2022-05-29T09:32:48.000Z</time></trkpt><trkpt lon="5.812005" lat="51.079841"><ele>26.4</ele><time>2022-05-29T09:32:49.000Z</time></trkpt><trkpt lon="5.811989" lat="51.079918"><ele>26.4</ele><time>2022-05-29T09:32:50.000Z</time></trkpt><trkpt lon="5.811974" lat="51.079995"><ele>26.4</ele><time>2022-05-29T09:32:51.000Z</time></trkpt><trkpt lon="5.811968" lat="51.080073"><ele>26.2</ele><time>2022-05-29T09:32:52.000Z</time></trkpt><trkpt lon="5.811965" lat="51.080148"><ele>26.2</ele><time>2022-05-29T09:32:53.000Z</time></trkpt><trkpt lon="5.811967" lat="51.080224"><ele>26</ele><time>2022-05-29T09:32:54.000Z</time></trkpt><trkpt lon="5.811972" lat="51.080302"><ele>26</ele><time>2022-05-29T09:32:55.000Z</time></trkpt><trkpt lon="5.81198" lat="51.08038"><ele>26</ele><time>2022-05-29T09:32:56.000Z</time></trkpt><trkpt lon="5.811991" lat="51.080457"><ele>26</ele><time>2022-05-29T09:32:57.000Z</time></trkpt><trkpt lon="5.812006" lat="51.080533"><ele>26</ele><time>2022-05-29T09:32:58.000Z</time></trkpt><trkpt lon="5.812027" lat="51.080608"><ele>26</ele><time>2022-05-29T09:32:59.000Z</time></trkpt><trkpt lon="5.812051" lat="51.080685"><ele>26</ele><time>2022-05-29T09:33:00.000Z</time></trkpt><trkpt lon="5.812082" lat="51.080757"><ele>26</ele><time>2022-05-29T09:33:01.000Z</time></trkpt><trkpt lon="5.81212" lat="51.08083"><ele>26</ele><time>2022-05-29T09:33:02.000Z</time></trkpt><trkpt lon="5.812161" lat="51.080902"><ele>25.8</ele><time>2022-05-29T09:33:03.000Z</time></trkpt><trkpt lon="5.812206" lat="51.080971"><ele>25.8</ele><time>2022-05-29T09:33:04.000Z</time></trkpt><trkpt lon="5.812257" lat="51.081043"><ele>25.8</ele><time>2022-05-29T09:33:05.000Z</time></trkpt><trkpt lon="5.812309" lat="51.081108"><ele>26</ele><time>2022-05-29T09:33:06.000Z</time></trkpt><trkpt lon="5.81236" lat="51.081171"><ele>26</ele><time>2022-05-29T09:33:07.000Z</time></trkpt><trkpt lon="5.812411" lat="51.081232"><ele>26</ele><time>2022-05-29T09:33:08.000Z</time></trkpt><trkpt lon="5.812462" lat="51.081293"><ele>26.2</ele><time>2022-05-29T09:33:09.000Z</time></trkpt><trkpt lon="5.812512" lat="51.081352"><ele>26</ele><time>2022-05-29T09:33:10.000Z</time></trkpt><trkpt lon="5.812561" lat="51.081411"><ele>26.2</ele><time>2022-05-29T09:33:11.000Z</time></trkpt><trkpt lon="5.812608" lat="51.081464"><ele>26.2</ele><time>2022-05-29T09:33:12.000Z</time></trkpt><trkpt lon="5.812655" lat="51.081517"><ele>26.2</ele><time>2022-05-29T09:33:13.000Z</time></trkpt><trkpt lon="5.812701" lat="51.081566"><ele>26.2</ele><time>2022-05-29T09:33:14.000Z</time></trkpt><trkpt lon="5.812753" lat="51.08161"><ele>26</ele><time>2022-05-29T09:33:15.000Z</time></trkpt><trkpt lon="5.812808" lat="51.081643"><ele>26</ele><time>2022-05-29T09:33:16.000Z</time></trkpt><trkpt lon="5.812869" lat="51.081667"><ele>26</ele><time>2022-05-29T09:33:17.000Z</time></trkpt><trkpt lon="5.812935" lat="51.081677"><ele>26</ele><time>2022-05-29T09:33:18.000Z</time></trkpt><trkpt lon="5.812995" lat="51.081677"><ele>26.2</ele><time>2022-05-29T09:33:19.000Z</time></trkpt><trkpt lon="5.813042" lat="51.081677"><ele>26.2</ele><time>2022-05-29T09:33:20.000Z</time></trkpt><trkpt lon="5.813072" lat="51.081677"><ele>26.4</ele><time>2022-05-29T09:33:21.000Z</time></trkpt><trkpt lon="5.813124" lat="51.08171"><ele>26.6</ele><time>2022-05-29T09:33:32.000Z</time></trkpt><trkpt lon="5.813138" lat="51.08173"><ele>26.6</ele><time>2022-05-29T09:33:33.000Z</time></trkpt><trkpt lon="5.813155" lat="51.081754"><ele>26.6</ele><time>2022-05-29T09:33:34.000Z</time></trkpt><trkpt lon="5.813173" lat="51.081785"><ele>26.4</ele><time>2022-05-29T09:33:35.000Z</time></trkpt><trkpt lon="5.81319" lat="51.08182"><ele>26.4</ele><time>2022-05-29T09:33:36.000Z</time></trkpt><trkpt lon="5.813208" lat="51.081858"><ele>26.4</ele><time>2022-05-29T09:33:37.000Z</time></trkpt><trkpt lon="5.813216" lat="51.081894"><ele>26.4</ele><time>2022-05-29T09:33:38.000Z</time></trkpt><trkpt lon="5.813202" lat="51.081935"><ele>26.4</ele><time>2022-05-29T09:33:39.000Z</time></trkpt><trkpt lon="5.81318" lat="51.081971"><ele>26.2</ele><time>2022-05-29T09:33:40.000Z</time></trkpt><trkpt lon="5.813158" lat="51.081998"><ele>26</ele><time>2022-05-29T09:33:41.000Z</time></trkpt><trkpt lon="5.813134" lat="51.082023"><ele>25.8</ele><time>2022-05-29T09:33:42.000Z</time></trkpt><trkpt lon="5.813104" lat="51.082042"><ele>25.8</ele><time>2022-05-29T09:33:43.000Z</time></trkpt><trkpt lon="5.813066" lat="51.08206"><ele>25.8</ele><time>2022-05-29T09:33:44.000Z</time></trkpt><trkpt lon="5.813014" lat="51.082069"><ele>25.8</ele><time>2022-05-29T09:33:45.000Z</time></trkpt><trkpt lon="5.812951" lat="51.082067"><ele>25.8</ele><time>2022-05-29T09:33:46.000Z</time></trkpt><trkpt lon="5.812879" lat="51.082055"><ele>25.8</ele><time>2022-05-29T09:33:47.000Z</time></trkpt><trkpt lon="5.812807" lat="51.082036"><ele>25.8</ele><time>2022-05-29T09:33:48.000Z</time></trkpt><trkpt lon="5.81273" lat="51.082017"><ele>25.6</ele><time>2022-05-29T09:33:49.000Z</time></trkpt><trkpt lon="5.812645" lat="51.081998"><ele>25.6</ele><time>2022-05-29T09:33:50.000Z</time></trkpt><trkpt lon="5.812555" lat="51.081984"><ele>25.6</ele><time>2022-05-29T09:33:51.000Z</time></trkpt><trkpt lon="5.81246" lat="51.081979"><ele>25.6</ele><time>2022-05-29T09:33:52.000Z</time></trkpt><trkpt lon="5.812369" lat="51.081988"><ele>25.6</ele><time>2022-05-29T09:33:53.000Z</time></trkpt><trkpt lon="5.812275" lat="51.082008"><ele>25.6</ele><time>2022-05-29T09:33:54.000Z</time></trkpt><trkpt lon="5.812181" lat="51.082027"><ele>25.8</ele><time>2022-05-29T09:33:55.000Z</time></trkpt><trkpt lon="5.812084" lat="51.082051"><ele>25.8</ele><time>2022-05-29T09:33:56.000Z</time></trkpt><trkpt lon="5.811989" lat="51.082077"><ele>26</ele><time>2022-05-29T09:33:57.000Z</time></trkpt><trkpt lon="5.811885" lat="51.0821"><ele>25.8</ele><time>2022-05-29T09:33:58.000Z</time></trkpt><trkpt lon="5.811783" lat="51.082123"><ele>25.8</ele><time>2022-05-29T09:33:59.000Z</time></trkpt><trkpt lon="5.811677" lat="51.082146"><ele>26</ele><time>2022-05-29T09:34:00.000Z</time></trkpt><trkpt lon="5.81157" lat="51.082172"><ele>26</ele><time>2022-05-29T09:34:01.000Z</time></trkpt><trkpt lon="5.811463" lat="51.082196"><ele>26</ele><time>2022-05-29T09:34:02.000Z</time></trkpt><trkpt lon="5.811353" lat="51.082222"><ele>26</ele><time>2022-05-29T09:34:03.000Z</time></trkpt><trkpt lon="5.811239" lat="51.082249"><ele>26.2</ele><time>2022-05-29T09:34:04.000Z</time></trkpt><trkpt lon="5.811124" lat="51.082277"><ele>26.2</ele><time>2022-05-29T09:34:05.000Z</time></trkpt><trkpt lon="5.811011" lat="51.082307"><ele>26.2</ele><time>2022-05-29T09:34:06.000Z</time></trkpt><trkpt lon="5.810898" lat="51.082338"><ele>26.2</ele><time>2022-05-29T09:34:07.000Z</time></trkpt><trkpt lon="5.810785" lat="51.082369"><ele>26.2</ele><time>2022-05-29T09:34:08.000Z</time></trkpt><trkpt lon="5.810677" lat="51.082403"><ele>26.4</ele><time>2022-05-29T09:34:09.000Z</time></trkpt><trkpt lon="5.81057" lat="51.082441"><ele>26.4</ele><time>2022-05-29T09:34:10.000Z</time></trkpt><trkpt lon="5.810462" lat="51.082481"><ele>26.2</ele><time>2022-05-29T09:34:11.000Z</time></trkpt><trkpt lon="5.810358" lat="51.082524"><ele>26.4</ele><time>2022-05-29T09:34:12.000Z</time></trkpt><trkpt lon="5.810265" lat="51.082567"><ele>26.2</ele><time>2022-05-29T09:34:13.000Z</time></trkpt><trkpt lon="5.810162" lat="51.08262"><ele>26.4</ele><time>2022-05-29T09:34:14.000Z</time></trkpt><trkpt lon="5.810069" lat="51.082674"><ele>26.4</ele><time>2022-05-29T09:34:15.000Z</time></trkpt><trkpt lon="5.809978" lat="51.08273"><ele>26.4</ele><time>2022-05-29T09:34:16.000Z</time></trkpt><trkpt lon="5.809892" lat="51.082784"><ele>26.2</ele><time>2022-05-29T09:34:17.000Z</time></trkpt><trkpt lon="5.809807" lat="51.082838"><ele>26</ele><time>2022-05-29T09:34:18.000Z</time></trkpt><trkpt lon="5.809723" lat="51.082895"><ele>26</ele><time>2022-05-29T09:34:19.000Z</time></trkpt><trkpt lon="5.809638" lat="51.082956"><ele>26</ele><time>2022-05-29T09:34:20.000Z</time></trkpt><trkpt lon="5.809553" lat="51.083013"><ele>26</ele><time>2022-05-29T09:34:21.000Z</time></trkpt><trkpt lon="5.80947" lat="51.083069"><ele>26</ele><time>2022-05-29T09:34:22.000Z</time></trkpt><trkpt lon="5.809385" lat="51.083126"><ele>26</ele><time>2022-05-29T09:34:23.000Z</time></trkpt><trkpt lon="5.809299" lat="51.083185"><ele>26</ele><time>2022-05-29T09:34:24.000Z</time></trkpt><trkpt lon="5.809216" lat="51.083241"><ele>26</ele><time>2022-05-29T09:34:25.000Z</time></trkpt><trkpt lon="5.809133" lat="51.083299"><ele>26.2</ele><time>2022-05-29T09:34:26.000Z</time></trkpt><trkpt lon="5.809048" lat="51.083357"><ele>25.8</ele><time>2022-05-29T09:34:27.000Z</time></trkpt><trkpt lon="5.808965" lat="51.083414"><ele>25.6</ele><time>2022-05-29T09:34:28.000Z</time></trkpt><trkpt lon="5.80888" lat="51.08347"><ele>25.4</ele><time>2022-05-29T09:34:29.000Z</time></trkpt><trkpt lon="5.808796" lat="51.083523"><ele>25.6</ele><time>2022-05-29T09:34:30.000Z</time></trkpt><trkpt lon="5.808709" lat="51.083578"><ele>25.6</ele><time>2022-05-29T09:34:31.000Z</time></trkpt><trkpt lon="5.808622" lat="51.083634"><ele>25.4</ele><time>2022-05-29T09:34:32.000Z</time></trkpt><trkpt lon="5.808532" lat="51.083688"><ele>25.4</ele><time>2022-05-29T09:34:33.000Z</time></trkpt><trkpt lon="5.808444" lat="51.08374"><ele>25.4</ele><time>2022-05-29T09:34:34.000Z</time></trkpt><trkpt lon="5.808353" lat="51.083794"><ele>25.4</ele><time>2022-05-29T09:34:35.000Z</time></trkpt><trkpt lon="5.808263" lat="51.083848"><ele>25.6</ele><time>2022-05-29T09:34:36.000Z</time></trkpt><trkpt lon="5.808171" lat="51.083901"><ele>25.6</ele><time>2022-05-29T09:34:37.000Z</time></trkpt><trkpt lon="5.808079" lat="51.083955"><ele>25.8</ele><time>2022-05-29T09:34:38.000Z</time></trkpt><trkpt lon="5.80799" lat="51.084013"><ele>26.2</ele><time>2022-05-29T09:34:39.000Z</time></trkpt><trkpt lon="5.807899" lat="51.08407"><ele>26.4</ele><time>2022-05-29T09:34:40.000Z</time></trkpt><trkpt lon="5.807806" lat="51.084127"><ele>26.4</ele><time>2022-05-29T09:34:41.000Z</time></trkpt><trkpt lon="5.807711" lat="51.084184"><ele>26.2</ele><time>2022-05-29T09:34:42.000Z</time></trkpt><trkpt lon="5.80762" lat="51.084237"><ele>26</ele><time>2022-05-29T09:34:43.000Z</time></trkpt><trkpt lon="5.807527" lat="51.08429"><ele>25.8</ele><time>2022-05-29T09:34:44.000Z</time></trkpt><trkpt lon="5.80743" lat="51.084344"><ele>25.8</ele><time>2022-05-29T09:34:45.000Z</time></trkpt><trkpt lon="5.807333" lat="51.084397"><ele>25.8</ele><time>2022-05-29T09:34:46.000Z</time></trkpt><trkpt lon="5.807236" lat="51.084451"><ele>26</ele><time>2022-05-29T09:34:47.000Z</time></trkpt><trkpt lon="5.80714" lat="51.084505"><ele>26</ele><time>2022-05-29T09:34:48.000Z</time></trkpt><trkpt lon="5.807043" lat="51.084561"><ele>26</ele><time>2022-05-29T09:34:49.000Z</time></trkpt><trkpt lon="5.806946" lat="51.084611"><ele>26</ele><time>2022-05-29T09:34:50.000Z</time></trkpt><trkpt lon="5.80685" lat="51.084664"><ele>26.2</ele><time>2022-05-29T09:34:51.000Z</time></trkpt><trkpt lon="5.806754" lat="51.084713"><ele>26.4</ele><time>2022-05-29T09:34:52.000Z</time></trkpt><trkpt lon="5.806657" lat="51.084763"><ele>26.4</ele><time>2022-05-29T09:34:53.000Z</time></trkpt><trkpt lon="5.806559" lat="51.084817"><ele>26.4</ele><time>2022-05-29T09:34:54.000Z</time></trkpt><trkpt lon="5.806467" lat="51.08487"><ele>26.6</ele><time>2022-05-29T09:34:55.000Z</time></trkpt><trkpt lon="5.806372" lat="51.084924"><ele>26.6</ele><time>2022-05-29T09:34:56.000Z</time></trkpt><trkpt lon="5.806275" lat="51.084977"><ele>26.6</ele><time>2022-05-29T09:34:57.000Z</time></trkpt><trkpt lon="5.806178" lat="51.085026"><ele>26.6</ele><time>2022-05-29T09:34:58.000Z</time></trkpt><trkpt lon="5.80608" lat="51.08508"><ele>26.6</ele><time>2022-05-29T09:34:59.000Z</time></trkpt><trkpt lon="5.805982" lat="51.085133"><ele>26.6</ele><time>2022-05-29T09:35:00.000Z</time></trkpt><trkpt lon="5.805885" lat="51.085186"><ele>26.6</ele><time>2022-05-29T09:35:01.000Z</time></trkpt><trkpt lon="5.805789" lat="51.085241"><ele>26.6</ele><time>2022-05-29T09:35:02.000Z</time></trkpt><trkpt lon="5.805698" lat="51.085296"><ele>26.6</ele><time>2022-05-29T09:35:03.000Z</time></trkpt><trkpt lon="5.805615" lat="51.085345"><ele>26.6</ele><time>2022-05-29T09:35:04.000Z</time></trkpt><trkpt lon="5.805514" lat="51.085409"><ele>26.6</ele><time>2022-05-29T09:35:05.000Z</time></trkpt><trkpt lon="5.805426" lat="51.085471"><ele>26.6</ele><time>2022-05-29T09:35:06.000Z</time></trkpt><trkpt lon="5.805344" lat="51.085532"><ele>26.8</ele><time>2022-05-29T09:35:07.000Z</time></trkpt><trkpt lon="5.805263" lat="51.085597"><ele>26.6</ele><time>2022-05-29T09:35:08.000Z</time></trkpt><trkpt lon="5.805187" lat="51.085661"><ele>26.6</ele><time>2022-05-29T09:35:09.000Z</time></trkpt><trkpt lon="5.805114" lat="51.085727"><ele>26.6</ele><time>2022-05-29T09:35:10.000Z</time></trkpt><trkpt lon="5.805042" lat="51.085795"><ele>26.8</ele><time>2022-05-29T09:35:11.000Z</time></trkpt><trkpt lon="5.804972" lat="51.085859"><ele>26.8</ele><time>2022-05-29T09:35:12.000Z</time></trkpt><trkpt lon="5.804901" lat="51.085928"><ele>26.8</ele><time>2022-05-29T09:35:13.000Z</time></trkpt><trkpt lon="5.804832" lat="51.085994"><ele>26.6</ele><time>2022-05-29T09:35:14.000Z</time></trkpt><trkpt lon="5.804763" lat="51.086062"><ele>26.6</ele><time>2022-05-29T09:35:15.000Z</time></trkpt><trkpt lon="5.804692" lat="51.086127"><ele>26.6</ele><time>2022-05-29T09:35:16.000Z</time></trkpt><trkpt lon="5.804623" lat="51.086196"><ele>26.6</ele><time>2022-05-29T09:35:17.000Z</time></trkpt><trkpt lon="5.804553" lat="51.086264"><ele>26.6</ele><time>2022-05-29T09:35:18.000Z</time></trkpt><trkpt lon="5.804482" lat="51.08633"><ele>26.6</ele><time>2022-05-29T09:35:19.000Z</time></trkpt><trkpt lon="5.804414" lat="51.086398"><ele>26.4</ele><time>2022-05-29T09:35:20.000Z</time></trkpt><trkpt lon="5.804345" lat="51.086466"><ele>26.4</ele><time>2022-05-29T09:35:21.000Z</time></trkpt><trkpt lon="5.804276" lat="51.086532"><ele>26.4</ele><time>2022-05-29T09:35:22.000Z</time></trkpt><trkpt lon="5.804207" lat="51.086599"><ele>26.4</ele><time>2022-05-29T09:35:23.000Z</time></trkpt><trkpt lon="5.804138" lat="51.086664"><ele>26.4</ele><time>2022-05-29T09:35:24.000Z</time></trkpt><trkpt lon="5.804067" lat="51.08673"><ele>26.4</ele><time>2022-05-29T09:35:25.000Z</time></trkpt><trkpt lon="5.803999" lat="51.086798"><ele>26.6</ele><time>2022-05-29T09:35:26.000Z</time></trkpt><trkpt lon="5.803931" lat="51.086864"><ele>26.6</ele><time>2022-05-29T09:35:27.000Z</time></trkpt><trkpt lon="5.803864" lat="51.086927"><ele>26.4</ele><time>2022-05-29T09:35:28.000Z</time></trkpt><trkpt lon="5.803798" lat="51.086985"><ele>26.4</ele><time>2022-05-29T09:35:29.000Z</time></trkpt><trkpt lon="5.803728" lat="51.087053"><ele>26.4</ele><time>2022-05-29T09:35:30.000Z</time></trkpt><trkpt lon="5.803662" lat="51.087118"><ele>26.6</ele><time>2022-05-29T09:35:31.000Z</time></trkpt><trkpt lon="5.803596" lat="51.087183"><ele>26.6</ele><time>2022-05-29T09:35:32.000Z</time></trkpt><trkpt lon="5.80353" lat="51.087244"><ele>26.6</ele><time>2022-05-29T09:35:33.000Z</time></trkpt><trkpt lon="5.803463" lat="51.087309"><ele>26.6</ele><time>2022-05-29T09:35:34.000Z</time></trkpt><trkpt lon="5.803394" lat="51.087371"><ele>26.8</ele><time>2022-05-29T09:35:35.000Z</time></trkpt><trkpt lon="5.803326" lat="51.087438"><ele>27</ele><time>2022-05-29T09:35:36.000Z</time></trkpt><trkpt lon="5.803259" lat="51.087502"><ele>27.2</ele><time>2022-05-29T09:35:37.000Z</time></trkpt><trkpt lon="5.803193" lat="51.087566"><ele>27.4</ele><time>2022-05-29T09:35:38.000Z</time></trkpt><trkpt lon="5.803128" lat="51.087628"><ele>27.4</ele><time>2022-05-29T09:35:39.000Z</time></trkpt><trkpt lon="5.803061" lat="51.087693"><ele>27.6</ele><time>2022-05-29T09:35:40.000Z</time></trkpt><trkpt lon="5.802996" lat="51.087754"><ele>27.6</ele><time>2022-05-29T09:35:41.000Z</time></trkpt><trkpt lon="5.802929" lat="51.087818"><ele>27.6</ele><time>2022-05-29T09:35:42.000Z</time></trkpt><trkpt lon="5.802864" lat="51.08788"><ele>27.4</ele><time>2022-05-29T09:35:43.000Z</time></trkpt><trkpt lon="5.802798" lat="51.087944"><ele>27.2</ele><time>2022-05-29T09:35:44.000Z</time></trkpt><trkpt lon="5.802732" lat="51.088005"><ele>27</ele><time>2022-05-29T09:35:45.000Z</time></trkpt><trkpt lon="5.802665" lat="51.088066"><ele>27.2</ele><time>2022-05-29T09:35:46.000Z</time></trkpt><trkpt lon="5.802599" lat="51.088128"><ele>27.2</ele><time>2022-05-29T09:35:47.000Z</time></trkpt><trkpt lon="5.802532" lat="51.088189"><ele>27.4</ele><time>2022-05-29T09:35:48.000Z</time></trkpt><trkpt lon="5.802466" lat="51.088253"><ele>27</ele><time>2022-05-29T09:35:49.000Z</time></trkpt><trkpt lon="5.802401" lat="51.088314"><ele>26.8</ele><time>2022-05-29T09:35:50.000Z</time></trkpt><trkpt lon="5.802337" lat="51.088377"><ele>26.8</ele><time>2022-05-29T09:35:51.000Z</time></trkpt><trkpt lon="5.80227" lat="51.088444"><ele>27</ele><time>2022-05-29T09:35:52.000Z</time></trkpt><trkpt lon="5.802203" lat="51.088509"><ele>27</ele><time>2022-05-29T09:35:53.000Z</time></trkpt><trkpt lon="5.802139" lat="51.088574"><ele>27</ele><time>2022-05-29T09:35:54.000Z</time></trkpt><trkpt lon="5.802074" lat="51.088639"><ele>27</ele><time>2022-05-29T09:35:55.000Z</time></trkpt><trkpt lon="5.80201" lat="51.088703"><ele>27</ele><time>2022-05-29T09:35:56.000Z</time></trkpt><trkpt lon="5.801943" lat="51.088768"><ele>27</ele><time>2022-05-29T09:35:57.000Z</time></trkpt><trkpt lon="5.801876" lat="51.088834"><ele>27</ele><time>2022-05-29T09:35:58.000Z</time></trkpt><trkpt lon="5.801808" lat="51.088899"><ele>27</ele><time>2022-05-29T09:35:59.000Z</time></trkpt><trkpt lon="5.801741" lat="51.088964"><ele>27</ele><time>2022-05-29T09:36:00.000Z</time></trkpt><trkpt lon="5.801675" lat="51.089032"><ele>27</ele><time>2022-05-29T09:36:01.000Z</time></trkpt><trkpt lon="5.801609" lat="51.089097"><ele>27</ele><time>2022-05-29T09:36:02.000Z</time></trkpt><trkpt lon="5.801543" lat="51.089162"><ele>27</ele><time>2022-05-29T09:36:03.000Z</time></trkpt><trkpt lon="5.801478" lat="51.089226"><ele>27</ele><time>2022-05-29T09:36:04.000Z</time></trkpt><trkpt lon="5.801411" lat="51.089291"><ele>26.8</ele><time>2022-05-29T09:36:05.000Z</time></trkpt><trkpt lon="5.801346" lat="51.089356"><ele>26.8</ele><time>2022-05-29T09:36:06.000Z</time></trkpt><trkpt lon="5.801279" lat="51.089421"><ele>26.8</ele><time>2022-05-29T09:36:07.000Z</time></trkpt><trkpt lon="5.801214" lat="51.089486"><ele>26.8</ele><time>2022-05-29T09:36:08.000Z</time></trkpt><trkpt lon="5.80115" lat="51.08955"><ele>26.6</ele><time>2022-05-29T09:36:09.000Z</time></trkpt><trkpt lon="5.801086" lat="51.089616"><ele>26.6</ele><time>2022-05-29T09:36:10.000Z</time></trkpt><trkpt lon="5.801023" lat="51.089681"><ele>26.6</ele><time>2022-05-29T09:36:11.000Z</time></trkpt><trkpt lon="5.80096" lat="51.089746"><ele>26.6</ele><time>2022-05-29T09:36:12.000Z</time></trkpt><trkpt lon="5.8009" lat="51.089815"><ele>26.6</ele><time>2022-05-29T09:36:13.000Z</time></trkpt><trkpt lon="5.800847" lat="51.089884"><ele>26.6</ele><time>2022-05-29T09:36:14.000Z</time></trkpt><trkpt lon="5.800799" lat="51.089955"><ele>26.6</ele><time>2022-05-29T09:36:15.000Z</time></trkpt><trkpt lon="5.800756" lat="51.090026"><ele>26.6</ele><time>2022-05-29T09:36:16.000Z</time></trkpt><trkpt lon="5.800719" lat="51.090099"><ele>26.6</ele><time>2022-05-29T09:36:17.000Z</time></trkpt><trkpt lon="5.80069" lat="51.090175"><ele>26.6</ele><time>2022-05-29T09:36:18.000Z</time></trkpt><trkpt lon="5.800671" lat="51.090252"><ele>26.8</ele><time>2022-05-29T09:36:19.000Z</time></trkpt><trkpt lon="5.800661" lat="51.090331"><ele>26.6</ele><time>2022-05-29T09:36:20.000Z</time></trkpt><trkpt lon="5.800656" lat="51.090412"><ele>26.6</ele><time>2022-05-29T09:36:21.000Z</time></trkpt><trkpt lon="5.800653" lat="51.090492"><ele>26.4</ele><time>2022-05-29T09:36:22.000Z</time></trkpt><trkpt lon="5.800652" lat="51.090569"><ele>26.6</ele><time>2022-05-29T09:36:23.000Z</time></trkpt><trkpt lon="5.800656" lat="51.090648"><ele>26.4</ele><time>2022-05-29T09:36:24.000Z</time></trkpt><trkpt lon="5.800659" lat="51.090729"><ele>26.2</ele><time>2022-05-29T09:36:25.000Z</time></trkpt><trkpt lon="5.800666" lat="51.090809"><ele>26.2</ele><time>2022-05-29T09:36:26.000Z</time></trkpt><trkpt lon="5.800671" lat="51.090888"><ele>26.4</ele><time>2022-05-29T09:36:27.000Z</time></trkpt><trkpt lon="5.800678" lat="51.090966"><ele>26.4</ele><time>2022-05-29T09:36:28.000Z</time></trkpt><trkpt lon="5.800682" lat="51.091045"><ele>26.6</ele><time>2022-05-29T09:36:29.000Z</time></trkpt><trkpt lon="5.800684" lat="51.091122"><ele>26.6</ele><time>2022-05-29T09:36:30.000Z</time></trkpt><trkpt lon="5.80068" lat="51.091201"><ele>26.6</ele><time>2022-05-29T09:36:31.000Z</time></trkpt><trkpt lon="5.80067" lat="51.091276"><ele>26.6</ele><time>2022-05-29T09:36:32.000Z</time></trkpt><trkpt lon="5.800651" lat="51.091348"><ele>26.6</ele><time>2022-05-29T09:36:33.000Z</time></trkpt><trkpt lon="5.800626" lat="51.091421"><ele>26.8</ele><time>2022-05-29T09:36:34.000Z</time></trkpt><trkpt lon="5.800595" lat="51.091489"><ele>26.8</ele><time>2022-05-29T09:36:35.000Z</time></trkpt><trkpt lon="5.800557" lat="51.091557"><ele>26.8</ele><time>2022-05-29T09:36:36.000Z</time></trkpt><trkpt lon="5.800508" lat="51.09162"><ele>27</ele><time>2022-05-29T09:36:37.000Z</time></trkpt><trkpt lon="5.800451" lat="51.091677"><ele>27</ele><time>2022-05-29T09:36:38.000Z</time></trkpt><trkpt lon="5.80038" lat="51.091739"><ele>27.2</ele><time>2022-05-29T09:36:39.000Z</time></trkpt><trkpt lon="5.800304" lat="51.091791"><ele>27.4</ele><time>2022-05-29T09:36:40.000Z</time></trkpt><trkpt lon="5.800222" lat="51.09184"><ele>27.4</ele><time>2022-05-29T09:36:41.000Z</time></trkpt><trkpt lon="5.800137" lat="51.091887"><ele>27.6</ele><time>2022-05-29T09:36:42.000Z</time></trkpt><trkpt lon="5.800053" lat="51.091936"><ele>27.8</ele><time>2022-05-29T09:36:43.000Z</time></trkpt><trkpt lon="5.799969" lat="51.091985"><ele>28</ele><time>2022-05-29T09:36:44.000Z</time></trkpt><trkpt lon="5.799885" lat="51.092034"><ele>28.2</ele><time>2022-05-29T09:36:45.000Z</time></trkpt><trkpt lon="5.799803" lat="51.092081"><ele>28.4</ele><time>2022-05-29T09:36:46.000Z</time></trkpt><trkpt lon="5.799721" lat="51.092129"><ele>28.6</ele><time>2022-05-29T09:36:47.000Z</time></trkpt><trkpt lon="5.799641" lat="51.092175"><ele>29</ele><time>2022-05-29T09:36:48.000Z</time></trkpt><trkpt lon="5.799563" lat="51.092222"><ele>29.2</ele><time>2022-05-29T09:36:49.000Z</time></trkpt><trkpt lon="5.799485" lat="51.092267"><ele>29.4</ele><time>2022-05-29T09:36:50.000Z</time></trkpt><trkpt lon="5.799407" lat="51.092314"><ele>29.6</ele><time>2022-05-29T09:36:51.000Z</time></trkpt><trkpt lon="5.799327" lat="51.092363"><ele>30</ele><time>2022-05-29T09:36:52.000Z</time></trkpt><trkpt lon="5.799249" lat="51.092411"><ele>30.2</ele><time>2022-05-29T09:36:53.000Z</time></trkpt><trkpt lon="5.79917" lat="51.092455"><ele>30.4</ele><time>2022-05-29T09:36:54.000Z</time></trkpt><trkpt lon="5.79909" lat="51.092504"><ele>30.6</ele><time>2022-05-29T09:36:55.000Z</time></trkpt><trkpt lon="5.799012" lat="51.092549"><ele>31</ele><time>2022-05-29T09:36:56.000Z</time></trkpt><trkpt lon="5.798932" lat="51.092596"><ele>31.2</ele><time>2022-05-29T09:36:57.000Z</time></trkpt><trkpt lon="5.798853" lat="51.092642"><ele>31.4</ele><time>2022-05-29T09:36:58.000Z</time></trkpt><trkpt lon="5.798777" lat="51.09269"><ele>31.6</ele><time>2022-05-29T09:36:59.000Z</time></trkpt><trkpt lon="5.798697" lat="51.092733"><ele>31.8</ele><time>2022-05-29T09:37:00.000Z</time></trkpt><trkpt lon="5.798617" lat="51.092782"><ele>31.8</ele><time>2022-05-29T09:37:01.000Z</time></trkpt><trkpt lon="5.798537" lat="51.092827"><ele>32</ele><time>2022-05-29T09:37:02.000Z</time></trkpt><trkpt lon="5.798455" lat="51.092874"><ele>32</ele><time>2022-05-29T09:37:03.000Z</time></trkpt><trkpt lon="5.798377" lat="51.092923"><ele>32.2</ele><time>2022-05-29T09:37:04.000Z</time></trkpt><trkpt lon="5.798299" lat="51.092966"><ele>32</ele><time>2022-05-29T09:37:05.000Z</time></trkpt><trkpt lon="5.79822" lat="51.093014"><ele>32</ele><time>2022-05-29T09:37:06.000Z</time></trkpt><trkpt lon="5.79814" lat="51.093061"><ele>32</ele><time>2022-05-29T09:37:07.000Z</time></trkpt><trkpt lon="5.798062" lat="51.09311"><ele>32</ele><time>2022-05-29T09:37:08.000Z</time></trkpt><trkpt lon="5.797982" lat="51.093155"><ele>31.8</ele><time>2022-05-29T09:37:09.000Z</time></trkpt><trkpt lon="5.797903" lat="51.093202"><ele>31.6</ele><time>2022-05-29T09:37:10.000Z</time></trkpt><trkpt lon="5.797827" lat="51.093247"><ele>31.4</ele><time>2022-05-29T09:37:11.000Z</time></trkpt><trkpt lon="5.797762" lat="51.093289"><ele>31.2</ele><time>2022-05-29T09:37:12.000Z</time></trkpt><trkpt lon="5.797701" lat="51.093334"><ele>30.8</ele><time>2022-05-29T09:37:13.000Z</time></trkpt><trkpt lon="5.797634" lat="51.09337"><ele>30.6</ele><time>2022-05-29T09:37:14.000Z</time></trkpt><trkpt lon="5.797566" lat="51.093401"><ele>30.2</ele><time>2022-05-29T09:37:15.000Z</time></trkpt><trkpt lon="5.797498" lat="51.093432"><ele>30</ele><time>2022-05-29T09:37:16.000Z</time></trkpt><trkpt lon="5.797435" lat="51.093461"><ele>29.8</ele><time>2022-05-29T09:37:17.000Z</time></trkpt><trkpt lon="5.797379" lat="51.093488"><ele>29.4</ele><time>2022-05-29T09:37:18.000Z</time></trkpt><trkpt lon="5.797328" lat="51.093514"><ele>29.2</ele><time>2022-05-29T09:37:19.000Z</time></trkpt><trkpt lon="5.79728" lat="51.093536"><ele>29</ele><time>2022-05-29T09:37:20.000Z</time></trkpt><trkpt lon="5.797235" lat="51.093555"><ele>28.6</ele><time>2022-05-29T09:37:21.000Z</time></trkpt><trkpt lon="5.797199" lat="51.093575"><ele>28.4</ele><time>2022-05-29T09:37:22.000Z</time></trkpt><trkpt lon="5.797178" lat="51.093598"><ele>28.2</ele><time>2022-05-29T09:37:23.000Z</time></trkpt><trkpt lon="5.797169" lat="51.093623"><ele>28</ele><time>2022-05-29T09:37:24.000Z</time></trkpt><trkpt lon="5.797164" lat="51.093637"><ele>27.8</ele><time>2022-05-29T09:37:25.000Z</time></trkpt><trkpt lon="5.797159" lat="51.093688"><ele>27.2</ele><time>2022-05-29T09:37:36.000Z</time></trkpt><trkpt lon="5.797163" lat="51.093707"><ele>27.2</ele><time>2022-05-29T09:37:37.000Z</time></trkpt><trkpt lon="5.797173" lat="51.093727"><ele>27.2</ele><time>2022-05-29T09:37:38.000Z</time></trkpt><trkpt lon="5.797192" lat="51.093748"><ele>27.2</ele><time>2022-05-29T09:37:39.000Z</time></trkpt><trkpt lon="5.797217" lat="51.09378"><ele>27.2</ele><time>2022-05-29T09:37:40.000Z</time></trkpt><trkpt lon="5.797245" lat="51.09382"><ele>27</ele><time>2022-05-29T09:37:41.000Z</time></trkpt><trkpt lon="5.797273" lat="51.093866"><ele>27</ele><time>2022-05-29T09:37:42.000Z</time></trkpt><trkpt lon="5.797311" lat="51.093916"><ele>26.8</ele><time>2022-05-29T09:37:43.000Z</time></trkpt><trkpt lon="5.797362" lat="51.093967"><ele>26.8</ele><time>2022-05-29T09:37:44.000Z</time></trkpt><trkpt lon="5.797418" lat="51.094023"><ele>26.8</ele><time>2022-05-29T09:37:45.000Z</time></trkpt><trkpt lon="5.797476" lat="51.094079"><ele>26.8</ele><time>2022-05-29T09:37:46.000Z</time></trkpt><trkpt lon="5.797535" lat="51.094143"><ele>26.6</ele><time>2022-05-29T09:37:47.000Z</time></trkpt><trkpt lon="5.797596" lat="51.094205"><ele>26.6</ele><time>2022-05-29T09:37:48.000Z</time></trkpt><trkpt lon="5.797653" lat="51.094274"><ele>26.6</ele><time>2022-05-29T09:37:49.000Z</time></trkpt><trkpt lon="5.797707" lat="51.094343"><ele>26.6</ele><time>2022-05-29T09:37:50.000Z</time></trkpt><trkpt lon="5.797764" lat="51.094415"><ele>26.6</ele><time>2022-05-29T09:37:51.000Z</time></trkpt><trkpt lon="5.797827" lat="51.094485"><ele>26.4</ele><time>2022-05-29T09:37:52.000Z</time></trkpt><trkpt lon="5.797892" lat="51.094556"><ele>26.2</ele><time>2022-05-29T09:37:53.000Z</time></trkpt><trkpt lon="5.797958" lat="51.094625"><ele>26.4</ele><time>2022-05-29T09:37:54.000Z</time></trkpt><trkpt lon="5.798026" lat="51.094695"><ele>26.4</ele><time>2022-05-29T09:37:55.000Z</time></trkpt><trkpt lon="5.798092" lat="51.094767"><ele>26.4</ele><time>2022-05-29T09:37:56.000Z</time></trkpt><trkpt lon="5.798157" lat="51.094839"><ele>26.4</ele><time>2022-05-29T09:37:57.000Z</time></trkpt><trkpt lon="5.79822" lat="51.094912"><ele>26.2</ele><time>2022-05-29T09:37:58.000Z</time></trkpt><trkpt lon="5.798289" lat="51.09498"><ele>26.4</ele><time>2022-05-29T09:37:59.000Z</time></trkpt><trkpt lon="5.798362" lat="51.095049"><ele>26.2</ele><time>2022-05-29T09:38:00.000Z</time></trkpt><trkpt lon="5.798437" lat="51.095121"><ele>26.2</ele><time>2022-05-29T09:38:01.000Z</time></trkpt><trkpt lon="5.79851" lat="51.095189"><ele>26.2</ele><time>2022-05-29T09:38:02.000Z</time></trkpt><trkpt lon="5.798584" lat="51.095259"><ele>26.2</ele><time>2022-05-29T09:38:03.000Z</time></trkpt><trkpt lon="5.798656" lat="51.09533"><ele>26.2</ele><time>2022-05-29T09:38:04.000Z</time></trkpt><trkpt lon="5.798728" lat="51.095399"><ele>26.2</ele><time>2022-05-29T09:38:05.000Z</time></trkpt><trkpt lon="5.798795" lat="51.095467"><ele>26.2</ele><time>2022-05-29T09:38:06.000Z</time></trkpt><trkpt lon="5.798859" lat="51.095532"><ele>26.2</ele><time>2022-05-29T09:38:07.000Z</time></trkpt><trkpt lon="5.798925" lat="51.095602"><ele>26.2</ele><time>2022-05-29T09:38:08.000Z</time></trkpt><trkpt lon="5.79899" lat="51.095673"><ele>26.2</ele><time>2022-05-29T09:38:09.000Z</time></trkpt><trkpt lon="5.799054" lat="51.095742"><ele>26.2</ele><time>2022-05-29T09:38:10.000Z</time></trkpt><trkpt lon="5.79912" lat="51.095818"><ele>26.2</ele><time>2022-05-29T09:38:11.000Z</time></trkpt><trkpt lon="5.799181" lat="51.095888"><ele>26.2</ele><time>2022-05-29T09:38:12.000Z</time></trkpt><trkpt lon="5.799241" lat="51.095964"><ele>26.2</ele><time>2022-05-29T09:38:13.000Z</time></trkpt><trkpt lon="5.7993" lat="51.096035"><ele>26.2</ele><time>2022-05-29T09:38:14.000Z</time></trkpt><trkpt lon="5.799359" lat="51.096106"><ele>26.2</ele><time>2022-05-29T09:38:15.000Z</time></trkpt><trkpt lon="5.799417" lat="51.096181"><ele>26.2</ele><time>2022-05-29T09:38:16.000Z</time></trkpt><trkpt lon="5.799471" lat="51.09625"><ele>26.2</ele><time>2022-05-29T09:38:17.000Z</time></trkpt><trkpt lon="5.799519" lat="51.096321"><ele>26</ele><time>2022-05-29T09:38:18.000Z</time></trkpt><trkpt lon="5.799566" lat="51.096395"><ele>26.2</ele><time>2022-05-29T09:38:19.000Z</time></trkpt><trkpt lon="5.799611" lat="51.096463"><ele>26.2</ele><time>2022-05-29T09:38:20.000Z</time></trkpt><trkpt lon="5.799652" lat="51.096531"><ele>26</ele><time>2022-05-29T09:38:21.000Z</time></trkpt><trkpt lon="5.799689" lat="51.096596"><ele>26</ele><time>2022-05-29T09:38:22.000Z</time></trkpt><trkpt lon="5.799725" lat="51.096655"><ele>26</ele><time>2022-05-29T09:38:23.000Z</time></trkpt><trkpt lon="5.79976" lat="51.09671"><ele>26</ele><time>2022-05-29T09:38:24.000Z</time></trkpt><trkpt lon="5.799793" lat="51.096754"><ele>26</ele><time>2022-05-29T09:38:25.000Z</time></trkpt><trkpt lon="5.799828" lat="51.096786"><ele>26</ele><time>2022-05-29T09:38:26.000Z</time></trkpt><trkpt lon="5.799853" lat="51.096805"><ele>26</ele><time>2022-05-29T09:38:27.000Z</time></trkpt><trkpt lon="5.799855" lat="51.096823"><ele>26.2</ele><time>2022-05-29T09:38:28.000Z</time></trkpt><trkpt lon="5.799846" lat="51.096835"><ele>26.2</ele><time>2022-05-29T09:38:29.000Z</time></trkpt><trkpt lon="5.799832" lat="51.096851"><ele>26.2</ele><time>2022-05-29T09:38:30.000Z</time></trkpt><trkpt lon="5.79981" lat="51.096869"><ele>26.2</ele><time>2022-05-29T09:38:31.000Z</time></trkpt><trkpt lon="5.799783" lat="51.096879"><ele>26</ele><time>2022-05-29T09:38:32.000Z</time></trkpt><trkpt lon="5.799749" lat="51.096887"><ele>26</ele><time>2022-05-29T09:38:33.000Z</time></trkpt><trkpt lon="5.799714" lat="51.096895"><ele>25.8</ele><time>2022-05-29T09:38:34.000Z</time></trkpt><trkpt lon="5.799685" lat="51.096906"><ele>25.6</ele><time>2022-05-29T09:38:35.000Z</time></trkpt><trkpt lon="5.799664" lat="51.096914"><ele>25.6</ele><time>2022-05-29T09:38:36.000Z</time></trkpt><trkpt lon="5.799652" lat="51.096921"><ele>25.6</ele><time>2022-05-29T09:38:37.000Z</time></trkpt><trkpt lon="5.799583" lat="51.096949"><ele>25.2</ele><time>2022-05-29T09:38:41.000Z</time></trkpt><trkpt lon="5.799549" lat="51.096963"><ele>25.2</ele><time>2022-05-29T09:38:42.000Z</time></trkpt><trkpt lon="5.799528" lat="51.09699"><ele>25.2</ele><time>2022-05-29T09:38:43.000Z</time></trkpt><trkpt lon="5.799529" lat="51.097025"><ele>25</ele><time>2022-05-29T09:38:44.000Z</time></trkpt><trkpt lon="5.799546" lat="51.09706"><ele>25</ele><time>2022-05-29T09:38:45.000Z</time></trkpt><trkpt lon="5.799568" lat="51.0971"><ele>25</ele><time>2022-05-29T09:38:46.000Z</time></trkpt><trkpt lon="5.799581" lat="51.097139"><ele>25</ele><time>2022-05-29T09:38:47.000Z</time></trkpt><trkpt lon="5.799574" lat="51.097168"><ele>25</ele><time>2022-05-29T09:38:48.000Z</time></trkpt><trkpt lon="5.799552" lat="51.097186"><ele>25</ele><time>2022-05-29T09:38:49.000Z</time></trkpt><trkpt lon="5.79952" lat="51.097203"><ele>25</ele><time>2022-05-29T09:38:50.000Z</time></trkpt><trkpt lon="5.799481" lat="51.09723"><ele>25</ele><time>2022-05-29T09:38:51.000Z</time></trkpt><trkpt lon="5.799437" lat="51.097259"><ele>25</ele><time>2022-05-29T09:38:52.000Z</time></trkpt><trkpt lon="5.799387" lat="51.097297"><ele>25</ele><time>2022-05-29T09:38:53.000Z</time></trkpt><trkpt lon="5.799331" lat="51.097335"><ele>25</ele><time>2022-05-29T09:38:54.000Z</time></trkpt><trkpt lon="5.799273" lat="51.097374"><ele>25</ele><time>2022-05-29T09:38:55.000Z</time></trkpt><trkpt lon="5.799214" lat="51.097421"><ele>25</ele><time>2022-05-29T09:38:56.000Z</time></trkpt><trkpt lon="5.799151" lat="51.097471"><ele>25</ele><time>2022-05-29T09:38:57.000Z</time></trkpt><trkpt lon="5.799083" lat="51.097524"><ele>24.8</ele><time>2022-05-29T09:38:58.000Z</time></trkpt><trkpt lon="5.79901" lat="51.097577"><ele>24.8</ele><time>2022-05-29T09:38:59.000Z</time></trkpt><trkpt lon="5.798936" lat="51.097628"><ele>24.8</ele><time>2022-05-29T09:39:00.000Z</time></trkpt><trkpt lon="5.798857" lat="51.097681"><ele>24.6</ele><time>2022-05-29T09:39:01.000Z</time></trkpt><trkpt lon="5.798775" lat="51.097735"><ele>24.4</ele><time>2022-05-29T09:39:02.000Z</time></trkpt><trkpt lon="5.798695" lat="51.097788"><ele>24.6</ele><time>2022-05-29T09:39:03.000Z</time></trkpt><trkpt lon="5.798616" lat="51.097841"><ele>24.8</ele><time>2022-05-29T09:39:04.000Z</time></trkpt><trkpt lon="5.798535" lat="51.097895"><ele>24.8</ele><time>2022-05-29T09:39:05.000Z</time></trkpt><trkpt lon="5.798456" lat="51.097949"><ele>24.8</ele><time>2022-05-29T09:39:06.000Z</time></trkpt><trkpt lon="5.798378" lat="51.098005"><ele>24.8</ele><time>2022-05-29T09:39:07.000Z</time></trkpt><trkpt lon="5.798296" lat="51.098059"><ele>25</ele><time>2022-05-29T09:39:08.000Z</time></trkpt><trkpt lon="5.798216" lat="51.098113"><ele>24.8</ele><time>2022-05-29T09:39:09.000Z</time></trkpt><trkpt lon="5.798136" lat="51.098169"><ele>24.8</ele><time>2022-05-29T09:39:10.000Z</time></trkpt><trkpt lon="5.798058" lat="51.098223"><ele>24.8</ele><time>2022-05-29T09:39:11.000Z</time></trkpt><trkpt lon="5.79798" lat="51.098279"><ele>24.8</ele><time>2022-05-29T09:39:12.000Z</time></trkpt><trkpt lon="5.797899" lat="51.098333"><ele>25</ele><time>2022-05-29T09:39:13.000Z</time></trkpt><trkpt lon="5.797819" lat="51.098387"><ele>25</ele><time>2022-05-29T09:39:14.000Z</time></trkpt><trkpt lon="5.797733" lat="51.098439"><ele>25.2</ele><time>2022-05-29T09:39:15.000Z</time></trkpt><trkpt lon="5.797637" lat="51.098488"><ele>25.2</ele><time>2022-05-29T09:39:16.000Z</time></trkpt><trkpt lon="5.79754" lat="51.09853"><ele>25.2</ele><time>2022-05-29T09:39:17.000Z</time></trkpt><trkpt lon="5.797443" lat="51.098571"><ele>25.2</ele><time>2022-05-29T09:39:18.000Z</time></trkpt><trkpt lon="5.797343" lat="51.098613"><ele>25.4</ele><time>2022-05-29T09:39:19.000Z</time></trkpt><trkpt lon="5.797242" lat="51.09865"><ele>25.4</ele><time>2022-05-29T09:39:20.000Z</time></trkpt><trkpt lon="5.79714" lat="51.098685"><ele>25.6</ele><time>2022-05-29T09:39:21.000Z</time></trkpt><trkpt lon="5.797041" lat="51.098718"><ele>25.4</ele><time>2022-05-29T09:39:22.000Z</time></trkpt><trkpt lon="5.796941" lat="51.098751"><ele>25.4</ele><time>2022-05-29T09:39:23.000Z</time></trkpt><trkpt lon="5.796843" lat="51.098775"><ele>25.4</ele><time>2022-05-29T09:39:24.000Z</time></trkpt><trkpt lon="5.796746" lat="51.0988"><ele>25.6</ele><time>2022-05-29T09:39:25.000Z</time></trkpt><trkpt lon="5.796649" lat="51.098819"><ele>25.4</ele><time>2022-05-29T09:39:26.000Z</time></trkpt><trkpt lon="5.796548" lat="51.098837"><ele>25.6</ele><time>2022-05-29T09:39:27.000Z</time></trkpt><trkpt lon="5.796447" lat="51.098847"><ele>25.6</ele><time>2022-05-29T09:39:28.000Z</time></trkpt><trkpt lon="5.796346" lat="51.09885"><ele>25.6</ele><time>2022-05-29T09:39:29.000Z</time></trkpt><trkpt lon="5.796251" lat="51.098849"><ele>25.4</ele><time>2022-05-29T09:39:30.000Z</time></trkpt><trkpt lon="5.796166" lat="51.098841"><ele>25.4</ele><time>2022-05-29T09:39:31.000Z</time></trkpt><trkpt lon="5.796099" lat="51.098836"><ele>25.6</ele><time>2022-05-29T09:39:32.000Z</time></trkpt><trkpt lon="5.796044" lat="51.09884"><ele>25.8</ele><time>2022-05-29T09:39:33.000Z</time></trkpt><trkpt lon="5.796001" lat="51.098849"><ele>25.8</ele><time>2022-05-29T09:39:34.000Z</time></trkpt><trkpt lon="5.795965" lat="51.098861"><ele>25.8</ele><time>2022-05-29T09:39:35.000Z</time></trkpt><trkpt lon="5.795925" lat="51.098881"><ele>26</ele><time>2022-05-29T09:39:36.000Z</time></trkpt><trkpt lon="5.795879" lat="51.098906"><ele>26</ele><time>2022-05-29T09:39:37.000Z</time></trkpt><trkpt lon="5.795825" lat="51.09894"><ele>25.8</ele><time>2022-05-29T09:39:38.000Z</time></trkpt><trkpt lon="5.795758" lat="51.098969"><ele>25.8</ele><time>2022-05-29T09:39:39.000Z</time></trkpt><trkpt lon="5.795673" lat="51.098991"><ele>25.6</ele><time>2022-05-29T09:39:40.000Z</time></trkpt><trkpt lon="5.795578" lat="51.099009"><ele>25.6</ele><time>2022-05-29T09:39:41.000Z</time></trkpt><trkpt lon="5.79547" lat="51.09903"><ele>25.6</ele><time>2022-05-29T09:39:42.000Z</time></trkpt><trkpt lon="5.795364" lat="51.099054"><ele>25.6</ele><time>2022-05-29T09:39:43.000Z</time></trkpt><trkpt lon="5.795256" lat="51.099084"><ele>25.4</ele><time>2022-05-29T09:39:44.000Z</time></trkpt><trkpt lon="5.795152" lat="51.099112"><ele>25.2</ele><time>2022-05-29T09:39:45.000Z</time></trkpt><trkpt lon="5.795062" lat="51.099147"><ele>25.2</ele><time>2022-05-29T09:39:46.000Z</time></trkpt><trkpt lon="5.794979" lat="51.099184"><ele>25.2</ele><time>2022-05-29T09:39:47.000Z</time></trkpt><trkpt lon="5.794895" lat="51.099213"><ele>25.2</ele><time>2022-05-29T09:39:48.000Z</time></trkpt><trkpt lon="5.794799" lat="51.099235"><ele>25.2</ele><time>2022-05-29T09:39:49.000Z</time></trkpt><trkpt lon="5.794696" lat="51.099255"><ele>25.2</ele><time>2022-05-29T09:39:50.000Z</time></trkpt><trkpt lon="5.794592" lat="51.099278"><ele>25</ele><time>2022-05-29T09:39:51.000Z</time></trkpt><trkpt lon="5.794486" lat="51.099301"><ele>24.8</ele><time>2022-05-29T09:39:52.000Z</time></trkpt><trkpt lon="5.79438" lat="51.099324"><ele>24.8</ele><time>2022-05-29T09:39:53.000Z</time></trkpt><trkpt lon="5.794268" lat="51.099346"><ele>25</ele><time>2022-05-29T09:39:54.000Z</time></trkpt><trkpt lon="5.794156" lat="51.099369"><ele>24.8</ele><time>2022-05-29T09:39:55.000Z</time></trkpt><trkpt lon="5.794046" lat="51.099388"><ele>24.8</ele><time>2022-05-29T09:39:56.000Z</time></trkpt><trkpt lon="5.793938" lat="51.099408"><ele>24.8</ele><time>2022-05-29T09:39:57.000Z</time></trkpt><trkpt lon="5.793827" lat="51.099429"><ele>24.8</ele><time>2022-05-29T09:39:58.000Z</time></trkpt><trkpt lon="5.793715" lat="51.099445"><ele>24.8</ele><time>2022-05-29T09:39:59.000Z</time></trkpt><trkpt lon="5.793606" lat="51.099463"><ele>24.8</ele><time>2022-05-29T09:40:00.000Z</time></trkpt><trkpt lon="5.7935" lat="51.099479"><ele>24.8</ele><time>2022-05-29T09:40:01.000Z</time></trkpt><trkpt lon="5.79339" lat="51.099498"><ele>24.8</ele><time>2022-05-29T09:40:02.000Z</time></trkpt><trkpt lon="5.793281" lat="51.099514"><ele>24.8</ele><time>2022-05-29T09:40:03.000Z</time></trkpt><trkpt lon="5.793172" lat="51.099532"><ele>24.6</ele><time>2022-05-29T09:40:04.000Z</time></trkpt><trkpt lon="5.793064" lat="51.099546"><ele>24.6</ele><time>2022-05-29T09:40:05.000Z</time></trkpt><trkpt lon="5.792952" lat="51.099558"><ele>24.8</ele><time>2022-05-29T09:40:06.000Z</time></trkpt><trkpt lon="5.792841" lat="51.099569"><ele>24.8</ele><time>2022-05-29T09:40:07.000Z</time></trkpt><trkpt lon="5.792729" lat="51.099582"><ele>24.8</ele><time>2022-05-29T09:40:08.000Z</time></trkpt><trkpt lon="5.792622" lat="51.099596"><ele>24.8</ele><time>2022-05-29T09:40:09.000Z</time></trkpt><trkpt lon="5.792511" lat="51.099607"><ele>24.8</ele><time>2022-05-29T09:40:10.000Z</time></trkpt><trkpt lon="5.792402" lat="51.099615"><ele>24.8</ele><time>2022-05-29T09:40:11.000Z</time></trkpt><trkpt lon="5.792291" lat="51.099626"><ele>24.8</ele><time>2022-05-29T09:40:12.000Z</time></trkpt><trkpt lon="5.792178" lat="51.099634"><ele>24.8</ele><time>2022-05-29T09:40:13.000Z</time></trkpt><trkpt lon="5.792066" lat="51.099645"><ele>24.8</ele><time>2022-05-29T09:40:14.000Z</time></trkpt><trkpt lon="5.791954" lat="51.099652"><ele>24.8</ele><time>2022-05-29T09:40:15.000Z</time></trkpt><trkpt lon="5.79184" lat="51.099657"><ele>24.8</ele><time>2022-05-29T09:40:16.000Z</time></trkpt><trkpt lon="5.791726" lat="51.099664"><ele>24.8</ele><time>2022-05-29T09:40:17.000Z</time></trkpt><trkpt lon="5.791611" lat="51.099671"><ele>24.8</ele><time>2022-05-29T09:40:18.000Z</time></trkpt><trkpt lon="5.791497" lat="51.099675"><ele>24.8</ele><time>2022-05-29T09:40:19.000Z</time></trkpt><trkpt lon="5.791381" lat="51.099679"><ele>24.8</ele><time>2022-05-29T09:40:20.000Z</time></trkpt><trkpt lon="5.791267" lat="51.099683"><ele>24.8</ele><time>2022-05-29T09:40:21.000Z</time></trkpt><trkpt lon="5.791156" lat="51.099686"><ele>24.6</ele><time>2022-05-29T09:40:22.000Z</time></trkpt><trkpt lon="5.791037" lat="51.099686"><ele>24.6</ele><time>2022-05-29T09:40:23.000Z</time></trkpt><trkpt lon="5.790924" lat="51.099689"><ele>24.6</ele><time>2022-05-29T09:40:24.000Z</time></trkpt><trkpt lon="5.790809" lat="51.09969"><ele>24.6</ele><time>2022-05-29T09:40:25.000Z</time></trkpt><trkpt lon="5.790693" lat="51.099693"><ele>24.6</ele><time>2022-05-29T09:40:26.000Z</time></trkpt><trkpt lon="5.790576" lat="51.099693"><ele>24.6</ele><time>2022-05-29T09:40:27.000Z</time></trkpt><trkpt lon="5.790461" lat="51.099693"><ele>24.6</ele><time>2022-05-29T09:40:28.000Z</time></trkpt><trkpt lon="5.790347" lat="51.099689"><ele>24.6</ele><time>2022-05-29T09:40:29.000Z</time></trkpt><trkpt lon="5.790233" lat="51.099685"><ele>24.6</ele><time>2022-05-29T09:40:30.000Z</time></trkpt><trkpt lon="5.790121" lat="51.099681"><ele>24.6</ele><time>2022-05-29T09:40:31.000Z</time></trkpt><trkpt lon="5.790008" lat="51.099677"><ele>24.6</ele><time>2022-05-29T09:40:32.000Z</time></trkpt><trkpt lon="5.789897" lat="51.099674"><ele>24.6</ele><time>2022-05-29T09:40:33.000Z</time></trkpt><trkpt lon="5.789789" lat="51.09967"><ele>24.8</ele><time>2022-05-29T09:40:34.000Z</time></trkpt><trkpt lon="5.789679" lat="51.099665"><ele>24.8</ele><time>2022-05-29T09:40:35.000Z</time></trkpt><trkpt lon="5.789571" lat="51.099658"><ele>24.8</ele><time>2022-05-29T09:40:36.000Z</time></trkpt><trkpt lon="5.789465" lat="51.099654"><ele>24.8</ele><time>2022-05-29T09:40:37.000Z</time></trkpt><trkpt lon="5.789361" lat="51.099646"><ele>25</ele><time>2022-05-29T09:40:38.000Z</time></trkpt><trkpt lon="5.789256" lat="51.099638"><ele>25</ele><time>2022-05-29T09:40:39.000Z</time></trkpt><trkpt lon="5.789153" lat="51.099627"><ele>25</ele><time>2022-05-29T09:40:40.000Z</time></trkpt><trkpt lon="5.789055" lat="51.099619"><ele>25</ele><time>2022-05-29T09:40:41.000Z</time></trkpt><trkpt lon="5.788956" lat="51.099612"><ele>25</ele><time>2022-05-29T09:40:42.000Z</time></trkpt><trkpt lon="5.788862" lat="51.099604"><ele>25</ele><time>2022-05-29T09:40:43.000Z</time></trkpt><trkpt lon="5.788769" lat="51.099597"><ele>25</ele><time>2022-05-29T09:40:44.000Z</time></trkpt><trkpt lon="5.788683" lat="51.099588"><ele>25</ele><time>2022-05-29T09:40:45.000Z</time></trkpt><trkpt lon="5.788601" lat="51.099577"><ele>25</ele><time>2022-05-29T09:40:46.000Z</time></trkpt><trkpt lon="5.788528" lat="51.099571"><ele>25</ele><time>2022-05-29T09:40:47.000Z</time></trkpt><trkpt lon="5.788457" lat="51.099573"><ele>25</ele><time>2022-05-29T09:40:48.000Z</time></trkpt><trkpt lon="5.788386" lat="51.099587"><ele>24.8</ele><time>2022-05-29T09:40:49.000Z</time></trkpt><trkpt lon="5.788317" lat="51.099612"><ele>24.8</ele><time>2022-05-29T09:40:50.000Z</time></trkpt><trkpt lon="5.788258" lat="51.099649"><ele>24.8</ele><time>2022-05-29T09:40:51.000Z</time></trkpt><trkpt lon="5.788215" lat="51.0997"><ele>24.6</ele><time>2022-05-29T09:40:52.000Z</time></trkpt><trkpt lon="5.78818" lat="51.099758"><ele>24.6</ele><time>2022-05-29T09:40:53.000Z</time></trkpt><trkpt lon="5.788142" lat="51.099823"><ele>24.6</ele><time>2022-05-29T09:40:54.000Z</time></trkpt><trkpt lon="5.7881" lat="51.099887"><ele>24.4</ele><time>2022-05-29T09:40:55.000Z</time></trkpt><trkpt lon="5.788064" lat="51.099958"><ele>24.6</ele><time>2022-05-29T09:40:56.000Z</time></trkpt><trkpt lon="5.78804" lat="51.100035"><ele>24.6</ele><time>2022-05-29T09:40:57.000Z</time></trkpt><trkpt lon="5.788022" lat="51.100112"><ele>24.2</ele><time>2022-05-29T09:40:58.000Z</time></trkpt><trkpt lon="5.788008" lat="51.100188"><ele>24.2</ele><time>2022-05-29T09:40:59.000Z</time></trkpt><trkpt lon="5.787994" lat="51.100264"><ele>23.8</ele><time>2022-05-29T09:41:00.000Z</time></trkpt><trkpt lon="5.787979" lat="51.100339"><ele>23.8</ele><time>2022-05-29T09:41:01.000Z</time></trkpt><trkpt lon="5.787962" lat="51.100419"><ele>23.8</ele><time>2022-05-29T09:41:02.000Z</time></trkpt><trkpt lon="5.787944" lat="51.100492"><ele>23.8</ele><time>2022-05-29T09:41:03.000Z</time></trkpt><trkpt lon="5.787927" lat="51.100564"><ele>24</ele><time>2022-05-29T09:41:04.000Z</time></trkpt><trkpt lon="5.787906" lat="51.100637"><ele>24.2</ele><time>2022-05-29T09:41:05.000Z</time></trkpt><trkpt lon="5.787887" lat="51.100709"><ele>24.2</ele><time>2022-05-29T09:41:06.000Z</time></trkpt><trkpt lon="5.787873" lat="51.100778"><ele>24.2</ele><time>2022-05-29T09:41:07.000Z</time></trkpt><trkpt lon="5.787859" lat="51.100851"><ele>24.2</ele><time>2022-05-29T09:41:08.000Z</time></trkpt><trkpt lon="5.787846" lat="51.100923"><ele>24.4</ele><time>2022-05-29T09:41:09.000Z</time></trkpt><trkpt lon="5.787831" lat="51.100995"><ele>24.4</ele><time>2022-05-29T09:41:10.000Z</time></trkpt><trkpt lon="5.787815" lat="51.101074"><ele>24.4</ele><time>2022-05-29T09:41:11.000Z</time></trkpt><trkpt lon="5.787796" lat="51.101152"><ele>24.6</ele><time>2022-05-29T09:41:12.000Z</time></trkpt><trkpt lon="5.787777" lat="51.101226"><ele>24.6</ele><time>2022-05-29T09:41:13.000Z</time></trkpt><trkpt lon="5.787762" lat="51.101305"><ele>24.6</ele><time>2022-05-29T09:41:14.000Z</time></trkpt><trkpt lon="5.787747" lat="51.101379"><ele>24.6</ele><time>2022-05-29T09:41:15.000Z</time></trkpt><trkpt lon="5.787731" lat="51.101458"><ele>24.4</ele><time>2022-05-29T09:41:16.000Z</time></trkpt><trkpt lon="5.787716" lat="51.101534"><ele>24.6</ele><time>2022-05-29T09:41:17.000Z</time></trkpt><trkpt lon="5.7877" lat="51.101606"><ele>24.8</ele><time>2022-05-29T09:41:18.000Z</time></trkpt><trkpt lon="5.787682" lat="51.101679"><ele>24.8</ele><time>2022-05-29T09:41:19.000Z</time></trkpt><trkpt lon="5.787667" lat="51.101755"><ele>24.8</ele><time>2022-05-29T09:41:20.000Z</time></trkpt><trkpt lon="5.787652" lat="51.101828"><ele>25</ele><time>2022-05-29T09:41:21.000Z</time></trkpt><trkpt lon="5.787635" lat="51.101904"><ele>25.2</ele><time>2022-05-29T09:41:22.000Z</time></trkpt><trkpt lon="5.787619" lat="51.101981"><ele>25.2</ele><time>2022-05-29T09:41:23.000Z</time></trkpt><trkpt lon="5.787604" lat="51.102056"><ele>25.2</ele><time>2022-05-29T09:41:24.000Z</time></trkpt><trkpt lon="5.787587" lat="51.102133"><ele>25.2</ele><time>2022-05-29T09:41:25.000Z</time></trkpt><trkpt lon="5.78757" lat="51.10221"><ele>25.2</ele><time>2022-05-29T09:41:26.000Z</time></trkpt><trkpt lon="5.787554" lat="51.102285"><ele>25.2</ele><time>2022-05-29T09:41:27.000Z</time></trkpt><trkpt lon="5.787537" lat="51.102362"><ele>25.2</ele><time>2022-05-29T09:41:28.000Z</time></trkpt><trkpt lon="5.787518" lat="51.102438"><ele>25.2</ele><time>2022-05-29T09:41:29.000Z</time></trkpt><trkpt lon="5.7875" lat="51.102511"><ele>25.2</ele><time>2022-05-29T09:41:30.000Z</time></trkpt><trkpt lon="5.787485" lat="51.102586"><ele>25</ele><time>2022-05-29T09:41:31.000Z</time></trkpt><trkpt lon="5.787481" lat="51.102657"><ele>24.8</ele><time>2022-05-29T09:41:32.000Z</time></trkpt><trkpt lon="5.787489" lat="51.102727"><ele>24.6</ele><time>2022-05-29T09:41:33.000Z</time></trkpt><trkpt lon="5.78751" lat="51.102791"><ele>24.8</ele><time>2022-05-29T09:41:34.000Z</time></trkpt><trkpt lon="5.787543" lat="51.102858"><ele>24.8</ele><time>2022-05-29T09:41:35.000Z</time></trkpt><trkpt lon="5.787584" lat="51.10292"><ele>24.8</ele><time>2022-05-29T09:41:36.000Z</time></trkpt><trkpt lon="5.787625" lat="51.10298"><ele>24.8</ele><time>2022-05-29T09:41:37.000Z</time></trkpt><trkpt lon="5.787673" lat="51.103042"><ele>24.6</ele><time>2022-05-29T09:41:38.000Z</time></trkpt><trkpt lon="5.787727" lat="51.103098"><ele>24.6</ele><time>2022-05-29T09:41:39.000Z</time></trkpt><trkpt lon="5.787779" lat="51.10315"><ele>24.8</ele><time>2022-05-29T09:41:40.000Z</time></trkpt><trkpt lon="5.787813" lat="51.103197"><ele>24.8</ele><time>2022-05-29T09:41:41.000Z</time></trkpt><trkpt lon="5.787814" lat="51.103244"><ele>24.8</ele><time>2022-05-29T09:41:42.000Z</time></trkpt><trkpt lon="5.787773" lat="51.103284"><ele>24.8</ele><time>2022-05-29T09:41:43.000Z</time></trkpt><trkpt lon="5.787702" lat="51.10331"><ele>24.6</ele><time>2022-05-29T09:41:44.000Z</time></trkpt><trkpt lon="5.787617" lat="51.103334"><ele>24.6</ele><time>2022-05-29T09:41:45.000Z</time></trkpt><trkpt lon="5.787527" lat="51.103361"><ele>24.6</ele><time>2022-05-29T09:41:46.000Z</time></trkpt><trkpt lon="5.787436" lat="51.103391"><ele>24.4</ele><time>2022-05-29T09:41:47.000Z</time></trkpt><trkpt lon="5.787337" lat="51.103422"><ele>24.4</ele><time>2022-05-29T09:41:48.000Z</time></trkpt><trkpt lon="5.787235" lat="51.103453"><ele>24.6</ele><time>2022-05-29T09:41:49.000Z</time></trkpt><trkpt lon="5.787131" lat="51.103482"><ele>24.4</ele><time>2022-05-29T09:41:50.000Z</time></trkpt><trkpt lon="5.787022" lat="51.10351"><ele>24.2</ele><time>2022-05-29T09:41:51.000Z</time></trkpt><trkpt lon="5.786914" lat="51.10354"><ele>24.2</ele><time>2022-05-29T09:41:52.000Z</time></trkpt><trkpt lon="5.786806" lat="51.103567"><ele>24.2</ele><time>2022-05-29T09:41:53.000Z</time></trkpt><trkpt lon="5.7867" lat="51.103597"><ele>24.2</ele><time>2022-05-29T09:41:54.000Z</time></trkpt><trkpt lon="5.786587" lat="51.103628"><ele>24.2</ele><time>2022-05-29T09:41:55.000Z</time></trkpt><trkpt lon="5.786477" lat="51.103658"><ele>24.4</ele><time>2022-05-29T09:41:56.000Z</time></trkpt><trkpt lon="5.786365" lat="51.103689"><ele>24.4</ele><time>2022-05-29T09:41:57.000Z</time></trkpt><trkpt lon="5.786255" lat="51.103719"><ele>24.4</ele><time>2022-05-29T09:41:58.000Z</time></trkpt><trkpt lon="5.786142" lat="51.103745"><ele>24.2</ele><time>2022-05-29T09:41:59.000Z</time></trkpt><trkpt lon="5.786025" lat="51.103768"><ele>24</ele><time>2022-05-29T09:42:00.000Z</time></trkpt><trkpt lon="5.785909" lat="51.103789"><ele>24</ele><time>2022-05-29T09:42:01.000Z</time></trkpt><trkpt lon="5.785797" lat="51.103804"><ele>24.2</ele><time>2022-05-29T09:42:02.000Z</time></trkpt><trkpt lon="5.785683" lat="51.10382"><ele>24.2</ele><time>2022-05-29T09:42:03.000Z</time></trkpt><trkpt lon="5.785569" lat="51.103839"><ele>24.4</ele><time>2022-05-29T09:42:04.000Z</time></trkpt><trkpt lon="5.785458" lat="51.103854"><ele>24.4</ele><time>2022-05-29T09:42:05.000Z</time></trkpt><trkpt lon="5.785345" lat="51.103869"><ele>24.2</ele><time>2022-05-29T09:42:06.000Z</time></trkpt><trkpt lon="5.785233" lat="51.103884"><ele>24.4</ele><time>2022-05-29T09:42:07.000Z</time></trkpt><trkpt lon="5.785117" lat="51.103895"><ele>24.6</ele><time>2022-05-29T09:42:08.000Z</time></trkpt><trkpt lon="5.784998" lat="51.103905"><ele>24.8</ele><time>2022-05-29T09:42:09.000Z</time></trkpt><trkpt lon="5.784877" lat="51.103909"><ele>25</ele><time>2022-05-29T09:42:10.000Z</time></trkpt><trkpt lon="5.784756" lat="51.103909"><ele>25.2</ele><time>2022-05-29T09:42:11.000Z</time></trkpt><trkpt lon="5.784635" lat="51.103913"><ele>25.4</ele><time>2022-05-29T09:42:12.000Z</time></trkpt><trkpt lon="5.784518" lat="51.103916"><ele>25.6</ele><time>2022-05-29T09:42:13.000Z</time></trkpt><trkpt lon="5.784404" lat="51.103916"><ele>25.8</ele><time>2022-05-29T09:42:14.000Z</time></trkpt><trkpt lon="5.784296" lat="51.103916"><ele>25.8</ele><time>2022-05-29T09:42:15.000Z</time></trkpt><trkpt lon="5.784194" lat="51.103916"><ele>25.8</ele><time>2022-05-29T09:42:16.000Z</time></trkpt><trkpt lon="5.784097" lat="51.103917"><ele>26</ele><time>2022-05-29T09:42:17.000Z</time></trkpt><trkpt lon="5.784003" lat="51.103921"><ele>26</ele><time>2022-05-29T09:42:18.000Z</time></trkpt><trkpt lon="5.783916" lat="51.103928"><ele>26.2</ele><time>2022-05-29T09:42:19.000Z</time></trkpt><trkpt lon="5.78385" lat="51.103951"><ele>26.2</ele><time>2022-05-29T09:42:20.000Z</time></trkpt><trkpt lon="5.783829" lat="51.103986"><ele>26.4</ele><time>2022-05-29T09:42:21.000Z</time></trkpt><trkpt lon="5.783878" lat="51.104037"><ele>26.4</ele><time>2022-05-29T09:42:22.000Z</time></trkpt><trkpt lon="5.783939" lat="51.104094"><ele>26.4</ele><time>2022-05-29T09:42:23.000Z</time></trkpt><trkpt lon="5.784001" lat="51.104152"><ele>26.6</ele><time>2022-05-29T09:42:24.000Z</time></trkpt><trkpt lon="5.784062" lat="51.104208"><ele>26.6</ele><time>2022-05-29T09:42:25.000Z</time></trkpt><trkpt lon="5.784116" lat="51.104264"><ele>26.6</ele><time>2022-05-29T09:42:26.000Z</time></trkpt><trkpt lon="5.784155" lat="51.104331"><ele>26.8</ele><time>2022-05-29T09:42:27.000Z</time></trkpt><trkpt lon="5.784152" lat="51.104392"><ele>26.8</ele><time>2022-05-29T09:42:28.000Z</time></trkpt><trkpt lon="5.78411" lat="51.104447"><ele>26.8</ele><time>2022-05-29T09:42:29.000Z</time></trkpt><trkpt lon="5.784041" lat="51.104497"><ele>26.8</ele><time>2022-05-29T09:42:30.000Z</time></trkpt><trkpt lon="5.78396" lat="51.104542"><ele>26.8</ele><time>2022-05-29T09:42:31.000Z</time></trkpt><trkpt lon="5.783877" lat="51.104588"><ele>26.8</ele><time>2022-05-29T09:42:32.000Z</time></trkpt><trkpt lon="5.783789" lat="51.10463"><ele>26.6</ele><time>2022-05-29T09:42:33.000Z</time></trkpt><trkpt lon="5.783697" lat="51.104676"><ele>26.6</ele><time>2022-05-29T09:42:34.000Z</time></trkpt><trkpt lon="5.783605" lat="51.104721"><ele>26.4</ele><time>2022-05-29T09:42:35.000Z</time></trkpt><trkpt lon="5.783512" lat="51.104764"><ele>26.6</ele><time>2022-05-29T09:42:36.000Z</time></trkpt><trkpt lon="5.783418" lat="51.104814"><ele>26.6</ele><time>2022-05-29T09:42:37.000Z</time></trkpt><trkpt lon="5.783325" lat="51.104864"><ele>26.4</ele><time>2022-05-29T09:42:38.000Z</time></trkpt><trkpt lon="5.783234" lat="51.104913"><ele>26.4</ele><time>2022-05-29T09:42:39.000Z</time></trkpt><trkpt lon="5.783146" lat="51.104964"><ele>26.2</ele><time>2022-05-29T09:42:40.000Z</time></trkpt><trkpt lon="5.783063" lat="51.105016"><ele>26.2</ele><time>2022-05-29T09:42:41.000Z</time></trkpt><trkpt lon="5.782982" lat="51.105072"><ele>26.2</ele><time>2022-05-29T09:42:42.000Z</time></trkpt><trkpt lon="5.782909" lat="51.105133"><ele>26</ele><time>2022-05-29T09:42:43.000Z</time></trkpt><trkpt lon="5.78285" lat="51.105199"><ele>26</ele><time>2022-05-29T09:42:44.000Z</time></trkpt><trkpt lon="5.782804" lat="51.105271"><ele>25.8</ele><time>2022-05-29T09:42:45.000Z</time></trkpt><trkpt lon="5.782767" lat="51.105344"><ele>25.8</ele><time>2022-05-29T09:42:46.000Z</time></trkpt><trkpt lon="5.782733" lat="51.105416"><ele>25.8</ele><time>2022-05-29T09:42:47.000Z</time></trkpt><trkpt lon="5.782703" lat="51.105489"><ele>26</ele><time>2022-05-29T09:42:48.000Z</time></trkpt><trkpt lon="5.782673" lat="51.105566"><ele>26</ele><time>2022-05-29T09:42:49.000Z</time></trkpt><trkpt lon="5.782648" lat="51.105643"><ele>25.8</ele><time>2022-05-29T09:42:50.000Z</time></trkpt><trkpt lon="5.78263" lat="51.105719"><ele>25.8</ele><time>2022-05-29T09:42:51.000Z</time></trkpt><trkpt lon="5.782617" lat="51.1058"><ele>25.8</ele><time>2022-05-29T09:42:52.000Z</time></trkpt><trkpt lon="5.782611" lat="51.105881"><ele>25.8</ele><time>2022-05-29T09:42:53.000Z</time></trkpt><trkpt lon="5.782611" lat="51.105964"><ele>25.8</ele><time>2022-05-29T09:42:54.000Z</time></trkpt><trkpt lon="5.782617" lat="51.106044"><ele>25.6</ele><time>2022-05-29T09:42:55.000Z</time></trkpt><trkpt lon="5.782627" lat="51.106124"><ele>25.6</ele><time>2022-05-29T09:42:56.000Z</time></trkpt><trkpt lon="5.782636" lat="51.106204"><ele>25.6</ele><time>2022-05-29T09:42:57.000Z</time></trkpt><trkpt lon="5.782639" lat="51.106285"><ele>25.8</ele><time>2022-05-29T09:42:58.000Z</time></trkpt><trkpt lon="5.782638" lat="51.106364"><ele>25.8</ele><time>2022-05-29T09:42:59.000Z</time></trkpt><trkpt lon="5.782635" lat="51.106441"><ele>25.8</ele><time>2022-05-29T09:43:00.000Z</time></trkpt><trkpt lon="5.782632" lat="51.10652"><ele>25.8</ele><time>2022-05-29T09:43:01.000Z</time></trkpt><trkpt lon="5.782625" lat="51.1066"><ele>26</ele><time>2022-05-29T09:43:02.000Z</time></trkpt><trkpt lon="5.78262" lat="51.106677"><ele>26</ele><time>2022-05-29T09:43:03.000Z</time></trkpt><trkpt lon="5.78262" lat="51.106753"><ele>26</ele><time>2022-05-29T09:43:04.000Z</time></trkpt><trkpt lon="5.782618" lat="51.106828"><ele>26</ele><time>2022-05-29T09:43:05.000Z</time></trkpt><trkpt lon="5.782616" lat="51.106906"><ele>26</ele><time>2022-05-29T09:43:06.000Z</time></trkpt><trkpt lon="5.782611" lat="51.106984"><ele>25.8</ele><time>2022-05-29T09:43:07.000Z</time></trkpt><trkpt lon="5.782607" lat="51.107061"><ele>25.8</ele><time>2022-05-29T09:43:08.000Z</time></trkpt><trkpt lon="5.7826" lat="51.107136"><ele>25.8</ele><time>2022-05-29T09:43:09.000Z</time></trkpt><trkpt lon="5.782591" lat="51.107219"><ele>25.8</ele><time>2022-05-29T09:43:10.000Z</time></trkpt><trkpt lon="5.782582" lat="51.107299"><ele>26</ele><time>2022-05-29T09:43:11.000Z</time></trkpt><trkpt lon="5.782574" lat="51.107379"><ele>26</ele><time>2022-05-29T09:43:12.000Z</time></trkpt><trkpt lon="5.782568" lat="51.107455"><ele>26.2</ele><time>2022-05-29T09:43:13.000Z</time></trkpt><trkpt lon="5.782563" lat="51.107531"><ele>26.2</ele><time>2022-05-29T09:43:14.000Z</time></trkpt><trkpt lon="5.782559" lat="51.107608"><ele>26.2</ele><time>2022-05-29T09:43:15.000Z</time></trkpt><trkpt lon="5.782554" lat="51.107688"><ele>26.4</ele><time>2022-05-29T09:43:16.000Z</time></trkpt><trkpt lon="5.782548" lat="51.107767"><ele>26.4</ele><time>2022-05-29T09:43:17.000Z</time></trkpt><trkpt lon="5.782546" lat="51.107846"><ele>26.4</ele><time>2022-05-29T09:43:18.000Z</time></trkpt><trkpt lon="5.782553" lat="51.107919"><ele>26.4</ele><time>2022-05-29T09:43:19.000Z</time></trkpt><trkpt lon="5.78258" lat="51.108004"><ele>26.4</ele><time>2022-05-29T09:43:20.000Z</time></trkpt><trkpt lon="5.782618" lat="51.10808"><ele>26.4</ele><time>2022-05-29T09:43:21.000Z</time></trkpt><trkpt lon="5.782666" lat="51.108157"><ele>26.4</ele><time>2022-05-29T09:43:22.000Z</time></trkpt><trkpt lon="5.782718" lat="51.108232"><ele>26.4</ele><time>2022-05-29T09:43:23.000Z</time></trkpt><trkpt lon="5.782775" lat="51.108305"><ele>26.6</ele><time>2022-05-29T09:43:24.000Z</time></trkpt><trkpt lon="5.782836" lat="51.108377"><ele>26.6</ele><time>2022-05-29T09:43:25.000Z</time></trkpt><trkpt lon="5.782897" lat="51.108449"><ele>26.6</ele><time>2022-05-29T09:43:26.000Z</time></trkpt><trkpt lon="5.782956" lat="51.108517"><ele>26.8</ele><time>2022-05-29T09:43:27.000Z</time></trkpt><trkpt lon="5.783018" lat="51.108595"><ele>26.8</ele><time>2022-05-29T09:43:28.000Z</time></trkpt><trkpt lon="5.783078" lat="51.108671"><ele>26.8</ele><time>2022-05-29T09:43:29.000Z</time></trkpt><trkpt lon="5.783141" lat="51.108743"><ele>26.8</ele><time>2022-05-29T09:43:30.000Z</time></trkpt><trkpt lon="5.7832" lat="51.108817"><ele>26.8</ele><time>2022-05-29T09:43:31.000Z</time></trkpt><trkpt lon="5.783256" lat="51.108892"><ele>26.8</ele><time>2022-05-29T09:43:32.000Z</time></trkpt><trkpt lon="5.783305" lat="51.108966"><ele>26.8</ele><time>2022-05-29T09:43:33.000Z</time></trkpt><trkpt lon="5.783352" lat="51.109045"><ele>26.8</ele><time>2022-05-29T09:43:34.000Z</time></trkpt><trkpt lon="5.783396" lat="51.109118"><ele>27</ele><time>2022-05-29T09:43:35.000Z</time></trkpt><trkpt lon="5.783441" lat="51.109194"><ele>27</ele><time>2022-05-29T09:43:36.000Z</time></trkpt><trkpt lon="5.783481" lat="51.10927"><ele>26.8</ele><time>2022-05-29T09:43:37.000Z</time></trkpt><trkpt lon="5.783518" lat="51.109347"><ele>27</ele><time>2022-05-29T09:43:38.000Z</time></trkpt><trkpt lon="5.783551" lat="51.109423"><ele>26.8</ele><time>2022-05-29T09:43:39.000Z</time></trkpt><trkpt lon="5.783586" lat="51.109496"><ele>26.8</ele><time>2022-05-29T09:43:40.000Z</time></trkpt><trkpt lon="5.783621" lat="51.109571"><ele>26.8</ele><time>2022-05-29T09:43:41.000Z</time></trkpt><trkpt lon="5.783655" lat="51.109644"><ele>26.8</ele><time>2022-05-29T09:43:42.000Z</time></trkpt><trkpt lon="5.783688" lat="51.109716"><ele>27</ele><time>2022-05-29T09:43:43.000Z</time></trkpt><trkpt lon="5.783721" lat="51.109789"><ele>27</ele><time>2022-05-29T09:43:44.000Z</time></trkpt><trkpt lon="5.783755" lat="51.10986"><ele>26.8</ele><time>2022-05-29T09:43:45.000Z</time></trkpt><trkpt lon="5.783786" lat="51.109926"><ele>26.8</ele><time>2022-05-29T09:43:46.000Z</time></trkpt><trkpt lon="5.783828" lat="51.110007"><ele>26.8</ele><time>2022-05-29T09:43:47.000Z</time></trkpt><trkpt lon="5.783868" lat="51.110079"><ele>27</ele><time>2022-05-29T09:43:48.000Z</time></trkpt><trkpt lon="5.783911" lat="51.11015"><ele>27</ele><time>2022-05-29T09:43:49.000Z</time></trkpt><trkpt lon="5.783959" lat="51.110219"><ele>27</ele><time>2022-05-29T09:43:50.000Z</time></trkpt><trkpt lon="5.78401" lat="51.110291"><ele>26.8</ele><time>2022-05-29T09:43:51.000Z</time></trkpt><trkpt lon="5.784065" lat="51.11036"><ele>26.8</ele><time>2022-05-29T09:43:52.000Z</time></trkpt><trkpt lon="5.784121" lat="51.110429"><ele>26.8</ele><time>2022-05-29T09:43:53.000Z</time></trkpt><trkpt lon="5.784177" lat="51.110498"><ele>26.6</ele><time>2022-05-29T09:43:54.000Z</time></trkpt><trkpt lon="5.784235" lat="51.11057"><ele>26.6</ele><time>2022-05-29T09:43:55.000Z</time></trkpt><trkpt lon="5.784294" lat="51.110639"><ele>26.8</ele><time>2022-05-29T09:43:56.000Z</time></trkpt><trkpt lon="5.784352" lat="51.110708"><ele>26.8</ele><time>2022-05-29T09:43:57.000Z</time></trkpt><trkpt lon="5.784411" lat="51.11078"><ele>27</ele><time>2022-05-29T09:43:58.000Z</time></trkpt><trkpt lon="5.784471" lat="51.110849"><ele>27</ele><time>2022-05-29T09:43:59.000Z</time></trkpt><trkpt lon="5.784529" lat="51.110917"><ele>27.2</ele><time>2022-05-29T09:44:00.000Z</time></trkpt><trkpt lon="5.784587" lat="51.110986"><ele>27.4</ele><time>2022-05-29T09:44:01.000Z</time></trkpt><trkpt lon="5.784646" lat="51.111059"><ele>27.4</ele><time>2022-05-29T09:44:02.000Z</time></trkpt><trkpt lon="5.784707" lat="51.111129"><ele>27.6</ele><time>2022-05-29T09:44:03.000Z</time></trkpt><trkpt lon="5.784771" lat="51.1112"><ele>27.6</ele><time>2022-05-29T09:44:04.000Z</time></trkpt><trkpt lon="5.784831" lat="51.111268"><ele>27.4</ele><time>2022-05-29T09:44:05.000Z</time></trkpt><trkpt lon="5.784896" lat="51.111337"><ele>27.4</ele><time>2022-05-29T09:44:06.000Z</time></trkpt><trkpt lon="5.784963" lat="51.111404"><ele>27.4</ele><time>2022-05-29T09:44:07.000Z</time></trkpt><trkpt lon="5.785032" lat="51.111473"><ele>27.6</ele><time>2022-05-29T09:44:08.000Z</time></trkpt><trkpt lon="5.785102" lat="51.111538"><ele>27.6</ele><time>2022-05-29T09:44:09.000Z</time></trkpt><trkpt lon="5.785169" lat="51.111603"><ele>27.6</ele><time>2022-05-29T09:44:10.000Z</time></trkpt><trkpt lon="5.785235" lat="51.111667"><ele>27.8</ele><time>2022-05-29T09:44:11.000Z</time></trkpt><trkpt lon="5.785304" lat="51.111733"><ele>27.8</ele><time>2022-05-29T09:44:12.000Z</time></trkpt><trkpt lon="5.785369" lat="51.111796"><ele>27.8</ele><time>2022-05-29T09:44:13.000Z</time></trkpt><trkpt lon="5.785433" lat="51.111861"><ele>28</ele><time>2022-05-29T09:44:14.000Z</time></trkpt><trkpt lon="5.785492" lat="51.111926"><ele>28.2</ele><time>2022-05-29T09:44:15.000Z</time></trkpt><trkpt lon="5.785546" lat="51.111997"><ele>28.2</ele><time>2022-05-29T09:44:16.000Z</time></trkpt><trkpt lon="5.785592" lat="51.112066"><ele>28.4</ele><time>2022-05-29T09:44:17.000Z</time></trkpt><trkpt lon="5.78563" lat="51.112138"><ele>28.4</ele><time>2022-05-29T09:44:18.000Z</time></trkpt><trkpt lon="5.785666" lat="51.11221"><ele>28.4</ele><time>2022-05-29T09:44:19.000Z</time></trkpt><trkpt lon="5.785701" lat="51.112284"><ele>28.4</ele><time>2022-05-29T09:44:20.000Z</time></trkpt><trkpt lon="5.785734" lat="51.112359"><ele>28.4</ele><time>2022-05-29T09:44:21.000Z</time></trkpt><trkpt lon="5.785768" lat="51.112432"><ele>28.4</ele><time>2022-05-29T09:44:22.000Z</time></trkpt><trkpt lon="5.785803" lat="51.112504"><ele>28.4</ele><time>2022-05-29T09:44:23.000Z</time></trkpt><trkpt lon="5.785836" lat="51.112577"><ele>28.4</ele><time>2022-05-29T09:44:24.000Z</time></trkpt><trkpt lon="5.78587" lat="51.11265"><ele>28.2</ele><time>2022-05-29T09:44:25.000Z</time></trkpt><trkpt lon="5.785904" lat="51.112722"><ele>28.4</ele><time>2022-05-29T09:44:26.000Z</time></trkpt><trkpt lon="5.78594" lat="51.112794"><ele>28.2</ele><time>2022-05-29T09:44:27.000Z</time></trkpt><trkpt lon="5.785975" lat="51.112867"><ele>28.2</ele><time>2022-05-29T09:44:28.000Z</time></trkpt><trkpt lon="5.786009" lat="51.11294"><ele>28.2</ele><time>2022-05-29T09:44:29.000Z</time></trkpt><trkpt lon="5.786044" lat="51.113012"><ele>28.2</ele><time>2022-05-29T09:44:30.000Z</time></trkpt><trkpt lon="5.786082" lat="51.113083"><ele>28.2</ele><time>2022-05-29T09:44:31.000Z</time></trkpt><trkpt lon="5.786128" lat="51.113152"><ele>28.2</ele><time>2022-05-29T09:44:32.000Z</time></trkpt><trkpt lon="5.786184" lat="51.113215"><ele>28</ele><time>2022-05-29T09:44:33.000Z</time></trkpt><trkpt lon="5.786247" lat="51.113277"><ele>28</ele><time>2022-05-29T09:44:34.000Z</time></trkpt><trkpt lon="5.786316" lat="51.113338"><ele>28</ele><time>2022-05-29T09:44:35.000Z</time></trkpt><trkpt lon="5.786384" lat="51.113399"><ele>28.2</ele><time>2022-05-29T09:44:36.000Z</time></trkpt><trkpt lon="5.786455" lat="51.113459"><ele>28.2</ele><time>2022-05-29T09:44:37.000Z</time></trkpt><trkpt lon="5.786526" lat="51.113517"><ele>28</ele><time>2022-05-29T09:44:38.000Z</time></trkpt><trkpt lon="5.786596" lat="51.113578"><ele>28</ele><time>2022-05-29T09:44:39.000Z</time></trkpt><trkpt lon="5.786667" lat="51.113635"><ele>28</ele><time>2022-05-29T09:44:40.000Z</time></trkpt><trkpt lon="5.786734" lat="51.113696"><ele>28</ele><time>2022-05-29T09:44:41.000Z</time></trkpt><trkpt lon="5.786799" lat="51.113763"><ele>28</ele><time>2022-05-29T09:44:42.000Z</time></trkpt><trkpt lon="5.786856" lat="51.113832"><ele>28</ele><time>2022-05-29T09:44:43.000Z</time></trkpt><trkpt lon="5.786904" lat="51.113901"><ele>28</ele><time>2022-05-29T09:44:44.000Z</time></trkpt><trkpt lon="5.786944" lat="51.113974"><ele>28</ele><time>2022-05-29T09:44:45.000Z</time></trkpt><trkpt lon="5.786973" lat="51.11405"><ele>27.8</ele><time>2022-05-29T09:44:46.000Z</time></trkpt><trkpt lon="5.78699" lat="51.114126"><ele>27.8</ele><time>2022-05-29T09:44:47.000Z</time></trkpt><trkpt lon="5.786997" lat="51.1142"><ele>27.6</ele><time>2022-05-29T09:44:48.000Z</time></trkpt><trkpt lon="5.786995" lat="51.114279"><ele>27.6</ele><time>2022-05-29T09:44:49.000Z</time></trkpt><trkpt lon="5.786986" lat="51.114356"><ele>27.4</ele><time>2022-05-29T09:44:50.000Z</time></trkpt><trkpt lon="5.786976" lat="51.114432"><ele>27.4</ele><time>2022-05-29T09:44:51.000Z</time></trkpt><trkpt lon="5.786962" lat="51.114512"><ele>27.4</ele><time>2022-05-29T09:44:52.000Z</time></trkpt><trkpt lon="5.786949" lat="51.114589"><ele>27.4</ele><time>2022-05-29T09:44:53.000Z</time></trkpt><trkpt lon="5.78694" lat="51.114669"><ele>27.2</ele><time>2022-05-29T09:44:54.000Z</time></trkpt><trkpt lon="5.786939" lat="51.11475"><ele>27.2</ele><time>2022-05-29T09:44:55.000Z</time></trkpt><trkpt lon="5.786944" lat="51.114831"><ele>27</ele><time>2022-05-29T09:44:56.000Z</time></trkpt><trkpt lon="5.786949" lat="51.114912"><ele>27</ele><time>2022-05-29T09:44:57.000Z</time></trkpt><trkpt lon="5.78695" lat="51.114994"><ele>27</ele><time>2022-05-29T09:44:58.000Z</time></trkpt><trkpt lon="5.786948" lat="51.115077"><ele>27</ele><time>2022-05-29T09:44:59.000Z</time></trkpt><trkpt lon="5.786946" lat="51.115157"><ele>26.8</ele><time>2022-05-29T09:45:00.000Z</time></trkpt><trkpt lon="5.786945" lat="51.115237"><ele>26.8</ele><time>2022-05-29T09:45:01.000Z</time></trkpt><trkpt lon="5.786943" lat="51.115318"><ele>26.8</ele><time>2022-05-29T09:45:02.000Z</time></trkpt><trkpt lon="5.786938" lat="51.115397"><ele>26.8</ele><time>2022-05-29T09:45:03.000Z</time></trkpt><trkpt lon="5.786927" lat="51.115478"><ele>26.8</ele><time>2022-05-29T09:45:04.000Z</time></trkpt><trkpt lon="5.786912" lat="51.115558"><ele>26.6</ele><time>2022-05-29T09:45:05.000Z</time></trkpt><trkpt lon="5.786895" lat="51.115637"><ele>26.6</ele><time>2022-05-29T09:45:06.000Z</time></trkpt><trkpt lon="5.786877" lat="51.115713"><ele>26.6</ele><time>2022-05-29T09:45:07.000Z</time></trkpt><trkpt lon="5.786858" lat="51.115793"><ele>26.6</ele><time>2022-05-29T09:45:08.000Z</time></trkpt><trkpt lon="5.786836" lat="51.115873"><ele>26.6</ele><time>2022-05-29T09:45:09.000Z</time></trkpt><trkpt lon="5.78681" lat="51.115955"><ele>26.6</ele><time>2022-05-29T09:45:10.000Z</time></trkpt><trkpt lon="5.786784" lat="51.116034"><ele>26.6</ele><time>2022-05-29T09:45:11.000Z</time></trkpt><trkpt lon="5.786756" lat="51.11611"><ele>26.4</ele><time>2022-05-29T09:45:12.000Z</time></trkpt><trkpt lon="5.786728" lat="51.116181"><ele>26.4</ele><time>2022-05-29T09:45:13.000Z</time></trkpt><trkpt lon="5.786718" lat="51.116248"><ele>26.4</ele><time>2022-05-29T09:45:14.000Z</time></trkpt><trkpt lon="5.786708" lat="51.116315"><ele>26.4</ele><time>2022-05-29T09:45:15.000Z</time></trkpt><trkpt lon="5.786698" lat="51.116382"><ele>26.4</ele><time>2022-05-29T09:45:16.000Z</time></trkpt><trkpt lon="5.78667" lat="51.116472"><ele>26.4</ele><time>2022-05-29T09:45:17.000Z</time></trkpt><trkpt lon="5.786649" lat="51.116566"><ele>26.4</ele><time>2022-05-29T09:45:18.000Z</time></trkpt><trkpt lon="5.786633" lat="51.116656"><ele>26.4</ele><time>2022-05-29T09:45:19.000Z</time></trkpt><trkpt lon="5.786629" lat="51.116734"><ele>26.4</ele><time>2022-05-29T09:45:20.000Z</time></trkpt><trkpt lon="5.786624" lat="51.116816"><ele>26.4</ele><time>2022-05-29T09:45:21.000Z</time></trkpt><trkpt lon="5.78663" lat="51.116893"><ele>26.4</ele><time>2022-05-29T09:45:22.000Z</time></trkpt><trkpt lon="5.786641" lat="51.11697"><ele>26.6</ele><time>2022-05-29T09:45:23.000Z</time></trkpt><trkpt lon="5.786655" lat="51.117049"><ele>26.6</ele><time>2022-05-29T09:45:24.000Z</time></trkpt><trkpt lon="5.786676" lat="51.117121"><ele>26.6</ele><time>2022-05-29T09:45:25.000Z</time></trkpt><trkpt lon="5.7867" lat="51.117194"><ele>26.6</ele><time>2022-05-29T09:45:26.000Z</time></trkpt><trkpt lon="5.786725" lat="51.117271"><ele>26.6</ele><time>2022-05-29T09:45:27.000Z</time></trkpt><trkpt lon="5.786753" lat="51.117348"><ele>26.6</ele><time>2022-05-29T09:45:28.000Z</time></trkpt><trkpt lon="5.78678" lat="51.117427"><ele>26.6</ele><time>2022-05-29T09:45:29.000Z</time></trkpt><trkpt lon="5.786805" lat="51.117504"><ele>26.6</ele><time>2022-05-29T09:45:30.000Z</time></trkpt><trkpt lon="5.78683" lat="51.117579"><ele>26.6</ele><time>2022-05-29T09:45:31.000Z</time></trkpt><trkpt lon="5.786854" lat="51.117652"><ele>26.6</ele><time>2022-05-29T09:45:32.000Z</time></trkpt><trkpt lon="5.786878" lat="51.117728"><ele>26.6</ele><time>2022-05-29T09:45:33.000Z</time></trkpt><trkpt lon="5.786903" lat="51.117805"><ele>26.4</ele><time>2022-05-29T09:45:34.000Z</time></trkpt><trkpt lon="5.786927" lat="51.117882"><ele>26.2</ele><time>2022-05-29T09:45:35.000Z</time></trkpt><trkpt lon="5.786948" lat="51.11796"><ele>26.2</ele><time>2022-05-29T09:45:36.000Z</time></trkpt><trkpt lon="5.786963" lat="51.118035"><ele>26.2</ele><time>2022-05-29T09:45:37.000Z</time></trkpt><trkpt lon="5.786973" lat="51.118113"><ele>26</ele><time>2022-05-29T09:45:38.000Z</time></trkpt><trkpt lon="5.786966" lat="51.11819"><ele>26</ele><time>2022-05-29T09:45:39.000Z</time></trkpt><trkpt lon="5.786944" lat="51.118265"><ele>25.8</ele><time>2022-05-29T09:45:40.000Z</time></trkpt><trkpt lon="5.78691" lat="51.118333"><ele>25.8</ele><time>2022-05-29T09:45:41.000Z</time></trkpt><trkpt lon="5.786866" lat="51.118401"><ele>26</ele><time>2022-05-29T09:45:42.000Z</time></trkpt><trkpt lon="5.786818" lat="51.118467"><ele>26</ele><time>2022-05-29T09:45:43.000Z</time></trkpt><trkpt lon="5.786771" lat="51.118535"><ele>26</ele><time>2022-05-29T09:45:44.000Z</time></trkpt><trkpt lon="5.786732" lat="51.118604"><ele>26</ele><time>2022-05-29T09:45:45.000Z</time></trkpt><trkpt lon="5.786708" lat="51.118674"><ele>26</ele><time>2022-05-29T09:45:46.000Z</time></trkpt><trkpt lon="5.786699" lat="51.118746"><ele>26</ele><time>2022-05-29T09:45:47.000Z</time></trkpt><trkpt lon="5.786706" lat="51.118823"><ele>26</ele><time>2022-05-29T09:45:48.000Z</time></trkpt><trkpt lon="5.786724" lat="51.118899"><ele>26.2</ele><time>2022-05-29T09:45:49.000Z</time></trkpt><trkpt lon="5.786748" lat="51.118971"><ele>26.2</ele><time>2022-05-29T09:45:50.000Z</time></trkpt><trkpt lon="5.786776" lat="51.119048"><ele>26.2</ele><time>2022-05-29T09:45:51.000Z</time></trkpt><trkpt lon="5.786808" lat="51.119124"><ele>26.2</ele><time>2022-05-29T09:45:52.000Z</time></trkpt><trkpt lon="5.786841" lat="51.119196"><ele>26.4</ele><time>2022-05-29T09:45:53.000Z</time></trkpt><trkpt lon="5.786875" lat="51.119269"><ele>26.4</ele><time>2022-05-29T09:45:54.000Z</time></trkpt><trkpt lon="5.786911" lat="51.119344"><ele>26.4</ele><time>2022-05-29T09:45:55.000Z</time></trkpt><trkpt lon="5.786948" lat="51.119417"><ele>26.4</ele><time>2022-05-29T09:45:56.000Z</time></trkpt><trkpt lon="5.786985" lat="51.119489"><ele>26.4</ele><time>2022-05-29T09:45:57.000Z</time></trkpt><trkpt lon="5.787022" lat="51.119562"><ele>26.6</ele><time>2022-05-29T09:45:58.000Z</time></trkpt><trkpt lon="5.787057" lat="51.119635"><ele>26.6</ele><time>2022-05-29T09:45:59.000Z</time></trkpt><trkpt lon="5.787094" lat="51.119708"><ele>26.6</ele><time>2022-05-29T09:46:00.000Z</time></trkpt><trkpt lon="5.787134" lat="51.119783"><ele>26.6</ele><time>2022-05-29T09:46:01.000Z</time></trkpt><trkpt lon="5.787172" lat="51.119853"><ele>26.8</ele><time>2022-05-29T09:46:02.000Z</time></trkpt><trkpt lon="5.787212" lat="51.119932"><ele>26.8</ele><time>2022-05-29T09:46:03.000Z</time></trkpt><trkpt lon="5.787253" lat="51.120006"><ele>26.8</ele><time>2022-05-29T09:46:04.000Z</time></trkpt><trkpt lon="5.787298" lat="51.120079"><ele>26.8</ele><time>2022-05-29T09:46:05.000Z</time></trkpt><trkpt lon="5.787342" lat="51.120157"><ele>26.8</ele><time>2022-05-29T09:46:06.000Z</time></trkpt><trkpt lon="5.787385" lat="51.120234"><ele>26.6</ele><time>2022-05-29T09:46:07.000Z</time></trkpt><trkpt lon="5.78743" lat="51.120311"><ele>26.6</ele><time>2022-05-29T09:46:08.000Z</time></trkpt><trkpt lon="5.787473" lat="51.120386"><ele>26.6</ele><time>2022-05-29T09:46:09.000Z</time></trkpt><trkpt lon="5.787518" lat="51.12046"><ele>26.6</ele><time>2022-05-29T09:46:10.000Z</time></trkpt><trkpt lon="5.78756" lat="51.120535"><ele>26.8</ele><time>2022-05-29T09:46:11.000Z</time></trkpt><trkpt lon="5.787602" lat="51.120605"><ele>26.8</ele><time>2022-05-29T09:46:12.000Z</time></trkpt><trkpt lon="5.787647" lat="51.120679"><ele>26.8</ele><time>2022-05-29T09:46:13.000Z</time></trkpt><trkpt lon="5.787693" lat="51.120755"><ele>26.8</ele><time>2022-05-29T09:46:14.000Z</time></trkpt><trkpt lon="5.787739" lat="51.120825"><ele>26.8</ele><time>2022-05-29T09:46:15.000Z</time></trkpt><trkpt lon="5.787784" lat="51.120896"><ele>26.6</ele><time>2022-05-29T09:46:16.000Z</time></trkpt><trkpt lon="5.787833" lat="51.120966"><ele>26.6</ele><time>2022-05-29T09:46:17.000Z</time></trkpt><trkpt lon="5.787885" lat="51.121037"><ele>26.6</ele><time>2022-05-29T09:46:18.000Z</time></trkpt><trkpt lon="5.78794" lat="51.121103"><ele>26.4</ele><time>2022-05-29T09:46:19.000Z</time></trkpt><trkpt lon="5.787995" lat="51.121175"><ele>26.4</ele><time>2022-05-29T09:46:20.000Z</time></trkpt><trkpt lon="5.788049" lat="51.121242"><ele>26.4</ele><time>2022-05-29T09:46:21.000Z</time></trkpt><trkpt lon="5.788106" lat="51.121309"><ele>26.4</ele><time>2022-05-29T09:46:22.000Z</time></trkpt><trkpt lon="5.788166" lat="51.121377"><ele>26.4</ele><time>2022-05-29T09:46:23.000Z</time></trkpt><trkpt lon="5.788224" lat="51.121446"><ele>26.4</ele><time>2022-05-29T09:46:24.000Z</time></trkpt><trkpt lon="5.788281" lat="51.121515"><ele>26.4</ele><time>2022-05-29T09:46:25.000Z</time></trkpt><trkpt lon="5.788339" lat="51.121583"><ele>26.4</ele><time>2022-05-29T09:46:26.000Z</time></trkpt><trkpt lon="5.788394" lat="51.12165"><ele>26.4</ele><time>2022-05-29T09:46:27.000Z</time></trkpt><trkpt lon="5.78845" lat="51.121715"><ele>26.2</ele><time>2022-05-29T09:46:28.000Z</time></trkpt><trkpt lon="5.788505" lat="51.121782"><ele>26.2</ele><time>2022-05-29T09:46:29.000Z</time></trkpt><trkpt lon="5.788558" lat="51.121847"><ele>26.2</ele><time>2022-05-29T09:46:30.000Z</time></trkpt><trkpt lon="5.7886" lat="51.121898"><ele>26.2</ele><time>2022-05-29T09:46:31.000Z</time></trkpt><trkpt lon="5.788658" lat="51.12198"><ele>26.2</ele><time>2022-05-29T09:46:32.000Z</time></trkpt><trkpt lon="5.788701" lat="51.122049"><ele>26.2</ele><time>2022-05-29T09:46:33.000Z</time></trkpt><trkpt lon="5.788742" lat="51.122121"><ele>26.2</ele><time>2022-05-29T09:46:34.000Z</time></trkpt><trkpt lon="5.788782" lat="51.12219"><ele>26.2</ele><time>2022-05-29T09:46:35.000Z</time></trkpt><trkpt lon="5.78882" lat="51.122259"><ele>26.2</ele><time>2022-05-29T09:46:36.000Z</time></trkpt><trkpt lon="5.788855" lat="51.122332"><ele>26.2</ele><time>2022-05-29T09:46:37.000Z</time></trkpt><trkpt lon="5.788891" lat="51.122404"><ele>26</ele><time>2022-05-29T09:46:38.000Z</time></trkpt><trkpt lon="5.788924" lat="51.122477"><ele>26</ele><time>2022-05-29T09:46:39.000Z</time></trkpt><trkpt lon="5.78895" lat="51.122552"><ele>26</ele><time>2022-05-29T09:46:40.000Z</time></trkpt><trkpt lon="5.788967" lat="51.122621"><ele>26.2</ele><time>2022-05-29T09:46:41.000Z</time></trkpt><trkpt lon="5.788975" lat="51.122694"><ele>26.2</ele><time>2022-05-29T09:46:42.000Z</time></trkpt><trkpt lon="5.788978" lat="51.122765"><ele>26.2</ele><time>2022-05-29T09:46:43.000Z</time></trkpt><trkpt lon="5.788977" lat="51.122831"><ele>26.2</ele><time>2022-05-29T09:46:44.000Z</time></trkpt><trkpt lon="5.788969" lat="51.122898"><ele>26.2</ele><time>2022-05-29T09:46:45.000Z</time></trkpt><trkpt lon="5.788964" lat="51.122958"><ele>26.2</ele><time>2022-05-29T09:46:46.000Z</time></trkpt><trkpt lon="5.788957" lat="51.123014"><ele>26.2</ele><time>2022-05-29T09:46:47.000Z</time></trkpt><trkpt lon="5.788964" lat="51.123068"><ele>26.2</ele><time>2022-05-29T09:46:48.000Z</time></trkpt><trkpt lon="5.788985" lat="51.123121"><ele>26.2</ele><time>2022-05-29T09:46:49.000Z</time></trkpt><trkpt lon="5.789014" lat="51.123174"><ele>26</ele><time>2022-05-29T09:46:50.000Z</time></trkpt><trkpt lon="5.789048" lat="51.123227"><ele>26</ele><time>2022-05-29T09:46:51.000Z</time></trkpt><trkpt lon="5.789083" lat="51.123272"><ele>26</ele><time>2022-05-29T09:46:52.000Z</time></trkpt><trkpt lon="5.789116" lat="51.123314"><ele>26</ele><time>2022-05-29T09:46:53.000Z</time></trkpt><trkpt lon="5.789142" lat="51.123354"><ele>26.2</ele><time>2022-05-29T09:46:54.000Z</time></trkpt><trkpt lon="5.789138" lat="51.123383"><ele>26.2</ele><time>2022-05-29T09:46:55.000Z</time></trkpt><trkpt lon="5.789105" lat="51.123403"><ele>26.2</ele><time>2022-05-29T09:46:56.000Z</time></trkpt><trkpt lon="5.789054" lat="51.123409"><ele>26</ele><time>2022-05-29T09:46:57.000Z</time></trkpt><trkpt lon="5.788999" lat="51.123403"><ele>25.8</ele><time>2022-05-29T09:46:58.000Z</time></trkpt><trkpt lon="5.788936" lat="51.12339"><ele>25.6</ele><time>2022-05-29T09:46:59.000Z</time></trkpt><trkpt lon="5.788858" lat="51.12337"><ele>25.6</ele><time>2022-05-29T09:47:00.000Z</time></trkpt><trkpt lon="5.788767" lat="51.123344"><ele>25.8</ele><time>2022-05-29T09:47:01.000Z</time></trkpt><trkpt lon="5.788668" lat="51.123317"><ele>25.6</ele><time>2022-05-29T09:47:02.000Z</time></trkpt><trkpt lon="5.788566" lat="51.12329"><ele>25.8</ele><time>2022-05-29T09:47:03.000Z</time></trkpt><trkpt lon="5.78846" lat="51.123262"><ele>25.8</ele><time>2022-05-29T09:47:04.000Z</time></trkpt><trkpt lon="5.788355" lat="51.123233"><ele>26</ele><time>2022-05-29T09:47:05.000Z</time></trkpt><trkpt lon="5.788246" lat="51.123211"><ele>26</ele><time>2022-05-29T09:47:06.000Z</time></trkpt><trkpt lon="5.788133" lat="51.123189"><ele>26</ele><time>2022-05-29T09:47:07.000Z</time></trkpt><trkpt lon="5.788015" lat="51.123175"><ele>26.2</ele><time>2022-05-29T09:47:08.000Z</time></trkpt><trkpt lon="5.787895" lat="51.123168"><ele>26.4</ele><time>2022-05-29T09:47:09.000Z</time></trkpt><trkpt lon="5.787774" lat="51.123164"><ele>26.4</ele><time>2022-05-29T09:47:10.000Z</time></trkpt><trkpt lon="5.787655" lat="51.123161"><ele>26.4</ele><time>2022-05-29T09:47:11.000Z</time></trkpt><trkpt lon="5.787529" lat="51.123157"><ele>26.4</ele><time>2022-05-29T09:47:12.000Z</time></trkpt><trkpt lon="5.787403" lat="51.123153"><ele>26.4</ele><time>2022-05-29T09:47:13.000Z</time></trkpt><trkpt lon="5.787281" lat="51.123149"><ele>26.6</ele><time>2022-05-29T09:47:14.000Z</time></trkpt><trkpt lon="5.787157" lat="51.123145"><ele>26.8</ele><time>2022-05-29T09:47:15.000Z</time></trkpt><trkpt lon="5.787029" lat="51.123142"><ele>26.8</ele><time>2022-05-29T09:47:16.000Z</time></trkpt><trkpt lon="5.786901" lat="51.123142"><ele>26.8</ele><time>2022-05-29T09:47:17.000Z</time></trkpt><trkpt lon="5.786776" lat="51.123138"><ele>26.6</ele><time>2022-05-29T09:47:18.000Z</time></trkpt><trkpt lon="5.786652" lat="51.123134"><ele>26.4</ele><time>2022-05-29T09:47:19.000Z</time></trkpt><trkpt lon="5.786526" lat="51.123131"><ele>26</ele><time>2022-05-29T09:47:20.000Z</time></trkpt><trkpt lon="5.786405" lat="51.12313"><ele>25.8</ele><time>2022-05-29T09:47:21.000Z</time></trkpt><trkpt lon="5.786285" lat="51.123126"><ele>26</ele><time>2022-05-29T09:47:22.000Z</time></trkpt><trkpt lon="5.786168" lat="51.123123"><ele>26.2</ele><time>2022-05-29T09:47:23.000Z</time></trkpt><trkpt lon="5.786044" lat="51.123122"><ele>26.4</ele><time>2022-05-29T09:47:24.000Z</time></trkpt><trkpt lon="5.785922" lat="51.123116"><ele>26.6</ele><time>2022-05-29T09:47:25.000Z</time></trkpt><trkpt lon="5.785797" lat="51.123116"><ele>26.8</ele><time>2022-05-29T09:47:26.000Z</time></trkpt><trkpt lon="5.78568" lat="51.123115"><ele>26.8</ele><time>2022-05-29T09:47:27.000Z</time></trkpt><trkpt lon="5.785568" lat="51.123112"><ele>26.8</ele><time>2022-05-29T09:47:28.000Z</time></trkpt><trkpt lon="5.785466" lat="51.123111"><ele>26.8</ele><time>2022-05-29T09:47:29.000Z</time></trkpt><trkpt lon="5.785366" lat="51.123106"><ele>26.8</ele><time>2022-05-29T09:47:30.000Z</time></trkpt><trkpt lon="5.785275" lat="51.123093"><ele>26.8</ele><time>2022-05-29T09:47:31.000Z</time></trkpt><trkpt lon="5.78519" lat="51.123073"><ele>26.8</ele><time>2022-05-29T09:47:32.000Z</time></trkpt><trkpt lon="5.785113" lat="51.123048"><ele>26.6</ele><time>2022-05-29T09:47:33.000Z</time></trkpt><trkpt lon="5.785031" lat="51.123012"><ele>26.6</ele><time>2022-05-29T09:47:34.000Z</time></trkpt><trkpt lon="5.784945" lat="51.122971"><ele>26.6</ele><time>2022-05-29T09:47:35.000Z</time></trkpt><trkpt lon="5.784848" lat="51.122929"><ele>26.6</ele><time>2022-05-29T09:47:36.000Z</time></trkpt><trkpt lon="5.784746" lat="51.122893"><ele>26.6</ele><time>2022-05-29T09:47:37.000Z</time></trkpt><trkpt lon="5.784635" lat="51.122869"><ele>26.6</ele><time>2022-05-29T09:47:38.000Z</time></trkpt><trkpt lon="5.784518" lat="51.122856"><ele>26.8</ele><time>2022-05-29T09:47:39.000Z</time></trkpt><trkpt lon="5.784398" lat="51.122858"><ele>26.6</ele><time>2022-05-29T09:47:40.000Z</time></trkpt><trkpt lon="5.78428" lat="51.122871"><ele>26.6</ele><time>2022-05-29T09:47:41.000Z</time></trkpt><trkpt lon="5.78416" lat="51.122889"><ele>26.6</ele><time>2022-05-29T09:47:42.000Z</time></trkpt><trkpt lon="5.78404" lat="51.122906"><ele>26.6</ele><time>2022-05-29T09:47:43.000Z</time></trkpt><trkpt lon="5.783918" lat="51.122928"><ele>26.6</ele><time>2022-05-29T09:47:44.000Z</time></trkpt><trkpt lon="5.783798" lat="51.122947"><ele>26.4</ele><time>2022-05-29T09:47:45.000Z</time></trkpt><trkpt lon="5.783676" lat="51.122966"><ele>26.6</ele><time>2022-05-29T09:47:46.000Z</time></trkpt><trkpt lon="5.783556" lat="51.122982"><ele>26.4</ele><time>2022-05-29T09:47:47.000Z</time></trkpt><trkpt lon="5.783431" lat="51.123002"><ele>26.4</ele><time>2022-05-29T09:47:48.000Z</time></trkpt><trkpt lon="5.783308" lat="51.123024"><ele>26.2</ele><time>2022-05-29T09:47:49.000Z</time></trkpt><trkpt lon="5.783188" lat="51.123043"><ele>26</ele><time>2022-05-29T09:47:50.000Z</time></trkpt><trkpt lon="5.783069" lat="51.123061"><ele>26</ele><time>2022-05-29T09:47:51.000Z</time></trkpt><trkpt lon="5.782945" lat="51.123081"><ele>25.8</ele><time>2022-05-29T09:47:52.000Z</time></trkpt><trkpt lon="5.782821" lat="51.123101"><ele>25.6</ele><time>2022-05-29T09:47:53.000Z</time></trkpt><trkpt lon="5.782699" lat="51.123123"><ele>25.4</ele><time>2022-05-29T09:47:54.000Z</time></trkpt><trkpt lon="5.78258" lat="51.123142"><ele>25.2</ele><time>2022-05-29T09:47:55.000Z</time></trkpt><trkpt lon="5.782459" lat="51.123161"><ele>25</ele><time>2022-05-29T09:47:56.000Z</time></trkpt><trkpt lon="5.782337" lat="51.12318"><ele>24.8</ele><time>2022-05-29T09:47:57.000Z</time></trkpt><trkpt lon="5.782218" lat="51.123199"><ele>24.8</ele><time>2022-05-29T09:47:58.000Z</time></trkpt><trkpt lon="5.782098" lat="51.123219"><ele>24.8</ele><time>2022-05-29T09:47:59.000Z</time></trkpt><trkpt lon="5.781977" lat="51.123241"><ele>24.8</ele><time>2022-05-29T09:48:00.000Z</time></trkpt><trkpt lon="5.78186" lat="51.12326"><ele>24.8</ele><time>2022-05-29T09:48:01.000Z</time></trkpt><trkpt lon="5.781734" lat="51.123283"><ele>24.8</ele><time>2022-05-29T09:48:02.000Z</time></trkpt><trkpt lon="5.781613" lat="51.123303"><ele>25</ele><time>2022-05-29T09:48:03.000Z</time></trkpt><trkpt lon="5.781489" lat="51.123325"><ele>25.2</ele><time>2022-05-29T09:48:04.000Z</time></trkpt><trkpt lon="5.781369" lat="51.123344"><ele>25.4</ele><time>2022-05-29T09:48:05.000Z</time></trkpt><trkpt lon="5.781245" lat="51.123367"><ele>25.6</ele><time>2022-05-29T09:48:06.000Z</time></trkpt><trkpt lon="5.781126" lat="51.123385"><ele>26</ele><time>2022-05-29T09:48:07.000Z</time></trkpt><trkpt lon="5.781001" lat="51.123406"><ele>26.2</ele><time>2022-05-29T09:48:08.000Z</time></trkpt><trkpt lon="5.780879" lat="51.123429"><ele>26.2</ele><time>2022-05-29T09:48:09.000Z</time></trkpt><trkpt lon="5.780756" lat="51.123451"><ele>26.2</ele><time>2022-05-29T09:48:10.000Z</time></trkpt><trkpt lon="5.780635" lat="51.123471"><ele>26.2</ele><time>2022-05-29T09:48:11.000Z</time></trkpt><trkpt lon="5.780511" lat="51.123497"><ele>26.2</ele><time>2022-05-29T09:48:12.000Z</time></trkpt><trkpt lon="5.780386" lat="51.123517"><ele>26.2</ele><time>2022-05-29T09:48:13.000Z</time></trkpt><trkpt lon="5.780262" lat="51.123539"><ele>26.4</ele><time>2022-05-29T09:48:14.000Z</time></trkpt><trkpt lon="5.78014" lat="51.123558"><ele>26.2</ele><time>2022-05-29T09:48:15.000Z</time></trkpt><trkpt lon="5.780017" lat="51.123578"><ele>26</ele><time>2022-05-29T09:48:16.000Z</time></trkpt><trkpt lon="5.779896" lat="51.1236"><ele>26</ele><time>2022-05-29T09:48:17.000Z</time></trkpt><trkpt lon="5.779776" lat="51.123622"><ele>26.2</ele><time>2022-05-29T09:48:18.000Z</time></trkpt><trkpt lon="5.779657" lat="51.123642"><ele>26.2</ele><time>2022-05-29T09:48:19.000Z</time></trkpt><trkpt lon="5.779534" lat="51.123664"><ele>26.2</ele><time>2022-05-29T09:48:20.000Z</time></trkpt><trkpt lon="5.779415" lat="51.123684"><ele>26.2</ele><time>2022-05-29T09:48:21.000Z</time></trkpt><trkpt lon="5.779297" lat="51.123707"><ele>26.2</ele><time>2022-05-29T09:48:22.000Z</time></trkpt><trkpt lon="5.77918" lat="51.123729"><ele>26.2</ele><time>2022-05-29T09:48:23.000Z</time></trkpt><trkpt lon="5.779062" lat="51.123748"><ele>26</ele><time>2022-05-29T09:48:24.000Z</time></trkpt><trkpt lon="5.778949" lat="51.123768"><ele>26</ele><time>2022-05-29T09:48:25.000Z</time></trkpt><trkpt lon="5.778837" lat="51.123791"><ele>26.2</ele><time>2022-05-29T09:48:26.000Z</time></trkpt><trkpt lon="5.778723" lat="51.123814"><ele>26.2</ele><time>2022-05-29T09:48:27.000Z</time></trkpt><trkpt lon="5.778611" lat="51.123836"><ele>26.4</ele><time>2022-05-29T09:48:28.000Z</time></trkpt><trkpt lon="5.7785" lat="51.123855"><ele>26.2</ele><time>2022-05-29T09:48:29.000Z</time></trkpt><trkpt lon="5.778379" lat="51.123878"><ele>26</ele><time>2022-05-29T09:48:30.000Z</time></trkpt><trkpt lon="5.778268" lat="51.123897"><ele>25.8</ele><time>2022-05-29T09:48:31.000Z</time></trkpt><trkpt lon="5.778147" lat="51.123921"><ele>25.6</ele><time>2022-05-29T09:48:32.000Z</time></trkpt><trkpt lon="5.778035" lat="51.123943"><ele>25.6</ele><time>2022-05-29T09:48:33.000Z</time></trkpt><trkpt lon="5.777919" lat="51.123963"><ele>25.6</ele><time>2022-05-29T09:48:34.000Z</time></trkpt><trkpt lon="5.777805" lat="51.123986"><ele>25.4</ele><time>2022-05-29T09:48:35.000Z</time></trkpt><trkpt lon="5.777688" lat="51.124008"><ele>25.2</ele><time>2022-05-29T09:48:36.000Z</time></trkpt><trkpt lon="5.777574" lat="51.124032"><ele>25.2</ele><time>2022-05-29T09:48:37.000Z</time></trkpt><trkpt lon="5.777462" lat="51.124059"><ele>25</ele><time>2022-05-29T09:48:38.000Z</time></trkpt><trkpt lon="5.777353" lat="51.124089"><ele>24.8</ele><time>2022-05-29T09:48:39.000Z</time></trkpt><trkpt lon="5.777236" lat="51.12412"><ele>24.8</ele><time>2022-05-29T09:48:40.000Z</time></trkpt><trkpt lon="5.777125" lat="51.124146"><ele>24.8</ele><time>2022-05-29T09:48:41.000Z</time></trkpt><trkpt lon="5.777014" lat="51.124173"><ele>24.6</ele><time>2022-05-29T09:48:42.000Z</time></trkpt><trkpt lon="5.776901" lat="51.124204"><ele>24.6</ele><time>2022-05-29T09:48:43.000Z</time></trkpt><trkpt lon="5.776785" lat="51.124234"><ele>24.6</ele><time>2022-05-29T09:48:44.000Z</time></trkpt><trkpt lon="5.776672" lat="51.124261"><ele>24.6</ele><time>2022-05-29T09:48:45.000Z</time></trkpt><trkpt lon="5.77656" lat="51.124291"><ele>24.6</ele><time>2022-05-29T09:48:46.000Z</time></trkpt><trkpt lon="5.776447" lat="51.124319"><ele>24.6</ele><time>2022-05-29T09:48:47.000Z</time></trkpt><trkpt lon="5.776331" lat="51.124349"><ele>24.6</ele><time>2022-05-29T09:48:48.000Z</time></trkpt><trkpt lon="5.776218" lat="51.124379"><ele>24.8</ele><time>2022-05-29T09:48:49.000Z</time></trkpt><trkpt lon="5.776102" lat="51.12441"><ele>25</ele><time>2022-05-29T09:48:50.000Z</time></trkpt><trkpt lon="5.775987" lat="51.12444"><ele>24.8</ele><time>2022-05-29T09:48:51.000Z</time></trkpt><trkpt lon="5.775873" lat="51.124463"><ele>25</ele><time>2022-05-29T09:48:52.000Z</time></trkpt><trkpt lon="5.775759" lat="51.12449"><ele>25.2</ele><time>2022-05-29T09:48:53.000Z</time></trkpt><trkpt lon="5.775645" lat="51.124516"><ele>25.6</ele><time>2022-05-29T09:48:54.000Z</time></trkpt><trkpt lon="5.775529" lat="51.124538"><ele>25.8</ele><time>2022-05-29T09:48:55.000Z</time></trkpt><trkpt lon="5.775416" lat="51.124558"><ele>25.8</ele><time>2022-05-29T09:48:56.000Z</time></trkpt><trkpt lon="5.775304" lat="51.124579"><ele>25.8</ele><time>2022-05-29T09:48:57.000Z</time></trkpt><trkpt lon="5.775185" lat="51.124595"><ele>25.8</ele><time>2022-05-29T09:48:58.000Z</time></trkpt><trkpt lon="5.77507" lat="51.124614"><ele>25.8</ele><time>2022-05-29T09:48:59.000Z</time></trkpt><trkpt lon="5.774954" lat="51.124633"><ele>26</ele><time>2022-05-29T09:49:00.000Z</time></trkpt><trkpt lon="5.77484" lat="51.124652"><ele>26.2</ele><time>2022-05-29T09:49:01.000Z</time></trkpt><trkpt lon="5.774724" lat="51.124672"><ele>26</ele><time>2022-05-29T09:49:02.000Z</time></trkpt><trkpt lon="5.774607" lat="51.12469"><ele>26</ele><time>2022-05-29T09:49:03.000Z</time></trkpt><trkpt lon="5.774488" lat="51.124706"><ele>26</ele><time>2022-05-29T09:49:04.000Z</time></trkpt><trkpt lon="5.774371" lat="51.124725"><ele>26</ele><time>2022-05-29T09:49:05.000Z</time></trkpt><trkpt lon="5.774253" lat="51.124745"><ele>25.6</ele><time>2022-05-29T09:49:06.000Z</time></trkpt><trkpt lon="5.774137" lat="51.124768"><ele>25.4</ele><time>2022-05-29T09:49:07.000Z</time></trkpt><trkpt lon="5.774021" lat="51.124791"><ele>25.4</ele><time>2022-05-29T09:49:08.000Z</time></trkpt><trkpt lon="5.773907" lat="51.124814"><ele>25.2</ele><time>2022-05-29T09:49:09.000Z</time></trkpt><trkpt lon="5.773791" lat="51.124842"><ele>25.4</ele><time>2022-05-29T09:49:10.000Z</time></trkpt><trkpt lon="5.77368" lat="51.124872"><ele>25.6</ele><time>2022-05-29T09:49:11.000Z</time></trkpt><trkpt lon="5.773572" lat="51.124903"><ele>25.8</ele><time>2022-05-29T09:49:12.000Z</time></trkpt><trkpt lon="5.773466" lat="51.124938"><ele>26</ele><time>2022-05-29T09:49:13.000Z</time></trkpt><trkpt lon="5.773361" lat="51.124976"><ele>26</ele><time>2022-05-29T09:49:14.000Z</time></trkpt><trkpt lon="5.773255" lat="51.125015"><ele>26</ele><time>2022-05-29T09:49:15.000Z</time></trkpt><trkpt lon="5.773153" lat="51.125057"><ele>26</ele><time>2022-05-29T09:49:16.000Z</time></trkpt><trkpt lon="5.773051" lat="51.125099"><ele>26</ele><time>2022-05-29T09:49:17.000Z</time></trkpt><trkpt lon="5.77295" lat="51.125142"><ele>26</ele><time>2022-05-29T09:49:18.000Z</time></trkpt><trkpt lon="5.772851" lat="51.125187"><ele>26</ele><time>2022-05-29T09:49:19.000Z</time></trkpt><trkpt lon="5.772754" lat="51.125233"><ele>26.2</ele><time>2022-05-29T09:49:20.000Z</time></trkpt><trkpt lon="5.772655" lat="51.12528"><ele>26.2</ele><time>2022-05-29T09:49:21.000Z</time></trkpt><trkpt lon="5.772556" lat="51.125329"><ele>26</ele><time>2022-05-29T09:49:22.000Z</time></trkpt><trkpt lon="5.772458" lat="51.125374"><ele>26</ele><time>2022-05-29T09:49:23.000Z</time></trkpt><trkpt lon="5.772362" lat="51.12542"><ele>25.8</ele><time>2022-05-29T09:49:24.000Z</time></trkpt><trkpt lon="5.772266" lat="51.125462"><ele>25.8</ele><time>2022-05-29T09:49:25.000Z</time></trkpt><trkpt lon="5.77217" lat="51.125508"><ele>25.8</ele><time>2022-05-29T09:49:26.000Z</time></trkpt><trkpt lon="5.772076" lat="51.125553"><ele>25.8</ele><time>2022-05-29T09:49:27.000Z</time></trkpt><trkpt lon="5.771982" lat="51.125596"><ele>25.8</ele><time>2022-05-29T09:49:28.000Z</time></trkpt><trkpt lon="5.771888" lat="51.125641"><ele>25.6</ele><time>2022-05-29T09:49:29.000Z</time></trkpt><trkpt lon="5.771791" lat="51.125687"><ele>25.6</ele><time>2022-05-29T09:49:30.000Z</time></trkpt><trkpt lon="5.771696" lat="51.125733"><ele>25.6</ele><time>2022-05-29T09:49:31.000Z</time></trkpt><trkpt lon="5.771603" lat="51.125779"><ele>25.6</ele><time>2022-05-29T09:49:32.000Z</time></trkpt><trkpt lon="5.771512" lat="51.125828"><ele>25.6</ele><time>2022-05-29T09:49:33.000Z</time></trkpt><trkpt lon="5.771419" lat="51.125873"><ele>25.6</ele><time>2022-05-29T09:49:34.000Z</time></trkpt><trkpt lon="5.771324" lat="51.125916"><ele>25.4</ele><time>2022-05-29T09:49:35.000Z</time></trkpt><trkpt lon="5.771229" lat="51.125958"><ele>25.4</ele><time>2022-05-29T09:49:36.000Z</time></trkpt><trkpt lon="5.771137" lat="51.126002"><ele>25.4</ele><time>2022-05-29T09:49:37.000Z</time></trkpt><trkpt lon="5.771052" lat="51.12604"><ele>25.4</ele><time>2022-05-29T09:49:38.000Z</time></trkpt><trkpt lon="5.770942" lat="51.126092"><ele>25.4</ele><time>2022-05-29T09:49:39.000Z</time></trkpt><trkpt lon="5.770847" lat="51.126137"><ele>25.4</ele><time>2022-05-29T09:49:40.000Z</time></trkpt><trkpt lon="5.770757" lat="51.126181"><ele>25.4</ele><time>2022-05-29T09:49:41.000Z</time></trkpt><trkpt lon="5.770657" lat="51.126225"><ele>25.4</ele><time>2022-05-29T09:49:42.000Z</time></trkpt><trkpt lon="5.770563" lat="51.12627"><ele>25.4</ele><time>2022-05-29T09:49:43.000Z</time></trkpt><trkpt lon="5.770466" lat="51.126316"><ele>25.4</ele><time>2022-05-29T09:49:44.000Z</time></trkpt><trkpt lon="5.770373" lat="51.126359"><ele>25.2</ele><time>2022-05-29T09:49:45.000Z</time></trkpt><trkpt lon="5.770276" lat="51.126405"><ele>25</ele><time>2022-05-29T09:49:46.000Z</time></trkpt><trkpt lon="5.770181" lat="51.126451"><ele>24.8</ele><time>2022-05-29T09:49:47.000Z</time></trkpt><trkpt lon="5.770087" lat="51.1265"><ele>24.6</ele><time>2022-05-29T09:49:48.000Z</time></trkpt><trkpt lon="5.77" lat="51.126548"><ele>24.6</ele><time>2022-05-29T09:49:49.000Z</time></trkpt><trkpt lon="5.769924" lat="51.126604"><ele>24.4</ele><time>2022-05-29T09:49:50.000Z</time></trkpt><trkpt lon="5.769852" lat="51.126662"><ele>24.4</ele><time>2022-05-29T09:49:51.000Z</time></trkpt><trkpt lon="5.769787" lat="51.126729"><ele>24.4</ele><time>2022-05-29T09:49:52.000Z</time></trkpt><trkpt lon="5.769733" lat="51.126794"><ele>24.4</ele><time>2022-05-29T09:49:53.000Z</time></trkpt><trkpt lon="5.769683" lat="51.126862"><ele>24.4</ele><time>2022-05-29T09:49:54.000Z</time></trkpt><trkpt lon="5.769636" lat="51.126927"><ele>24.4</ele><time>2022-05-29T09:49:55.000Z</time></trkpt><trkpt lon="5.769588" lat="51.126995"><ele>24.6</ele><time>2022-05-29T09:49:56.000Z</time></trkpt><trkpt lon="5.769538" lat="51.12706"><ele>24.6</ele><time>2022-05-29T09:49:57.000Z</time></trkpt><trkpt lon="5.769488" lat="51.127126"><ele>24.6</ele><time>2022-05-29T09:49:58.000Z</time></trkpt><trkpt lon="5.769443" lat="51.127194"><ele>24.6</ele><time>2022-05-29T09:49:59.000Z</time></trkpt><trkpt lon="5.769401" lat="51.127267"><ele>24.8</ele><time>2022-05-29T09:50:00.000Z</time></trkpt><trkpt lon="5.769364" lat="51.127335"><ele>24.8</ele><time>2022-05-29T09:50:01.000Z</time></trkpt><trkpt lon="5.769325" lat="51.127408"><ele>24.8</ele><time>2022-05-29T09:50:02.000Z</time></trkpt><trkpt lon="5.76929" lat="51.127481"><ele>24.8</ele><time>2022-05-29T09:50:03.000Z</time></trkpt><trkpt lon="5.769256" lat="51.12755"><ele>24.8</ele><time>2022-05-29T09:50:04.000Z</time></trkpt><trkpt lon="5.769224" lat="51.127622"><ele>24.8</ele><time>2022-05-29T09:50:05.000Z</time></trkpt><trkpt lon="5.769194" lat="51.12769"><ele>24.8</ele><time>2022-05-29T09:50:06.000Z</time></trkpt><trkpt lon="5.769163" lat="51.127759"><ele>24.6</ele><time>2022-05-29T09:50:07.000Z</time></trkpt><trkpt lon="5.769135" lat="51.127828"><ele>24.6</ele><time>2022-05-29T09:50:08.000Z</time></trkpt><trkpt lon="5.76911" lat="51.127899"><ele>24.6</ele><time>2022-05-29T09:50:09.000Z</time></trkpt><trkpt lon="5.769086" lat="51.127973"><ele>24.6</ele><time>2022-05-29T09:50:10.000Z</time></trkpt><trkpt lon="5.769064" lat="51.128043"><ele>24.6</ele><time>2022-05-29T09:50:11.000Z</time></trkpt><trkpt lon="5.769043" lat="51.128118"><ele>24.6</ele><time>2022-05-29T09:50:12.000Z</time></trkpt><trkpt lon="5.769023" lat="51.128188"><ele>24.6</ele><time>2022-05-29T09:50:13.000Z</time></trkpt><trkpt lon="5.769001" lat="51.128263"><ele>24.4</ele><time>2022-05-29T09:50:14.000Z</time></trkpt><trkpt lon="5.768977" lat="51.128332"><ele>24.4</ele><time>2022-05-29T09:50:15.000Z</time></trkpt><trkpt lon="5.768956" lat="51.128405"><ele>24.6</ele><time>2022-05-29T09:50:16.000Z</time></trkpt><trkpt lon="5.768934" lat="51.128477"><ele>24.6</ele><time>2022-05-29T09:50:17.000Z</time></trkpt><trkpt lon="5.768911" lat="51.128549"><ele>24.6</ele><time>2022-05-29T09:50:18.000Z</time></trkpt><trkpt lon="5.768892" lat="51.128618"><ele>24.6</ele><time>2022-05-29T09:50:19.000Z</time></trkpt><trkpt lon="5.768871" lat="51.12869"><ele>24.6</ele><time>2022-05-29T09:50:20.000Z</time></trkpt><trkpt lon="5.768849" lat="51.128763"><ele>24.6</ele><time>2022-05-29T09:50:21.000Z</time></trkpt><trkpt lon="5.768828" lat="51.128835"><ele>24.6</ele><time>2022-05-29T09:50:22.000Z</time></trkpt><trkpt lon="5.768806" lat="51.128907"><ele>24.6</ele><time>2022-05-29T09:50:23.000Z</time></trkpt><trkpt lon="5.768785" lat="51.12898"><ele>24.4</ele><time>2022-05-29T09:50:24.000Z</time></trkpt><trkpt lon="5.768765" lat="51.129052"><ele>24.4</ele><time>2022-05-29T09:50:25.000Z</time></trkpt><trkpt lon="5.768743" lat="51.129125"><ele>24.2</ele><time>2022-05-29T09:50:26.000Z</time></trkpt><trkpt lon="5.76872" lat="51.129197"><ele>24.2</ele><time>2022-05-29T09:50:27.000Z</time></trkpt><trkpt lon="5.768698" lat="51.129269"><ele>24.2</ele><time>2022-05-29T09:50:28.000Z</time></trkpt><trkpt lon="5.768676" lat="51.129337"><ele>24.4</ele><time>2022-05-29T09:50:29.000Z</time></trkpt><trkpt lon="5.768652" lat="51.129411"><ele>24.2</ele><time>2022-05-29T09:50:30.000Z</time></trkpt><trkpt lon="5.768629" lat="51.12948"><ele>24.2</ele><time>2022-05-29T09:50:31.000Z</time></trkpt><trkpt lon="5.768607" lat="51.129553"><ele>24.4</ele><time>2022-05-29T09:50:32.000Z</time></trkpt><trkpt lon="5.768586" lat="51.129625"><ele>24.4</ele><time>2022-05-29T09:50:33.000Z</time></trkpt><trkpt lon="5.768566" lat="51.129698"><ele>24.4</ele><time>2022-05-29T09:50:34.000Z</time></trkpt><trkpt lon="5.768545" lat="51.12977"><ele>24.2</ele><time>2022-05-29T09:50:35.000Z</time></trkpt><trkpt lon="5.768523" lat="51.129841"><ele>24.2</ele><time>2022-05-29T09:50:36.000Z</time></trkpt><trkpt lon="5.768501" lat="51.129914"><ele>24.2</ele><time>2022-05-29T09:50:37.000Z</time></trkpt><trkpt lon="5.768479" lat="51.129983"><ele>24.2</ele><time>2022-05-29T09:50:38.000Z</time></trkpt><trkpt lon="5.76846" lat="51.130052"><ele>24.4</ele><time>2022-05-29T09:50:39.000Z</time></trkpt><trkpt lon="5.76844" lat="51.130123"><ele>24.4</ele><time>2022-05-29T09:50:40.000Z</time></trkpt><trkpt lon="5.76842" lat="51.130192"><ele>24.4</ele><time>2022-05-29T09:50:41.000Z</time></trkpt><trkpt lon="5.768398" lat="51.130262"><ele>24.4</ele><time>2022-05-29T09:50:42.000Z</time></trkpt><trkpt lon="5.768378" lat="51.130334"><ele>24.4</ele><time>2022-05-29T09:50:43.000Z</time></trkpt><trkpt lon="5.76836" lat="51.130403"><ele>24.6</ele><time>2022-05-29T09:50:44.000Z</time></trkpt><trkpt lon="5.768341" lat="51.130476"><ele>24.6</ele><time>2022-05-29T09:50:45.000Z</time></trkpt><trkpt lon="5.768322" lat="51.130548"><ele>24.6</ele><time>2022-05-29T09:50:46.000Z</time></trkpt><trkpt lon="5.768302" lat="51.130617"><ele>24.6</ele><time>2022-05-29T09:50:47.000Z</time></trkpt><trkpt lon="5.768279" lat="51.130689"><ele>24.6</ele><time>2022-05-29T09:50:48.000Z</time></trkpt><trkpt lon="5.768256" lat="51.130761"><ele>24.6</ele><time>2022-05-29T09:50:49.000Z</time></trkpt><trkpt lon="5.768233" lat="51.130834"><ele>24.6</ele><time>2022-05-29T09:50:50.000Z</time></trkpt><trkpt lon="5.768211" lat="51.130902"><ele>24.6</ele><time>2022-05-29T09:50:51.000Z</time></trkpt><trkpt lon="5.768187" lat="51.130976"><ele>24.6</ele><time>2022-05-29T09:50:52.000Z</time></trkpt><trkpt lon="5.76816" lat="51.131047"><ele>24.8</ele><time>2022-05-29T09:50:53.000Z</time></trkpt><trkpt lon="5.768133" lat="51.131116"><ele>24.8</ele><time>2022-05-29T09:50:54.000Z</time></trkpt><trkpt lon="5.768102" lat="51.131184"><ele>24.6</ele><time>2022-05-29T09:50:55.000Z</time></trkpt><trkpt lon="5.768067" lat="51.13125"><ele>24.6</ele><time>2022-05-29T09:50:56.000Z</time></trkpt><trkpt lon="5.768031" lat="51.131317"><ele>24.4</ele><time>2022-05-29T09:50:57.000Z</time></trkpt><trkpt lon="5.767995" lat="51.131383"><ele>24.4</ele><time>2022-05-29T09:50:58.000Z</time></trkpt><trkpt lon="5.76796" lat="51.131451"><ele>24.4</ele><time>2022-05-29T09:50:59.000Z</time></trkpt><trkpt lon="5.767924" lat="51.13152"><ele>24.4</ele><time>2022-05-29T09:51:00.000Z</time></trkpt><trkpt lon="5.767887" lat="51.131587"><ele>24.4</ele><time>2022-05-29T09:51:01.000Z</time></trkpt><trkpt lon="5.767846" lat="51.131657"><ele>24.4</ele><time>2022-05-29T09:51:02.000Z</time></trkpt><trkpt lon="5.767806" lat="51.131726"><ele>24.4</ele><time>2022-05-29T09:51:03.000Z</time></trkpt><trkpt lon="5.767766" lat="51.131795"><ele>24.4</ele><time>2022-05-29T09:51:04.000Z</time></trkpt><trkpt lon="5.767726" lat="51.131863"><ele>24.2</ele><time>2022-05-29T09:51:05.000Z</time></trkpt><trkpt lon="5.767689" lat="51.131931"><ele>24.2</ele><time>2022-05-29T09:51:06.000Z</time></trkpt><trkpt lon="5.767654" lat="51.132002"><ele>24.2</ele><time>2022-05-29T09:51:07.000Z</time></trkpt><trkpt lon="5.767623" lat="51.132073"><ele>24.2</ele><time>2022-05-29T09:51:08.000Z</time></trkpt><trkpt lon="5.767593" lat="51.132142"><ele>24.2</ele><time>2022-05-29T09:51:09.000Z</time></trkpt><trkpt lon="5.767563" lat="51.132212"><ele>24.2</ele><time>2022-05-29T09:51:10.000Z</time></trkpt><trkpt lon="5.767533" lat="51.132283"><ele>24</ele><time>2022-05-29T09:51:11.000Z</time></trkpt><trkpt lon="5.767503" lat="51.132352"><ele>24.2</ele><time>2022-05-29T09:51:12.000Z</time></trkpt><trkpt lon="5.767473" lat="51.13242"><ele>23.8</ele><time>2022-05-29T09:51:13.000Z</time></trkpt><trkpt lon="5.767444" lat="51.13249"><ele>24</ele><time>2022-05-29T09:51:14.000Z</time></trkpt><trkpt lon="5.767419" lat="51.132562"><ele>24</ele><time>2022-05-29T09:51:15.000Z</time></trkpt><trkpt lon="5.767399" lat="51.132631"><ele>23.8</ele><time>2022-05-29T09:51:16.000Z</time></trkpt><trkpt lon="5.767383" lat="51.1327"><ele>23.8</ele><time>2022-05-29T09:51:17.000Z</time></trkpt><trkpt lon="5.767369" lat="51.132772"><ele>24</ele><time>2022-05-29T09:51:18.000Z</time></trkpt><trkpt lon="5.767356" lat="51.132841"><ele>24</ele><time>2022-05-29T09:51:19.000Z</time></trkpt><trkpt lon="5.767345" lat="51.132912"><ele>24</ele><time>2022-05-29T09:51:20.000Z</time></trkpt><trkpt lon="5.767333" lat="51.132978"><ele>24</ele><time>2022-05-29T09:51:21.000Z</time></trkpt><trkpt lon="5.767322" lat="51.13305"><ele>24</ele><time>2022-05-29T09:51:22.000Z</time></trkpt><trkpt lon="5.767311" lat="51.133119"><ele>24.2</ele><time>2022-05-29T09:51:23.000Z</time></trkpt><trkpt lon="5.767299" lat="51.133187"><ele>24.2</ele><time>2022-05-29T09:51:24.000Z</time></trkpt><trkpt lon="5.767284" lat="51.133252"><ele>24.2</ele><time>2022-05-29T09:51:25.000Z</time></trkpt><trkpt lon="5.767271" lat="51.13332"><ele>24.4</ele><time>2022-05-29T09:51:26.000Z</time></trkpt><trkpt lon="5.767259" lat="51.133385"><ele>24.4</ele><time>2022-05-29T09:51:27.000Z</time></trkpt><trkpt lon="5.767244" lat="51.133454"><ele>24.4</ele><time>2022-05-29T09:51:28.000Z</time></trkpt><trkpt lon="5.767229" lat="51.133518"><ele>24.6</ele><time>2022-05-29T09:51:29.000Z</time></trkpt><trkpt lon="5.767219" lat="51.13358"><ele>24.8</ele><time>2022-05-29T09:51:30.000Z</time></trkpt><trkpt lon="5.767209" lat="51.133639"><ele>24.8</ele><time>2022-05-29T09:51:31.000Z</time></trkpt><trkpt lon="5.7672" lat="51.133695"><ele>25</ele><time>2022-05-29T09:51:32.000Z</time></trkpt><trkpt lon="5.76719" lat="51.133748"><ele>25.2</ele><time>2022-05-29T09:51:33.000Z</time></trkpt><trkpt lon="5.76718" lat="51.133803"><ele>25.2</ele><time>2022-05-29T09:51:34.000Z</time></trkpt><trkpt lon="5.767171" lat="51.133856"><ele>25.4</ele><time>2022-05-29T09:51:35.000Z</time></trkpt><trkpt lon="5.767158" lat="51.133909"><ele>25.4</ele><time>2022-05-29T09:51:36.000Z</time></trkpt><trkpt lon="5.767136" lat="51.133957"><ele>25.6</ele><time>2022-05-29T09:51:37.000Z</time></trkpt><trkpt lon="5.767096" lat="51.134001"><ele>25.6</ele><time>2022-05-29T09:51:38.000Z</time></trkpt><trkpt lon="5.767035" lat="51.134032"><ele>25.6</ele><time>2022-05-29T09:51:39.000Z</time></trkpt><trkpt lon="5.766957" lat="51.134046"><ele>25.6</ele><time>2022-05-29T09:51:40.000Z</time></trkpt><trkpt lon="5.766867" lat="51.134053"><ele>25.6</ele><time>2022-05-29T09:51:41.000Z</time></trkpt><trkpt lon="5.766766" lat="51.134057"><ele>25.4</ele><time>2022-05-29T09:51:42.000Z</time></trkpt><trkpt lon="5.76666" lat="51.13406"><ele>25.2</ele><time>2022-05-29T09:51:43.000Z</time></trkpt><trkpt lon="5.76655" lat="51.13406"><ele>25.2</ele><time>2022-05-29T09:51:44.000Z</time></trkpt><trkpt lon="5.766438" lat="51.134061"><ele>25.4</ele><time>2022-05-29T09:51:45.000Z</time></trkpt><trkpt lon="5.766324" lat="51.134064"><ele>25.4</ele><time>2022-05-29T09:51:46.000Z</time></trkpt><trkpt lon="5.766211" lat="51.134068"><ele>25.4</ele><time>2022-05-29T09:51:47.000Z</time></trkpt><trkpt lon="5.766096" lat="51.134068"><ele>25.4</ele><time>2022-05-29T09:51:48.000Z</time></trkpt><trkpt lon="5.76598" lat="51.134072"><ele>25.4</ele><time>2022-05-29T09:51:49.000Z</time></trkpt><trkpt lon="5.765866" lat="51.134076"><ele>25.6</ele><time>2022-05-29T09:51:50.000Z</time></trkpt><trkpt lon="5.765748" lat="51.13408"><ele>25.8</ele><time>2022-05-29T09:51:51.000Z</time></trkpt><trkpt lon="5.76563" lat="51.134084"><ele>25.8</ele><time>2022-05-29T09:51:52.000Z</time></trkpt><trkpt lon="5.765512" lat="51.134087"><ele>25.8</ele><time>2022-05-29T09:51:53.000Z</time></trkpt><trkpt lon="5.765393" lat="51.134091"><ele>25.8</ele><time>2022-05-29T09:51:54.000Z</time></trkpt><trkpt lon="5.765275" lat="51.134096"><ele>26</ele><time>2022-05-29T09:51:55.000Z</time></trkpt><trkpt lon="5.765155" lat="51.134103"><ele>26</ele><time>2022-05-29T09:51:56.000Z</time></trkpt><trkpt lon="5.765035" lat="51.134106"><ele>26</ele><time>2022-05-29T09:51:57.000Z</time></trkpt><trkpt lon="5.764917" lat="51.13411"><ele>26</ele><time>2022-05-29T09:51:58.000Z</time></trkpt><trkpt lon="5.764797" lat="51.134113"><ele>26</ele><time>2022-05-29T09:51:59.000Z</time></trkpt><trkpt lon="5.764676" lat="51.134114"><ele>25.8</ele><time>2022-05-29T09:52:00.000Z</time></trkpt><trkpt lon="5.764556" lat="51.134118"><ele>25.8</ele><time>2022-05-29T09:52:01.000Z</time></trkpt><trkpt lon="5.764437" lat="51.134122"><ele>25.8</ele><time>2022-05-29T09:52:02.000Z</time></trkpt><trkpt lon="5.764314" lat="51.134125"><ele>25.6</ele><time>2022-05-29T09:52:03.000Z</time></trkpt><trkpt lon="5.764197" lat="51.13413"><ele>25.4</ele><time>2022-05-29T09:52:04.000Z</time></trkpt><trkpt lon="5.764079" lat="51.134137"><ele>25.2</ele><time>2022-05-29T09:52:05.000Z</time></trkpt><trkpt lon="5.763963" lat="51.134142"><ele>25</ele><time>2022-05-29T09:52:06.000Z</time></trkpt><trkpt lon="5.763846" lat="51.134154"><ele>24.8</ele><time>2022-05-29T09:52:07.000Z</time></trkpt><trkpt lon="5.763727" lat="51.134169"><ele>24.8</ele><time>2022-05-29T09:52:08.000Z</time></trkpt><trkpt lon="5.763611" lat="51.134181"><ele>24.8</ele><time>2022-05-29T09:52:09.000Z</time></trkpt><trkpt lon="5.763494" lat="51.134197"><ele>24.8</ele><time>2022-05-29T09:52:10.000Z</time></trkpt><trkpt lon="5.76338" lat="51.134215"><ele>24.8</ele><time>2022-05-29T09:52:11.000Z</time></trkpt><trkpt lon="5.763266" lat="51.134231"><ele>24.8</ele><time>2022-05-29T09:52:12.000Z</time></trkpt><trkpt lon="5.763153" lat="51.13425"><ele>24.8</ele><time>2022-05-29T09:52:13.000Z</time></trkpt><trkpt lon="5.76304" lat="51.134265"><ele>25</ele><time>2022-05-29T09:52:14.000Z</time></trkpt><trkpt lon="5.76293" lat="51.13428"><ele>25.2</ele><time>2022-05-29T09:52:15.000Z</time></trkpt><trkpt lon="5.762816" lat="51.134296"><ele>25.2</ele><time>2022-05-29T09:52:16.000Z</time></trkpt><trkpt lon="5.762705" lat="51.134314"><ele>25.4</ele><time>2022-05-29T09:52:17.000Z</time></trkpt><trkpt lon="5.762593" lat="51.13433"><ele>25.6</ele><time>2022-05-29T09:52:18.000Z</time></trkpt><trkpt lon="5.762482" lat="51.134345"><ele>25.6</ele><time>2022-05-29T09:52:19.000Z</time></trkpt><trkpt lon="5.762368" lat="51.134361"><ele>25.6</ele><time>2022-05-29T09:52:20.000Z</time></trkpt><trkpt lon="5.762257" lat="51.134379"><ele>25.6</ele><time>2022-05-29T09:52:21.000Z</time></trkpt><trkpt lon="5.762144" lat="51.134394"><ele>25.8</ele><time>2022-05-29T09:52:22.000Z</time></trkpt><trkpt lon="5.76203" lat="51.13441"><ele>25.8</ele><time>2022-05-29T09:52:23.000Z</time></trkpt><trkpt lon="5.761917" lat="51.134426"><ele>25.8</ele><time>2022-05-29T09:52:24.000Z</time></trkpt><trkpt lon="5.761805" lat="51.134443"><ele>25.8</ele><time>2022-05-29T09:52:25.000Z</time></trkpt><trkpt lon="5.761687" lat="51.13446"><ele>25.8</ele><time>2022-05-29T09:52:26.000Z</time></trkpt><trkpt lon="5.761569" lat="51.134479"><ele>25.8</ele><time>2022-05-29T09:52:27.000Z</time></trkpt><trkpt lon="5.761452" lat="51.134498"><ele>25.6</ele><time>2022-05-29T09:52:28.000Z</time></trkpt><trkpt lon="5.761337" lat="51.134513"><ele>25.6</ele><time>2022-05-29T09:52:29.000Z</time></trkpt><trkpt lon="5.761218" lat="51.134532"><ele>25.4</ele><time>2022-05-29T09:52:30.000Z</time></trkpt><trkpt lon="5.7611" lat="51.134551"><ele>25.4</ele><time>2022-05-29T09:52:31.000Z</time></trkpt><trkpt lon="5.760985" lat="51.134567"><ele>25.6</ele><time>2022-05-29T09:52:32.000Z</time></trkpt><trkpt lon="5.760869" lat="51.134585"><ele>25.6</ele><time>2022-05-29T09:52:33.000Z</time></trkpt><trkpt lon="5.760754" lat="51.134601"><ele>25.6</ele><time>2022-05-29T09:52:34.000Z</time></trkpt><trkpt lon="5.76064" lat="51.13462"><ele>25.6</ele><time>2022-05-29T09:52:35.000Z</time></trkpt><trkpt lon="5.760528" lat="51.134639"><ele>25.6</ele><time>2022-05-29T09:52:36.000Z</time></trkpt><trkpt lon="5.760415" lat="51.134658"><ele>25.4</ele><time>2022-05-29T09:52:37.000Z</time></trkpt><trkpt lon="5.760302" lat="51.134677"><ele>25.4</ele><time>2022-05-29T09:52:38.000Z</time></trkpt><trkpt lon="5.760192" lat="51.134696"><ele>25.6</ele><time>2022-05-29T09:52:39.000Z</time></trkpt><trkpt lon="5.760081" lat="51.134716"><ele>25.4</ele><time>2022-05-29T09:52:40.000Z</time></trkpt><trkpt lon="5.759971" lat="51.134736"><ele>25.4</ele><time>2022-05-29T09:52:41.000Z</time></trkpt><trkpt lon="5.759862" lat="51.134762"><ele>25.4</ele><time>2022-05-29T09:52:42.000Z</time></trkpt><trkpt lon="5.759754" lat="51.134786"><ele>25.4</ele><time>2022-05-29T09:52:43.000Z</time></trkpt><trkpt lon="5.759646" lat="51.134813"><ele>25.6</ele><time>2022-05-29T09:52:44.000Z</time></trkpt><trkpt lon="5.759539" lat="51.134843"><ele>25.6</ele><time>2022-05-29T09:52:45.000Z</time></trkpt><trkpt lon="5.759436" lat="51.13487"><ele>25.6</ele><time>2022-05-29T09:52:46.000Z</time></trkpt><trkpt lon="5.759331" lat="51.134896"><ele>25.6</ele><time>2022-05-29T09:52:47.000Z</time></trkpt><trkpt lon="5.75923" lat="51.134923"><ele>25.6</ele><time>2022-05-29T09:52:48.000Z</time></trkpt><trkpt lon="5.759129" lat="51.13495"><ele>25.6</ele><time>2022-05-29T09:52:49.000Z</time></trkpt><trkpt lon="5.759027" lat="51.13498"><ele>25.6</ele><time>2022-05-29T09:52:50.000Z</time></trkpt><trkpt lon="5.758926" lat="51.135007"><ele>25.6</ele><time>2022-05-29T09:52:51.000Z</time></trkpt><trkpt lon="5.758822" lat="51.135034"><ele>25.6</ele><time>2022-05-29T09:52:52.000Z</time></trkpt><trkpt lon="5.75872" lat="51.13506"><ele>25.6</ele><time>2022-05-29T09:52:53.000Z</time></trkpt><trkpt lon="5.758619" lat="51.135087"><ele>25.8</ele><time>2022-05-29T09:52:54.000Z</time></trkpt><trkpt lon="5.758523" lat="51.135114"><ele>25.8</ele><time>2022-05-29T09:52:55.000Z</time></trkpt><trkpt lon="5.758431" lat="51.13514"><ele>25.8</ele><time>2022-05-29T09:52:56.000Z</time></trkpt><trkpt lon="5.758343" lat="51.135163"><ele>25.8</ele><time>2022-05-29T09:52:57.000Z</time></trkpt><trkpt lon="5.758255" lat="51.135186"><ele>25.8</ele><time>2022-05-29T09:52:58.000Z</time></trkpt><trkpt lon="5.758167" lat="51.135208"><ele>25.8</ele><time>2022-05-29T09:52:59.000Z</time></trkpt><trkpt lon="5.758078" lat="51.135227"><ele>25.8</ele><time>2022-05-29T09:53:00.000Z</time></trkpt><trkpt lon="5.757994" lat="51.135247"><ele>26</ele><time>2022-05-29T09:53:01.000Z</time></trkpt><trkpt lon="5.757914" lat="51.135269"><ele>26</ele><time>2022-05-29T09:53:02.000Z</time></trkpt><trkpt lon="5.757832" lat="51.135286"><ele>26</ele><time>2022-05-29T09:53:03.000Z</time></trkpt><trkpt lon="5.757754" lat="51.135291"><ele>26</ele><time>2022-05-29T09:53:04.000Z</time></trkpt><trkpt lon="5.757681" lat="51.135286"><ele>26</ele><time>2022-05-29T09:53:05.000Z</time></trkpt><trkpt lon="5.757612" lat="51.135274"><ele>26</ele><time>2022-05-29T09:53:06.000Z</time></trkpt><trkpt lon="5.757548" lat="51.13526"><ele>26</ele><time>2022-05-29T09:53:07.000Z</time></trkpt><trkpt lon="5.757488" lat="51.135256"><ele>26</ele><time>2022-05-29T09:53:08.000Z</time></trkpt><trkpt lon="5.75744" lat="51.135271"><ele>26</ele><time>2022-05-29T09:53:09.000Z</time></trkpt><trkpt lon="5.757401" lat="51.135303"><ele>26</ele><time>2022-05-29T09:53:10.000Z</time></trkpt><trkpt lon="5.757358" lat="51.135341"><ele>26</ele><time>2022-05-29T09:53:11.000Z</time></trkpt><trkpt lon="5.757305" lat="51.135384"><ele>26</ele><time>2022-05-29T09:53:12.000Z</time></trkpt><trkpt lon="5.757243" lat="51.13543"><ele>26</ele><time>2022-05-29T09:53:13.000Z</time></trkpt><trkpt lon="5.757172" lat="51.135476"><ele>26</ele><time>2022-05-29T09:53:14.000Z</time></trkpt><trkpt lon="5.757096" lat="51.135526"><ele>26</ele><time>2022-05-29T09:53:15.000Z</time></trkpt><trkpt lon="5.757017" lat="51.13558"><ele>26.2</ele><time>2022-05-29T09:53:16.000Z</time></trkpt><trkpt lon="5.756938" lat="51.135634"><ele>26</ele><time>2022-05-29T09:53:17.000Z</time></trkpt><trkpt lon="5.75686" lat="51.135686"><ele>26</ele><time>2022-05-29T09:53:18.000Z</time></trkpt><trkpt lon="5.756783" lat="51.135738"><ele>26</ele><time>2022-05-29T09:53:19.000Z</time></trkpt><trkpt lon="5.756702" lat="51.135789"><ele>26</ele><time>2022-05-29T09:53:20.000Z</time></trkpt><trkpt lon="5.756623" lat="51.135843"><ele>26</ele><time>2022-05-29T09:53:21.000Z</time></trkpt><trkpt lon="5.756548" lat="51.135893"><ele>25.8</ele><time>2022-05-29T09:53:22.000Z</time></trkpt><trkpt lon="5.756471" lat="51.135942"><ele>25.8</ele><time>2022-05-29T09:53:23.000Z</time></trkpt><trkpt lon="5.756393" lat="51.135991"><ele>25.8</ele><time>2022-05-29T09:53:24.000Z</time></trkpt><trkpt lon="5.756318" lat="51.136041"><ele>26</ele><time>2022-05-29T09:53:25.000Z</time></trkpt><trkpt lon="5.756249" lat="51.136092"><ele>26</ele><time>2022-05-29T09:53:26.000Z</time></trkpt><trkpt lon="5.756172" lat="51.136145"><ele>26</ele><time>2022-05-29T09:53:27.000Z</time></trkpt><trkpt lon="5.756098" lat="51.136198"><ele>26</ele><time>2022-05-29T09:53:28.000Z</time></trkpt><trkpt lon="5.756022" lat="51.136247"><ele>26</ele><time>2022-05-29T09:53:29.000Z</time></trkpt><trkpt lon="5.755945" lat="51.136297"><ele>26</ele><time>2022-05-29T09:53:30.000Z</time></trkpt><trkpt lon="5.755867" lat="51.136346"><ele>26</ele><time>2022-05-29T09:53:31.000Z</time></trkpt><trkpt lon="5.755789" lat="51.136396"><ele>26.2</ele><time>2022-05-29T09:53:32.000Z</time></trkpt><trkpt lon="5.755711" lat="51.136446"><ele>26.2</ele><time>2022-05-29T09:53:33.000Z</time></trkpt><trkpt lon="5.755633" lat="51.136495"><ele>26.2</ele><time>2022-05-29T09:53:34.000Z</time></trkpt><trkpt lon="5.755557" lat="51.136545"><ele>26.2</ele><time>2022-05-29T09:53:35.000Z</time></trkpt><trkpt lon="5.755481" lat="51.136597"><ele>26.2</ele><time>2022-05-29T09:53:36.000Z</time></trkpt><trkpt lon="5.755403" lat="51.136647"><ele>26</ele><time>2022-05-29T09:53:37.000Z</time></trkpt><trkpt lon="5.755327" lat="51.136697"><ele>26</ele><time>2022-05-29T09:53:38.000Z</time></trkpt><trkpt lon="5.75525" lat="51.136751"><ele>26</ele><time>2022-05-29T09:53:39.000Z</time></trkpt><trkpt lon="5.755172" lat="51.136805"><ele>26</ele><time>2022-05-29T09:53:40.000Z</time></trkpt><trkpt lon="5.755092" lat="51.136857"><ele>25.8</ele><time>2022-05-29T09:53:41.000Z</time></trkpt><trkpt lon="5.755014" lat="51.136904"><ele>25.8</ele><time>2022-05-29T09:53:42.000Z</time></trkpt><trkpt lon="5.754937" lat="51.136956"><ele>25.8</ele><time>2022-05-29T09:53:43.000Z</time></trkpt><trkpt lon="5.754861" lat="51.137004"><ele>25.8</ele><time>2022-05-29T09:53:44.000Z</time></trkpt><trkpt lon="5.754779" lat="51.137059"><ele>25.6</ele><time>2022-05-29T09:53:45.000Z</time></trkpt><trkpt lon="5.754701" lat="51.13711"><ele>25.6</ele><time>2022-05-29T09:53:46.000Z</time></trkpt><trkpt lon="5.754623" lat="51.137163"><ele>25.6</ele><time>2022-05-29T09:53:47.000Z</time></trkpt><trkpt lon="5.754544" lat="51.137215"><ele>25.6</ele><time>2022-05-29T09:53:48.000Z</time></trkpt><trkpt lon="5.754463" lat="51.137269"><ele>25.8</ele><time>2022-05-29T09:53:49.000Z</time></trkpt><trkpt lon="5.754385" lat="51.13732"><ele>25.8</ele><time>2022-05-29T09:53:50.000Z</time></trkpt><trkpt lon="5.75431" lat="51.137376"><ele>25.8</ele><time>2022-05-29T09:53:51.000Z</time></trkpt><trkpt lon="5.754234" lat="51.137427"><ele>25.8</ele><time>2022-05-29T09:53:52.000Z</time></trkpt><trkpt lon="5.754158" lat="51.137484"><ele>25.8</ele><time>2022-05-29T09:53:53.000Z</time></trkpt><trkpt lon="5.754081" lat="51.137538"><ele>25.8</ele><time>2022-05-29T09:53:54.000Z</time></trkpt><trkpt lon="5.754" lat="51.137594"><ele>25.8</ele><time>2022-05-29T09:53:55.000Z</time></trkpt><trkpt lon="5.753918" lat="51.137648"><ele>25.8</ele><time>2022-05-29T09:53:56.000Z</time></trkpt><trkpt lon="5.753833" lat="51.137701"><ele>25.8</ele><time>2022-05-29T09:53:57.000Z</time></trkpt><trkpt lon="5.753751" lat="51.137756"><ele>25.8</ele><time>2022-05-29T09:53:58.000Z</time></trkpt><trkpt lon="5.753669" lat="51.137815"><ele>25.6</ele><time>2022-05-29T09:53:59.000Z</time></trkpt><trkpt lon="5.753585" lat="51.137873"><ele>25.6</ele><time>2022-05-29T09:54:00.000Z</time></trkpt><trkpt lon="5.753501" lat="51.13793"><ele>25.6</ele><time>2022-05-29T09:54:01.000Z</time></trkpt><trkpt lon="5.753417" lat="51.137988"><ele>25.6</ele><time>2022-05-29T09:54:02.000Z</time></trkpt><trkpt lon="5.753335" lat="51.138045"><ele>25.6</ele><time>2022-05-29T09:54:03.000Z</time></trkpt><trkpt lon="5.753254" lat="51.138098"><ele>25.4</ele><time>2022-05-29T09:54:04.000Z</time></trkpt><trkpt lon="5.753174" lat="51.138152"><ele>25.6</ele><time>2022-05-29T09:54:05.000Z</time></trkpt><trkpt lon="5.753096" lat="51.138208"><ele>25.6</ele><time>2022-05-29T09:54:06.000Z</time></trkpt><trkpt lon="5.753015" lat="51.138266"><ele>25.8</ele><time>2022-05-29T09:54:07.000Z</time></trkpt><trkpt lon="5.752936" lat="51.138319"><ele>25.8</ele><time>2022-05-29T09:54:08.000Z</time></trkpt><trkpt lon="5.752856" lat="51.138372"><ele>25.8</ele><time>2022-05-29T09:54:09.000Z</time></trkpt><trkpt lon="5.752775" lat="51.138426"><ele>25.8</ele><time>2022-05-29T09:54:10.000Z</time></trkpt><trkpt lon="5.752697" lat="51.138479"><ele>25.6</ele><time>2022-05-29T09:54:11.000Z</time></trkpt><trkpt lon="5.752618" lat="51.138535"><ele>25.6</ele><time>2022-05-29T09:54:12.000Z</time></trkpt><trkpt lon="5.752534" lat="51.13859"><ele>25.2</ele><time>2022-05-29T09:54:13.000Z</time></trkpt><trkpt lon="5.752454" lat="51.138643"><ele>25.4</ele><time>2022-05-29T09:54:14.000Z</time></trkpt><trkpt lon="5.752371" lat="51.138697"><ele>25.4</ele><time>2022-05-29T09:54:15.000Z</time></trkpt><trkpt lon="5.752287" lat="51.13875"><ele>25.2</ele><time>2022-05-29T09:54:16.000Z</time></trkpt><trkpt lon="5.752203" lat="51.138804"><ele>24.8</ele><time>2022-05-29T09:54:17.000Z</time></trkpt><trkpt lon="5.752118" lat="51.138861"><ele>24.8</ele><time>2022-05-29T09:54:18.000Z</time></trkpt><trkpt lon="5.752036" lat="51.138914"><ele>24.6</ele><time>2022-05-29T09:54:19.000Z</time></trkpt><trkpt lon="5.751954" lat="51.13897"><ele>24.6</ele><time>2022-05-29T09:54:20.000Z</time></trkpt><trkpt lon="5.751872" lat="51.139023"><ele>24.6</ele><time>2022-05-29T09:54:21.000Z</time></trkpt><trkpt lon="5.751787" lat="51.139078"><ele>24.8</ele><time>2022-05-29T09:54:22.000Z</time></trkpt><trkpt lon="5.751703" lat="51.139136"><ele>24.8</ele><time>2022-05-29T09:54:23.000Z</time></trkpt><trkpt lon="5.75162" lat="51.139189"><ele>24.8</ele><time>2022-05-29T09:54:24.000Z</time></trkpt><trkpt lon="5.751534" lat="51.139242"><ele>24.8</ele><time>2022-05-29T09:54:25.000Z</time></trkpt><trkpt lon="5.75145" lat="51.139295"><ele>25</ele><time>2022-05-29T09:54:26.000Z</time></trkpt><trkpt lon="5.751365" lat="51.139353"><ele>25</ele><time>2022-05-29T09:54:27.000Z</time></trkpt><trkpt lon="5.751284" lat="51.139406"><ele>25</ele><time>2022-05-29T09:54:28.000Z</time></trkpt><trkpt lon="5.751201" lat="51.139459"><ele>25</ele><time>2022-05-29T09:54:29.000Z</time></trkpt><trkpt lon="5.75112" lat="51.139513"><ele>25</ele><time>2022-05-29T09:54:30.000Z</time></trkpt><trkpt lon="5.751037" lat="51.13957"><ele>25</ele><time>2022-05-29T09:54:31.000Z</time></trkpt><trkpt lon="5.750954" lat="51.139624"><ele>25.2</ele><time>2022-05-29T09:54:32.000Z</time></trkpt><trkpt lon="5.750872" lat="51.139677"><ele>25</ele><time>2022-05-29T09:54:33.000Z</time></trkpt><trkpt lon="5.75079" lat="51.139731"><ele>24.6</ele><time>2022-05-29T09:54:34.000Z</time></trkpt><trkpt lon="5.75071" lat="51.139783"><ele>24.6</ele><time>2022-05-29T09:54:35.000Z</time></trkpt><trkpt lon="5.750635" lat="51.139832"><ele>24.8</ele><time>2022-05-29T09:54:36.000Z</time></trkpt><trkpt lon="5.750543" lat="51.139891"><ele>24.6</ele><time>2022-05-29T09:54:37.000Z</time></trkpt><trkpt lon="5.750462" lat="51.139944"><ele>24.8</ele><time>2022-05-29T09:54:38.000Z</time></trkpt><trkpt lon="5.750381" lat="51.139998"><ele>24.8</ele><time>2022-05-29T09:54:39.000Z</time></trkpt><trkpt lon="5.7503" lat="51.140053"><ele>24.8</ele><time>2022-05-29T09:54:40.000Z</time></trkpt><trkpt lon="5.750218" lat="51.140104"><ele>24.8</ele><time>2022-05-29T09:54:41.000Z</time></trkpt><trkpt lon="5.750138" lat="51.140157"><ele>24.8</ele><time>2022-05-29T09:54:42.000Z</time></trkpt><trkpt lon="5.750054" lat="51.14021"><ele>24.8</ele><time>2022-05-29T09:54:43.000Z</time></trkpt><trkpt lon="5.749971" lat="51.140265"><ele>24.8</ele><time>2022-05-29T09:54:44.000Z</time></trkpt><trkpt lon="5.749889" lat="51.140322"><ele>24.6</ele><time>2022-05-29T09:54:45.000Z</time></trkpt><trkpt lon="5.749809" lat="51.140375"><ele>24.6</ele><time>2022-05-29T09:54:46.000Z</time></trkpt><trkpt lon="5.749729" lat="51.140428"><ele>24.6</ele><time>2022-05-29T09:54:47.000Z</time></trkpt><trkpt lon="5.74965" lat="51.140477"><ele>24.4</ele><time>2022-05-29T09:54:48.000Z</time></trkpt><trkpt lon="5.749567" lat="51.140531"><ele>24.4</ele><time>2022-05-29T09:54:49.000Z</time></trkpt><trkpt lon="5.749484" lat="51.140581"><ele>24.6</ele><time>2022-05-29T09:54:50.000Z</time></trkpt><trkpt lon="5.749398" lat="51.140634"><ele>24.8</ele><time>2022-05-29T09:54:51.000Z</time></trkpt><trkpt lon="5.749309" lat="51.140684"><ele>25</ele><time>2022-05-29T09:54:52.000Z</time></trkpt><trkpt lon="5.749222" lat="51.140733"><ele>25</ele><time>2022-05-29T09:54:53.000Z</time></trkpt><trkpt lon="5.749142" lat="51.140781"><ele>25.2</ele><time>2022-05-29T09:54:54.000Z</time></trkpt><trkpt lon="5.749054" lat="51.14084"><ele>25.2</ele><time>2022-05-29T09:54:55.000Z</time></trkpt><trkpt lon="5.748972" lat="51.140895"><ele>25.4</ele><time>2022-05-29T09:54:56.000Z</time></trkpt><trkpt lon="5.748893" lat="51.140952"><ele>25.4</ele><time>2022-05-29T09:54:57.000Z</time></trkpt><trkpt lon="5.748812" lat="51.141009"><ele>25.4</ele><time>2022-05-29T09:54:58.000Z</time></trkpt><trkpt lon="5.748732" lat="51.141066"><ele>25.4</ele><time>2022-05-29T09:54:59.000Z</time></trkpt><trkpt lon="5.74865" lat="51.141123"><ele>25.4</ele><time>2022-05-29T09:55:00.000Z</time></trkpt><trkpt lon="5.748569" lat="51.14118"><ele>25.6</ele><time>2022-05-29T09:55:01.000Z</time></trkpt><trkpt lon="5.748491" lat="51.141235"><ele>25.6</ele><time>2022-05-29T09:55:02.000Z</time></trkpt><trkpt lon="5.748403" lat="51.141294"><ele>25.6</ele><time>2022-05-29T09:55:03.000Z</time></trkpt><trkpt lon="5.748319" lat="51.141348"><ele>25.6</ele><time>2022-05-29T09:55:04.000Z</time></trkpt><trkpt lon="5.748239" lat="51.141402"><ele>25.8</ele><time>2022-05-29T09:55:05.000Z</time></trkpt><trkpt lon="5.748157" lat="51.141459"><ele>25.8</ele><time>2022-05-29T09:55:06.000Z</time></trkpt><trkpt lon="5.748074" lat="51.141516"><ele>25.8</ele><time>2022-05-29T09:55:07.000Z</time></trkpt><trkpt lon="5.747993" lat="51.14157"><ele>25.8</ele><time>2022-05-29T09:55:08.000Z</time></trkpt><trkpt lon="5.747907" lat="51.141625"><ele>25.8</ele><time>2022-05-29T09:55:09.000Z</time></trkpt><trkpt lon="5.74782" lat="51.141681"><ele>25.8</ele><time>2022-05-29T09:55:10.000Z</time></trkpt><trkpt lon="5.747734" lat="51.141737"><ele>25.8</ele><time>2022-05-29T09:55:11.000Z</time></trkpt><trkpt lon="5.74765" lat="51.141791"><ele>25.6</ele><time>2022-05-29T09:55:12.000Z</time></trkpt><trkpt lon="5.747567" lat="51.141847"><ele>25.6</ele><time>2022-05-29T09:55:13.000Z</time></trkpt><trkpt lon="5.747485" lat="51.1419"><ele>25.6</ele><time>2022-05-29T09:55:14.000Z</time></trkpt><trkpt lon="5.747399" lat="51.141955"><ele>25.4</ele><time>2022-05-29T09:55:15.000Z</time></trkpt><trkpt lon="5.747315" lat="51.142009"><ele>25.4</ele><time>2022-05-29T09:55:16.000Z</time></trkpt><trkpt lon="5.747232" lat="51.142065"><ele>25.4</ele><time>2022-05-29T09:55:17.000Z</time></trkpt><trkpt lon="5.747149" lat="51.142119"><ele>25.6</ele><time>2022-05-29T09:55:18.000Z</time></trkpt><trkpt lon="5.747067" lat="51.142175"><ele>25.6</ele><time>2022-05-29T09:55:19.000Z</time></trkpt><trkpt lon="5.746985" lat="51.142228"><ele>25.6</ele><time>2022-05-29T09:55:20.000Z</time></trkpt><trkpt lon="5.746898" lat="51.142287"><ele>25.8</ele><time>2022-05-29T09:55:21.000Z</time></trkpt><trkpt lon="5.746815" lat="51.142344"><ele>25.6</ele><time>2022-05-29T09:55:22.000Z</time></trkpt><trkpt lon="5.746729" lat="51.142401"><ele>25.6</ele><time>2022-05-29T09:55:23.000Z</time></trkpt><trkpt lon="5.746645" lat="51.142457"><ele>25.6</ele><time>2022-05-29T09:55:24.000Z</time></trkpt><trkpt lon="5.746559" lat="51.142512"><ele>25.6</ele><time>2022-05-29T09:55:25.000Z</time></trkpt><trkpt lon="5.746473" lat="51.142568"><ele>25.6</ele><time>2022-05-29T09:55:26.000Z</time></trkpt><trkpt lon="5.746388" lat="51.142624"><ele>25.8</ele><time>2022-05-29T09:55:27.000Z</time></trkpt><trkpt lon="5.7463" lat="51.142682"><ele>26</ele><time>2022-05-29T09:55:28.000Z</time></trkpt><trkpt lon="5.746209" lat="51.142741"><ele>26</ele><time>2022-05-29T09:55:29.000Z</time></trkpt><trkpt lon="5.746121" lat="51.142799"><ele>26</ele><time>2022-05-29T09:55:30.000Z</time></trkpt><trkpt lon="5.746035" lat="51.142858"><ele>26.2</ele><time>2022-05-29T09:55:31.000Z</time></trkpt><trkpt lon="5.745947" lat="51.142915"><ele>26.2</ele><time>2022-05-29T09:55:32.000Z</time></trkpt><trkpt lon="5.745857" lat="51.142973"><ele>26.2</ele><time>2022-05-29T09:55:33.000Z</time></trkpt><trkpt lon="5.745768" lat="51.14303"><ele>26.2</ele><time>2022-05-29T09:55:34.000Z</time></trkpt><trkpt lon="5.74568" lat="51.143092"><ele>26.2</ele><time>2022-05-29T09:55:35.000Z</time></trkpt><trkpt lon="5.745596" lat="51.143147"><ele>26.4</ele><time>2022-05-29T09:55:36.000Z</time></trkpt><trkpt lon="5.745507" lat="51.143205"><ele>26.4</ele><time>2022-05-29T09:55:37.000Z</time></trkpt><trkpt lon="5.745416" lat="51.143263"><ele>26.4</ele><time>2022-05-29T09:55:38.000Z</time></trkpt><trkpt lon="5.745327" lat="51.143321"><ele>26.4</ele><time>2022-05-29T09:55:39.000Z</time></trkpt><trkpt lon="5.745241" lat="51.143378"><ele>26.4</ele><time>2022-05-29T09:55:40.000Z</time></trkpt><trkpt lon="5.745153" lat="51.143435"><ele>26.6</ele><time>2022-05-29T09:55:41.000Z</time></trkpt><trkpt lon="5.74507" lat="51.143491"><ele>26.6</ele><time>2022-05-29T09:55:42.000Z</time></trkpt><trkpt lon="5.744984" lat="51.143549"><ele>26.6</ele><time>2022-05-29T09:55:43.000Z</time></trkpt><trkpt lon="5.744899" lat="51.143606"><ele>26.6</ele><time>2022-05-29T09:55:44.000Z</time></trkpt><trkpt lon="5.744816" lat="51.14366"><ele>26.6</ele><time>2022-05-29T09:55:45.000Z</time></trkpt><trkpt lon="5.744733" lat="51.143717"><ele>26.6</ele><time>2022-05-29T09:55:46.000Z</time></trkpt><trkpt lon="5.744648" lat="51.143775"><ele>26.6</ele><time>2022-05-29T09:55:47.000Z</time></trkpt><trkpt lon="5.744565" lat="51.143831"><ele>26.6</ele><time>2022-05-29T09:55:48.000Z</time></trkpt><trkpt lon="5.744481" lat="51.143885"><ele>26.6</ele><time>2022-05-29T09:55:49.000Z</time></trkpt><trkpt lon="5.7444" lat="51.143941"><ele>26.6</ele><time>2022-05-29T09:55:50.000Z</time></trkpt><trkpt lon="5.744321" lat="51.143992"><ele>26.6</ele><time>2022-05-29T09:55:51.000Z</time></trkpt><trkpt lon="5.744243" lat="51.144046"><ele>26.4</ele><time>2022-05-29T09:55:52.000Z</time></trkpt><trkpt lon="5.744164" lat="51.144102"><ele>26.4</ele><time>2022-05-29T09:55:53.000Z</time></trkpt><trkpt lon="5.744087" lat="51.144154"><ele>26.4</ele><time>2022-05-29T09:55:54.000Z</time></trkpt><trkpt lon="5.744007" lat="51.144204"><ele>26.4</ele><time>2022-05-29T09:55:55.000Z</time></trkpt><trkpt lon="5.743933" lat="51.144253"><ele>26.4</ele><time>2022-05-29T09:55:56.000Z</time></trkpt><trkpt lon="5.743853" lat="51.144308"><ele>26.2</ele><time>2022-05-29T09:55:57.000Z</time></trkpt><trkpt lon="5.743776" lat="51.144357"><ele>26.2</ele><time>2022-05-29T09:55:58.000Z</time></trkpt><trkpt lon="5.743702" lat="51.144406"><ele>26.2</ele><time>2022-05-29T09:55:59.000Z</time></trkpt><trkpt lon="5.743629" lat="51.144456"><ele>26</ele><time>2022-05-29T09:56:00.000Z</time></trkpt><trkpt lon="5.743561" lat="51.144506"><ele>26</ele><time>2022-05-29T09:56:01.000Z</time></trkpt><trkpt lon="5.743493" lat="51.144555"><ele>26.2</ele><time>2022-05-29T09:56:02.000Z</time></trkpt><trkpt lon="5.743418" lat="51.144605"><ele>26.4</ele><time>2022-05-29T09:56:03.000Z</time></trkpt><trkpt lon="5.743345" lat="51.144653"><ele>26.6</ele><time>2022-05-29T09:56:04.000Z</time></trkpt><trkpt lon="5.743268" lat="51.144703"><ele>26.6</ele><time>2022-05-29T09:56:05.000Z</time></trkpt><trkpt lon="5.743196" lat="51.144752"><ele>26.4</ele><time>2022-05-29T09:56:06.000Z</time></trkpt><trkpt lon="5.743122" lat="51.144802"><ele>26.4</ele><time>2022-05-29T09:56:07.000Z</time></trkpt><trkpt lon="5.743044" lat="51.144856"><ele>26.4</ele><time>2022-05-29T09:56:08.000Z</time></trkpt><trkpt lon="5.742966" lat="51.144906"><ele>26.4</ele><time>2022-05-29T09:56:09.000Z</time></trkpt><trkpt lon="5.742888" lat="51.14495"><ele>26.6</ele><time>2022-05-29T09:56:10.000Z</time></trkpt><trkpt lon="5.74281" lat="51.144988"><ele>26.4</ele><time>2022-05-29T09:56:11.000Z</time></trkpt><trkpt lon="5.74273" lat="51.145028"><ele>26.4</ele><time>2022-05-29T09:56:12.000Z</time></trkpt><trkpt lon="5.742644" lat="51.145069"><ele>26.4</ele><time>2022-05-29T09:56:13.000Z</time></trkpt><trkpt lon="5.742571" lat="51.145114"><ele>26.4</ele><time>2022-05-29T09:56:14.000Z</time></trkpt><trkpt lon="5.742502" lat="51.145156"><ele>26.6</ele><time>2022-05-29T09:56:15.000Z</time></trkpt><trkpt lon="5.74244" lat="51.145194"><ele>26.4</ele><time>2022-05-29T09:56:16.000Z</time></trkpt><trkpt lon="5.74238" lat="51.145232"><ele>26.4</ele><time>2022-05-29T09:56:17.000Z</time></trkpt><trkpt lon="5.742322" lat="51.14527"><ele>26.4</ele><time>2022-05-29T09:56:18.000Z</time></trkpt><trkpt lon="5.742266" lat="51.145308"><ele>26.4</ele><time>2022-05-29T09:56:19.000Z</time></trkpt><trkpt lon="5.742212" lat="51.145345"><ele>26.4</ele><time>2022-05-29T09:56:20.000Z</time></trkpt><trkpt lon="5.742166" lat="51.14538"><ele>26.4</ele><time>2022-05-29T09:56:21.000Z</time></trkpt><trkpt lon="5.742136" lat="51.145414"><ele>26.4</ele><time>2022-05-29T09:56:22.000Z</time></trkpt><trkpt lon="5.742126" lat="51.145448"><ele>26.4</ele><time>2022-05-29T09:56:23.000Z</time></trkpt><trkpt lon="5.742137" lat="51.145478"><ele>26.6</ele><time>2022-05-29T09:56:24.000Z</time></trkpt><trkpt lon="5.742171" lat="51.145504"><ele>26.6</ele><time>2022-05-29T09:56:25.000Z</time></trkpt><trkpt lon="5.74222" lat="51.145522"><ele>26.6</ele><time>2022-05-29T09:56:26.000Z</time></trkpt><trkpt lon="5.742284" lat="51.145536"><ele>26.6</ele><time>2022-05-29T09:56:27.000Z</time></trkpt><trkpt lon="5.742359" lat="51.145548"><ele>26.6</ele><time>2022-05-29T09:56:28.000Z</time></trkpt><trkpt lon="5.742441" lat="51.14556"><ele>26.8</ele><time>2022-05-29T09:56:29.000Z</time></trkpt></trkseg></trk></gpx>